<?xml version="1.0" encoding="UTF-8" standalone="no" ?>
<gpx xmlns="http://www.topografix.com/GPX/1/1" xmlns:xsi="http://www.w3.org/2001/XMLSchema-instance" xsi:schemaLocation="http://www.topografix.com/GPX/1/1 http://www.topografix.com/GPX/1/1/gpx.xsd" version="1.1" creator="VisuGPX - https://www.visugpx.com">
  <metadata>
    <name>2016-10-02 Bike ride-Amberieux en Dombes O via Monthieux</name>
    <desc><![CDATA[2016-10-02 Bike ride-Amberieux en Dombes O via Monthieux]]></desc>
  </metadata>
  <wpt lat="45.92459" lon="4.73732">
    <ele>174</ele>
    <name><![CDATA[2016-10-02 10:47 (Start)]]></name>
  </wpt>
  <wpt lat="45.92465" lon="4.73707">
    <ele>174</ele>
    <name><![CDATA[2016-10-02 10:47 (End)]]></name>
    <desc><![CDATA[Created by Google My Tracks on Android  Name: 2016-10-02 10:47 Activity type: biking Description: - Total distance: 46.49 km (28.9 mi) Total time: 2:07:42 Moving time: 2:05:49 Average speed: 21.84 km/h (13.6 mi/h) Average moving speed: 22.17 km/h (13.8 mi/h) Max speed: 45.73 km/h (28.4 mi/h) Average pace: 2:45 min/km (4:25 min/mi) Average moving pace: 2:42 min/km (4:21 min/mi) Fastest pace: 1:19 min/km (2:07 min/mi) Max elevation: 316 m (1038 ft) Min elevation: 165 m (543 ft) Elevation gain: 769 m (2522 ft) Max grade: 29 % Min grade: -25 % Recorded: 02/10/2016 10:47]]></desc>
  </wpt>
  <trk>
    <name><![CDATA[2016-10-02 10:47]]></name>
    <trkseg>
      <trkpt lat="45.92459" lon="4.73732">
        <ele>174</ele>
        <time>2016-10-02T08:47:34.887Z</time>
      </trkpt>
      <trkpt lat="45.92456" lon="4.73735">
        <ele>174</ele>
        <time>2016-10-02T08:48:07Z</time>
      </trkpt>
      <trkpt lat="45.92456" lon="4.73752">
        <ele>173</ele>
        <time>2016-10-02T08:48:08Z</time>
      </trkpt>
      <trkpt lat="45.92455" lon="4.73759">
        <ele>173</ele>
        <time>2016-10-02T08:48:21Z</time>
      </trkpt>
      <trkpt lat="45.92455" lon="4.73773">
        <ele>173</ele>
        <time>2016-10-02T08:48:22Z</time>
      </trkpt>
      <trkpt lat="45.92453" lon="4.73761">
        <ele>173</ele>
        <time>2016-10-02T08:48:25Z</time>
      </trkpt>
      <trkpt lat="45.92458" lon="4.73747">
        <ele>174</ele>
        <time>2016-10-02T08:48:26Z</time>
      </trkpt>
      <trkpt lat="45.92457" lon="4.73734">
        <ele>174</ele>
        <time>2016-10-02T08:48:35Z</time>
      </trkpt>
      <trkpt lat="45.92457" lon="4.73733">
        <ele>174</ele>
        <time>2016-10-02T08:48:36Z</time>
      </trkpt>
      <trkpt lat="45.92455" lon="4.7373">
        <ele>174</ele>
        <time>2016-10-02T08:48:39Z</time>
      </trkpt>
      <trkpt lat="45.92455" lon="4.73731">
        <ele>174</ele>
        <time>2016-10-02T08:48:40Z</time>
      </trkpt>
      <trkpt lat="45.92459" lon="4.73727">
        <ele>174</ele>
        <time>2016-10-02T08:48:44Z</time>
      </trkpt>
      <trkpt lat="45.92461" lon="4.73727">
        <ele>174</ele>
        <time>2016-10-02T08:48:45Z</time>
      </trkpt>
      <trkpt lat="45.92465" lon="4.73719">
        <ele>174</ele>
        <time>2016-10-02T08:48:50Z</time>
      </trkpt>
      <trkpt lat="45.92466" lon="4.73715">
        <ele>174</ele>
        <time>2016-10-02T08:48:51Z</time>
      </trkpt>
      <trkpt lat="45.92466" lon="4.73713">
        <ele>174</ele>
        <time>2016-10-02T08:48:52Z</time>
      </trkpt>
      <trkpt lat="45.92467" lon="4.73711">
        <ele>174</ele>
        <time>2016-10-02T08:48:53Z</time>
      </trkpt>
      <trkpt lat="45.92468" lon="4.737">
        <ele>174</ele>
        <time>2016-10-02T08:48:56Z</time>
      </trkpt>
      <trkpt lat="45.92468" lon="4.73696">
        <ele>174</ele>
        <time>2016-10-02T08:48:57Z</time>
      </trkpt>
      <trkpt lat="45.92469" lon="4.73687">
        <ele>174</ele>
        <time>2016-10-02T08:48:59Z</time>
      </trkpt>
      <trkpt lat="45.92469" lon="4.73683">
        <ele>174</ele>
        <time>2016-10-02T08:49:00Z</time>
      </trkpt>
      <trkpt lat="45.9247" lon="4.73676">
        <ele>174</ele>
        <time>2016-10-02T08:49:01Z</time>
      </trkpt>
      <trkpt lat="45.92471" lon="4.7367">
        <ele>174</ele>
        <time>2016-10-02T08:49:02Z</time>
      </trkpt>
      <trkpt lat="45.92472" lon="4.73661">
        <ele>174</ele>
        <time>2016-10-02T08:49:04Z</time>
      </trkpt>
      <trkpt lat="45.92473" lon="4.73657">
        <ele>174</ele>
        <time>2016-10-02T08:49:05Z</time>
      </trkpt>
      <trkpt lat="45.9248" lon="4.73651">
        <ele>174</ele>
        <time>2016-10-02T08:49:11Z</time>
      </trkpt>
      <trkpt lat="45.92481" lon="4.73651">
        <ele>174</ele>
        <time>2016-10-02T08:49:12Z</time>
      </trkpt>
      <trkpt lat="45.9249" lon="4.73652">
        <ele>174</ele>
        <time>2016-10-02T08:49:15Z</time>
      </trkpt>
      <trkpt lat="45.92493" lon="4.73653">
        <ele>174</ele>
        <time>2016-10-02T08:49:16Z</time>
      </trkpt>
      <trkpt lat="45.92501" lon="4.73653">
        <ele>174</ele>
        <time>2016-10-02T08:49:18Z</time>
      </trkpt>
      <trkpt lat="45.92504" lon="4.73654">
        <ele>174</ele>
        <time>2016-10-02T08:49:19Z</time>
      </trkpt>
      <trkpt lat="45.92511" lon="4.73653">
        <ele>174</ele>
        <time>2016-10-02T08:49:21Z</time>
      </trkpt>
      <trkpt lat="45.92514" lon="4.73653">
        <ele>174</ele>
        <time>2016-10-02T08:49:22Z</time>
      </trkpt>
      <trkpt lat="45.92522" lon="4.73654">
        <ele>174</ele>
        <time>2016-10-02T08:49:24Z</time>
      </trkpt>
      <trkpt lat="45.92526" lon="4.73653">
        <ele>173</ele>
        <time>2016-10-02T08:49:25Z</time>
      </trkpt>
      <trkpt lat="45.92535" lon="4.73652">
        <ele>173</ele>
        <time>2016-10-02T08:49:27Z</time>
      </trkpt>
      <trkpt lat="45.92539" lon="4.73651">
        <ele>173</ele>
        <time>2016-10-02T08:49:28Z</time>
      </trkpt>
      <trkpt lat="45.92547" lon="4.73649">
        <ele>173</ele>
        <time>2016-10-02T08:49:30Z</time>
      </trkpt>
      <trkpt lat="45.92552" lon="4.73647">
        <ele>173</ele>
        <time>2016-10-02T08:49:31Z</time>
      </trkpt>
      <trkpt lat="45.92556" lon="4.73645">
        <ele>173</ele>
        <time>2016-10-02T08:49:32Z</time>
      </trkpt>
      <trkpt lat="45.9256" lon="4.73643">
        <ele>173</ele>
        <time>2016-10-02T08:49:33Z</time>
      </trkpt>
      <trkpt lat="45.92568" lon="4.73641">
        <ele>172</ele>
        <time>2016-10-02T08:49:36Z</time>
      </trkpt>
      <trkpt lat="45.92571" lon="4.73641">
        <ele>172</ele>
        <time>2016-10-02T08:49:37Z</time>
      </trkpt>
      <trkpt lat="45.92577" lon="4.73639">
        <ele>172</ele>
        <time>2016-10-02T08:49:39Z</time>
      </trkpt>
      <trkpt lat="45.9258" lon="4.73639">
        <ele>172</ele>
        <time>2016-10-02T08:49:40Z</time>
      </trkpt>
      <trkpt lat="45.92589" lon="4.73638">
        <ele>172</ele>
        <time>2016-10-02T08:49:42Z</time>
      </trkpt>
      <trkpt lat="45.92594" lon="4.73637">
        <ele>172</ele>
        <time>2016-10-02T08:49:43Z</time>
      </trkpt>
      <trkpt lat="45.92601" lon="4.73636">
        <ele>172</ele>
        <time>2016-10-02T08:49:45Z</time>
      </trkpt>
      <trkpt lat="45.92605" lon="4.73639">
        <ele>172</ele>
        <time>2016-10-02T08:49:46Z</time>
      </trkpt>
      <trkpt lat="45.9261" lon="4.73642">
        <ele>172</ele>
        <time>2016-10-02T08:49:47Z</time>
      </trkpt>
      <trkpt lat="45.92614" lon="4.73645">
        <ele>173</ele>
        <time>2016-10-02T08:49:48Z</time>
      </trkpt>
      <trkpt lat="45.92618" lon="4.73649">
        <ele>173</ele>
        <time>2016-10-02T08:49:49Z</time>
      </trkpt>
      <trkpt lat="45.92623" lon="4.7365">
        <ele>173</ele>
        <time>2016-10-02T08:49:50Z</time>
      </trkpt>
      <trkpt lat="45.92629" lon="4.73658">
        <ele>173</ele>
        <time>2016-10-02T08:49:52Z</time>
      </trkpt>
      <trkpt lat="45.92631" lon="4.73661">
        <ele>173</ele>
        <time>2016-10-02T08:49:53Z</time>
      </trkpt>
      <trkpt lat="45.92634" lon="4.7367">
        <ele>173</ele>
        <time>2016-10-02T08:49:56Z</time>
      </trkpt>
      <trkpt lat="45.92636" lon="4.73674">
        <ele>173</ele>
        <time>2016-10-02T08:49:57Z</time>
      </trkpt>
      <trkpt lat="45.92639" lon="4.73682">
        <ele>173</ele>
        <time>2016-10-02T08:49:59Z</time>
      </trkpt>
      <trkpt lat="45.92642" lon="4.73687">
        <ele>173</ele>
        <time>2016-10-02T08:50:00Z</time>
      </trkpt>
      <trkpt lat="45.92648" lon="4.73694">
        <ele>173</ele>
        <time>2016-10-02T08:50:02Z</time>
      </trkpt>
      <trkpt lat="45.92651" lon="4.73698">
        <ele>173</ele>
        <time>2016-10-02T08:50:03Z</time>
      </trkpt>
      <trkpt lat="45.92655" lon="4.737">
        <ele>173</ele>
        <time>2016-10-02T08:50:04Z</time>
      </trkpt>
      <trkpt lat="45.92659" lon="4.73707">
        <ele>173</ele>
        <time>2016-10-02T08:50:05Z</time>
      </trkpt>
      <trkpt lat="45.92662" lon="4.73711">
        <ele>173</ele>
        <time>2016-10-02T08:50:06Z</time>
      </trkpt>
      <trkpt lat="45.92666" lon="4.73715">
        <ele>173</ele>
        <time>2016-10-02T08:50:07Z</time>
      </trkpt>
      <trkpt lat="45.9267" lon="4.73718">
        <ele>174</ele>
        <time>2016-10-02T08:50:08Z</time>
      </trkpt>
      <trkpt lat="45.92675" lon="4.73721">
        <ele>174</ele>
        <time>2016-10-02T08:50:09Z</time>
      </trkpt>
      <trkpt lat="45.92679" lon="4.73723">
        <ele>174</ele>
        <time>2016-10-02T08:50:10Z</time>
      </trkpt>
      <trkpt lat="45.92684" lon="4.73724">
        <ele>174</ele>
        <time>2016-10-02T08:50:11Z</time>
      </trkpt>
      <trkpt lat="45.92689" lon="4.73725">
        <ele>173</ele>
        <time>2016-10-02T08:50:12Z</time>
      </trkpt>
      <trkpt lat="45.92693" lon="4.73725">
        <ele>173</ele>
        <time>2016-10-02T08:50:13Z</time>
      </trkpt>
      <trkpt lat="45.92697" lon="4.73725">
        <ele>173</ele>
        <time>2016-10-02T08:50:14Z</time>
      </trkpt>
      <trkpt lat="45.92702" lon="4.73725">
        <ele>173</ele>
        <time>2016-10-02T08:50:15Z</time>
      </trkpt>
      <trkpt lat="45.92711" lon="4.73725">
        <ele>173</ele>
        <time>2016-10-02T08:50:17Z</time>
      </trkpt>
      <trkpt lat="45.92715" lon="4.73725">
        <ele>173</ele>
        <time>2016-10-02T08:50:18Z</time>
      </trkpt>
      <trkpt lat="45.92722" lon="4.73727">
        <ele>173</ele>
        <time>2016-10-02T08:50:20Z</time>
      </trkpt>
      <trkpt lat="45.92726" lon="4.73729">
        <ele>173</ele>
        <time>2016-10-02T08:50:21Z</time>
      </trkpt>
      <trkpt lat="45.92732" lon="4.73732">
        <ele>173</ele>
        <time>2016-10-02T08:50:24Z</time>
      </trkpt>
      <trkpt lat="45.92738" lon="4.7373">
        <ele>173</ele>
        <time>2016-10-02T08:50:25Z</time>
      </trkpt>
      <trkpt lat="45.92745" lon="4.73727">
        <ele>173</ele>
        <time>2016-10-02T08:50:27Z</time>
      </trkpt>
      <trkpt lat="45.92749" lon="4.73724">
        <ele>173</ele>
        <time>2016-10-02T08:50:28Z</time>
      </trkpt>
      <trkpt lat="45.92754" lon="4.73726">
        <ele>172</ele>
        <time>2016-10-02T08:50:31Z</time>
      </trkpt>
      <trkpt lat="45.92758" lon="4.73721">
        <ele>172</ele>
        <time>2016-10-02T08:50:32Z</time>
      </trkpt>
      <trkpt lat="45.92766" lon="4.73725">
        <ele>172</ele>
        <time>2016-10-02T08:50:36Z</time>
      </trkpt>
      <trkpt lat="45.92768" lon="4.73726">
        <ele>172</ele>
        <time>2016-10-02T08:50:37Z</time>
      </trkpt>
      <trkpt lat="45.92778" lon="4.73736">
        <ele>172</ele>
        <time>2016-10-02T08:50:38Z</time>
      </trkpt>
      <trkpt lat="45.92786" lon="4.73739">
        <ele>172</ele>
        <time>2016-10-02T08:50:41Z</time>
      </trkpt>
      <trkpt lat="45.92787" lon="4.73733">
        <ele>172</ele>
        <time>2016-10-02T08:50:42Z</time>
      </trkpt>
      <trkpt lat="45.92789" lon="4.73726">
        <ele>172</ele>
        <time>2016-10-02T08:50:43Z</time>
      </trkpt>
      <trkpt lat="45.9279" lon="4.7372">
        <ele>172</ele>
        <time>2016-10-02T08:50:44Z</time>
      </trkpt>
      <trkpt lat="45.92791" lon="4.73713">
        <ele>172</ele>
        <time>2016-10-02T08:50:45Z</time>
      </trkpt>
      <trkpt lat="45.92792" lon="4.73705">
        <ele>172</ele>
        <time>2016-10-02T08:50:46Z</time>
      </trkpt>
      <trkpt lat="45.92794" lon="4.73698">
        <ele>172</ele>
        <time>2016-10-02T08:50:47Z</time>
      </trkpt>
      <trkpt lat="45.92796" lon="4.73692">
        <ele>172</ele>
        <time>2016-10-02T08:50:48Z</time>
      </trkpt>
      <trkpt lat="45.92797" lon="4.73685">
        <ele>172</ele>
        <time>2016-10-02T08:50:49Z</time>
      </trkpt>
      <trkpt lat="45.92799" lon="4.73678">
        <ele>172</ele>
        <time>2016-10-02T08:50:50Z</time>
      </trkpt>
      <trkpt lat="45.92803" lon="4.73669">
        <ele>172</ele>
        <time>2016-10-02T08:50:51Z</time>
      </trkpt>
      <trkpt lat="45.92804" lon="4.73662">
        <ele>172</ele>
        <time>2016-10-02T08:50:52Z</time>
      </trkpt>
      <trkpt lat="45.92806" lon="4.73655">
        <ele>172</ele>
        <time>2016-10-02T08:50:53Z</time>
      </trkpt>
      <trkpt lat="45.92808" lon="4.7365">
        <ele>172</ele>
        <time>2016-10-02T08:50:54Z</time>
      </trkpt>
      <trkpt lat="45.92814" lon="4.73643">
        <ele>171</ele>
        <time>2016-10-02T08:50:58Z</time>
      </trkpt>
      <trkpt lat="45.92816" lon="4.73644">
        <ele>171</ele>
        <time>2016-10-02T08:50:59Z</time>
      </trkpt>
      <trkpt lat="45.92818" lon="4.73639">
        <ele>171</ele>
        <time>2016-10-02T08:51:06Z</time>
      </trkpt>
      <trkpt lat="45.92818" lon="4.73635">
        <ele>172</ele>
        <time>2016-10-02T08:51:07Z</time>
      </trkpt>
      <trkpt lat="45.92819" lon="4.73624">
        <ele>172</ele>
        <time>2016-10-02T08:51:09Z</time>
      </trkpt>
      <trkpt lat="45.92818" lon="4.73617">
        <ele>172</ele>
        <time>2016-10-02T08:51:10Z</time>
      </trkpt>
      <trkpt lat="45.92818" lon="4.7361">
        <ele>172</ele>
        <time>2016-10-02T08:51:11Z</time>
      </trkpt>
      <trkpt lat="45.92818" lon="4.73603">
        <ele>171</ele>
        <time>2016-10-02T08:51:12Z</time>
      </trkpt>
      <trkpt lat="45.92818" lon="4.73596">
        <ele>171</ele>
        <time>2016-10-02T08:51:13Z</time>
      </trkpt>
      <trkpt lat="45.92818" lon="4.73589">
        <ele>171</ele>
        <time>2016-10-02T08:51:14Z</time>
      </trkpt>
      <trkpt lat="45.92818" lon="4.73581">
        <ele>171</ele>
        <time>2016-10-02T08:51:15Z</time>
      </trkpt>
      <trkpt lat="45.92819" lon="4.73574">
        <ele>171</ele>
        <time>2016-10-02T08:51:16Z</time>
      </trkpt>
      <trkpt lat="45.9282" lon="4.73567">
        <ele>171</ele>
        <time>2016-10-02T08:51:17Z</time>
      </trkpt>
      <trkpt lat="45.9282" lon="4.73559">
        <ele>171</ele>
        <time>2016-10-02T08:51:18Z</time>
      </trkpt>
      <trkpt lat="45.9282" lon="4.7355">
        <ele>171</ele>
        <time>2016-10-02T08:51:19Z</time>
      </trkpt>
      <trkpt lat="45.92821" lon="4.73542">
        <ele>171</ele>
        <time>2016-10-02T08:51:20Z</time>
      </trkpt>
      <trkpt lat="45.92822" lon="4.73534">
        <ele>172</ele>
        <time>2016-10-02T08:51:21Z</time>
      </trkpt>
      <trkpt lat="45.92823" lon="4.73525">
        <ele>172</ele>
        <time>2016-10-02T08:51:22Z</time>
      </trkpt>
      <trkpt lat="45.92824" lon="4.73517">
        <ele>172</ele>
        <time>2016-10-02T08:51:23Z</time>
      </trkpt>
      <trkpt lat="45.92824" lon="4.73513">
        <ele>172</ele>
        <time>2016-10-02T08:51:24Z</time>
      </trkpt>
      <trkpt lat="45.92825" lon="4.73511">
        <ele>172</ele>
        <time>2016-10-02T08:51:25Z</time>
      </trkpt>
      <trkpt lat="45.92826" lon="4.73504">
        <ele>172</ele>
        <time>2016-10-02T08:51:26Z</time>
      </trkpt>
      <trkpt lat="45.92827" lon="4.73497">
        <ele>172</ele>
        <time>2016-10-02T08:51:27Z</time>
      </trkpt>
      <trkpt lat="45.92828" lon="4.73489">
        <ele>172</ele>
        <time>2016-10-02T08:51:28Z</time>
      </trkpt>
      <trkpt lat="45.92829" lon="4.73482">
        <ele>172</ele>
        <time>2016-10-02T08:51:29Z</time>
      </trkpt>
      <trkpt lat="45.92829" lon="4.73474">
        <ele>172</ele>
        <time>2016-10-02T08:51:30Z</time>
      </trkpt>
      <trkpt lat="45.9283" lon="4.73466">
        <ele>172</ele>
        <time>2016-10-02T08:51:31Z</time>
      </trkpt>
      <trkpt lat="45.92831" lon="4.73458">
        <ele>172</ele>
        <time>2016-10-02T08:51:32Z</time>
      </trkpt>
      <trkpt lat="45.92832" lon="4.7345">
        <ele>172</ele>
        <time>2016-10-02T08:51:33Z</time>
      </trkpt>
      <trkpt lat="45.92833" lon="4.73441">
        <ele>172</ele>
        <time>2016-10-02T08:51:34Z</time>
      </trkpt>
      <trkpt lat="45.92834" lon="4.73433">
        <ele>172</ele>
        <time>2016-10-02T08:51:35Z</time>
      </trkpt>
      <trkpt lat="45.92836" lon="4.73423">
        <ele>172</ele>
        <time>2016-10-02T08:51:36Z</time>
      </trkpt>
      <trkpt lat="45.92837" lon="4.73414">
        <ele>172</ele>
        <time>2016-10-02T08:51:37Z</time>
      </trkpt>
      <trkpt lat="45.92838" lon="4.73405">
        <ele>172</ele>
        <time>2016-10-02T08:51:38Z</time>
      </trkpt>
      <trkpt lat="45.92839" lon="4.73396">
        <ele>172</ele>
        <time>2016-10-02T08:51:39Z</time>
      </trkpt>
      <trkpt lat="45.92839" lon="4.73388">
        <ele>172</ele>
        <time>2016-10-02T08:51:40Z</time>
      </trkpt>
      <trkpt lat="45.9284" lon="4.73379">
        <ele>172</ele>
        <time>2016-10-02T08:51:41Z</time>
      </trkpt>
      <trkpt lat="45.92842" lon="4.7337">
        <ele>171</ele>
        <time>2016-10-02T08:51:42Z</time>
      </trkpt>
      <trkpt lat="45.92842" lon="4.73361">
        <ele>171</ele>
        <time>2016-10-02T08:51:43Z</time>
      </trkpt>
      <trkpt lat="45.92842" lon="4.73352">
        <ele>171</ele>
        <time>2016-10-02T08:51:44Z</time>
      </trkpt>
      <trkpt lat="45.92843" lon="4.73344">
        <ele>171</ele>
        <time>2016-10-02T08:51:45Z</time>
      </trkpt>
      <trkpt lat="45.92844" lon="4.73336">
        <ele>171</ele>
        <time>2016-10-02T08:51:46Z</time>
      </trkpt>
      <trkpt lat="45.92846" lon="4.7333">
        <ele>171</ele>
        <time>2016-10-02T08:51:47Z</time>
      </trkpt>
      <trkpt lat="45.92847" lon="4.73321">
        <ele>171</ele>
        <time>2016-10-02T08:51:48Z</time>
      </trkpt>
      <trkpt lat="45.92848" lon="4.73312">
        <ele>171</ele>
        <time>2016-10-02T08:51:49Z</time>
      </trkpt>
      <trkpt lat="45.92849" lon="4.73303">
        <ele>171</ele>
        <time>2016-10-02T08:51:50Z</time>
      </trkpt>
      <trkpt lat="45.9285" lon="4.73294">
        <ele>171</ele>
        <time>2016-10-02T08:51:51Z</time>
      </trkpt>
      <trkpt lat="45.92851" lon="4.73284">
        <ele>171</ele>
        <time>2016-10-02T08:51:52Z</time>
      </trkpt>
      <trkpt lat="45.92853" lon="4.73275">
        <ele>171</ele>
        <time>2016-10-02T08:51:53Z</time>
      </trkpt>
      <trkpt lat="45.92855" lon="4.73265">
        <ele>171</ele>
        <time>2016-10-02T08:51:54Z</time>
      </trkpt>
      <trkpt lat="45.92856" lon="4.73256">
        <ele>171</ele>
        <time>2016-10-02T08:51:55Z</time>
      </trkpt>
      <trkpt lat="45.92859" lon="4.73245">
        <ele>171</ele>
        <time>2016-10-02T08:51:56Z</time>
      </trkpt>
      <trkpt lat="45.9286" lon="4.73235">
        <ele>171</ele>
        <time>2016-10-02T08:51:57Z</time>
      </trkpt>
      <trkpt lat="45.92861" lon="4.73226">
        <ele>171</ele>
        <time>2016-10-02T08:51:58Z</time>
      </trkpt>
      <trkpt lat="45.92863" lon="4.73217">
        <ele>171</ele>
        <time>2016-10-02T08:51:59Z</time>
      </trkpt>
      <trkpt lat="45.92864" lon="4.73208">
        <ele>171</ele>
        <time>2016-10-02T08:52:00Z</time>
      </trkpt>
      <trkpt lat="45.92865" lon="4.73198">
        <ele>171</ele>
        <time>2016-10-02T08:52:01Z</time>
      </trkpt>
      <trkpt lat="45.92865" lon="4.73189">
        <ele>171</ele>
        <time>2016-10-02T08:52:02Z</time>
      </trkpt>
      <trkpt lat="45.92866" lon="4.7318">
        <ele>171</ele>
        <time>2016-10-02T08:52:03Z</time>
      </trkpt>
      <trkpt lat="45.92866" lon="4.73171">
        <ele>171</ele>
        <time>2016-10-02T08:52:04Z</time>
      </trkpt>
      <trkpt lat="45.92868" lon="4.73162">
        <ele>171</ele>
        <time>2016-10-02T08:52:05Z</time>
      </trkpt>
      <trkpt lat="45.92869" lon="4.73153">
        <ele>171</ele>
        <time>2016-10-02T08:52:06Z</time>
      </trkpt>
      <trkpt lat="45.92871" lon="4.73143">
        <ele>171</ele>
        <time>2016-10-02T08:52:07Z</time>
      </trkpt>
      <trkpt lat="45.92872" lon="4.73135">
        <ele>171</ele>
        <time>2016-10-02T08:52:08Z</time>
      </trkpt>
      <trkpt lat="45.92874" lon="4.73126">
        <ele>171</ele>
        <time>2016-10-02T08:52:09Z</time>
      </trkpt>
      <trkpt lat="45.92875" lon="4.73119">
        <ele>172</ele>
        <time>2016-10-02T08:52:10Z</time>
      </trkpt>
      <trkpt lat="45.92877" lon="4.73111">
        <ele>172</ele>
        <time>2016-10-02T08:52:11Z</time>
      </trkpt>
      <trkpt lat="45.9288" lon="4.73104">
        <ele>172</ele>
        <time>2016-10-02T08:52:12Z</time>
      </trkpt>
      <trkpt lat="45.92882" lon="4.73096">
        <ele>172</ele>
        <time>2016-10-02T08:52:13Z</time>
      </trkpt>
      <trkpt lat="45.92886" lon="4.73088">
        <ele>172</ele>
        <time>2016-10-02T08:52:14Z</time>
      </trkpt>
      <trkpt lat="45.92889" lon="4.7308">
        <ele>172</ele>
        <time>2016-10-02T08:52:15Z</time>
      </trkpt>
      <trkpt lat="45.92892" lon="4.73073">
        <ele>172</ele>
        <time>2016-10-02T08:52:16Z</time>
      </trkpt>
      <trkpt lat="45.92896" lon="4.73066">
        <ele>172</ele>
        <time>2016-10-02T08:52:17Z</time>
      </trkpt>
      <trkpt lat="45.929" lon="4.73059">
        <ele>172</ele>
        <time>2016-10-02T08:52:18Z</time>
      </trkpt>
      <trkpt lat="45.92904" lon="4.73053">
        <ele>172</ele>
        <time>2016-10-02T08:52:19Z</time>
      </trkpt>
      <trkpt lat="45.92907" lon="4.73048">
        <ele>172</ele>
        <time>2016-10-02T08:52:20Z</time>
      </trkpt>
      <trkpt lat="45.92911" lon="4.73043">
        <ele>172</ele>
        <time>2016-10-02T08:52:21Z</time>
      </trkpt>
      <trkpt lat="45.92915" lon="4.73036">
        <ele>172</ele>
        <time>2016-10-02T08:52:22Z</time>
      </trkpt>
      <trkpt lat="45.9292" lon="4.7303">
        <ele>171</ele>
        <time>2016-10-02T08:52:23Z</time>
      </trkpt>
      <trkpt lat="45.92925" lon="4.73026">
        <ele>171</ele>
        <time>2016-10-02T08:52:24Z</time>
      </trkpt>
      <trkpt lat="45.92931" lon="4.7302">
        <ele>171</ele>
        <time>2016-10-02T08:52:25Z</time>
      </trkpt>
      <trkpt lat="45.92936" lon="4.73013">
        <ele>171</ele>
        <time>2016-10-02T08:52:26Z</time>
      </trkpt>
      <trkpt lat="45.92941" lon="4.73008">
        <ele>171</ele>
        <time>2016-10-02T08:52:27Z</time>
      </trkpt>
      <trkpt lat="45.92948" lon="4.72999">
        <ele>171</ele>
        <time>2016-10-02T08:52:28Z</time>
      </trkpt>
      <trkpt lat="45.92954" lon="4.72993">
        <ele>171</ele>
        <time>2016-10-02T08:52:29Z</time>
      </trkpt>
      <trkpt lat="45.92958" lon="4.72987">
        <ele>171</ele>
        <time>2016-10-02T08:52:30Z</time>
      </trkpt>
      <trkpt lat="45.92963" lon="4.72982">
        <ele>171</ele>
        <time>2016-10-02T08:52:31Z</time>
      </trkpt>
      <trkpt lat="45.92968" lon="4.72976">
        <ele>171</ele>
        <time>2016-10-02T08:52:32Z</time>
      </trkpt>
      <trkpt lat="45.92973" lon="4.72972">
        <ele>171</ele>
        <time>2016-10-02T08:52:33Z</time>
      </trkpt>
      <trkpt lat="45.92978" lon="4.72966">
        <ele>171</ele>
        <time>2016-10-02T08:52:34Z</time>
      </trkpt>
      <trkpt lat="45.92982" lon="4.72964">
        <ele>171</ele>
        <time>2016-10-02T08:52:35Z</time>
      </trkpt>
      <trkpt lat="45.92989" lon="4.72957">
        <ele>171</ele>
        <time>2016-10-02T08:52:37Z</time>
      </trkpt>
      <trkpt lat="45.92993" lon="4.72952">
        <ele>171</ele>
        <time>2016-10-02T08:52:38Z</time>
      </trkpt>
      <trkpt lat="45.92998" lon="4.72947">
        <ele>171</ele>
        <time>2016-10-02T08:52:39Z</time>
      </trkpt>
      <trkpt lat="45.93002" lon="4.72941">
        <ele>170</ele>
        <time>2016-10-02T08:52:40Z</time>
      </trkpt>
      <trkpt lat="45.93006" lon="4.72936">
        <ele>170</ele>
        <time>2016-10-02T08:52:41Z</time>
      </trkpt>
      <trkpt lat="45.9301" lon="4.72931">
        <ele>170</ele>
        <time>2016-10-02T08:52:42Z</time>
      </trkpt>
      <trkpt lat="45.93013" lon="4.72926">
        <ele>170</ele>
        <time>2016-10-02T08:52:43Z</time>
      </trkpt>
      <trkpt lat="45.93017" lon="4.72922">
        <ele>170</ele>
        <time>2016-10-02T08:52:44Z</time>
      </trkpt>
      <trkpt lat="45.9302" lon="4.72917">
        <ele>170</ele>
        <time>2016-10-02T08:52:45Z</time>
      </trkpt>
      <trkpt lat="45.93023" lon="4.72912">
        <ele>171</ele>
        <time>2016-10-02T08:52:46Z</time>
      </trkpt>
      <trkpt lat="45.93028" lon="4.72901">
        <ele>172</ele>
        <time>2016-10-02T08:52:48Z</time>
      </trkpt>
      <trkpt lat="45.93031" lon="4.72898">
        <ele>172</ele>
        <time>2016-10-02T08:52:49Z</time>
      </trkpt>
      <trkpt lat="45.93036" lon="4.72891">
        <ele>172</ele>
        <time>2016-10-02T08:52:52Z</time>
      </trkpt>
      <trkpt lat="45.93037" lon="4.72888">
        <ele>172</ele>
        <time>2016-10-02T08:52:53Z</time>
      </trkpt>
      <trkpt lat="45.93036" lon="4.72885">
        <ele>172</ele>
        <time>2016-10-02T08:53:05Z</time>
      </trkpt>
      <trkpt lat="45.93036" lon="4.72886">
        <ele>172</ele>
        <time>2016-10-02T08:53:06Z</time>
      </trkpt>
      <trkpt lat="45.93037" lon="4.72889">
        <ele>172</ele>
        <time>2016-10-02T08:53:17Z</time>
      </trkpt>
      <trkpt lat="45.93037" lon="4.72889">
        <ele>172</ele>
        <time>2016-10-02T08:53:18Z</time>
      </trkpt>
      <trkpt lat="45.93042" lon="4.72882">
        <ele>172</ele>
        <time>2016-10-02T08:53:21Z</time>
      </trkpt>
      <trkpt lat="45.93045" lon="4.72879">
        <ele>172</ele>
        <time>2016-10-02T08:53:22Z</time>
      </trkpt>
      <trkpt lat="45.93052" lon="4.72872">
        <ele>172</ele>
        <time>2016-10-02T08:53:24Z</time>
      </trkpt>
      <trkpt lat="45.93056" lon="4.7287">
        <ele>172</ele>
        <time>2016-10-02T08:53:25Z</time>
      </trkpt>
      <trkpt lat="45.93062" lon="4.72865">
        <ele>172</ele>
        <time>2016-10-02T08:53:27Z</time>
      </trkpt>
      <trkpt lat="45.93065" lon="4.72863">
        <ele>172</ele>
        <time>2016-10-02T08:53:28Z</time>
      </trkpt>
      <trkpt lat="45.93071" lon="4.72856">
        <ele>172</ele>
        <time>2016-10-02T08:53:30Z</time>
      </trkpt>
      <trkpt lat="45.93074" lon="4.72852">
        <ele>172</ele>
        <time>2016-10-02T08:53:31Z</time>
      </trkpt>
      <trkpt lat="45.93077" lon="4.72847">
        <ele>173</ele>
        <time>2016-10-02T08:53:32Z</time>
      </trkpt>
      <trkpt lat="45.9308" lon="4.72834">
        <ele>173</ele>
        <time>2016-10-02T08:53:33Z</time>
      </trkpt>
      <trkpt lat="45.93087" lon="4.72828">
        <ele>173</ele>
        <time>2016-10-02T08:53:34Z</time>
      </trkpt>
      <trkpt lat="45.93096" lon="4.72825">
        <ele>172</ele>
        <time>2016-10-02T08:53:35Z</time>
      </trkpt>
      <trkpt lat="45.93103" lon="4.72821">
        <ele>172</ele>
        <time>2016-10-02T08:53:36Z</time>
      </trkpt>
      <trkpt lat="45.93108" lon="4.72816">
        <ele>172</ele>
        <time>2016-10-02T08:53:37Z</time>
      </trkpt>
      <trkpt lat="45.93114" lon="4.7281">
        <ele>171</ele>
        <time>2016-10-02T08:53:38Z</time>
      </trkpt>
      <trkpt lat="45.93119" lon="4.72804">
        <ele>171</ele>
        <time>2016-10-02T08:53:39Z</time>
      </trkpt>
      <trkpt lat="45.93125" lon="4.72799">
        <ele>171</ele>
        <time>2016-10-02T08:53:40Z</time>
      </trkpt>
      <trkpt lat="45.9313" lon="4.72787">
        <ele>171</ele>
        <time>2016-10-02T08:53:41Z</time>
      </trkpt>
      <trkpt lat="45.93135" lon="4.7278">
        <ele>171</ele>
        <time>2016-10-02T08:53:42Z</time>
      </trkpt>
      <trkpt lat="45.9314" lon="4.72772">
        <ele>171</ele>
        <time>2016-10-02T08:53:43Z</time>
      </trkpt>
      <trkpt lat="45.93145" lon="4.72765">
        <ele>171</ele>
        <time>2016-10-02T08:53:44Z</time>
      </trkpt>
      <trkpt lat="45.93151" lon="4.72759">
        <ele>170</ele>
        <time>2016-10-02T08:53:45Z</time>
      </trkpt>
      <trkpt lat="45.93156" lon="4.72754">
        <ele>170</ele>
        <time>2016-10-02T08:53:46Z</time>
      </trkpt>
      <trkpt lat="45.93162" lon="4.7275">
        <ele>170</ele>
        <time>2016-10-02T08:53:47Z</time>
      </trkpt>
      <trkpt lat="45.93167" lon="4.72744">
        <ele>170</ele>
        <time>2016-10-02T08:53:48Z</time>
      </trkpt>
      <trkpt lat="45.93171" lon="4.72737">
        <ele>170</ele>
        <time>2016-10-02T08:53:49Z</time>
      </trkpt>
      <trkpt lat="45.93176" lon="4.72731">
        <ele>170</ele>
        <time>2016-10-02T08:53:50Z</time>
      </trkpt>
      <trkpt lat="45.93181" lon="4.72726">
        <ele>170</ele>
        <time>2016-10-02T08:53:51Z</time>
      </trkpt>
      <trkpt lat="45.93186" lon="4.72721">
        <ele>169</ele>
        <time>2016-10-02T08:53:52Z</time>
      </trkpt>
      <trkpt lat="45.93191" lon="4.72715">
        <ele>169</ele>
        <time>2016-10-02T08:53:53Z</time>
      </trkpt>
      <trkpt lat="45.93195" lon="4.72708">
        <ele>169</ele>
        <time>2016-10-02T08:53:54Z</time>
      </trkpt>
      <trkpt lat="45.932" lon="4.72702">
        <ele>169</ele>
        <time>2016-10-02T08:53:55Z</time>
      </trkpt>
      <trkpt lat="45.93205" lon="4.72696">
        <ele>169</ele>
        <time>2016-10-02T08:53:56Z</time>
      </trkpt>
      <trkpt lat="45.9321" lon="4.7269">
        <ele>169</ele>
        <time>2016-10-02T08:53:57Z</time>
      </trkpt>
      <trkpt lat="45.93215" lon="4.72684">
        <ele>169</ele>
        <time>2016-10-02T08:53:58Z</time>
      </trkpt>
      <trkpt lat="45.9322" lon="4.72678">
        <ele>169</ele>
        <time>2016-10-02T08:53:59Z</time>
      </trkpt>
      <trkpt lat="45.93225" lon="4.72673">
        <ele>169</ele>
        <time>2016-10-02T08:54:00Z</time>
      </trkpt>
      <trkpt lat="45.9323" lon="4.72667">
        <ele>169</ele>
        <time>2016-10-02T08:54:01Z</time>
      </trkpt>
      <trkpt lat="45.93235" lon="4.72663">
        <ele>169</ele>
        <time>2016-10-02T08:54:02Z</time>
      </trkpt>
      <trkpt lat="45.9324" lon="4.72657">
        <ele>169</ele>
        <time>2016-10-02T08:54:03Z</time>
      </trkpt>
      <trkpt lat="45.93244" lon="4.72651">
        <ele>169</ele>
        <time>2016-10-02T08:54:04Z</time>
      </trkpt>
      <trkpt lat="45.93249" lon="4.72646">
        <ele>170</ele>
        <time>2016-10-02T08:54:05Z</time>
      </trkpt>
      <trkpt lat="45.93254" lon="4.7264">
        <ele>169</ele>
        <time>2016-10-02T08:54:06Z</time>
      </trkpt>
      <trkpt lat="45.93259" lon="4.72634">
        <ele>170</ele>
        <time>2016-10-02T08:54:07Z</time>
      </trkpt>
      <trkpt lat="45.93264" lon="4.72629">
        <ele>170</ele>
        <time>2016-10-02T08:54:08Z</time>
      </trkpt>
      <trkpt lat="45.93269" lon="4.72623">
        <ele>170</ele>
        <time>2016-10-02T08:54:09Z</time>
      </trkpt>
      <trkpt lat="45.93274" lon="4.72617">
        <ele>170</ele>
        <time>2016-10-02T08:54:10Z</time>
      </trkpt>
      <trkpt lat="45.93279" lon="4.7261">
        <ele>170</ele>
        <time>2016-10-02T08:54:11Z</time>
      </trkpt>
      <trkpt lat="45.93284" lon="4.72604">
        <ele>170</ele>
        <time>2016-10-02T08:54:12Z</time>
      </trkpt>
      <trkpt lat="45.93289" lon="4.72598">
        <ele>170</ele>
        <time>2016-10-02T08:54:13Z</time>
      </trkpt>
      <trkpt lat="45.93294" lon="4.72592">
        <ele>170</ele>
        <time>2016-10-02T08:54:14Z</time>
      </trkpt>
      <trkpt lat="45.93299" lon="4.72586">
        <ele>170</ele>
        <time>2016-10-02T08:54:15Z</time>
      </trkpt>
      <trkpt lat="45.93304" lon="4.72581">
        <ele>171</ele>
        <time>2016-10-02T08:54:16Z</time>
      </trkpt>
      <trkpt lat="45.93309" lon="4.72576">
        <ele>171</ele>
        <time>2016-10-02T08:54:17Z</time>
      </trkpt>
      <trkpt lat="45.93314" lon="4.72571">
        <ele>171</ele>
        <time>2016-10-02T08:54:18Z</time>
      </trkpt>
      <trkpt lat="45.93318" lon="4.72565">
        <ele>171</ele>
        <time>2016-10-02T08:54:19Z</time>
      </trkpt>
      <trkpt lat="45.93322" lon="4.72559">
        <ele>171</ele>
        <time>2016-10-02T08:54:20Z</time>
      </trkpt>
      <trkpt lat="45.93327" lon="4.72554">
        <ele>171</ele>
        <time>2016-10-02T08:54:21Z</time>
      </trkpt>
      <trkpt lat="45.93332" lon="4.72549">
        <ele>172</ele>
        <time>2016-10-02T08:54:22Z</time>
      </trkpt>
      <trkpt lat="45.93337" lon="4.72543">
        <ele>171</ele>
        <time>2016-10-02T08:54:23Z</time>
      </trkpt>
      <trkpt lat="45.93342" lon="4.72538">
        <ele>171</ele>
        <time>2016-10-02T08:54:24Z</time>
      </trkpt>
      <trkpt lat="45.93346" lon="4.72533">
        <ele>172</ele>
        <time>2016-10-02T08:54:25Z</time>
      </trkpt>
      <trkpt lat="45.93351" lon="4.72527">
        <ele>172</ele>
        <time>2016-10-02T08:54:26Z</time>
      </trkpt>
      <trkpt lat="45.93356" lon="4.72521">
        <ele>172</ele>
        <time>2016-10-02T08:54:27Z</time>
      </trkpt>
      <trkpt lat="45.93361" lon="4.72515">
        <ele>172</ele>
        <time>2016-10-02T08:54:28Z</time>
      </trkpt>
      <trkpt lat="45.93366" lon="4.72509">
        <ele>172</ele>
        <time>2016-10-02T08:54:29Z</time>
      </trkpt>
      <trkpt lat="45.93371" lon="4.72503">
        <ele>172</ele>
        <time>2016-10-02T08:54:30Z</time>
      </trkpt>
      <trkpt lat="45.93377" lon="4.72495">
        <ele>173</ele>
        <time>2016-10-02T08:54:31Z</time>
      </trkpt>
      <trkpt lat="45.93382" lon="4.72491">
        <ele>173</ele>
        <time>2016-10-02T08:54:32Z</time>
      </trkpt>
      <trkpt lat="45.93386" lon="4.72485">
        <ele>173</ele>
        <time>2016-10-02T08:54:33Z</time>
      </trkpt>
      <trkpt lat="45.9339" lon="4.72479">
        <ele>173</ele>
        <time>2016-10-02T08:54:34Z</time>
      </trkpt>
      <trkpt lat="45.93394" lon="4.72472">
        <ele>173</ele>
        <time>2016-10-02T08:54:35Z</time>
      </trkpt>
      <trkpt lat="45.93396" lon="4.72466">
        <ele>173</ele>
        <time>2016-10-02T08:54:36Z</time>
      </trkpt>
      <trkpt lat="45.93398" lon="4.72459">
        <ele>173</ele>
        <time>2016-10-02T08:54:37Z</time>
      </trkpt>
      <trkpt lat="45.934" lon="4.72452">
        <ele>173</ele>
        <time>2016-10-02T08:54:38Z</time>
      </trkpt>
      <trkpt lat="45.93402" lon="4.72445">
        <ele>173</ele>
        <time>2016-10-02T08:54:39Z</time>
      </trkpt>
      <trkpt lat="45.93406" lon="4.72439">
        <ele>173</ele>
        <time>2016-10-02T08:54:40Z</time>
      </trkpt>
      <trkpt lat="45.9341" lon="4.72431">
        <ele>173</ele>
        <time>2016-10-02T08:54:41Z</time>
      </trkpt>
      <trkpt lat="45.93414" lon="4.72426">
        <ele>174</ele>
        <time>2016-10-02T08:54:42Z</time>
      </trkpt>
      <trkpt lat="45.93418" lon="4.72421">
        <ele>174</ele>
        <time>2016-10-02T08:54:43Z</time>
      </trkpt>
      <trkpt lat="45.93424" lon="4.72418">
        <ele>174</ele>
        <time>2016-10-02T08:54:44Z</time>
      </trkpt>
      <trkpt lat="45.93429" lon="4.72415">
        <ele>174</ele>
        <time>2016-10-02T08:54:45Z</time>
      </trkpt>
      <trkpt lat="45.93435" lon="4.72413">
        <ele>174</ele>
        <time>2016-10-02T08:54:46Z</time>
      </trkpt>
      <trkpt lat="45.93441" lon="4.72413">
        <ele>174</ele>
        <time>2016-10-02T08:54:47Z</time>
      </trkpt>
      <trkpt lat="45.93446" lon="4.72411">
        <ele>173</ele>
        <time>2016-10-02T08:54:48Z</time>
      </trkpt>
      <trkpt lat="45.93452" lon="4.72408">
        <ele>173</ele>
        <time>2016-10-02T08:54:49Z</time>
      </trkpt>
      <trkpt lat="45.93457" lon="4.72405">
        <ele>173</ele>
        <time>2016-10-02T08:54:50Z</time>
      </trkpt>
      <trkpt lat="45.93461" lon="4.72399">
        <ele>173</ele>
        <time>2016-10-02T08:54:51Z</time>
      </trkpt>
      <trkpt lat="45.93466" lon="4.72395">
        <ele>173</ele>
        <time>2016-10-02T08:54:52Z</time>
      </trkpt>
      <trkpt lat="45.93471" lon="4.72388">
        <ele>173</ele>
        <time>2016-10-02T08:54:53Z</time>
      </trkpt>
      <trkpt lat="45.93474" lon="4.72381">
        <ele>173</ele>
        <time>2016-10-02T08:54:54Z</time>
      </trkpt>
      <trkpt lat="45.93479" lon="4.72374">
        <ele>173</ele>
        <time>2016-10-02T08:54:55Z</time>
      </trkpt>
      <trkpt lat="45.93483" lon="4.72367">
        <ele>173</ele>
        <time>2016-10-02T08:54:56Z</time>
      </trkpt>
      <trkpt lat="45.93489" lon="4.72362">
        <ele>173</ele>
        <time>2016-10-02T08:54:57Z</time>
      </trkpt>
      <trkpt lat="45.93493" lon="4.72356">
        <ele>173</ele>
        <time>2016-10-02T08:54:58Z</time>
      </trkpt>
      <trkpt lat="45.93498" lon="4.72349">
        <ele>173</ele>
        <time>2016-10-02T08:54:59Z</time>
      </trkpt>
      <trkpt lat="45.93502" lon="4.72342">
        <ele>173</ele>
        <time>2016-10-02T08:55:00Z</time>
      </trkpt>
      <trkpt lat="45.93507" lon="4.72335">
        <ele>173</ele>
        <time>2016-10-02T08:55:01Z</time>
      </trkpt>
      <trkpt lat="45.9351" lon="4.72329">
        <ele>173</ele>
        <time>2016-10-02T08:55:02Z</time>
      </trkpt>
      <trkpt lat="45.93513" lon="4.72321">
        <ele>173</ele>
        <time>2016-10-02T08:55:03Z</time>
      </trkpt>
      <trkpt lat="45.93517" lon="4.72314">
        <ele>173</ele>
        <time>2016-10-02T08:55:04Z</time>
      </trkpt>
      <trkpt lat="45.9352" lon="4.72307">
        <ele>173</ele>
        <time>2016-10-02T08:55:05Z</time>
      </trkpt>
      <trkpt lat="45.93524" lon="4.723">
        <ele>172</ele>
        <time>2016-10-02T08:55:06Z</time>
      </trkpt>
      <trkpt lat="45.93526" lon="4.72293">
        <ele>172</ele>
        <time>2016-10-02T08:55:07Z</time>
      </trkpt>
      <trkpt lat="45.93529" lon="4.72286">
        <ele>172</ele>
        <time>2016-10-02T08:55:08Z</time>
      </trkpt>
      <trkpt lat="45.9353" lon="4.72281">
        <ele>172</ele>
        <time>2016-10-02T08:55:09Z</time>
      </trkpt>
      <trkpt lat="45.93533" lon="4.72275">
        <ele>172</ele>
        <time>2016-10-02T08:55:10Z</time>
      </trkpt>
      <trkpt lat="45.93535" lon="4.72269">
        <ele>172</ele>
        <time>2016-10-02T08:55:11Z</time>
      </trkpt>
      <trkpt lat="45.93538" lon="4.72261">
        <ele>172</ele>
        <time>2016-10-02T08:55:12Z</time>
      </trkpt>
      <trkpt lat="45.9354" lon="4.72255">
        <ele>172</ele>
        <time>2016-10-02T08:55:13Z</time>
      </trkpt>
      <trkpt lat="45.93543" lon="4.72247">
        <ele>172</ele>
        <time>2016-10-02T08:55:14Z</time>
      </trkpt>
      <trkpt lat="45.93545" lon="4.7224">
        <ele>172</ele>
        <time>2016-10-02T08:55:15Z</time>
      </trkpt>
      <trkpt lat="45.93549" lon="4.72234">
        <ele>172</ele>
        <time>2016-10-02T08:55:16Z</time>
      </trkpt>
      <trkpt lat="45.93553" lon="4.72229">
        <ele>173</ele>
        <time>2016-10-02T08:55:17Z</time>
      </trkpt>
      <trkpt lat="45.93558" lon="4.72227">
        <ele>173</ele>
        <time>2016-10-02T08:55:18Z</time>
      </trkpt>
      <trkpt lat="45.93563" lon="4.7223">
        <ele>173</ele>
        <time>2016-10-02T08:55:19Z</time>
      </trkpt>
      <trkpt lat="45.9357" lon="4.72234">
        <ele>173</ele>
        <time>2016-10-02T08:55:21Z</time>
      </trkpt>
      <trkpt lat="45.93571" lon="4.72237">
        <ele>173</ele>
        <time>2016-10-02T08:55:22Z</time>
      </trkpt>
      <trkpt lat="45.93571" lon="4.72248">
        <ele>173</ele>
        <time>2016-10-02T08:55:24Z</time>
      </trkpt>
      <trkpt lat="45.93576" lon="4.72264">
        <ele>173</ele>
        <time>2016-10-02T08:55:25Z</time>
      </trkpt>
      <trkpt lat="45.93579" lon="4.72274">
        <ele>173</ele>
        <time>2016-10-02T08:55:26Z</time>
      </trkpt>
      <trkpt lat="45.93584" lon="4.72281">
        <ele>173</ele>
        <time>2016-10-02T08:55:27Z</time>
      </trkpt>
      <trkpt lat="45.93591" lon="4.72284">
        <ele>173</ele>
        <time>2016-10-02T08:55:28Z</time>
      </trkpt>
      <trkpt lat="45.93595" lon="4.72288">
        <ele>172</ele>
        <time>2016-10-02T08:55:29Z</time>
      </trkpt>
      <trkpt lat="45.93599" lon="4.72292">
        <ele>172</ele>
        <time>2016-10-02T08:55:30Z</time>
      </trkpt>
      <trkpt lat="45.93605" lon="4.72295">
        <ele>172</ele>
        <time>2016-10-02T08:55:31Z</time>
      </trkpt>
      <trkpt lat="45.93609" lon="4.72297">
        <ele>172</ele>
        <time>2016-10-02T08:55:32Z</time>
      </trkpt>
      <trkpt lat="45.93616" lon="4.72295">
        <ele>172</ele>
        <time>2016-10-02T08:55:33Z</time>
      </trkpt>
      <trkpt lat="45.93619" lon="4.723">
        <ele>172</ele>
        <time>2016-10-02T08:55:34Z</time>
      </trkpt>
      <trkpt lat="45.93625" lon="4.72302">
        <ele>172</ele>
        <time>2016-10-02T08:55:35Z</time>
      </trkpt>
      <trkpt lat="45.9363" lon="4.72304">
        <ele>172</ele>
        <time>2016-10-02T08:55:36Z</time>
      </trkpt>
      <trkpt lat="45.93634" lon="4.72305">
        <ele>172</ele>
        <time>2016-10-02T08:55:37Z</time>
      </trkpt>
      <trkpt lat="45.93642" lon="4.72311">
        <ele>172</ele>
        <time>2016-10-02T08:55:39Z</time>
      </trkpt>
      <trkpt lat="45.93646" lon="4.72315">
        <ele>172</ele>
        <time>2016-10-02T08:55:40Z</time>
      </trkpt>
      <trkpt lat="45.9365" lon="4.72319">
        <ele>172</ele>
        <time>2016-10-02T08:55:41Z</time>
      </trkpt>
      <trkpt lat="45.93654" lon="4.72322">
        <ele>172</ele>
        <time>2016-10-02T08:55:42Z</time>
      </trkpt>
      <trkpt lat="45.93658" lon="4.72325">
        <ele>172</ele>
        <time>2016-10-02T08:55:43Z</time>
      </trkpt>
      <trkpt lat="45.93661" lon="4.72329">
        <ele>171</ele>
        <time>2016-10-02T08:55:44Z</time>
      </trkpt>
      <trkpt lat="45.93665" lon="4.72333">
        <ele>171</ele>
        <time>2016-10-02T08:55:45Z</time>
      </trkpt>
      <trkpt lat="45.9367" lon="4.72338">
        <ele>171</ele>
        <time>2016-10-02T08:55:46Z</time>
      </trkpt>
      <trkpt lat="45.93675" lon="4.72341">
        <ele>171</ele>
        <time>2016-10-02T08:55:47Z</time>
      </trkpt>
      <trkpt lat="45.93678" lon="4.72345">
        <ele>171</ele>
        <time>2016-10-02T08:55:48Z</time>
      </trkpt>
      <trkpt lat="45.93682" lon="4.7235">
        <ele>171</ele>
        <time>2016-10-02T08:55:49Z</time>
      </trkpt>
      <trkpt lat="45.93686" lon="4.72354">
        <ele>171</ele>
        <time>2016-10-02T08:55:50Z</time>
      </trkpt>
      <trkpt lat="45.9369" lon="4.72357">
        <ele>171</ele>
        <time>2016-10-02T08:55:51Z</time>
      </trkpt>
      <trkpt lat="45.93695" lon="4.7236">
        <ele>171</ele>
        <time>2016-10-02T08:55:52Z</time>
      </trkpt>
      <trkpt lat="45.937" lon="4.72363">
        <ele>171</ele>
        <time>2016-10-02T08:55:53Z</time>
      </trkpt>
      <trkpt lat="45.93704" lon="4.72366">
        <ele>171</ele>
        <time>2016-10-02T08:55:54Z</time>
      </trkpt>
      <trkpt lat="45.93712" lon="4.72371">
        <ele>172</ele>
        <time>2016-10-02T08:55:56Z</time>
      </trkpt>
      <trkpt lat="45.93717" lon="4.72369">
        <ele>172</ele>
        <time>2016-10-02T08:55:57Z</time>
      </trkpt>
      <trkpt lat="45.9372" lon="4.72365">
        <ele>172</ele>
        <time>2016-10-02T08:55:58Z</time>
      </trkpt>
      <trkpt lat="45.93724" lon="4.72359">
        <ele>172</ele>
        <time>2016-10-02T08:55:59Z</time>
      </trkpt>
      <trkpt lat="45.93727" lon="4.72352">
        <ele>172</ele>
        <time>2016-10-02T08:56:00Z</time>
      </trkpt>
      <trkpt lat="45.93731" lon="4.72345">
        <ele>172</ele>
        <time>2016-10-02T08:56:01Z</time>
      </trkpt>
      <trkpt lat="45.93734" lon="4.72339">
        <ele>172</ele>
        <time>2016-10-02T08:56:02Z</time>
      </trkpt>
      <trkpt lat="45.93738" lon="4.72332">
        <ele>172</ele>
        <time>2016-10-02T08:56:03Z</time>
      </trkpt>
      <trkpt lat="45.93742" lon="4.72324">
        <ele>172</ele>
        <time>2016-10-02T08:56:04Z</time>
      </trkpt>
      <trkpt lat="45.93746" lon="4.72316">
        <ele>172</ele>
        <time>2016-10-02T08:56:05Z</time>
      </trkpt>
      <trkpt lat="45.9375" lon="4.72309">
        <ele>172</ele>
        <time>2016-10-02T08:56:06Z</time>
      </trkpt>
      <trkpt lat="45.93754" lon="4.72304">
        <ele>172</ele>
        <time>2016-10-02T08:56:07Z</time>
      </trkpt>
      <trkpt lat="45.93759" lon="4.72299">
        <ele>172</ele>
        <time>2016-10-02T08:56:08Z</time>
      </trkpt>
      <trkpt lat="45.93762" lon="4.72293">
        <ele>172</ele>
        <time>2016-10-02T08:56:09Z</time>
      </trkpt>
      <trkpt lat="45.93765" lon="4.72286">
        <ele>172</ele>
        <time>2016-10-02T08:56:10Z</time>
      </trkpt>
      <trkpt lat="45.93768" lon="4.7228">
        <ele>172</ele>
        <time>2016-10-02T08:56:11Z</time>
      </trkpt>
      <trkpt lat="45.93772" lon="4.72275">
        <ele>172</ele>
        <time>2016-10-02T08:56:12Z</time>
      </trkpt>
      <trkpt lat="45.93775" lon="4.7227">
        <ele>172</ele>
        <time>2016-10-02T08:56:13Z</time>
      </trkpt>
      <trkpt lat="45.93778" lon="4.72264">
        <ele>172</ele>
        <time>2016-10-02T08:56:14Z</time>
      </trkpt>
      <trkpt lat="45.93782" lon="4.72259">
        <ele>172</ele>
        <time>2016-10-02T08:56:15Z</time>
      </trkpt>
      <trkpt lat="45.93785" lon="4.72253">
        <ele>172</ele>
        <time>2016-10-02T08:56:16Z</time>
      </trkpt>
      <trkpt lat="45.93788" lon="4.72247">
        <ele>172</ele>
        <time>2016-10-02T08:56:17Z</time>
      </trkpt>
      <trkpt lat="45.93791" lon="4.72241">
        <ele>172</ele>
        <time>2016-10-02T08:56:18Z</time>
      </trkpt>
      <trkpt lat="45.93794" lon="4.72234">
        <ele>172</ele>
        <time>2016-10-02T08:56:19Z</time>
      </trkpt>
      <trkpt lat="45.93797" lon="4.72227">
        <ele>172</ele>
        <time>2016-10-02T08:56:20Z</time>
      </trkpt>
      <trkpt lat="45.93801" lon="4.7222">
        <ele>172</ele>
        <time>2016-10-02T08:56:21Z</time>
      </trkpt>
      <trkpt lat="45.93806" lon="4.72214">
        <ele>172</ele>
        <time>2016-10-02T08:56:22Z</time>
      </trkpt>
      <trkpt lat="45.9381" lon="4.72208">
        <ele>172</ele>
        <time>2016-10-02T08:56:23Z</time>
      </trkpt>
      <trkpt lat="45.93813" lon="4.72202">
        <ele>172</ele>
        <time>2016-10-02T08:56:24Z</time>
      </trkpt>
      <trkpt lat="45.93816" lon="4.72194">
        <ele>172</ele>
        <time>2016-10-02T08:56:25Z</time>
      </trkpt>
      <trkpt lat="45.93818" lon="4.72187">
        <ele>172</ele>
        <time>2016-10-02T08:56:26Z</time>
      </trkpt>
      <trkpt lat="45.9382" lon="4.72181">
        <ele>172</ele>
        <time>2016-10-02T08:56:27Z</time>
      </trkpt>
      <trkpt lat="45.93826" lon="4.72176">
        <ele>171</ele>
        <time>2016-10-02T08:56:29Z</time>
      </trkpt>
      <trkpt lat="45.93829" lon="4.72174">
        <ele>171</ele>
        <time>2016-10-02T08:56:30Z</time>
      </trkpt>
      <trkpt lat="45.93834" lon="4.72167">
        <ele>171</ele>
        <time>2016-10-02T08:56:33Z</time>
      </trkpt>
      <trkpt lat="45.93835" lon="4.72164">
        <ele>171</ele>
        <time>2016-10-02T08:56:34Z</time>
      </trkpt>
      <trkpt lat="45.93843" lon="4.72157">
        <ele>171</ele>
        <time>2016-10-02T08:56:39Z</time>
      </trkpt>
      <trkpt lat="45.93844" lon="4.72154">
        <ele>171</ele>
        <time>2016-10-02T08:56:40Z</time>
      </trkpt>
      <trkpt lat="45.93849" lon="4.72147">
        <ele>172</ele>
        <time>2016-10-02T08:56:42Z</time>
      </trkpt>
      <trkpt lat="45.93853" lon="4.72143">
        <ele>172</ele>
        <time>2016-10-02T08:56:43Z</time>
      </trkpt>
      <trkpt lat="45.93856" lon="4.72139">
        <ele>172</ele>
        <time>2016-10-02T08:56:44Z</time>
      </trkpt>
      <trkpt lat="45.93859" lon="4.72132">
        <ele>172</ele>
        <time>2016-10-02T08:56:45Z</time>
      </trkpt>
      <trkpt lat="45.93862" lon="4.72126">
        <ele>172</ele>
        <time>2016-10-02T08:56:46Z</time>
      </trkpt>
      <trkpt lat="45.93866" lon="4.72121">
        <ele>172</ele>
        <time>2016-10-02T08:56:47Z</time>
      </trkpt>
      <trkpt lat="45.93869" lon="4.72115">
        <ele>172</ele>
        <time>2016-10-02T08:56:48Z</time>
      </trkpt>
      <trkpt lat="45.93873" lon="4.72109">
        <ele>172</ele>
        <time>2016-10-02T08:56:49Z</time>
      </trkpt>
      <trkpt lat="45.93877" lon="4.72103">
        <ele>172</ele>
        <time>2016-10-02T08:56:50Z</time>
      </trkpt>
      <trkpt lat="45.93881" lon="4.72097">
        <ele>172</ele>
        <time>2016-10-02T08:56:51Z</time>
      </trkpt>
      <trkpt lat="45.93884" lon="4.72091">
        <ele>172</ele>
        <time>2016-10-02T08:56:52Z</time>
      </trkpt>
      <trkpt lat="45.93888" lon="4.72086">
        <ele>172</ele>
        <time>2016-10-02T08:56:53Z</time>
      </trkpt>
      <trkpt lat="45.93892" lon="4.72081">
        <ele>172</ele>
        <time>2016-10-02T08:56:54Z</time>
      </trkpt>
      <trkpt lat="45.93896" lon="4.72075">
        <ele>172</ele>
        <time>2016-10-02T08:56:55Z</time>
      </trkpt>
      <trkpt lat="45.939" lon="4.7207">
        <ele>172</ele>
        <time>2016-10-02T08:56:56Z</time>
      </trkpt>
      <trkpt lat="45.93904" lon="4.72066">
        <ele>172</ele>
        <time>2016-10-02T08:56:57Z</time>
      </trkpt>
      <trkpt lat="45.93908" lon="4.72062">
        <ele>172</ele>
        <time>2016-10-02T08:56:58Z</time>
      </trkpt>
      <trkpt lat="45.93912" lon="4.72058">
        <ele>172</ele>
        <time>2016-10-02T08:56:59Z</time>
      </trkpt>
      <trkpt lat="45.93916" lon="4.72054">
        <ele>172</ele>
        <time>2016-10-02T08:57:00Z</time>
      </trkpt>
      <trkpt lat="45.93921" lon="4.72049">
        <ele>172</ele>
        <time>2016-10-02T08:57:01Z</time>
      </trkpt>
      <trkpt lat="45.93925" lon="4.72044">
        <ele>172</ele>
        <time>2016-10-02T08:57:02Z</time>
      </trkpt>
      <trkpt lat="45.93929" lon="4.7204">
        <ele>172</ele>
        <time>2016-10-02T08:57:03Z</time>
      </trkpt>
      <trkpt lat="45.93933" lon="4.72035">
        <ele>172</ele>
        <time>2016-10-02T08:57:04Z</time>
      </trkpt>
      <trkpt lat="45.93938" lon="4.72029">
        <ele>172</ele>
        <time>2016-10-02T08:57:05Z</time>
      </trkpt>
      <trkpt lat="45.93942" lon="4.72023">
        <ele>172</ele>
        <time>2016-10-02T08:57:06Z</time>
      </trkpt>
      <trkpt lat="45.93947" lon="4.72017">
        <ele>172</ele>
        <time>2016-10-02T08:57:07Z</time>
      </trkpt>
      <trkpt lat="45.93952" lon="4.72012">
        <ele>172</ele>
        <time>2016-10-02T08:57:08Z</time>
      </trkpt>
      <trkpt lat="45.93957" lon="4.72007">
        <ele>172</ele>
        <time>2016-10-02T08:57:09Z</time>
      </trkpt>
      <trkpt lat="45.93962" lon="4.72001">
        <ele>172</ele>
        <time>2016-10-02T08:57:10Z</time>
      </trkpt>
      <trkpt lat="45.93966" lon="4.71995">
        <ele>173</ele>
        <time>2016-10-02T08:57:11Z</time>
      </trkpt>
      <trkpt lat="45.9397" lon="4.71989">
        <ele>173</ele>
        <time>2016-10-02T08:57:12Z</time>
      </trkpt>
      <trkpt lat="45.93974" lon="4.71983">
        <ele>173</ele>
        <time>2016-10-02T08:57:13Z</time>
      </trkpt>
      <trkpt lat="45.93978" lon="4.71978">
        <ele>173</ele>
        <time>2016-10-02T08:57:14Z</time>
      </trkpt>
      <trkpt lat="45.93982" lon="4.71972">
        <ele>173</ele>
        <time>2016-10-02T08:57:15Z</time>
      </trkpt>
      <trkpt lat="45.93986" lon="4.71967">
        <ele>173</ele>
        <time>2016-10-02T08:57:16Z</time>
      </trkpt>
      <trkpt lat="45.93991" lon="4.71965">
        <ele>173</ele>
        <time>2016-10-02T08:57:17Z</time>
      </trkpt>
      <trkpt lat="45.93996" lon="4.71966">
        <ele>173</ele>
        <time>2016-10-02T08:57:18Z</time>
      </trkpt>
      <trkpt lat="45.94001" lon="4.71969">
        <ele>174</ele>
        <time>2016-10-02T08:57:19Z</time>
      </trkpt>
      <trkpt lat="45.94006" lon="4.71973">
        <ele>174</ele>
        <time>2016-10-02T08:57:20Z</time>
      </trkpt>
      <trkpt lat="45.94009" lon="4.71978">
        <ele>174</ele>
        <time>2016-10-02T08:57:21Z</time>
      </trkpt>
      <trkpt lat="45.94013" lon="4.71983">
        <ele>174</ele>
        <time>2016-10-02T08:57:22Z</time>
      </trkpt>
      <trkpt lat="45.94017" lon="4.71988">
        <ele>174</ele>
        <time>2016-10-02T08:57:23Z</time>
      </trkpt>
      <trkpt lat="45.9402" lon="4.71996">
        <ele>174</ele>
        <time>2016-10-02T08:57:24Z</time>
      </trkpt>
      <trkpt lat="45.94023" lon="4.72003">
        <ele>173</ele>
        <time>2016-10-02T08:57:25Z</time>
      </trkpt>
      <trkpt lat="45.94027" lon="4.72008">
        <ele>173</ele>
        <time>2016-10-02T08:57:26Z</time>
      </trkpt>
      <trkpt lat="45.94031" lon="4.72014">
        <ele>173</ele>
        <time>2016-10-02T08:57:27Z</time>
      </trkpt>
      <trkpt lat="45.94034" lon="4.72021">
        <ele>173</ele>
        <time>2016-10-02T08:57:28Z</time>
      </trkpt>
      <trkpt lat="45.94037" lon="4.72027">
        <ele>173</ele>
        <time>2016-10-02T08:57:29Z</time>
      </trkpt>
      <trkpt lat="45.9404" lon="4.72033">
        <ele>173</ele>
        <time>2016-10-02T08:57:30Z</time>
      </trkpt>
      <trkpt lat="45.94043" lon="4.72038">
        <ele>173</ele>
        <time>2016-10-02T08:57:31Z</time>
      </trkpt>
      <trkpt lat="45.94048" lon="4.72041">
        <ele>173</ele>
        <time>2016-10-02T08:57:32Z</time>
      </trkpt>
      <trkpt lat="45.94052" lon="4.72043">
        <ele>173</ele>
        <time>2016-10-02T08:57:33Z</time>
      </trkpt>
      <trkpt lat="45.94057" lon="4.72042">
        <ele>173</ele>
        <time>2016-10-02T08:57:34Z</time>
      </trkpt>
      <trkpt lat="45.94061" lon="4.72039">
        <ele>173</ele>
        <time>2016-10-02T08:57:35Z</time>
      </trkpt>
      <trkpt lat="45.94065" lon="4.72035">
        <ele>174</ele>
        <time>2016-10-02T08:57:36Z</time>
      </trkpt>
      <trkpt lat="45.94068" lon="4.72031">
        <ele>174</ele>
        <time>2016-10-02T08:57:37Z</time>
      </trkpt>
      <trkpt lat="45.94076" lon="4.72024">
        <ele>174</ele>
        <time>2016-10-02T08:57:39Z</time>
      </trkpt>
      <trkpt lat="45.9408" lon="4.72019">
        <ele>174</ele>
        <time>2016-10-02T08:57:40Z</time>
      </trkpt>
      <trkpt lat="45.94084" lon="4.72013">
        <ele>174</ele>
        <time>2016-10-02T08:57:41Z</time>
      </trkpt>
      <trkpt lat="45.94089" lon="4.72007">
        <ele>174</ele>
        <time>2016-10-02T08:57:42Z</time>
      </trkpt>
      <trkpt lat="45.94093" lon="4.72001">
        <ele>174</ele>
        <time>2016-10-02T08:57:43Z</time>
      </trkpt>
      <trkpt lat="45.94098" lon="4.71995">
        <ele>174</ele>
        <time>2016-10-02T08:57:44Z</time>
      </trkpt>
      <trkpt lat="45.94103" lon="4.71989">
        <ele>174</ele>
        <time>2016-10-02T08:57:45Z</time>
      </trkpt>
      <trkpt lat="45.94108" lon="4.71984">
        <ele>174</ele>
        <time>2016-10-02T08:57:46Z</time>
      </trkpt>
      <trkpt lat="45.94112" lon="4.71979">
        <ele>174</ele>
        <time>2016-10-02T08:57:47Z</time>
      </trkpt>
      <trkpt lat="45.94116" lon="4.71977">
        <ele>174</ele>
        <time>2016-10-02T08:57:48Z</time>
      </trkpt>
      <trkpt lat="45.94124" lon="4.71972">
        <ele>174</ele>
        <time>2016-10-02T08:57:50Z</time>
      </trkpt>
      <trkpt lat="45.94128" lon="4.71971">
        <ele>174</ele>
        <time>2016-10-02T08:57:51Z</time>
      </trkpt>
      <trkpt lat="45.94136" lon="4.71972">
        <ele>174</ele>
        <time>2016-10-02T08:57:53Z</time>
      </trkpt>
      <trkpt lat="45.9414" lon="4.71975">
        <ele>174</ele>
        <time>2016-10-02T08:57:54Z</time>
      </trkpt>
      <trkpt lat="45.94143" lon="4.71981">
        <ele>174</ele>
        <time>2016-10-02T08:57:55Z</time>
      </trkpt>
      <trkpt lat="45.94145" lon="4.71987">
        <ele>173</ele>
        <time>2016-10-02T08:57:56Z</time>
      </trkpt>
      <trkpt lat="45.94149" lon="4.71997">
        <ele>173</ele>
        <time>2016-10-02T08:57:58Z</time>
      </trkpt>
      <trkpt lat="45.94151" lon="4.72001">
        <ele>173</ele>
        <time>2016-10-02T08:57:59Z</time>
      </trkpt>
      <trkpt lat="45.94155" lon="4.7201">
        <ele>173</ele>
        <time>2016-10-02T08:58:01Z</time>
      </trkpt>
      <trkpt lat="45.94157" lon="4.72014">
        <ele>173</ele>
        <time>2016-10-02T08:58:02Z</time>
      </trkpt>
      <trkpt lat="45.94161" lon="4.72024">
        <ele>173</ele>
        <time>2016-10-02T08:58:04Z</time>
      </trkpt>
      <trkpt lat="45.94163" lon="4.72029">
        <ele>173</ele>
        <time>2016-10-02T08:58:05Z</time>
      </trkpt>
      <trkpt lat="45.94167" lon="4.72039">
        <ele>173</ele>
        <time>2016-10-02T08:58:07Z</time>
      </trkpt>
      <trkpt lat="45.94169" lon="4.72044">
        <ele>173</ele>
        <time>2016-10-02T08:58:08Z</time>
      </trkpt>
      <trkpt lat="45.94174" lon="4.72054">
        <ele>173</ele>
        <time>2016-10-02T08:58:10Z</time>
      </trkpt>
      <trkpt lat="45.94176" lon="4.7206">
        <ele>173</ele>
        <time>2016-10-02T08:58:11Z</time>
      </trkpt>
      <trkpt lat="45.94181" lon="4.72071">
        <ele>173</ele>
        <time>2016-10-02T08:58:13Z</time>
      </trkpt>
      <trkpt lat="45.94183" lon="4.72076">
        <ele>173</ele>
        <time>2016-10-02T08:58:14Z</time>
      </trkpt>
      <trkpt lat="45.94186" lon="4.72082">
        <ele>173</ele>
        <time>2016-10-02T08:58:15Z</time>
      </trkpt>
      <trkpt lat="45.94188" lon="4.72088">
        <ele>172</ele>
        <time>2016-10-02T08:58:16Z</time>
      </trkpt>
      <trkpt lat="45.94191" lon="4.72092">
        <ele>172</ele>
        <time>2016-10-02T08:58:17Z</time>
      </trkpt>
      <trkpt lat="45.94194" lon="4.72098">
        <ele>172</ele>
        <time>2016-10-02T08:58:18Z</time>
      </trkpt>
      <trkpt lat="45.94197" lon="4.72105">
        <ele>172</ele>
        <time>2016-10-02T08:58:19Z</time>
      </trkpt>
      <trkpt lat="45.942" lon="4.72112">
        <ele>172</ele>
        <time>2016-10-02T08:58:20Z</time>
      </trkpt>
      <trkpt lat="45.94204" lon="4.72119">
        <ele>172</ele>
        <time>2016-10-02T08:58:21Z</time>
      </trkpt>
      <trkpt lat="45.94207" lon="4.72128">
        <ele>172</ele>
        <time>2016-10-02T08:58:22Z</time>
      </trkpt>
      <trkpt lat="45.94211" lon="4.72136">
        <ele>172</ele>
        <time>2016-10-02T08:58:23Z</time>
      </trkpt>
      <trkpt lat="45.94215" lon="4.72145">
        <ele>172</ele>
        <time>2016-10-02T08:58:24Z</time>
      </trkpt>
      <trkpt lat="45.94218" lon="4.72156">
        <ele>172</ele>
        <time>2016-10-02T08:58:25Z</time>
      </trkpt>
      <trkpt lat="45.94222" lon="4.72166">
        <ele>173</ele>
        <time>2016-10-02T08:58:26Z</time>
      </trkpt>
      <trkpt lat="45.94227" lon="4.72176">
        <ele>172</ele>
        <time>2016-10-02T08:58:27Z</time>
      </trkpt>
      <trkpt lat="45.94231" lon="4.72186">
        <ele>172</ele>
        <time>2016-10-02T08:58:28Z</time>
      </trkpt>
      <trkpt lat="45.94236" lon="4.72196">
        <ele>172</ele>
        <time>2016-10-02T08:58:29Z</time>
      </trkpt>
      <trkpt lat="45.94241" lon="4.72206">
        <ele>172</ele>
        <time>2016-10-02T08:58:30Z</time>
      </trkpt>
      <trkpt lat="45.94245" lon="4.72216">
        <ele>171</ele>
        <time>2016-10-02T08:58:31Z</time>
      </trkpt>
      <trkpt lat="45.9425" lon="4.72226">
        <ele>171</ele>
        <time>2016-10-02T08:58:32Z</time>
      </trkpt>
      <trkpt lat="45.94254" lon="4.72236">
        <ele>171</ele>
        <time>2016-10-02T08:58:33Z</time>
      </trkpt>
      <trkpt lat="45.94259" lon="4.72246">
        <ele>171</ele>
        <time>2016-10-02T08:58:34Z</time>
      </trkpt>
      <trkpt lat="45.94263" lon="4.72255">
        <ele>171</ele>
        <time>2016-10-02T08:58:35Z</time>
      </trkpt>
      <trkpt lat="45.94267" lon="4.72264">
        <ele>171</ele>
        <time>2016-10-02T08:58:36Z</time>
      </trkpt>
      <trkpt lat="45.94271" lon="4.72273">
        <ele>171</ele>
        <time>2016-10-02T08:58:37Z</time>
      </trkpt>
      <trkpt lat="45.94275" lon="4.72281">
        <ele>171</ele>
        <time>2016-10-02T08:58:38Z</time>
      </trkpt>
      <trkpt lat="45.94279" lon="4.72288">
        <ele>171</ele>
        <time>2016-10-02T08:58:39Z</time>
      </trkpt>
      <trkpt lat="45.94282" lon="4.72296">
        <ele>171</ele>
        <time>2016-10-02T08:58:40Z</time>
      </trkpt>
      <trkpt lat="45.94286" lon="4.72303">
        <ele>171</ele>
        <time>2016-10-02T08:58:41Z</time>
      </trkpt>
      <trkpt lat="45.9429" lon="4.7231">
        <ele>171</ele>
        <time>2016-10-02T08:58:42Z</time>
      </trkpt>
      <trkpt lat="45.94294" lon="4.72317">
        <ele>171</ele>
        <time>2016-10-02T08:58:43Z</time>
      </trkpt>
      <trkpt lat="45.94297" lon="4.72324">
        <ele>171</ele>
        <time>2016-10-02T08:58:44Z</time>
      </trkpt>
      <trkpt lat="45.943" lon="4.72332">
        <ele>171</ele>
        <time>2016-10-02T08:58:45Z</time>
      </trkpt>
      <trkpt lat="45.94303" lon="4.72339">
        <ele>172</ele>
        <time>2016-10-02T08:58:46Z</time>
      </trkpt>
      <trkpt lat="45.94307" lon="4.72345">
        <ele>172</ele>
        <time>2016-10-02T08:58:47Z</time>
      </trkpt>
      <trkpt lat="45.94311" lon="4.72352">
        <ele>172</ele>
        <time>2016-10-02T08:58:48Z</time>
      </trkpt>
      <trkpt lat="45.94313" lon="4.72359">
        <ele>172</ele>
        <time>2016-10-02T08:58:49Z</time>
      </trkpt>
      <trkpt lat="45.94316" lon="4.72367">
        <ele>172</ele>
        <time>2016-10-02T08:58:50Z</time>
      </trkpt>
      <trkpt lat="45.9432" lon="4.72374">
        <ele>172</ele>
        <time>2016-10-02T08:58:51Z</time>
      </trkpt>
      <trkpt lat="45.94323" lon="4.72381">
        <ele>172</ele>
        <time>2016-10-02T08:58:52Z</time>
      </trkpt>
      <trkpt lat="45.94327" lon="4.72388">
        <ele>172</ele>
        <time>2016-10-02T08:58:53Z</time>
      </trkpt>
      <trkpt lat="45.9433" lon="4.72396">
        <ele>172</ele>
        <time>2016-10-02T08:58:54Z</time>
      </trkpt>
      <trkpt lat="45.94333" lon="4.72404">
        <ele>173</ele>
        <time>2016-10-02T08:58:55Z</time>
      </trkpt>
      <trkpt lat="45.94336" lon="4.72412">
        <ele>173</ele>
        <time>2016-10-02T08:58:56Z</time>
      </trkpt>
      <trkpt lat="45.94339" lon="4.7242">
        <ele>173</ele>
        <time>2016-10-02T08:58:57Z</time>
      </trkpt>
      <trkpt lat="45.94343" lon="4.72426">
        <ele>173</ele>
        <time>2016-10-02T08:58:58Z</time>
      </trkpt>
      <trkpt lat="45.94346" lon="4.72435">
        <ele>173</ele>
        <time>2016-10-02T08:58:59Z</time>
      </trkpt>
      <trkpt lat="45.94349" lon="4.72443">
        <ele>173</ele>
        <time>2016-10-02T08:59:00Z</time>
      </trkpt>
      <trkpt lat="45.94352" lon="4.7245">
        <ele>173</ele>
        <time>2016-10-02T08:59:01Z</time>
      </trkpt>
      <trkpt lat="45.94355" lon="4.72458">
        <ele>173</ele>
        <time>2016-10-02T08:59:02Z</time>
      </trkpt>
      <trkpt lat="45.94358" lon="4.72465">
        <ele>173</ele>
        <time>2016-10-02T08:59:03Z</time>
      </trkpt>
      <trkpt lat="45.94362" lon="4.72472">
        <ele>173</ele>
        <time>2016-10-02T08:59:04Z</time>
      </trkpt>
      <trkpt lat="45.94365" lon="4.72479">
        <ele>173</ele>
        <time>2016-10-02T08:59:05Z</time>
      </trkpt>
      <trkpt lat="45.94368" lon="4.72486">
        <ele>173</ele>
        <time>2016-10-02T08:59:06Z</time>
      </trkpt>
      <trkpt lat="45.9437" lon="4.72494">
        <ele>173</ele>
        <time>2016-10-02T08:59:07Z</time>
      </trkpt>
      <trkpt lat="45.94373" lon="4.72501">
        <ele>173</ele>
        <time>2016-10-02T08:59:08Z</time>
      </trkpt>
      <trkpt lat="45.94375" lon="4.72509">
        <ele>173</ele>
        <time>2016-10-02T08:59:09Z</time>
      </trkpt>
      <trkpt lat="45.94376" lon="4.72516">
        <ele>174</ele>
        <time>2016-10-02T08:59:10Z</time>
      </trkpt>
      <trkpt lat="45.94378" lon="4.72524">
        <ele>174</ele>
        <time>2016-10-02T08:59:11Z</time>
      </trkpt>
      <trkpt lat="45.9438" lon="4.72533">
        <ele>174</ele>
        <time>2016-10-02T08:59:12Z</time>
      </trkpt>
      <trkpt lat="45.94382" lon="4.72542">
        <ele>173</ele>
        <time>2016-10-02T08:59:13Z</time>
      </trkpt>
      <trkpt lat="45.94384" lon="4.72549">
        <ele>173</ele>
        <time>2016-10-02T08:59:14Z</time>
      </trkpt>
      <trkpt lat="45.94387" lon="4.72558">
        <ele>173</ele>
        <time>2016-10-02T08:59:15Z</time>
      </trkpt>
      <trkpt lat="45.94389" lon="4.72567">
        <ele>173</ele>
        <time>2016-10-02T08:59:16Z</time>
      </trkpt>
      <trkpt lat="45.94391" lon="4.72575">
        <ele>173</ele>
        <time>2016-10-02T08:59:17Z</time>
      </trkpt>
      <trkpt lat="45.94392" lon="4.72582">
        <ele>173</ele>
        <time>2016-10-02T08:59:18Z</time>
      </trkpt>
      <trkpt lat="45.94393" lon="4.72589">
        <ele>173</ele>
        <time>2016-10-02T08:59:19Z</time>
      </trkpt>
      <trkpt lat="45.94394" lon="4.72597">
        <ele>173</ele>
        <time>2016-10-02T08:59:20Z</time>
      </trkpt>
      <trkpt lat="45.94395" lon="4.72606">
        <ele>173</ele>
        <time>2016-10-02T08:59:21Z</time>
      </trkpt>
      <trkpt lat="45.94396" lon="4.72614">
        <ele>173</ele>
        <time>2016-10-02T08:59:22Z</time>
      </trkpt>
      <trkpt lat="45.94397" lon="4.72623">
        <ele>173</ele>
        <time>2016-10-02T08:59:23Z</time>
      </trkpt>
      <trkpt lat="45.94398" lon="4.72631">
        <ele>174</ele>
        <time>2016-10-02T08:59:24Z</time>
      </trkpt>
      <trkpt lat="45.944" lon="4.7264">
        <ele>174</ele>
        <time>2016-10-02T08:59:25Z</time>
      </trkpt>
      <trkpt lat="45.94401" lon="4.72651">
        <ele>174</ele>
        <time>2016-10-02T08:59:26Z</time>
      </trkpt>
      <trkpt lat="45.94402" lon="4.7266">
        <ele>174</ele>
        <time>2016-10-02T08:59:27Z</time>
      </trkpt>
      <trkpt lat="45.94403" lon="4.72667">
        <ele>173</ele>
        <time>2016-10-02T08:59:28Z</time>
      </trkpt>
      <trkpt lat="45.94405" lon="4.72675">
        <ele>173</ele>
        <time>2016-10-02T08:59:29Z</time>
      </trkpt>
      <trkpt lat="45.94406" lon="4.72682">
        <ele>173</ele>
        <time>2016-10-02T08:59:30Z</time>
      </trkpt>
      <trkpt lat="45.94407" lon="4.7269">
        <ele>173</ele>
        <time>2016-10-02T08:59:31Z</time>
      </trkpt>
      <trkpt lat="45.94408" lon="4.72698">
        <ele>172</ele>
        <time>2016-10-02T08:59:32Z</time>
      </trkpt>
      <trkpt lat="45.94409" lon="4.72707">
        <ele>172</ele>
        <time>2016-10-02T08:59:33Z</time>
      </trkpt>
      <trkpt lat="45.9441" lon="4.72715">
        <ele>172</ele>
        <time>2016-10-02T08:59:34Z</time>
      </trkpt>
      <trkpt lat="45.94411" lon="4.72724">
        <ele>172</ele>
        <time>2016-10-02T08:59:35Z</time>
      </trkpt>
      <trkpt lat="45.94412" lon="4.72732">
        <ele>172</ele>
        <time>2016-10-02T08:59:36Z</time>
      </trkpt>
      <trkpt lat="45.94414" lon="4.72741">
        <ele>171</ele>
        <time>2016-10-02T08:59:37Z</time>
      </trkpt>
      <trkpt lat="45.94415" lon="4.72749">
        <ele>171</ele>
        <time>2016-10-02T08:59:38Z</time>
      </trkpt>
      <trkpt lat="45.94416" lon="4.72758">
        <ele>170</ele>
        <time>2016-10-02T08:59:39Z</time>
      </trkpt>
      <trkpt lat="45.94418" lon="4.72766">
        <ele>169</ele>
        <time>2016-10-02T08:59:40Z</time>
      </trkpt>
      <trkpt lat="45.94418" lon="4.72773">
        <ele>169</ele>
        <time>2016-10-02T08:59:41Z</time>
      </trkpt>
      <trkpt lat="45.94419" lon="4.72781">
        <ele>168</ele>
        <time>2016-10-02T08:59:42Z</time>
      </trkpt>
      <trkpt lat="45.9442" lon="4.72793">
        <ele>168</ele>
        <time>2016-10-02T08:59:44Z</time>
      </trkpt>
      <trkpt lat="45.94421" lon="4.728">
        <ele>167</ele>
        <time>2016-10-02T08:59:45Z</time>
      </trkpt>
      <trkpt lat="45.94422" lon="4.72806">
        <ele>167</ele>
        <time>2016-10-02T08:59:46Z</time>
      </trkpt>
      <trkpt lat="45.94423" lon="4.72814">
        <ele>167</ele>
        <time>2016-10-02T08:59:47Z</time>
      </trkpt>
      <trkpt lat="45.94424" lon="4.72821">
        <ele>167</ele>
        <time>2016-10-02T08:59:48Z</time>
      </trkpt>
      <trkpt lat="45.94425" lon="4.72829">
        <ele>166</ele>
        <time>2016-10-02T08:59:49Z</time>
      </trkpt>
      <trkpt lat="45.94426" lon="4.72836">
        <ele>166</ele>
        <time>2016-10-02T08:59:50Z</time>
      </trkpt>
      <trkpt lat="45.94427" lon="4.72842">
        <ele>166</ele>
        <time>2016-10-02T08:59:51Z</time>
      </trkpt>
      <trkpt lat="45.94428" lon="4.72849">
        <ele>166</ele>
        <time>2016-10-02T08:59:52Z</time>
      </trkpt>
      <trkpt lat="45.94429" lon="4.72856">
        <ele>166</ele>
        <time>2016-10-02T08:59:53Z</time>
      </trkpt>
      <trkpt lat="45.9443" lon="4.72862">
        <ele>166</ele>
        <time>2016-10-02T08:59:54Z</time>
      </trkpt>
      <trkpt lat="45.94431" lon="4.72868">
        <ele>166</ele>
        <time>2016-10-02T08:59:55Z</time>
      </trkpt>
      <trkpt lat="45.94432" lon="4.72881">
        <ele>166</ele>
        <time>2016-10-02T08:59:57Z</time>
      </trkpt>
      <trkpt lat="45.94433" lon="4.72887">
        <ele>166</ele>
        <time>2016-10-02T08:59:58Z</time>
      </trkpt>
      <trkpt lat="45.94435" lon="4.72899">
        <ele>166</ele>
        <time>2016-10-02T09:00:00Z</time>
      </trkpt>
      <trkpt lat="45.94436" lon="4.72905">
        <ele>166</ele>
        <time>2016-10-02T09:00:01Z</time>
      </trkpt>
      <trkpt lat="45.94437" lon="4.72918">
        <ele>167</ele>
        <time>2016-10-02T09:00:03Z</time>
      </trkpt>
      <trkpt lat="45.94438" lon="4.72924">
        <ele>167</ele>
        <time>2016-10-02T09:00:04Z</time>
      </trkpt>
      <trkpt lat="45.94439" lon="4.72931">
        <ele>167</ele>
        <time>2016-10-02T09:00:05Z</time>
      </trkpt>
      <trkpt lat="45.9444" lon="4.72937">
        <ele>167</ele>
        <time>2016-10-02T09:00:06Z</time>
      </trkpt>
      <trkpt lat="45.94441" lon="4.72944">
        <ele>167</ele>
        <time>2016-10-02T09:00:07Z</time>
      </trkpt>
      <trkpt lat="45.94442" lon="4.72951">
        <ele>167</ele>
        <time>2016-10-02T09:00:08Z</time>
      </trkpt>
      <trkpt lat="45.94443" lon="4.72959">
        <ele>167</ele>
        <time>2016-10-02T09:00:09Z</time>
      </trkpt>
      <trkpt lat="45.94444" lon="4.72968">
        <ele>167</ele>
        <time>2016-10-02T09:00:10Z</time>
      </trkpt>
      <trkpt lat="45.94445" lon="4.72976">
        <ele>167</ele>
        <time>2016-10-02T09:00:11Z</time>
      </trkpt>
      <trkpt lat="45.94446" lon="4.72985">
        <ele>167</ele>
        <time>2016-10-02T09:00:12Z</time>
      </trkpt>
      <trkpt lat="45.94447" lon="4.72995">
        <ele>167</ele>
        <time>2016-10-02T09:00:13Z</time>
      </trkpt>
      <trkpt lat="45.94449" lon="4.73004">
        <ele>169</ele>
        <time>2016-10-02T09:00:14Z</time>
      </trkpt>
      <trkpt lat="45.9445" lon="4.73016">
        <ele>169</ele>
        <time>2016-10-02T09:00:15Z</time>
      </trkpt>
      <trkpt lat="45.94452" lon="4.73026">
        <ele>169</ele>
        <time>2016-10-02T09:00:16Z</time>
      </trkpt>
      <trkpt lat="45.94454" lon="4.73037">
        <ele>169</ele>
        <time>2016-10-02T09:00:17Z</time>
      </trkpt>
      <trkpt lat="45.94456" lon="4.73048">
        <ele>170</ele>
        <time>2016-10-02T09:00:18Z</time>
      </trkpt>
      <trkpt lat="45.94457" lon="4.73059">
        <ele>170</ele>
        <time>2016-10-02T09:00:19Z</time>
      </trkpt>
      <trkpt lat="45.94459" lon="4.7307">
        <ele>170</ele>
        <time>2016-10-02T09:00:20Z</time>
      </trkpt>
      <trkpt lat="45.9446" lon="4.73081">
        <ele>170</ele>
        <time>2016-10-02T09:00:21Z</time>
      </trkpt>
      <trkpt lat="45.94461" lon="4.73092">
        <ele>171</ele>
        <time>2016-10-02T09:00:22Z</time>
      </trkpt>
      <trkpt lat="45.94462" lon="4.73103">
        <ele>172</ele>
        <time>2016-10-02T09:00:23Z</time>
      </trkpt>
      <trkpt lat="45.94464" lon="4.73114">
        <ele>172</ele>
        <time>2016-10-02T09:00:24Z</time>
      </trkpt>
      <trkpt lat="45.94465" lon="4.73123">
        <ele>172</ele>
        <time>2016-10-02T09:00:25Z</time>
      </trkpt>
      <trkpt lat="45.94467" lon="4.73132">
        <ele>172</ele>
        <time>2016-10-02T09:00:26Z</time>
      </trkpt>
      <trkpt lat="45.94469" lon="4.73142">
        <ele>172</ele>
        <time>2016-10-02T09:00:27Z</time>
      </trkpt>
      <trkpt lat="45.9447" lon="4.73152">
        <ele>172</ele>
        <time>2016-10-02T09:00:28Z</time>
      </trkpt>
      <trkpt lat="45.94472" lon="4.7316">
        <ele>172</ele>
        <time>2016-10-02T09:00:29Z</time>
      </trkpt>
      <trkpt lat="45.94473" lon="4.73169">
        <ele>174</ele>
        <time>2016-10-02T09:00:30Z</time>
      </trkpt>
      <trkpt lat="45.94474" lon="4.73178">
        <ele>174</ele>
        <time>2016-10-02T09:00:31Z</time>
      </trkpt>
      <trkpt lat="45.94475" lon="4.73187">
        <ele>174</ele>
        <time>2016-10-02T09:00:32Z</time>
      </trkpt>
      <trkpt lat="45.94476" lon="4.73196">
        <ele>174</ele>
        <time>2016-10-02T09:00:33Z</time>
      </trkpt>
      <trkpt lat="45.94477" lon="4.73205">
        <ele>175</ele>
        <time>2016-10-02T09:00:34Z</time>
      </trkpt>
      <trkpt lat="45.94478" lon="4.73214">
        <ele>175</ele>
        <time>2016-10-02T09:00:35Z</time>
      </trkpt>
      <trkpt lat="45.94479" lon="4.73222">
        <ele>175</ele>
        <time>2016-10-02T09:00:36Z</time>
      </trkpt>
      <trkpt lat="45.9448" lon="4.7323">
        <ele>175</ele>
        <time>2016-10-02T09:00:37Z</time>
      </trkpt>
      <trkpt lat="45.94481" lon="4.73237">
        <ele>175</ele>
        <time>2016-10-02T09:00:38Z</time>
      </trkpt>
      <trkpt lat="45.94482" lon="4.73244">
        <ele>175</ele>
        <time>2016-10-02T09:00:39Z</time>
      </trkpt>
      <trkpt lat="45.94482" lon="4.73251">
        <ele>176</ele>
        <time>2016-10-02T09:00:40Z</time>
      </trkpt>
      <trkpt lat="45.94482" lon="4.73258">
        <ele>176</ele>
        <time>2016-10-02T09:00:41Z</time>
      </trkpt>
      <trkpt lat="45.94482" lon="4.73265">
        <ele>177</ele>
        <time>2016-10-02T09:00:42Z</time>
      </trkpt>
      <trkpt lat="45.94483" lon="4.73272">
        <ele>177</ele>
        <time>2016-10-02T09:00:43Z</time>
      </trkpt>
      <trkpt lat="45.94483" lon="4.73279">
        <ele>177</ele>
        <time>2016-10-02T09:00:44Z</time>
      </trkpt>
      <trkpt lat="45.94483" lon="4.73286">
        <ele>177</ele>
        <time>2016-10-02T09:00:45Z</time>
      </trkpt>
      <trkpt lat="45.94484" lon="4.73293">
        <ele>177</ele>
        <time>2016-10-02T09:00:46Z</time>
      </trkpt>
      <trkpt lat="45.94483" lon="4.73301">
        <ele>177</ele>
        <time>2016-10-02T09:00:47Z</time>
      </trkpt>
      <trkpt lat="45.94484" lon="4.73307">
        <ele>177</ele>
        <time>2016-10-02T09:00:48Z</time>
      </trkpt>
      <trkpt lat="45.94485" lon="4.73314">
        <ele>177</ele>
        <time>2016-10-02T09:00:49Z</time>
      </trkpt>
      <trkpt lat="45.94486" lon="4.73321">
        <ele>177</ele>
        <time>2016-10-02T09:00:50Z</time>
      </trkpt>
      <trkpt lat="45.94487" lon="4.73327">
        <ele>177</ele>
        <time>2016-10-02T09:00:51Z</time>
      </trkpt>
      <trkpt lat="45.94487" lon="4.73334">
        <ele>178</ele>
        <time>2016-10-02T09:00:52Z</time>
      </trkpt>
      <trkpt lat="45.94488" lon="4.73341">
        <ele>178</ele>
        <time>2016-10-02T09:00:53Z</time>
      </trkpt>
      <trkpt lat="45.94489" lon="4.73348">
        <ele>178</ele>
        <time>2016-10-02T09:00:54Z</time>
      </trkpt>
      <trkpt lat="45.9449" lon="4.73355">
        <ele>178</ele>
        <time>2016-10-02T09:00:55Z</time>
      </trkpt>
      <trkpt lat="45.94491" lon="4.73362">
        <ele>179</ele>
        <time>2016-10-02T09:00:56Z</time>
      </trkpt>
      <trkpt lat="45.94492" lon="4.73369">
        <ele>179</ele>
        <time>2016-10-02T09:00:57Z</time>
      </trkpt>
      <trkpt lat="45.94492" lon="4.73377">
        <ele>179</ele>
        <time>2016-10-02T09:00:58Z</time>
      </trkpt>
      <trkpt lat="45.94493" lon="4.73383">
        <ele>179</ele>
        <time>2016-10-02T09:00:59Z</time>
      </trkpt>
      <trkpt lat="45.94493" lon="4.73391">
        <ele>179</ele>
        <time>2016-10-02T09:01:00Z</time>
      </trkpt>
      <trkpt lat="45.94494" lon="4.73399">
        <ele>180</ele>
        <time>2016-10-02T09:01:01Z</time>
      </trkpt>
      <trkpt lat="45.94495" lon="4.73406">
        <ele>180</ele>
        <time>2016-10-02T09:01:02Z</time>
      </trkpt>
      <trkpt lat="45.94495" lon="4.73413">
        <ele>180</ele>
        <time>2016-10-02T09:01:03Z</time>
      </trkpt>
      <trkpt lat="45.94496" lon="4.73421">
        <ele>180</ele>
        <time>2016-10-02T09:01:04Z</time>
      </trkpt>
      <trkpt lat="45.94496" lon="4.73428">
        <ele>181</ele>
        <time>2016-10-02T09:01:05Z</time>
      </trkpt>
      <trkpt lat="45.94497" lon="4.73435">
        <ele>181</ele>
        <time>2016-10-02T09:01:06Z</time>
      </trkpt>
      <trkpt lat="45.94498" lon="4.73447">
        <ele>181</ele>
        <time>2016-10-02T09:01:08Z</time>
      </trkpt>
      <trkpt lat="45.94498" lon="4.73452">
        <ele>182</ele>
        <time>2016-10-02T09:01:09Z</time>
      </trkpt>
      <trkpt lat="45.94499" lon="4.73463">
        <ele>182</ele>
        <time>2016-10-02T09:01:11Z</time>
      </trkpt>
      <trkpt lat="45.94498" lon="4.73469">
        <ele>182</ele>
        <time>2016-10-02T09:01:12Z</time>
      </trkpt>
      <trkpt lat="45.94498" lon="4.7348">
        <ele>182</ele>
        <time>2016-10-02T09:01:14Z</time>
      </trkpt>
      <trkpt lat="45.94499" lon="4.73486">
        <ele>183</ele>
        <time>2016-10-02T09:01:15Z</time>
      </trkpt>
      <trkpt lat="45.945" lon="4.73492">
        <ele>183</ele>
        <time>2016-10-02T09:01:16Z</time>
      </trkpt>
      <trkpt lat="45.945" lon="4.735">
        <ele>183</ele>
        <time>2016-10-02T09:01:17Z</time>
      </trkpt>
      <trkpt lat="45.945" lon="4.73512">
        <ele>184</ele>
        <time>2016-10-02T09:01:19Z</time>
      </trkpt>
      <trkpt lat="45.94499" lon="4.73518">
        <ele>184</ele>
        <time>2016-10-02T09:01:20Z</time>
      </trkpt>
      <trkpt lat="45.945" lon="4.73531">
        <ele>184</ele>
        <time>2016-10-02T09:01:22Z</time>
      </trkpt>
      <trkpt lat="45.94499" lon="4.73536">
        <ele>184</ele>
        <time>2016-10-02T09:01:23Z</time>
      </trkpt>
      <trkpt lat="45.94499" lon="4.73543">
        <ele>184</ele>
        <time>2016-10-02T09:01:24Z</time>
      </trkpt>
      <trkpt lat="45.94499" lon="4.73549">
        <ele>185</ele>
        <time>2016-10-02T09:01:25Z</time>
      </trkpt>
      <trkpt lat="45.94498" lon="4.7356">
        <ele>185</ele>
        <time>2016-10-02T09:01:27Z</time>
      </trkpt>
      <trkpt lat="45.94498" lon="4.73566">
        <ele>185</ele>
        <time>2016-10-02T09:01:28Z</time>
      </trkpt>
      <trkpt lat="45.94498" lon="4.73579">
        <ele>185</ele>
        <time>2016-10-02T09:01:30Z</time>
      </trkpt>
      <trkpt lat="45.945" lon="4.73589">
        <ele>185</ele>
        <time>2016-10-02T09:01:31Z</time>
      </trkpt>
      <trkpt lat="45.945" lon="4.73596">
        <ele>184</ele>
        <time>2016-10-02T09:01:32Z</time>
      </trkpt>
      <trkpt lat="45.94501" lon="4.73603">
        <ele>184</ele>
        <time>2016-10-02T09:01:33Z</time>
      </trkpt>
      <trkpt lat="45.945" lon="4.73615">
        <ele>184</ele>
        <time>2016-10-02T09:01:35Z</time>
      </trkpt>
      <trkpt lat="45.945" lon="4.73621">
        <ele>186</ele>
        <time>2016-10-02T09:01:36Z</time>
      </trkpt>
      <trkpt lat="45.945" lon="4.73632">
        <ele>184</ele>
        <time>2016-10-02T09:01:38Z</time>
      </trkpt>
      <trkpt lat="45.945" lon="4.73646">
        <ele>184</ele>
        <time>2016-10-02T09:01:39Z</time>
      </trkpt>
      <trkpt lat="45.94501" lon="4.73656">
        <ele>185</ele>
        <time>2016-10-02T09:01:40Z</time>
      </trkpt>
      <trkpt lat="45.945" lon="4.73664">
        <ele>185</ele>
        <time>2016-10-02T09:01:41Z</time>
      </trkpt>
      <trkpt lat="45.94499" lon="4.73671">
        <ele>185</ele>
        <time>2016-10-02T09:01:42Z</time>
      </trkpt>
      <trkpt lat="45.94498" lon="4.73678">
        <ele>185</ele>
        <time>2016-10-02T09:01:43Z</time>
      </trkpt>
      <trkpt lat="45.94498" lon="4.73685">
        <ele>186</ele>
        <time>2016-10-02T09:01:44Z</time>
      </trkpt>
      <trkpt lat="45.94498" lon="4.73694">
        <ele>186</ele>
        <time>2016-10-02T09:01:45Z</time>
      </trkpt>
      <trkpt lat="45.94497" lon="4.73703">
        <ele>186</ele>
        <time>2016-10-02T09:01:46Z</time>
      </trkpt>
      <trkpt lat="45.94495" lon="4.7371">
        <ele>186</ele>
        <time>2016-10-02T09:01:47Z</time>
      </trkpt>
      <trkpt lat="45.94495" lon="4.73718">
        <ele>186</ele>
        <time>2016-10-02T09:01:48Z</time>
      </trkpt>
      <trkpt lat="45.94495" lon="4.73726">
        <ele>186</ele>
        <time>2016-10-02T09:01:49Z</time>
      </trkpt>
      <trkpt lat="45.94495" lon="4.73733">
        <ele>186</ele>
        <time>2016-10-02T09:01:50Z</time>
      </trkpt>
      <trkpt lat="45.94494" lon="4.73739">
        <ele>186</ele>
        <time>2016-10-02T09:01:51Z</time>
      </trkpt>
      <trkpt lat="45.94493" lon="4.73746">
        <ele>186</ele>
        <time>2016-10-02T09:01:52Z</time>
      </trkpt>
      <trkpt lat="45.94491" lon="4.73754">
        <ele>186</ele>
        <time>2016-10-02T09:01:53Z</time>
      </trkpt>
      <trkpt lat="45.94488" lon="4.73764">
        <ele>186</ele>
        <time>2016-10-02T09:01:55Z</time>
      </trkpt>
      <trkpt lat="45.94487" lon="4.73771">
        <ele>186</ele>
        <time>2016-10-02T09:01:56Z</time>
      </trkpt>
      <trkpt lat="45.94488" lon="4.73779">
        <ele>186</ele>
        <time>2016-10-02T09:01:57Z</time>
      </trkpt>
      <trkpt lat="45.94488" lon="4.73785">
        <ele>186</ele>
        <time>2016-10-02T09:01:58Z</time>
      </trkpt>
      <trkpt lat="45.94491" lon="4.73791">
        <ele>186</ele>
        <time>2016-10-02T09:01:59Z</time>
      </trkpt>
      <trkpt lat="45.94494" lon="4.73798">
        <ele>185</ele>
        <time>2016-10-02T09:02:00Z</time>
      </trkpt>
      <trkpt lat="45.94502" lon="4.738">
        <ele>186</ele>
        <time>2016-10-02T09:02:02Z</time>
      </trkpt>
      <trkpt lat="45.94507" lon="4.73802">
        <ele>186</ele>
        <time>2016-10-02T09:02:03Z</time>
      </trkpt>
      <trkpt lat="45.94511" lon="4.73806">
        <ele>186</ele>
        <time>2016-10-02T09:02:04Z</time>
      </trkpt>
      <trkpt lat="45.94515" lon="4.73811">
        <ele>186</ele>
        <time>2016-10-02T09:02:05Z</time>
      </trkpt>
      <trkpt lat="45.9452" lon="4.73814">
        <ele>186</ele>
        <time>2016-10-02T09:02:06Z</time>
      </trkpt>
      <trkpt lat="45.94523" lon="4.73818">
        <ele>186</ele>
        <time>2016-10-02T09:02:07Z</time>
      </trkpt>
      <trkpt lat="45.94527" lon="4.73822">
        <ele>186</ele>
        <time>2016-10-02T09:02:08Z</time>
      </trkpt>
      <trkpt lat="45.94531" lon="4.73827">
        <ele>186</ele>
        <time>2016-10-02T09:02:09Z</time>
      </trkpt>
      <trkpt lat="45.94535" lon="4.73832">
        <ele>186</ele>
        <time>2016-10-02T09:02:10Z</time>
      </trkpt>
      <trkpt lat="45.94539" lon="4.73835">
        <ele>186</ele>
        <time>2016-10-02T09:02:11Z</time>
      </trkpt>
      <trkpt lat="45.94543" lon="4.73839">
        <ele>186</ele>
        <time>2016-10-02T09:02:12Z</time>
      </trkpt>
      <trkpt lat="45.94548" lon="4.73842">
        <ele>186</ele>
        <time>2016-10-02T09:02:13Z</time>
      </trkpt>
      <trkpt lat="45.94552" lon="4.73847">
        <ele>186</ele>
        <time>2016-10-02T09:02:14Z</time>
      </trkpt>
      <trkpt lat="45.94557" lon="4.73851">
        <ele>186</ele>
        <time>2016-10-02T09:02:15Z</time>
      </trkpt>
      <trkpt lat="45.94562" lon="4.73856">
        <ele>186</ele>
        <time>2016-10-02T09:02:16Z</time>
      </trkpt>
      <trkpt lat="45.94566" lon="4.73859">
        <ele>186</ele>
        <time>2016-10-02T09:02:17Z</time>
      </trkpt>
      <trkpt lat="45.94571" lon="4.73862">
        <ele>186</ele>
        <time>2016-10-02T09:02:18Z</time>
      </trkpt>
      <trkpt lat="45.94574" lon="4.73866">
        <ele>186</ele>
        <time>2016-10-02T09:02:19Z</time>
      </trkpt>
      <trkpt lat="45.94581" lon="4.73875">
        <ele>186</ele>
        <time>2016-10-02T09:02:21Z</time>
      </trkpt>
      <trkpt lat="45.94584" lon="4.7388">
        <ele>187</ele>
        <time>2016-10-02T09:02:22Z</time>
      </trkpt>
      <trkpt lat="45.94588" lon="4.73885">
        <ele>187</ele>
        <time>2016-10-02T09:02:23Z</time>
      </trkpt>
      <trkpt lat="45.94592" lon="4.73891">
        <ele>187</ele>
        <time>2016-10-02T09:02:24Z</time>
      </trkpt>
      <trkpt lat="45.94595" lon="4.73897">
        <ele>187</ele>
        <time>2016-10-02T09:02:25Z</time>
      </trkpt>
      <trkpt lat="45.94599" lon="4.73903">
        <ele>187</ele>
        <time>2016-10-02T09:02:26Z</time>
      </trkpt>
      <trkpt lat="45.94603" lon="4.73908">
        <ele>187</ele>
        <time>2016-10-02T09:02:27Z</time>
      </trkpt>
      <trkpt lat="45.94608" lon="4.73913">
        <ele>187</ele>
        <time>2016-10-02T09:02:28Z</time>
      </trkpt>
      <trkpt lat="45.94612" lon="4.73918">
        <ele>187</ele>
        <time>2016-10-02T09:02:29Z</time>
      </trkpt>
      <trkpt lat="45.94616" lon="4.73923">
        <ele>187</ele>
        <time>2016-10-02T09:02:30Z</time>
      </trkpt>
      <trkpt lat="45.9462" lon="4.73927">
        <ele>187</ele>
        <time>2016-10-02T09:02:31Z</time>
      </trkpt>
      <trkpt lat="45.94624" lon="4.73932">
        <ele>187</ele>
        <time>2016-10-02T09:02:32Z</time>
      </trkpt>
      <trkpt lat="45.94628" lon="4.73937">
        <ele>187</ele>
        <time>2016-10-02T09:02:33Z</time>
      </trkpt>
      <trkpt lat="45.94632" lon="4.73941">
        <ele>187</ele>
        <time>2016-10-02T09:02:34Z</time>
      </trkpt>
      <trkpt lat="45.94636" lon="4.73946">
        <ele>187</ele>
        <time>2016-10-02T09:02:35Z</time>
      </trkpt>
      <trkpt lat="45.9464" lon="4.7395">
        <ele>187</ele>
        <time>2016-10-02T09:02:36Z</time>
      </trkpt>
      <trkpt lat="45.94644" lon="4.73954">
        <ele>187</ele>
        <time>2016-10-02T09:02:37Z</time>
      </trkpt>
      <trkpt lat="45.94648" lon="4.73958">
        <ele>187</ele>
        <time>2016-10-02T09:02:38Z</time>
      </trkpt>
      <trkpt lat="45.94652" lon="4.73962">
        <ele>187</ele>
        <time>2016-10-02T09:02:39Z</time>
      </trkpt>
      <trkpt lat="45.94657" lon="4.73967">
        <ele>187</ele>
        <time>2016-10-02T09:02:40Z</time>
      </trkpt>
      <trkpt lat="45.94662" lon="4.73972">
        <ele>187</ele>
        <time>2016-10-02T09:02:41Z</time>
      </trkpt>
      <trkpt lat="45.94665" lon="4.73977">
        <ele>187</ele>
        <time>2016-10-02T09:02:42Z</time>
      </trkpt>
      <trkpt lat="45.94668" lon="4.73985">
        <ele>187</ele>
        <time>2016-10-02T09:02:43Z</time>
      </trkpt>
      <trkpt lat="45.9467" lon="4.73996">
        <ele>187</ele>
        <time>2016-10-02T09:02:44Z</time>
      </trkpt>
      <trkpt lat="45.94673" lon="4.74003">
        <ele>187</ele>
        <time>2016-10-02T09:02:45Z</time>
      </trkpt>
      <trkpt lat="45.94677" lon="4.74009">
        <ele>187</ele>
        <time>2016-10-02T09:02:46Z</time>
      </trkpt>
      <trkpt lat="45.9468" lon="4.74014">
        <ele>187</ele>
        <time>2016-10-02T09:02:47Z</time>
      </trkpt>
      <trkpt lat="45.94684" lon="4.74018">
        <ele>187</ele>
        <time>2016-10-02T09:02:48Z</time>
      </trkpt>
      <trkpt lat="45.94693" lon="4.74022">
        <ele>187</ele>
        <time>2016-10-02T09:02:50Z</time>
      </trkpt>
      <trkpt lat="45.94697" lon="4.74024">
        <ele>187</ele>
        <time>2016-10-02T09:02:51Z</time>
      </trkpt>
      <trkpt lat="45.94701" lon="4.74026">
        <ele>187</ele>
        <time>2016-10-02T09:02:52Z</time>
      </trkpt>
      <trkpt lat="45.94704" lon="4.74034">
        <ele>187</ele>
        <time>2016-10-02T09:02:53Z</time>
      </trkpt>
      <trkpt lat="45.94706" lon="4.74043">
        <ele>187</ele>
        <time>2016-10-02T09:02:54Z</time>
      </trkpt>
      <trkpt lat="45.9471" lon="4.74048">
        <ele>187</ele>
        <time>2016-10-02T09:02:55Z</time>
      </trkpt>
      <trkpt lat="45.94714" lon="4.74054">
        <ele>187</ele>
        <time>2016-10-02T09:02:56Z</time>
      </trkpt>
      <trkpt lat="45.94718" lon="4.74062">
        <ele>187</ele>
        <time>2016-10-02T09:02:57Z</time>
      </trkpt>
      <trkpt lat="45.94721" lon="4.7407">
        <ele>188</ele>
        <time>2016-10-02T09:02:58Z</time>
      </trkpt>
      <trkpt lat="45.94724" lon="4.74079">
        <ele>188</ele>
        <time>2016-10-02T09:02:59Z</time>
      </trkpt>
      <trkpt lat="45.94728" lon="4.74085">
        <ele>187</ele>
        <time>2016-10-02T09:03:00Z</time>
      </trkpt>
      <trkpt lat="45.94731" lon="4.74091">
        <ele>187</ele>
        <time>2016-10-02T09:03:01Z</time>
      </trkpt>
      <trkpt lat="45.94739" lon="4.74095">
        <ele>188</ele>
        <time>2016-10-02T09:03:03Z</time>
      </trkpt>
      <trkpt lat="45.94744" lon="4.741">
        <ele>188</ele>
        <time>2016-10-02T09:03:04Z</time>
      </trkpt>
      <trkpt lat="45.94747" lon="4.74106">
        <ele>188</ele>
        <time>2016-10-02T09:03:05Z</time>
      </trkpt>
      <trkpt lat="45.94751" lon="4.74111">
        <ele>189</ele>
        <time>2016-10-02T09:03:06Z</time>
      </trkpt>
      <trkpt lat="45.94755" lon="4.74115">
        <ele>189</ele>
        <time>2016-10-02T09:03:07Z</time>
      </trkpt>
      <trkpt lat="45.9476" lon="4.74121">
        <ele>189</ele>
        <time>2016-10-02T09:03:08Z</time>
      </trkpt>
      <trkpt lat="45.94762" lon="4.74128">
        <ele>189</ele>
        <time>2016-10-02T09:03:09Z</time>
      </trkpt>
      <trkpt lat="45.94766" lon="4.74133">
        <ele>189</ele>
        <time>2016-10-02T09:03:10Z</time>
      </trkpt>
      <trkpt lat="45.9477" lon="4.74139">
        <ele>189</ele>
        <time>2016-10-02T09:03:11Z</time>
      </trkpt>
      <trkpt lat="45.94773" lon="4.74145">
        <ele>189</ele>
        <time>2016-10-02T09:03:12Z</time>
      </trkpt>
      <trkpt lat="45.94776" lon="4.74149">
        <ele>189</ele>
        <time>2016-10-02T09:03:13Z</time>
      </trkpt>
      <trkpt lat="45.9478" lon="4.74153">
        <ele>189</ele>
        <time>2016-10-02T09:03:14Z</time>
      </trkpt>
      <trkpt lat="45.94784" lon="4.74157">
        <ele>189</ele>
        <time>2016-10-02T09:03:15Z</time>
      </trkpt>
      <trkpt lat="45.94788" lon="4.74161">
        <ele>189</ele>
        <time>2016-10-02T09:03:16Z</time>
      </trkpt>
      <trkpt lat="45.94792" lon="4.74166">
        <ele>189</ele>
        <time>2016-10-02T09:03:17Z</time>
      </trkpt>
      <trkpt lat="45.94796" lon="4.74171">
        <ele>188</ele>
        <time>2016-10-02T09:03:18Z</time>
      </trkpt>
      <trkpt lat="45.94801" lon="4.74176">
        <ele>189</ele>
        <time>2016-10-02T09:03:19Z</time>
      </trkpt>
      <trkpt lat="45.94805" lon="4.74181">
        <ele>189</ele>
        <time>2016-10-02T09:03:20Z</time>
      </trkpt>
      <trkpt lat="45.94812" lon="4.74188">
        <ele>189</ele>
        <time>2016-10-02T09:03:22Z</time>
      </trkpt>
      <trkpt lat="45.94816" lon="4.74194">
        <ele>189</ele>
        <time>2016-10-02T09:03:23Z</time>
      </trkpt>
      <trkpt lat="45.9482" lon="4.74201">
        <ele>189</ele>
        <time>2016-10-02T09:03:24Z</time>
      </trkpt>
      <trkpt lat="45.94822" lon="4.74208">
        <ele>188</ele>
        <time>2016-10-02T09:03:25Z</time>
      </trkpt>
      <trkpt lat="45.94825" lon="4.74215">
        <ele>188</ele>
        <time>2016-10-02T09:03:26Z</time>
      </trkpt>
      <trkpt lat="45.94827" lon="4.74222">
        <ele>188</ele>
        <time>2016-10-02T09:03:27Z</time>
      </trkpt>
      <trkpt lat="45.9483" lon="4.7423">
        <ele>189</ele>
        <time>2016-10-02T09:03:28Z</time>
      </trkpt>
      <trkpt lat="45.94835" lon="4.74238">
        <ele>190</ele>
        <time>2016-10-02T09:03:29Z</time>
      </trkpt>
      <trkpt lat="45.94839" lon="4.74246">
        <ele>189</ele>
        <time>2016-10-02T09:03:30Z</time>
      </trkpt>
      <trkpt lat="45.94843" lon="4.74253">
        <ele>190</ele>
        <time>2016-10-02T09:03:31Z</time>
      </trkpt>
      <trkpt lat="45.94848" lon="4.74261">
        <ele>190</ele>
        <time>2016-10-02T09:03:32Z</time>
      </trkpt>
      <trkpt lat="45.94852" lon="4.74269">
        <ele>190</ele>
        <time>2016-10-02T09:03:33Z</time>
      </trkpt>
      <trkpt lat="45.94856" lon="4.74275">
        <ele>190</ele>
        <time>2016-10-02T09:03:34Z</time>
      </trkpt>
      <trkpt lat="45.9486" lon="4.74283">
        <ele>190</ele>
        <time>2016-10-02T09:03:35Z</time>
      </trkpt>
      <trkpt lat="45.94863" lon="4.7429">
        <ele>191</ele>
        <time>2016-10-02T09:03:36Z</time>
      </trkpt>
      <trkpt lat="45.94867" lon="4.74297">
        <ele>191</ele>
        <time>2016-10-02T09:03:37Z</time>
      </trkpt>
      <trkpt lat="45.9487" lon="4.74304">
        <ele>191</ele>
        <time>2016-10-02T09:03:38Z</time>
      </trkpt>
      <trkpt lat="45.94874" lon="4.74311">
        <ele>191</ele>
        <time>2016-10-02T09:03:39Z</time>
      </trkpt>
      <trkpt lat="45.94877" lon="4.74318">
        <ele>191</ele>
        <time>2016-10-02T09:03:40Z</time>
      </trkpt>
      <trkpt lat="45.94881" lon="4.74325">
        <ele>191</ele>
        <time>2016-10-02T09:03:41Z</time>
      </trkpt>
      <trkpt lat="45.94885" lon="4.74332">
        <ele>191</ele>
        <time>2016-10-02T09:03:42Z</time>
      </trkpt>
      <trkpt lat="45.94888" lon="4.74341">
        <ele>191</ele>
        <time>2016-10-02T09:03:43Z</time>
      </trkpt>
      <trkpt lat="45.9489" lon="4.74349">
        <ele>191</ele>
        <time>2016-10-02T09:03:44Z</time>
      </trkpt>
      <trkpt lat="45.94894" lon="4.74355">
        <ele>191</ele>
        <time>2016-10-02T09:03:45Z</time>
      </trkpt>
      <trkpt lat="45.94897" lon="4.74361">
        <ele>191</ele>
        <time>2016-10-02T09:03:46Z</time>
      </trkpt>
      <trkpt lat="45.94901" lon="4.74368">
        <ele>191</ele>
        <time>2016-10-02T09:03:47Z</time>
      </trkpt>
      <trkpt lat="45.94904" lon="4.74374">
        <ele>191</ele>
        <time>2016-10-02T09:03:48Z</time>
      </trkpt>
      <trkpt lat="45.94908" lon="4.74379">
        <ele>191</ele>
        <time>2016-10-02T09:03:49Z</time>
      </trkpt>
      <trkpt lat="45.94911" lon="4.74385">
        <ele>191</ele>
        <time>2016-10-02T09:03:50Z</time>
      </trkpt>
      <trkpt lat="45.94914" lon="4.74392">
        <ele>191</ele>
        <time>2016-10-02T09:03:51Z</time>
      </trkpt>
      <trkpt lat="45.94918" lon="4.74399">
        <ele>192</ele>
        <time>2016-10-02T09:03:52Z</time>
      </trkpt>
      <trkpt lat="45.94921" lon="4.74405">
        <ele>192</ele>
        <time>2016-10-02T09:03:53Z</time>
      </trkpt>
      <trkpt lat="45.94924" lon="4.74412">
        <ele>192</ele>
        <time>2016-10-02T09:03:54Z</time>
      </trkpt>
      <trkpt lat="45.94927" lon="4.74419">
        <ele>192</ele>
        <time>2016-10-02T09:03:55Z</time>
      </trkpt>
      <trkpt lat="45.9493" lon="4.74428">
        <ele>192</ele>
        <time>2016-10-02T09:03:56Z</time>
      </trkpt>
      <trkpt lat="45.94933" lon="4.74434">
        <ele>192</ele>
        <time>2016-10-02T09:03:57Z</time>
      </trkpt>
      <trkpt lat="45.94937" lon="4.74441">
        <ele>192</ele>
        <time>2016-10-02T09:03:58Z</time>
      </trkpt>
      <trkpt lat="45.94941" lon="4.74445">
        <ele>192</ele>
        <time>2016-10-02T09:03:59Z</time>
      </trkpt>
      <trkpt lat="45.94945" lon="4.7445">
        <ele>192</ele>
        <time>2016-10-02T09:04:00Z</time>
      </trkpt>
      <trkpt lat="45.94949" lon="4.74454">
        <ele>192</ele>
        <time>2016-10-02T09:04:01Z</time>
      </trkpt>
      <trkpt lat="45.94952" lon="4.74461">
        <ele>193</ele>
        <time>2016-10-02T09:04:02Z</time>
      </trkpt>
      <trkpt lat="45.94955" lon="4.74468">
        <ele>193</ele>
        <time>2016-10-02T09:04:03Z</time>
      </trkpt>
      <trkpt lat="45.94959" lon="4.74474">
        <ele>193</ele>
        <time>2016-10-02T09:04:04Z</time>
      </trkpt>
      <trkpt lat="45.94962" lon="4.7448">
        <ele>193</ele>
        <time>2016-10-02T09:04:05Z</time>
      </trkpt>
      <trkpt lat="45.94966" lon="4.74486">
        <ele>193</ele>
        <time>2016-10-02T09:04:06Z</time>
      </trkpt>
      <trkpt lat="45.94969" lon="4.74493">
        <ele>193</ele>
        <time>2016-10-02T09:04:07Z</time>
      </trkpt>
      <trkpt lat="45.94972" lon="4.745">
        <ele>193</ele>
        <time>2016-10-02T09:04:08Z</time>
      </trkpt>
      <trkpt lat="45.94975" lon="4.74506">
        <ele>193</ele>
        <time>2016-10-02T09:04:09Z</time>
      </trkpt>
      <trkpt lat="45.94978" lon="4.74511">
        <ele>193</ele>
        <time>2016-10-02T09:04:10Z</time>
      </trkpt>
      <trkpt lat="45.94981" lon="4.74518">
        <ele>193</ele>
        <time>2016-10-02T09:04:11Z</time>
      </trkpt>
      <trkpt lat="45.94985" lon="4.74525">
        <ele>193</ele>
        <time>2016-10-02T09:04:12Z</time>
      </trkpt>
      <trkpt lat="45.94988" lon="4.74532">
        <ele>193</ele>
        <time>2016-10-02T09:04:13Z</time>
      </trkpt>
      <trkpt lat="45.94992" lon="4.74538">
        <ele>193</ele>
        <time>2016-10-02T09:04:14Z</time>
      </trkpt>
      <trkpt lat="45.94995" lon="4.74544">
        <ele>193</ele>
        <time>2016-10-02T09:04:15Z</time>
      </trkpt>
      <trkpt lat="45.94998" lon="4.74552">
        <ele>193</ele>
        <time>2016-10-02T09:04:16Z</time>
      </trkpt>
      <trkpt lat="45.95002" lon="4.74559">
        <ele>194</ele>
        <time>2016-10-02T09:04:17Z</time>
      </trkpt>
      <trkpt lat="45.95006" lon="4.74566">
        <ele>194</ele>
        <time>2016-10-02T09:04:18Z</time>
      </trkpt>
      <trkpt lat="45.95009" lon="4.74572">
        <ele>194</ele>
        <time>2016-10-02T09:04:19Z</time>
      </trkpt>
      <trkpt lat="45.95013" lon="4.74578">
        <ele>194</ele>
        <time>2016-10-02T09:04:20Z</time>
      </trkpt>
      <trkpt lat="45.95016" lon="4.74585">
        <ele>194</ele>
        <time>2016-10-02T09:04:21Z</time>
      </trkpt>
      <trkpt lat="45.9502" lon="4.74591">
        <ele>194</ele>
        <time>2016-10-02T09:04:22Z</time>
      </trkpt>
      <trkpt lat="45.95024" lon="4.74596">
        <ele>194</ele>
        <time>2016-10-02T09:04:23Z</time>
      </trkpt>
      <trkpt lat="45.95027" lon="4.74602">
        <ele>194</ele>
        <time>2016-10-02T09:04:24Z</time>
      </trkpt>
      <trkpt lat="45.9503" lon="4.74608">
        <ele>194</ele>
        <time>2016-10-02T09:04:25Z</time>
      </trkpt>
      <trkpt lat="45.95033" lon="4.74614">
        <ele>194</ele>
        <time>2016-10-02T09:04:26Z</time>
      </trkpt>
      <trkpt lat="45.95037" lon="4.7462">
        <ele>194</ele>
        <time>2016-10-02T09:04:27Z</time>
      </trkpt>
      <trkpt lat="45.95042" lon="4.74627">
        <ele>194</ele>
        <time>2016-10-02T09:04:28Z</time>
      </trkpt>
      <trkpt lat="45.95046" lon="4.74635">
        <ele>194</ele>
        <time>2016-10-02T09:04:29Z</time>
      </trkpt>
      <trkpt lat="45.9505" lon="4.74641">
        <ele>194</ele>
        <time>2016-10-02T09:04:30Z</time>
      </trkpt>
      <trkpt lat="45.95053" lon="4.74648">
        <ele>194</ele>
        <time>2016-10-02T09:04:31Z</time>
      </trkpt>
      <trkpt lat="45.95057" lon="4.74654">
        <ele>194</ele>
        <time>2016-10-02T09:04:32Z</time>
      </trkpt>
      <trkpt lat="45.9506" lon="4.7466">
        <ele>194</ele>
        <time>2016-10-02T09:04:33Z</time>
      </trkpt>
      <trkpt lat="45.95064" lon="4.74667">
        <ele>195</ele>
        <time>2016-10-02T09:04:34Z</time>
      </trkpt>
      <trkpt lat="45.95067" lon="4.74673">
        <ele>194</ele>
        <time>2016-10-02T09:04:35Z</time>
      </trkpt>
      <trkpt lat="45.95071" lon="4.7468">
        <ele>194</ele>
        <time>2016-10-02T09:04:36Z</time>
      </trkpt>
      <trkpt lat="45.95075" lon="4.74687">
        <ele>194</ele>
        <time>2016-10-02T09:04:37Z</time>
      </trkpt>
      <trkpt lat="45.95079" lon="4.74693">
        <ele>194</ele>
        <time>2016-10-02T09:04:38Z</time>
      </trkpt>
      <trkpt lat="45.95083" lon="4.747">
        <ele>194</ele>
        <time>2016-10-02T09:04:39Z</time>
      </trkpt>
      <trkpt lat="45.95086" lon="4.74707">
        <ele>194</ele>
        <time>2016-10-02T09:04:40Z</time>
      </trkpt>
      <trkpt lat="45.95089" lon="4.74713">
        <ele>194</ele>
        <time>2016-10-02T09:04:41Z</time>
      </trkpt>
      <trkpt lat="45.95093" lon="4.74719">
        <ele>194</ele>
        <time>2016-10-02T09:04:42Z</time>
      </trkpt>
      <trkpt lat="45.95096" lon="4.74726">
        <ele>194</ele>
        <time>2016-10-02T09:04:43Z</time>
      </trkpt>
      <trkpt lat="45.951" lon="4.74733">
        <ele>194</ele>
        <time>2016-10-02T09:04:44Z</time>
      </trkpt>
      <trkpt lat="45.95103" lon="4.74738">
        <ele>194</ele>
        <time>2016-10-02T09:04:45Z</time>
      </trkpt>
      <trkpt lat="45.95107" lon="4.74744">
        <ele>194</ele>
        <time>2016-10-02T09:04:46Z</time>
      </trkpt>
      <trkpt lat="45.95111" lon="4.7475">
        <ele>194</ele>
        <time>2016-10-02T09:04:47Z</time>
      </trkpt>
      <trkpt lat="45.95114" lon="4.74756">
        <ele>194</ele>
        <time>2016-10-02T09:04:48Z</time>
      </trkpt>
      <trkpt lat="45.95119" lon="4.74762">
        <ele>194</ele>
        <time>2016-10-02T09:04:49Z</time>
      </trkpt>
      <trkpt lat="45.95123" lon="4.74769">
        <ele>194</ele>
        <time>2016-10-02T09:04:50Z</time>
      </trkpt>
      <trkpt lat="45.95126" lon="4.74777">
        <ele>194</ele>
        <time>2016-10-02T09:04:51Z</time>
      </trkpt>
      <trkpt lat="45.9513" lon="4.74785">
        <ele>194</ele>
        <time>2016-10-02T09:04:52Z</time>
      </trkpt>
      <trkpt lat="45.95133" lon="4.74793">
        <ele>194</ele>
        <time>2016-10-02T09:04:53Z</time>
      </trkpt>
      <trkpt lat="45.95137" lon="4.74801">
        <ele>194</ele>
        <time>2016-10-02T09:04:54Z</time>
      </trkpt>
      <trkpt lat="45.9514" lon="4.74808">
        <ele>194</ele>
        <time>2016-10-02T09:04:55Z</time>
      </trkpt>
      <trkpt lat="45.95143" lon="4.74814">
        <ele>194</ele>
        <time>2016-10-02T09:04:56Z</time>
      </trkpt>
      <trkpt lat="45.95147" lon="4.74821">
        <ele>194</ele>
        <time>2016-10-02T09:04:57Z</time>
      </trkpt>
      <trkpt lat="45.95151" lon="4.74827">
        <ele>194</ele>
        <time>2016-10-02T09:04:58Z</time>
      </trkpt>
      <trkpt lat="45.95155" lon="4.74832">
        <ele>194</ele>
        <time>2016-10-02T09:04:59Z</time>
      </trkpt>
      <trkpt lat="45.95159" lon="4.74837">
        <ele>193</ele>
        <time>2016-10-02T09:05:00Z</time>
      </trkpt>
      <trkpt lat="45.95163" lon="4.74841">
        <ele>194</ele>
        <time>2016-10-02T09:05:01Z</time>
      </trkpt>
      <trkpt lat="45.95167" lon="4.74846">
        <ele>194</ele>
        <time>2016-10-02T09:05:02Z</time>
      </trkpt>
      <trkpt lat="45.95172" lon="4.7485">
        <ele>194</ele>
        <time>2016-10-02T09:05:03Z</time>
      </trkpt>
      <trkpt lat="45.95178" lon="4.74851">
        <ele>194</ele>
        <time>2016-10-02T09:05:04Z</time>
      </trkpt>
      <trkpt lat="45.95183" lon="4.74856">
        <ele>194</ele>
        <time>2016-10-02T09:05:05Z</time>
      </trkpt>
      <trkpt lat="45.95187" lon="4.74863">
        <ele>194</ele>
        <time>2016-10-02T09:05:06Z</time>
      </trkpt>
      <trkpt lat="45.95191" lon="4.7487">
        <ele>194</ele>
        <time>2016-10-02T09:05:07Z</time>
      </trkpt>
      <trkpt lat="45.95195" lon="4.74877">
        <ele>194</ele>
        <time>2016-10-02T09:05:08Z</time>
      </trkpt>
      <trkpt lat="45.95199" lon="4.74885">
        <ele>194</ele>
        <time>2016-10-02T09:05:09Z</time>
      </trkpt>
      <trkpt lat="45.95202" lon="4.74893">
        <ele>194</ele>
        <time>2016-10-02T09:05:10Z</time>
      </trkpt>
      <trkpt lat="45.95206" lon="4.749">
        <ele>194</ele>
        <time>2016-10-02T09:05:11Z</time>
      </trkpt>
      <trkpt lat="45.9521" lon="4.74907">
        <ele>193</ele>
        <time>2016-10-02T09:05:12Z</time>
      </trkpt>
      <trkpt lat="45.95214" lon="4.74914">
        <ele>193</ele>
        <time>2016-10-02T09:05:13Z</time>
      </trkpt>
      <trkpt lat="45.95218" lon="4.74921">
        <ele>192</ele>
        <time>2016-10-02T09:05:14Z</time>
      </trkpt>
      <trkpt lat="45.95222" lon="4.74927">
        <ele>192</ele>
        <time>2016-10-02T09:05:15Z</time>
      </trkpt>
      <trkpt lat="45.95226" lon="4.74933">
        <ele>192</ele>
        <time>2016-10-02T09:05:16Z</time>
      </trkpt>
      <trkpt lat="45.95229" lon="4.74939">
        <ele>192</ele>
        <time>2016-10-02T09:05:17Z</time>
      </trkpt>
      <trkpt lat="45.95233" lon="4.74946">
        <ele>192</ele>
        <time>2016-10-02T09:05:18Z</time>
      </trkpt>
      <trkpt lat="45.95236" lon="4.74954">
        <ele>192</ele>
        <time>2016-10-02T09:05:19Z</time>
      </trkpt>
      <trkpt lat="45.9524" lon="4.74959">
        <ele>191</ele>
        <time>2016-10-02T09:05:20Z</time>
      </trkpt>
      <trkpt lat="45.95244" lon="4.74965">
        <ele>191</ele>
        <time>2016-10-02T09:05:21Z</time>
      </trkpt>
      <trkpt lat="45.95248" lon="4.7497">
        <ele>191</ele>
        <time>2016-10-02T09:05:22Z</time>
      </trkpt>
      <trkpt lat="45.95252" lon="4.74977">
        <ele>192</ele>
        <time>2016-10-02T09:05:23Z</time>
      </trkpt>
      <trkpt lat="45.95256" lon="4.74983">
        <ele>192</ele>
        <time>2016-10-02T09:05:24Z</time>
      </trkpt>
      <trkpt lat="45.9526" lon="4.74989">
        <ele>192</ele>
        <time>2016-10-02T09:05:25Z</time>
      </trkpt>
      <trkpt lat="45.95264" lon="4.74995">
        <ele>192</ele>
        <time>2016-10-02T09:05:26Z</time>
      </trkpt>
      <trkpt lat="45.95268" lon="4.75001">
        <ele>191</ele>
        <time>2016-10-02T09:05:27Z</time>
      </trkpt>
      <trkpt lat="45.95272" lon="4.75007">
        <ele>191</ele>
        <time>2016-10-02T09:05:28Z</time>
      </trkpt>
      <trkpt lat="45.95276" lon="4.75014">
        <ele>191</ele>
        <time>2016-10-02T09:05:29Z</time>
      </trkpt>
      <trkpt lat="45.9528" lon="4.75019">
        <ele>191</ele>
        <time>2016-10-02T09:05:30Z</time>
      </trkpt>
      <trkpt lat="45.95285" lon="4.75026">
        <ele>191</ele>
        <time>2016-10-02T09:05:31Z</time>
      </trkpt>
      <trkpt lat="45.95289" lon="4.75033">
        <ele>191</ele>
        <time>2016-10-02T09:05:32Z</time>
      </trkpt>
      <trkpt lat="45.95293" lon="4.7504">
        <ele>191</ele>
        <time>2016-10-02T09:05:33Z</time>
      </trkpt>
      <trkpt lat="45.95297" lon="4.75047">
        <ele>191</ele>
        <time>2016-10-02T09:05:34Z</time>
      </trkpt>
      <trkpt lat="45.95302" lon="4.75054">
        <ele>191</ele>
        <time>2016-10-02T09:05:35Z</time>
      </trkpt>
      <trkpt lat="45.95306" lon="4.75062">
        <ele>192</ele>
        <time>2016-10-02T09:05:36Z</time>
      </trkpt>
      <trkpt lat="45.95311" lon="4.75068">
        <ele>192</ele>
        <time>2016-10-02T09:05:37Z</time>
      </trkpt>
      <trkpt lat="45.95316" lon="4.75074">
        <ele>192</ele>
        <time>2016-10-02T09:05:38Z</time>
      </trkpt>
      <trkpt lat="45.9532" lon="4.75081">
        <ele>192</ele>
        <time>2016-10-02T09:05:39Z</time>
      </trkpt>
      <trkpt lat="45.95324" lon="4.75087">
        <ele>191</ele>
        <time>2016-10-02T09:05:40Z</time>
      </trkpt>
      <trkpt lat="45.95328" lon="4.75094">
        <ele>191</ele>
        <time>2016-10-02T09:05:41Z</time>
      </trkpt>
      <trkpt lat="45.95332" lon="4.751">
        <ele>191</ele>
        <time>2016-10-02T09:05:42Z</time>
      </trkpt>
      <trkpt lat="45.95336" lon="4.75107">
        <ele>192</ele>
        <time>2016-10-02T09:05:43Z</time>
      </trkpt>
      <trkpt lat="45.9534" lon="4.75113">
        <ele>192</ele>
        <time>2016-10-02T09:05:44Z</time>
      </trkpt>
      <trkpt lat="45.95344" lon="4.7512">
        <ele>191</ele>
        <time>2016-10-02T09:05:45Z</time>
      </trkpt>
      <trkpt lat="45.95348" lon="4.75126">
        <ele>191</ele>
        <time>2016-10-02T09:05:46Z</time>
      </trkpt>
      <trkpt lat="45.95352" lon="4.75132">
        <ele>191</ele>
        <time>2016-10-02T09:05:47Z</time>
      </trkpt>
      <trkpt lat="45.95357" lon="4.75137">
        <ele>191</ele>
        <time>2016-10-02T09:05:48Z</time>
      </trkpt>
      <trkpt lat="45.95362" lon="4.75144">
        <ele>191</ele>
        <time>2016-10-02T09:05:49Z</time>
      </trkpt>
      <trkpt lat="45.95366" lon="4.7515">
        <ele>191</ele>
        <time>2016-10-02T09:05:50Z</time>
      </trkpt>
      <trkpt lat="45.95371" lon="4.75156">
        <ele>191</ele>
        <time>2016-10-02T09:05:51Z</time>
      </trkpt>
      <trkpt lat="45.95375" lon="4.75165">
        <ele>191</ele>
        <time>2016-10-02T09:05:52Z</time>
      </trkpt>
      <trkpt lat="45.95379" lon="4.7517">
        <ele>189</ele>
        <time>2016-10-02T09:05:53Z</time>
      </trkpt>
      <trkpt lat="45.95384" lon="4.75175">
        <ele>189</ele>
        <time>2016-10-02T09:05:54Z</time>
      </trkpt>
      <trkpt lat="45.9539" lon="4.7518">
        <ele>189</ele>
        <time>2016-10-02T09:05:55Z</time>
      </trkpt>
      <trkpt lat="45.95394" lon="4.75185">
        <ele>189</ele>
        <time>2016-10-02T09:05:56Z</time>
      </trkpt>
      <trkpt lat="45.95399" lon="4.75191">
        <ele>189</ele>
        <time>2016-10-02T09:05:57Z</time>
      </trkpt>
      <trkpt lat="45.95403" lon="4.752">
        <ele>189</ele>
        <time>2016-10-02T09:05:58Z</time>
      </trkpt>
      <trkpt lat="45.95407" lon="4.75206">
        <ele>189</ele>
        <time>2016-10-02T09:05:59Z</time>
      </trkpt>
      <trkpt lat="45.95411" lon="4.75214">
        <ele>189</ele>
        <time>2016-10-02T09:06:00Z</time>
      </trkpt>
      <trkpt lat="45.95415" lon="4.75221">
        <ele>189</ele>
        <time>2016-10-02T09:06:01Z</time>
      </trkpt>
      <trkpt lat="45.95419" lon="4.75228">
        <ele>191</ele>
        <time>2016-10-02T09:06:02Z</time>
      </trkpt>
      <trkpt lat="45.95422" lon="4.75236">
        <ele>190</ele>
        <time>2016-10-02T09:06:03Z</time>
      </trkpt>
      <trkpt lat="45.95426" lon="4.75244">
        <ele>190</ele>
        <time>2016-10-02T09:06:04Z</time>
      </trkpt>
      <trkpt lat="45.95429" lon="4.75251">
        <ele>189</ele>
        <time>2016-10-02T09:06:05Z</time>
      </trkpt>
      <trkpt lat="45.95433" lon="4.75259">
        <ele>189</ele>
        <time>2016-10-02T09:06:06Z</time>
      </trkpt>
      <trkpt lat="45.95437" lon="4.75267">
        <ele>189</ele>
        <time>2016-10-02T09:06:07Z</time>
      </trkpt>
      <trkpt lat="45.95441" lon="4.75277">
        <ele>189</ele>
        <time>2016-10-02T09:06:08Z</time>
      </trkpt>
      <trkpt lat="45.95445" lon="4.75286">
        <ele>188</ele>
        <time>2016-10-02T09:06:09Z</time>
      </trkpt>
      <trkpt lat="45.95449" lon="4.75295">
        <ele>188</ele>
        <time>2016-10-02T09:06:10Z</time>
      </trkpt>
      <trkpt lat="45.95454" lon="4.75304">
        <ele>188</ele>
        <time>2016-10-02T09:06:11Z</time>
      </trkpt>
      <trkpt lat="45.95458" lon="4.75312">
        <ele>188</ele>
        <time>2016-10-02T09:06:12Z</time>
      </trkpt>
      <trkpt lat="45.95462" lon="4.75321">
        <ele>188</ele>
        <time>2016-10-02T09:06:13Z</time>
      </trkpt>
      <trkpt lat="45.95466" lon="4.75331">
        <ele>188</ele>
        <time>2016-10-02T09:06:14Z</time>
      </trkpt>
      <trkpt lat="45.95471" lon="4.75339">
        <ele>186</ele>
        <time>2016-10-02T09:06:15Z</time>
      </trkpt>
      <trkpt lat="45.95475" lon="4.75347">
        <ele>186</ele>
        <time>2016-10-02T09:06:16Z</time>
      </trkpt>
      <trkpt lat="45.95479" lon="4.75356">
        <ele>186</ele>
        <time>2016-10-02T09:06:17Z</time>
      </trkpt>
      <trkpt lat="45.95484" lon="4.7536">
        <ele>186</ele>
        <time>2016-10-02T09:06:18Z</time>
      </trkpt>
      <trkpt lat="45.95489" lon="4.75365">
        <ele>186</ele>
        <time>2016-10-02T09:06:19Z</time>
      </trkpt>
      <trkpt lat="45.95492" lon="4.75372">
        <ele>185</ele>
        <time>2016-10-02T09:06:20Z</time>
      </trkpt>
      <trkpt lat="45.95496" lon="4.7538">
        <ele>185</ele>
        <time>2016-10-02T09:06:21Z</time>
      </trkpt>
      <trkpt lat="45.95499" lon="4.7539">
        <ele>185</ele>
        <time>2016-10-02T09:06:22Z</time>
      </trkpt>
      <trkpt lat="45.95501" lon="4.754">
        <ele>187</ele>
        <time>2016-10-02T09:06:23Z</time>
      </trkpt>
      <trkpt lat="45.95503" lon="4.75411">
        <ele>186</ele>
        <time>2016-10-02T09:06:24Z</time>
      </trkpt>
      <trkpt lat="45.95504" lon="4.75421">
        <ele>186</ele>
        <time>2016-10-02T09:06:25Z</time>
      </trkpt>
      <trkpt lat="45.95506" lon="4.75431">
        <ele>186</ele>
        <time>2016-10-02T09:06:26Z</time>
      </trkpt>
      <trkpt lat="45.95508" lon="4.7544">
        <ele>186</ele>
        <time>2016-10-02T09:06:27Z</time>
      </trkpt>
      <trkpt lat="45.95509" lon="4.7545">
        <ele>187</ele>
        <time>2016-10-02T09:06:28Z</time>
      </trkpt>
      <trkpt lat="45.95509" lon="4.75461">
        <ele>186</ele>
        <time>2016-10-02T09:06:29Z</time>
      </trkpt>
      <trkpt lat="45.95509" lon="4.75471">
        <ele>186</ele>
        <time>2016-10-02T09:06:30Z</time>
      </trkpt>
      <trkpt lat="45.9551" lon="4.75482">
        <ele>186</ele>
        <time>2016-10-02T09:06:31Z</time>
      </trkpt>
      <trkpt lat="45.95512" lon="4.75491">
        <ele>186</ele>
        <time>2016-10-02T09:06:32Z</time>
      </trkpt>
      <trkpt lat="45.95516" lon="4.75501">
        <ele>185</ele>
        <time>2016-10-02T09:06:33Z</time>
      </trkpt>
      <trkpt lat="45.95521" lon="4.75506">
        <ele>185</ele>
        <time>2016-10-02T09:06:34Z</time>
      </trkpt>
      <trkpt lat="45.95526" lon="4.7551">
        <ele>185</ele>
        <time>2016-10-02T09:06:35Z</time>
      </trkpt>
      <trkpt lat="45.95532" lon="4.75514">
        <ele>185</ele>
        <time>2016-10-02T09:06:36Z</time>
      </trkpt>
      <trkpt lat="45.95536" lon="4.75519">
        <ele>186</ele>
        <time>2016-10-02T09:06:37Z</time>
      </trkpt>
      <trkpt lat="45.95542" lon="4.75524">
        <ele>186</ele>
        <time>2016-10-02T09:06:38Z</time>
      </trkpt>
      <trkpt lat="45.95547" lon="4.75529">
        <ele>186</ele>
        <time>2016-10-02T09:06:39Z</time>
      </trkpt>
      <trkpt lat="45.95553" lon="4.75534">
        <ele>186</ele>
        <time>2016-10-02T09:06:40Z</time>
      </trkpt>
      <trkpt lat="45.95558" lon="4.7554">
        <ele>186</ele>
        <time>2016-10-02T09:06:41Z</time>
      </trkpt>
      <trkpt lat="45.95564" lon="4.75544">
        <ele>186</ele>
        <time>2016-10-02T09:06:42Z</time>
      </trkpt>
      <trkpt lat="45.95569" lon="4.7555">
        <ele>186</ele>
        <time>2016-10-02T09:06:43Z</time>
      </trkpt>
      <trkpt lat="45.95574" lon="4.75554">
        <ele>186</ele>
        <time>2016-10-02T09:06:44Z</time>
      </trkpt>
      <trkpt lat="45.95578" lon="4.7556">
        <ele>186</ele>
        <time>2016-10-02T09:06:45Z</time>
      </trkpt>
      <trkpt lat="45.95583" lon="4.75566">
        <ele>186</ele>
        <time>2016-10-02T09:06:46Z</time>
      </trkpt>
      <trkpt lat="45.95586" lon="4.75572">
        <ele>187</ele>
        <time>2016-10-02T09:06:47Z</time>
      </trkpt>
      <trkpt lat="45.9559" lon="4.75581">
        <ele>187</ele>
        <time>2016-10-02T09:06:48Z</time>
      </trkpt>
      <trkpt lat="45.95594" lon="4.75589">
        <ele>187</ele>
        <time>2016-10-02T09:06:49Z</time>
      </trkpt>
      <trkpt lat="45.95597" lon="4.75596">
        <ele>187</ele>
        <time>2016-10-02T09:06:50Z</time>
      </trkpt>
      <trkpt lat="45.95599" lon="4.75603">
        <ele>187</ele>
        <time>2016-10-02T09:06:51Z</time>
      </trkpt>
      <trkpt lat="45.95602" lon="4.7561">
        <ele>187</ele>
        <time>2016-10-02T09:06:52Z</time>
      </trkpt>
      <trkpt lat="45.95605" lon="4.75617">
        <ele>188</ele>
        <time>2016-10-02T09:06:53Z</time>
      </trkpt>
      <trkpt lat="45.95608" lon="4.75625">
        <ele>188</ele>
        <time>2016-10-02T09:06:54Z</time>
      </trkpt>
      <trkpt lat="45.9561" lon="4.75633">
        <ele>188</ele>
        <time>2016-10-02T09:06:55Z</time>
      </trkpt>
      <trkpt lat="45.95613" lon="4.75641">
        <ele>188</ele>
        <time>2016-10-02T09:06:56Z</time>
      </trkpt>
      <trkpt lat="45.95615" lon="4.75649">
        <ele>188</ele>
        <time>2016-10-02T09:06:57Z</time>
      </trkpt>
      <trkpt lat="45.95616" lon="4.75657">
        <ele>188</ele>
        <time>2016-10-02T09:06:58Z</time>
      </trkpt>
      <trkpt lat="45.95618" lon="4.75665">
        <ele>188</ele>
        <time>2016-10-02T09:06:59Z</time>
      </trkpt>
      <trkpt lat="45.95619" lon="4.75673">
        <ele>187</ele>
        <time>2016-10-02T09:07:00Z</time>
      </trkpt>
      <trkpt lat="45.95621" lon="4.75681">
        <ele>187</ele>
        <time>2016-10-02T09:07:01Z</time>
      </trkpt>
      <trkpt lat="45.95622" lon="4.7569">
        <ele>187</ele>
        <time>2016-10-02T09:07:02Z</time>
      </trkpt>
      <trkpt lat="45.95622" lon="4.75698">
        <ele>187</ele>
        <time>2016-10-02T09:07:03Z</time>
      </trkpt>
      <trkpt lat="45.95622" lon="4.75708">
        <ele>187</ele>
        <time>2016-10-02T09:07:04Z</time>
      </trkpt>
      <trkpt lat="45.95624" lon="4.75716">
        <ele>187</ele>
        <time>2016-10-02T09:07:05Z</time>
      </trkpt>
      <trkpt lat="45.95625" lon="4.75725">
        <ele>187</ele>
        <time>2016-10-02T09:07:06Z</time>
      </trkpt>
      <trkpt lat="45.95627" lon="4.75733">
        <ele>187</ele>
        <time>2016-10-02T09:07:07Z</time>
      </trkpt>
      <trkpt lat="45.95629" lon="4.7574">
        <ele>187</ele>
        <time>2016-10-02T09:07:08Z</time>
      </trkpt>
      <trkpt lat="45.9563" lon="4.75748">
        <ele>187</ele>
        <time>2016-10-02T09:07:09Z</time>
      </trkpt>
      <trkpt lat="45.95631" lon="4.75755">
        <ele>186</ele>
        <time>2016-10-02T09:07:10Z</time>
      </trkpt>
      <trkpt lat="45.95632" lon="4.75763">
        <ele>186</ele>
        <time>2016-10-02T09:07:11Z</time>
      </trkpt>
      <trkpt lat="45.95633" lon="4.75771">
        <ele>185</ele>
        <time>2016-10-02T09:07:12Z</time>
      </trkpt>
      <trkpt lat="45.95634" lon="4.75779">
        <ele>185</ele>
        <time>2016-10-02T09:07:13Z</time>
      </trkpt>
      <trkpt lat="45.95636" lon="4.75787">
        <ele>185</ele>
        <time>2016-10-02T09:07:14Z</time>
      </trkpt>
      <trkpt lat="45.95638" lon="4.75795">
        <ele>185</ele>
        <time>2016-10-02T09:07:15Z</time>
      </trkpt>
      <trkpt lat="45.95639" lon="4.75803">
        <ele>185</ele>
        <time>2016-10-02T09:07:16Z</time>
      </trkpt>
      <trkpt lat="45.95641" lon="4.75811">
        <ele>185</ele>
        <time>2016-10-02T09:07:17Z</time>
      </trkpt>
      <trkpt lat="45.95643" lon="4.7582">
        <ele>185</ele>
        <time>2016-10-02T09:07:18Z</time>
      </trkpt>
      <trkpt lat="45.95645" lon="4.7583">
        <ele>185</ele>
        <time>2016-10-02T09:07:19Z</time>
      </trkpt>
      <trkpt lat="45.95647" lon="4.75839">
        <ele>185</ele>
        <time>2016-10-02T09:07:20Z</time>
      </trkpt>
      <trkpt lat="45.9565" lon="4.75847">
        <ele>184</ele>
        <time>2016-10-02T09:07:21Z</time>
      </trkpt>
      <trkpt lat="45.95652" lon="4.75855">
        <ele>184</ele>
        <time>2016-10-02T09:07:22Z</time>
      </trkpt>
      <trkpt lat="45.95654" lon="4.75863">
        <ele>184</ele>
        <time>2016-10-02T09:07:23Z</time>
      </trkpt>
      <trkpt lat="45.95657" lon="4.75872">
        <ele>184</ele>
        <time>2016-10-02T09:07:24Z</time>
      </trkpt>
      <trkpt lat="45.95659" lon="4.7588">
        <ele>184</ele>
        <time>2016-10-02T09:07:25Z</time>
      </trkpt>
      <trkpt lat="45.95662" lon="4.75889">
        <ele>184</ele>
        <time>2016-10-02T09:07:26Z</time>
      </trkpt>
      <trkpt lat="45.95664" lon="4.75897">
        <ele>184</ele>
        <time>2016-10-02T09:07:27Z</time>
      </trkpt>
      <trkpt lat="45.95667" lon="4.75905">
        <ele>185</ele>
        <time>2016-10-02T09:07:28Z</time>
      </trkpt>
      <trkpt lat="45.95671" lon="4.75913">
        <ele>185</ele>
        <time>2016-10-02T09:07:29Z</time>
      </trkpt>
      <trkpt lat="45.95674" lon="4.75921">
        <ele>184</ele>
        <time>2016-10-02T09:07:30Z</time>
      </trkpt>
      <trkpt lat="45.95678" lon="4.75929">
        <ele>185</ele>
        <time>2016-10-02T09:07:31Z</time>
      </trkpt>
      <trkpt lat="45.95682" lon="4.75937">
        <ele>185</ele>
        <time>2016-10-02T09:07:32Z</time>
      </trkpt>
      <trkpt lat="45.95686" lon="4.75945">
        <ele>185</ele>
        <time>2016-10-02T09:07:33Z</time>
      </trkpt>
      <trkpt lat="45.95689" lon="4.75954">
        <ele>185</ele>
        <time>2016-10-02T09:07:34Z</time>
      </trkpt>
      <trkpt lat="45.95692" lon="4.75962">
        <ele>185</ele>
        <time>2016-10-02T09:07:35Z</time>
      </trkpt>
      <trkpt lat="45.95696" lon="4.75969">
        <ele>185</ele>
        <time>2016-10-02T09:07:36Z</time>
      </trkpt>
      <trkpt lat="45.957" lon="4.75976">
        <ele>185</ele>
        <time>2016-10-02T09:07:37Z</time>
      </trkpt>
      <trkpt lat="45.95703" lon="4.75984">
        <ele>185</ele>
        <time>2016-10-02T09:07:38Z</time>
      </trkpt>
      <trkpt lat="45.95707" lon="4.75992">
        <ele>185</ele>
        <time>2016-10-02T09:07:39Z</time>
      </trkpt>
      <trkpt lat="45.95711" lon="4.75999">
        <ele>185</ele>
        <time>2016-10-02T09:07:40Z</time>
      </trkpt>
      <trkpt lat="45.95714" lon="4.76006">
        <ele>184</ele>
        <time>2016-10-02T09:07:41Z</time>
      </trkpt>
      <trkpt lat="45.95717" lon="4.76013">
        <ele>184</ele>
        <time>2016-10-02T09:07:42Z</time>
      </trkpt>
      <trkpt lat="45.95721" lon="4.7602">
        <ele>184</ele>
        <time>2016-10-02T09:07:43Z</time>
      </trkpt>
      <trkpt lat="45.95724" lon="4.76027">
        <ele>184</ele>
        <time>2016-10-02T09:07:44Z</time>
      </trkpt>
      <trkpt lat="45.95727" lon="4.76034">
        <ele>184</ele>
        <time>2016-10-02T09:07:45Z</time>
      </trkpt>
      <trkpt lat="45.95731" lon="4.76041">
        <ele>184</ele>
        <time>2016-10-02T09:07:46Z</time>
      </trkpt>
      <trkpt lat="45.95734" lon="4.76049">
        <ele>184</ele>
        <time>2016-10-02T09:07:47Z</time>
      </trkpt>
      <trkpt lat="45.95737" lon="4.76056">
        <ele>184</ele>
        <time>2016-10-02T09:07:48Z</time>
      </trkpt>
      <trkpt lat="45.9574" lon="4.76064">
        <ele>184</ele>
        <time>2016-10-02T09:07:49Z</time>
      </trkpt>
      <trkpt lat="45.95743" lon="4.76071">
        <ele>185</ele>
        <time>2016-10-02T09:07:50Z</time>
      </trkpt>
      <trkpt lat="45.95746" lon="4.76077">
        <ele>185</ele>
        <time>2016-10-02T09:07:51Z</time>
      </trkpt>
      <trkpt lat="45.95748" lon="4.76082">
        <ele>185</ele>
        <time>2016-10-02T09:07:52Z</time>
      </trkpt>
      <trkpt lat="45.95751" lon="4.76088">
        <ele>185</ele>
        <time>2016-10-02T09:07:53Z</time>
      </trkpt>
      <trkpt lat="45.95753" lon="4.76094">
        <ele>186</ele>
        <time>2016-10-02T09:07:54Z</time>
      </trkpt>
      <trkpt lat="45.95754" lon="4.76101">
        <ele>186</ele>
        <time>2016-10-02T09:07:55Z</time>
      </trkpt>
      <trkpt lat="45.95756" lon="4.76108">
        <ele>186</ele>
        <time>2016-10-02T09:07:56Z</time>
      </trkpt>
      <trkpt lat="45.95757" lon="4.76115">
        <ele>186</ele>
        <time>2016-10-02T09:07:57Z</time>
      </trkpt>
      <trkpt lat="45.95758" lon="4.76123">
        <ele>186</ele>
        <time>2016-10-02T09:07:58Z</time>
      </trkpt>
      <trkpt lat="45.95759" lon="4.76131">
        <ele>186</ele>
        <time>2016-10-02T09:07:59Z</time>
      </trkpt>
      <trkpt lat="45.9576" lon="4.76139">
        <ele>186</ele>
        <time>2016-10-02T09:08:00Z</time>
      </trkpt>
      <trkpt lat="45.95761" lon="4.76147">
        <ele>186</ele>
        <time>2016-10-02T09:08:01Z</time>
      </trkpt>
      <trkpt lat="45.95762" lon="4.76155">
        <ele>186</ele>
        <time>2016-10-02T09:08:02Z</time>
      </trkpt>
      <trkpt lat="45.95763" lon="4.76163">
        <ele>186</ele>
        <time>2016-10-02T09:08:03Z</time>
      </trkpt>
      <trkpt lat="45.95763" lon="4.76171">
        <ele>185</ele>
        <time>2016-10-02T09:08:04Z</time>
      </trkpt>
      <trkpt lat="45.95763" lon="4.76179">
        <ele>186</ele>
        <time>2016-10-02T09:08:05Z</time>
      </trkpt>
      <trkpt lat="45.95763" lon="4.76186">
        <ele>186</ele>
        <time>2016-10-02T09:08:06Z</time>
      </trkpt>
      <trkpt lat="45.95764" lon="4.76194">
        <ele>186</ele>
        <time>2016-10-02T09:08:07Z</time>
      </trkpt>
      <trkpt lat="45.95764" lon="4.762">
        <ele>186</ele>
        <time>2016-10-02T09:08:08Z</time>
      </trkpt>
      <trkpt lat="45.95764" lon="4.76208">
        <ele>186</ele>
        <time>2016-10-02T09:08:09Z</time>
      </trkpt>
      <trkpt lat="45.95765" lon="4.76216">
        <ele>186</ele>
        <time>2016-10-02T09:08:10Z</time>
      </trkpt>
      <trkpt lat="45.95766" lon="4.76224">
        <ele>186</ele>
        <time>2016-10-02T09:08:11Z</time>
      </trkpt>
      <trkpt lat="45.95766" lon="4.76232">
        <ele>186</ele>
        <time>2016-10-02T09:08:12Z</time>
      </trkpt>
      <trkpt lat="45.95767" lon="4.7624">
        <ele>186</ele>
        <time>2016-10-02T09:08:13Z</time>
      </trkpt>
      <trkpt lat="45.95767" lon="4.76248">
        <ele>186</ele>
        <time>2016-10-02T09:08:14Z</time>
      </trkpt>
      <trkpt lat="45.95768" lon="4.76256">
        <ele>185</ele>
        <time>2016-10-02T09:08:15Z</time>
      </trkpt>
      <trkpt lat="45.95768" lon="4.76264">
        <ele>185</ele>
        <time>2016-10-02T09:08:16Z</time>
      </trkpt>
      <trkpt lat="45.95769" lon="4.76271">
        <ele>186</ele>
        <time>2016-10-02T09:08:17Z</time>
      </trkpt>
      <trkpt lat="45.95769" lon="4.76278">
        <ele>186</ele>
        <time>2016-10-02T09:08:18Z</time>
      </trkpt>
      <trkpt lat="45.95769" lon="4.76285">
        <ele>186</ele>
        <time>2016-10-02T09:08:19Z</time>
      </trkpt>
      <trkpt lat="45.95768" lon="4.76293">
        <ele>186</ele>
        <time>2016-10-02T09:08:20Z</time>
      </trkpt>
      <trkpt lat="45.95769" lon="4.76301">
        <ele>186</ele>
        <time>2016-10-02T09:08:21Z</time>
      </trkpt>
      <trkpt lat="45.95769" lon="4.76309">
        <ele>186</ele>
        <time>2016-10-02T09:08:22Z</time>
      </trkpt>
      <trkpt lat="45.95769" lon="4.76318">
        <ele>185</ele>
        <time>2016-10-02T09:08:23Z</time>
      </trkpt>
      <trkpt lat="45.95769" lon="4.76326">
        <ele>185</ele>
        <time>2016-10-02T09:08:24Z</time>
      </trkpt>
      <trkpt lat="45.9577" lon="4.76334">
        <ele>186</ele>
        <time>2016-10-02T09:08:25Z</time>
      </trkpt>
      <trkpt lat="45.9577" lon="4.76342">
        <ele>186</ele>
        <time>2016-10-02T09:08:26Z</time>
      </trkpt>
      <trkpt lat="45.95771" lon="4.7635">
        <ele>186</ele>
        <time>2016-10-02T09:08:27Z</time>
      </trkpt>
      <trkpt lat="45.95771" lon="4.76357">
        <ele>186</ele>
        <time>2016-10-02T09:08:28Z</time>
      </trkpt>
      <trkpt lat="45.95772" lon="4.76365">
        <ele>186</ele>
        <time>2016-10-02T09:08:29Z</time>
      </trkpt>
      <trkpt lat="45.95773" lon="4.76373">
        <ele>186</ele>
        <time>2016-10-02T09:08:30Z</time>
      </trkpt>
      <trkpt lat="45.95773" lon="4.76381">
        <ele>186</ele>
        <time>2016-10-02T09:08:31Z</time>
      </trkpt>
      <trkpt lat="45.95774" lon="4.76389">
        <ele>186</ele>
        <time>2016-10-02T09:08:32Z</time>
      </trkpt>
      <trkpt lat="45.95775" lon="4.76396">
        <ele>186</ele>
        <time>2016-10-02T09:08:33Z</time>
      </trkpt>
      <trkpt lat="45.95776" lon="4.76405">
        <ele>186</ele>
        <time>2016-10-02T09:08:34Z</time>
      </trkpt>
      <trkpt lat="45.95776" lon="4.76414">
        <ele>186</ele>
        <time>2016-10-02T09:08:35Z</time>
      </trkpt>
      <trkpt lat="45.95776" lon="4.76422">
        <ele>186</ele>
        <time>2016-10-02T09:08:36Z</time>
      </trkpt>
      <trkpt lat="45.95778" lon="4.7643">
        <ele>186</ele>
        <time>2016-10-02T09:08:37Z</time>
      </trkpt>
      <trkpt lat="45.95779" lon="4.76438">
        <ele>186</ele>
        <time>2016-10-02T09:08:38Z</time>
      </trkpt>
      <trkpt lat="45.9578" lon="4.76446">
        <ele>186</ele>
        <time>2016-10-02T09:08:39Z</time>
      </trkpt>
      <trkpt lat="45.95781" lon="4.76455">
        <ele>186</ele>
        <time>2016-10-02T09:08:40Z</time>
      </trkpt>
      <trkpt lat="45.95782" lon="4.76462">
        <ele>186</ele>
        <time>2016-10-02T09:08:41Z</time>
      </trkpt>
      <trkpt lat="45.95783" lon="4.7647">
        <ele>186</ele>
        <time>2016-10-02T09:08:42Z</time>
      </trkpt>
      <trkpt lat="45.95784" lon="4.76477">
        <ele>186</ele>
        <time>2016-10-02T09:08:43Z</time>
      </trkpt>
      <trkpt lat="45.95785" lon="4.76485">
        <ele>186</ele>
        <time>2016-10-02T09:08:44Z</time>
      </trkpt>
      <trkpt lat="45.95786" lon="4.76492">
        <ele>186</ele>
        <time>2016-10-02T09:08:45Z</time>
      </trkpt>
      <trkpt lat="45.95787" lon="4.76499">
        <ele>186</ele>
        <time>2016-10-02T09:08:46Z</time>
      </trkpt>
      <trkpt lat="45.95788" lon="4.76506">
        <ele>187</ele>
        <time>2016-10-02T09:08:47Z</time>
      </trkpt>
      <trkpt lat="45.95789" lon="4.76513">
        <ele>187</ele>
        <time>2016-10-02T09:08:48Z</time>
      </trkpt>
      <trkpt lat="45.9579" lon="4.76519">
        <ele>187</ele>
        <time>2016-10-02T09:08:49Z</time>
      </trkpt>
      <trkpt lat="45.9579" lon="4.76527">
        <ele>187</ele>
        <time>2016-10-02T09:08:50Z</time>
      </trkpt>
      <trkpt lat="45.95792" lon="4.76534">
        <ele>187</ele>
        <time>2016-10-02T09:08:51Z</time>
      </trkpt>
      <trkpt lat="45.95793" lon="4.76542">
        <ele>187</ele>
        <time>2016-10-02T09:08:52Z</time>
      </trkpt>
      <trkpt lat="45.95795" lon="4.76549">
        <ele>187</ele>
        <time>2016-10-02T09:08:53Z</time>
      </trkpt>
      <trkpt lat="45.95796" lon="4.76557">
        <ele>187</ele>
        <time>2016-10-02T09:08:54Z</time>
      </trkpt>
      <trkpt lat="45.95797" lon="4.76565">
        <ele>187</ele>
        <time>2016-10-02T09:08:55Z</time>
      </trkpt>
      <trkpt lat="45.95798" lon="4.76572">
        <ele>187</ele>
        <time>2016-10-02T09:08:56Z</time>
      </trkpt>
      <trkpt lat="45.95799" lon="4.7658">
        <ele>187</ele>
        <time>2016-10-02T09:08:57Z</time>
      </trkpt>
      <trkpt lat="45.958" lon="4.76587">
        <ele>187</ele>
        <time>2016-10-02T09:08:58Z</time>
      </trkpt>
      <trkpt lat="45.95801" lon="4.76594">
        <ele>187</ele>
        <time>2016-10-02T09:08:59Z</time>
      </trkpt>
      <trkpt lat="45.95802" lon="4.76602">
        <ele>187</ele>
        <time>2016-10-02T09:09:00Z</time>
      </trkpt>
      <trkpt lat="45.95804" lon="4.76609">
        <ele>188</ele>
        <time>2016-10-02T09:09:01Z</time>
      </trkpt>
      <trkpt lat="45.95805" lon="4.76616">
        <ele>188</ele>
        <time>2016-10-02T09:09:02Z</time>
      </trkpt>
      <trkpt lat="45.95806" lon="4.76623">
        <ele>188</ele>
        <time>2016-10-02T09:09:03Z</time>
      </trkpt>
      <trkpt lat="45.95807" lon="4.76631">
        <ele>188</ele>
        <time>2016-10-02T09:09:04Z</time>
      </trkpt>
      <trkpt lat="45.95809" lon="4.76639">
        <ele>188</ele>
        <time>2016-10-02T09:09:05Z</time>
      </trkpt>
      <trkpt lat="45.9581" lon="4.76647">
        <ele>188</ele>
        <time>2016-10-02T09:09:06Z</time>
      </trkpt>
      <trkpt lat="45.95811" lon="4.76654">
        <ele>188</ele>
        <time>2016-10-02T09:09:07Z</time>
      </trkpt>
      <trkpt lat="45.95812" lon="4.76661">
        <ele>188</ele>
        <time>2016-10-02T09:09:08Z</time>
      </trkpt>
      <trkpt lat="45.95813" lon="4.76668">
        <ele>189</ele>
        <time>2016-10-02T09:09:09Z</time>
      </trkpt>
      <trkpt lat="45.95814" lon="4.76676">
        <ele>189</ele>
        <time>2016-10-02T09:09:10Z</time>
      </trkpt>
      <trkpt lat="45.95815" lon="4.76683">
        <ele>189</ele>
        <time>2016-10-02T09:09:11Z</time>
      </trkpt>
      <trkpt lat="45.95817" lon="4.7669">
        <ele>189</ele>
        <time>2016-10-02T09:09:12Z</time>
      </trkpt>
      <trkpt lat="45.95818" lon="4.76697">
        <ele>189</ele>
        <time>2016-10-02T09:09:13Z</time>
      </trkpt>
      <trkpt lat="45.95819" lon="4.76704">
        <ele>189</ele>
        <time>2016-10-02T09:09:14Z</time>
      </trkpt>
      <trkpt lat="45.9582" lon="4.76711">
        <ele>189</ele>
        <time>2016-10-02T09:09:15Z</time>
      </trkpt>
      <trkpt lat="45.95821" lon="4.76718">
        <ele>189</ele>
        <time>2016-10-02T09:09:16Z</time>
      </trkpt>
      <trkpt lat="45.95822" lon="4.76726">
        <ele>190</ele>
        <time>2016-10-02T09:09:17Z</time>
      </trkpt>
      <trkpt lat="45.95823" lon="4.76734">
        <ele>190</ele>
        <time>2016-10-02T09:09:18Z</time>
      </trkpt>
      <trkpt lat="45.95824" lon="4.76743">
        <ele>190</ele>
        <time>2016-10-02T09:09:19Z</time>
      </trkpt>
      <trkpt lat="45.95826" lon="4.76751">
        <ele>191</ele>
        <time>2016-10-02T09:09:20Z</time>
      </trkpt>
      <trkpt lat="45.95827" lon="4.76759">
        <ele>191</ele>
        <time>2016-10-02T09:09:21Z</time>
      </trkpt>
      <trkpt lat="45.95828" lon="4.76765">
        <ele>190</ele>
        <time>2016-10-02T09:09:22Z</time>
      </trkpt>
      <trkpt lat="45.95829" lon="4.76771">
        <ele>190</ele>
        <time>2016-10-02T09:09:23Z</time>
      </trkpt>
      <trkpt lat="45.9583" lon="4.76784">
        <ele>190</ele>
        <time>2016-10-02T09:09:25Z</time>
      </trkpt>
      <trkpt lat="45.95831" lon="4.76791">
        <ele>190</ele>
        <time>2016-10-02T09:09:26Z</time>
      </trkpt>
      <trkpt lat="45.95832" lon="4.76798">
        <ele>190</ele>
        <time>2016-10-02T09:09:27Z</time>
      </trkpt>
      <trkpt lat="45.95832" lon="4.76805">
        <ele>190</ele>
        <time>2016-10-02T09:09:28Z</time>
      </trkpt>
      <trkpt lat="45.95832" lon="4.76813">
        <ele>190</ele>
        <time>2016-10-02T09:09:29Z</time>
      </trkpt>
      <trkpt lat="45.95832" lon="4.76821">
        <ele>190</ele>
        <time>2016-10-02T09:09:30Z</time>
      </trkpt>
      <trkpt lat="45.9583" lon="4.76829">
        <ele>190</ele>
        <time>2016-10-02T09:09:31Z</time>
      </trkpt>
      <trkpt lat="45.95829" lon="4.76837">
        <ele>190</ele>
        <time>2016-10-02T09:09:32Z</time>
      </trkpt>
      <trkpt lat="45.95828" lon="4.76846">
        <ele>190</ele>
        <time>2016-10-02T09:09:33Z</time>
      </trkpt>
      <trkpt lat="45.95827" lon="4.76854">
        <ele>189</ele>
        <time>2016-10-02T09:09:34Z</time>
      </trkpt>
      <trkpt lat="45.95825" lon="4.76862">
        <ele>189</ele>
        <time>2016-10-02T09:09:35Z</time>
      </trkpt>
      <trkpt lat="45.95823" lon="4.7687">
        <ele>189</ele>
        <time>2016-10-02T09:09:36Z</time>
      </trkpt>
      <trkpt lat="45.95822" lon="4.76879">
        <ele>189</ele>
        <time>2016-10-02T09:09:37Z</time>
      </trkpt>
      <trkpt lat="45.95821" lon="4.76887">
        <ele>189</ele>
        <time>2016-10-02T09:09:38Z</time>
      </trkpt>
      <trkpt lat="45.95819" lon="4.76895">
        <ele>189</ele>
        <time>2016-10-02T09:09:39Z</time>
      </trkpt>
      <trkpt lat="45.95818" lon="4.76903">
        <ele>189</ele>
        <time>2016-10-02T09:09:40Z</time>
      </trkpt>
      <trkpt lat="45.95816" lon="4.7691">
        <ele>189</ele>
        <time>2016-10-02T09:09:41Z</time>
      </trkpt>
      <trkpt lat="45.95814" lon="4.76918">
        <ele>189</ele>
        <time>2016-10-02T09:09:42Z</time>
      </trkpt>
      <trkpt lat="45.95812" lon="4.76925">
        <ele>189</ele>
        <time>2016-10-02T09:09:43Z</time>
      </trkpt>
      <trkpt lat="45.9581" lon="4.76932">
        <ele>189</ele>
        <time>2016-10-02T09:09:44Z</time>
      </trkpt>
      <trkpt lat="45.95808" lon="4.7694">
        <ele>189</ele>
        <time>2016-10-02T09:09:45Z</time>
      </trkpt>
      <trkpt lat="45.95807" lon="4.76948">
        <ele>189</ele>
        <time>2016-10-02T09:09:46Z</time>
      </trkpt>
      <trkpt lat="45.95806" lon="4.76957">
        <ele>189</ele>
        <time>2016-10-02T09:09:47Z</time>
      </trkpt>
      <trkpt lat="45.95805" lon="4.76965">
        <ele>189</ele>
        <time>2016-10-02T09:09:48Z</time>
      </trkpt>
      <trkpt lat="45.95804" lon="4.76974">
        <ele>189</ele>
        <time>2016-10-02T09:09:49Z</time>
      </trkpt>
      <trkpt lat="45.95804" lon="4.76982">
        <ele>189</ele>
        <time>2016-10-02T09:09:50Z</time>
      </trkpt>
      <trkpt lat="45.95803" lon="4.76989">
        <ele>189</ele>
        <time>2016-10-02T09:09:51Z</time>
      </trkpt>
      <trkpt lat="45.95803" lon="4.76998">
        <ele>190</ele>
        <time>2016-10-02T09:09:52Z</time>
      </trkpt>
      <trkpt lat="45.95804" lon="4.77005">
        <ele>190</ele>
        <time>2016-10-02T09:09:53Z</time>
      </trkpt>
      <trkpt lat="45.95805" lon="4.77013">
        <ele>190</ele>
        <time>2016-10-02T09:09:54Z</time>
      </trkpt>
      <trkpt lat="45.95807" lon="4.77021">
        <ele>190</ele>
        <time>2016-10-02T09:09:55Z</time>
      </trkpt>
      <trkpt lat="45.95809" lon="4.77028">
        <ele>190</ele>
        <time>2016-10-02T09:09:56Z</time>
      </trkpt>
      <trkpt lat="45.95812" lon="4.77036">
        <ele>190</ele>
        <time>2016-10-02T09:09:57Z</time>
      </trkpt>
      <trkpt lat="45.95815" lon="4.77043">
        <ele>190</ele>
        <time>2016-10-02T09:09:58Z</time>
      </trkpt>
      <trkpt lat="45.95818" lon="4.77051">
        <ele>190</ele>
        <time>2016-10-02T09:09:59Z</time>
      </trkpt>
      <trkpt lat="45.95821" lon="4.77058">
        <ele>190</ele>
        <time>2016-10-02T09:10:00Z</time>
      </trkpt>
      <trkpt lat="45.95824" lon="4.77065">
        <ele>191</ele>
        <time>2016-10-02T09:10:01Z</time>
      </trkpt>
      <trkpt lat="45.95827" lon="4.77072">
        <ele>191</ele>
        <time>2016-10-02T09:10:02Z</time>
      </trkpt>
      <trkpt lat="45.9583" lon="4.7708">
        <ele>192</ele>
        <time>2016-10-02T09:10:03Z</time>
      </trkpt>
      <trkpt lat="45.95833" lon="4.77087">
        <ele>192</ele>
        <time>2016-10-02T09:10:04Z</time>
      </trkpt>
      <trkpt lat="45.95836" lon="4.77095">
        <ele>193</ele>
        <time>2016-10-02T09:10:05Z</time>
      </trkpt>
      <trkpt lat="45.95838" lon="4.77104">
        <ele>193</ele>
        <time>2016-10-02T09:10:06Z</time>
      </trkpt>
      <trkpt lat="45.9584" lon="4.77112">
        <ele>193</ele>
        <time>2016-10-02T09:10:07Z</time>
      </trkpt>
      <trkpt lat="45.95842" lon="4.77119">
        <ele>193</ele>
        <time>2016-10-02T09:10:08Z</time>
      </trkpt>
      <trkpt lat="45.95845" lon="4.77126">
        <ele>193</ele>
        <time>2016-10-02T09:10:09Z</time>
      </trkpt>
      <trkpt lat="45.95847" lon="4.77133">
        <ele>193</ele>
        <time>2016-10-02T09:10:10Z</time>
      </trkpt>
      <trkpt lat="45.95849" lon="4.7714">
        <ele>193</ele>
        <time>2016-10-02T09:10:11Z</time>
      </trkpt>
      <trkpt lat="45.95851" lon="4.77147">
        <ele>192</ele>
        <time>2016-10-02T09:10:12Z</time>
      </trkpt>
      <trkpt lat="45.95853" lon="4.77155">
        <ele>192</ele>
        <time>2016-10-02T09:10:13Z</time>
      </trkpt>
      <trkpt lat="45.95855" lon="4.77162">
        <ele>192</ele>
        <time>2016-10-02T09:10:14Z</time>
      </trkpt>
      <trkpt lat="45.95856" lon="4.77169">
        <ele>192</ele>
        <time>2016-10-02T09:10:15Z</time>
      </trkpt>
      <trkpt lat="45.95858" lon="4.77176">
        <ele>192</ele>
        <time>2016-10-02T09:10:16Z</time>
      </trkpt>
      <trkpt lat="45.9586" lon="4.77183">
        <ele>192</ele>
        <time>2016-10-02T09:10:17Z</time>
      </trkpt>
      <trkpt lat="45.95862" lon="4.77191">
        <ele>192</ele>
        <time>2016-10-02T09:10:18Z</time>
      </trkpt>
      <trkpt lat="45.95864" lon="4.77198">
        <ele>193</ele>
        <time>2016-10-02T09:10:19Z</time>
      </trkpt>
      <trkpt lat="45.95866" lon="4.77205">
        <ele>193</ele>
        <time>2016-10-02T09:10:20Z</time>
      </trkpt>
      <trkpt lat="45.95867" lon="4.77213">
        <ele>193</ele>
        <time>2016-10-02T09:10:21Z</time>
      </trkpt>
      <trkpt lat="45.95869" lon="4.7722">
        <ele>193</ele>
        <time>2016-10-02T09:10:22Z</time>
      </trkpt>
      <trkpt lat="45.95871" lon="4.77226">
        <ele>193</ele>
        <time>2016-10-02T09:10:23Z</time>
      </trkpt>
      <trkpt lat="45.95873" lon="4.77234">
        <ele>193</ele>
        <time>2016-10-02T09:10:24Z</time>
      </trkpt>
      <trkpt lat="45.95875" lon="4.77241">
        <ele>193</ele>
        <time>2016-10-02T09:10:25Z</time>
      </trkpt>
      <trkpt lat="45.95876" lon="4.77249">
        <ele>193</ele>
        <time>2016-10-02T09:10:26Z</time>
      </trkpt>
      <trkpt lat="45.95878" lon="4.77258">
        <ele>193</ele>
        <time>2016-10-02T09:10:27Z</time>
      </trkpt>
      <trkpt lat="45.95879" lon="4.77266">
        <ele>193</ele>
        <time>2016-10-02T09:10:28Z</time>
      </trkpt>
      <trkpt lat="45.9588" lon="4.77274">
        <ele>193</ele>
        <time>2016-10-02T09:10:29Z</time>
      </trkpt>
      <trkpt lat="45.95882" lon="4.77282">
        <ele>193</ele>
        <time>2016-10-02T09:10:30Z</time>
      </trkpt>
      <trkpt lat="45.95884" lon="4.7729">
        <ele>193</ele>
        <time>2016-10-02T09:10:31Z</time>
      </trkpt>
      <trkpt lat="45.95885" lon="4.77298">
        <ele>193</ele>
        <time>2016-10-02T09:10:32Z</time>
      </trkpt>
      <trkpt lat="45.95887" lon="4.77305">
        <ele>193</ele>
        <time>2016-10-02T09:10:33Z</time>
      </trkpt>
      <trkpt lat="45.95889" lon="4.77313">
        <ele>193</ele>
        <time>2016-10-02T09:10:34Z</time>
      </trkpt>
      <trkpt lat="45.95891" lon="4.7732">
        <ele>193</ele>
        <time>2016-10-02T09:10:35Z</time>
      </trkpt>
      <trkpt lat="45.95893" lon="4.77327">
        <ele>193</ele>
        <time>2016-10-02T09:10:36Z</time>
      </trkpt>
      <trkpt lat="45.95896" lon="4.77333">
        <ele>193</ele>
        <time>2016-10-02T09:10:37Z</time>
      </trkpt>
      <trkpt lat="45.95899" lon="4.7734">
        <ele>193</ele>
        <time>2016-10-02T09:10:38Z</time>
      </trkpt>
      <trkpt lat="45.95901" lon="4.77347">
        <ele>193</ele>
        <time>2016-10-02T09:10:39Z</time>
      </trkpt>
      <trkpt lat="45.95904" lon="4.77354">
        <ele>193</ele>
        <time>2016-10-02T09:10:40Z</time>
      </trkpt>
      <trkpt lat="45.95906" lon="4.77362">
        <ele>193</ele>
        <time>2016-10-02T09:10:41Z</time>
      </trkpt>
      <trkpt lat="45.95909" lon="4.7737">
        <ele>193</ele>
        <time>2016-10-02T09:10:42Z</time>
      </trkpt>
      <trkpt lat="45.95911" lon="4.77377">
        <ele>193</ele>
        <time>2016-10-02T09:10:43Z</time>
      </trkpt>
      <trkpt lat="45.95915" lon="4.77384">
        <ele>193</ele>
        <time>2016-10-02T09:10:44Z</time>
      </trkpt>
      <trkpt lat="45.95918" lon="4.77392">
        <ele>196</ele>
        <time>2016-10-02T09:10:45Z</time>
      </trkpt>
      <trkpt lat="45.9592" lon="4.774">
        <ele>196</ele>
        <time>2016-10-02T09:10:46Z</time>
      </trkpt>
      <trkpt lat="45.95923" lon="4.77407">
        <ele>195</ele>
        <time>2016-10-02T09:10:47Z</time>
      </trkpt>
      <trkpt lat="45.95926" lon="4.77414">
        <ele>195</ele>
        <time>2016-10-02T09:10:48Z</time>
      </trkpt>
      <trkpt lat="45.95928" lon="4.77422">
        <ele>195</ele>
        <time>2016-10-02T09:10:49Z</time>
      </trkpt>
      <trkpt lat="45.9593" lon="4.77429">
        <ele>195</ele>
        <time>2016-10-02T09:10:50Z</time>
      </trkpt>
      <trkpt lat="45.95932" lon="4.77436">
        <ele>195</ele>
        <time>2016-10-02T09:10:51Z</time>
      </trkpt>
      <trkpt lat="45.95934" lon="4.77442">
        <ele>195</ele>
        <time>2016-10-02T09:10:52Z</time>
      </trkpt>
      <trkpt lat="45.95937" lon="4.77449">
        <ele>195</ele>
        <time>2016-10-02T09:10:53Z</time>
      </trkpt>
      <trkpt lat="45.95939" lon="4.77455">
        <ele>195</ele>
        <time>2016-10-02T09:10:54Z</time>
      </trkpt>
      <trkpt lat="45.95942" lon="4.77462">
        <ele>195</ele>
        <time>2016-10-02T09:10:55Z</time>
      </trkpt>
      <trkpt lat="45.95944" lon="4.77469">
        <ele>195</ele>
        <time>2016-10-02T09:10:56Z</time>
      </trkpt>
      <trkpt lat="45.95947" lon="4.77476">
        <ele>195</ele>
        <time>2016-10-02T09:10:57Z</time>
      </trkpt>
      <trkpt lat="45.9595" lon="4.77482">
        <ele>195</ele>
        <time>2016-10-02T09:10:58Z</time>
      </trkpt>
      <trkpt lat="45.95952" lon="4.77488">
        <ele>196</ele>
        <time>2016-10-02T09:10:59Z</time>
      </trkpt>
      <trkpt lat="45.95955" lon="4.77495">
        <ele>196</ele>
        <time>2016-10-02T09:11:00Z</time>
      </trkpt>
      <trkpt lat="45.95957" lon="4.77501">
        <ele>195</ele>
        <time>2016-10-02T09:11:01Z</time>
      </trkpt>
      <trkpt lat="45.9596" lon="4.77508">
        <ele>195</ele>
        <time>2016-10-02T09:11:02Z</time>
      </trkpt>
      <trkpt lat="45.95962" lon="4.77514">
        <ele>195</ele>
        <time>2016-10-02T09:11:03Z</time>
      </trkpt>
      <trkpt lat="45.95965" lon="4.7752">
        <ele>195</ele>
        <time>2016-10-02T09:11:04Z</time>
      </trkpt>
      <trkpt lat="45.95968" lon="4.77527">
        <ele>195</ele>
        <time>2016-10-02T09:11:05Z</time>
      </trkpt>
      <trkpt lat="45.95969" lon="4.77535">
        <ele>195</ele>
        <time>2016-10-02T09:11:06Z</time>
      </trkpt>
      <trkpt lat="45.9597" lon="4.77544">
        <ele>195</ele>
        <time>2016-10-02T09:11:07Z</time>
      </trkpt>
      <trkpt lat="45.95972" lon="4.77549">
        <ele>195</ele>
        <time>2016-10-02T09:11:08Z</time>
      </trkpt>
      <trkpt lat="45.95974" lon="4.77554">
        <ele>195</ele>
        <time>2016-10-02T09:11:09Z</time>
      </trkpt>
      <trkpt lat="45.95976" lon="4.77563">
        <ele>195</ele>
        <time>2016-10-02T09:11:10Z</time>
      </trkpt>
      <trkpt lat="45.95981" lon="4.77572">
        <ele>196</ele>
        <time>2016-10-02T09:11:12Z</time>
      </trkpt>
      <trkpt lat="45.95983" lon="4.77572">
        <ele>196</ele>
        <time>2016-10-02T09:11:13Z</time>
      </trkpt>
      <trkpt lat="45.95986" lon="4.77583">
        <ele>196</ele>
        <time>2016-10-02T09:11:14Z</time>
      </trkpt>
      <trkpt lat="45.9599" lon="4.77586">
        <ele>196</ele>
        <time>2016-10-02T09:11:15Z</time>
      </trkpt>
      <trkpt lat="45.95995" lon="4.77593">
        <ele>196</ele>
        <time>2016-10-02T09:11:16Z</time>
      </trkpt>
      <trkpt lat="45.95998" lon="4.77602">
        <ele>195</ele>
        <time>2016-10-02T09:11:17Z</time>
      </trkpt>
      <trkpt lat="45.96001" lon="4.77607">
        <ele>198</ele>
        <time>2016-10-02T09:11:18Z</time>
      </trkpt>
      <trkpt lat="45.96005" lon="4.77612">
        <ele>199</ele>
        <time>2016-10-02T09:11:19Z</time>
      </trkpt>
      <trkpt lat="45.96009" lon="4.77616">
        <ele>199</ele>
        <time>2016-10-02T09:11:20Z</time>
      </trkpt>
      <trkpt lat="45.96013" lon="4.7762">
        <ele>199</ele>
        <time>2016-10-02T09:11:21Z</time>
      </trkpt>
      <trkpt lat="45.96017" lon="4.77623">
        <ele>199</ele>
        <time>2016-10-02T09:11:22Z</time>
      </trkpt>
      <trkpt lat="45.96021" lon="4.77627">
        <ele>199</ele>
        <time>2016-10-02T09:11:23Z</time>
      </trkpt>
      <trkpt lat="45.96025" lon="4.77633">
        <ele>199</ele>
        <time>2016-10-02T09:11:24Z</time>
      </trkpt>
      <trkpt lat="45.96029" lon="4.77636">
        <ele>199</ele>
        <time>2016-10-02T09:11:25Z</time>
      </trkpt>
      <trkpt lat="45.96037" lon="4.77639">
        <ele>199</ele>
        <time>2016-10-02T09:11:27Z</time>
      </trkpt>
      <trkpt lat="45.96041" lon="4.77639">
        <ele>199</ele>
        <time>2016-10-02T09:11:28Z</time>
      </trkpt>
      <trkpt lat="45.96048" lon="4.77642">
        <ele>200</ele>
        <time>2016-10-02T09:11:30Z</time>
      </trkpt>
      <trkpt lat="45.96051" lon="4.77646">
        <ele>200</ele>
        <time>2016-10-02T09:11:31Z</time>
      </trkpt>
      <trkpt lat="45.96054" lon="4.77655">
        <ele>200</ele>
        <time>2016-10-02T09:11:32Z</time>
      </trkpt>
      <trkpt lat="45.96058" lon="4.77658">
        <ele>200</ele>
        <time>2016-10-02T09:11:33Z</time>
      </trkpt>
      <trkpt lat="45.96061" lon="4.77666">
        <ele>200</ele>
        <time>2016-10-02T09:11:34Z</time>
      </trkpt>
      <trkpt lat="45.96065" lon="4.77672">
        <ele>198</ele>
        <time>2016-10-02T09:11:35Z</time>
      </trkpt>
      <trkpt lat="45.96069" lon="4.77676">
        <ele>198</ele>
        <time>2016-10-02T09:11:36Z</time>
      </trkpt>
      <trkpt lat="45.96072" lon="4.77682">
        <ele>198</ele>
        <time>2016-10-02T09:11:37Z</time>
      </trkpt>
      <trkpt lat="45.96075" lon="4.7769">
        <ele>198</ele>
        <time>2016-10-02T09:11:38Z</time>
      </trkpt>
      <trkpt lat="45.96077" lon="4.77698">
        <ele>197</ele>
        <time>2016-10-02T09:11:39Z</time>
      </trkpt>
      <trkpt lat="45.9608" lon="4.77705">
        <ele>197</ele>
        <time>2016-10-02T09:11:40Z</time>
      </trkpt>
      <trkpt lat="45.96084" lon="4.7771">
        <ele>200</ele>
        <time>2016-10-02T09:11:41Z</time>
      </trkpt>
      <trkpt lat="45.96086" lon="4.77715">
        <ele>199</ele>
        <time>2016-10-02T09:11:42Z</time>
      </trkpt>
      <trkpt lat="45.96089" lon="4.77722">
        <ele>199</ele>
        <time>2016-10-02T09:11:43Z</time>
      </trkpt>
      <trkpt lat="45.96092" lon="4.77727">
        <ele>199</ele>
        <time>2016-10-02T09:11:44Z</time>
      </trkpt>
      <trkpt lat="45.96095" lon="4.77734">
        <ele>198</ele>
        <time>2016-10-02T09:11:45Z</time>
      </trkpt>
      <trkpt lat="45.96099" lon="4.77739">
        <ele>198</ele>
        <time>2016-10-02T09:11:46Z</time>
      </trkpt>
      <trkpt lat="45.96102" lon="4.77744">
        <ele>198</ele>
        <time>2016-10-02T09:11:47Z</time>
      </trkpt>
      <trkpt lat="45.96106" lon="4.77749">
        <ele>198</ele>
        <time>2016-10-02T09:11:48Z</time>
      </trkpt>
      <trkpt lat="45.96108" lon="4.77754">
        <ele>197</ele>
        <time>2016-10-02T09:11:49Z</time>
      </trkpt>
      <trkpt lat="45.96112" lon="4.7776">
        <ele>197</ele>
        <time>2016-10-02T09:11:50Z</time>
      </trkpt>
      <trkpt lat="45.96115" lon="4.77766">
        <ele>197</ele>
        <time>2016-10-02T09:11:51Z</time>
      </trkpt>
      <trkpt lat="45.96119" lon="4.77772">
        <ele>197</ele>
        <time>2016-10-02T09:11:52Z</time>
      </trkpt>
      <trkpt lat="45.96122" lon="4.77778">
        <ele>197</ele>
        <time>2016-10-02T09:11:53Z</time>
      </trkpt>
      <trkpt lat="45.96125" lon="4.77784">
        <ele>197</ele>
        <time>2016-10-02T09:11:54Z</time>
      </trkpt>
      <trkpt lat="45.96129" lon="4.77789">
        <ele>197</ele>
        <time>2016-10-02T09:11:55Z</time>
      </trkpt>
      <trkpt lat="45.96135" lon="4.77798">
        <ele>198</ele>
        <time>2016-10-02T09:11:57Z</time>
      </trkpt>
      <trkpt lat="45.96138" lon="4.77803">
        <ele>198</ele>
        <time>2016-10-02T09:11:58Z</time>
      </trkpt>
      <trkpt lat="45.96141" lon="4.77808">
        <ele>198</ele>
        <time>2016-10-02T09:11:59Z</time>
      </trkpt>
      <trkpt lat="45.96144" lon="4.77813">
        <ele>198</ele>
        <time>2016-10-02T09:12:00Z</time>
      </trkpt>
      <trkpt lat="45.96147" lon="4.77818">
        <ele>198</ele>
        <time>2016-10-02T09:12:01Z</time>
      </trkpt>
      <trkpt lat="45.9615" lon="4.77824">
        <ele>198</ele>
        <time>2016-10-02T09:12:02Z</time>
      </trkpt>
      <trkpt lat="45.96152" lon="4.7783">
        <ele>198</ele>
        <time>2016-10-02T09:12:03Z</time>
      </trkpt>
      <trkpt lat="45.96156" lon="4.77837">
        <ele>197</ele>
        <time>2016-10-02T09:12:04Z</time>
      </trkpt>
      <trkpt lat="45.9616" lon="4.77843">
        <ele>197</ele>
        <time>2016-10-02T09:12:05Z</time>
      </trkpt>
      <trkpt lat="45.96164" lon="4.77849">
        <ele>197</ele>
        <time>2016-10-02T09:12:06Z</time>
      </trkpt>
      <trkpt lat="45.96168" lon="4.77855">
        <ele>201</ele>
        <time>2016-10-02T09:12:07Z</time>
      </trkpt>
      <trkpt lat="45.96172" lon="4.77861">
        <ele>201</ele>
        <time>2016-10-02T09:12:08Z</time>
      </trkpt>
      <trkpt lat="45.96175" lon="4.77867">
        <ele>201</ele>
        <time>2016-10-02T09:12:09Z</time>
      </trkpt>
      <trkpt lat="45.96178" lon="4.77873">
        <ele>201</ele>
        <time>2016-10-02T09:12:10Z</time>
      </trkpt>
      <trkpt lat="45.96182" lon="4.77878">
        <ele>201</ele>
        <time>2016-10-02T09:12:11Z</time>
      </trkpt>
      <trkpt lat="45.96185" lon="4.77884">
        <ele>201</ele>
        <time>2016-10-02T09:12:12Z</time>
      </trkpt>
      <trkpt lat="45.96188" lon="4.77891">
        <ele>201</ele>
        <time>2016-10-02T09:12:13Z</time>
      </trkpt>
      <trkpt lat="45.96191" lon="4.77897">
        <ele>201</ele>
        <time>2016-10-02T09:12:14Z</time>
      </trkpt>
      <trkpt lat="45.96194" lon="4.77902">
        <ele>201</ele>
        <time>2016-10-02T09:12:15Z</time>
      </trkpt>
      <trkpt lat="45.96198" lon="4.77908">
        <ele>201</ele>
        <time>2016-10-02T09:12:16Z</time>
      </trkpt>
      <trkpt lat="45.96202" lon="4.77914">
        <ele>201</ele>
        <time>2016-10-02T09:12:17Z</time>
      </trkpt>
      <trkpt lat="45.96205" lon="4.7792">
        <ele>199</ele>
        <time>2016-10-02T09:12:18Z</time>
      </trkpt>
      <trkpt lat="45.96208" lon="4.77927">
        <ele>199</ele>
        <time>2016-10-02T09:12:19Z</time>
      </trkpt>
      <trkpt lat="45.96213" lon="4.77933">
        <ele>199</ele>
        <time>2016-10-02T09:12:20Z</time>
      </trkpt>
      <trkpt lat="45.96217" lon="4.77939">
        <ele>199</ele>
        <time>2016-10-02T09:12:21Z</time>
      </trkpt>
      <trkpt lat="45.96221" lon="4.77944">
        <ele>199</ele>
        <time>2016-10-02T09:12:22Z</time>
      </trkpt>
      <trkpt lat="45.96225" lon="4.7795">
        <ele>199</ele>
        <time>2016-10-02T09:12:23Z</time>
      </trkpt>
      <trkpt lat="45.96229" lon="4.77955">
        <ele>199</ele>
        <time>2016-10-02T09:12:24Z</time>
      </trkpt>
      <trkpt lat="45.96233" lon="4.77959">
        <ele>199</ele>
        <time>2016-10-02T09:12:25Z</time>
      </trkpt>
      <trkpt lat="45.96237" lon="4.77964">
        <ele>199</ele>
        <time>2016-10-02T09:12:26Z</time>
      </trkpt>
      <trkpt lat="45.96241" lon="4.77969">
        <ele>198</ele>
        <time>2016-10-02T09:12:27Z</time>
      </trkpt>
      <trkpt lat="45.96246" lon="4.77974">
        <ele>198</ele>
        <time>2016-10-02T09:12:28Z</time>
      </trkpt>
      <trkpt lat="45.96251" lon="4.7798">
        <ele>202</ele>
        <time>2016-10-02T09:12:29Z</time>
      </trkpt>
      <trkpt lat="45.96256" lon="4.77985">
        <ele>201</ele>
        <time>2016-10-02T09:12:30Z</time>
      </trkpt>
      <trkpt lat="45.96261" lon="4.7799">
        <ele>201</ele>
        <time>2016-10-02T09:12:31Z</time>
      </trkpt>
      <trkpt lat="45.96265" lon="4.77995">
        <ele>201</ele>
        <time>2016-10-02T09:12:32Z</time>
      </trkpt>
      <trkpt lat="45.9627" lon="4.77999">
        <ele>201</ele>
        <time>2016-10-02T09:12:33Z</time>
      </trkpt>
      <trkpt lat="45.96275" lon="4.78004">
        <ele>198</ele>
        <time>2016-10-02T09:12:34Z</time>
      </trkpt>
      <trkpt lat="45.9628" lon="4.7801">
        <ele>198</ele>
        <time>2016-10-02T09:12:35Z</time>
      </trkpt>
      <trkpt lat="45.96284" lon="4.78014">
        <ele>198</ele>
        <time>2016-10-02T09:12:36Z</time>
      </trkpt>
      <trkpt lat="45.96289" lon="4.78018">
        <ele>199</ele>
        <time>2016-10-02T09:12:37Z</time>
      </trkpt>
      <trkpt lat="45.96293" lon="4.78022">
        <ele>199</ele>
        <time>2016-10-02T09:12:38Z</time>
      </trkpt>
      <trkpt lat="45.96298" lon="4.78028">
        <ele>199</ele>
        <time>2016-10-02T09:12:39Z</time>
      </trkpt>
      <trkpt lat="45.96302" lon="4.78033">
        <ele>199</ele>
        <time>2016-10-02T09:12:40Z</time>
      </trkpt>
      <trkpt lat="45.96307" lon="4.78037">
        <ele>199</ele>
        <time>2016-10-02T09:12:41Z</time>
      </trkpt>
      <trkpt lat="45.96311" lon="4.78042">
        <ele>199</ele>
        <time>2016-10-02T09:12:42Z</time>
      </trkpt>
      <trkpt lat="45.96315" lon="4.78047">
        <ele>199</ele>
        <time>2016-10-02T09:12:43Z</time>
      </trkpt>
      <trkpt lat="45.96319" lon="4.78052">
        <ele>199</ele>
        <time>2016-10-02T09:12:44Z</time>
      </trkpt>
      <trkpt lat="45.96324" lon="4.78058">
        <ele>199</ele>
        <time>2016-10-02T09:12:45Z</time>
      </trkpt>
      <trkpt lat="45.96328" lon="4.78063">
        <ele>198</ele>
        <time>2016-10-02T09:12:46Z</time>
      </trkpt>
      <trkpt lat="45.96333" lon="4.78069">
        <ele>198</ele>
        <time>2016-10-02T09:12:47Z</time>
      </trkpt>
      <trkpt lat="45.96338" lon="4.78074">
        <ele>200</ele>
        <time>2016-10-02T09:12:48Z</time>
      </trkpt>
      <trkpt lat="45.96344" lon="4.7808">
        <ele>200</ele>
        <time>2016-10-02T09:12:49Z</time>
      </trkpt>
      <trkpt lat="45.96348" lon="4.78086">
        <ele>199</ele>
        <time>2016-10-02T09:12:50Z</time>
      </trkpt>
      <trkpt lat="45.96352" lon="4.7809">
        <ele>199</ele>
        <time>2016-10-02T09:12:51Z</time>
      </trkpt>
      <trkpt lat="45.96356" lon="4.78094">
        <ele>199</ele>
        <time>2016-10-02T09:12:52Z</time>
      </trkpt>
      <trkpt lat="45.96361" lon="4.78099">
        <ele>199</ele>
        <time>2016-10-02T09:12:53Z</time>
      </trkpt>
      <trkpt lat="45.96364" lon="4.78102">
        <ele>199</ele>
        <time>2016-10-02T09:12:54Z</time>
      </trkpt>
      <trkpt lat="45.96368" lon="4.78106">
        <ele>199</ele>
        <time>2016-10-02T09:12:55Z</time>
      </trkpt>
      <trkpt lat="45.96372" lon="4.7811">
        <ele>199</ele>
        <time>2016-10-02T09:12:56Z</time>
      </trkpt>
      <trkpt lat="45.96379" lon="4.78118">
        <ele>199</ele>
        <time>2016-10-02T09:12:58Z</time>
      </trkpt>
      <trkpt lat="45.96383" lon="4.78122">
        <ele>199</ele>
        <time>2016-10-02T09:12:59Z</time>
      </trkpt>
      <trkpt lat="45.96387" lon="4.78125">
        <ele>199</ele>
        <time>2016-10-02T09:13:00Z</time>
      </trkpt>
      <trkpt lat="45.96392" lon="4.78127">
        <ele>199</ele>
        <time>2016-10-02T09:13:01Z</time>
      </trkpt>
      <trkpt lat="45.96396" lon="4.78131">
        <ele>199</ele>
        <time>2016-10-02T09:13:02Z</time>
      </trkpt>
      <trkpt lat="45.964" lon="4.78134">
        <ele>199</ele>
        <time>2016-10-02T09:13:03Z</time>
      </trkpt>
      <trkpt lat="45.96406" lon="4.78135">
        <ele>199</ele>
        <time>2016-10-02T09:13:04Z</time>
      </trkpt>
      <trkpt lat="45.96412" lon="4.78138">
        <ele>199</ele>
        <time>2016-10-02T09:13:05Z</time>
      </trkpt>
      <trkpt lat="45.96417" lon="4.78142">
        <ele>203</ele>
        <time>2016-10-02T09:13:06Z</time>
      </trkpt>
      <trkpt lat="45.96423" lon="4.78147">
        <ele>202</ele>
        <time>2016-10-02T09:13:07Z</time>
      </trkpt>
      <trkpt lat="45.96427" lon="4.78151">
        <ele>202</ele>
        <time>2016-10-02T09:13:08Z</time>
      </trkpt>
      <trkpt lat="45.96431" lon="4.78155">
        <ele>202</ele>
        <time>2016-10-02T09:13:09Z</time>
      </trkpt>
      <trkpt lat="45.96436" lon="4.78157">
        <ele>202</ele>
        <time>2016-10-02T09:13:10Z</time>
      </trkpt>
      <trkpt lat="45.96441" lon="4.78161">
        <ele>203</ele>
        <time>2016-10-02T09:13:11Z</time>
      </trkpt>
      <trkpt lat="45.96446" lon="4.78165">
        <ele>203</ele>
        <time>2016-10-02T09:13:12Z</time>
      </trkpt>
      <trkpt lat="45.96451" lon="4.7817">
        <ele>199</ele>
        <time>2016-10-02T09:13:13Z</time>
      </trkpt>
      <trkpt lat="45.96455" lon="4.78175">
        <ele>200</ele>
        <time>2016-10-02T09:13:14Z</time>
      </trkpt>
      <trkpt lat="45.96459" lon="4.7818">
        <ele>200</ele>
        <time>2016-10-02T09:13:15Z</time>
      </trkpt>
      <trkpt lat="45.96466" lon="4.78187">
        <ele>200</ele>
        <time>2016-10-02T09:13:17Z</time>
      </trkpt>
      <trkpt lat="45.96471" lon="4.78191">
        <ele>200</ele>
        <time>2016-10-02T09:13:18Z</time>
      </trkpt>
      <trkpt lat="45.96475" lon="4.78193">
        <ele>200</ele>
        <time>2016-10-02T09:13:19Z</time>
      </trkpt>
      <trkpt lat="45.9648" lon="4.78195">
        <ele>200</ele>
        <time>2016-10-02T09:13:20Z</time>
      </trkpt>
      <trkpt lat="45.96485" lon="4.78198">
        <ele>200</ele>
        <time>2016-10-02T09:13:21Z</time>
      </trkpt>
      <trkpt lat="45.9649" lon="4.78201">
        <ele>200</ele>
        <time>2016-10-02T09:13:22Z</time>
      </trkpt>
      <trkpt lat="45.96495" lon="4.78206">
        <ele>200</ele>
        <time>2016-10-02T09:13:23Z</time>
      </trkpt>
      <trkpt lat="45.965" lon="4.7821">
        <ele>200</ele>
        <time>2016-10-02T09:13:24Z</time>
      </trkpt>
      <trkpt lat="45.96503" lon="4.78214">
        <ele>205</ele>
        <time>2016-10-02T09:13:25Z</time>
      </trkpt>
      <trkpt lat="45.96507" lon="4.78217">
        <ele>204</ele>
        <time>2016-10-02T09:13:26Z</time>
      </trkpt>
      <trkpt lat="45.96511" lon="4.78221">
        <ele>204</ele>
        <time>2016-10-02T09:13:27Z</time>
      </trkpt>
      <trkpt lat="45.96514" lon="4.78227">
        <ele>204</ele>
        <time>2016-10-02T09:13:28Z</time>
      </trkpt>
      <trkpt lat="45.96517" lon="4.78231">
        <ele>204</ele>
        <time>2016-10-02T09:13:29Z</time>
      </trkpt>
      <trkpt lat="45.96521" lon="4.78236">
        <ele>203</ele>
        <time>2016-10-02T09:13:30Z</time>
      </trkpt>
      <trkpt lat="45.96524" lon="4.7824">
        <ele>204</ele>
        <time>2016-10-02T09:13:31Z</time>
      </trkpt>
      <trkpt lat="45.96528" lon="4.78245">
        <ele>204</ele>
        <time>2016-10-02T09:13:32Z</time>
      </trkpt>
      <trkpt lat="45.96532" lon="4.78248">
        <ele>204</ele>
        <time>2016-10-02T09:13:33Z</time>
      </trkpt>
      <trkpt lat="45.96535" lon="4.78252">
        <ele>200</ele>
        <time>2016-10-02T09:13:34Z</time>
      </trkpt>
      <trkpt lat="45.96538" lon="4.78258">
        <ele>200</ele>
        <time>2016-10-02T09:13:35Z</time>
      </trkpt>
      <trkpt lat="45.96539" lon="4.78268">
        <ele>200</ele>
        <time>2016-10-02T09:13:36Z</time>
      </trkpt>
      <trkpt lat="45.96541" lon="4.78276">
        <ele>200</ele>
        <time>2016-10-02T09:13:37Z</time>
      </trkpt>
      <trkpt lat="45.96544" lon="4.7828">
        <ele>200</ele>
        <time>2016-10-02T09:13:38Z</time>
      </trkpt>
      <trkpt lat="45.96547" lon="4.78285">
        <ele>200</ele>
        <time>2016-10-02T09:13:39Z</time>
      </trkpt>
      <trkpt lat="45.96551" lon="4.7829">
        <ele>200</ele>
        <time>2016-10-02T09:13:40Z</time>
      </trkpt>
      <trkpt lat="45.96556" lon="4.78295">
        <ele>200</ele>
        <time>2016-10-02T09:13:41Z</time>
      </trkpt>
      <trkpt lat="45.9656" lon="4.78299">
        <ele>200</ele>
        <time>2016-10-02T09:13:42Z</time>
      </trkpt>
      <trkpt lat="45.96564" lon="4.78305">
        <ele>200</ele>
        <time>2016-10-02T09:13:43Z</time>
      </trkpt>
      <trkpt lat="45.96567" lon="4.78312">
        <ele>199</ele>
        <time>2016-10-02T09:13:44Z</time>
      </trkpt>
      <trkpt lat="45.96571" lon="4.78319">
        <ele>199</ele>
        <time>2016-10-02T09:13:45Z</time>
      </trkpt>
      <trkpt lat="45.96575" lon="4.78324">
        <ele>199</ele>
        <time>2016-10-02T09:13:46Z</time>
      </trkpt>
      <trkpt lat="45.96579" lon="4.78329">
        <ele>198</ele>
        <time>2016-10-02T09:13:47Z</time>
      </trkpt>
      <trkpt lat="45.96583" lon="4.78334">
        <ele>198</ele>
        <time>2016-10-02T09:13:48Z</time>
      </trkpt>
      <trkpt lat="45.96587" lon="4.78337">
        <ele>199</ele>
        <time>2016-10-02T09:13:49Z</time>
      </trkpt>
      <trkpt lat="45.96592" lon="4.78339">
        <ele>199</ele>
        <time>2016-10-02T09:13:50Z</time>
      </trkpt>
      <trkpt lat="45.96596" lon="4.78342">
        <ele>199</ele>
        <time>2016-10-02T09:13:51Z</time>
      </trkpt>
      <trkpt lat="45.966" lon="4.78348">
        <ele>200</ele>
        <time>2016-10-02T09:13:52Z</time>
      </trkpt>
      <trkpt lat="45.96604" lon="4.78352">
        <ele>200</ele>
        <time>2016-10-02T09:13:53Z</time>
      </trkpt>
      <trkpt lat="45.96608" lon="4.78355">
        <ele>200</ele>
        <time>2016-10-02T09:13:54Z</time>
      </trkpt>
      <trkpt lat="45.96613" lon="4.78358">
        <ele>200</ele>
        <time>2016-10-02T09:13:55Z</time>
      </trkpt>
      <trkpt lat="45.96617" lon="4.78362">
        <ele>201</ele>
        <time>2016-10-02T09:13:56Z</time>
      </trkpt>
      <trkpt lat="45.96622" lon="4.78366">
        <ele>201</ele>
        <time>2016-10-02T09:13:57Z</time>
      </trkpt>
      <trkpt lat="45.96626" lon="4.7837">
        <ele>201</ele>
        <time>2016-10-02T09:13:58Z</time>
      </trkpt>
      <trkpt lat="45.9663" lon="4.78374">
        <ele>201</ele>
        <time>2016-10-02T09:13:59Z</time>
      </trkpt>
      <trkpt lat="45.96634" lon="4.78378">
        <ele>201</ele>
        <time>2016-10-02T09:14:00Z</time>
      </trkpt>
      <trkpt lat="45.96638" lon="4.78382">
        <ele>201</ele>
        <time>2016-10-02T09:14:01Z</time>
      </trkpt>
      <trkpt lat="45.96642" lon="4.78386">
        <ele>201</ele>
        <time>2016-10-02T09:14:02Z</time>
      </trkpt>
      <trkpt lat="45.96647" lon="4.7839">
        <ele>201</ele>
        <time>2016-10-02T09:14:03Z</time>
      </trkpt>
      <trkpt lat="45.96651" lon="4.78394">
        <ele>201</ele>
        <time>2016-10-02T09:14:04Z</time>
      </trkpt>
      <trkpt lat="45.96656" lon="4.78397">
        <ele>201</ele>
        <time>2016-10-02T09:14:05Z</time>
      </trkpt>
      <trkpt lat="45.9666" lon="4.78401">
        <ele>201</ele>
        <time>2016-10-02T09:14:06Z</time>
      </trkpt>
      <trkpt lat="45.96665" lon="4.78405">
        <ele>201</ele>
        <time>2016-10-02T09:14:07Z</time>
      </trkpt>
      <trkpt lat="45.9667" lon="4.7841">
        <ele>202</ele>
        <time>2016-10-02T09:14:08Z</time>
      </trkpt>
      <trkpt lat="45.96675" lon="4.78414">
        <ele>203</ele>
        <time>2016-10-02T09:14:09Z</time>
      </trkpt>
      <trkpt lat="45.96679" lon="4.78418">
        <ele>202</ele>
        <time>2016-10-02T09:14:10Z</time>
      </trkpt>
      <trkpt lat="45.96686" lon="4.78423">
        <ele>202</ele>
        <time>2016-10-02T09:14:12Z</time>
      </trkpt>
      <trkpt lat="45.96689" lon="4.78426">
        <ele>202</ele>
        <time>2016-10-02T09:14:13Z</time>
      </trkpt>
      <trkpt lat="45.96695" lon="4.78433">
        <ele>203</ele>
        <time>2016-10-02T09:14:15Z</time>
      </trkpt>
      <trkpt lat="45.96699" lon="4.78437">
        <ele>203</ele>
        <time>2016-10-02T09:14:16Z</time>
      </trkpt>
      <trkpt lat="45.96702" lon="4.78441">
        <ele>203</ele>
        <time>2016-10-02T09:14:17Z</time>
      </trkpt>
      <trkpt lat="45.96706" lon="4.78446">
        <ele>203</ele>
        <time>2016-10-02T09:14:18Z</time>
      </trkpt>
      <trkpt lat="45.9671" lon="4.7845">
        <ele>203</ele>
        <time>2016-10-02T09:14:19Z</time>
      </trkpt>
      <trkpt lat="45.96713" lon="4.78454">
        <ele>203</ele>
        <time>2016-10-02T09:14:20Z</time>
      </trkpt>
      <trkpt lat="45.96717" lon="4.78459">
        <ele>203</ele>
        <time>2016-10-02T09:14:21Z</time>
      </trkpt>
      <trkpt lat="45.96723" lon="4.78466">
        <ele>203</ele>
        <time>2016-10-02T09:14:22Z</time>
      </trkpt>
      <trkpt lat="45.96728" lon="4.78466">
        <ele>203</ele>
        <time>2016-10-02T09:14:23Z</time>
      </trkpt>
      <trkpt lat="45.96732" lon="4.78471">
        <ele>203</ele>
        <time>2016-10-02T09:14:24Z</time>
      </trkpt>
      <trkpt lat="45.96737" lon="4.78476">
        <ele>203</ele>
        <time>2016-10-02T09:14:25Z</time>
      </trkpt>
      <trkpt lat="45.96742" lon="4.78479">
        <ele>203</ele>
        <time>2016-10-02T09:14:26Z</time>
      </trkpt>
      <trkpt lat="45.96747" lon="4.78481">
        <ele>203</ele>
        <time>2016-10-02T09:14:27Z</time>
      </trkpt>
      <trkpt lat="45.96752" lon="4.78485">
        <ele>205</ele>
        <time>2016-10-02T09:14:28Z</time>
      </trkpt>
      <trkpt lat="45.96756" lon="4.7849">
        <ele>204</ele>
        <time>2016-10-02T09:14:29Z</time>
      </trkpt>
      <trkpt lat="45.96761" lon="4.78492">
        <ele>204</ele>
        <time>2016-10-02T09:14:30Z</time>
      </trkpt>
      <trkpt lat="45.96765" lon="4.78495">
        <ele>205</ele>
        <time>2016-10-02T09:14:31Z</time>
      </trkpt>
      <trkpt lat="45.96769" lon="4.785">
        <ele>205</ele>
        <time>2016-10-02T09:14:32Z</time>
      </trkpt>
      <trkpt lat="45.96773" lon="4.78503">
        <ele>203</ele>
        <time>2016-10-02T09:14:33Z</time>
      </trkpt>
      <trkpt lat="45.96777" lon="4.78509">
        <ele>203</ele>
        <time>2016-10-02T09:14:34Z</time>
      </trkpt>
      <trkpt lat="45.9678" lon="4.78518">
        <ele>203</ele>
        <time>2016-10-02T09:14:35Z</time>
      </trkpt>
      <trkpt lat="45.96783" lon="4.78524">
        <ele>203</ele>
        <time>2016-10-02T09:14:36Z</time>
      </trkpt>
      <trkpt lat="45.96787" lon="4.7853">
        <ele>203</ele>
        <time>2016-10-02T09:14:37Z</time>
      </trkpt>
      <trkpt lat="45.96791" lon="4.78536">
        <ele>203</ele>
        <time>2016-10-02T09:14:38Z</time>
      </trkpt>
      <trkpt lat="45.96794" lon="4.78543">
        <ele>203</ele>
        <time>2016-10-02T09:14:39Z</time>
      </trkpt>
      <trkpt lat="45.96798" lon="4.78549">
        <ele>203</ele>
        <time>2016-10-02T09:14:40Z</time>
      </trkpt>
      <trkpt lat="45.96802" lon="4.78555">
        <ele>203</ele>
        <time>2016-10-02T09:14:41Z</time>
      </trkpt>
      <trkpt lat="45.96805" lon="4.78561">
        <ele>203</ele>
        <time>2016-10-02T09:14:42Z</time>
      </trkpt>
      <trkpt lat="45.96808" lon="4.78567">
        <ele>203</ele>
        <time>2016-10-02T09:14:43Z</time>
      </trkpt>
      <trkpt lat="45.96812" lon="4.78574">
        <ele>203</ele>
        <time>2016-10-02T09:14:44Z</time>
      </trkpt>
      <trkpt lat="45.96816" lon="4.7858">
        <ele>203</ele>
        <time>2016-10-02T09:14:45Z</time>
      </trkpt>
      <trkpt lat="45.96819" lon="4.78583">
        <ele>203</ele>
        <time>2016-10-02T09:14:46Z</time>
      </trkpt>
      <trkpt lat="45.96822" lon="4.7859">
        <ele>202</ele>
        <time>2016-10-02T09:14:47Z</time>
      </trkpt>
      <trkpt lat="45.96824" lon="4.78595">
        <ele>202</ele>
        <time>2016-10-02T09:14:48Z</time>
      </trkpt>
      <trkpt lat="45.96827" lon="4.78601">
        <ele>202</ele>
        <time>2016-10-02T09:14:49Z</time>
      </trkpt>
      <trkpt lat="45.96829" lon="4.78608">
        <ele>202</ele>
        <time>2016-10-02T09:14:50Z</time>
      </trkpt>
      <trkpt lat="45.96831" lon="4.78615">
        <ele>202</ele>
        <time>2016-10-02T09:14:51Z</time>
      </trkpt>
      <trkpt lat="45.96833" lon="4.78622">
        <ele>201</ele>
        <time>2016-10-02T09:14:52Z</time>
      </trkpt>
      <trkpt lat="45.96836" lon="4.78629">
        <ele>203</ele>
        <time>2016-10-02T09:14:53Z</time>
      </trkpt>
      <trkpt lat="45.96838" lon="4.78637">
        <ele>203</ele>
        <time>2016-10-02T09:14:54Z</time>
      </trkpt>
      <trkpt lat="45.9684" lon="4.78645">
        <ele>203</ele>
        <time>2016-10-02T09:14:55Z</time>
      </trkpt>
      <trkpt lat="45.96842" lon="4.78651">
        <ele>202</ele>
        <time>2016-10-02T09:14:56Z</time>
      </trkpt>
      <trkpt lat="45.96845" lon="4.78657">
        <ele>202</ele>
        <time>2016-10-02T09:14:57Z</time>
      </trkpt>
      <trkpt lat="45.96847" lon="4.78663">
        <ele>202</ele>
        <time>2016-10-02T09:14:58Z</time>
      </trkpt>
      <trkpt lat="45.9685" lon="4.78669">
        <ele>202</ele>
        <time>2016-10-02T09:14:59Z</time>
      </trkpt>
      <trkpt lat="45.96852" lon="4.78676">
        <ele>202</ele>
        <time>2016-10-02T09:15:00Z</time>
      </trkpt>
      <trkpt lat="45.96855" lon="4.78683">
        <ele>202</ele>
        <time>2016-10-02T09:15:01Z</time>
      </trkpt>
      <trkpt lat="45.96859" lon="4.7869">
        <ele>202</ele>
        <time>2016-10-02T09:15:02Z</time>
      </trkpt>
      <trkpt lat="45.96863" lon="4.78697">
        <ele>202</ele>
        <time>2016-10-02T09:15:03Z</time>
      </trkpt>
      <trkpt lat="45.96867" lon="4.78703">
        <ele>202</ele>
        <time>2016-10-02T09:15:04Z</time>
      </trkpt>
      <trkpt lat="45.96869" lon="4.7871">
        <ele>202</ele>
        <time>2016-10-02T09:15:05Z</time>
      </trkpt>
      <trkpt lat="45.96872" lon="4.78717">
        <ele>202</ele>
        <time>2016-10-02T09:15:06Z</time>
      </trkpt>
      <trkpt lat="45.96875" lon="4.78723">
        <ele>202</ele>
        <time>2016-10-02T09:15:07Z</time>
      </trkpt>
      <trkpt lat="45.96878" lon="4.78729">
        <ele>202</ele>
        <time>2016-10-02T09:15:08Z</time>
      </trkpt>
      <trkpt lat="45.96881" lon="4.7874">
        <ele>202</ele>
        <time>2016-10-02T09:15:10Z</time>
      </trkpt>
      <trkpt lat="45.96884" lon="4.78745">
        <ele>202</ele>
        <time>2016-10-02T09:15:11Z</time>
      </trkpt>
      <trkpt lat="45.96887" lon="4.78755">
        <ele>201</ele>
        <time>2016-10-02T09:15:13Z</time>
      </trkpt>
      <trkpt lat="45.96891" lon="4.78762">
        <ele>201</ele>
        <time>2016-10-02T09:15:14Z</time>
      </trkpt>
      <trkpt lat="45.96894" lon="4.78768">
        <ele>201</ele>
        <time>2016-10-02T09:15:15Z</time>
      </trkpt>
      <trkpt lat="45.96898" lon="4.78774">
        <ele>201</ele>
        <time>2016-10-02T09:15:16Z</time>
      </trkpt>
      <trkpt lat="45.96901" lon="4.7878">
        <ele>201</ele>
        <time>2016-10-02T09:15:17Z</time>
      </trkpt>
      <trkpt lat="45.96905" lon="4.78786">
        <ele>201</ele>
        <time>2016-10-02T09:15:18Z</time>
      </trkpt>
      <trkpt lat="45.96908" lon="4.78793">
        <ele>201</ele>
        <time>2016-10-02T09:15:19Z</time>
      </trkpt>
      <trkpt lat="45.96911" lon="4.78799">
        <ele>201</ele>
        <time>2016-10-02T09:15:20Z</time>
      </trkpt>
      <trkpt lat="45.96914" lon="4.78805">
        <ele>200</ele>
        <time>2016-10-02T09:15:21Z</time>
      </trkpt>
      <trkpt lat="45.96917" lon="4.78811">
        <ele>202</ele>
        <time>2016-10-02T09:15:22Z</time>
      </trkpt>
      <trkpt lat="45.96921" lon="4.78816">
        <ele>202</ele>
        <time>2016-10-02T09:15:23Z</time>
      </trkpt>
      <trkpt lat="45.96924" lon="4.78821">
        <ele>202</ele>
        <time>2016-10-02T09:15:24Z</time>
      </trkpt>
      <trkpt lat="45.96927" lon="4.78825">
        <ele>202</ele>
        <time>2016-10-02T09:15:25Z</time>
      </trkpt>
      <trkpt lat="45.96931" lon="4.7883">
        <ele>202</ele>
        <time>2016-10-02T09:15:26Z</time>
      </trkpt>
      <trkpt lat="45.96935" lon="4.78834">
        <ele>202</ele>
        <time>2016-10-02T09:15:27Z</time>
      </trkpt>
      <trkpt lat="45.96939" lon="4.78838">
        <ele>202</ele>
        <time>2016-10-02T09:15:28Z</time>
      </trkpt>
      <trkpt lat="45.96943" lon="4.78842">
        <ele>202</ele>
        <time>2016-10-02T09:15:29Z</time>
      </trkpt>
      <trkpt lat="45.96947" lon="4.78847">
        <ele>202</ele>
        <time>2016-10-02T09:15:30Z</time>
      </trkpt>
      <trkpt lat="45.96951" lon="4.78851">
        <ele>202</ele>
        <time>2016-10-02T09:15:31Z</time>
      </trkpt>
      <trkpt lat="45.96955" lon="4.78856">
        <ele>203</ele>
        <time>2016-10-02T09:15:32Z</time>
      </trkpt>
      <trkpt lat="45.96959" lon="4.78861">
        <ele>203</ele>
        <time>2016-10-02T09:15:33Z</time>
      </trkpt>
      <trkpt lat="45.96963" lon="4.78865">
        <ele>203</ele>
        <time>2016-10-02T09:15:34Z</time>
      </trkpt>
      <trkpt lat="45.96967" lon="4.7887">
        <ele>203</ele>
        <time>2016-10-02T09:15:35Z</time>
      </trkpt>
      <trkpt lat="45.96971" lon="4.78875">
        <ele>203</ele>
        <time>2016-10-02T09:15:36Z</time>
      </trkpt>
      <trkpt lat="45.96974" lon="4.78879">
        <ele>203</ele>
        <time>2016-10-02T09:15:37Z</time>
      </trkpt>
      <trkpt lat="45.96978" lon="4.78884">
        <ele>203</ele>
        <time>2016-10-02T09:15:38Z</time>
      </trkpt>
      <trkpt lat="45.96982" lon="4.78889">
        <ele>203</ele>
        <time>2016-10-02T09:15:39Z</time>
      </trkpt>
      <trkpt lat="45.96986" lon="4.78893">
        <ele>203</ele>
        <time>2016-10-02T09:15:40Z</time>
      </trkpt>
      <trkpt lat="45.9699" lon="4.78899">
        <ele>203</ele>
        <time>2016-10-02T09:15:41Z</time>
      </trkpt>
      <trkpt lat="45.96993" lon="4.78903">
        <ele>204</ele>
        <time>2016-10-02T09:15:42Z</time>
      </trkpt>
      <trkpt lat="45.96997" lon="4.78906">
        <ele>204</ele>
        <time>2016-10-02T09:15:43Z</time>
      </trkpt>
      <trkpt lat="45.97" lon="4.78911">
        <ele>205</ele>
        <time>2016-10-02T09:15:44Z</time>
      </trkpt>
      <trkpt lat="45.97004" lon="4.78915">
        <ele>205</ele>
        <time>2016-10-02T09:15:45Z</time>
      </trkpt>
      <trkpt lat="45.97007" lon="4.7892">
        <ele>204</ele>
        <time>2016-10-02T09:15:46Z</time>
      </trkpt>
      <trkpt lat="45.97011" lon="4.78925">
        <ele>204</ele>
        <time>2016-10-02T09:15:47Z</time>
      </trkpt>
      <trkpt lat="45.97015" lon="4.7893">
        <ele>205</ele>
        <time>2016-10-02T09:15:48Z</time>
      </trkpt>
      <trkpt lat="45.97018" lon="4.78934">
        <ele>205</ele>
        <time>2016-10-02T09:15:49Z</time>
      </trkpt>
      <trkpt lat="45.97022" lon="4.78939">
        <ele>205</ele>
        <time>2016-10-02T09:15:50Z</time>
      </trkpt>
      <trkpt lat="45.97025" lon="4.78945">
        <ele>205</ele>
        <time>2016-10-02T09:15:51Z</time>
      </trkpt>
      <trkpt lat="45.97029" lon="4.7895">
        <ele>205</ele>
        <time>2016-10-02T09:15:52Z</time>
      </trkpt>
      <trkpt lat="45.97032" lon="4.78955">
        <ele>205</ele>
        <time>2016-10-02T09:15:53Z</time>
      </trkpt>
      <trkpt lat="45.97035" lon="4.7896">
        <ele>205</ele>
        <time>2016-10-02T09:15:54Z</time>
      </trkpt>
      <trkpt lat="45.97038" lon="4.78966">
        <ele>205</ele>
        <time>2016-10-02T09:15:55Z</time>
      </trkpt>
      <trkpt lat="45.97041" lon="4.7897">
        <ele>205</ele>
        <time>2016-10-02T09:15:56Z</time>
      </trkpt>
      <trkpt lat="45.97043" lon="4.78976">
        <ele>205</ele>
        <time>2016-10-02T09:15:57Z</time>
      </trkpt>
      <trkpt lat="45.97046" lon="4.78983">
        <ele>205</ele>
        <time>2016-10-02T09:15:58Z</time>
      </trkpt>
      <trkpt lat="45.97048" lon="4.78989">
        <ele>205</ele>
        <time>2016-10-02T09:15:59Z</time>
      </trkpt>
      <trkpt lat="45.97051" lon="4.78995">
        <ele>205</ele>
        <time>2016-10-02T09:16:00Z</time>
      </trkpt>
      <trkpt lat="45.97054" lon="4.79">
        <ele>205</ele>
        <time>2016-10-02T09:16:01Z</time>
      </trkpt>
      <trkpt lat="45.97056" lon="4.79007">
        <ele>203</ele>
        <time>2016-10-02T09:16:02Z</time>
      </trkpt>
      <trkpt lat="45.97059" lon="4.79014">
        <ele>204</ele>
        <time>2016-10-02T09:16:03Z</time>
      </trkpt>
      <trkpt lat="45.97062" lon="4.79022">
        <ele>204</ele>
        <time>2016-10-02T09:16:04Z</time>
      </trkpt>
      <trkpt lat="45.97064" lon="4.79029">
        <ele>203</ele>
        <time>2016-10-02T09:16:05Z</time>
      </trkpt>
      <trkpt lat="45.97066" lon="4.79037">
        <ele>203</ele>
        <time>2016-10-02T09:16:06Z</time>
      </trkpt>
      <trkpt lat="45.97068" lon="4.79046">
        <ele>203</ele>
        <time>2016-10-02T09:16:07Z</time>
      </trkpt>
      <trkpt lat="45.9707" lon="4.79054">
        <ele>203</ele>
        <time>2016-10-02T09:16:08Z</time>
      </trkpt>
      <trkpt lat="45.97072" lon="4.79062">
        <ele>203</ele>
        <time>2016-10-02T09:16:09Z</time>
      </trkpt>
      <trkpt lat="45.97073" lon="4.7907">
        <ele>204</ele>
        <time>2016-10-02T09:16:10Z</time>
      </trkpt>
      <trkpt lat="45.97074" lon="4.79079">
        <ele>204</ele>
        <time>2016-10-02T09:16:11Z</time>
      </trkpt>
      <trkpt lat="45.97075" lon="4.79087">
        <ele>204</ele>
        <time>2016-10-02T09:16:12Z</time>
      </trkpt>
      <trkpt lat="45.97076" lon="4.79095">
        <ele>204</ele>
        <time>2016-10-02T09:16:13Z</time>
      </trkpt>
      <trkpt lat="45.97078" lon="4.79102">
        <ele>204</ele>
        <time>2016-10-02T09:16:14Z</time>
      </trkpt>
      <trkpt lat="45.9708" lon="4.79109">
        <ele>204</ele>
        <time>2016-10-02T09:16:15Z</time>
      </trkpt>
      <trkpt lat="45.97082" lon="4.79116">
        <ele>204</ele>
        <time>2016-10-02T09:16:16Z</time>
      </trkpt>
      <trkpt lat="45.97085" lon="4.79122">
        <ele>206</ele>
        <time>2016-10-02T09:16:17Z</time>
      </trkpt>
      <trkpt lat="45.97089" lon="4.79128">
        <ele>206</ele>
        <time>2016-10-02T09:16:18Z</time>
      </trkpt>
      <trkpt lat="45.97093" lon="4.79134">
        <ele>206</ele>
        <time>2016-10-02T09:16:19Z</time>
      </trkpt>
      <trkpt lat="45.97096" lon="4.7914">
        <ele>206</ele>
        <time>2016-10-02T09:16:20Z</time>
      </trkpt>
      <trkpt lat="45.971" lon="4.79146">
        <ele>206</ele>
        <time>2016-10-02T09:16:21Z</time>
      </trkpt>
      <trkpt lat="45.97104" lon="4.79152">
        <ele>206</ele>
        <time>2016-10-02T09:16:22Z</time>
      </trkpt>
      <trkpt lat="45.97107" lon="4.79157">
        <ele>206</ele>
        <time>2016-10-02T09:16:23Z</time>
      </trkpt>
      <trkpt lat="45.9711" lon="4.79163">
        <ele>206</ele>
        <time>2016-10-02T09:16:24Z</time>
      </trkpt>
      <trkpt lat="45.97113" lon="4.79169">
        <ele>206</ele>
        <time>2016-10-02T09:16:25Z</time>
      </trkpt>
      <trkpt lat="45.97116" lon="4.79175">
        <ele>206</ele>
        <time>2016-10-02T09:16:26Z</time>
      </trkpt>
      <trkpt lat="45.97119" lon="4.79182">
        <ele>206</ele>
        <time>2016-10-02T09:16:27Z</time>
      </trkpt>
      <trkpt lat="45.97121" lon="4.79189">
        <ele>206</ele>
        <time>2016-10-02T09:16:28Z</time>
      </trkpt>
      <trkpt lat="45.97123" lon="4.79196">
        <ele>206</ele>
        <time>2016-10-02T09:16:29Z</time>
      </trkpt>
      <trkpt lat="45.97126" lon="4.79204">
        <ele>206</ele>
        <time>2016-10-02T09:16:30Z</time>
      </trkpt>
      <trkpt lat="45.97129" lon="4.79211">
        <ele>206</ele>
        <time>2016-10-02T09:16:31Z</time>
      </trkpt>
      <trkpt lat="45.97131" lon="4.79218">
        <ele>205</ele>
        <time>2016-10-02T09:16:32Z</time>
      </trkpt>
      <trkpt lat="45.97134" lon="4.79226">
        <ele>205</ele>
        <time>2016-10-02T09:16:33Z</time>
      </trkpt>
      <trkpt lat="45.97136" lon="4.79232">
        <ele>205</ele>
        <time>2016-10-02T09:16:34Z</time>
      </trkpt>
      <trkpt lat="45.97139" lon="4.79239">
        <ele>205</ele>
        <time>2016-10-02T09:16:35Z</time>
      </trkpt>
      <trkpt lat="45.97141" lon="4.79247">
        <ele>205</ele>
        <time>2016-10-02T09:16:36Z</time>
      </trkpt>
      <trkpt lat="45.97143" lon="4.79254">
        <ele>204</ele>
        <time>2016-10-02T09:16:37Z</time>
      </trkpt>
      <trkpt lat="45.97146" lon="4.79261">
        <ele>204</ele>
        <time>2016-10-02T09:16:38Z</time>
      </trkpt>
      <trkpt lat="45.97149" lon="4.79266">
        <ele>204</ele>
        <time>2016-10-02T09:16:39Z</time>
      </trkpt>
      <trkpt lat="45.97152" lon="4.79272">
        <ele>204</ele>
        <time>2016-10-02T09:16:40Z</time>
      </trkpt>
      <trkpt lat="45.97155" lon="4.79277">
        <ele>204</ele>
        <time>2016-10-02T09:16:41Z</time>
      </trkpt>
      <trkpt lat="45.97158" lon="4.79282">
        <ele>204</ele>
        <time>2016-10-02T09:16:42Z</time>
      </trkpt>
      <trkpt lat="45.9716" lon="4.79288">
        <ele>204</ele>
        <time>2016-10-02T09:16:43Z</time>
      </trkpt>
      <trkpt lat="45.97162" lon="4.79295">
        <ele>204</ele>
        <time>2016-10-02T09:16:44Z</time>
      </trkpt>
      <trkpt lat="45.97165" lon="4.793">
        <ele>204</ele>
        <time>2016-10-02T09:16:45Z</time>
      </trkpt>
      <trkpt lat="45.97168" lon="4.79306">
        <ele>207</ele>
        <time>2016-10-02T09:16:46Z</time>
      </trkpt>
      <trkpt lat="45.97171" lon="4.79312">
        <ele>207</ele>
        <time>2016-10-02T09:16:47Z</time>
      </trkpt>
      <trkpt lat="45.97174" lon="4.79318">
        <ele>207</ele>
        <time>2016-10-02T09:16:48Z</time>
      </trkpt>
      <trkpt lat="45.97177" lon="4.79324">
        <ele>206</ele>
        <time>2016-10-02T09:16:49Z</time>
      </trkpt>
      <trkpt lat="45.9718" lon="4.79331">
        <ele>206</ele>
        <time>2016-10-02T09:16:50Z</time>
      </trkpt>
      <trkpt lat="45.97182" lon="4.79338">
        <ele>206</ele>
        <time>2016-10-02T09:16:51Z</time>
      </trkpt>
      <trkpt lat="45.97185" lon="4.79344">
        <ele>207</ele>
        <time>2016-10-02T09:16:52Z</time>
      </trkpt>
      <trkpt lat="45.97188" lon="4.79351">
        <ele>207</ele>
        <time>2016-10-02T09:16:53Z</time>
      </trkpt>
      <trkpt lat="45.97191" lon="4.79358">
        <ele>207</ele>
        <time>2016-10-02T09:16:54Z</time>
      </trkpt>
      <trkpt lat="45.97194" lon="4.79365">
        <ele>207</ele>
        <time>2016-10-02T09:16:55Z</time>
      </trkpt>
      <trkpt lat="45.97197" lon="4.79372">
        <ele>207</ele>
        <time>2016-10-02T09:16:56Z</time>
      </trkpt>
      <trkpt lat="45.97199" lon="4.79379">
        <ele>207</ele>
        <time>2016-10-02T09:16:57Z</time>
      </trkpt>
      <trkpt lat="45.97202" lon="4.79386">
        <ele>207</ele>
        <time>2016-10-02T09:16:58Z</time>
      </trkpt>
      <trkpt lat="45.97204" lon="4.79393">
        <ele>208</ele>
        <time>2016-10-02T09:16:59Z</time>
      </trkpt>
      <trkpt lat="45.97207" lon="4.794">
        <ele>208</ele>
        <time>2016-10-02T09:17:00Z</time>
      </trkpt>
      <trkpt lat="45.9721" lon="4.79406">
        <ele>208</ele>
        <time>2016-10-02T09:17:01Z</time>
      </trkpt>
      <trkpt lat="45.97213" lon="4.79412">
        <ele>208</ele>
        <time>2016-10-02T09:17:02Z</time>
      </trkpt>
      <trkpt lat="45.97218" lon="4.79423">
        <ele>208</ele>
        <time>2016-10-02T09:17:04Z</time>
      </trkpt>
      <trkpt lat="45.9722" lon="4.79427">
        <ele>208</ele>
        <time>2016-10-02T09:17:05Z</time>
      </trkpt>
      <trkpt lat="45.97224" lon="4.79437">
        <ele>209</ele>
        <time>2016-10-02T09:17:07Z</time>
      </trkpt>
      <trkpt lat="45.97226" lon="4.79442">
        <ele>209</ele>
        <time>2016-10-02T09:17:08Z</time>
      </trkpt>
      <trkpt lat="45.97229" lon="4.79449">
        <ele>209</ele>
        <time>2016-10-02T09:17:09Z</time>
      </trkpt>
      <trkpt lat="45.97231" lon="4.79456">
        <ele>209</ele>
        <time>2016-10-02T09:17:10Z</time>
      </trkpt>
      <trkpt lat="45.97233" lon="4.79462">
        <ele>209</ele>
        <time>2016-10-02T09:17:11Z</time>
      </trkpt>
      <trkpt lat="45.97235" lon="4.79468">
        <ele>209</ele>
        <time>2016-10-02T09:17:12Z</time>
      </trkpt>
      <trkpt lat="45.97237" lon="4.7948">
        <ele>209</ele>
        <time>2016-10-02T09:17:14Z</time>
      </trkpt>
      <trkpt lat="45.97239" lon="4.79486">
        <ele>210</ele>
        <time>2016-10-02T09:17:15Z</time>
      </trkpt>
      <trkpt lat="45.97241" lon="4.79497">
        <ele>210</ele>
        <time>2016-10-02T09:17:17Z</time>
      </trkpt>
      <trkpt lat="45.97243" lon="4.79503">
        <ele>210</ele>
        <time>2016-10-02T09:17:18Z</time>
      </trkpt>
      <trkpt lat="45.97245" lon="4.79515">
        <ele>210</ele>
        <time>2016-10-02T09:17:20Z</time>
      </trkpt>
      <trkpt lat="45.97245" lon="4.79523">
        <ele>210</ele>
        <time>2016-10-02T09:17:21Z</time>
      </trkpt>
      <trkpt lat="45.97245" lon="4.79531">
        <ele>210</ele>
        <time>2016-10-02T09:17:22Z</time>
      </trkpt>
      <trkpt lat="45.97241" lon="4.79542">
        <ele>209</ele>
        <time>2016-10-02T09:17:23Z</time>
      </trkpt>
      <trkpt lat="45.97242" lon="4.79552">
        <ele>209</ele>
        <time>2016-10-02T09:17:24Z</time>
      </trkpt>
      <trkpt lat="45.97245" lon="4.79559">
        <ele>210</ele>
        <time>2016-10-02T09:17:25Z</time>
      </trkpt>
      <trkpt lat="45.97249" lon="4.7957">
        <ele>210</ele>
        <time>2016-10-02T09:17:27Z</time>
      </trkpt>
      <trkpt lat="45.9725" lon="4.79576">
        <ele>210</ele>
        <time>2016-10-02T09:17:28Z</time>
      </trkpt>
      <trkpt lat="45.9725" lon="4.79582">
        <ele>210</ele>
        <time>2016-10-02T09:17:29Z</time>
      </trkpt>
      <trkpt lat="45.97249" lon="4.7959">
        <ele>210</ele>
        <time>2016-10-02T09:17:30Z</time>
      </trkpt>
      <trkpt lat="45.97249" lon="4.79596">
        <ele>209</ele>
        <time>2016-10-02T09:17:31Z</time>
      </trkpt>
      <trkpt lat="45.97251" lon="4.79603">
        <ele>212</ele>
        <time>2016-10-02T09:17:32Z</time>
      </trkpt>
      <trkpt lat="45.97252" lon="4.7961">
        <ele>213</ele>
        <time>2016-10-02T09:17:33Z</time>
      </trkpt>
      <trkpt lat="45.97253" lon="4.79617">
        <ele>213</ele>
        <time>2016-10-02T09:17:34Z</time>
      </trkpt>
      <trkpt lat="45.97254" lon="4.79628">
        <ele>213</ele>
        <time>2016-10-02T09:17:36Z</time>
      </trkpt>
      <trkpt lat="45.97255" lon="4.7963">
        <ele>213</ele>
        <time>2016-10-02T09:17:37Z</time>
      </trkpt>
      <trkpt lat="45.97256" lon="4.79639">
        <ele>212</ele>
        <time>2016-10-02T09:17:39Z</time>
      </trkpt>
      <trkpt lat="45.97257" lon="4.79643">
        <ele>212</ele>
        <time>2016-10-02T09:17:40Z</time>
      </trkpt>
      <trkpt lat="45.97254" lon="4.79653">
        <ele>211</ele>
        <time>2016-10-02T09:17:42Z</time>
      </trkpt>
      <trkpt lat="45.97238" lon="4.79658">
        <ele>208</ele>
        <time>2016-10-02T09:17:43Z</time>
      </trkpt>
      <trkpt lat="45.97241" lon="4.79672">
        <ele>208</ele>
        <time>2016-10-02T09:17:44Z</time>
      </trkpt>
      <trkpt lat="45.97241" lon="4.79681">
        <ele>208</ele>
        <time>2016-10-02T09:17:45Z</time>
      </trkpt>
      <trkpt lat="45.9724" lon="4.7969">
        <ele>208</ele>
        <time>2016-10-02T09:17:46Z</time>
      </trkpt>
      <trkpt lat="45.97242" lon="4.797">
        <ele>208</ele>
        <time>2016-10-02T09:17:47Z</time>
      </trkpt>
      <trkpt lat="45.97242" lon="4.79708">
        <ele>208</ele>
        <time>2016-10-02T09:17:48Z</time>
      </trkpt>
      <trkpt lat="45.97243" lon="4.79716">
        <ele>209</ele>
        <time>2016-10-02T09:17:49Z</time>
      </trkpt>
      <trkpt lat="45.97242" lon="4.79724">
        <ele>209</ele>
        <time>2016-10-02T09:17:50Z</time>
      </trkpt>
      <trkpt lat="45.97241" lon="4.79731">
        <ele>209</ele>
        <time>2016-10-02T09:17:51Z</time>
      </trkpt>
      <trkpt lat="45.97242" lon="4.79737">
        <ele>209</ele>
        <time>2016-10-02T09:17:52Z</time>
      </trkpt>
      <trkpt lat="45.97242" lon="4.79745">
        <ele>209</ele>
        <time>2016-10-02T09:17:53Z</time>
      </trkpt>
      <trkpt lat="45.97241" lon="4.79752">
        <ele>209</ele>
        <time>2016-10-02T09:17:54Z</time>
      </trkpt>
      <trkpt lat="45.9724" lon="4.79759">
        <ele>209</ele>
        <time>2016-10-02T09:17:55Z</time>
      </trkpt>
      <trkpt lat="45.97239" lon="4.79766">
        <ele>209</ele>
        <time>2016-10-02T09:17:56Z</time>
      </trkpt>
      <trkpt lat="45.97238" lon="4.79774">
        <ele>210</ele>
        <time>2016-10-02T09:17:57Z</time>
      </trkpt>
      <trkpt lat="45.97237" lon="4.79781">
        <ele>210</ele>
        <time>2016-10-02T09:17:58Z</time>
      </trkpt>
      <trkpt lat="45.97237" lon="4.79788">
        <ele>210</ele>
        <time>2016-10-02T09:17:59Z</time>
      </trkpt>
      <trkpt lat="45.97237" lon="4.79796">
        <ele>210</ele>
        <time>2016-10-02T09:18:00Z</time>
      </trkpt>
      <trkpt lat="45.97238" lon="4.79803">
        <ele>210</ele>
        <time>2016-10-02T09:18:01Z</time>
      </trkpt>
      <trkpt lat="45.97238" lon="4.79809">
        <ele>210</ele>
        <time>2016-10-02T09:18:02Z</time>
      </trkpt>
      <trkpt lat="45.97239" lon="4.79816">
        <ele>211</ele>
        <time>2016-10-02T09:18:03Z</time>
      </trkpt>
      <trkpt lat="45.97239" lon="4.79823">
        <ele>211</ele>
        <time>2016-10-02T09:18:04Z</time>
      </trkpt>
      <trkpt lat="45.97239" lon="4.79829">
        <ele>211</ele>
        <time>2016-10-02T09:18:05Z</time>
      </trkpt>
      <trkpt lat="45.9724" lon="4.79836">
        <ele>212</ele>
        <time>2016-10-02T09:18:06Z</time>
      </trkpt>
      <trkpt lat="45.97241" lon="4.79844">
        <ele>211</ele>
        <time>2016-10-02T09:18:07Z</time>
      </trkpt>
      <trkpt lat="45.9724" lon="4.79853">
        <ele>211</ele>
        <time>2016-10-02T09:18:08Z</time>
      </trkpt>
      <trkpt lat="45.97241" lon="4.79861">
        <ele>211</ele>
        <time>2016-10-02T09:18:09Z</time>
      </trkpt>
      <trkpt lat="45.97243" lon="4.79869">
        <ele>211</ele>
        <time>2016-10-02T09:18:10Z</time>
      </trkpt>
      <trkpt lat="45.97245" lon="4.79879">
        <ele>211</ele>
        <time>2016-10-02T09:18:12Z</time>
      </trkpt>
      <trkpt lat="45.97246" lon="4.79884">
        <ele>211</ele>
        <time>2016-10-02T09:18:13Z</time>
      </trkpt>
      <trkpt lat="45.97248" lon="4.79893">
        <ele>211</ele>
        <time>2016-10-02T09:18:15Z</time>
      </trkpt>
      <trkpt lat="45.9725" lon="4.79898">
        <ele>211</ele>
        <time>2016-10-02T09:18:16Z</time>
      </trkpt>
      <trkpt lat="45.97253" lon="4.79906">
        <ele>213</ele>
        <time>2016-10-02T09:18:18Z</time>
      </trkpt>
      <trkpt lat="45.97254" lon="4.79909">
        <ele>212</ele>
        <time>2016-10-02T09:18:19Z</time>
      </trkpt>
      <trkpt lat="45.97258" lon="4.7992">
        <ele>212</ele>
        <time>2016-10-02T09:18:23Z</time>
      </trkpt>
      <trkpt lat="45.9726" lon="4.79922">
        <ele>212</ele>
        <time>2016-10-02T09:18:24Z</time>
      </trkpt>
      <trkpt lat="45.97266" lon="4.79923">
        <ele>212</ele>
        <time>2016-10-02T09:18:26Z</time>
      </trkpt>
      <trkpt lat="45.9727" lon="4.79923">
        <ele>212</ele>
        <time>2016-10-02T09:18:27Z</time>
      </trkpt>
      <trkpt lat="45.97278" lon="4.79927">
        <ele>212</ele>
        <time>2016-10-02T09:18:29Z</time>
      </trkpt>
      <trkpt lat="45.97283" lon="4.79926">
        <ele>212</ele>
        <time>2016-10-02T09:18:30Z</time>
      </trkpt>
      <trkpt lat="45.97287" lon="4.79929">
        <ele>212</ele>
        <time>2016-10-02T09:18:31Z</time>
      </trkpt>
      <trkpt lat="45.97291" lon="4.79935">
        <ele>212</ele>
        <time>2016-10-02T09:18:32Z</time>
      </trkpt>
      <trkpt lat="45.97295" lon="4.79939">
        <ele>212</ele>
        <time>2016-10-02T09:18:33Z</time>
      </trkpt>
      <trkpt lat="45.973" lon="4.79934">
        <ele>212</ele>
        <time>2016-10-02T09:18:34Z</time>
      </trkpt>
      <trkpt lat="45.97308" lon="4.79931">
        <ele>212</ele>
        <time>2016-10-02T09:18:36Z</time>
      </trkpt>
      <trkpt lat="45.97312" lon="4.7993">
        <ele>212</ele>
        <time>2016-10-02T09:18:37Z</time>
      </trkpt>
      <trkpt lat="45.9732" lon="4.79928">
        <ele>212</ele>
        <time>2016-10-02T09:18:39Z</time>
      </trkpt>
      <trkpt lat="45.97325" lon="4.79925">
        <ele>212</ele>
        <time>2016-10-02T09:18:40Z</time>
      </trkpt>
      <trkpt lat="45.97329" lon="4.79922">
        <ele>213</ele>
        <time>2016-10-02T09:18:41Z</time>
      </trkpt>
      <trkpt lat="45.97334" lon="4.79922">
        <ele>213</ele>
        <time>2016-10-02T09:18:42Z</time>
      </trkpt>
      <trkpt lat="45.97339" lon="4.79922">
        <ele>213</ele>
        <time>2016-10-02T09:18:43Z</time>
      </trkpt>
      <trkpt lat="45.97343" lon="4.7992">
        <ele>213</ele>
        <time>2016-10-02T09:18:44Z</time>
      </trkpt>
      <trkpt lat="45.97348" lon="4.79916">
        <ele>215</ele>
        <time>2016-10-02T09:18:45Z</time>
      </trkpt>
      <trkpt lat="45.97353" lon="4.79917">
        <ele>213</ele>
        <time>2016-10-02T09:18:46Z</time>
      </trkpt>
      <trkpt lat="45.97358" lon="4.79919">
        <ele>213</ele>
        <time>2016-10-02T09:18:47Z</time>
      </trkpt>
      <trkpt lat="45.97366" lon="4.79921">
        <ele>213</ele>
        <time>2016-10-02T09:18:48Z</time>
      </trkpt>
      <trkpt lat="45.97368" lon="4.79909">
        <ele>216</ele>
        <time>2016-10-02T09:18:50Z</time>
      </trkpt>
      <trkpt lat="45.97371" lon="4.79907">
        <ele>217</ele>
        <time>2016-10-02T09:18:51Z</time>
      </trkpt>
      <trkpt lat="45.97377" lon="4.79897">
        <ele>217</ele>
        <time>2016-10-02T09:18:53Z</time>
      </trkpt>
      <trkpt lat="45.97379" lon="4.79892">
        <ele>217</ele>
        <time>2016-10-02T09:18:54Z</time>
      </trkpt>
      <trkpt lat="45.97383" lon="4.79896">
        <ele>217</ele>
        <time>2016-10-02T09:18:56Z</time>
      </trkpt>
      <trkpt lat="45.97387" lon="4.79905">
        <ele>217</ele>
        <time>2016-10-02T09:18:57Z</time>
      </trkpt>
      <trkpt lat="45.97393" lon="4.79904">
        <ele>217</ele>
        <time>2016-10-02T09:18:58Z</time>
      </trkpt>
      <trkpt lat="45.974" lon="4.79908">
        <ele>217</ele>
        <time>2016-10-02T09:18:59Z</time>
      </trkpt>
      <trkpt lat="45.97406" lon="4.79909">
        <ele>217</ele>
        <time>2016-10-02T09:19:00Z</time>
      </trkpt>
      <trkpt lat="45.9741" lon="4.7991">
        <ele>217</ele>
        <time>2016-10-02T09:19:01Z</time>
      </trkpt>
      <trkpt lat="45.97415" lon="4.79911">
        <ele>216</ele>
        <time>2016-10-02T09:19:02Z</time>
      </trkpt>
      <trkpt lat="45.97421" lon="4.79909">
        <ele>218</ele>
        <time>2016-10-02T09:19:03Z</time>
      </trkpt>
      <trkpt lat="45.97425" lon="4.79907">
        <ele>218</ele>
        <time>2016-10-02T09:19:04Z</time>
      </trkpt>
      <trkpt lat="45.9743" lon="4.79907">
        <ele>219</ele>
        <time>2016-10-02T09:19:05Z</time>
      </trkpt>
      <trkpt lat="45.97435" lon="4.79907">
        <ele>219</ele>
        <time>2016-10-02T09:19:06Z</time>
      </trkpt>
      <trkpt lat="45.97439" lon="4.7991">
        <ele>219</ele>
        <time>2016-10-02T09:19:07Z</time>
      </trkpt>
      <trkpt lat="45.97443" lon="4.79913">
        <ele>219</ele>
        <time>2016-10-02T09:19:08Z</time>
      </trkpt>
      <trkpt lat="45.97447" lon="4.79915">
        <ele>219</ele>
        <time>2016-10-02T09:19:09Z</time>
      </trkpt>
      <trkpt lat="45.97455" lon="4.79914">
        <ele>220</ele>
        <time>2016-10-02T09:19:11Z</time>
      </trkpt>
      <trkpt lat="45.97459" lon="4.79914">
        <ele>220</ele>
        <time>2016-10-02T09:19:12Z</time>
      </trkpt>
      <trkpt lat="45.97468" lon="4.79912">
        <ele>220</ele>
        <time>2016-10-02T09:19:14Z</time>
      </trkpt>
      <trkpt lat="45.97472" lon="4.79912">
        <ele>220</ele>
        <time>2016-10-02T09:19:15Z</time>
      </trkpt>
      <trkpt lat="45.97479" lon="4.79912">
        <ele>220</ele>
        <time>2016-10-02T09:19:17Z</time>
      </trkpt>
      <trkpt lat="45.97482" lon="4.7991">
        <ele>220</ele>
        <time>2016-10-02T09:19:18Z</time>
      </trkpt>
      <trkpt lat="45.97491" lon="4.79905">
        <ele>220</ele>
        <time>2016-10-02T09:19:20Z</time>
      </trkpt>
      <trkpt lat="45.97495" lon="4.79902">
        <ele>220</ele>
        <time>2016-10-02T09:19:21Z</time>
      </trkpt>
      <trkpt lat="45.97501" lon="4.79905">
        <ele>220</ele>
        <time>2016-10-02T09:19:23Z</time>
      </trkpt>
      <trkpt lat="45.97505" lon="4.79905">
        <ele>220</ele>
        <time>2016-10-02T09:19:24Z</time>
      </trkpt>
      <trkpt lat="45.97514" lon="4.79905">
        <ele>220</ele>
        <time>2016-10-02T09:19:26Z</time>
      </trkpt>
      <trkpt lat="45.97518" lon="4.79905">
        <ele>221</ele>
        <time>2016-10-02T09:19:27Z</time>
      </trkpt>
      <trkpt lat="45.97525" lon="4.79901">
        <ele>221</ele>
        <time>2016-10-02T09:19:29Z</time>
      </trkpt>
      <trkpt lat="45.97529" lon="4.79899">
        <ele>221</ele>
        <time>2016-10-02T09:19:30Z</time>
      </trkpt>
      <trkpt lat="45.97536" lon="4.79895">
        <ele>221</ele>
        <time>2016-10-02T09:19:32Z</time>
      </trkpt>
      <trkpt lat="45.97541" lon="4.79892">
        <ele>221</ele>
        <time>2016-10-02T09:19:33Z</time>
      </trkpt>
      <trkpt lat="45.97548" lon="4.7989">
        <ele>221</ele>
        <time>2016-10-02T09:19:35Z</time>
      </trkpt>
      <trkpt lat="45.97551" lon="4.79891">
        <ele>221</ele>
        <time>2016-10-02T09:19:36Z</time>
      </trkpt>
      <trkpt lat="45.97559" lon="4.7989">
        <ele>221</ele>
        <time>2016-10-02T09:19:38Z</time>
      </trkpt>
      <trkpt lat="45.97562" lon="4.79888">
        <ele>221</ele>
        <time>2016-10-02T09:19:39Z</time>
      </trkpt>
      <trkpt lat="45.97569" lon="4.79886">
        <ele>221</ele>
        <time>2016-10-02T09:19:41Z</time>
      </trkpt>
      <trkpt lat="45.97573" lon="4.79886">
        <ele>221</ele>
        <time>2016-10-02T09:19:42Z</time>
      </trkpt>
      <trkpt lat="45.9758" lon="4.79885">
        <ele>221</ele>
        <time>2016-10-02T09:19:44Z</time>
      </trkpt>
      <trkpt lat="45.97583" lon="4.79884">
        <ele>221</ele>
        <time>2016-10-02T09:19:45Z</time>
      </trkpt>
      <trkpt lat="45.9759" lon="4.79883">
        <ele>220</ele>
        <time>2016-10-02T09:19:47Z</time>
      </trkpt>
      <trkpt lat="45.97593" lon="4.79882">
        <ele>220</ele>
        <time>2016-10-02T09:19:48Z</time>
      </trkpt>
      <trkpt lat="45.976" lon="4.79881">
        <ele>220</ele>
        <time>2016-10-02T09:19:50Z</time>
      </trkpt>
      <trkpt lat="45.97603" lon="4.79881">
        <ele>220</ele>
        <time>2016-10-02T09:19:51Z</time>
      </trkpt>
      <trkpt lat="45.97611" lon="4.79876">
        <ele>220</ele>
        <time>2016-10-02T09:19:53Z</time>
      </trkpt>
      <trkpt lat="45.97615" lon="4.79876">
        <ele>220</ele>
        <time>2016-10-02T09:19:54Z</time>
      </trkpt>
      <trkpt lat="45.97622" lon="4.79873">
        <ele>220</ele>
        <time>2016-10-02T09:19:56Z</time>
      </trkpt>
      <trkpt lat="45.97626" lon="4.79871">
        <ele>220</ele>
        <time>2016-10-02T09:19:57Z</time>
      </trkpt>
      <trkpt lat="45.97633" lon="4.79867">
        <ele>220</ele>
        <time>2016-10-02T09:19:59Z</time>
      </trkpt>
      <trkpt lat="45.97637" lon="4.79866">
        <ele>220</ele>
        <time>2016-10-02T09:20:00Z</time>
      </trkpt>
      <trkpt lat="45.97645" lon="4.79863">
        <ele>220</ele>
        <time>2016-10-02T09:20:02Z</time>
      </trkpt>
      <trkpt lat="45.97648" lon="4.79862">
        <ele>221</ele>
        <time>2016-10-02T09:20:03Z</time>
      </trkpt>
      <trkpt lat="45.97656" lon="4.79859">
        <ele>221</ele>
        <time>2016-10-02T09:20:05Z</time>
      </trkpt>
      <trkpt lat="45.9766" lon="4.79857">
        <ele>221</ele>
        <time>2016-10-02T09:20:06Z</time>
      </trkpt>
      <trkpt lat="45.97668" lon="4.79854">
        <ele>220</ele>
        <time>2016-10-02T09:20:08Z</time>
      </trkpt>
      <trkpt lat="45.97672" lon="4.79854">
        <ele>220</ele>
        <time>2016-10-02T09:20:09Z</time>
      </trkpt>
      <trkpt lat="45.9768" lon="4.79852">
        <ele>220</ele>
        <time>2016-10-02T09:20:11Z</time>
      </trkpt>
      <trkpt lat="45.97684" lon="4.79851">
        <ele>220</ele>
        <time>2016-10-02T09:20:12Z</time>
      </trkpt>
      <trkpt lat="45.97693" lon="4.79848">
        <ele>220</ele>
        <time>2016-10-02T09:20:14Z</time>
      </trkpt>
      <trkpt lat="45.97698" lon="4.79846">
        <ele>220</ele>
        <time>2016-10-02T09:20:15Z</time>
      </trkpt>
      <trkpt lat="45.97706" lon="4.79843">
        <ele>220</ele>
        <time>2016-10-02T09:20:17Z</time>
      </trkpt>
      <trkpt lat="45.97711" lon="4.79842">
        <ele>220</ele>
        <time>2016-10-02T09:20:18Z</time>
      </trkpt>
      <trkpt lat="45.97715" lon="4.79842">
        <ele>220</ele>
        <time>2016-10-02T09:20:19Z</time>
      </trkpt>
      <trkpt lat="45.9772" lon="4.7984">
        <ele>220</ele>
        <time>2016-10-02T09:20:20Z</time>
      </trkpt>
      <trkpt lat="45.97725" lon="4.79839">
        <ele>220</ele>
        <time>2016-10-02T09:20:21Z</time>
      </trkpt>
      <trkpt lat="45.9773" lon="4.79837">
        <ele>221</ele>
        <time>2016-10-02T09:20:22Z</time>
      </trkpt>
      <trkpt lat="45.97735" lon="4.79838">
        <ele>221</ele>
        <time>2016-10-02T09:20:23Z</time>
      </trkpt>
      <trkpt lat="45.9774" lon="4.79839">
        <ele>221</ele>
        <time>2016-10-02T09:20:24Z</time>
      </trkpt>
      <trkpt lat="45.97745" lon="4.7984">
        <ele>221</ele>
        <time>2016-10-02T09:20:25Z</time>
      </trkpt>
      <trkpt lat="45.9775" lon="4.79838">
        <ele>222</ele>
        <time>2016-10-02T09:20:26Z</time>
      </trkpt>
      <trkpt lat="45.97756" lon="4.79838">
        <ele>222</ele>
        <time>2016-10-02T09:20:27Z</time>
      </trkpt>
      <trkpt lat="45.97761" lon="4.79836">
        <ele>222</ele>
        <time>2016-10-02T09:20:28Z</time>
      </trkpt>
      <trkpt lat="45.97767" lon="4.79835">
        <ele>221</ele>
        <time>2016-10-02T09:20:29Z</time>
      </trkpt>
      <trkpt lat="45.97772" lon="4.79834">
        <ele>221</ele>
        <time>2016-10-02T09:20:30Z</time>
      </trkpt>
      <trkpt lat="45.97777" lon="4.79834">
        <ele>221</ele>
        <time>2016-10-02T09:20:31Z</time>
      </trkpt>
      <trkpt lat="45.97783" lon="4.79833">
        <ele>223</ele>
        <time>2016-10-02T09:20:32Z</time>
      </trkpt>
      <trkpt lat="45.97788" lon="4.79832">
        <ele>223</ele>
        <time>2016-10-02T09:20:33Z</time>
      </trkpt>
      <trkpt lat="45.97793" lon="4.79831">
        <ele>223</ele>
        <time>2016-10-02T09:20:34Z</time>
      </trkpt>
      <trkpt lat="45.97798" lon="4.7983">
        <ele>223</ele>
        <time>2016-10-02T09:20:35Z</time>
      </trkpt>
      <trkpt lat="45.97803" lon="4.79827">
        <ele>223</ele>
        <time>2016-10-02T09:20:36Z</time>
      </trkpt>
      <trkpt lat="45.97808" lon="4.79826">
        <ele>223</ele>
        <time>2016-10-02T09:20:37Z</time>
      </trkpt>
      <trkpt lat="45.97813" lon="4.79826">
        <ele>223</ele>
        <time>2016-10-02T09:20:38Z</time>
      </trkpt>
      <trkpt lat="45.97821" lon="4.79821">
        <ele>223</ele>
        <time>2016-10-02T09:20:40Z</time>
      </trkpt>
      <trkpt lat="45.97826" lon="4.79821">
        <ele>223</ele>
        <time>2016-10-02T09:20:41Z</time>
      </trkpt>
      <trkpt lat="45.97831" lon="4.79819">
        <ele>223</ele>
        <time>2016-10-02T09:20:42Z</time>
      </trkpt>
      <trkpt lat="45.97836" lon="4.79817">
        <ele>224</ele>
        <time>2016-10-02T09:20:43Z</time>
      </trkpt>
      <trkpt lat="45.97843" lon="4.79817">
        <ele>224</ele>
        <time>2016-10-02T09:20:44Z</time>
      </trkpt>
      <trkpt lat="45.97848" lon="4.79817">
        <ele>224</ele>
        <time>2016-10-02T09:20:45Z</time>
      </trkpt>
      <trkpt lat="45.97852" lon="4.79818">
        <ele>224</ele>
        <time>2016-10-02T09:20:46Z</time>
      </trkpt>
      <trkpt lat="45.97857" lon="4.79817">
        <ele>224</ele>
        <time>2016-10-02T09:20:47Z</time>
      </trkpt>
      <trkpt lat="45.97866" lon="4.79815">
        <ele>224</ele>
        <time>2016-10-02T09:20:48Z</time>
      </trkpt>
      <trkpt lat="45.97871" lon="4.7981">
        <ele>224</ele>
        <time>2016-10-02T09:20:49Z</time>
      </trkpt>
      <trkpt lat="45.97877" lon="4.79806">
        <ele>224</ele>
        <time>2016-10-02T09:20:50Z</time>
      </trkpt>
      <trkpt lat="45.97883" lon="4.79806">
        <ele>224</ele>
        <time>2016-10-02T09:20:51Z</time>
      </trkpt>
      <trkpt lat="45.9789" lon="4.79803">
        <ele>224</ele>
        <time>2016-10-02T09:20:52Z</time>
      </trkpt>
      <trkpt lat="45.97896" lon="4.79797">
        <ele>224</ele>
        <time>2016-10-02T09:20:53Z</time>
      </trkpt>
      <trkpt lat="45.97903" lon="4.79789">
        <ele>225</ele>
        <time>2016-10-02T09:20:54Z</time>
      </trkpt>
      <trkpt lat="45.97908" lon="4.79787">
        <ele>225</ele>
        <time>2016-10-02T09:20:55Z</time>
      </trkpt>
      <trkpt lat="45.97913" lon="4.79787">
        <ele>225</ele>
        <time>2016-10-02T09:20:56Z</time>
      </trkpt>
      <trkpt lat="45.97918" lon="4.79783">
        <ele>225</ele>
        <time>2016-10-02T09:20:57Z</time>
      </trkpt>
      <trkpt lat="45.97924" lon="4.7978">
        <ele>225</ele>
        <time>2016-10-02T09:20:58Z</time>
      </trkpt>
      <trkpt lat="45.97929" lon="4.79778">
        <ele>225</ele>
        <time>2016-10-02T09:20:59Z</time>
      </trkpt>
      <trkpt lat="45.97934" lon="4.79778">
        <ele>225</ele>
        <time>2016-10-02T09:21:00Z</time>
      </trkpt>
      <trkpt lat="45.97939" lon="4.79779">
        <ele>225</ele>
        <time>2016-10-02T09:21:01Z</time>
      </trkpt>
      <trkpt lat="45.97944" lon="4.79779">
        <ele>224</ele>
        <time>2016-10-02T09:21:02Z</time>
      </trkpt>
      <trkpt lat="45.97949" lon="4.7978">
        <ele>224</ele>
        <time>2016-10-02T09:21:03Z</time>
      </trkpt>
      <trkpt lat="45.97954" lon="4.79781">
        <ele>224</ele>
        <time>2016-10-02T09:21:04Z</time>
      </trkpt>
      <trkpt lat="45.97959" lon="4.79782">
        <ele>224</ele>
        <time>2016-10-02T09:21:05Z</time>
      </trkpt>
      <trkpt lat="45.97964" lon="4.79783">
        <ele>224</ele>
        <time>2016-10-02T09:21:06Z</time>
      </trkpt>
      <trkpt lat="45.97969" lon="4.79783">
        <ele>224</ele>
        <time>2016-10-02T09:21:07Z</time>
      </trkpt>
      <trkpt lat="45.97974" lon="4.79783">
        <ele>224</ele>
        <time>2016-10-02T09:21:08Z</time>
      </trkpt>
      <trkpt lat="45.97979" lon="4.79784">
        <ele>224</ele>
        <time>2016-10-02T09:21:09Z</time>
      </trkpt>
      <trkpt lat="45.97983" lon="4.79787">
        <ele>224</ele>
        <time>2016-10-02T09:21:10Z</time>
      </trkpt>
      <trkpt lat="45.97988" lon="4.79785">
        <ele>224</ele>
        <time>2016-10-02T09:21:11Z</time>
      </trkpt>
      <trkpt lat="45.97993" lon="4.79783">
        <ele>224</ele>
        <time>2016-10-02T09:21:12Z</time>
      </trkpt>
      <trkpt lat="45.97998" lon="4.79782">
        <ele>224</ele>
        <time>2016-10-02T09:21:13Z</time>
      </trkpt>
      <trkpt lat="45.98003" lon="4.79783">
        <ele>223</ele>
        <time>2016-10-02T09:21:14Z</time>
      </trkpt>
      <trkpt lat="45.98008" lon="4.79784">
        <ele>223</ele>
        <time>2016-10-02T09:21:15Z</time>
      </trkpt>
      <trkpt lat="45.98012" lon="4.79786">
        <ele>223</ele>
        <time>2016-10-02T09:21:16Z</time>
      </trkpt>
      <trkpt lat="45.98017" lon="4.79787">
        <ele>223</ele>
        <time>2016-10-02T09:21:17Z</time>
      </trkpt>
      <trkpt lat="45.98022" lon="4.79787">
        <ele>223</ele>
        <time>2016-10-02T09:21:18Z</time>
      </trkpt>
      <trkpt lat="45.98027" lon="4.79788">
        <ele>223</ele>
        <time>2016-10-02T09:21:19Z</time>
      </trkpt>
      <trkpt lat="45.98032" lon="4.79788">
        <ele>223</ele>
        <time>2016-10-02T09:21:20Z</time>
      </trkpt>
      <trkpt lat="45.98037" lon="4.79788">
        <ele>223</ele>
        <time>2016-10-02T09:21:21Z</time>
      </trkpt>
      <trkpt lat="45.98042" lon="4.79788">
        <ele>223</ele>
        <time>2016-10-02T09:21:22Z</time>
      </trkpt>
      <trkpt lat="45.98047" lon="4.79787">
        <ele>223</ele>
        <time>2016-10-02T09:21:23Z</time>
      </trkpt>
      <trkpt lat="45.98053" lon="4.79785">
        <ele>223</ele>
        <time>2016-10-02T09:21:24Z</time>
      </trkpt>
      <trkpt lat="45.98059" lon="4.79786">
        <ele>223</ele>
        <time>2016-10-02T09:21:25Z</time>
      </trkpt>
      <trkpt lat="45.98064" lon="4.79786">
        <ele>223</ele>
        <time>2016-10-02T09:21:26Z</time>
      </trkpt>
      <trkpt lat="45.98069" lon="4.79785">
        <ele>223</ele>
        <time>2016-10-02T09:21:27Z</time>
      </trkpt>
      <trkpt lat="45.98074" lon="4.79784">
        <ele>223</ele>
        <time>2016-10-02T09:21:28Z</time>
      </trkpt>
      <trkpt lat="45.98079" lon="4.79783">
        <ele>223</ele>
        <time>2016-10-02T09:21:29Z</time>
      </trkpt>
      <trkpt lat="45.98085" lon="4.79782">
        <ele>223</ele>
        <time>2016-10-02T09:21:30Z</time>
      </trkpt>
      <trkpt lat="45.9809" lon="4.7978">
        <ele>223</ele>
        <time>2016-10-02T09:21:31Z</time>
      </trkpt>
      <trkpt lat="45.98095" lon="4.79779">
        <ele>223</ele>
        <time>2016-10-02T09:21:32Z</time>
      </trkpt>
      <trkpt lat="45.981" lon="4.79777">
        <ele>223</ele>
        <time>2016-10-02T09:21:33Z</time>
      </trkpt>
      <trkpt lat="45.98105" lon="4.79776">
        <ele>224</ele>
        <time>2016-10-02T09:21:34Z</time>
      </trkpt>
      <trkpt lat="45.9811" lon="4.79776">
        <ele>224</ele>
        <time>2016-10-02T09:21:35Z</time>
      </trkpt>
      <trkpt lat="45.98115" lon="4.79775">
        <ele>224</ele>
        <time>2016-10-02T09:21:36Z</time>
      </trkpt>
      <trkpt lat="45.9812" lon="4.79775">
        <ele>224</ele>
        <time>2016-10-02T09:21:37Z</time>
      </trkpt>
      <trkpt lat="45.98126" lon="4.79774">
        <ele>224</ele>
        <time>2016-10-02T09:21:38Z</time>
      </trkpt>
      <trkpt lat="45.98131" lon="4.79773">
        <ele>224</ele>
        <time>2016-10-02T09:21:39Z</time>
      </trkpt>
      <trkpt lat="45.98136" lon="4.79773">
        <ele>224</ele>
        <time>2016-10-02T09:21:40Z</time>
      </trkpt>
      <trkpt lat="45.98142" lon="4.79772">
        <ele>224</ele>
        <time>2016-10-02T09:21:41Z</time>
      </trkpt>
      <trkpt lat="45.98147" lon="4.79772">
        <ele>224</ele>
        <time>2016-10-02T09:21:42Z</time>
      </trkpt>
      <trkpt lat="45.98152" lon="4.79771">
        <ele>225</ele>
        <time>2016-10-02T09:21:43Z</time>
      </trkpt>
      <trkpt lat="45.98156" lon="4.79771">
        <ele>225</ele>
        <time>2016-10-02T09:21:44Z</time>
      </trkpt>
      <trkpt lat="45.98163" lon="4.79773">
        <ele>225</ele>
        <time>2016-10-02T09:21:46Z</time>
      </trkpt>
      <trkpt lat="45.98166" lon="4.79775">
        <ele>225</ele>
        <time>2016-10-02T09:21:47Z</time>
      </trkpt>
      <trkpt lat="45.98173" lon="4.7978">
        <ele>226</ele>
        <time>2016-10-02T09:21:49Z</time>
      </trkpt>
      <trkpt lat="45.98176" lon="4.79783">
        <ele>226</ele>
        <time>2016-10-02T09:21:50Z</time>
      </trkpt>
      <trkpt lat="45.98181" lon="4.79792">
        <ele>226</ele>
        <time>2016-10-02T09:21:52Z</time>
      </trkpt>
      <trkpt lat="45.98184" lon="4.79799">
        <ele>226</ele>
        <time>2016-10-02T09:21:53Z</time>
      </trkpt>
      <trkpt lat="45.98187" lon="4.79806">
        <ele>226</ele>
        <time>2016-10-02T09:21:54Z</time>
      </trkpt>
      <trkpt lat="45.9819" lon="4.79812">
        <ele>225</ele>
        <time>2016-10-02T09:21:55Z</time>
      </trkpt>
      <trkpt lat="45.98192" lon="4.7982">
        <ele>225</ele>
        <time>2016-10-02T09:21:56Z</time>
      </trkpt>
      <trkpt lat="45.98195" lon="4.79828">
        <ele>225</ele>
        <time>2016-10-02T09:21:57Z</time>
      </trkpt>
      <trkpt lat="45.98199" lon="4.79836">
        <ele>225</ele>
        <time>2016-10-02T09:21:58Z</time>
      </trkpt>
      <trkpt lat="45.98202" lon="4.79845">
        <ele>225</ele>
        <time>2016-10-02T09:21:59Z</time>
      </trkpt>
      <trkpt lat="45.98205" lon="4.79854">
        <ele>225</ele>
        <time>2016-10-02T09:22:00Z</time>
      </trkpt>
      <trkpt lat="45.98208" lon="4.79863">
        <ele>225</ele>
        <time>2016-10-02T09:22:01Z</time>
      </trkpt>
      <trkpt lat="45.98211" lon="4.79873">
        <ele>225</ele>
        <time>2016-10-02T09:22:02Z</time>
      </trkpt>
      <trkpt lat="45.98215" lon="4.79882">
        <ele>225</ele>
        <time>2016-10-02T09:22:03Z</time>
      </trkpt>
      <trkpt lat="45.98218" lon="4.7989">
        <ele>225</ele>
        <time>2016-10-02T09:22:04Z</time>
      </trkpt>
      <trkpt lat="45.98222" lon="4.79899">
        <ele>225</ele>
        <time>2016-10-02T09:22:05Z</time>
      </trkpt>
      <trkpt lat="45.98225" lon="4.79909">
        <ele>225</ele>
        <time>2016-10-02T09:22:06Z</time>
      </trkpt>
      <trkpt lat="45.98228" lon="4.79917">
        <ele>225</ele>
        <time>2016-10-02T09:22:07Z</time>
      </trkpt>
      <trkpt lat="45.98231" lon="4.79925">
        <ele>225</ele>
        <time>2016-10-02T09:22:08Z</time>
      </trkpt>
      <trkpt lat="45.98234" lon="4.79933">
        <ele>225</ele>
        <time>2016-10-02T09:22:09Z</time>
      </trkpt>
      <trkpt lat="45.98236" lon="4.79942">
        <ele>225</ele>
        <time>2016-10-02T09:22:10Z</time>
      </trkpt>
      <trkpt lat="45.98238" lon="4.7995">
        <ele>225</ele>
        <time>2016-10-02T09:22:11Z</time>
      </trkpt>
      <trkpt lat="45.9824" lon="4.79957">
        <ele>225</ele>
        <time>2016-10-02T09:22:12Z</time>
      </trkpt>
      <trkpt lat="45.98243" lon="4.79965">
        <ele>225</ele>
        <time>2016-10-02T09:22:13Z</time>
      </trkpt>
      <trkpt lat="45.98246" lon="4.79974">
        <ele>225</ele>
        <time>2016-10-02T09:22:14Z</time>
      </trkpt>
      <trkpt lat="45.98248" lon="4.79983">
        <ele>225</ele>
        <time>2016-10-02T09:22:15Z</time>
      </trkpt>
      <trkpt lat="45.98251" lon="4.79993">
        <ele>227</ele>
        <time>2016-10-02T09:22:16Z</time>
      </trkpt>
      <trkpt lat="45.98254" lon="4.80002">
        <ele>227</ele>
        <time>2016-10-02T09:22:17Z</time>
      </trkpt>
      <trkpt lat="45.98257" lon="4.80011">
        <ele>227</ele>
        <time>2016-10-02T09:22:18Z</time>
      </trkpt>
      <trkpt lat="45.98259" lon="4.8002">
        <ele>228</ele>
        <time>2016-10-02T09:22:19Z</time>
      </trkpt>
      <trkpt lat="45.98262" lon="4.80029">
        <ele>228</ele>
        <time>2016-10-02T09:22:20Z</time>
      </trkpt>
      <trkpt lat="45.98265" lon="4.80038">
        <ele>228</ele>
        <time>2016-10-02T09:22:21Z</time>
      </trkpt>
      <trkpt lat="45.98268" lon="4.80048">
        <ele>229</ele>
        <time>2016-10-02T09:22:22Z</time>
      </trkpt>
      <trkpt lat="45.98271" lon="4.80056">
        <ele>229</ele>
        <time>2016-10-02T09:22:23Z</time>
      </trkpt>
      <trkpt lat="45.98274" lon="4.80064">
        <ele>229</ele>
        <time>2016-10-02T09:22:24Z</time>
      </trkpt>
      <trkpt lat="45.98277" lon="4.80073">
        <ele>229</ele>
        <time>2016-10-02T09:22:25Z</time>
      </trkpt>
      <trkpt lat="45.98281" lon="4.8008">
        <ele>229</ele>
        <time>2016-10-02T09:22:26Z</time>
      </trkpt>
      <trkpt lat="45.98284" lon="4.80089">
        <ele>228</ele>
        <time>2016-10-02T09:22:27Z</time>
      </trkpt>
      <trkpt lat="45.98287" lon="4.80097">
        <ele>228</ele>
        <time>2016-10-02T09:22:28Z</time>
      </trkpt>
      <trkpt lat="45.9829" lon="4.80106">
        <ele>228</ele>
        <time>2016-10-02T09:22:29Z</time>
      </trkpt>
      <trkpt lat="45.98294" lon="4.80115">
        <ele>228</ele>
        <time>2016-10-02T09:22:30Z</time>
      </trkpt>
      <trkpt lat="45.98296" lon="4.80123">
        <ele>228</ele>
        <time>2016-10-02T09:22:31Z</time>
      </trkpt>
      <trkpt lat="45.98299" lon="4.80132">
        <ele>228</ele>
        <time>2016-10-02T09:22:32Z</time>
      </trkpt>
      <trkpt lat="45.98302" lon="4.80141">
        <ele>228</ele>
        <time>2016-10-02T09:22:33Z</time>
      </trkpt>
      <trkpt lat="45.98305" lon="4.80149">
        <ele>228</ele>
        <time>2016-10-02T09:22:34Z</time>
      </trkpt>
      <trkpt lat="45.98308" lon="4.80157">
        <ele>228</ele>
        <time>2016-10-02T09:22:35Z</time>
      </trkpt>
      <trkpt lat="45.98311" lon="4.80166">
        <ele>228</ele>
        <time>2016-10-02T09:22:36Z</time>
      </trkpt>
      <trkpt lat="45.98314" lon="4.80174">
        <ele>227</ele>
        <time>2016-10-02T09:22:37Z</time>
      </trkpt>
      <trkpt lat="45.98317" lon="4.80183">
        <ele>227</ele>
        <time>2016-10-02T09:22:38Z</time>
      </trkpt>
      <trkpt lat="45.9832" lon="4.80191">
        <ele>227</ele>
        <time>2016-10-02T09:22:39Z</time>
      </trkpt>
      <trkpt lat="45.98324" lon="4.80197">
        <ele>227</ele>
        <time>2016-10-02T09:22:40Z</time>
      </trkpt>
      <trkpt lat="45.98327" lon="4.80205">
        <ele>227</ele>
        <time>2016-10-02T09:22:41Z</time>
      </trkpt>
      <trkpt lat="45.9833" lon="4.80213">
        <ele>227</ele>
        <time>2016-10-02T09:22:42Z</time>
      </trkpt>
      <trkpt lat="45.98333" lon="4.8022">
        <ele>227</ele>
        <time>2016-10-02T09:22:43Z</time>
      </trkpt>
      <trkpt lat="45.98334" lon="4.80229">
        <ele>230</ele>
        <time>2016-10-02T09:22:44Z</time>
      </trkpt>
      <trkpt lat="45.98333" lon="4.80238">
        <ele>228</ele>
        <time>2016-10-02T09:22:45Z</time>
      </trkpt>
      <trkpt lat="45.98331" lon="4.80247">
        <ele>229</ele>
        <time>2016-10-02T09:22:46Z</time>
      </trkpt>
      <trkpt lat="45.98329" lon="4.80255">
        <ele>229</ele>
        <time>2016-10-02T09:22:47Z</time>
      </trkpt>
      <trkpt lat="45.98327" lon="4.80263">
        <ele>228</ele>
        <time>2016-10-02T09:22:48Z</time>
      </trkpt>
      <trkpt lat="45.98325" lon="4.80272">
        <ele>227</ele>
        <time>2016-10-02T09:22:49Z</time>
      </trkpt>
      <trkpt lat="45.98323" lon="4.8028">
        <ele>227</ele>
        <time>2016-10-02T09:22:50Z</time>
      </trkpt>
      <trkpt lat="45.98321" lon="4.80289">
        <ele>227</ele>
        <time>2016-10-02T09:22:51Z</time>
      </trkpt>
      <trkpt lat="45.98318" lon="4.80299">
        <ele>226</ele>
        <time>2016-10-02T09:22:52Z</time>
      </trkpt>
      <trkpt lat="45.98315" lon="4.80309">
        <ele>227</ele>
        <time>2016-10-02T09:22:53Z</time>
      </trkpt>
      <trkpt lat="45.98313" lon="4.80319">
        <ele>227</ele>
        <time>2016-10-02T09:22:54Z</time>
      </trkpt>
      <trkpt lat="45.98311" lon="4.8033">
        <ele>227</ele>
        <time>2016-10-02T09:22:55Z</time>
      </trkpt>
      <trkpt lat="45.98308" lon="4.8034">
        <ele>226</ele>
        <time>2016-10-02T09:22:56Z</time>
      </trkpt>
      <trkpt lat="45.98305" lon="4.80351">
        <ele>225</ele>
        <time>2016-10-02T09:22:57Z</time>
      </trkpt>
      <trkpt lat="45.98303" lon="4.80363">
        <ele>225</ele>
        <time>2016-10-02T09:22:58Z</time>
      </trkpt>
      <trkpt lat="45.983" lon="4.80374">
        <ele>225</ele>
        <time>2016-10-02T09:22:59Z</time>
      </trkpt>
      <trkpt lat="45.98298" lon="4.80386">
        <ele>225</ele>
        <time>2016-10-02T09:23:00Z</time>
      </trkpt>
      <trkpt lat="45.98296" lon="4.80398">
        <ele>224</ele>
        <time>2016-10-02T09:23:01Z</time>
      </trkpt>
      <trkpt lat="45.98293" lon="4.80411">
        <ele>224</ele>
        <time>2016-10-02T09:23:02Z</time>
      </trkpt>
      <trkpt lat="45.98291" lon="4.80423">
        <ele>224</ele>
        <time>2016-10-02T09:23:03Z</time>
      </trkpt>
      <trkpt lat="45.98288" lon="4.80434">
        <ele>224</ele>
        <time>2016-10-02T09:23:04Z</time>
      </trkpt>
      <trkpt lat="45.98287" lon="4.80444">
        <ele>224</ele>
        <time>2016-10-02T09:23:05Z</time>
      </trkpt>
      <trkpt lat="45.98285" lon="4.80454">
        <ele>224</ele>
        <time>2016-10-02T09:23:06Z</time>
      </trkpt>
      <trkpt lat="45.98282" lon="4.80463">
        <ele>223</ele>
        <time>2016-10-02T09:23:07Z</time>
      </trkpt>
      <trkpt lat="45.9828" lon="4.80473">
        <ele>223</ele>
        <time>2016-10-02T09:23:08Z</time>
      </trkpt>
      <trkpt lat="45.98279" lon="4.80483">
        <ele>223</ele>
        <time>2016-10-02T09:23:09Z</time>
      </trkpt>
      <trkpt lat="45.98276" lon="4.80493">
        <ele>223</ele>
        <time>2016-10-02T09:23:10Z</time>
      </trkpt>
      <trkpt lat="45.98273" lon="4.80503">
        <ele>223</ele>
        <time>2016-10-02T09:23:11Z</time>
      </trkpt>
      <trkpt lat="45.98269" lon="4.80513">
        <ele>223</ele>
        <time>2016-10-02T09:23:12Z</time>
      </trkpt>
      <trkpt lat="45.98267" lon="4.80523">
        <ele>224</ele>
        <time>2016-10-02T09:23:13Z</time>
      </trkpt>
      <trkpt lat="45.98264" lon="4.80534">
        <ele>224</ele>
        <time>2016-10-02T09:23:14Z</time>
      </trkpt>
      <trkpt lat="45.98262" lon="4.80544">
        <ele>224</ele>
        <time>2016-10-02T09:23:15Z</time>
      </trkpt>
      <trkpt lat="45.98259" lon="4.80554">
        <ele>224</ele>
        <time>2016-10-02T09:23:16Z</time>
      </trkpt>
      <trkpt lat="45.98257" lon="4.80565">
        <ele>224</ele>
        <time>2016-10-02T09:23:17Z</time>
      </trkpt>
      <trkpt lat="45.98254" lon="4.80575">
        <ele>224</ele>
        <time>2016-10-02T09:23:18Z</time>
      </trkpt>
      <trkpt lat="45.98251" lon="4.80584">
        <ele>224</ele>
        <time>2016-10-02T09:23:19Z</time>
      </trkpt>
      <trkpt lat="45.98248" lon="4.80594">
        <ele>224</ele>
        <time>2016-10-02T09:23:20Z</time>
      </trkpt>
      <trkpt lat="45.98246" lon="4.80602">
        <ele>224</ele>
        <time>2016-10-02T09:23:21Z</time>
      </trkpt>
      <trkpt lat="45.98243" lon="4.80611">
        <ele>224</ele>
        <time>2016-10-02T09:23:22Z</time>
      </trkpt>
      <trkpt lat="45.9824" lon="4.8062">
        <ele>224</ele>
        <time>2016-10-02T09:23:23Z</time>
      </trkpt>
      <trkpt lat="45.98238" lon="4.80628">
        <ele>224</ele>
        <time>2016-10-02T09:23:24Z</time>
      </trkpt>
      <trkpt lat="45.98236" lon="4.80636">
        <ele>224</ele>
        <time>2016-10-02T09:23:25Z</time>
      </trkpt>
      <trkpt lat="45.98233" lon="4.80644">
        <ele>223</ele>
        <time>2016-10-02T09:23:26Z</time>
      </trkpt>
      <trkpt lat="45.98229" lon="4.80651">
        <ele>223</ele>
        <time>2016-10-02T09:23:27Z</time>
      </trkpt>
      <trkpt lat="45.98226" lon="4.80658">
        <ele>223</ele>
        <time>2016-10-02T09:23:28Z</time>
      </trkpt>
      <trkpt lat="45.98222" lon="4.80663">
        <ele>224</ele>
        <time>2016-10-02T09:23:29Z</time>
      </trkpt>
      <trkpt lat="45.98218" lon="4.80669">
        <ele>224</ele>
        <time>2016-10-02T09:23:30Z</time>
      </trkpt>
      <trkpt lat="45.98213" lon="4.80672">
        <ele>224</ele>
        <time>2016-10-02T09:23:31Z</time>
      </trkpt>
      <trkpt lat="45.98207" lon="4.80674">
        <ele>224</ele>
        <time>2016-10-02T09:23:32Z</time>
      </trkpt>
      <trkpt lat="45.98201" lon="4.80676">
        <ele>225</ele>
        <time>2016-10-02T09:23:33Z</time>
      </trkpt>
      <trkpt lat="45.98195" lon="4.80678">
        <ele>225</ele>
        <time>2016-10-02T09:23:34Z</time>
      </trkpt>
      <trkpt lat="45.98189" lon="4.8068">
        <ele>225</ele>
        <time>2016-10-02T09:23:35Z</time>
      </trkpt>
      <trkpt lat="45.98184" lon="4.80682">
        <ele>225</ele>
        <time>2016-10-02T09:23:36Z</time>
      </trkpt>
      <trkpt lat="45.98179" lon="4.80684">
        <ele>225</ele>
        <time>2016-10-02T09:23:37Z</time>
      </trkpt>
      <trkpt lat="45.98173" lon="4.80686">
        <ele>225</ele>
        <time>2016-10-02T09:23:38Z</time>
      </trkpt>
      <trkpt lat="45.98168" lon="4.80687">
        <ele>225</ele>
        <time>2016-10-02T09:23:39Z</time>
      </trkpt>
      <trkpt lat="45.98163" lon="4.80689">
        <ele>227</ele>
        <time>2016-10-02T09:23:40Z</time>
      </trkpt>
      <trkpt lat="45.98158" lon="4.80689">
        <ele>227</ele>
        <time>2016-10-02T09:23:41Z</time>
      </trkpt>
      <trkpt lat="45.98152" lon="4.80689">
        <ele>227</ele>
        <time>2016-10-02T09:23:42Z</time>
      </trkpt>
      <trkpt lat="45.98148" lon="4.8069">
        <ele>228</ele>
        <time>2016-10-02T09:23:43Z</time>
      </trkpt>
      <trkpt lat="45.98143" lon="4.8069">
        <ele>228</ele>
        <time>2016-10-02T09:23:44Z</time>
      </trkpt>
      <trkpt lat="45.98138" lon="4.8069">
        <ele>228</ele>
        <time>2016-10-02T09:23:45Z</time>
      </trkpt>
      <trkpt lat="45.98133" lon="4.8069">
        <ele>228</ele>
        <time>2016-10-02T09:23:46Z</time>
      </trkpt>
      <trkpt lat="45.98129" lon="4.8069">
        <ele>228</ele>
        <time>2016-10-02T09:23:47Z</time>
      </trkpt>
      <trkpt lat="45.98124" lon="4.8069">
        <ele>228</ele>
        <time>2016-10-02T09:23:48Z</time>
      </trkpt>
      <trkpt lat="45.98115" lon="4.8069">
        <ele>228</ele>
        <time>2016-10-02T09:23:50Z</time>
      </trkpt>
      <trkpt lat="45.98111" lon="4.8069">
        <ele>228</ele>
        <time>2016-10-02T09:23:51Z</time>
      </trkpt>
      <trkpt lat="45.98102" lon="4.8069">
        <ele>228</ele>
        <time>2016-10-02T09:23:53Z</time>
      </trkpt>
      <trkpt lat="45.98097" lon="4.80691">
        <ele>228</ele>
        <time>2016-10-02T09:23:54Z</time>
      </trkpt>
      <trkpt lat="45.98092" lon="4.80691">
        <ele>228</ele>
        <time>2016-10-02T09:23:55Z</time>
      </trkpt>
      <trkpt lat="45.98087" lon="4.80691">
        <ele>228</ele>
        <time>2016-10-02T09:23:56Z</time>
      </trkpt>
      <trkpt lat="45.98083" lon="4.80691">
        <ele>230</ele>
        <time>2016-10-02T09:23:57Z</time>
      </trkpt>
      <trkpt lat="45.98078" lon="4.8069">
        <ele>230</ele>
        <time>2016-10-02T09:23:58Z</time>
      </trkpt>
      <trkpt lat="45.98069" lon="4.80692">
        <ele>230</ele>
        <time>2016-10-02T09:24:00Z</time>
      </trkpt>
      <trkpt lat="45.98065" lon="4.80694">
        <ele>230</ele>
        <time>2016-10-02T09:24:01Z</time>
      </trkpt>
      <trkpt lat="45.98058" lon="4.80695">
        <ele>230</ele>
        <time>2016-10-02T09:24:03Z</time>
      </trkpt>
      <trkpt lat="45.98054" lon="4.80695">
        <ele>230</ele>
        <time>2016-10-02T09:24:04Z</time>
      </trkpt>
      <trkpt lat="45.98048" lon="4.80696">
        <ele>230</ele>
        <time>2016-10-02T09:24:06Z</time>
      </trkpt>
      <trkpt lat="45.98044" lon="4.80697">
        <ele>230</ele>
        <time>2016-10-02T09:24:07Z</time>
      </trkpt>
      <trkpt lat="45.98037" lon="4.80699">
        <ele>230</ele>
        <time>2016-10-02T09:24:09Z</time>
      </trkpt>
      <trkpt lat="45.98035" lon="4.80702">
        <ele>230</ele>
        <time>2016-10-02T09:24:10Z</time>
      </trkpt>
      <trkpt lat="45.98032" lon="4.8071">
        <ele>231</ele>
        <time>2016-10-02T09:24:12Z</time>
      </trkpt>
      <trkpt lat="45.9803" lon="4.80714">
        <ele>231</ele>
        <time>2016-10-02T09:24:13Z</time>
      </trkpt>
      <trkpt lat="45.98031" lon="4.80722">
        <ele>231</ele>
        <time>2016-10-02T09:24:15Z</time>
      </trkpt>
      <trkpt lat="45.98032" lon="4.80727">
        <ele>231</ele>
        <time>2016-10-02T09:24:16Z</time>
      </trkpt>
      <trkpt lat="45.98034" lon="4.80735">
        <ele>231</ele>
        <time>2016-10-02T09:24:18Z</time>
      </trkpt>
      <trkpt lat="45.98035" lon="4.80739">
        <ele>231</ele>
        <time>2016-10-02T09:24:19Z</time>
      </trkpt>
      <trkpt lat="45.98037" lon="4.80747">
        <ele>231</ele>
        <time>2016-10-02T09:24:21Z</time>
      </trkpt>
      <trkpt lat="45.98038" lon="4.80752">
        <ele>233</ele>
        <time>2016-10-02T09:24:22Z</time>
      </trkpt>
      <trkpt lat="45.98041" lon="4.80762">
        <ele>233</ele>
        <time>2016-10-02T09:24:24Z</time>
      </trkpt>
      <trkpt lat="45.98042" lon="4.80766">
        <ele>233</ele>
        <time>2016-10-02T09:24:25Z</time>
      </trkpt>
      <trkpt lat="45.98045" lon="4.80775">
        <ele>233</ele>
        <time>2016-10-02T09:24:27Z</time>
      </trkpt>
      <trkpt lat="45.98046" lon="4.8078">
        <ele>233</ele>
        <time>2016-10-02T09:24:28Z</time>
      </trkpt>
      <trkpt lat="45.98047" lon="4.8079">
        <ele>233</ele>
        <time>2016-10-02T09:24:30Z</time>
      </trkpt>
      <trkpt lat="45.98048" lon="4.80794">
        <ele>233</ele>
        <time>2016-10-02T09:24:31Z</time>
      </trkpt>
      <trkpt lat="45.9805" lon="4.80803">
        <ele>234</ele>
        <time>2016-10-02T09:24:33Z</time>
      </trkpt>
      <trkpt lat="45.98051" lon="4.80808">
        <ele>234</ele>
        <time>2016-10-02T09:24:34Z</time>
      </trkpt>
      <trkpt lat="45.98051" lon="4.80818">
        <ele>234</ele>
        <time>2016-10-02T09:24:36Z</time>
      </trkpt>
      <trkpt lat="45.98052" lon="4.80822">
        <ele>234</ele>
        <time>2016-10-02T09:24:37Z</time>
      </trkpt>
      <trkpt lat="45.98055" lon="4.8083">
        <ele>234</ele>
        <time>2016-10-02T09:24:39Z</time>
      </trkpt>
      <trkpt lat="45.98056" lon="4.80834">
        <ele>236</ele>
        <time>2016-10-02T09:24:40Z</time>
      </trkpt>
      <trkpt lat="45.98059" lon="4.80842">
        <ele>236</ele>
        <time>2016-10-02T09:24:42Z</time>
      </trkpt>
      <trkpt lat="45.9806" lon="4.80847">
        <ele>236</ele>
        <time>2016-10-02T09:24:43Z</time>
      </trkpt>
      <trkpt lat="45.98063" lon="4.80855">
        <ele>236</ele>
        <time>2016-10-02T09:24:45Z</time>
      </trkpt>
      <trkpt lat="45.98064" lon="4.80859">
        <ele>236</ele>
        <time>2016-10-02T09:24:46Z</time>
      </trkpt>
      <trkpt lat="45.98066" lon="4.80868">
        <ele>237</ele>
        <time>2016-10-02T09:24:48Z</time>
      </trkpt>
      <trkpt lat="45.98067" lon="4.80872">
        <ele>237</ele>
        <time>2016-10-02T09:24:49Z</time>
      </trkpt>
      <trkpt lat="45.9807" lon="4.80883">
        <ele>237</ele>
        <time>2016-10-02T09:24:52Z</time>
      </trkpt>
      <trkpt lat="45.98071" lon="4.80888">
        <ele>238</ele>
        <time>2016-10-02T09:24:53Z</time>
      </trkpt>
      <trkpt lat="45.98073" lon="4.80896">
        <ele>238</ele>
        <time>2016-10-02T09:24:55Z</time>
      </trkpt>
      <trkpt lat="45.98074" lon="4.809">
        <ele>238</ele>
        <time>2016-10-02T09:24:56Z</time>
      </trkpt>
      <trkpt lat="45.98077" lon="4.80912">
        <ele>239</ele>
        <time>2016-10-02T09:24:59Z</time>
      </trkpt>
      <trkpt lat="45.98078" lon="4.80916">
        <ele>239</ele>
        <time>2016-10-02T09:25:00Z</time>
      </trkpt>
      <trkpt lat="45.98081" lon="4.80927">
        <ele>240</ele>
        <time>2016-10-02T09:25:02Z</time>
      </trkpt>
      <trkpt lat="45.98082" lon="4.80931">
        <ele>240</ele>
        <time>2016-10-02T09:25:03Z</time>
      </trkpt>
      <trkpt lat="45.98084" lon="4.80939">
        <ele>238</ele>
        <time>2016-10-02T09:25:05Z</time>
      </trkpt>
      <trkpt lat="45.98086" lon="4.80944">
        <ele>238</ele>
        <time>2016-10-02T09:25:06Z</time>
      </trkpt>
      <trkpt lat="45.98089" lon="4.80955">
        <ele>238</ele>
        <time>2016-10-02T09:25:09Z</time>
      </trkpt>
      <trkpt lat="45.9809" lon="4.80959">
        <ele>239</ele>
        <time>2016-10-02T09:25:10Z</time>
      </trkpt>
      <trkpt lat="45.98093" lon="4.8097">
        <ele>239</ele>
        <time>2016-10-02T09:25:13Z</time>
      </trkpt>
      <trkpt lat="45.98094" lon="4.80973">
        <ele>239</ele>
        <time>2016-10-02T09:25:14Z</time>
      </trkpt>
      <trkpt lat="45.98097" lon="4.80984">
        <ele>240</ele>
        <time>2016-10-02T09:25:17Z</time>
      </trkpt>
      <trkpt lat="45.98098" lon="4.80988">
        <ele>240</ele>
        <time>2016-10-02T09:25:18Z</time>
      </trkpt>
      <trkpt lat="45.98101" lon="4.80996">
        <ele>240</ele>
        <time>2016-10-02T09:25:20Z</time>
      </trkpt>
      <trkpt lat="45.98102" lon="4.81001">
        <ele>242</ele>
        <time>2016-10-02T09:25:21Z</time>
      </trkpt>
      <trkpt lat="45.98106" lon="4.8101">
        <ele>242</ele>
        <time>2016-10-02T09:25:23Z</time>
      </trkpt>
      <trkpt lat="45.98108" lon="4.81016">
        <ele>242</ele>
        <time>2016-10-02T09:25:24Z</time>
      </trkpt>
      <trkpt lat="45.98111" lon="4.81026">
        <ele>242</ele>
        <time>2016-10-02T09:25:26Z</time>
      </trkpt>
      <trkpt lat="45.98113" lon="4.81032">
        <ele>242</ele>
        <time>2016-10-02T09:25:27Z</time>
      </trkpt>
      <trkpt lat="45.98115" lon="4.81042">
        <ele>242</ele>
        <time>2016-10-02T09:25:29Z</time>
      </trkpt>
      <trkpt lat="45.98117" lon="4.81049">
        <ele>243</ele>
        <time>2016-10-02T09:25:30Z</time>
      </trkpt>
      <trkpt lat="45.98119" lon="4.81055">
        <ele>243</ele>
        <time>2016-10-02T09:25:31Z</time>
      </trkpt>
      <trkpt lat="45.98122" lon="4.81062">
        <ele>243</ele>
        <time>2016-10-02T09:25:32Z</time>
      </trkpt>
      <trkpt lat="45.98124" lon="4.81068">
        <ele>243</ele>
        <time>2016-10-02T09:25:33Z</time>
      </trkpt>
      <trkpt lat="45.98126" lon="4.81074">
        <ele>243</ele>
        <time>2016-10-02T09:25:34Z</time>
      </trkpt>
      <trkpt lat="45.98128" lon="4.8108">
        <ele>243</ele>
        <time>2016-10-02T09:25:35Z</time>
      </trkpt>
      <trkpt lat="45.9813" lon="4.81086">
        <ele>245</ele>
        <time>2016-10-02T09:25:36Z</time>
      </trkpt>
      <trkpt lat="45.98135" lon="4.81097">
        <ele>245</ele>
        <time>2016-10-02T09:25:38Z</time>
      </trkpt>
      <trkpt lat="45.98137" lon="4.81102">
        <ele>245</ele>
        <time>2016-10-02T09:25:39Z</time>
      </trkpt>
      <trkpt lat="45.9814" lon="4.81112">
        <ele>245</ele>
        <time>2016-10-02T09:25:41Z</time>
      </trkpt>
      <trkpt lat="45.98143" lon="4.81117">
        <ele>245</ele>
        <time>2016-10-02T09:25:42Z</time>
      </trkpt>
      <trkpt lat="45.98147" lon="4.81127">
        <ele>245</ele>
        <time>2016-10-02T09:25:44Z</time>
      </trkpt>
      <trkpt lat="45.98149" lon="4.81132">
        <ele>245</ele>
        <time>2016-10-02T09:25:45Z</time>
      </trkpt>
      <trkpt lat="45.98154" lon="4.81141">
        <ele>245</ele>
        <time>2016-10-02T09:25:47Z</time>
      </trkpt>
      <trkpt lat="45.98155" lon="4.81146">
        <ele>245</ele>
        <time>2016-10-02T09:25:48Z</time>
      </trkpt>
      <trkpt lat="45.98159" lon="4.81157">
        <ele>245</ele>
        <time>2016-10-02T09:25:50Z</time>
      </trkpt>
      <trkpt lat="45.98161" lon="4.81163">
        <ele>245</ele>
        <time>2016-10-02T09:25:51Z</time>
      </trkpt>
      <trkpt lat="45.98164" lon="4.81173">
        <ele>245</ele>
        <time>2016-10-02T09:25:53Z</time>
      </trkpt>
      <trkpt lat="45.98166" lon="4.81178">
        <ele>246</ele>
        <time>2016-10-02T09:25:54Z</time>
      </trkpt>
      <trkpt lat="45.98168" lon="4.81188">
        <ele>245</ele>
        <time>2016-10-02T09:25:56Z</time>
      </trkpt>
      <trkpt lat="45.98169" lon="4.81194">
        <ele>245</ele>
        <time>2016-10-02T09:25:57Z</time>
      </trkpt>
      <trkpt lat="45.98171" lon="4.81204">
        <ele>245</ele>
        <time>2016-10-02T09:25:59Z</time>
      </trkpt>
      <trkpt lat="45.98172" lon="4.81208">
        <ele>246</ele>
        <time>2016-10-02T09:26:00Z</time>
      </trkpt>
      <trkpt lat="45.98172" lon="4.81219">
        <ele>246</ele>
        <time>2016-10-02T09:26:02Z</time>
      </trkpt>
      <trkpt lat="45.98172" lon="4.81224">
        <ele>246</ele>
        <time>2016-10-02T09:26:03Z</time>
      </trkpt>
      <trkpt lat="45.98173" lon="4.81234">
        <ele>246</ele>
        <time>2016-10-02T09:26:05Z</time>
      </trkpt>
      <trkpt lat="45.98173" lon="4.81239">
        <ele>247</ele>
        <time>2016-10-02T09:26:06Z</time>
      </trkpt>
      <trkpt lat="45.98174" lon="4.81248">
        <ele>247</ele>
        <time>2016-10-02T09:26:08Z</time>
      </trkpt>
      <trkpt lat="45.98175" lon="4.81255">
        <ele>248</ele>
        <time>2016-10-02T09:26:09Z</time>
      </trkpt>
      <trkpt lat="45.98176" lon="4.81265">
        <ele>247</ele>
        <time>2016-10-02T09:26:11Z</time>
      </trkpt>
      <trkpt lat="45.98178" lon="4.8127">
        <ele>247</ele>
        <time>2016-10-02T09:26:12Z</time>
      </trkpt>
      <trkpt lat="45.98177" lon="4.81281">
        <ele>247</ele>
        <time>2016-10-02T09:26:14Z</time>
      </trkpt>
      <trkpt lat="45.98178" lon="4.81288">
        <ele>247</ele>
        <time>2016-10-02T09:26:15Z</time>
      </trkpt>
      <trkpt lat="45.9818" lon="4.81294">
        <ele>247</ele>
        <time>2016-10-02T09:26:16Z</time>
      </trkpt>
      <trkpt lat="45.98182" lon="4.81299">
        <ele>247</ele>
        <time>2016-10-02T09:26:17Z</time>
      </trkpt>
      <trkpt lat="45.98185" lon="4.8131">
        <ele>247</ele>
        <time>2016-10-02T09:26:19Z</time>
      </trkpt>
      <trkpt lat="45.98187" lon="4.81316">
        <ele>247</ele>
        <time>2016-10-02T09:26:20Z</time>
      </trkpt>
      <trkpt lat="45.98191" lon="4.81326">
        <ele>247</ele>
        <time>2016-10-02T09:26:22Z</time>
      </trkpt>
      <trkpt lat="45.98192" lon="4.81332">
        <ele>247</ele>
        <time>2016-10-02T09:26:23Z</time>
      </trkpt>
      <trkpt lat="45.98194" lon="4.81342">
        <ele>248</ele>
        <time>2016-10-02T09:26:25Z</time>
      </trkpt>
      <trkpt lat="45.98196" lon="4.81348">
        <ele>248</ele>
        <time>2016-10-02T09:26:26Z</time>
      </trkpt>
      <trkpt lat="45.98199" lon="4.81358">
        <ele>248</ele>
        <time>2016-10-02T09:26:28Z</time>
      </trkpt>
      <trkpt lat="45.98201" lon="4.81364">
        <ele>248</ele>
        <time>2016-10-02T09:26:29Z</time>
      </trkpt>
      <trkpt lat="45.98202" lon="4.8137">
        <ele>248</ele>
        <time>2016-10-02T09:26:30Z</time>
      </trkpt>
      <trkpt lat="45.98203" lon="4.81377">
        <ele>248</ele>
        <time>2016-10-02T09:26:31Z</time>
      </trkpt>
      <trkpt lat="45.98207" lon="4.81388">
        <ele>248</ele>
        <time>2016-10-02T09:26:33Z</time>
      </trkpt>
      <trkpt lat="45.98209" lon="4.81394">
        <ele>248</ele>
        <time>2016-10-02T09:26:34Z</time>
      </trkpt>
      <trkpt lat="45.98213" lon="4.81404">
        <ele>248</ele>
        <time>2016-10-02T09:26:36Z</time>
      </trkpt>
      <trkpt lat="45.98215" lon="4.81409">
        <ele>248</ele>
        <time>2016-10-02T09:26:37Z</time>
      </trkpt>
      <trkpt lat="45.98218" lon="4.8142">
        <ele>249</ele>
        <time>2016-10-02T09:26:39Z</time>
      </trkpt>
      <trkpt lat="45.9822" lon="4.81426">
        <ele>249</ele>
        <time>2016-10-02T09:26:40Z</time>
      </trkpt>
      <trkpt lat="45.98223" lon="4.81436">
        <ele>249</ele>
        <time>2016-10-02T09:26:42Z</time>
      </trkpt>
      <trkpt lat="45.98224" lon="4.81442">
        <ele>249</ele>
        <time>2016-10-02T09:26:43Z</time>
      </trkpt>
      <trkpt lat="45.98227" lon="4.81454">
        <ele>249</ele>
        <time>2016-10-02T09:26:45Z</time>
      </trkpt>
      <trkpt lat="45.98228" lon="4.81461">
        <ele>249</ele>
        <time>2016-10-02T09:26:46Z</time>
      </trkpt>
      <trkpt lat="45.9823" lon="4.81466">
        <ele>249</ele>
        <time>2016-10-02T09:26:47Z</time>
      </trkpt>
      <trkpt lat="45.98232" lon="4.81472">
        <ele>249</ele>
        <time>2016-10-02T09:26:48Z</time>
      </trkpt>
      <trkpt lat="45.98234" lon="4.81478">
        <ele>249</ele>
        <time>2016-10-02T09:26:49Z</time>
      </trkpt>
      <trkpt lat="45.98237" lon="4.81484">
        <ele>249</ele>
        <time>2016-10-02T09:26:50Z</time>
      </trkpt>
      <trkpt lat="45.98239" lon="4.81491">
        <ele>249</ele>
        <time>2016-10-02T09:26:51Z</time>
      </trkpt>
      <trkpt lat="45.98241" lon="4.81498">
        <ele>249</ele>
        <time>2016-10-02T09:26:52Z</time>
      </trkpt>
      <trkpt lat="45.98244" lon="4.81506">
        <ele>249</ele>
        <time>2016-10-02T09:26:53Z</time>
      </trkpt>
      <trkpt lat="45.98247" lon="4.81513">
        <ele>249</ele>
        <time>2016-10-02T09:26:54Z</time>
      </trkpt>
      <trkpt lat="45.98249" lon="4.8152">
        <ele>249</ele>
        <time>2016-10-02T09:26:55Z</time>
      </trkpt>
      <trkpt lat="45.98252" lon="4.81527">
        <ele>247</ele>
        <time>2016-10-02T09:26:56Z</time>
      </trkpt>
      <trkpt lat="45.98255" lon="4.81534">
        <ele>247</ele>
        <time>2016-10-02T09:26:57Z</time>
      </trkpt>
      <trkpt lat="45.98258" lon="4.8154">
        <ele>247</ele>
        <time>2016-10-02T09:26:58Z</time>
      </trkpt>
      <trkpt lat="45.9826" lon="4.81547">
        <ele>247</ele>
        <time>2016-10-02T09:26:59Z</time>
      </trkpt>
      <trkpt lat="45.98262" lon="4.81555">
        <ele>247</ele>
        <time>2016-10-02T09:27:00Z</time>
      </trkpt>
      <trkpt lat="45.98264" lon="4.81562">
        <ele>247</ele>
        <time>2016-10-02T09:27:01Z</time>
      </trkpt>
      <trkpt lat="45.98266" lon="4.81569">
        <ele>247</ele>
        <time>2016-10-02T09:27:02Z</time>
      </trkpt>
      <trkpt lat="45.98269" lon="4.81575">
        <ele>247</ele>
        <time>2016-10-02T09:27:03Z</time>
      </trkpt>
      <trkpt lat="45.9827" lon="4.81582">
        <ele>247</ele>
        <time>2016-10-02T09:27:04Z</time>
      </trkpt>
      <trkpt lat="45.98272" lon="4.81591">
        <ele>247</ele>
        <time>2016-10-02T09:27:05Z</time>
      </trkpt>
      <trkpt lat="45.98274" lon="4.81599">
        <ele>247</ele>
        <time>2016-10-02T09:27:06Z</time>
      </trkpt>
      <trkpt lat="45.98276" lon="4.81605">
        <ele>247</ele>
        <time>2016-10-02T09:27:07Z</time>
      </trkpt>
      <trkpt lat="45.98279" lon="4.8161">
        <ele>247</ele>
        <time>2016-10-02T09:27:08Z</time>
      </trkpt>
      <trkpt lat="45.98281" lon="4.81616">
        <ele>247</ele>
        <time>2016-10-02T09:27:09Z</time>
      </trkpt>
      <trkpt lat="45.98284" lon="4.81621">
        <ele>247</ele>
        <time>2016-10-02T09:27:10Z</time>
      </trkpt>
      <trkpt lat="45.98286" lon="4.81627">
        <ele>247</ele>
        <time>2016-10-02T09:27:11Z</time>
      </trkpt>
      <trkpt lat="45.98289" lon="4.81632">
        <ele>247</ele>
        <time>2016-10-02T09:27:12Z</time>
      </trkpt>
      <trkpt lat="45.98293" lon="4.81637">
        <ele>247</ele>
        <time>2016-10-02T09:27:13Z</time>
      </trkpt>
      <trkpt lat="45.98297" lon="4.81641">
        <ele>247</ele>
        <time>2016-10-02T09:27:14Z</time>
      </trkpt>
      <trkpt lat="45.983" lon="4.81647">
        <ele>247</ele>
        <time>2016-10-02T09:27:15Z</time>
      </trkpt>
      <trkpt lat="45.98304" lon="4.81653">
        <ele>246</ele>
        <time>2016-10-02T09:27:16Z</time>
      </trkpt>
      <trkpt lat="45.98309" lon="4.81657">
        <ele>246</ele>
        <time>2016-10-02T09:27:17Z</time>
      </trkpt>
      <trkpt lat="45.98313" lon="4.81661">
        <ele>246</ele>
        <time>2016-10-02T09:27:18Z</time>
      </trkpt>
      <trkpt lat="45.98318" lon="4.81665">
        <ele>246</ele>
        <time>2016-10-02T09:27:19Z</time>
      </trkpt>
      <trkpt lat="45.98322" lon="4.81669">
        <ele>246</ele>
        <time>2016-10-02T09:27:20Z</time>
      </trkpt>
      <trkpt lat="45.98327" lon="4.81672">
        <ele>246</ele>
        <time>2016-10-02T09:27:21Z</time>
      </trkpt>
      <trkpt lat="45.98331" lon="4.81675">
        <ele>246</ele>
        <time>2016-10-02T09:27:22Z</time>
      </trkpt>
      <trkpt lat="45.98336" lon="4.81677">
        <ele>245</ele>
        <time>2016-10-02T09:27:23Z</time>
      </trkpt>
      <trkpt lat="45.98341" lon="4.81678">
        <ele>245</ele>
        <time>2016-10-02T09:27:24Z</time>
      </trkpt>
      <trkpt lat="45.98346" lon="4.81681">
        <ele>245</ele>
        <time>2016-10-02T09:27:25Z</time>
      </trkpt>
      <trkpt lat="45.98351" lon="4.81682">
        <ele>245</ele>
        <time>2016-10-02T09:27:26Z</time>
      </trkpt>
      <trkpt lat="45.98356" lon="4.81683">
        <ele>245</ele>
        <time>2016-10-02T09:27:27Z</time>
      </trkpt>
      <trkpt lat="45.98362" lon="4.81683">
        <ele>244</ele>
        <time>2016-10-02T09:27:28Z</time>
      </trkpt>
      <trkpt lat="45.98367" lon="4.81683">
        <ele>244</ele>
        <time>2016-10-02T09:27:29Z</time>
      </trkpt>
      <trkpt lat="45.98373" lon="4.81682">
        <ele>244</ele>
        <time>2016-10-02T09:27:30Z</time>
      </trkpt>
      <trkpt lat="45.98378" lon="4.81683">
        <ele>244</ele>
        <time>2016-10-02T09:27:31Z</time>
      </trkpt>
      <trkpt lat="45.98383" lon="4.81682">
        <ele>244</ele>
        <time>2016-10-02T09:27:32Z</time>
      </trkpt>
      <trkpt lat="45.98388" lon="4.81681">
        <ele>243</ele>
        <time>2016-10-02T09:27:33Z</time>
      </trkpt>
      <trkpt lat="45.98393" lon="4.81679">
        <ele>243</ele>
        <time>2016-10-02T09:27:34Z</time>
      </trkpt>
      <trkpt lat="45.98399" lon="4.81677">
        <ele>243</ele>
        <time>2016-10-02T09:27:35Z</time>
      </trkpt>
      <trkpt lat="45.98404" lon="4.81676">
        <ele>242</ele>
        <time>2016-10-02T09:27:36Z</time>
      </trkpt>
      <trkpt lat="45.98409" lon="4.81674">
        <ele>242</ele>
        <time>2016-10-02T09:27:37Z</time>
      </trkpt>
      <trkpt lat="45.98414" lon="4.81673">
        <ele>242</ele>
        <time>2016-10-02T09:27:38Z</time>
      </trkpt>
      <trkpt lat="45.98419" lon="4.81672">
        <ele>241</ele>
        <time>2016-10-02T09:27:39Z</time>
      </trkpt>
      <trkpt lat="45.98424" lon="4.81673">
        <ele>240</ele>
        <time>2016-10-02T09:27:40Z</time>
      </trkpt>
      <trkpt lat="45.98429" lon="4.81674">
        <ele>240</ele>
        <time>2016-10-02T09:27:41Z</time>
      </trkpt>
      <trkpt lat="45.98434" lon="4.81677">
        <ele>240</ele>
        <time>2016-10-02T09:27:42Z</time>
      </trkpt>
      <trkpt lat="45.98439" lon="4.8168">
        <ele>240</ele>
        <time>2016-10-02T09:27:43Z</time>
      </trkpt>
      <trkpt lat="45.98443" lon="4.81685">
        <ele>239</ele>
        <time>2016-10-02T09:27:44Z</time>
      </trkpt>
      <trkpt lat="45.98447" lon="4.81689">
        <ele>239</ele>
        <time>2016-10-02T09:27:45Z</time>
      </trkpt>
      <trkpt lat="45.98451" lon="4.81695">
        <ele>239</ele>
        <time>2016-10-02T09:27:46Z</time>
      </trkpt>
      <trkpt lat="45.98454" lon="4.81701">
        <ele>239</ele>
        <time>2016-10-02T09:27:47Z</time>
      </trkpt>
      <trkpt lat="45.98459" lon="4.81707">
        <ele>239</ele>
        <time>2016-10-02T09:27:48Z</time>
      </trkpt>
      <trkpt lat="45.98463" lon="4.81713">
        <ele>239</ele>
        <time>2016-10-02T09:27:49Z</time>
      </trkpt>
      <trkpt lat="45.98468" lon="4.81719">
        <ele>239</ele>
        <time>2016-10-02T09:27:50Z</time>
      </trkpt>
      <trkpt lat="45.98473" lon="4.81726">
        <ele>239</ele>
        <time>2016-10-02T09:27:51Z</time>
      </trkpt>
      <trkpt lat="45.98479" lon="4.81732">
        <ele>238</ele>
        <time>2016-10-02T09:27:52Z</time>
      </trkpt>
      <trkpt lat="45.98485" lon="4.81739">
        <ele>238</ele>
        <time>2016-10-02T09:27:53Z</time>
      </trkpt>
      <trkpt lat="45.98491" lon="4.81746">
        <ele>238</ele>
        <time>2016-10-02T09:27:54Z</time>
      </trkpt>
      <trkpt lat="45.98498" lon="4.81752">
        <ele>237</ele>
        <time>2016-10-02T09:27:55Z</time>
      </trkpt>
      <trkpt lat="45.98504" lon="4.81759">
        <ele>237</ele>
        <time>2016-10-02T09:27:56Z</time>
      </trkpt>
      <trkpt lat="45.9851" lon="4.81766">
        <ele>237</ele>
        <time>2016-10-02T09:27:57Z</time>
      </trkpt>
      <trkpt lat="45.98516" lon="4.81774">
        <ele>238</ele>
        <time>2016-10-02T09:27:58Z</time>
      </trkpt>
      <trkpt lat="45.98522" lon="4.81783">
        <ele>238</ele>
        <time>2016-10-02T09:27:59Z</time>
      </trkpt>
      <trkpt lat="45.98528" lon="4.81791">
        <ele>238</ele>
        <time>2016-10-02T09:28:00Z</time>
      </trkpt>
      <trkpt lat="45.98533" lon="4.818">
        <ele>238</ele>
        <time>2016-10-02T09:28:01Z</time>
      </trkpt>
      <trkpt lat="45.98538" lon="4.81808">
        <ele>238</ele>
        <time>2016-10-02T09:28:02Z</time>
      </trkpt>
      <trkpt lat="45.98544" lon="4.81812">
        <ele>238</ele>
        <time>2016-10-02T09:28:03Z</time>
      </trkpt>
      <trkpt lat="45.98549" lon="4.81815">
        <ele>238</ele>
        <time>2016-10-02T09:28:04Z</time>
      </trkpt>
      <trkpt lat="45.98555" lon="4.81816">
        <ele>238</ele>
        <time>2016-10-02T09:28:05Z</time>
      </trkpt>
      <trkpt lat="45.9856" lon="4.81814">
        <ele>238</ele>
        <time>2016-10-02T09:28:06Z</time>
      </trkpt>
      <trkpt lat="45.98565" lon="4.81806">
        <ele>238</ele>
        <time>2016-10-02T09:28:07Z</time>
      </trkpt>
      <trkpt lat="45.9857" lon="4.81801">
        <ele>238</ele>
        <time>2016-10-02T09:28:08Z</time>
      </trkpt>
      <trkpt lat="45.98574" lon="4.81795">
        <ele>238</ele>
        <time>2016-10-02T09:28:09Z</time>
      </trkpt>
      <trkpt lat="45.98579" lon="4.81788">
        <ele>238</ele>
        <time>2016-10-02T09:28:10Z</time>
      </trkpt>
      <trkpt lat="45.98584" lon="4.81783">
        <ele>238</ele>
        <time>2016-10-02T09:28:11Z</time>
      </trkpt>
      <trkpt lat="45.98588" lon="4.81778">
        <ele>238</ele>
        <time>2016-10-02T09:28:12Z</time>
      </trkpt>
      <trkpt lat="45.98594" lon="4.81775">
        <ele>238</ele>
        <time>2016-10-02T09:28:13Z</time>
      </trkpt>
      <trkpt lat="45.98599" lon="4.81771">
        <ele>238</ele>
        <time>2016-10-02T09:28:14Z</time>
      </trkpt>
      <trkpt lat="45.98604" lon="4.81768">
        <ele>238</ele>
        <time>2016-10-02T09:28:15Z</time>
      </trkpt>
      <trkpt lat="45.98609" lon="4.81766">
        <ele>238</ele>
        <time>2016-10-02T09:28:16Z</time>
      </trkpt>
      <trkpt lat="45.98614" lon="4.81765">
        <ele>238</ele>
        <time>2016-10-02T09:28:17Z</time>
      </trkpt>
      <trkpt lat="45.98619" lon="4.81764">
        <ele>238</ele>
        <time>2016-10-02T09:28:18Z</time>
      </trkpt>
      <trkpt lat="45.98625" lon="4.81763">
        <ele>238</ele>
        <time>2016-10-02T09:28:19Z</time>
      </trkpt>
      <trkpt lat="45.9863" lon="4.8176">
        <ele>238</ele>
        <time>2016-10-02T09:28:20Z</time>
      </trkpt>
      <trkpt lat="45.98635" lon="4.81759">
        <ele>238</ele>
        <time>2016-10-02T09:28:21Z</time>
      </trkpt>
      <trkpt lat="45.9864" lon="4.81757">
        <ele>238</ele>
        <time>2016-10-02T09:28:22Z</time>
      </trkpt>
      <trkpt lat="45.98645" lon="4.81755">
        <ele>238</ele>
        <time>2016-10-02T09:28:23Z</time>
      </trkpt>
      <trkpt lat="45.98649" lon="4.81754">
        <ele>238</ele>
        <time>2016-10-02T09:28:24Z</time>
      </trkpt>
      <trkpt lat="45.98654" lon="4.81753">
        <ele>238</ele>
        <time>2016-10-02T09:28:25Z</time>
      </trkpt>
      <trkpt lat="45.98658" lon="4.81753">
        <ele>238</ele>
        <time>2016-10-02T09:28:26Z</time>
      </trkpt>
      <trkpt lat="45.98663" lon="4.81752">
        <ele>238</ele>
        <time>2016-10-02T09:28:27Z</time>
      </trkpt>
      <trkpt lat="45.98668" lon="4.81749">
        <ele>238</ele>
        <time>2016-10-02T09:28:28Z</time>
      </trkpt>
      <trkpt lat="45.98674" lon="4.81748">
        <ele>238</ele>
        <time>2016-10-02T09:28:29Z</time>
      </trkpt>
      <trkpt lat="45.98679" lon="4.81747">
        <ele>238</ele>
        <time>2016-10-02T09:28:30Z</time>
      </trkpt>
      <trkpt lat="45.98686" lon="4.81746">
        <ele>238</ele>
        <time>2016-10-02T09:28:31Z</time>
      </trkpt>
      <trkpt lat="45.98692" lon="4.81746">
        <ele>238</ele>
        <time>2016-10-02T09:28:32Z</time>
      </trkpt>
      <trkpt lat="45.98697" lon="4.81745">
        <ele>239</ele>
        <time>2016-10-02T09:28:33Z</time>
      </trkpt>
      <trkpt lat="45.98702" lon="4.81743">
        <ele>239</ele>
        <time>2016-10-02T09:28:34Z</time>
      </trkpt>
      <trkpt lat="45.98708" lon="4.81742">
        <ele>239</ele>
        <time>2016-10-02T09:28:35Z</time>
      </trkpt>
      <trkpt lat="45.98713" lon="4.8174">
        <ele>239</ele>
        <time>2016-10-02T09:28:36Z</time>
      </trkpt>
      <trkpt lat="45.98718" lon="4.8174">
        <ele>239</ele>
        <time>2016-10-02T09:28:37Z</time>
      </trkpt>
      <trkpt lat="45.98725" lon="4.81738">
        <ele>239</ele>
        <time>2016-10-02T09:28:38Z</time>
      </trkpt>
      <trkpt lat="45.9873" lon="4.81741">
        <ele>240</ele>
        <time>2016-10-02T09:28:39Z</time>
      </trkpt>
      <trkpt lat="45.98734" lon="4.81745">
        <ele>240</ele>
        <time>2016-10-02T09:28:40Z</time>
      </trkpt>
      <trkpt lat="45.98737" lon="4.81751">
        <ele>240</ele>
        <time>2016-10-02T09:28:41Z</time>
      </trkpt>
      <trkpt lat="45.9874" lon="4.81758">
        <ele>240</ele>
        <time>2016-10-02T09:28:42Z</time>
      </trkpt>
      <trkpt lat="45.98743" lon="4.81766">
        <ele>240</ele>
        <time>2016-10-02T09:28:43Z</time>
      </trkpt>
      <trkpt lat="45.98747" lon="4.81773">
        <ele>240</ele>
        <time>2016-10-02T09:28:44Z</time>
      </trkpt>
      <trkpt lat="45.9875" lon="4.81779">
        <ele>240</ele>
        <time>2016-10-02T09:28:45Z</time>
      </trkpt>
      <trkpt lat="45.98752" lon="4.81785">
        <ele>241</ele>
        <time>2016-10-02T09:28:46Z</time>
      </trkpt>
      <trkpt lat="45.98755" lon="4.81792">
        <ele>240</ele>
        <time>2016-10-02T09:28:47Z</time>
      </trkpt>
      <trkpt lat="45.98757" lon="4.81799">
        <ele>240</ele>
        <time>2016-10-02T09:28:48Z</time>
      </trkpt>
      <trkpt lat="45.9876" lon="4.81805">
        <ele>240</ele>
        <time>2016-10-02T09:28:49Z</time>
      </trkpt>
      <trkpt lat="45.98763" lon="4.81813">
        <ele>240</ele>
        <time>2016-10-02T09:28:50Z</time>
      </trkpt>
      <trkpt lat="45.98766" lon="4.8182">
        <ele>240</ele>
        <time>2016-10-02T09:28:51Z</time>
      </trkpt>
      <trkpt lat="45.9877" lon="4.81827">
        <ele>240</ele>
        <time>2016-10-02T09:28:52Z</time>
      </trkpt>
      <trkpt lat="45.98773" lon="4.81834">
        <ele>239</ele>
        <time>2016-10-02T09:28:53Z</time>
      </trkpt>
      <trkpt lat="45.98777" lon="4.81841">
        <ele>239</ele>
        <time>2016-10-02T09:28:54Z</time>
      </trkpt>
      <trkpt lat="45.9878" lon="4.81848">
        <ele>239</ele>
        <time>2016-10-02T09:28:55Z</time>
      </trkpt>
      <trkpt lat="45.98783" lon="4.81856">
        <ele>239</ele>
        <time>2016-10-02T09:28:56Z</time>
      </trkpt>
      <trkpt lat="45.98786" lon="4.81863">
        <ele>239</ele>
        <time>2016-10-02T09:28:57Z</time>
      </trkpt>
      <trkpt lat="45.98789" lon="4.81871">
        <ele>239</ele>
        <time>2016-10-02T09:28:58Z</time>
      </trkpt>
      <trkpt lat="45.98792" lon="4.81878">
        <ele>239</ele>
        <time>2016-10-02T09:28:59Z</time>
      </trkpt>
      <trkpt lat="45.98794" lon="4.81886">
        <ele>239</ele>
        <time>2016-10-02T09:29:00Z</time>
      </trkpt>
      <trkpt lat="45.98797" lon="4.81895">
        <ele>239</ele>
        <time>2016-10-02T09:29:01Z</time>
      </trkpt>
      <trkpt lat="45.98799" lon="4.81903">
        <ele>239</ele>
        <time>2016-10-02T09:29:02Z</time>
      </trkpt>
      <trkpt lat="45.98801" lon="4.81913">
        <ele>239</ele>
        <time>2016-10-02T09:29:03Z</time>
      </trkpt>
      <trkpt lat="45.98803" lon="4.81921">
        <ele>239</ele>
        <time>2016-10-02T09:29:04Z</time>
      </trkpt>
      <trkpt lat="45.98804" lon="4.8193">
        <ele>239</ele>
        <time>2016-10-02T09:29:05Z</time>
      </trkpt>
      <trkpt lat="45.98806" lon="4.81937">
        <ele>239</ele>
        <time>2016-10-02T09:29:06Z</time>
      </trkpt>
      <trkpt lat="45.98808" lon="4.81944">
        <ele>239</ele>
        <time>2016-10-02T09:29:07Z</time>
      </trkpt>
      <trkpt lat="45.9881" lon="4.81951">
        <ele>239</ele>
        <time>2016-10-02T09:29:08Z</time>
      </trkpt>
      <trkpt lat="45.98813" lon="4.8196">
        <ele>239</ele>
        <time>2016-10-02T09:29:10Z</time>
      </trkpt>
      <trkpt lat="45.98815" lon="4.81968">
        <ele>239</ele>
        <time>2016-10-02T09:29:11Z</time>
      </trkpt>
      <trkpt lat="45.98816" lon="4.81977">
        <ele>239</ele>
        <time>2016-10-02T09:29:12Z</time>
      </trkpt>
      <trkpt lat="45.98818" lon="4.81986">
        <ele>238</ele>
        <time>2016-10-02T09:29:13Z</time>
      </trkpt>
      <trkpt lat="45.98819" lon="4.81994">
        <ele>238</ele>
        <time>2016-10-02T09:29:14Z</time>
      </trkpt>
      <trkpt lat="45.98821" lon="4.82003">
        <ele>238</ele>
        <time>2016-10-02T09:29:15Z</time>
      </trkpt>
      <trkpt lat="45.98822" lon="4.82013">
        <ele>238</ele>
        <time>2016-10-02T09:29:16Z</time>
      </trkpt>
      <trkpt lat="45.98824" lon="4.82021">
        <ele>238</ele>
        <time>2016-10-02T09:29:17Z</time>
      </trkpt>
      <trkpt lat="45.98824" lon="4.8203">
        <ele>238</ele>
        <time>2016-10-02T09:29:18Z</time>
      </trkpt>
      <trkpt lat="45.98825" lon="4.82039">
        <ele>238</ele>
        <time>2016-10-02T09:29:19Z</time>
      </trkpt>
      <trkpt lat="45.98827" lon="4.82046">
        <ele>238</ele>
        <time>2016-10-02T09:29:20Z</time>
      </trkpt>
      <trkpt lat="45.98828" lon="4.82053">
        <ele>237</ele>
        <time>2016-10-02T09:29:21Z</time>
      </trkpt>
      <trkpt lat="45.98829" lon="4.8206">
        <ele>237</ele>
        <time>2016-10-02T09:29:22Z</time>
      </trkpt>
      <trkpt lat="45.9883" lon="4.82067">
        <ele>237</ele>
        <time>2016-10-02T09:29:23Z</time>
      </trkpt>
      <trkpt lat="45.98832" lon="4.82074">
        <ele>237</ele>
        <time>2016-10-02T09:29:24Z</time>
      </trkpt>
      <trkpt lat="45.98833" lon="4.82081">
        <ele>236</ele>
        <time>2016-10-02T09:29:25Z</time>
      </trkpt>
      <trkpt lat="45.98835" lon="4.82088">
        <ele>236</ele>
        <time>2016-10-02T09:29:26Z</time>
      </trkpt>
      <trkpt lat="45.98836" lon="4.82095">
        <ele>236</ele>
        <time>2016-10-02T09:29:27Z</time>
      </trkpt>
      <trkpt lat="45.98837" lon="4.82103">
        <ele>236</ele>
        <time>2016-10-02T09:29:28Z</time>
      </trkpt>
      <trkpt lat="45.98838" lon="4.8211">
        <ele>235</ele>
        <time>2016-10-02T09:29:29Z</time>
      </trkpt>
      <trkpt lat="45.9884" lon="4.82118">
        <ele>235</ele>
        <time>2016-10-02T09:29:30Z</time>
      </trkpt>
      <trkpt lat="45.98842" lon="4.82125">
        <ele>236</ele>
        <time>2016-10-02T09:29:31Z</time>
      </trkpt>
      <trkpt lat="45.98844" lon="4.82131">
        <ele>236</ele>
        <time>2016-10-02T09:29:32Z</time>
      </trkpt>
      <trkpt lat="45.98846" lon="4.82139">
        <ele>236</ele>
        <time>2016-10-02T09:29:33Z</time>
      </trkpt>
      <trkpt lat="45.98848" lon="4.82146">
        <ele>236</ele>
        <time>2016-10-02T09:29:34Z</time>
      </trkpt>
      <trkpt lat="45.9885" lon="4.82153">
        <ele>236</ele>
        <time>2016-10-02T09:29:35Z</time>
      </trkpt>
      <trkpt lat="45.98851" lon="4.8216">
        <ele>236</ele>
        <time>2016-10-02T09:29:36Z</time>
      </trkpt>
      <trkpt lat="45.98853" lon="4.82167">
        <ele>236</ele>
        <time>2016-10-02T09:29:37Z</time>
      </trkpt>
      <trkpt lat="45.98855" lon="4.82175">
        <ele>236</ele>
        <time>2016-10-02T09:29:38Z</time>
      </trkpt>
      <trkpt lat="45.98857" lon="4.82182">
        <ele>236</ele>
        <time>2016-10-02T09:29:39Z</time>
      </trkpt>
      <trkpt lat="45.98859" lon="4.82189">
        <ele>236</ele>
        <time>2016-10-02T09:29:40Z</time>
      </trkpt>
      <trkpt lat="45.98861" lon="4.82196">
        <ele>236</ele>
        <time>2016-10-02T09:29:41Z</time>
      </trkpt>
      <trkpt lat="45.98864" lon="4.82204">
        <ele>236</ele>
        <time>2016-10-02T09:29:42Z</time>
      </trkpt>
      <trkpt lat="45.98866" lon="4.8221">
        <ele>236</ele>
        <time>2016-10-02T09:29:43Z</time>
      </trkpt>
      <trkpt lat="45.98869" lon="4.82217">
        <ele>236</ele>
        <time>2016-10-02T09:29:44Z</time>
      </trkpt>
      <trkpt lat="45.98871" lon="4.82224">
        <ele>236</ele>
        <time>2016-10-02T09:29:45Z</time>
      </trkpt>
      <trkpt lat="45.98873" lon="4.8223">
        <ele>236</ele>
        <time>2016-10-02T09:29:46Z</time>
      </trkpt>
      <trkpt lat="45.98875" lon="4.82236">
        <ele>236</ele>
        <time>2016-10-02T09:29:47Z</time>
      </trkpt>
      <trkpt lat="45.98878" lon="4.82243">
        <ele>236</ele>
        <time>2016-10-02T09:29:48Z</time>
      </trkpt>
      <trkpt lat="45.98881" lon="4.8225">
        <ele>236</ele>
        <time>2016-10-02T09:29:49Z</time>
      </trkpt>
      <trkpt lat="45.98883" lon="4.82256">
        <ele>236</ele>
        <time>2016-10-02T09:29:50Z</time>
      </trkpt>
      <trkpt lat="45.98886" lon="4.82262">
        <ele>236</ele>
        <time>2016-10-02T09:29:51Z</time>
      </trkpt>
      <trkpt lat="45.9889" lon="4.82268">
        <ele>236</ele>
        <time>2016-10-02T09:29:52Z</time>
      </trkpt>
      <trkpt lat="45.98894" lon="4.82274">
        <ele>236</ele>
        <time>2016-10-02T09:29:53Z</time>
      </trkpt>
      <trkpt lat="45.98898" lon="4.8228">
        <ele>236</ele>
        <time>2016-10-02T09:29:54Z</time>
      </trkpt>
      <trkpt lat="45.98902" lon="4.82285">
        <ele>236</ele>
        <time>2016-10-02T09:29:55Z</time>
      </trkpt>
      <trkpt lat="45.98906" lon="4.8229">
        <ele>237</ele>
        <time>2016-10-02T09:29:56Z</time>
      </trkpt>
      <trkpt lat="45.9891" lon="4.82295">
        <ele>237</ele>
        <time>2016-10-02T09:29:57Z</time>
      </trkpt>
      <trkpt lat="45.98914" lon="4.823">
        <ele>237</ele>
        <time>2016-10-02T09:29:58Z</time>
      </trkpt>
      <trkpt lat="45.98918" lon="4.82304">
        <ele>234</ele>
        <time>2016-10-02T09:29:59Z</time>
      </trkpt>
      <trkpt lat="45.98922" lon="4.82309">
        <ele>235</ele>
        <time>2016-10-02T09:30:00Z</time>
      </trkpt>
      <trkpt lat="45.98926" lon="4.82314">
        <ele>235</ele>
        <time>2016-10-02T09:30:01Z</time>
      </trkpt>
      <trkpt lat="45.9893" lon="4.8232">
        <ele>235</ele>
        <time>2016-10-02T09:30:02Z</time>
      </trkpt>
      <trkpt lat="45.98934" lon="4.82326">
        <ele>235</ele>
        <time>2016-10-02T09:30:03Z</time>
      </trkpt>
      <trkpt lat="45.98938" lon="4.82332">
        <ele>235</ele>
        <time>2016-10-02T09:30:04Z</time>
      </trkpt>
      <trkpt lat="45.98942" lon="4.82337">
        <ele>235</ele>
        <time>2016-10-02T09:30:05Z</time>
      </trkpt>
      <trkpt lat="45.98946" lon="4.82342">
        <ele>235</ele>
        <time>2016-10-02T09:30:06Z</time>
      </trkpt>
      <trkpt lat="45.98949" lon="4.82349">
        <ele>235</ele>
        <time>2016-10-02T09:30:07Z</time>
      </trkpt>
      <trkpt lat="45.98952" lon="4.82355">
        <ele>235</ele>
        <time>2016-10-02T09:30:08Z</time>
      </trkpt>
      <trkpt lat="45.98955" lon="4.82362">
        <ele>235</ele>
        <time>2016-10-02T09:30:09Z</time>
      </trkpt>
      <trkpt lat="45.98958" lon="4.82369">
        <ele>235</ele>
        <time>2016-10-02T09:30:10Z</time>
      </trkpt>
      <trkpt lat="45.98961" lon="4.82378">
        <ele>235</ele>
        <time>2016-10-02T09:30:11Z</time>
      </trkpt>
      <trkpt lat="45.98964" lon="4.82386">
        <ele>235</ele>
        <time>2016-10-02T09:30:12Z</time>
      </trkpt>
      <trkpt lat="45.98966" lon="4.82394">
        <ele>235</ele>
        <time>2016-10-02T09:30:13Z</time>
      </trkpt>
      <trkpt lat="45.98969" lon="4.82401">
        <ele>235</ele>
        <time>2016-10-02T09:30:14Z</time>
      </trkpt>
      <trkpt lat="45.98971" lon="4.82408">
        <ele>235</ele>
        <time>2016-10-02T09:30:15Z</time>
      </trkpt>
      <trkpt lat="45.98973" lon="4.82415">
        <ele>235</ele>
        <time>2016-10-02T09:30:16Z</time>
      </trkpt>
      <trkpt lat="45.98974" lon="4.82422">
        <ele>236</ele>
        <time>2016-10-02T09:30:17Z</time>
      </trkpt>
      <trkpt lat="45.98976" lon="4.82429">
        <ele>236</ele>
        <time>2016-10-02T09:30:18Z</time>
      </trkpt>
      <trkpt lat="45.98978" lon="4.82437">
        <ele>236</ele>
        <time>2016-10-02T09:30:19Z</time>
      </trkpt>
      <trkpt lat="45.9898" lon="4.82443">
        <ele>236</ele>
        <time>2016-10-02T09:30:20Z</time>
      </trkpt>
      <trkpt lat="45.98982" lon="4.8245">
        <ele>236</ele>
        <time>2016-10-02T09:30:21Z</time>
      </trkpt>
      <trkpt lat="45.98983" lon="4.82457">
        <ele>236</ele>
        <time>2016-10-02T09:30:22Z</time>
      </trkpt>
      <trkpt lat="45.98985" lon="4.82464">
        <ele>236</ele>
        <time>2016-10-02T09:30:23Z</time>
      </trkpt>
      <trkpt lat="45.98988" lon="4.82471">
        <ele>236</ele>
        <time>2016-10-02T09:30:24Z</time>
      </trkpt>
      <trkpt lat="45.9899" lon="4.82478">
        <ele>236</ele>
        <time>2016-10-02T09:30:25Z</time>
      </trkpt>
      <trkpt lat="45.98992" lon="4.82485">
        <ele>236</ele>
        <time>2016-10-02T09:30:26Z</time>
      </trkpt>
      <trkpt lat="45.98995" lon="4.82493">
        <ele>236</ele>
        <time>2016-10-02T09:30:27Z</time>
      </trkpt>
      <trkpt lat="45.98997" lon="4.825">
        <ele>235</ele>
        <time>2016-10-02T09:30:28Z</time>
      </trkpt>
      <trkpt lat="45.98999" lon="4.82508">
        <ele>236</ele>
        <time>2016-10-02T09:30:29Z</time>
      </trkpt>
      <trkpt lat="45.99002" lon="4.82515">
        <ele>235</ele>
        <time>2016-10-02T09:30:30Z</time>
      </trkpt>
      <trkpt lat="45.99005" lon="4.82522">
        <ele>235</ele>
        <time>2016-10-02T09:30:31Z</time>
      </trkpt>
      <trkpt lat="45.99009" lon="4.82529">
        <ele>235</ele>
        <time>2016-10-02T09:30:32Z</time>
      </trkpt>
      <trkpt lat="45.99013" lon="4.82535">
        <ele>235</ele>
        <time>2016-10-02T09:30:33Z</time>
      </trkpt>
      <trkpt lat="45.99017" lon="4.82541">
        <ele>235</ele>
        <time>2016-10-02T09:30:34Z</time>
      </trkpt>
      <trkpt lat="45.99022" lon="4.82547">
        <ele>235</ele>
        <time>2016-10-02T09:30:35Z</time>
      </trkpt>
      <trkpt lat="45.99027" lon="4.82552">
        <ele>235</ele>
        <time>2016-10-02T09:30:36Z</time>
      </trkpt>
      <trkpt lat="45.99031" lon="4.82558">
        <ele>235</ele>
        <time>2016-10-02T09:30:37Z</time>
      </trkpt>
      <trkpt lat="45.99036" lon="4.82563">
        <ele>235</ele>
        <time>2016-10-02T09:30:38Z</time>
      </trkpt>
      <trkpt lat="45.99041" lon="4.82567">
        <ele>235</ele>
        <time>2016-10-02T09:30:39Z</time>
      </trkpt>
      <trkpt lat="45.99047" lon="4.8257">
        <ele>235</ele>
        <time>2016-10-02T09:30:40Z</time>
      </trkpt>
      <trkpt lat="45.99052" lon="4.82572">
        <ele>235</ele>
        <time>2016-10-02T09:30:41Z</time>
      </trkpt>
      <trkpt lat="45.99057" lon="4.82574">
        <ele>235</ele>
        <time>2016-10-02T09:30:42Z</time>
      </trkpt>
      <trkpt lat="45.99063" lon="4.82576">
        <ele>235</ele>
        <time>2016-10-02T09:30:43Z</time>
      </trkpt>
      <trkpt lat="45.99067" lon="4.82578">
        <ele>235</ele>
        <time>2016-10-02T09:30:44Z</time>
      </trkpt>
      <trkpt lat="45.99071" lon="4.8258">
        <ele>235</ele>
        <time>2016-10-02T09:30:45Z</time>
      </trkpt>
      <trkpt lat="45.99077" lon="4.82587">
        <ele>235</ele>
        <time>2016-10-02T09:30:48Z</time>
      </trkpt>
      <trkpt lat="45.99078" lon="4.82593">
        <ele>235</ele>
        <time>2016-10-02T09:30:49Z</time>
      </trkpt>
      <trkpt lat="45.99076" lon="4.82603">
        <ele>235</ele>
        <time>2016-10-02T09:30:51Z</time>
      </trkpt>
      <trkpt lat="45.99074" lon="4.82608">
        <ele>236</ele>
        <time>2016-10-02T09:30:52Z</time>
      </trkpt>
      <trkpt lat="45.9907" lon="4.8262">
        <ele>236</ele>
        <time>2016-10-02T09:30:54Z</time>
      </trkpt>
      <trkpt lat="45.99067" lon="4.82626">
        <ele>236</ele>
        <time>2016-10-02T09:30:55Z</time>
      </trkpt>
      <trkpt lat="45.99065" lon="4.82632">
        <ele>236</ele>
        <time>2016-10-02T09:30:56Z</time>
      </trkpt>
      <trkpt lat="45.99063" lon="4.82638">
        <ele>236</ele>
        <time>2016-10-02T09:30:57Z</time>
      </trkpt>
      <trkpt lat="45.99058" lon="4.82649">
        <ele>236</ele>
        <time>2016-10-02T09:30:59Z</time>
      </trkpt>
      <trkpt lat="45.99056" lon="4.82654">
        <ele>236</ele>
        <time>2016-10-02T09:31:00Z</time>
      </trkpt>
      <trkpt lat="45.99053" lon="4.8266">
        <ele>236</ele>
        <time>2016-10-02T09:31:01Z</time>
      </trkpt>
      <trkpt lat="45.9905" lon="4.82665">
        <ele>236</ele>
        <time>2016-10-02T09:31:02Z</time>
      </trkpt>
      <trkpt lat="45.99045" lon="4.82674">
        <ele>238</ele>
        <time>2016-10-02T09:31:04Z</time>
      </trkpt>
      <trkpt lat="45.99043" lon="4.82679">
        <ele>238</ele>
        <time>2016-10-02T09:31:05Z</time>
      </trkpt>
      <trkpt lat="45.99037" lon="4.82689">
        <ele>238</ele>
        <time>2016-10-02T09:31:07Z</time>
      </trkpt>
      <trkpt lat="45.99034" lon="4.82693">
        <ele>238</ele>
        <time>2016-10-02T09:31:08Z</time>
      </trkpt>
      <trkpt lat="45.9903" lon="4.82703">
        <ele>238</ele>
        <time>2016-10-02T09:31:10Z</time>
      </trkpt>
      <trkpt lat="45.99028" lon="4.82708">
        <ele>238</ele>
        <time>2016-10-02T09:31:11Z</time>
      </trkpt>
      <trkpt lat="45.99024" lon="4.82718">
        <ele>239</ele>
        <time>2016-10-02T09:31:13Z</time>
      </trkpt>
      <trkpt lat="45.99022" lon="4.82723">
        <ele>239</ele>
        <time>2016-10-02T09:31:14Z</time>
      </trkpt>
      <trkpt lat="45.99018" lon="4.82731">
        <ele>239</ele>
        <time>2016-10-02T09:31:16Z</time>
      </trkpt>
      <trkpt lat="45.99016" lon="4.82736">
        <ele>239</ele>
        <time>2016-10-02T09:31:17Z</time>
      </trkpt>
      <trkpt lat="45.9901" lon="4.82744">
        <ele>240</ele>
        <time>2016-10-02T09:31:19Z</time>
      </trkpt>
      <trkpt lat="45.99007" lon="4.82747">
        <ele>240</ele>
        <time>2016-10-02T09:31:20Z</time>
      </trkpt>
      <trkpt lat="45.99004" lon="4.82755">
        <ele>241</ele>
        <time>2016-10-02T09:31:22Z</time>
      </trkpt>
      <trkpt lat="45.99002" lon="4.82759">
        <ele>241</ele>
        <time>2016-10-02T09:31:23Z</time>
      </trkpt>
      <trkpt lat="45.98998" lon="4.82767">
        <ele>245</ele>
        <time>2016-10-02T09:31:25Z</time>
      </trkpt>
      <trkpt lat="45.98996" lon="4.8277">
        <ele>245</ele>
        <time>2016-10-02T09:31:26Z</time>
      </trkpt>
      <trkpt lat="45.98992" lon="4.82779">
        <ele>246</ele>
        <time>2016-10-02T09:31:28Z</time>
      </trkpt>
      <trkpt lat="45.9899" lon="4.82783">
        <ele>247</ele>
        <time>2016-10-02T09:31:29Z</time>
      </trkpt>
      <trkpt lat="45.98987" lon="4.82792">
        <ele>247</ele>
        <time>2016-10-02T09:31:31Z</time>
      </trkpt>
      <trkpt lat="45.98985" lon="4.82796">
        <ele>248</ele>
        <time>2016-10-02T09:31:32Z</time>
      </trkpt>
      <trkpt lat="45.98982" lon="4.82805">
        <ele>248</ele>
        <time>2016-10-02T09:31:34Z</time>
      </trkpt>
      <trkpt lat="45.98979" lon="4.8281">
        <ele>248</ele>
        <time>2016-10-02T09:31:35Z</time>
      </trkpt>
      <trkpt lat="45.98975" lon="4.82818">
        <ele>248</ele>
        <time>2016-10-02T09:31:37Z</time>
      </trkpt>
      <trkpt lat="45.98974" lon="4.82822">
        <ele>249</ele>
        <time>2016-10-02T09:31:38Z</time>
      </trkpt>
      <trkpt lat="45.98971" lon="4.82829">
        <ele>249</ele>
        <time>2016-10-02T09:31:40Z</time>
      </trkpt>
      <trkpt lat="45.98969" lon="4.82832">
        <ele>249</ele>
        <time>2016-10-02T09:31:41Z</time>
      </trkpt>
      <trkpt lat="45.98966" lon="4.8284">
        <ele>252</ele>
        <time>2016-10-02T09:31:43Z</time>
      </trkpt>
      <trkpt lat="45.98965" lon="4.82844">
        <ele>252</ele>
        <time>2016-10-02T09:31:44Z</time>
      </trkpt>
      <trkpt lat="45.98962" lon="4.82852">
        <ele>252</ele>
        <time>2016-10-02T09:31:46Z</time>
      </trkpt>
      <trkpt lat="45.9896" lon="4.82855">
        <ele>252</ele>
        <time>2016-10-02T09:31:47Z</time>
      </trkpt>
      <trkpt lat="45.98956" lon="4.82863">
        <ele>252</ele>
        <time>2016-10-02T09:31:49Z</time>
      </trkpt>
      <trkpt lat="45.98953" lon="4.82865">
        <ele>252</ele>
        <time>2016-10-02T09:31:50Z</time>
      </trkpt>
      <trkpt lat="45.98948" lon="4.82874">
        <ele>253</ele>
        <time>2016-10-02T09:31:53Z</time>
      </trkpt>
      <trkpt lat="45.98946" lon="4.82878">
        <ele>253</ele>
        <time>2016-10-02T09:31:54Z</time>
      </trkpt>
      <trkpt lat="45.98943" lon="4.82885">
        <ele>253</ele>
        <time>2016-10-02T09:31:56Z</time>
      </trkpt>
      <trkpt lat="45.98942" lon="4.82889">
        <ele>253</ele>
        <time>2016-10-02T09:31:57Z</time>
      </trkpt>
      <trkpt lat="45.98938" lon="4.829">
        <ele>253</ele>
        <time>2016-10-02T09:32:00Z</time>
      </trkpt>
      <trkpt lat="45.98936" lon="4.82903">
        <ele>254</ele>
        <time>2016-10-02T09:32:01Z</time>
      </trkpt>
      <trkpt lat="45.98933" lon="4.8291">
        <ele>254</ele>
        <time>2016-10-02T09:32:03Z</time>
      </trkpt>
      <trkpt lat="45.98932" lon="4.82916">
        <ele>254</ele>
        <time>2016-10-02T09:32:04Z</time>
      </trkpt>
      <trkpt lat="45.9893" lon="4.82924">
        <ele>255</ele>
        <time>2016-10-02T09:32:06Z</time>
      </trkpt>
      <trkpt lat="45.98929" lon="4.82928">
        <ele>255</ele>
        <time>2016-10-02T09:32:07Z</time>
      </trkpt>
      <trkpt lat="45.98924" lon="4.82938">
        <ele>255</ele>
        <time>2016-10-02T09:32:10Z</time>
      </trkpt>
      <trkpt lat="45.98923" lon="4.82942">
        <ele>255</ele>
        <time>2016-10-02T09:32:11Z</time>
      </trkpt>
      <trkpt lat="45.98919" lon="4.82951">
        <ele>255</ele>
        <time>2016-10-02T09:32:13Z</time>
      </trkpt>
      <trkpt lat="45.98918" lon="4.82955">
        <ele>255</ele>
        <time>2016-10-02T09:32:14Z</time>
      </trkpt>
      <trkpt lat="45.98913" lon="4.82965">
        <ele>258</ele>
        <time>2016-10-02T09:32:17Z</time>
      </trkpt>
      <trkpt lat="45.98911" lon="4.82968">
        <ele>258</ele>
        <time>2016-10-02T09:32:18Z</time>
      </trkpt>
      <trkpt lat="45.98904" lon="4.82975">
        <ele>259</ele>
        <time>2016-10-02T09:32:21Z</time>
      </trkpt>
      <trkpt lat="45.98902" lon="4.82978">
        <ele>259</ele>
        <time>2016-10-02T09:32:22Z</time>
      </trkpt>
      <trkpt lat="45.98897" lon="4.82983">
        <ele>259</ele>
        <time>2016-10-02T09:32:24Z</time>
      </trkpt>
      <trkpt lat="45.98894" lon="4.82985">
        <ele>259</ele>
        <time>2016-10-02T09:32:25Z</time>
      </trkpt>
      <trkpt lat="45.98888" lon="4.82988">
        <ele>259</ele>
        <time>2016-10-02T09:32:27Z</time>
      </trkpt>
      <trkpt lat="45.98885" lon="4.8299">
        <ele>259</ele>
        <time>2016-10-02T09:32:28Z</time>
      </trkpt>
      <trkpt lat="45.98879" lon="4.82995">
        <ele>260</ele>
        <time>2016-10-02T09:32:30Z</time>
      </trkpt>
      <trkpt lat="45.98876" lon="4.82998">
        <ele>260</ele>
        <time>2016-10-02T09:32:31Z</time>
      </trkpt>
      <trkpt lat="45.9887" lon="4.83002">
        <ele>260</ele>
        <time>2016-10-02T09:32:33Z</time>
      </trkpt>
      <trkpt lat="45.98868" lon="4.83004">
        <ele>260</ele>
        <time>2016-10-02T09:32:34Z</time>
      </trkpt>
      <trkpt lat="45.98859" lon="4.83008">
        <ele>261</ele>
        <time>2016-10-02T09:32:37Z</time>
      </trkpt>
      <trkpt lat="45.98857" lon="4.8301">
        <ele>261</ele>
        <time>2016-10-02T09:32:38Z</time>
      </trkpt>
      <trkpt lat="45.98851" lon="4.83014">
        <ele>261</ele>
        <time>2016-10-02T09:32:40Z</time>
      </trkpt>
      <trkpt lat="45.98848" lon="4.83016">
        <ele>261</ele>
        <time>2016-10-02T09:32:41Z</time>
      </trkpt>
      <trkpt lat="45.98842" lon="4.8302">
        <ele>261</ele>
        <time>2016-10-02T09:32:43Z</time>
      </trkpt>
      <trkpt lat="45.9884" lon="4.83021">
        <ele>261</ele>
        <time>2016-10-02T09:32:44Z</time>
      </trkpt>
      <trkpt lat="45.98834" lon="4.83024">
        <ele>261</ele>
        <time>2016-10-02T09:32:46Z</time>
      </trkpt>
      <trkpt lat="45.98831" lon="4.83026">
        <ele>264</ele>
        <time>2016-10-02T09:32:47Z</time>
      </trkpt>
      <trkpt lat="45.98824" lon="4.83031">
        <ele>264</ele>
        <time>2016-10-02T09:32:49Z</time>
      </trkpt>
      <trkpt lat="45.98821" lon="4.83034">
        <ele>264</ele>
        <time>2016-10-02T09:32:50Z</time>
      </trkpt>
      <trkpt lat="45.98815" lon="4.8304">
        <ele>264</ele>
        <time>2016-10-02T09:32:52Z</time>
      </trkpt>
      <trkpt lat="45.98812" lon="4.83043">
        <ele>264</ele>
        <time>2016-10-02T09:32:53Z</time>
      </trkpt>
      <trkpt lat="45.98805" lon="4.83049">
        <ele>264</ele>
        <time>2016-10-02T09:32:55Z</time>
      </trkpt>
      <trkpt lat="45.98801" lon="4.83052">
        <ele>264</ele>
        <time>2016-10-02T09:32:56Z</time>
      </trkpt>
      <trkpt lat="45.98795" lon="4.83058">
        <ele>264</ele>
        <time>2016-10-02T09:32:58Z</time>
      </trkpt>
      <trkpt lat="45.98792" lon="4.8306">
        <ele>265</ele>
        <time>2016-10-02T09:32:59Z</time>
      </trkpt>
      <trkpt lat="45.98785" lon="4.83066">
        <ele>265</ele>
        <time>2016-10-02T09:33:01Z</time>
      </trkpt>
      <trkpt lat="45.98782" lon="4.83068">
        <ele>265</ele>
        <time>2016-10-02T09:33:02Z</time>
      </trkpt>
      <trkpt lat="45.98777" lon="4.83074">
        <ele>265</ele>
        <time>2016-10-02T09:33:04Z</time>
      </trkpt>
      <trkpt lat="45.98775" lon="4.83076">
        <ele>265</ele>
        <time>2016-10-02T09:33:05Z</time>
      </trkpt>
      <trkpt lat="45.98768" lon="4.83081">
        <ele>266</ele>
        <time>2016-10-02T09:33:07Z</time>
      </trkpt>
      <trkpt lat="45.98765" lon="4.83084">
        <ele>265</ele>
        <time>2016-10-02T09:33:08Z</time>
      </trkpt>
      <trkpt lat="45.98759" lon="4.83089">
        <ele>266</ele>
        <time>2016-10-02T09:33:10Z</time>
      </trkpt>
      <trkpt lat="45.98756" lon="4.83092">
        <ele>266</ele>
        <time>2016-10-02T09:33:11Z</time>
      </trkpt>
      <trkpt lat="45.9875" lon="4.83097">
        <ele>266</ele>
        <time>2016-10-02T09:33:13Z</time>
      </trkpt>
      <trkpt lat="45.98747" lon="4.831">
        <ele>267</ele>
        <time>2016-10-02T09:33:14Z</time>
      </trkpt>
      <trkpt lat="45.98741" lon="4.83105">
        <ele>267</ele>
        <time>2016-10-02T09:33:16Z</time>
      </trkpt>
      <trkpt lat="45.98738" lon="4.83108">
        <ele>267</ele>
        <time>2016-10-02T09:33:17Z</time>
      </trkpt>
      <trkpt lat="45.98731" lon="4.83114">
        <ele>267</ele>
        <time>2016-10-02T09:33:19Z</time>
      </trkpt>
      <trkpt lat="45.98728" lon="4.83117">
        <ele>267</ele>
        <time>2016-10-02T09:33:20Z</time>
      </trkpt>
      <trkpt lat="45.9872" lon="4.83121">
        <ele>266</ele>
        <time>2016-10-02T09:33:22Z</time>
      </trkpt>
      <trkpt lat="45.98716" lon="4.83124">
        <ele>266</ele>
        <time>2016-10-02T09:33:23Z</time>
      </trkpt>
      <trkpt lat="45.98709" lon="4.8313">
        <ele>266</ele>
        <time>2016-10-02T09:33:25Z</time>
      </trkpt>
      <trkpt lat="45.98706" lon="4.83133">
        <ele>266</ele>
        <time>2016-10-02T09:33:26Z</time>
      </trkpt>
      <trkpt lat="45.98699" lon="4.83138">
        <ele>266</ele>
        <time>2016-10-02T09:33:28Z</time>
      </trkpt>
      <trkpt lat="45.98696" lon="4.83141">
        <ele>266</ele>
        <time>2016-10-02T09:33:29Z</time>
      </trkpt>
      <trkpt lat="45.98689" lon="4.83147">
        <ele>266</ele>
        <time>2016-10-02T09:33:31Z</time>
      </trkpt>
      <trkpt lat="45.98686" lon="4.8315">
        <ele>266</ele>
        <time>2016-10-02T09:33:32Z</time>
      </trkpt>
      <trkpt lat="45.98679" lon="4.83155">
        <ele>266</ele>
        <time>2016-10-02T09:33:34Z</time>
      </trkpt>
      <trkpt lat="45.98675" lon="4.83158">
        <ele>266</ele>
        <time>2016-10-02T09:33:35Z</time>
      </trkpt>
      <trkpt lat="45.98667" lon="4.83163">
        <ele>266</ele>
        <time>2016-10-02T09:33:37Z</time>
      </trkpt>
      <trkpt lat="45.98663" lon="4.83166">
        <ele>266</ele>
        <time>2016-10-02T09:33:38Z</time>
      </trkpt>
      <trkpt lat="45.98656" lon="4.83171">
        <ele>266</ele>
        <time>2016-10-02T09:33:40Z</time>
      </trkpt>
      <trkpt lat="45.98652" lon="4.83174">
        <ele>267</ele>
        <time>2016-10-02T09:33:41Z</time>
      </trkpt>
      <trkpt lat="45.98645" lon="4.83181">
        <ele>267</ele>
        <time>2016-10-02T09:33:43Z</time>
      </trkpt>
      <trkpt lat="45.98641" lon="4.83184">
        <ele>267</ele>
        <time>2016-10-02T09:33:44Z</time>
      </trkpt>
      <trkpt lat="45.98634" lon="4.83192">
        <ele>267</ele>
        <time>2016-10-02T09:33:46Z</time>
      </trkpt>
      <trkpt lat="45.98631" lon="4.83196">
        <ele>267</ele>
        <time>2016-10-02T09:33:47Z</time>
      </trkpt>
      <trkpt lat="45.98625" lon="4.83204">
        <ele>267</ele>
        <time>2016-10-02T09:33:49Z</time>
      </trkpt>
      <trkpt lat="45.98622" lon="4.83209">
        <ele>267</ele>
        <time>2016-10-02T09:33:50Z</time>
      </trkpt>
      <trkpt lat="45.98616" lon="4.83217">
        <ele>267</ele>
        <time>2016-10-02T09:33:52Z</time>
      </trkpt>
      <trkpt lat="45.98613" lon="4.83221">
        <ele>267</ele>
        <time>2016-10-02T09:33:53Z</time>
      </trkpt>
      <trkpt lat="45.98607" lon="4.83229">
        <ele>267</ele>
        <time>2016-10-02T09:33:55Z</time>
      </trkpt>
      <trkpt lat="45.98604" lon="4.83233">
        <ele>268</ele>
        <time>2016-10-02T09:33:56Z</time>
      </trkpt>
      <trkpt lat="45.98598" lon="4.83242">
        <ele>268</ele>
        <time>2016-10-02T09:33:58Z</time>
      </trkpt>
      <trkpt lat="45.98595" lon="4.83246">
        <ele>268</ele>
        <time>2016-10-02T09:33:59Z</time>
      </trkpt>
      <trkpt lat="45.98588" lon="4.83254">
        <ele>268</ele>
        <time>2016-10-02T09:34:01Z</time>
      </trkpt>
      <trkpt lat="45.98585" lon="4.83258">
        <ele>268</ele>
        <time>2016-10-02T09:34:02Z</time>
      </trkpt>
      <trkpt lat="45.98578" lon="4.83267">
        <ele>269</ele>
        <time>2016-10-02T09:34:04Z</time>
      </trkpt>
      <trkpt lat="45.98575" lon="4.83271">
        <ele>269</ele>
        <time>2016-10-02T09:34:05Z</time>
      </trkpt>
      <trkpt lat="45.98567" lon="4.83278">
        <ele>269</ele>
        <time>2016-10-02T09:34:07Z</time>
      </trkpt>
      <trkpt lat="45.98563" lon="4.83282">
        <ele>269</ele>
        <time>2016-10-02T09:34:08Z</time>
      </trkpt>
      <trkpt lat="45.9856" lon="4.83286">
        <ele>269</ele>
        <time>2016-10-02T09:34:09Z</time>
      </trkpt>
      <trkpt lat="45.98557" lon="4.83291">
        <ele>269</ele>
        <time>2016-10-02T09:34:10Z</time>
      </trkpt>
      <trkpt lat="45.98553" lon="4.83296">
        <ele>269</ele>
        <time>2016-10-02T09:34:11Z</time>
      </trkpt>
      <trkpt lat="45.9855" lon="4.83301">
        <ele>269</ele>
        <time>2016-10-02T09:34:12Z</time>
      </trkpt>
      <trkpt lat="45.98546" lon="4.83305">
        <ele>269</ele>
        <time>2016-10-02T09:34:13Z</time>
      </trkpt>
      <trkpt lat="45.98543" lon="4.8331">
        <ele>269</ele>
        <time>2016-10-02T09:34:14Z</time>
      </trkpt>
      <trkpt lat="45.9854" lon="4.83314">
        <ele>269</ele>
        <time>2016-10-02T09:34:15Z</time>
      </trkpt>
      <trkpt lat="45.98536" lon="4.83318">
        <ele>269</ele>
        <time>2016-10-02T09:34:16Z</time>
      </trkpt>
      <trkpt lat="45.98532" lon="4.83323">
        <ele>269</ele>
        <time>2016-10-02T09:34:17Z</time>
      </trkpt>
      <trkpt lat="45.98529" lon="4.83328">
        <ele>269</ele>
        <time>2016-10-02T09:34:18Z</time>
      </trkpt>
      <trkpt lat="45.98526" lon="4.83333">
        <ele>270</ele>
        <time>2016-10-02T09:34:19Z</time>
      </trkpt>
      <trkpt lat="45.98522" lon="4.83338">
        <ele>270</ele>
        <time>2016-10-02T09:34:20Z</time>
      </trkpt>
      <trkpt lat="45.98518" lon="4.83342">
        <ele>270</ele>
        <time>2016-10-02T09:34:21Z</time>
      </trkpt>
      <trkpt lat="45.98514" lon="4.83347">
        <ele>270</ele>
        <time>2016-10-02T09:34:22Z</time>
      </trkpt>
      <trkpt lat="45.98511" lon="4.83352">
        <ele>270</ele>
        <time>2016-10-02T09:34:23Z</time>
      </trkpt>
      <trkpt lat="45.98507" lon="4.83358">
        <ele>269</ele>
        <time>2016-10-02T09:34:24Z</time>
      </trkpt>
      <trkpt lat="45.98504" lon="4.83364">
        <ele>269</ele>
        <time>2016-10-02T09:34:25Z</time>
      </trkpt>
      <trkpt lat="45.985" lon="4.83369">
        <ele>270</ele>
        <time>2016-10-02T09:34:26Z</time>
      </trkpt>
      <trkpt lat="45.98496" lon="4.83375">
        <ele>270</ele>
        <time>2016-10-02T09:34:27Z</time>
      </trkpt>
      <trkpt lat="45.98491" lon="4.8338">
        <ele>269</ele>
        <time>2016-10-02T09:34:28Z</time>
      </trkpt>
      <trkpt lat="45.98487" lon="4.83386">
        <ele>269</ele>
        <time>2016-10-02T09:34:29Z</time>
      </trkpt>
      <trkpt lat="45.98483" lon="4.83392">
        <ele>269</ele>
        <time>2016-10-02T09:34:30Z</time>
      </trkpt>
      <trkpt lat="45.98479" lon="4.83398">
        <ele>269</ele>
        <time>2016-10-02T09:34:31Z</time>
      </trkpt>
      <trkpt lat="45.98474" lon="4.83403">
        <ele>269</ele>
        <time>2016-10-02T09:34:32Z</time>
      </trkpt>
      <trkpt lat="45.9847" lon="4.83409">
        <ele>269</ele>
        <time>2016-10-02T09:34:33Z</time>
      </trkpt>
      <trkpt lat="45.98465" lon="4.83416">
        <ele>269</ele>
        <time>2016-10-02T09:34:34Z</time>
      </trkpt>
      <trkpt lat="45.98461" lon="4.83422">
        <ele>269</ele>
        <time>2016-10-02T09:34:35Z</time>
      </trkpt>
      <trkpt lat="45.98457" lon="4.83427">
        <ele>268</ele>
        <time>2016-10-02T09:34:36Z</time>
      </trkpt>
      <trkpt lat="45.98452" lon="4.83432">
        <ele>268</ele>
        <time>2016-10-02T09:34:37Z</time>
      </trkpt>
      <trkpt lat="45.98448" lon="4.83438">
        <ele>268</ele>
        <time>2016-10-02T09:34:38Z</time>
      </trkpt>
      <trkpt lat="45.98444" lon="4.83444">
        <ele>268</ele>
        <time>2016-10-02T09:34:39Z</time>
      </trkpt>
      <trkpt lat="45.98441" lon="4.83449">
        <ele>268</ele>
        <time>2016-10-02T09:34:40Z</time>
      </trkpt>
      <trkpt lat="45.98437" lon="4.83454">
        <ele>268</ele>
        <time>2016-10-02T09:34:41Z</time>
      </trkpt>
      <trkpt lat="45.98433" lon="4.83459">
        <ele>268</ele>
        <time>2016-10-02T09:34:42Z</time>
      </trkpt>
      <trkpt lat="45.98429" lon="4.83465">
        <ele>268</ele>
        <time>2016-10-02T09:34:43Z</time>
      </trkpt>
      <trkpt lat="45.98425" lon="4.8347">
        <ele>268</ele>
        <time>2016-10-02T09:34:44Z</time>
      </trkpt>
      <trkpt lat="45.98421" lon="4.83476">
        <ele>268</ele>
        <time>2016-10-02T09:34:45Z</time>
      </trkpt>
      <trkpt lat="45.98417" lon="4.83481">
        <ele>268</ele>
        <time>2016-10-02T09:34:46Z</time>
      </trkpt>
      <trkpt lat="45.98413" lon="4.83487">
        <ele>269</ele>
        <time>2016-10-02T09:34:47Z</time>
      </trkpt>
      <trkpt lat="45.98409" lon="4.83492">
        <ele>268</ele>
        <time>2016-10-02T09:34:48Z</time>
      </trkpt>
      <trkpt lat="45.98405" lon="4.83498">
        <ele>268</ele>
        <time>2016-10-02T09:34:49Z</time>
      </trkpt>
      <trkpt lat="45.98401" lon="4.83503">
        <ele>268</ele>
        <time>2016-10-02T09:34:50Z</time>
      </trkpt>
      <trkpt lat="45.98398" lon="4.8351">
        <ele>269</ele>
        <time>2016-10-02T09:34:51Z</time>
      </trkpt>
      <trkpt lat="45.98393" lon="4.83515">
        <ele>269</ele>
        <time>2016-10-02T09:34:52Z</time>
      </trkpt>
      <trkpt lat="45.9839" lon="4.83521">
        <ele>269</ele>
        <time>2016-10-02T09:34:53Z</time>
      </trkpt>
      <trkpt lat="45.98386" lon="4.83526">
        <ele>269</ele>
        <time>2016-10-02T09:34:54Z</time>
      </trkpt>
      <trkpt lat="45.98382" lon="4.83531">
        <ele>269</ele>
        <time>2016-10-02T09:34:55Z</time>
      </trkpt>
      <trkpt lat="45.98379" lon="4.83536">
        <ele>269</ele>
        <time>2016-10-02T09:34:56Z</time>
      </trkpt>
      <trkpt lat="45.98375" lon="4.83541">
        <ele>269</ele>
        <time>2016-10-02T09:34:57Z</time>
      </trkpt>
      <trkpt lat="45.98371" lon="4.83547">
        <ele>269</ele>
        <time>2016-10-02T09:34:58Z</time>
      </trkpt>
      <trkpt lat="45.98367" lon="4.83552">
        <ele>269</ele>
        <time>2016-10-02T09:34:59Z</time>
      </trkpt>
      <trkpt lat="45.98363" lon="4.83557">
        <ele>269</ele>
        <time>2016-10-02T09:35:00Z</time>
      </trkpt>
      <trkpt lat="45.98359" lon="4.83562">
        <ele>269</ele>
        <time>2016-10-02T09:35:01Z</time>
      </trkpt>
      <trkpt lat="45.98355" lon="4.83567">
        <ele>269</ele>
        <time>2016-10-02T09:35:02Z</time>
      </trkpt>
      <trkpt lat="45.98351" lon="4.83572">
        <ele>269</ele>
        <time>2016-10-02T09:35:03Z</time>
      </trkpt>
      <trkpt lat="45.98347" lon="4.83578">
        <ele>270</ele>
        <time>2016-10-02T09:35:04Z</time>
      </trkpt>
      <trkpt lat="45.98343" lon="4.83583">
        <ele>270</ele>
        <time>2016-10-02T09:35:05Z</time>
      </trkpt>
      <trkpt lat="45.98339" lon="4.83589">
        <ele>270</ele>
        <time>2016-10-02T09:35:06Z</time>
      </trkpt>
      <trkpt lat="45.98335" lon="4.83594">
        <ele>270</ele>
        <time>2016-10-02T09:35:07Z</time>
      </trkpt>
      <trkpt lat="45.98331" lon="4.83599">
        <ele>271</ele>
        <time>2016-10-02T09:35:08Z</time>
      </trkpt>
      <trkpt lat="45.98328" lon="4.83604">
        <ele>271</ele>
        <time>2016-10-02T09:35:09Z</time>
      </trkpt>
      <trkpt lat="45.98325" lon="4.83609">
        <ele>271</ele>
        <time>2016-10-02T09:35:10Z</time>
      </trkpt>
      <trkpt lat="45.98322" lon="4.83614">
        <ele>271</ele>
        <time>2016-10-02T09:35:11Z</time>
      </trkpt>
      <trkpt lat="45.98318" lon="4.83619">
        <ele>271</ele>
        <time>2016-10-02T09:35:12Z</time>
      </trkpt>
      <trkpt lat="45.98315" lon="4.83625">
        <ele>271</ele>
        <time>2016-10-02T09:35:13Z</time>
      </trkpt>
      <trkpt lat="45.98311" lon="4.83631">
        <ele>271</ele>
        <time>2016-10-02T09:35:14Z</time>
      </trkpt>
      <trkpt lat="45.98308" lon="4.83638">
        <ele>271</ele>
        <time>2016-10-02T09:35:15Z</time>
      </trkpt>
      <trkpt lat="45.98305" lon="4.83645">
        <ele>271</ele>
        <time>2016-10-02T09:35:16Z</time>
      </trkpt>
      <trkpt lat="45.98303" lon="4.83652">
        <ele>271</ele>
        <time>2016-10-02T09:35:17Z</time>
      </trkpt>
      <trkpt lat="45.983" lon="4.83658">
        <ele>271</ele>
        <time>2016-10-02T09:35:18Z</time>
      </trkpt>
      <trkpt lat="45.98297" lon="4.83664">
        <ele>271</ele>
        <time>2016-10-02T09:35:19Z</time>
      </trkpt>
      <trkpt lat="45.98295" lon="4.83671">
        <ele>272</ele>
        <time>2016-10-02T09:35:20Z</time>
      </trkpt>
      <trkpt lat="45.98293" lon="4.83677">
        <ele>272</ele>
        <time>2016-10-02T09:35:21Z</time>
      </trkpt>
      <trkpt lat="45.9829" lon="4.83685">
        <ele>272</ele>
        <time>2016-10-02T09:35:22Z</time>
      </trkpt>
      <trkpt lat="45.98287" lon="4.83691">
        <ele>272</ele>
        <time>2016-10-02T09:35:23Z</time>
      </trkpt>
      <trkpt lat="45.98286" lon="4.83698">
        <ele>272</ele>
        <time>2016-10-02T09:35:24Z</time>
      </trkpt>
      <trkpt lat="45.98284" lon="4.83706">
        <ele>272</ele>
        <time>2016-10-02T09:35:25Z</time>
      </trkpt>
      <trkpt lat="45.98282" lon="4.83713">
        <ele>272</ele>
        <time>2016-10-02T09:35:26Z</time>
      </trkpt>
      <trkpt lat="45.98279" lon="4.83719">
        <ele>272</ele>
        <time>2016-10-02T09:35:27Z</time>
      </trkpt>
      <trkpt lat="45.98277" lon="4.83726">
        <ele>272</ele>
        <time>2016-10-02T09:35:28Z</time>
      </trkpt>
      <trkpt lat="45.98274" lon="4.83733">
        <ele>272</ele>
        <time>2016-10-02T09:35:29Z</time>
      </trkpt>
      <trkpt lat="45.98272" lon="4.8374">
        <ele>272</ele>
        <time>2016-10-02T09:35:30Z</time>
      </trkpt>
      <trkpt lat="45.98269" lon="4.83747">
        <ele>272</ele>
        <time>2016-10-02T09:35:31Z</time>
      </trkpt>
      <trkpt lat="45.98266" lon="4.83753">
        <ele>272</ele>
        <time>2016-10-02T09:35:32Z</time>
      </trkpt>
      <trkpt lat="45.98263" lon="4.8376">
        <ele>272</ele>
        <time>2016-10-02T09:35:33Z</time>
      </trkpt>
      <trkpt lat="45.98261" lon="4.83767">
        <ele>272</ele>
        <time>2016-10-02T09:35:34Z</time>
      </trkpt>
      <trkpt lat="45.98259" lon="4.83774">
        <ele>272</ele>
        <time>2016-10-02T09:35:35Z</time>
      </trkpt>
      <trkpt lat="45.98256" lon="4.83781">
        <ele>272</ele>
        <time>2016-10-02T09:35:36Z</time>
      </trkpt>
      <trkpt lat="45.98254" lon="4.83787">
        <ele>272</ele>
        <time>2016-10-02T09:35:37Z</time>
      </trkpt>
      <trkpt lat="45.9825" lon="4.83794">
        <ele>272</ele>
        <time>2016-10-02T09:35:38Z</time>
      </trkpt>
      <trkpt lat="45.98248" lon="4.83801">
        <ele>272</ele>
        <time>2016-10-02T09:35:39Z</time>
      </trkpt>
      <trkpt lat="45.98245" lon="4.83809">
        <ele>272</ele>
        <time>2016-10-02T09:35:40Z</time>
      </trkpt>
      <trkpt lat="45.98243" lon="4.83817">
        <ele>272</ele>
        <time>2016-10-02T09:35:41Z</time>
      </trkpt>
      <trkpt lat="45.9824" lon="4.83825">
        <ele>272</ele>
        <time>2016-10-02T09:35:42Z</time>
      </trkpt>
      <trkpt lat="45.98237" lon="4.83833">
        <ele>272</ele>
        <time>2016-10-02T09:35:43Z</time>
      </trkpt>
      <trkpt lat="45.98235" lon="4.83841">
        <ele>272</ele>
        <time>2016-10-02T09:35:44Z</time>
      </trkpt>
      <trkpt lat="45.98232" lon="4.83849">
        <ele>272</ele>
        <time>2016-10-02T09:35:45Z</time>
      </trkpt>
      <trkpt lat="45.98229" lon="4.83857">
        <ele>272</ele>
        <time>2016-10-02T09:35:46Z</time>
      </trkpt>
      <trkpt lat="45.98227" lon="4.83865">
        <ele>272</ele>
        <time>2016-10-02T09:35:47Z</time>
      </trkpt>
      <trkpt lat="45.98224" lon="4.83872">
        <ele>272</ele>
        <time>2016-10-02T09:35:48Z</time>
      </trkpt>
      <trkpt lat="45.98222" lon="4.8388">
        <ele>272</ele>
        <time>2016-10-02T09:35:49Z</time>
      </trkpt>
      <trkpt lat="45.9822" lon="4.83888">
        <ele>272</ele>
        <time>2016-10-02T09:35:50Z</time>
      </trkpt>
      <trkpt lat="45.98217" lon="4.83895">
        <ele>273</ele>
        <time>2016-10-02T09:35:51Z</time>
      </trkpt>
      <trkpt lat="45.98217" lon="4.83902">
        <ele>273</ele>
        <time>2016-10-02T09:35:52Z</time>
      </trkpt>
      <trkpt lat="45.98214" lon="4.83908">
        <ele>273</ele>
        <time>2016-10-02T09:35:53Z</time>
      </trkpt>
      <trkpt lat="45.98212" lon="4.83915">
        <ele>273</ele>
        <time>2016-10-02T09:35:54Z</time>
      </trkpt>
      <trkpt lat="45.9821" lon="4.83922">
        <ele>273</ele>
        <time>2016-10-02T09:35:55Z</time>
      </trkpt>
      <trkpt lat="45.98207" lon="4.83929">
        <ele>273</ele>
        <time>2016-10-02T09:35:56Z</time>
      </trkpt>
      <trkpt lat="45.98204" lon="4.83937">
        <ele>273</ele>
        <time>2016-10-02T09:35:57Z</time>
      </trkpt>
      <trkpt lat="45.98202" lon="4.83944">
        <ele>273</ele>
        <time>2016-10-02T09:35:58Z</time>
      </trkpt>
      <trkpt lat="45.98199" lon="4.83951">
        <ele>273</ele>
        <time>2016-10-02T09:35:59Z</time>
      </trkpt>
      <trkpt lat="45.98197" lon="4.83959">
        <ele>273</ele>
        <time>2016-10-02T09:36:00Z</time>
      </trkpt>
      <trkpt lat="45.98194" lon="4.83966">
        <ele>273</ele>
        <time>2016-10-02T09:36:01Z</time>
      </trkpt>
      <trkpt lat="45.98191" lon="4.83973">
        <ele>273</ele>
        <time>2016-10-02T09:36:02Z</time>
      </trkpt>
      <trkpt lat="45.98188" lon="4.8398">
        <ele>273</ele>
        <time>2016-10-02T09:36:03Z</time>
      </trkpt>
      <trkpt lat="45.98185" lon="4.83986">
        <ele>273</ele>
        <time>2016-10-02T09:36:04Z</time>
      </trkpt>
      <trkpt lat="45.98183" lon="4.83993">
        <ele>273</ele>
        <time>2016-10-02T09:36:05Z</time>
      </trkpt>
      <trkpt lat="45.98179" lon="4.83999">
        <ele>273</ele>
        <time>2016-10-02T09:36:06Z</time>
      </trkpt>
      <trkpt lat="45.98177" lon="4.84005">
        <ele>273</ele>
        <time>2016-10-02T09:36:07Z</time>
      </trkpt>
      <trkpt lat="45.98173" lon="4.84011">
        <ele>273</ele>
        <time>2016-10-02T09:36:08Z</time>
      </trkpt>
      <trkpt lat="45.9817" lon="4.84018">
        <ele>273</ele>
        <time>2016-10-02T09:36:09Z</time>
      </trkpt>
      <trkpt lat="45.98167" lon="4.84024">
        <ele>273</ele>
        <time>2016-10-02T09:36:10Z</time>
      </trkpt>
      <trkpt lat="45.98164" lon="4.84031">
        <ele>273</ele>
        <time>2016-10-02T09:36:11Z</time>
      </trkpt>
      <trkpt lat="45.9816" lon="4.84037">
        <ele>273</ele>
        <time>2016-10-02T09:36:12Z</time>
      </trkpt>
      <trkpt lat="45.98156" lon="4.84044">
        <ele>273</ele>
        <time>2016-10-02T09:36:13Z</time>
      </trkpt>
      <trkpt lat="45.98152" lon="4.8405">
        <ele>273</ele>
        <time>2016-10-02T09:36:14Z</time>
      </trkpt>
      <trkpt lat="45.98148" lon="4.84057">
        <ele>273</ele>
        <time>2016-10-02T09:36:15Z</time>
      </trkpt>
      <trkpt lat="45.98143" lon="4.84062">
        <ele>273</ele>
        <time>2016-10-02T09:36:16Z</time>
      </trkpt>
      <trkpt lat="45.98139" lon="4.84068">
        <ele>273</ele>
        <time>2016-10-02T09:36:17Z</time>
      </trkpt>
      <trkpt lat="45.98134" lon="4.84073">
        <ele>273</ele>
        <time>2016-10-02T09:36:18Z</time>
      </trkpt>
      <trkpt lat="45.9813" lon="4.84077">
        <ele>273</ele>
        <time>2016-10-02T09:36:19Z</time>
      </trkpt>
      <trkpt lat="45.98126" lon="4.84082">
        <ele>273</ele>
        <time>2016-10-02T09:36:20Z</time>
      </trkpt>
      <trkpt lat="45.98122" lon="4.84086">
        <ele>273</ele>
        <time>2016-10-02T09:36:21Z</time>
      </trkpt>
      <trkpt lat="45.98117" lon="4.8409">
        <ele>273</ele>
        <time>2016-10-02T09:36:22Z</time>
      </trkpt>
      <trkpt lat="45.98113" lon="4.84093">
        <ele>273</ele>
        <time>2016-10-02T09:36:23Z</time>
      </trkpt>
      <trkpt lat="45.98108" lon="4.84097">
        <ele>273</ele>
        <time>2016-10-02T09:36:24Z</time>
      </trkpt>
      <trkpt lat="45.98103" lon="4.84101">
        <ele>273</ele>
        <time>2016-10-02T09:36:25Z</time>
      </trkpt>
      <trkpt lat="45.981" lon="4.84106">
        <ele>273</ele>
        <time>2016-10-02T09:36:26Z</time>
      </trkpt>
      <trkpt lat="45.98095" lon="4.84111">
        <ele>273</ele>
        <time>2016-10-02T09:36:27Z</time>
      </trkpt>
      <trkpt lat="45.9809" lon="4.84116">
        <ele>273</ele>
        <time>2016-10-02T09:36:28Z</time>
      </trkpt>
      <trkpt lat="45.98085" lon="4.84121">
        <ele>273</ele>
        <time>2016-10-02T09:36:29Z</time>
      </trkpt>
      <trkpt lat="45.9808" lon="4.84125">
        <ele>273</ele>
        <time>2016-10-02T09:36:30Z</time>
      </trkpt>
      <trkpt lat="45.98075" lon="4.8413">
        <ele>273</ele>
        <time>2016-10-02T09:36:31Z</time>
      </trkpt>
      <trkpt lat="45.9807" lon="4.84135">
        <ele>273</ele>
        <time>2016-10-02T09:36:32Z</time>
      </trkpt>
      <trkpt lat="45.98065" lon="4.8414">
        <ele>273</ele>
        <time>2016-10-02T09:36:33Z</time>
      </trkpt>
      <trkpt lat="45.9806" lon="4.84145">
        <ele>273</ele>
        <time>2016-10-02T09:36:34Z</time>
      </trkpt>
      <trkpt lat="45.98055" lon="4.8415">
        <ele>273</ele>
        <time>2016-10-02T09:36:35Z</time>
      </trkpt>
      <trkpt lat="45.9805" lon="4.84154">
        <ele>273</ele>
        <time>2016-10-02T09:36:36Z</time>
      </trkpt>
      <trkpt lat="45.98045" lon="4.84158">
        <ele>273</ele>
        <time>2016-10-02T09:36:37Z</time>
      </trkpt>
      <trkpt lat="45.98039" lon="4.84162">
        <ele>273</ele>
        <time>2016-10-02T09:36:38Z</time>
      </trkpt>
      <trkpt lat="45.98034" lon="4.84166">
        <ele>273</ele>
        <time>2016-10-02T09:36:39Z</time>
      </trkpt>
      <trkpt lat="45.9803" lon="4.8417">
        <ele>273</ele>
        <time>2016-10-02T09:36:40Z</time>
      </trkpt>
      <trkpt lat="45.98026" lon="4.84175">
        <ele>274</ele>
        <time>2016-10-02T09:36:41Z</time>
      </trkpt>
      <trkpt lat="45.98021" lon="4.84179">
        <ele>274</ele>
        <time>2016-10-02T09:36:42Z</time>
      </trkpt>
      <trkpt lat="45.98017" lon="4.84184">
        <ele>274</ele>
        <time>2016-10-02T09:36:43Z</time>
      </trkpt>
      <trkpt lat="45.98012" lon="4.8419">
        <ele>274</ele>
        <time>2016-10-02T09:36:44Z</time>
      </trkpt>
      <trkpt lat="45.98008" lon="4.84195">
        <ele>274</ele>
        <time>2016-10-02T09:36:45Z</time>
      </trkpt>
      <trkpt lat="45.98004" lon="4.842">
        <ele>274</ele>
        <time>2016-10-02T09:36:46Z</time>
      </trkpt>
      <trkpt lat="45.97999" lon="4.84205">
        <ele>274</ele>
        <time>2016-10-02T09:36:47Z</time>
      </trkpt>
      <trkpt lat="45.97995" lon="4.84209">
        <ele>274</ele>
        <time>2016-10-02T09:36:48Z</time>
      </trkpt>
      <trkpt lat="45.9799" lon="4.84213">
        <ele>274</ele>
        <time>2016-10-02T09:36:49Z</time>
      </trkpt>
      <trkpt lat="45.97986" lon="4.84217">
        <ele>274</ele>
        <time>2016-10-02T09:36:50Z</time>
      </trkpt>
      <trkpt lat="45.97981" lon="4.84222">
        <ele>274</ele>
        <time>2016-10-02T09:36:51Z</time>
      </trkpt>
      <trkpt lat="45.97977" lon="4.84226">
        <ele>274</ele>
        <time>2016-10-02T09:36:52Z</time>
      </trkpt>
      <trkpt lat="45.97972" lon="4.84229">
        <ele>274</ele>
        <time>2016-10-02T09:36:53Z</time>
      </trkpt>
      <trkpt lat="45.97967" lon="4.84232">
        <ele>274</ele>
        <time>2016-10-02T09:36:54Z</time>
      </trkpt>
      <trkpt lat="45.97963" lon="4.84236">
        <ele>274</ele>
        <time>2016-10-02T09:36:55Z</time>
      </trkpt>
      <trkpt lat="45.97959" lon="4.84241">
        <ele>274</ele>
        <time>2016-10-02T09:36:56Z</time>
      </trkpt>
      <trkpt lat="45.97955" lon="4.84246">
        <ele>275</ele>
        <time>2016-10-02T09:36:57Z</time>
      </trkpt>
      <trkpt lat="45.9795" lon="4.8425">
        <ele>275</ele>
        <time>2016-10-02T09:36:58Z</time>
      </trkpt>
      <trkpt lat="45.97945" lon="4.84254">
        <ele>275</ele>
        <time>2016-10-02T09:36:59Z</time>
      </trkpt>
      <trkpt lat="45.97941" lon="4.84259">
        <ele>275</ele>
        <time>2016-10-02T09:37:00Z</time>
      </trkpt>
      <trkpt lat="45.97936" lon="4.84265">
        <ele>275</ele>
        <time>2016-10-02T09:37:01Z</time>
      </trkpt>
      <trkpt lat="45.97932" lon="4.84271">
        <ele>275</ele>
        <time>2016-10-02T09:37:02Z</time>
      </trkpt>
      <trkpt lat="45.97929" lon="4.84279">
        <ele>275</ele>
        <time>2016-10-02T09:37:03Z</time>
      </trkpt>
      <trkpt lat="45.97927" lon="4.84287">
        <ele>275</ele>
        <time>2016-10-02T09:37:04Z</time>
      </trkpt>
      <trkpt lat="45.97927" lon="4.84294">
        <ele>275</ele>
        <time>2016-10-02T09:37:05Z</time>
      </trkpt>
      <trkpt lat="45.97928" lon="4.84302">
        <ele>275</ele>
        <time>2016-10-02T09:37:06Z</time>
      </trkpt>
      <trkpt lat="45.97929" lon="4.8431">
        <ele>275</ele>
        <time>2016-10-02T09:37:07Z</time>
      </trkpt>
      <trkpt lat="45.9793" lon="4.84316">
        <ele>275</ele>
        <time>2016-10-02T09:37:08Z</time>
      </trkpt>
      <trkpt lat="45.97932" lon="4.84324">
        <ele>275</ele>
        <time>2016-10-02T09:37:09Z</time>
      </trkpt>
      <trkpt lat="45.97933" lon="4.84333">
        <ele>275</ele>
        <time>2016-10-02T09:37:10Z</time>
      </trkpt>
      <trkpt lat="45.97935" lon="4.84342">
        <ele>275</ele>
        <time>2016-10-02T09:37:11Z</time>
      </trkpt>
      <trkpt lat="45.97936" lon="4.8435">
        <ele>275</ele>
        <time>2016-10-02T09:37:12Z</time>
      </trkpt>
      <trkpt lat="45.97937" lon="4.84358">
        <ele>275</ele>
        <time>2016-10-02T09:37:13Z</time>
      </trkpt>
      <trkpt lat="45.97939" lon="4.84366">
        <ele>275</ele>
        <time>2016-10-02T09:37:14Z</time>
      </trkpt>
      <trkpt lat="45.9794" lon="4.84374">
        <ele>275</ele>
        <time>2016-10-02T09:37:15Z</time>
      </trkpt>
      <trkpt lat="45.97942" lon="4.84381">
        <ele>275</ele>
        <time>2016-10-02T09:37:16Z</time>
      </trkpt>
      <trkpt lat="45.97943" lon="4.84389">
        <ele>275</ele>
        <time>2016-10-02T09:37:17Z</time>
      </trkpt>
      <trkpt lat="45.97945" lon="4.84398">
        <ele>275</ele>
        <time>2016-10-02T09:37:18Z</time>
      </trkpt>
      <trkpt lat="45.97946" lon="4.84406">
        <ele>275</ele>
        <time>2016-10-02T09:37:19Z</time>
      </trkpt>
      <trkpt lat="45.97947" lon="4.84414">
        <ele>275</ele>
        <time>2016-10-02T09:37:20Z</time>
      </trkpt>
      <trkpt lat="45.97949" lon="4.84422">
        <ele>275</ele>
        <time>2016-10-02T09:37:21Z</time>
      </trkpt>
      <trkpt lat="45.9795" lon="4.8443">
        <ele>275</ele>
        <time>2016-10-02T09:37:22Z</time>
      </trkpt>
      <trkpt lat="45.97951" lon="4.84439">
        <ele>275</ele>
        <time>2016-10-02T09:37:23Z</time>
      </trkpt>
      <trkpt lat="45.97952" lon="4.84447">
        <ele>275</ele>
        <time>2016-10-02T09:37:24Z</time>
      </trkpt>
      <trkpt lat="45.97954" lon="4.84456">
        <ele>275</ele>
        <time>2016-10-02T09:37:25Z</time>
      </trkpt>
      <trkpt lat="45.97955" lon="4.84464">
        <ele>275</ele>
        <time>2016-10-02T09:37:26Z</time>
      </trkpt>
      <trkpt lat="45.97957" lon="4.84472">
        <ele>275</ele>
        <time>2016-10-02T09:37:27Z</time>
      </trkpt>
      <trkpt lat="45.97958" lon="4.8448">
        <ele>275</ele>
        <time>2016-10-02T09:37:28Z</time>
      </trkpt>
      <trkpt lat="45.9796" lon="4.84488">
        <ele>275</ele>
        <time>2016-10-02T09:37:29Z</time>
      </trkpt>
      <trkpt lat="45.97961" lon="4.84495">
        <ele>275</ele>
        <time>2016-10-02T09:37:30Z</time>
      </trkpt>
      <trkpt lat="45.97963" lon="4.84503">
        <ele>275</ele>
        <time>2016-10-02T09:37:31Z</time>
      </trkpt>
      <trkpt lat="45.97964" lon="4.8451">
        <ele>275</ele>
        <time>2016-10-02T09:37:32Z</time>
      </trkpt>
      <trkpt lat="45.97966" lon="4.84518">
        <ele>275</ele>
        <time>2016-10-02T09:37:33Z</time>
      </trkpt>
      <trkpt lat="45.97967" lon="4.84526">
        <ele>275</ele>
        <time>2016-10-02T09:37:34Z</time>
      </trkpt>
      <trkpt lat="45.97968" lon="4.84533">
        <ele>275</ele>
        <time>2016-10-02T09:37:35Z</time>
      </trkpt>
      <trkpt lat="45.97969" lon="4.84541">
        <ele>275</ele>
        <time>2016-10-02T09:37:36Z</time>
      </trkpt>
      <trkpt lat="45.97971" lon="4.84548">
        <ele>275</ele>
        <time>2016-10-02T09:37:37Z</time>
      </trkpt>
      <trkpt lat="45.97972" lon="4.84555">
        <ele>275</ele>
        <time>2016-10-02T09:37:38Z</time>
      </trkpt>
      <trkpt lat="45.97973" lon="4.84563">
        <ele>275</ele>
        <time>2016-10-02T09:37:39Z</time>
      </trkpt>
      <trkpt lat="45.97974" lon="4.84571">
        <ele>275</ele>
        <time>2016-10-02T09:37:40Z</time>
      </trkpt>
      <trkpt lat="45.97975" lon="4.84578">
        <ele>275</ele>
        <time>2016-10-02T09:37:41Z</time>
      </trkpt>
      <trkpt lat="45.97977" lon="4.84585">
        <ele>274</ele>
        <time>2016-10-02T09:37:42Z</time>
      </trkpt>
      <trkpt lat="45.97978" lon="4.84592">
        <ele>274</ele>
        <time>2016-10-02T09:37:43Z</time>
      </trkpt>
      <trkpt lat="45.9798" lon="4.84599">
        <ele>274</ele>
        <time>2016-10-02T09:37:44Z</time>
      </trkpt>
      <trkpt lat="45.97981" lon="4.84606">
        <ele>274</ele>
        <time>2016-10-02T09:37:45Z</time>
      </trkpt>
      <trkpt lat="45.97982" lon="4.84613">
        <ele>275</ele>
        <time>2016-10-02T09:37:46Z</time>
      </trkpt>
      <trkpt lat="45.97983" lon="4.84622">
        <ele>275</ele>
        <time>2016-10-02T09:37:47Z</time>
      </trkpt>
      <trkpt lat="45.97985" lon="4.8463">
        <ele>275</ele>
        <time>2016-10-02T09:37:48Z</time>
      </trkpt>
      <trkpt lat="45.97986" lon="4.84637">
        <ele>275</ele>
        <time>2016-10-02T09:37:49Z</time>
      </trkpt>
      <trkpt lat="45.97987" lon="4.84645">
        <ele>274</ele>
        <time>2016-10-02T09:37:50Z</time>
      </trkpt>
      <trkpt lat="45.97988" lon="4.84652">
        <ele>274</ele>
        <time>2016-10-02T09:37:51Z</time>
      </trkpt>
      <trkpt lat="45.97989" lon="4.84659">
        <ele>274</ele>
        <time>2016-10-02T09:37:52Z</time>
      </trkpt>
      <trkpt lat="45.9799" lon="4.84666">
        <ele>274</ele>
        <time>2016-10-02T09:37:53Z</time>
      </trkpt>
      <trkpt lat="45.97992" lon="4.84674">
        <ele>274</ele>
        <time>2016-10-02T09:37:54Z</time>
      </trkpt>
      <trkpt lat="45.97993" lon="4.84683">
        <ele>275</ele>
        <time>2016-10-02T09:37:55Z</time>
      </trkpt>
      <trkpt lat="45.97993" lon="4.84691">
        <ele>275</ele>
        <time>2016-10-02T09:37:56Z</time>
      </trkpt>
      <trkpt lat="45.97994" lon="4.84698">
        <ele>275</ele>
        <time>2016-10-02T09:37:57Z</time>
      </trkpt>
      <trkpt lat="45.97995" lon="4.84706">
        <ele>275</ele>
        <time>2016-10-02T09:37:58Z</time>
      </trkpt>
      <trkpt lat="45.97995" lon="4.84713">
        <ele>275</ele>
        <time>2016-10-02T09:37:59Z</time>
      </trkpt>
      <trkpt lat="45.97996" lon="4.84719">
        <ele>275</ele>
        <time>2016-10-02T09:38:00Z</time>
      </trkpt>
      <trkpt lat="45.97996" lon="4.84731">
        <ele>275</ele>
        <time>2016-10-02T09:38:02Z</time>
      </trkpt>
      <trkpt lat="45.97997" lon="4.84738">
        <ele>275</ele>
        <time>2016-10-02T09:38:03Z</time>
      </trkpt>
      <trkpt lat="45.97997" lon="4.84746">
        <ele>275</ele>
        <time>2016-10-02T09:38:04Z</time>
      </trkpt>
      <trkpt lat="45.97998" lon="4.84754">
        <ele>275</ele>
        <time>2016-10-02T09:38:05Z</time>
      </trkpt>
      <trkpt lat="45.97998" lon="4.84762">
        <ele>275</ele>
        <time>2016-10-02T09:38:06Z</time>
      </trkpt>
      <trkpt lat="45.97998" lon="4.8477">
        <ele>274</ele>
        <time>2016-10-02T09:38:07Z</time>
      </trkpt>
      <trkpt lat="45.97999" lon="4.84778">
        <ele>274</ele>
        <time>2016-10-02T09:38:08Z</time>
      </trkpt>
      <trkpt lat="45.97999" lon="4.84784">
        <ele>274</ele>
        <time>2016-10-02T09:38:09Z</time>
      </trkpt>
      <trkpt lat="45.98" lon="4.84792">
        <ele>274</ele>
        <time>2016-10-02T09:38:10Z</time>
      </trkpt>
      <trkpt lat="45.98" lon="4.848">
        <ele>273</ele>
        <time>2016-10-02T09:38:11Z</time>
      </trkpt>
      <trkpt lat="45.98001" lon="4.84808">
        <ele>273</ele>
        <time>2016-10-02T09:38:12Z</time>
      </trkpt>
      <trkpt lat="45.98" lon="4.84815">
        <ele>272</ele>
        <time>2016-10-02T09:38:13Z</time>
      </trkpt>
      <trkpt lat="45.98001" lon="4.84823">
        <ele>272</ele>
        <time>2016-10-02T09:38:14Z</time>
      </trkpt>
      <trkpt lat="45.98002" lon="4.84831">
        <ele>272</ele>
        <time>2016-10-02T09:38:15Z</time>
      </trkpt>
      <trkpt lat="45.98002" lon="4.84837">
        <ele>272</ele>
        <time>2016-10-02T09:38:16Z</time>
      </trkpt>
      <trkpt lat="45.98002" lon="4.84844">
        <ele>272</ele>
        <time>2016-10-02T09:38:17Z</time>
      </trkpt>
      <trkpt lat="45.98003" lon="4.8485">
        <ele>272</ele>
        <time>2016-10-02T09:38:18Z</time>
      </trkpt>
      <trkpt lat="45.98003" lon="4.84857">
        <ele>272</ele>
        <time>2016-10-02T09:38:19Z</time>
      </trkpt>
      <trkpt lat="45.98003" lon="4.84864">
        <ele>272</ele>
        <time>2016-10-02T09:38:20Z</time>
      </trkpt>
      <trkpt lat="45.98004" lon="4.84871">
        <ele>272</ele>
        <time>2016-10-02T09:38:21Z</time>
      </trkpt>
      <trkpt lat="45.98005" lon="4.84879">
        <ele>272</ele>
        <time>2016-10-02T09:38:22Z</time>
      </trkpt>
      <trkpt lat="45.98006" lon="4.84887">
        <ele>272</ele>
        <time>2016-10-02T09:38:23Z</time>
      </trkpt>
      <trkpt lat="45.98005" lon="4.84895">
        <ele>272</ele>
        <time>2016-10-02T09:38:24Z</time>
      </trkpt>
      <trkpt lat="45.98004" lon="4.84903">
        <ele>272</ele>
        <time>2016-10-02T09:38:25Z</time>
      </trkpt>
      <trkpt lat="45.98004" lon="4.84911">
        <ele>272</ele>
        <time>2016-10-02T09:38:26Z</time>
      </trkpt>
      <trkpt lat="45.98007" lon="4.84922">
        <ele>272</ele>
        <time>2016-10-02T09:38:27Z</time>
      </trkpt>
      <trkpt lat="45.98009" lon="4.84931">
        <ele>272</ele>
        <time>2016-10-02T09:38:28Z</time>
      </trkpt>
      <trkpt lat="45.98011" lon="4.8494">
        <ele>272</ele>
        <time>2016-10-02T09:38:29Z</time>
      </trkpt>
      <trkpt lat="45.98012" lon="4.84949">
        <ele>272</ele>
        <time>2016-10-02T09:38:30Z</time>
      </trkpt>
      <trkpt lat="45.98013" lon="4.84957">
        <ele>272</ele>
        <time>2016-10-02T09:38:31Z</time>
      </trkpt>
      <trkpt lat="45.98014" lon="4.84964">
        <ele>272</ele>
        <time>2016-10-02T09:38:32Z</time>
      </trkpt>
      <trkpt lat="45.98015" lon="4.84972">
        <ele>272</ele>
        <time>2016-10-02T09:38:33Z</time>
      </trkpt>
      <trkpt lat="45.98015" lon="4.8498">
        <ele>272</ele>
        <time>2016-10-02T09:38:34Z</time>
      </trkpt>
      <trkpt lat="45.98016" lon="4.84987">
        <ele>272</ele>
        <time>2016-10-02T09:38:35Z</time>
      </trkpt>
      <trkpt lat="45.98017" lon="4.84994">
        <ele>272</ele>
        <time>2016-10-02T09:38:36Z</time>
      </trkpt>
      <trkpt lat="45.98017" lon="4.85001">
        <ele>272</ele>
        <time>2016-10-02T09:38:37Z</time>
      </trkpt>
      <trkpt lat="45.98018" lon="4.85008">
        <ele>272</ele>
        <time>2016-10-02T09:38:38Z</time>
      </trkpt>
      <trkpt lat="45.98018" lon="4.85015">
        <ele>273</ele>
        <time>2016-10-02T09:38:39Z</time>
      </trkpt>
      <trkpt lat="45.98018" lon="4.85023">
        <ele>273</ele>
        <time>2016-10-02T09:38:40Z</time>
      </trkpt>
      <trkpt lat="45.98018" lon="4.8503">
        <ele>273</ele>
        <time>2016-10-02T09:38:41Z</time>
      </trkpt>
      <trkpt lat="45.98019" lon="4.85038">
        <ele>273</ele>
        <time>2016-10-02T09:38:42Z</time>
      </trkpt>
      <trkpt lat="45.9802" lon="4.85046">
        <ele>273</ele>
        <time>2016-10-02T09:38:43Z</time>
      </trkpt>
      <trkpt lat="45.9802" lon="4.85056">
        <ele>273</ele>
        <time>2016-10-02T09:38:44Z</time>
      </trkpt>
      <trkpt lat="45.9802" lon="4.85065">
        <ele>273</ele>
        <time>2016-10-02T09:38:45Z</time>
      </trkpt>
      <trkpt lat="45.9802" lon="4.85075">
        <ele>273</ele>
        <time>2016-10-02T09:38:46Z</time>
      </trkpt>
      <trkpt lat="45.98021" lon="4.85084">
        <ele>274</ele>
        <time>2016-10-02T09:38:47Z</time>
      </trkpt>
      <trkpt lat="45.98022" lon="4.85092">
        <ele>274</ele>
        <time>2016-10-02T09:38:48Z</time>
      </trkpt>
      <trkpt lat="45.98023" lon="4.851">
        <ele>274</ele>
        <time>2016-10-02T09:38:49Z</time>
      </trkpt>
      <trkpt lat="45.98025" lon="4.85107">
        <ele>274</ele>
        <time>2016-10-02T09:38:50Z</time>
      </trkpt>
      <trkpt lat="45.98026" lon="4.85114">
        <ele>274</ele>
        <time>2016-10-02T09:38:51Z</time>
      </trkpt>
      <trkpt lat="45.98028" lon="4.8512">
        <ele>274</ele>
        <time>2016-10-02T09:38:52Z</time>
      </trkpt>
      <trkpt lat="45.9803" lon="4.85126">
        <ele>274</ele>
        <time>2016-10-02T09:38:53Z</time>
      </trkpt>
      <trkpt lat="45.98032" lon="4.85133">
        <ele>275</ele>
        <time>2016-10-02T09:38:54Z</time>
      </trkpt>
      <trkpt lat="45.98034" lon="4.8514">
        <ele>275</ele>
        <time>2016-10-02T09:38:55Z</time>
      </trkpt>
      <trkpt lat="45.98037" lon="4.85146">
        <ele>275</ele>
        <time>2016-10-02T09:38:56Z</time>
      </trkpt>
      <trkpt lat="45.98039" lon="4.85153">
        <ele>275</ele>
        <time>2016-10-02T09:38:57Z</time>
      </trkpt>
      <trkpt lat="45.98042" lon="4.85161">
        <ele>275</ele>
        <time>2016-10-02T09:38:58Z</time>
      </trkpt>
      <trkpt lat="45.98044" lon="4.85168">
        <ele>275</ele>
        <time>2016-10-02T09:38:59Z</time>
      </trkpt>
      <trkpt lat="45.98046" lon="4.85174">
        <ele>275</ele>
        <time>2016-10-02T09:39:00Z</time>
      </trkpt>
      <trkpt lat="45.98048" lon="4.8518">
        <ele>276</ele>
        <time>2016-10-02T09:39:01Z</time>
      </trkpt>
      <trkpt lat="45.9805" lon="4.85186">
        <ele>276</ele>
        <time>2016-10-02T09:39:02Z</time>
      </trkpt>
      <trkpt lat="45.98052" lon="4.85193">
        <ele>276</ele>
        <time>2016-10-02T09:39:03Z</time>
      </trkpt>
      <trkpt lat="45.98054" lon="4.85204">
        <ele>276</ele>
        <time>2016-10-02T09:39:05Z</time>
      </trkpt>
      <trkpt lat="45.98056" lon="4.8521">
        <ele>276</ele>
        <time>2016-10-02T09:39:06Z</time>
      </trkpt>
      <trkpt lat="45.98059" lon="4.85221">
        <ele>276</ele>
        <time>2016-10-02T09:39:08Z</time>
      </trkpt>
      <trkpt lat="45.98061" lon="4.85227">
        <ele>276</ele>
        <time>2016-10-02T09:39:09Z</time>
      </trkpt>
      <trkpt lat="45.98064" lon="4.85233">
        <ele>276</ele>
        <time>2016-10-02T09:39:10Z</time>
      </trkpt>
      <trkpt lat="45.98067" lon="4.85241">
        <ele>276</ele>
        <time>2016-10-02T09:39:11Z</time>
      </trkpt>
      <trkpt lat="45.9807" lon="4.85247">
        <ele>276</ele>
        <time>2016-10-02T09:39:12Z</time>
      </trkpt>
      <trkpt lat="45.98074" lon="4.85254">
        <ele>276</ele>
        <time>2016-10-02T09:39:13Z</time>
      </trkpt>
      <trkpt lat="45.98078" lon="4.8526">
        <ele>276</ele>
        <time>2016-10-02T09:39:14Z</time>
      </trkpt>
      <trkpt lat="45.98081" lon="4.85267">
        <ele>276</ele>
        <time>2016-10-02T09:39:15Z</time>
      </trkpt>
      <trkpt lat="45.98084" lon="4.85274">
        <ele>276</ele>
        <time>2016-10-02T09:39:16Z</time>
      </trkpt>
      <trkpt lat="45.98087" lon="4.8528">
        <ele>276</ele>
        <time>2016-10-02T09:39:17Z</time>
      </trkpt>
      <trkpt lat="45.9809" lon="4.85287">
        <ele>276</ele>
        <time>2016-10-02T09:39:18Z</time>
      </trkpt>
      <trkpt lat="45.98094" lon="4.85294">
        <ele>276</ele>
        <time>2016-10-02T09:39:19Z</time>
      </trkpt>
      <trkpt lat="45.98097" lon="4.85301">
        <ele>276</ele>
        <time>2016-10-02T09:39:20Z</time>
      </trkpt>
      <trkpt lat="45.98101" lon="4.85308">
        <ele>276</ele>
        <time>2016-10-02T09:39:21Z</time>
      </trkpt>
      <trkpt lat="45.98104" lon="4.85314">
        <ele>276</ele>
        <time>2016-10-02T09:39:22Z</time>
      </trkpt>
      <trkpt lat="45.98107" lon="4.85321">
        <ele>276</ele>
        <time>2016-10-02T09:39:23Z</time>
      </trkpt>
      <trkpt lat="45.98109" lon="4.85328">
        <ele>276</ele>
        <time>2016-10-02T09:39:24Z</time>
      </trkpt>
      <trkpt lat="45.98111" lon="4.85336">
        <ele>276</ele>
        <time>2016-10-02T09:39:25Z</time>
      </trkpt>
      <trkpt lat="45.98114" lon="4.85345">
        <ele>276</ele>
        <time>2016-10-02T09:39:26Z</time>
      </trkpt>
      <trkpt lat="45.98116" lon="4.85352">
        <ele>276</ele>
        <time>2016-10-02T09:39:27Z</time>
      </trkpt>
      <trkpt lat="45.98118" lon="4.85358">
        <ele>276</ele>
        <time>2016-10-02T09:39:28Z</time>
      </trkpt>
      <trkpt lat="45.98122" lon="4.85365">
        <ele>276</ele>
        <time>2016-10-02T09:39:29Z</time>
      </trkpt>
      <trkpt lat="45.98127" lon="4.85372">
        <ele>276</ele>
        <time>2016-10-02T09:39:30Z</time>
      </trkpt>
      <trkpt lat="45.98131" lon="4.85379">
        <ele>276</ele>
        <time>2016-10-02T09:39:31Z</time>
      </trkpt>
      <trkpt lat="45.98134" lon="4.85386">
        <ele>276</ele>
        <time>2016-10-02T09:39:32Z</time>
      </trkpt>
      <trkpt lat="45.98137" lon="4.85393">
        <ele>276</ele>
        <time>2016-10-02T09:39:33Z</time>
      </trkpt>
      <trkpt lat="45.9814" lon="4.854">
        <ele>276</ele>
        <time>2016-10-02T09:39:34Z</time>
      </trkpt>
      <trkpt lat="45.98142" lon="4.85406">
        <ele>276</ele>
        <time>2016-10-02T09:39:35Z</time>
      </trkpt>
      <trkpt lat="45.98145" lon="4.85413">
        <ele>276</ele>
        <time>2016-10-02T09:39:36Z</time>
      </trkpt>
      <trkpt lat="45.98147" lon="4.85419">
        <ele>276</ele>
        <time>2016-10-02T09:39:37Z</time>
      </trkpt>
      <trkpt lat="45.9815" lon="4.85426">
        <ele>276</ele>
        <time>2016-10-02T09:39:38Z</time>
      </trkpt>
      <trkpt lat="45.98153" lon="4.85433">
        <ele>276</ele>
        <time>2016-10-02T09:39:39Z</time>
      </trkpt>
      <trkpt lat="45.98154" lon="4.85441">
        <ele>276</ele>
        <time>2016-10-02T09:39:40Z</time>
      </trkpt>
      <trkpt lat="45.98154" lon="4.8545">
        <ele>276</ele>
        <time>2016-10-02T09:39:41Z</time>
      </trkpt>
      <trkpt lat="45.98155" lon="4.85458">
        <ele>276</ele>
        <time>2016-10-02T09:39:42Z</time>
      </trkpt>
      <trkpt lat="45.98158" lon="4.85466">
        <ele>275</ele>
        <time>2016-10-02T09:39:43Z</time>
      </trkpt>
      <trkpt lat="45.98161" lon="4.85473">
        <ele>275</ele>
        <time>2016-10-02T09:39:44Z</time>
      </trkpt>
      <trkpt lat="45.98165" lon="4.8548">
        <ele>275</ele>
        <time>2016-10-02T09:39:45Z</time>
      </trkpt>
      <trkpt lat="45.98168" lon="4.85486">
        <ele>275</ele>
        <time>2016-10-02T09:39:46Z</time>
      </trkpt>
      <trkpt lat="45.98171" lon="4.85493">
        <ele>275</ele>
        <time>2016-10-02T09:39:47Z</time>
      </trkpt>
      <trkpt lat="45.98174" lon="4.85499">
        <ele>275</ele>
        <time>2016-10-02T09:39:48Z</time>
      </trkpt>
      <trkpt lat="45.98177" lon="4.85506">
        <ele>275</ele>
        <time>2016-10-02T09:39:49Z</time>
      </trkpt>
      <trkpt lat="45.9818" lon="4.85513">
        <ele>275</ele>
        <time>2016-10-02T09:39:50Z</time>
      </trkpt>
      <trkpt lat="45.98183" lon="4.8552">
        <ele>275</ele>
        <time>2016-10-02T09:39:51Z</time>
      </trkpt>
      <trkpt lat="45.98186" lon="4.85527">
        <ele>276</ele>
        <time>2016-10-02T09:39:52Z</time>
      </trkpt>
      <trkpt lat="45.98189" lon="4.85533">
        <ele>276</ele>
        <time>2016-10-02T09:39:53Z</time>
      </trkpt>
      <trkpt lat="45.98192" lon="4.8554">
        <ele>276</ele>
        <time>2016-10-02T09:39:54Z</time>
      </trkpt>
      <trkpt lat="45.98196" lon="4.85546">
        <ele>276</ele>
        <time>2016-10-02T09:39:55Z</time>
      </trkpt>
      <trkpt lat="45.98199" lon="4.85552">
        <ele>276</ele>
        <time>2016-10-02T09:39:56Z</time>
      </trkpt>
      <trkpt lat="45.98201" lon="4.85559">
        <ele>276</ele>
        <time>2016-10-02T09:39:57Z</time>
      </trkpt>
      <trkpt lat="45.98204" lon="4.85564">
        <ele>276</ele>
        <time>2016-10-02T09:39:58Z</time>
      </trkpt>
      <trkpt lat="45.98207" lon="4.85571">
        <ele>276</ele>
        <time>2016-10-02T09:39:59Z</time>
      </trkpt>
      <trkpt lat="45.9821" lon="4.85578">
        <ele>276</ele>
        <time>2016-10-02T09:40:00Z</time>
      </trkpt>
      <trkpt lat="45.98213" lon="4.85585">
        <ele>277</ele>
        <time>2016-10-02T09:40:01Z</time>
      </trkpt>
      <trkpt lat="45.98215" lon="4.85592">
        <ele>277</ele>
        <time>2016-10-02T09:40:02Z</time>
      </trkpt>
      <trkpt lat="45.98217" lon="4.85599">
        <ele>277</ele>
        <time>2016-10-02T09:40:03Z</time>
      </trkpt>
      <trkpt lat="45.9822" lon="4.85606">
        <ele>277</ele>
        <time>2016-10-02T09:40:04Z</time>
      </trkpt>
      <trkpt lat="45.98222" lon="4.85613">
        <ele>277</ele>
        <time>2016-10-02T09:40:05Z</time>
      </trkpt>
      <trkpt lat="45.98225" lon="4.85619">
        <ele>277</ele>
        <time>2016-10-02T09:40:06Z</time>
      </trkpt>
      <trkpt lat="45.98228" lon="4.85625">
        <ele>277</ele>
        <time>2016-10-02T09:40:07Z</time>
      </trkpt>
      <trkpt lat="45.98231" lon="4.85632">
        <ele>277</ele>
        <time>2016-10-02T09:40:08Z</time>
      </trkpt>
      <trkpt lat="45.98233" lon="4.85639">
        <ele>277</ele>
        <time>2016-10-02T09:40:09Z</time>
      </trkpt>
      <trkpt lat="45.98237" lon="4.85646">
        <ele>277</ele>
        <time>2016-10-02T09:40:10Z</time>
      </trkpt>
      <trkpt lat="45.98241" lon="4.85653">
        <ele>276</ele>
        <time>2016-10-02T09:40:11Z</time>
      </trkpt>
      <trkpt lat="45.98244" lon="4.8566">
        <ele>276</ele>
        <time>2016-10-02T09:40:12Z</time>
      </trkpt>
      <trkpt lat="45.98246" lon="4.85667">
        <ele>276</ele>
        <time>2016-10-02T09:40:13Z</time>
      </trkpt>
      <trkpt lat="45.98249" lon="4.85674">
        <ele>276</ele>
        <time>2016-10-02T09:40:14Z</time>
      </trkpt>
      <trkpt lat="45.98253" lon="4.8568">
        <ele>275</ele>
        <time>2016-10-02T09:40:15Z</time>
      </trkpt>
      <trkpt lat="45.98255" lon="4.85686">
        <ele>275</ele>
        <time>2016-10-02T09:40:16Z</time>
      </trkpt>
      <trkpt lat="45.98258" lon="4.85692">
        <ele>275</ele>
        <time>2016-10-02T09:40:17Z</time>
      </trkpt>
      <trkpt lat="45.98261" lon="4.85699">
        <ele>275</ele>
        <time>2016-10-02T09:40:18Z</time>
      </trkpt>
      <trkpt lat="45.98263" lon="4.85705">
        <ele>275</ele>
        <time>2016-10-02T09:40:19Z</time>
      </trkpt>
      <trkpt lat="45.98266" lon="4.8571">
        <ele>275</ele>
        <time>2016-10-02T09:40:20Z</time>
      </trkpt>
      <trkpt lat="45.98268" lon="4.85717">
        <ele>275</ele>
        <time>2016-10-02T09:40:21Z</time>
      </trkpt>
      <trkpt lat="45.9827" lon="4.85723">
        <ele>275</ele>
        <time>2016-10-02T09:40:22Z</time>
      </trkpt>
      <trkpt lat="45.98271" lon="4.85729">
        <ele>274</ele>
        <time>2016-10-02T09:40:23Z</time>
      </trkpt>
      <trkpt lat="45.98274" lon="4.85736">
        <ele>274</ele>
        <time>2016-10-02T09:40:24Z</time>
      </trkpt>
      <trkpt lat="45.98276" lon="4.85742">
        <ele>274</ele>
        <time>2016-10-02T09:40:25Z</time>
      </trkpt>
      <trkpt lat="45.98279" lon="4.85753">
        <ele>275</ele>
        <time>2016-10-02T09:40:27Z</time>
      </trkpt>
      <trkpt lat="45.98282" lon="4.8576">
        <ele>275</ele>
        <time>2016-10-02T09:40:28Z</time>
      </trkpt>
      <trkpt lat="45.98285" lon="4.85766">
        <ele>275</ele>
        <time>2016-10-02T09:40:29Z</time>
      </trkpt>
      <trkpt lat="45.98288" lon="4.85772">
        <ele>275</ele>
        <time>2016-10-02T09:40:30Z</time>
      </trkpt>
      <trkpt lat="45.98292" lon="4.85778">
        <ele>275</ele>
        <time>2016-10-02T09:40:31Z</time>
      </trkpt>
      <trkpt lat="45.98295" lon="4.85785">
        <ele>275</ele>
        <time>2016-10-02T09:40:32Z</time>
      </trkpt>
      <trkpt lat="45.98297" lon="4.85792">
        <ele>275</ele>
        <time>2016-10-02T09:40:33Z</time>
      </trkpt>
      <trkpt lat="45.98299" lon="4.858">
        <ele>275</ele>
        <time>2016-10-02T09:40:34Z</time>
      </trkpt>
      <trkpt lat="45.98301" lon="4.85807">
        <ele>275</ele>
        <time>2016-10-02T09:40:35Z</time>
      </trkpt>
      <trkpt lat="45.98303" lon="4.85815">
        <ele>275</ele>
        <time>2016-10-02T09:40:36Z</time>
      </trkpt>
      <trkpt lat="45.98306" lon="4.85822">
        <ele>275</ele>
        <time>2016-10-02T09:40:37Z</time>
      </trkpt>
      <trkpt lat="45.98308" lon="4.85829">
        <ele>275</ele>
        <time>2016-10-02T09:40:38Z</time>
      </trkpt>
      <trkpt lat="45.9831" lon="4.85835">
        <ele>276</ele>
        <time>2016-10-02T09:40:39Z</time>
      </trkpt>
      <trkpt lat="45.98313" lon="4.85842">
        <ele>276</ele>
        <time>2016-10-02T09:40:40Z</time>
      </trkpt>
      <trkpt lat="45.98315" lon="4.85849">
        <ele>276</ele>
        <time>2016-10-02T09:40:41Z</time>
      </trkpt>
      <trkpt lat="45.98318" lon="4.85858">
        <ele>276</ele>
        <time>2016-10-02T09:40:42Z</time>
      </trkpt>
      <trkpt lat="45.98321" lon="4.85864">
        <ele>276</ele>
        <time>2016-10-02T09:40:43Z</time>
      </trkpt>
      <trkpt lat="45.98324" lon="4.8587">
        <ele>276</ele>
        <time>2016-10-02T09:40:44Z</time>
      </trkpt>
      <trkpt lat="45.98326" lon="4.85877">
        <ele>276</ele>
        <time>2016-10-02T09:40:45Z</time>
      </trkpt>
      <trkpt lat="45.98329" lon="4.85883">
        <ele>276</ele>
        <time>2016-10-02T09:40:46Z</time>
      </trkpt>
      <trkpt lat="45.98331" lon="4.85889">
        <ele>276</ele>
        <time>2016-10-02T09:40:47Z</time>
      </trkpt>
      <trkpt lat="45.98334" lon="4.85896">
        <ele>276</ele>
        <time>2016-10-02T09:40:48Z</time>
      </trkpt>
      <trkpt lat="45.98337" lon="4.85903">
        <ele>276</ele>
        <time>2016-10-02T09:40:49Z</time>
      </trkpt>
      <trkpt lat="45.98339" lon="4.85909">
        <ele>276</ele>
        <time>2016-10-02T09:40:50Z</time>
      </trkpt>
      <trkpt lat="45.98342" lon="4.85921">
        <ele>276</ele>
        <time>2016-10-02T09:40:52Z</time>
      </trkpt>
      <trkpt lat="45.98344" lon="4.85927">
        <ele>276</ele>
        <time>2016-10-02T09:40:53Z</time>
      </trkpt>
      <trkpt lat="45.98348" lon="4.85937">
        <ele>276</ele>
        <time>2016-10-02T09:40:55Z</time>
      </trkpt>
      <trkpt lat="45.9835" lon="4.85943">
        <ele>276</ele>
        <time>2016-10-02T09:40:56Z</time>
      </trkpt>
      <trkpt lat="45.98353" lon="4.85953">
        <ele>276</ele>
        <time>2016-10-02T09:40:58Z</time>
      </trkpt>
      <trkpt lat="45.98354" lon="4.8596">
        <ele>276</ele>
        <time>2016-10-02T09:40:59Z</time>
      </trkpt>
      <trkpt lat="45.98357" lon="4.85968">
        <ele>276</ele>
        <time>2016-10-02T09:41:00Z</time>
      </trkpt>
      <trkpt lat="45.98358" lon="4.85976">
        <ele>276</ele>
        <time>2016-10-02T09:41:01Z</time>
      </trkpt>
      <trkpt lat="45.98361" lon="4.85985">
        <ele>277</ele>
        <time>2016-10-02T09:41:02Z</time>
      </trkpt>
      <trkpt lat="45.98365" lon="4.85992">
        <ele>277</ele>
        <time>2016-10-02T09:41:03Z</time>
      </trkpt>
      <trkpt lat="45.98368" lon="4.85999">
        <ele>277</ele>
        <time>2016-10-02T09:41:04Z</time>
      </trkpt>
      <trkpt lat="45.9837" lon="4.86005">
        <ele>277</ele>
        <time>2016-10-02T09:41:05Z</time>
      </trkpt>
      <trkpt lat="45.98372" lon="4.86012">
        <ele>277</ele>
        <time>2016-10-02T09:41:06Z</time>
      </trkpt>
      <trkpt lat="45.98374" lon="4.86018">
        <ele>277</ele>
        <time>2016-10-02T09:41:07Z</time>
      </trkpt>
      <trkpt lat="45.98376" lon="4.86024">
        <ele>277</ele>
        <time>2016-10-02T09:41:08Z</time>
      </trkpt>
      <trkpt lat="45.98377" lon="4.86031">
        <ele>277</ele>
        <time>2016-10-02T09:41:09Z</time>
      </trkpt>
      <trkpt lat="45.98378" lon="4.86038">
        <ele>277</ele>
        <time>2016-10-02T09:41:10Z</time>
      </trkpt>
      <trkpt lat="45.98381" lon="4.86045">
        <ele>277</ele>
        <time>2016-10-02T09:41:11Z</time>
      </trkpt>
      <trkpt lat="45.98384" lon="4.86052">
        <ele>277</ele>
        <time>2016-10-02T09:41:12Z</time>
      </trkpt>
      <trkpt lat="45.98387" lon="4.86059">
        <ele>277</ele>
        <time>2016-10-02T09:41:13Z</time>
      </trkpt>
      <trkpt lat="45.98391" lon="4.86065">
        <ele>277</ele>
        <time>2016-10-02T09:41:14Z</time>
      </trkpt>
      <trkpt lat="45.98394" lon="4.86072">
        <ele>277</ele>
        <time>2016-10-02T09:41:15Z</time>
      </trkpt>
      <trkpt lat="45.98397" lon="4.86077">
        <ele>277</ele>
        <time>2016-10-02T09:41:16Z</time>
      </trkpt>
      <trkpt lat="45.984" lon="4.86084">
        <ele>277</ele>
        <time>2016-10-02T09:41:17Z</time>
      </trkpt>
      <trkpt lat="45.98402" lon="4.8609">
        <ele>277</ele>
        <time>2016-10-02T09:41:18Z</time>
      </trkpt>
      <trkpt lat="45.98403" lon="4.86096">
        <ele>277</ele>
        <time>2016-10-02T09:41:19Z</time>
      </trkpt>
      <trkpt lat="45.98405" lon="4.86108">
        <ele>277</ele>
        <time>2016-10-02T09:41:21Z</time>
      </trkpt>
      <trkpt lat="45.98406" lon="4.86114">
        <ele>277</ele>
        <time>2016-10-02T09:41:22Z</time>
      </trkpt>
      <trkpt lat="45.98407" lon="4.86125">
        <ele>277</ele>
        <time>2016-10-02T09:41:24Z</time>
      </trkpt>
      <trkpt lat="45.98408" lon="4.8613">
        <ele>276</ele>
        <time>2016-10-02T09:41:25Z</time>
      </trkpt>
      <trkpt lat="45.9841" lon="4.86139">
        <ele>276</ele>
        <time>2016-10-02T09:41:27Z</time>
      </trkpt>
      <trkpt lat="45.98411" lon="4.86144">
        <ele>276</ele>
        <time>2016-10-02T09:41:28Z</time>
      </trkpt>
      <trkpt lat="45.98414" lon="4.86154">
        <ele>276</ele>
        <time>2016-10-02T09:41:30Z</time>
      </trkpt>
      <trkpt lat="45.98415" lon="4.8616">
        <ele>276</ele>
        <time>2016-10-02T09:41:31Z</time>
      </trkpt>
      <trkpt lat="45.98416" lon="4.86167">
        <ele>276</ele>
        <time>2016-10-02T09:41:32Z</time>
      </trkpt>
      <trkpt lat="45.98417" lon="4.86173">
        <ele>276</ele>
        <time>2016-10-02T09:41:33Z</time>
      </trkpt>
      <trkpt lat="45.98419" lon="4.86185">
        <ele>275</ele>
        <time>2016-10-02T09:41:35Z</time>
      </trkpt>
      <trkpt lat="45.98419" lon="4.86191">
        <ele>275</ele>
        <time>2016-10-02T09:41:36Z</time>
      </trkpt>
      <trkpt lat="45.98421" lon="4.86202">
        <ele>275</ele>
        <time>2016-10-02T09:41:38Z</time>
      </trkpt>
      <trkpt lat="45.98422" lon="4.86208">
        <ele>275</ele>
        <time>2016-10-02T09:41:39Z</time>
      </trkpt>
      <trkpt lat="45.98424" lon="4.8622">
        <ele>275</ele>
        <time>2016-10-02T09:41:41Z</time>
      </trkpt>
      <trkpt lat="45.98425" lon="4.86226">
        <ele>275</ele>
        <time>2016-10-02T09:41:42Z</time>
      </trkpt>
      <trkpt lat="45.98425" lon="4.86233">
        <ele>275</ele>
        <time>2016-10-02T09:41:43Z</time>
      </trkpt>
      <trkpt lat="45.98425" lon="4.8624">
        <ele>275</ele>
        <time>2016-10-02T09:41:44Z</time>
      </trkpt>
      <trkpt lat="45.98426" lon="4.86247">
        <ele>275</ele>
        <time>2016-10-02T09:41:45Z</time>
      </trkpt>
      <trkpt lat="45.98428" lon="4.86254">
        <ele>275</ele>
        <time>2016-10-02T09:41:46Z</time>
      </trkpt>
      <trkpt lat="45.98429" lon="4.86263">
        <ele>275</ele>
        <time>2016-10-02T09:41:47Z</time>
      </trkpt>
      <trkpt lat="45.98431" lon="4.86271">
        <ele>275</ele>
        <time>2016-10-02T09:41:48Z</time>
      </trkpt>
      <trkpt lat="45.98433" lon="4.8628">
        <ele>276</ele>
        <time>2016-10-02T09:41:49Z</time>
      </trkpt>
      <trkpt lat="45.98434" lon="4.8629">
        <ele>276</ele>
        <time>2016-10-02T09:41:50Z</time>
      </trkpt>
      <trkpt lat="45.98436" lon="4.863">
        <ele>276</ele>
        <time>2016-10-02T09:41:51Z</time>
      </trkpt>
      <trkpt lat="45.98438" lon="4.86311">
        <ele>276</ele>
        <time>2016-10-02T09:41:52Z</time>
      </trkpt>
      <trkpt lat="45.9844" lon="4.8632">
        <ele>276</ele>
        <time>2016-10-02T09:41:53Z</time>
      </trkpt>
      <trkpt lat="45.98443" lon="4.8633">
        <ele>276</ele>
        <time>2016-10-02T09:41:54Z</time>
      </trkpt>
      <trkpt lat="45.98445" lon="4.8634">
        <ele>277</ele>
        <time>2016-10-02T09:41:55Z</time>
      </trkpt>
      <trkpt lat="45.98447" lon="4.8635">
        <ele>277</ele>
        <time>2016-10-02T09:41:56Z</time>
      </trkpt>
      <trkpt lat="45.98449" lon="4.86359">
        <ele>277</ele>
        <time>2016-10-02T09:41:57Z</time>
      </trkpt>
      <trkpt lat="45.98453" lon="4.86366">
        <ele>277</ele>
        <time>2016-10-02T09:41:58Z</time>
      </trkpt>
      <trkpt lat="45.98455" lon="4.86376">
        <ele>277</ele>
        <time>2016-10-02T09:41:59Z</time>
      </trkpt>
      <trkpt lat="45.98458" lon="4.86384">
        <ele>277</ele>
        <time>2016-10-02T09:42:00Z</time>
      </trkpt>
      <trkpt lat="45.98461" lon="4.86391">
        <ele>277</ele>
        <time>2016-10-02T09:42:01Z</time>
      </trkpt>
      <trkpt lat="45.98465" lon="4.86399">
        <ele>277</ele>
        <time>2016-10-02T09:42:02Z</time>
      </trkpt>
      <trkpt lat="45.98468" lon="4.86406">
        <ele>277</ele>
        <time>2016-10-02T09:42:03Z</time>
      </trkpt>
      <trkpt lat="45.98472" lon="4.86414">
        <ele>277</ele>
        <time>2016-10-02T09:42:04Z</time>
      </trkpt>
      <trkpt lat="45.98475" lon="4.86422">
        <ele>278</ele>
        <time>2016-10-02T09:42:05Z</time>
      </trkpt>
      <trkpt lat="45.98479" lon="4.86429">
        <ele>278</ele>
        <time>2016-10-02T09:42:06Z</time>
      </trkpt>
      <trkpt lat="45.98482" lon="4.86436">
        <ele>278</ele>
        <time>2016-10-02T09:42:07Z</time>
      </trkpt>
      <trkpt lat="45.98485" lon="4.86443">
        <ele>278</ele>
        <time>2016-10-02T09:42:08Z</time>
      </trkpt>
      <trkpt lat="45.98488" lon="4.8645">
        <ele>278</ele>
        <time>2016-10-02T09:42:09Z</time>
      </trkpt>
      <trkpt lat="45.98491" lon="4.86456">
        <ele>278</ele>
        <time>2016-10-02T09:42:10Z</time>
      </trkpt>
      <trkpt lat="45.98494" lon="4.86463">
        <ele>278</ele>
        <time>2016-10-02T09:42:11Z</time>
      </trkpt>
      <trkpt lat="45.98497" lon="4.8647">
        <ele>279</ele>
        <time>2016-10-02T09:42:12Z</time>
      </trkpt>
      <trkpt lat="45.985" lon="4.86477">
        <ele>279</ele>
        <time>2016-10-02T09:42:13Z</time>
      </trkpt>
      <trkpt lat="45.98503" lon="4.86485">
        <ele>279</ele>
        <time>2016-10-02T09:42:14Z</time>
      </trkpt>
      <trkpt lat="45.98506" lon="4.86492">
        <ele>279</ele>
        <time>2016-10-02T09:42:15Z</time>
      </trkpt>
      <trkpt lat="45.9851" lon="4.86499">
        <ele>279</ele>
        <time>2016-10-02T09:42:16Z</time>
      </trkpt>
      <trkpt lat="45.98513" lon="4.86506">
        <ele>279</ele>
        <time>2016-10-02T09:42:17Z</time>
      </trkpt>
      <trkpt lat="45.98516" lon="4.86512">
        <ele>279</ele>
        <time>2016-10-02T09:42:18Z</time>
      </trkpt>
      <trkpt lat="45.98519" lon="4.86519">
        <ele>279</ele>
        <time>2016-10-02T09:42:19Z</time>
      </trkpt>
      <trkpt lat="45.98523" lon="4.86525">
        <ele>279</ele>
        <time>2016-10-02T09:42:20Z</time>
      </trkpt>
      <trkpt lat="45.98526" lon="4.86531">
        <ele>279</ele>
        <time>2016-10-02T09:42:21Z</time>
      </trkpt>
      <trkpt lat="45.98529" lon="4.86538">
        <ele>279</ele>
        <time>2016-10-02T09:42:22Z</time>
      </trkpt>
      <trkpt lat="45.98532" lon="4.86544">
        <ele>279</ele>
        <time>2016-10-02T09:42:23Z</time>
      </trkpt>
      <trkpt lat="45.98534" lon="4.8655">
        <ele>279</ele>
        <time>2016-10-02T09:42:24Z</time>
      </trkpt>
      <trkpt lat="45.98538" lon="4.86556">
        <ele>279</ele>
        <time>2016-10-02T09:42:25Z</time>
      </trkpt>
      <trkpt lat="45.98542" lon="4.86564">
        <ele>278</ele>
        <time>2016-10-02T09:42:26Z</time>
      </trkpt>
      <trkpt lat="45.98545" lon="4.86571">
        <ele>278</ele>
        <time>2016-10-02T09:42:27Z</time>
      </trkpt>
      <trkpt lat="45.98548" lon="4.86578">
        <ele>278</ele>
        <time>2016-10-02T09:42:28Z</time>
      </trkpt>
      <trkpt lat="45.98551" lon="4.86585">
        <ele>278</ele>
        <time>2016-10-02T09:42:29Z</time>
      </trkpt>
      <trkpt lat="45.98554" lon="4.86592">
        <ele>278</ele>
        <time>2016-10-02T09:42:30Z</time>
      </trkpt>
      <trkpt lat="45.98557" lon="4.86598">
        <ele>278</ele>
        <time>2016-10-02T09:42:31Z</time>
      </trkpt>
      <trkpt lat="45.98558" lon="4.86605">
        <ele>278</ele>
        <time>2016-10-02T09:42:32Z</time>
      </trkpt>
      <trkpt lat="45.98558" lon="4.86614">
        <ele>278</ele>
        <time>2016-10-02T09:42:33Z</time>
      </trkpt>
      <trkpt lat="45.9856" lon="4.86621">
        <ele>278</ele>
        <time>2016-10-02T09:42:34Z</time>
      </trkpt>
      <trkpt lat="45.98561" lon="4.86628">
        <ele>278</ele>
        <time>2016-10-02T09:42:35Z</time>
      </trkpt>
      <trkpt lat="45.98562" lon="4.86636">
        <ele>277</ele>
        <time>2016-10-02T09:42:36Z</time>
      </trkpt>
      <trkpt lat="45.98564" lon="4.86643">
        <ele>277</ele>
        <time>2016-10-02T09:42:37Z</time>
      </trkpt>
      <trkpt lat="45.98565" lon="4.8665">
        <ele>277</ele>
        <time>2016-10-02T09:42:38Z</time>
      </trkpt>
      <trkpt lat="45.98566" lon="4.86658">
        <ele>277</ele>
        <time>2016-10-02T09:42:39Z</time>
      </trkpt>
      <trkpt lat="45.98568" lon="4.86667">
        <ele>276</ele>
        <time>2016-10-02T09:42:40Z</time>
      </trkpt>
      <trkpt lat="45.98569" lon="4.86675">
        <ele>276</ele>
        <time>2016-10-02T09:42:41Z</time>
      </trkpt>
      <trkpt lat="45.98569" lon="4.86683">
        <ele>276</ele>
        <time>2016-10-02T09:42:42Z</time>
      </trkpt>
      <trkpt lat="45.98569" lon="4.86691">
        <ele>277</ele>
        <time>2016-10-02T09:42:43Z</time>
      </trkpt>
      <trkpt lat="45.9857" lon="4.86698">
        <ele>277</ele>
        <time>2016-10-02T09:42:44Z</time>
      </trkpt>
      <trkpt lat="45.9857" lon="4.86706">
        <ele>277</ele>
        <time>2016-10-02T09:42:45Z</time>
      </trkpt>
      <trkpt lat="45.9857" lon="4.86714">
        <ele>277</ele>
        <time>2016-10-02T09:42:46Z</time>
      </trkpt>
      <trkpt lat="45.9857" lon="4.86722">
        <ele>277</ele>
        <time>2016-10-02T09:42:47Z</time>
      </trkpt>
      <trkpt lat="45.9857" lon="4.86729">
        <ele>277</ele>
        <time>2016-10-02T09:42:48Z</time>
      </trkpt>
      <trkpt lat="45.9857" lon="4.86736">
        <ele>277</ele>
        <time>2016-10-02T09:42:49Z</time>
      </trkpt>
      <trkpt lat="45.98571" lon="4.86743">
        <ele>277</ele>
        <time>2016-10-02T09:42:50Z</time>
      </trkpt>
      <trkpt lat="45.98572" lon="4.8675">
        <ele>277</ele>
        <time>2016-10-02T09:42:51Z</time>
      </trkpt>
      <trkpt lat="45.98574" lon="4.86758">
        <ele>277</ele>
        <time>2016-10-02T09:42:52Z</time>
      </trkpt>
      <trkpt lat="45.98575" lon="4.86765">
        <ele>277</ele>
        <time>2016-10-02T09:42:53Z</time>
      </trkpt>
      <trkpt lat="45.98576" lon="4.86773">
        <ele>277</ele>
        <time>2016-10-02T09:42:54Z</time>
      </trkpt>
      <trkpt lat="45.98577" lon="4.86781">
        <ele>277</ele>
        <time>2016-10-02T09:42:55Z</time>
      </trkpt>
      <trkpt lat="45.98579" lon="4.86789">
        <ele>277</ele>
        <time>2016-10-02T09:42:56Z</time>
      </trkpt>
      <trkpt lat="45.98581" lon="4.86797">
        <ele>277</ele>
        <time>2016-10-02T09:42:57Z</time>
      </trkpt>
      <trkpt lat="45.98583" lon="4.86805">
        <ele>277</ele>
        <time>2016-10-02T09:42:58Z</time>
      </trkpt>
      <trkpt lat="45.98584" lon="4.86814">
        <ele>276</ele>
        <time>2016-10-02T09:42:59Z</time>
      </trkpt>
      <trkpt lat="45.98585" lon="4.86822">
        <ele>277</ele>
        <time>2016-10-02T09:43:00Z</time>
      </trkpt>
      <trkpt lat="45.98586" lon="4.8683">
        <ele>277</ele>
        <time>2016-10-02T09:43:01Z</time>
      </trkpt>
      <trkpt lat="45.98587" lon="4.86838">
        <ele>277</ele>
        <time>2016-10-02T09:43:02Z</time>
      </trkpt>
      <trkpt lat="45.98587" lon="4.86847">
        <ele>277</ele>
        <time>2016-10-02T09:43:03Z</time>
      </trkpt>
      <trkpt lat="45.98588" lon="4.86856">
        <ele>277</ele>
        <time>2016-10-02T09:43:04Z</time>
      </trkpt>
      <trkpt lat="45.98588" lon="4.86865">
        <ele>277</ele>
        <time>2016-10-02T09:43:05Z</time>
      </trkpt>
      <trkpt lat="45.98588" lon="4.86875">
        <ele>277</ele>
        <time>2016-10-02T09:43:06Z</time>
      </trkpt>
      <trkpt lat="45.98589" lon="4.86884">
        <ele>278</ele>
        <time>2016-10-02T09:43:07Z</time>
      </trkpt>
      <trkpt lat="45.98589" lon="4.86892">
        <ele>278</ele>
        <time>2016-10-02T09:43:08Z</time>
      </trkpt>
      <trkpt lat="45.98589" lon="4.86901">
        <ele>278</ele>
        <time>2016-10-02T09:43:09Z</time>
      </trkpt>
      <trkpt lat="45.98588" lon="4.86909">
        <ele>278</ele>
        <time>2016-10-02T09:43:10Z</time>
      </trkpt>
      <trkpt lat="45.98588" lon="4.86918">
        <ele>279</ele>
        <time>2016-10-02T09:43:11Z</time>
      </trkpt>
      <trkpt lat="45.98587" lon="4.86927">
        <ele>279</ele>
        <time>2016-10-02T09:43:12Z</time>
      </trkpt>
      <trkpt lat="45.98587" lon="4.86936">
        <ele>279</ele>
        <time>2016-10-02T09:43:13Z</time>
      </trkpt>
      <trkpt lat="45.98587" lon="4.86945">
        <ele>279</ele>
        <time>2016-10-02T09:43:14Z</time>
      </trkpt>
      <trkpt lat="45.98587" lon="4.86953">
        <ele>279</ele>
        <time>2016-10-02T09:43:15Z</time>
      </trkpt>
      <trkpt lat="45.98588" lon="4.86961">
        <ele>279</ele>
        <time>2016-10-02T09:43:16Z</time>
      </trkpt>
      <trkpt lat="45.98588" lon="4.86971">
        <ele>279</ele>
        <time>2016-10-02T09:43:17Z</time>
      </trkpt>
      <trkpt lat="45.98588" lon="4.8698">
        <ele>279</ele>
        <time>2016-10-02T09:43:18Z</time>
      </trkpt>
      <trkpt lat="45.98589" lon="4.86988">
        <ele>279</ele>
        <time>2016-10-02T09:43:19Z</time>
      </trkpt>
      <trkpt lat="45.9859" lon="4.86996">
        <ele>279</ele>
        <time>2016-10-02T09:43:20Z</time>
      </trkpt>
      <trkpt lat="45.9859" lon="4.87004">
        <ele>280</ele>
        <time>2016-10-02T09:43:21Z</time>
      </trkpt>
      <trkpt lat="45.98591" lon="4.87012">
        <ele>279</ele>
        <time>2016-10-02T09:43:22Z</time>
      </trkpt>
      <trkpt lat="45.98593" lon="4.8702">
        <ele>279</ele>
        <time>2016-10-02T09:43:23Z</time>
      </trkpt>
      <trkpt lat="45.98595" lon="4.87028">
        <ele>279</ele>
        <time>2016-10-02T09:43:24Z</time>
      </trkpt>
      <trkpt lat="45.98596" lon="4.87036">
        <ele>279</ele>
        <time>2016-10-02T09:43:25Z</time>
      </trkpt>
      <trkpt lat="45.98598" lon="4.87044">
        <ele>279</ele>
        <time>2016-10-02T09:43:26Z</time>
      </trkpt>
      <trkpt lat="45.98599" lon="4.87052">
        <ele>279</ele>
        <time>2016-10-02T09:43:27Z</time>
      </trkpt>
      <trkpt lat="45.986" lon="4.87059">
        <ele>279</ele>
        <time>2016-10-02T09:43:28Z</time>
      </trkpt>
      <trkpt lat="45.98602" lon="4.87067">
        <ele>279</ele>
        <time>2016-10-02T09:43:29Z</time>
      </trkpt>
      <trkpt lat="45.98603" lon="4.87075">
        <ele>279</ele>
        <time>2016-10-02T09:43:30Z</time>
      </trkpt>
      <trkpt lat="45.98604" lon="4.87084">
        <ele>279</ele>
        <time>2016-10-02T09:43:31Z</time>
      </trkpt>
      <trkpt lat="45.98605" lon="4.87092">
        <ele>279</ele>
        <time>2016-10-02T09:43:32Z</time>
      </trkpt>
      <trkpt lat="45.98605" lon="4.871">
        <ele>279</ele>
        <time>2016-10-02T09:43:33Z</time>
      </trkpt>
      <trkpt lat="45.98607" lon="4.87109">
        <ele>279</ele>
        <time>2016-10-02T09:43:34Z</time>
      </trkpt>
      <trkpt lat="45.98608" lon="4.87119">
        <ele>279</ele>
        <time>2016-10-02T09:43:35Z</time>
      </trkpt>
      <trkpt lat="45.9861" lon="4.87128">
        <ele>279</ele>
        <time>2016-10-02T09:43:36Z</time>
      </trkpt>
      <trkpt lat="45.9861" lon="4.87137">
        <ele>279</ele>
        <time>2016-10-02T09:43:37Z</time>
      </trkpt>
      <trkpt lat="45.9861" lon="4.87147">
        <ele>278</ele>
        <time>2016-10-02T09:43:38Z</time>
      </trkpt>
      <trkpt lat="45.9861" lon="4.87157">
        <ele>278</ele>
        <time>2016-10-02T09:43:39Z</time>
      </trkpt>
      <trkpt lat="45.9861" lon="4.87167">
        <ele>278</ele>
        <time>2016-10-02T09:43:40Z</time>
      </trkpt>
      <trkpt lat="45.9861" lon="4.87177">
        <ele>278</ele>
        <time>2016-10-02T09:43:41Z</time>
      </trkpt>
      <trkpt lat="45.98611" lon="4.87188">
        <ele>277</ele>
        <time>2016-10-02T09:43:42Z</time>
      </trkpt>
      <trkpt lat="45.9861" lon="4.87198">
        <ele>277</ele>
        <time>2016-10-02T09:43:43Z</time>
      </trkpt>
      <trkpt lat="45.98609" lon="4.87208">
        <ele>277</ele>
        <time>2016-10-02T09:43:44Z</time>
      </trkpt>
      <trkpt lat="45.98608" lon="4.87217">
        <ele>277</ele>
        <time>2016-10-02T09:43:45Z</time>
      </trkpt>
      <trkpt lat="45.98606" lon="4.87224">
        <ele>277</ele>
        <time>2016-10-02T09:43:46Z</time>
      </trkpt>
      <trkpt lat="45.98605" lon="4.87232">
        <ele>277</ele>
        <time>2016-10-02T09:43:47Z</time>
      </trkpt>
      <trkpt lat="45.98604" lon="4.87241">
        <ele>277</ele>
        <time>2016-10-02T09:43:48Z</time>
      </trkpt>
      <trkpt lat="45.98603" lon="4.87249">
        <ele>277</ele>
        <time>2016-10-02T09:43:49Z</time>
      </trkpt>
      <trkpt lat="45.98603" lon="4.87257">
        <ele>275</ele>
        <time>2016-10-02T09:43:50Z</time>
      </trkpt>
      <trkpt lat="45.986" lon="4.87267">
        <ele>275</ele>
        <time>2016-10-02T09:43:51Z</time>
      </trkpt>
      <trkpt lat="45.98599" lon="4.87276">
        <ele>275</ele>
        <time>2016-10-02T09:43:52Z</time>
      </trkpt>
      <trkpt lat="45.98598" lon="4.87285">
        <ele>275</ele>
        <time>2016-10-02T09:43:53Z</time>
      </trkpt>
      <trkpt lat="45.98597" lon="4.87295">
        <ele>275</ele>
        <time>2016-10-02T09:43:54Z</time>
      </trkpt>
      <trkpt lat="45.98596" lon="4.87304">
        <ele>274</ele>
        <time>2016-10-02T09:43:55Z</time>
      </trkpt>
      <trkpt lat="45.98597" lon="4.87315">
        <ele>274</ele>
        <time>2016-10-02T09:43:56Z</time>
      </trkpt>
      <trkpt lat="45.98598" lon="4.87325">
        <ele>274</ele>
        <time>2016-10-02T09:43:57Z</time>
      </trkpt>
      <trkpt lat="45.98599" lon="4.87335">
        <ele>273</ele>
        <time>2016-10-02T09:43:58Z</time>
      </trkpt>
      <trkpt lat="45.98601" lon="4.87344">
        <ele>272</ele>
        <time>2016-10-02T09:43:59Z</time>
      </trkpt>
      <trkpt lat="45.98603" lon="4.87354">
        <ele>272</ele>
        <time>2016-10-02T09:44:00Z</time>
      </trkpt>
      <trkpt lat="45.98606" lon="4.87364">
        <ele>272</ele>
        <time>2016-10-02T09:44:01Z</time>
      </trkpt>
      <trkpt lat="45.98608" lon="4.87373">
        <ele>271</ele>
        <time>2016-10-02T09:44:02Z</time>
      </trkpt>
      <trkpt lat="45.9861" lon="4.87383">
        <ele>271</ele>
        <time>2016-10-02T09:44:03Z</time>
      </trkpt>
      <trkpt lat="45.98612" lon="4.87395">
        <ele>271</ele>
        <time>2016-10-02T09:44:04Z</time>
      </trkpt>
      <trkpt lat="45.98615" lon="4.87407">
        <ele>271</ele>
        <time>2016-10-02T09:44:05Z</time>
      </trkpt>
      <trkpt lat="45.98617" lon="4.87418">
        <ele>269</ele>
        <time>2016-10-02T09:44:06Z</time>
      </trkpt>
      <trkpt lat="45.98619" lon="4.87429">
        <ele>269</ele>
        <time>2016-10-02T09:44:07Z</time>
      </trkpt>
      <trkpt lat="45.98622" lon="4.87441">
        <ele>269</ele>
        <time>2016-10-02T09:44:08Z</time>
      </trkpt>
      <trkpt lat="45.98624" lon="4.87452">
        <ele>268</ele>
        <time>2016-10-02T09:44:09Z</time>
      </trkpt>
      <trkpt lat="45.98626" lon="4.87462">
        <ele>268</ele>
        <time>2016-10-02T09:44:10Z</time>
      </trkpt>
      <trkpt lat="45.98628" lon="4.87472">
        <ele>268</ele>
        <time>2016-10-02T09:44:11Z</time>
      </trkpt>
      <trkpt lat="45.98631" lon="4.87481">
        <ele>268</ele>
        <time>2016-10-02T09:44:12Z</time>
      </trkpt>
      <trkpt lat="45.98634" lon="4.87491">
        <ele>268</ele>
        <time>2016-10-02T09:44:13Z</time>
      </trkpt>
      <trkpt lat="45.98636" lon="4.87502">
        <ele>267</ele>
        <time>2016-10-02T09:44:14Z</time>
      </trkpt>
      <trkpt lat="45.98638" lon="4.87512">
        <ele>267</ele>
        <time>2016-10-02T09:44:15Z</time>
      </trkpt>
      <trkpt lat="45.9864" lon="4.87522">
        <ele>267</ele>
        <time>2016-10-02T09:44:16Z</time>
      </trkpt>
      <trkpt lat="45.98642" lon="4.87532">
        <ele>267</ele>
        <time>2016-10-02T09:44:17Z</time>
      </trkpt>
      <trkpt lat="45.98645" lon="4.87543">
        <ele>267</ele>
        <time>2016-10-02T09:44:18Z</time>
      </trkpt>
      <trkpt lat="45.98649" lon="4.87551">
        <ele>267</ele>
        <time>2016-10-02T09:44:19Z</time>
      </trkpt>
      <trkpt lat="45.98653" lon="4.87558">
        <ele>267</ele>
        <time>2016-10-02T09:44:20Z</time>
      </trkpt>
      <trkpt lat="45.98658" lon="4.87564">
        <ele>267</ele>
        <time>2016-10-02T09:44:21Z</time>
      </trkpt>
      <trkpt lat="45.98664" lon="4.87569">
        <ele>267</ele>
        <time>2016-10-02T09:44:22Z</time>
      </trkpt>
      <trkpt lat="45.98669" lon="4.87572">
        <ele>267</ele>
        <time>2016-10-02T09:44:23Z</time>
      </trkpt>
      <trkpt lat="45.98675" lon="4.87573">
        <ele>267</ele>
        <time>2016-10-02T09:44:24Z</time>
      </trkpt>
      <trkpt lat="45.9868" lon="4.87573">
        <ele>267</ele>
        <time>2016-10-02T09:44:25Z</time>
      </trkpt>
      <trkpt lat="45.98685" lon="4.87573">
        <ele>267</ele>
        <time>2016-10-02T09:44:26Z</time>
      </trkpt>
      <trkpt lat="45.9869" lon="4.87572">
        <ele>267</ele>
        <time>2016-10-02T09:44:27Z</time>
      </trkpt>
      <trkpt lat="45.98694" lon="4.87571">
        <ele>267</ele>
        <time>2016-10-02T09:44:28Z</time>
      </trkpt>
      <trkpt lat="45.98699" lon="4.87571">
        <ele>267</ele>
        <time>2016-10-02T09:44:29Z</time>
      </trkpt>
      <trkpt lat="45.98704" lon="4.8757">
        <ele>267</ele>
        <time>2016-10-02T09:44:30Z</time>
      </trkpt>
      <trkpt lat="45.9871" lon="4.87569">
        <ele>267</ele>
        <time>2016-10-02T09:44:31Z</time>
      </trkpt>
      <trkpt lat="45.98716" lon="4.87568">
        <ele>267</ele>
        <time>2016-10-02T09:44:32Z</time>
      </trkpt>
      <trkpt lat="45.98722" lon="4.87567">
        <ele>267</ele>
        <time>2016-10-02T09:44:33Z</time>
      </trkpt>
      <trkpt lat="45.98728" lon="4.87567">
        <ele>267</ele>
        <time>2016-10-02T09:44:34Z</time>
      </trkpt>
      <trkpt lat="45.98733" lon="4.87567">
        <ele>267</ele>
        <time>2016-10-02T09:44:35Z</time>
      </trkpt>
      <trkpt lat="45.98738" lon="4.87568">
        <ele>267</ele>
        <time>2016-10-02T09:44:36Z</time>
      </trkpt>
      <trkpt lat="45.98742" lon="4.87571">
        <ele>267</ele>
        <time>2016-10-02T09:44:37Z</time>
      </trkpt>
      <trkpt lat="45.98747" lon="4.87574">
        <ele>267</ele>
        <time>2016-10-02T09:44:38Z</time>
      </trkpt>
      <trkpt lat="45.9875" lon="4.87576">
        <ele>268</ele>
        <time>2016-10-02T09:44:39Z</time>
      </trkpt>
      <trkpt lat="45.98758" lon="4.87582">
        <ele>268</ele>
        <time>2016-10-02T09:44:41Z</time>
      </trkpt>
      <trkpt lat="45.98762" lon="4.87585">
        <ele>269</ele>
        <time>2016-10-02T09:44:42Z</time>
      </trkpt>
      <trkpt lat="45.98766" lon="4.87589">
        <ele>270</ele>
        <time>2016-10-02T09:44:43Z</time>
      </trkpt>
      <trkpt lat="45.9877" lon="4.87594">
        <ele>270</ele>
        <time>2016-10-02T09:44:44Z</time>
      </trkpt>
      <trkpt lat="45.98775" lon="4.87599">
        <ele>270</ele>
        <time>2016-10-02T09:44:45Z</time>
      </trkpt>
      <trkpt lat="45.98779" lon="4.87604">
        <ele>271</ele>
        <time>2016-10-02T09:44:46Z</time>
      </trkpt>
      <trkpt lat="45.98783" lon="4.87608">
        <ele>271</ele>
        <time>2016-10-02T09:44:47Z</time>
      </trkpt>
      <trkpt lat="45.98787" lon="4.87613">
        <ele>271</ele>
        <time>2016-10-02T09:44:48Z</time>
      </trkpt>
      <trkpt lat="45.98791" lon="4.87618">
        <ele>271</ele>
        <time>2016-10-02T09:44:49Z</time>
      </trkpt>
      <trkpt lat="45.98794" lon="4.87623">
        <ele>271</ele>
        <time>2016-10-02T09:44:50Z</time>
      </trkpt>
      <trkpt lat="45.988" lon="4.87631">
        <ele>271</ele>
        <time>2016-10-02T09:44:52Z</time>
      </trkpt>
      <trkpt lat="45.98803" lon="4.87636">
        <ele>271</ele>
        <time>2016-10-02T09:44:53Z</time>
      </trkpt>
      <trkpt lat="45.98808" lon="4.87644">
        <ele>272</ele>
        <time>2016-10-02T09:44:55Z</time>
      </trkpt>
      <trkpt lat="45.98809" lon="4.87648">
        <ele>272</ele>
        <time>2016-10-02T09:44:56Z</time>
      </trkpt>
      <trkpt lat="45.9881" lon="4.87656">
        <ele>272</ele>
        <time>2016-10-02T09:44:58Z</time>
      </trkpt>
      <trkpt lat="45.98812" lon="4.87661">
        <ele>272</ele>
        <time>2016-10-02T09:44:59Z</time>
      </trkpt>
      <trkpt lat="45.98814" lon="4.87668">
        <ele>273</ele>
        <time>2016-10-02T09:45:00Z</time>
      </trkpt>
      <trkpt lat="45.98816" lon="4.87676">
        <ele>273</ele>
        <time>2016-10-02T09:45:01Z</time>
      </trkpt>
      <trkpt lat="45.98816" lon="4.87684">
        <ele>273</ele>
        <time>2016-10-02T09:45:02Z</time>
      </trkpt>
      <trkpt lat="45.98818" lon="4.87692">
        <ele>273</ele>
        <time>2016-10-02T09:45:03Z</time>
      </trkpt>
      <trkpt lat="45.98819" lon="4.87699">
        <ele>273</ele>
        <time>2016-10-02T09:45:04Z</time>
      </trkpt>
      <trkpt lat="45.98821" lon="4.87708">
        <ele>274</ele>
        <time>2016-10-02T09:45:05Z</time>
      </trkpt>
      <trkpt lat="45.98823" lon="4.87716">
        <ele>274</ele>
        <time>2016-10-02T09:45:06Z</time>
      </trkpt>
      <trkpt lat="45.98826" lon="4.87727">
        <ele>274</ele>
        <time>2016-10-02T09:45:07Z</time>
      </trkpt>
      <trkpt lat="45.98828" lon="4.87734">
        <ele>274</ele>
        <time>2016-10-02T09:45:08Z</time>
      </trkpt>
      <trkpt lat="45.9883" lon="4.8774">
        <ele>273</ele>
        <time>2016-10-02T09:45:09Z</time>
      </trkpt>
      <trkpt lat="45.98831" lon="4.87747">
        <ele>273</ele>
        <time>2016-10-02T09:45:10Z</time>
      </trkpt>
      <trkpt lat="45.98832" lon="4.87753">
        <ele>273</ele>
        <time>2016-10-02T09:45:11Z</time>
      </trkpt>
      <trkpt lat="45.98835" lon="4.87764">
        <ele>273</ele>
        <time>2016-10-02T09:45:13Z</time>
      </trkpt>
      <trkpt lat="45.98837" lon="4.87771">
        <ele>273</ele>
        <time>2016-10-02T09:45:14Z</time>
      </trkpt>
      <trkpt lat="45.98839" lon="4.87777">
        <ele>273</ele>
        <time>2016-10-02T09:45:15Z</time>
      </trkpt>
      <trkpt lat="45.98841" lon="4.87784">
        <ele>273</ele>
        <time>2016-10-02T09:45:16Z</time>
      </trkpt>
      <trkpt lat="45.98844" lon="4.87791">
        <ele>273</ele>
        <time>2016-10-02T09:45:17Z</time>
      </trkpt>
      <trkpt lat="45.98846" lon="4.87798">
        <ele>273</ele>
        <time>2016-10-02T09:45:18Z</time>
      </trkpt>
      <trkpt lat="45.9885" lon="4.87806">
        <ele>273</ele>
        <time>2016-10-02T09:45:19Z</time>
      </trkpt>
      <trkpt lat="45.98854" lon="4.87814">
        <ele>273</ele>
        <time>2016-10-02T09:45:20Z</time>
      </trkpt>
      <trkpt lat="45.98858" lon="4.87823">
        <ele>273</ele>
        <time>2016-10-02T09:45:21Z</time>
      </trkpt>
      <trkpt lat="45.98861" lon="4.8783">
        <ele>273</ele>
        <time>2016-10-02T09:45:22Z</time>
      </trkpt>
      <trkpt lat="45.98863" lon="4.87837">
        <ele>273</ele>
        <time>2016-10-02T09:45:23Z</time>
      </trkpt>
      <trkpt lat="45.98865" lon="4.87843">
        <ele>273</ele>
        <time>2016-10-02T09:45:24Z</time>
      </trkpt>
      <trkpt lat="45.98868" lon="4.87848">
        <ele>273</ele>
        <time>2016-10-02T09:45:25Z</time>
      </trkpt>
      <trkpt lat="45.98871" lon="4.87854">
        <ele>273</ele>
        <time>2016-10-02T09:45:26Z</time>
      </trkpt>
      <trkpt lat="45.98874" lon="4.87859">
        <ele>273</ele>
        <time>2016-10-02T09:45:27Z</time>
      </trkpt>
      <trkpt lat="45.98877" lon="4.87864">
        <ele>272</ele>
        <time>2016-10-02T09:45:28Z</time>
      </trkpt>
      <trkpt lat="45.98881" lon="4.87871">
        <ele>272</ele>
        <time>2016-10-02T09:45:29Z</time>
      </trkpt>
      <trkpt lat="45.98885" lon="4.87876">
        <ele>272</ele>
        <time>2016-10-02T09:45:30Z</time>
      </trkpt>
      <trkpt lat="45.98889" lon="4.87881">
        <ele>272</ele>
        <time>2016-10-02T09:45:31Z</time>
      </trkpt>
      <trkpt lat="45.98892" lon="4.87886">
        <ele>272</ele>
        <time>2016-10-02T09:45:32Z</time>
      </trkpt>
      <trkpt lat="45.98895" lon="4.87891">
        <ele>272</ele>
        <time>2016-10-02T09:45:33Z</time>
      </trkpt>
      <trkpt lat="45.98899" lon="4.87894">
        <ele>272</ele>
        <time>2016-10-02T09:45:34Z</time>
      </trkpt>
      <trkpt lat="45.98903" lon="4.87898">
        <ele>272</ele>
        <time>2016-10-02T09:45:35Z</time>
      </trkpt>
      <trkpt lat="45.98906" lon="4.87902">
        <ele>272</ele>
        <time>2016-10-02T09:45:36Z</time>
      </trkpt>
      <trkpt lat="45.9891" lon="4.87906">
        <ele>272</ele>
        <time>2016-10-02T09:45:37Z</time>
      </trkpt>
      <trkpt lat="45.98913" lon="4.8791">
        <ele>271</ele>
        <time>2016-10-02T09:45:38Z</time>
      </trkpt>
      <trkpt lat="45.98916" lon="4.87914">
        <ele>271</ele>
        <time>2016-10-02T09:45:39Z</time>
      </trkpt>
      <trkpt lat="45.9892" lon="4.87918">
        <ele>271</ele>
        <time>2016-10-02T09:45:40Z</time>
      </trkpt>
      <trkpt lat="45.98925" lon="4.87921">
        <ele>272</ele>
        <time>2016-10-02T09:45:41Z</time>
      </trkpt>
      <trkpt lat="45.98929" lon="4.87925">
        <ele>272</ele>
        <time>2016-10-02T09:45:42Z</time>
      </trkpt>
      <trkpt lat="45.98937" lon="4.87932">
        <ele>272</ele>
        <time>2016-10-02T09:45:44Z</time>
      </trkpt>
      <trkpt lat="45.9894" lon="4.87934">
        <ele>273</ele>
        <time>2016-10-02T09:45:45Z</time>
      </trkpt>
      <trkpt lat="45.98948" lon="4.87939">
        <ele>273</ele>
        <time>2016-10-02T09:45:47Z</time>
      </trkpt>
      <trkpt lat="45.98952" lon="4.87942">
        <ele>273</ele>
        <time>2016-10-02T09:45:48Z</time>
      </trkpt>
      <trkpt lat="45.98958" lon="4.87948">
        <ele>273</ele>
        <time>2016-10-02T09:45:50Z</time>
      </trkpt>
      <trkpt lat="45.98963" lon="4.87951">
        <ele>273</ele>
        <time>2016-10-02T09:45:51Z</time>
      </trkpt>
      <trkpt lat="45.98966" lon="4.87954">
        <ele>273</ele>
        <time>2016-10-02T09:45:52Z</time>
      </trkpt>
      <trkpt lat="45.98971" lon="4.87957">
        <ele>274</ele>
        <time>2016-10-02T09:45:53Z</time>
      </trkpt>
      <trkpt lat="45.98975" lon="4.87959">
        <ele>274</ele>
        <time>2016-10-02T09:45:54Z</time>
      </trkpt>
      <trkpt lat="45.98979" lon="4.87962">
        <ele>274</ele>
        <time>2016-10-02T09:45:55Z</time>
      </trkpt>
      <trkpt lat="45.98983" lon="4.87966">
        <ele>274</ele>
        <time>2016-10-02T09:45:56Z</time>
      </trkpt>
      <trkpt lat="45.98988" lon="4.87968">
        <ele>274</ele>
        <time>2016-10-02T09:45:57Z</time>
      </trkpt>
      <trkpt lat="45.98993" lon="4.87971">
        <ele>274</ele>
        <time>2016-10-02T09:45:58Z</time>
      </trkpt>
      <trkpt lat="45.98997" lon="4.87974">
        <ele>274</ele>
        <time>2016-10-02T09:45:59Z</time>
      </trkpt>
      <trkpt lat="45.99001" lon="4.87976">
        <ele>276</ele>
        <time>2016-10-02T09:46:00Z</time>
      </trkpt>
      <trkpt lat="45.99006" lon="4.87979">
        <ele>276</ele>
        <time>2016-10-02T09:46:01Z</time>
      </trkpt>
      <trkpt lat="45.99014" lon="4.87983">
        <ele>276</ele>
        <time>2016-10-02T09:46:03Z</time>
      </trkpt>
      <trkpt lat="45.99017" lon="4.87986">
        <ele>276</ele>
        <time>2016-10-02T09:46:04Z</time>
      </trkpt>
      <trkpt lat="45.99024" lon="4.87993">
        <ele>276</ele>
        <time>2016-10-02T09:46:06Z</time>
      </trkpt>
      <trkpt lat="45.9903" lon="4.87996">
        <ele>276</ele>
        <time>2016-10-02T09:46:07Z</time>
      </trkpt>
      <trkpt lat="45.99035" lon="4.87999">
        <ele>276</ele>
        <time>2016-10-02T09:46:08Z</time>
      </trkpt>
      <trkpt lat="45.99041" lon="4.88002">
        <ele>277</ele>
        <time>2016-10-02T09:46:09Z</time>
      </trkpt>
      <trkpt lat="45.99045" lon="4.88006">
        <ele>277</ele>
        <time>2016-10-02T09:46:10Z</time>
      </trkpt>
      <trkpt lat="45.99049" lon="4.8801">
        <ele>277</ele>
        <time>2016-10-02T09:46:11Z</time>
      </trkpt>
      <trkpt lat="45.99054" lon="4.88012">
        <ele>277</ele>
        <time>2016-10-02T09:46:12Z</time>
      </trkpt>
      <trkpt lat="45.99059" lon="4.88015">
        <ele>277</ele>
        <time>2016-10-02T09:46:13Z</time>
      </trkpt>
      <trkpt lat="45.99064" lon="4.88018">
        <ele>277</ele>
        <time>2016-10-02T09:46:14Z</time>
      </trkpt>
      <trkpt lat="45.99069" lon="4.8802">
        <ele>277</ele>
        <time>2016-10-02T09:46:15Z</time>
      </trkpt>
      <trkpt lat="45.99073" lon="4.88022">
        <ele>277</ele>
        <time>2016-10-02T09:46:16Z</time>
      </trkpt>
      <trkpt lat="45.99078" lon="4.88024">
        <ele>277</ele>
        <time>2016-10-02T09:46:17Z</time>
      </trkpt>
      <trkpt lat="45.99086" lon="4.88028">
        <ele>278</ele>
        <time>2016-10-02T09:46:19Z</time>
      </trkpt>
      <trkpt lat="45.99091" lon="4.8803">
        <ele>278</ele>
        <time>2016-10-02T09:46:20Z</time>
      </trkpt>
      <trkpt lat="45.99095" lon="4.88034">
        <ele>278</ele>
        <time>2016-10-02T09:46:21Z</time>
      </trkpt>
      <trkpt lat="45.99099" lon="4.88036">
        <ele>278</ele>
        <time>2016-10-02T09:46:22Z</time>
      </trkpt>
      <trkpt lat="45.99104" lon="4.88038">
        <ele>278</ele>
        <time>2016-10-02T09:46:23Z</time>
      </trkpt>
      <trkpt lat="45.99108" lon="4.88039">
        <ele>278</ele>
        <time>2016-10-02T09:46:24Z</time>
      </trkpt>
      <trkpt lat="45.99116" lon="4.88044">
        <ele>278</ele>
        <time>2016-10-02T09:46:26Z</time>
      </trkpt>
      <trkpt lat="45.99121" lon="4.88046">
        <ele>278</ele>
        <time>2016-10-02T09:46:27Z</time>
      </trkpt>
      <trkpt lat="45.99129" lon="4.88049">
        <ele>279</ele>
        <time>2016-10-02T09:46:29Z</time>
      </trkpt>
      <trkpt lat="45.99134" lon="4.8805">
        <ele>279</ele>
        <time>2016-10-02T09:46:30Z</time>
      </trkpt>
      <trkpt lat="45.99138" lon="4.88052">
        <ele>279</ele>
        <time>2016-10-02T09:46:31Z</time>
      </trkpt>
      <trkpt lat="45.99142" lon="4.88054">
        <ele>279</ele>
        <time>2016-10-02T09:46:32Z</time>
      </trkpt>
      <trkpt lat="45.9915" lon="4.88059">
        <ele>279</ele>
        <time>2016-10-02T09:46:34Z</time>
      </trkpt>
      <trkpt lat="45.99154" lon="4.88061">
        <ele>279</ele>
        <time>2016-10-02T09:46:35Z</time>
      </trkpt>
      <trkpt lat="45.99159" lon="4.88065">
        <ele>279</ele>
        <time>2016-10-02T09:46:36Z</time>
      </trkpt>
      <trkpt lat="45.99163" lon="4.88067">
        <ele>279</ele>
        <time>2016-10-02T09:46:37Z</time>
      </trkpt>
      <trkpt lat="45.99171" lon="4.88071">
        <ele>279</ele>
        <time>2016-10-02T09:46:39Z</time>
      </trkpt>
      <trkpt lat="45.99175" lon="4.8807">
        <ele>279</ele>
        <time>2016-10-02T09:46:40Z</time>
      </trkpt>
      <trkpt lat="45.99183" lon="4.88074">
        <ele>279</ele>
        <time>2016-10-02T09:46:42Z</time>
      </trkpt>
      <trkpt lat="45.99187" lon="4.88077">
        <ele>279</ele>
        <time>2016-10-02T09:46:43Z</time>
      </trkpt>
      <trkpt lat="45.99194" lon="4.88083">
        <ele>280</ele>
        <time>2016-10-02T09:46:45Z</time>
      </trkpt>
      <trkpt lat="45.99198" lon="4.88087">
        <ele>280</ele>
        <time>2016-10-02T09:46:46Z</time>
      </trkpt>
      <trkpt lat="45.99202" lon="4.8809">
        <ele>280</ele>
        <time>2016-10-02T09:46:47Z</time>
      </trkpt>
      <trkpt lat="45.99206" lon="4.88093">
        <ele>280</ele>
        <time>2016-10-02T09:46:48Z</time>
      </trkpt>
      <trkpt lat="45.9921" lon="4.88097">
        <ele>280</ele>
        <time>2016-10-02T09:46:49Z</time>
      </trkpt>
      <trkpt lat="45.99214" lon="4.881">
        <ele>280</ele>
        <time>2016-10-02T09:46:50Z</time>
      </trkpt>
      <trkpt lat="45.99218" lon="4.88104">
        <ele>280</ele>
        <time>2016-10-02T09:46:51Z</time>
      </trkpt>
      <trkpt lat="45.99223" lon="4.88107">
        <ele>280</ele>
        <time>2016-10-02T09:46:52Z</time>
      </trkpt>
      <trkpt lat="45.99227" lon="4.8811">
        <ele>280</ele>
        <time>2016-10-02T09:46:53Z</time>
      </trkpt>
      <trkpt lat="45.99231" lon="4.88114">
        <ele>280</ele>
        <time>2016-10-02T09:46:54Z</time>
      </trkpt>
      <trkpt lat="45.99235" lon="4.88118">
        <ele>280</ele>
        <time>2016-10-02T09:46:55Z</time>
      </trkpt>
      <trkpt lat="45.99239" lon="4.88122">
        <ele>280</ele>
        <time>2016-10-02T09:46:56Z</time>
      </trkpt>
      <trkpt lat="45.99243" lon="4.88126">
        <ele>280</ele>
        <time>2016-10-02T09:46:57Z</time>
      </trkpt>
      <trkpt lat="45.99247" lon="4.88129">
        <ele>280</ele>
        <time>2016-10-02T09:46:58Z</time>
      </trkpt>
      <trkpt lat="45.99251" lon="4.88133">
        <ele>283</ele>
        <time>2016-10-02T09:46:59Z</time>
      </trkpt>
      <trkpt lat="45.99255" lon="4.88137">
        <ele>283</ele>
        <time>2016-10-02T09:47:00Z</time>
      </trkpt>
      <trkpt lat="45.99259" lon="4.88141">
        <ele>283</ele>
        <time>2016-10-02T09:47:01Z</time>
      </trkpt>
      <trkpt lat="45.99263" lon="4.88144">
        <ele>283</ele>
        <time>2016-10-02T09:47:02Z</time>
      </trkpt>
      <trkpt lat="45.99267" lon="4.88148">
        <ele>283</ele>
        <time>2016-10-02T09:47:03Z</time>
      </trkpt>
      <trkpt lat="45.99272" lon="4.88151">
        <ele>283</ele>
        <time>2016-10-02T09:47:04Z</time>
      </trkpt>
      <trkpt lat="45.99276" lon="4.88156">
        <ele>283</ele>
        <time>2016-10-02T09:47:05Z</time>
      </trkpt>
      <trkpt lat="45.99279" lon="4.88162">
        <ele>283</ele>
        <time>2016-10-02T09:47:06Z</time>
      </trkpt>
      <trkpt lat="45.99283" lon="4.88167">
        <ele>284</ele>
        <time>2016-10-02T09:47:07Z</time>
      </trkpt>
      <trkpt lat="45.99288" lon="4.88171">
        <ele>284</ele>
        <time>2016-10-02T09:47:08Z</time>
      </trkpt>
      <trkpt lat="45.99293" lon="4.88174">
        <ele>284</ele>
        <time>2016-10-02T09:47:09Z</time>
      </trkpt>
      <trkpt lat="45.99297" lon="4.88178">
        <ele>284</ele>
        <time>2016-10-02T09:47:10Z</time>
      </trkpt>
      <trkpt lat="45.99302" lon="4.88186">
        <ele>284</ele>
        <time>2016-10-02T09:47:11Z</time>
      </trkpt>
      <trkpt lat="45.99307" lon="4.88191">
        <ele>285</ele>
        <time>2016-10-02T09:47:12Z</time>
      </trkpt>
      <trkpt lat="45.99311" lon="4.88195">
        <ele>285</ele>
        <time>2016-10-02T09:47:13Z</time>
      </trkpt>
      <trkpt lat="45.99316" lon="4.882">
        <ele>285</ele>
        <time>2016-10-02T09:47:14Z</time>
      </trkpt>
      <trkpt lat="45.9932" lon="4.88204">
        <ele>285</ele>
        <time>2016-10-02T09:47:15Z</time>
      </trkpt>
      <trkpt lat="45.99325" lon="4.88208">
        <ele>285</ele>
        <time>2016-10-02T09:47:16Z</time>
      </trkpt>
      <trkpt lat="45.99329" lon="4.88213">
        <ele>285</ele>
        <time>2016-10-02T09:47:17Z</time>
      </trkpt>
      <trkpt lat="45.99333" lon="4.88217">
        <ele>285</ele>
        <time>2016-10-02T09:47:18Z</time>
      </trkpt>
      <trkpt lat="45.99337" lon="4.88221">
        <ele>287</ele>
        <time>2016-10-02T09:47:19Z</time>
      </trkpt>
      <trkpt lat="45.99341" lon="4.88225">
        <ele>287</ele>
        <time>2016-10-02T09:47:20Z</time>
      </trkpt>
      <trkpt lat="45.99345" lon="4.88231">
        <ele>287</ele>
        <time>2016-10-02T09:47:21Z</time>
      </trkpt>
      <trkpt lat="45.9935" lon="4.88235">
        <ele>287</ele>
        <time>2016-10-02T09:47:22Z</time>
      </trkpt>
      <trkpt lat="45.99354" lon="4.88238">
        <ele>287</ele>
        <time>2016-10-02T09:47:23Z</time>
      </trkpt>
      <trkpt lat="45.99358" lon="4.88242">
        <ele>287</ele>
        <time>2016-10-02T09:47:24Z</time>
      </trkpt>
      <trkpt lat="45.99362" lon="4.88247">
        <ele>287</ele>
        <time>2016-10-02T09:47:25Z</time>
      </trkpt>
      <trkpt lat="45.99367" lon="4.88252">
        <ele>285</ele>
        <time>2016-10-02T09:47:26Z</time>
      </trkpt>
      <trkpt lat="45.99371" lon="4.88257">
        <ele>285</ele>
        <time>2016-10-02T09:47:27Z</time>
      </trkpt>
      <trkpt lat="45.99374" lon="4.88262">
        <ele>285</ele>
        <time>2016-10-02T09:47:28Z</time>
      </trkpt>
      <trkpt lat="45.99378" lon="4.88267">
        <ele>285</ele>
        <time>2016-10-02T09:47:29Z</time>
      </trkpt>
      <trkpt lat="45.99381" lon="4.88274">
        <ele>284</ele>
        <time>2016-10-02T09:47:30Z</time>
      </trkpt>
      <trkpt lat="45.99383" lon="4.88279">
        <ele>284</ele>
        <time>2016-10-02T09:47:31Z</time>
      </trkpt>
      <trkpt lat="45.99386" lon="4.88285">
        <ele>284</ele>
        <time>2016-10-02T09:47:32Z</time>
      </trkpt>
      <trkpt lat="45.99389" lon="4.8829">
        <ele>284</ele>
        <time>2016-10-02T09:47:33Z</time>
      </trkpt>
      <trkpt lat="45.99392" lon="4.88295">
        <ele>284</ele>
        <time>2016-10-02T09:47:34Z</time>
      </trkpt>
      <trkpt lat="45.99395" lon="4.88301">
        <ele>284</ele>
        <time>2016-10-02T09:47:35Z</time>
      </trkpt>
      <trkpt lat="45.99397" lon="4.88307">
        <ele>284</ele>
        <time>2016-10-02T09:47:36Z</time>
      </trkpt>
      <trkpt lat="45.994" lon="4.88314">
        <ele>283</ele>
        <time>2016-10-02T09:47:37Z</time>
      </trkpt>
      <trkpt lat="45.99402" lon="4.88319">
        <ele>283</ele>
        <time>2016-10-02T09:47:38Z</time>
      </trkpt>
      <trkpt lat="45.99405" lon="4.88325">
        <ele>283</ele>
        <time>2016-10-02T09:47:39Z</time>
      </trkpt>
      <trkpt lat="45.99407" lon="4.88331">
        <ele>283</ele>
        <time>2016-10-02T09:47:40Z</time>
      </trkpt>
      <trkpt lat="45.99412" lon="4.88342">
        <ele>282</ele>
        <time>2016-10-02T09:47:42Z</time>
      </trkpt>
      <trkpt lat="45.99415" lon="4.88348">
        <ele>282</ele>
        <time>2016-10-02T09:47:43Z</time>
      </trkpt>
      <trkpt lat="45.99418" lon="4.88355">
        <ele>283</ele>
        <time>2016-10-02T09:47:44Z</time>
      </trkpt>
      <trkpt lat="45.99421" lon="4.88362">
        <ele>283</ele>
        <time>2016-10-02T09:47:45Z</time>
      </trkpt>
      <trkpt lat="45.99424" lon="4.88368">
        <ele>283</ele>
        <time>2016-10-02T09:47:46Z</time>
      </trkpt>
      <trkpt lat="45.99427" lon="4.88375">
        <ele>283</ele>
        <time>2016-10-02T09:47:47Z</time>
      </trkpt>
      <trkpt lat="45.99431" lon="4.88381">
        <ele>283</ele>
        <time>2016-10-02T09:47:48Z</time>
      </trkpt>
      <trkpt lat="45.99434" lon="4.88387">
        <ele>283</ele>
        <time>2016-10-02T09:47:49Z</time>
      </trkpt>
      <trkpt lat="45.99438" lon="4.88393">
        <ele>283</ele>
        <time>2016-10-02T09:47:50Z</time>
      </trkpt>
      <trkpt lat="45.99442" lon="4.88398">
        <ele>283</ele>
        <time>2016-10-02T09:47:51Z</time>
      </trkpt>
      <trkpt lat="45.99447" lon="4.88404">
        <ele>283</ele>
        <time>2016-10-02T09:47:52Z</time>
      </trkpt>
      <trkpt lat="45.99451" lon="4.88409">
        <ele>283</ele>
        <time>2016-10-02T09:47:53Z</time>
      </trkpt>
      <trkpt lat="45.99456" lon="4.88413">
        <ele>283</ele>
        <time>2016-10-02T09:47:54Z</time>
      </trkpt>
      <trkpt lat="45.9946" lon="4.88418">
        <ele>284</ele>
        <time>2016-10-02T09:47:55Z</time>
      </trkpt>
      <trkpt lat="45.99464" lon="4.88423">
        <ele>284</ele>
        <time>2016-10-02T09:47:56Z</time>
      </trkpt>
      <trkpt lat="45.99469" lon="4.88428">
        <ele>284</ele>
        <time>2016-10-02T09:47:57Z</time>
      </trkpt>
      <trkpt lat="45.99473" lon="4.88433">
        <ele>284</ele>
        <time>2016-10-02T09:47:58Z</time>
      </trkpt>
      <trkpt lat="45.99477" lon="4.88437">
        <ele>284</ele>
        <time>2016-10-02T09:47:59Z</time>
      </trkpt>
      <trkpt lat="45.99481" lon="4.88443">
        <ele>284</ele>
        <time>2016-10-02T09:48:00Z</time>
      </trkpt>
      <trkpt lat="45.99484" lon="4.88447">
        <ele>284</ele>
        <time>2016-10-02T09:48:01Z</time>
      </trkpt>
      <trkpt lat="45.99488" lon="4.88453">
        <ele>284</ele>
        <time>2016-10-02T09:48:02Z</time>
      </trkpt>
      <trkpt lat="45.99491" lon="4.88459">
        <ele>284</ele>
        <time>2016-10-02T09:48:03Z</time>
      </trkpt>
      <trkpt lat="45.99495" lon="4.88466">
        <ele>284</ele>
        <time>2016-10-02T09:48:04Z</time>
      </trkpt>
      <trkpt lat="45.99498" lon="4.88472">
        <ele>284</ele>
        <time>2016-10-02T09:48:05Z</time>
      </trkpt>
      <trkpt lat="45.99501" lon="4.88478">
        <ele>284</ele>
        <time>2016-10-02T09:48:06Z</time>
      </trkpt>
      <trkpt lat="45.99504" lon="4.88485">
        <ele>284</ele>
        <time>2016-10-02T09:48:07Z</time>
      </trkpt>
      <trkpt lat="45.99507" lon="4.88492">
        <ele>284</ele>
        <time>2016-10-02T09:48:08Z</time>
      </trkpt>
      <trkpt lat="45.99511" lon="4.88498">
        <ele>284</ele>
        <time>2016-10-02T09:48:09Z</time>
      </trkpt>
      <trkpt lat="45.99514" lon="4.88505">
        <ele>285</ele>
        <time>2016-10-02T09:48:10Z</time>
      </trkpt>
      <trkpt lat="45.99518" lon="4.88512">
        <ele>285</ele>
        <time>2016-10-02T09:48:11Z</time>
      </trkpt>
      <trkpt lat="45.99521" lon="4.88518">
        <ele>285</ele>
        <time>2016-10-02T09:48:12Z</time>
      </trkpt>
      <trkpt lat="45.99525" lon="4.88525">
        <ele>285</ele>
        <time>2016-10-02T09:48:13Z</time>
      </trkpt>
      <trkpt lat="45.99528" lon="4.88531">
        <ele>285</ele>
        <time>2016-10-02T09:48:14Z</time>
      </trkpt>
      <trkpt lat="45.99532" lon="4.88537">
        <ele>285</ele>
        <time>2016-10-02T09:48:15Z</time>
      </trkpt>
      <trkpt lat="45.99535" lon="4.88542">
        <ele>285</ele>
        <time>2016-10-02T09:48:16Z</time>
      </trkpt>
      <trkpt lat="45.99538" lon="4.88548">
        <ele>285</ele>
        <time>2016-10-02T09:48:17Z</time>
      </trkpt>
      <trkpt lat="45.99541" lon="4.88554">
        <ele>285</ele>
        <time>2016-10-02T09:48:18Z</time>
      </trkpt>
      <trkpt lat="45.99543" lon="4.88561">
        <ele>285</ele>
        <time>2016-10-02T09:48:19Z</time>
      </trkpt>
      <trkpt lat="45.99546" lon="4.88569">
        <ele>286</ele>
        <time>2016-10-02T09:48:20Z</time>
      </trkpt>
      <trkpt lat="45.99548" lon="4.88576">
        <ele>286</ele>
        <time>2016-10-02T09:48:21Z</time>
      </trkpt>
      <trkpt lat="45.9955" lon="4.88585">
        <ele>286</ele>
        <time>2016-10-02T09:48:22Z</time>
      </trkpt>
      <trkpt lat="45.99551" lon="4.88592">
        <ele>286</ele>
        <time>2016-10-02T09:48:23Z</time>
      </trkpt>
      <trkpt lat="45.99553" lon="4.886">
        <ele>286</ele>
        <time>2016-10-02T09:48:24Z</time>
      </trkpt>
      <trkpt lat="45.99555" lon="4.88607">
        <ele>286</ele>
        <time>2016-10-02T09:48:25Z</time>
      </trkpt>
      <trkpt lat="45.99556" lon="4.88614">
        <ele>286</ele>
        <time>2016-10-02T09:48:26Z</time>
      </trkpt>
      <trkpt lat="45.99557" lon="4.88621">
        <ele>286</ele>
        <time>2016-10-02T09:48:27Z</time>
      </trkpt>
      <trkpt lat="45.99558" lon="4.88629">
        <ele>286</ele>
        <time>2016-10-02T09:48:28Z</time>
      </trkpt>
      <trkpt lat="45.99559" lon="4.88636">
        <ele>286</ele>
        <time>2016-10-02T09:48:29Z</time>
      </trkpt>
      <trkpt lat="45.99559" lon="4.88644">
        <ele>286</ele>
        <time>2016-10-02T09:48:30Z</time>
      </trkpt>
      <trkpt lat="45.99559" lon="4.88651">
        <ele>286</ele>
        <time>2016-10-02T09:48:31Z</time>
      </trkpt>
      <trkpt lat="45.9956" lon="4.88659">
        <ele>286</ele>
        <time>2016-10-02T09:48:32Z</time>
      </trkpt>
      <trkpt lat="45.99561" lon="4.88666">
        <ele>286</ele>
        <time>2016-10-02T09:48:33Z</time>
      </trkpt>
      <trkpt lat="45.99562" lon="4.88673">
        <ele>286</ele>
        <time>2016-10-02T09:48:34Z</time>
      </trkpt>
      <trkpt lat="45.99563" lon="4.88681">
        <ele>286</ele>
        <time>2016-10-02T09:48:35Z</time>
      </trkpt>
      <trkpt lat="45.99564" lon="4.88688">
        <ele>286</ele>
        <time>2016-10-02T09:48:36Z</time>
      </trkpt>
      <trkpt lat="45.99564" lon="4.88698">
        <ele>286</ele>
        <time>2016-10-02T09:48:37Z</time>
      </trkpt>
      <trkpt lat="45.99565" lon="4.88706">
        <ele>286</ele>
        <time>2016-10-02T09:48:38Z</time>
      </trkpt>
      <trkpt lat="45.99566" lon="4.88714">
        <ele>286</ele>
        <time>2016-10-02T09:48:39Z</time>
      </trkpt>
      <trkpt lat="45.99567" lon="4.88722">
        <ele>287</ele>
        <time>2016-10-02T09:48:40Z</time>
      </trkpt>
      <trkpt lat="45.99568" lon="4.8873">
        <ele>287</ele>
        <time>2016-10-02T09:48:41Z</time>
      </trkpt>
      <trkpt lat="45.99569" lon="4.88739">
        <ele>287</ele>
        <time>2016-10-02T09:48:42Z</time>
      </trkpt>
      <trkpt lat="45.9957" lon="4.88747">
        <ele>287</ele>
        <time>2016-10-02T09:48:43Z</time>
      </trkpt>
      <trkpt lat="45.9957" lon="4.88754">
        <ele>287</ele>
        <time>2016-10-02T09:48:44Z</time>
      </trkpt>
      <trkpt lat="45.9957" lon="4.88763">
        <ele>287</ele>
        <time>2016-10-02T09:48:45Z</time>
      </trkpt>
      <trkpt lat="45.99571" lon="4.88772">
        <ele>287</ele>
        <time>2016-10-02T09:48:46Z</time>
      </trkpt>
      <trkpt lat="45.99571" lon="4.88781">
        <ele>287</ele>
        <time>2016-10-02T09:48:47Z</time>
      </trkpt>
      <trkpt lat="45.99572" lon="4.8879">
        <ele>287</ele>
        <time>2016-10-02T09:48:48Z</time>
      </trkpt>
      <trkpt lat="45.99573" lon="4.88798">
        <ele>287</ele>
        <time>2016-10-02T09:48:49Z</time>
      </trkpt>
      <trkpt lat="45.99574" lon="4.88806">
        <ele>287</ele>
        <time>2016-10-02T09:48:50Z</time>
      </trkpt>
      <trkpt lat="45.99575" lon="4.88813">
        <ele>287</ele>
        <time>2016-10-02T09:48:51Z</time>
      </trkpt>
      <trkpt lat="45.99576" lon="4.88821">
        <ele>287</ele>
        <time>2016-10-02T09:48:52Z</time>
      </trkpt>
      <trkpt lat="45.99576" lon="4.8883">
        <ele>287</ele>
        <time>2016-10-02T09:48:53Z</time>
      </trkpt>
      <trkpt lat="45.99577" lon="4.88837">
        <ele>287</ele>
        <time>2016-10-02T09:48:54Z</time>
      </trkpt>
      <trkpt lat="45.99577" lon="4.88846">
        <ele>287</ele>
        <time>2016-10-02T09:48:55Z</time>
      </trkpt>
      <trkpt lat="45.99579" lon="4.88854">
        <ele>287</ele>
        <time>2016-10-02T09:48:56Z</time>
      </trkpt>
      <trkpt lat="45.99579" lon="4.88862">
        <ele>287</ele>
        <time>2016-10-02T09:48:57Z</time>
      </trkpt>
      <trkpt lat="45.9958" lon="4.8887">
        <ele>287</ele>
        <time>2016-10-02T09:48:58Z</time>
      </trkpt>
      <trkpt lat="45.99581" lon="4.88878">
        <ele>287</ele>
        <time>2016-10-02T09:48:59Z</time>
      </trkpt>
      <trkpt lat="45.99582" lon="4.88886">
        <ele>287</ele>
        <time>2016-10-02T09:49:00Z</time>
      </trkpt>
      <trkpt lat="45.99583" lon="4.88894">
        <ele>287</ele>
        <time>2016-10-02T09:49:01Z</time>
      </trkpt>
      <trkpt lat="45.99584" lon="4.88902">
        <ele>287</ele>
        <time>2016-10-02T09:49:02Z</time>
      </trkpt>
      <trkpt lat="45.99584" lon="4.8891">
        <ele>287</ele>
        <time>2016-10-02T09:49:03Z</time>
      </trkpt>
      <trkpt lat="45.99584" lon="4.88918">
        <ele>287</ele>
        <time>2016-10-02T09:49:04Z</time>
      </trkpt>
      <trkpt lat="45.99585" lon="4.88926">
        <ele>287</ele>
        <time>2016-10-02T09:49:05Z</time>
      </trkpt>
      <trkpt lat="45.99586" lon="4.88933">
        <ele>287</ele>
        <time>2016-10-02T09:49:06Z</time>
      </trkpt>
      <trkpt lat="45.99586" lon="4.88941">
        <ele>287</ele>
        <time>2016-10-02T09:49:07Z</time>
      </trkpt>
      <trkpt lat="45.99585" lon="4.8895">
        <ele>287</ele>
        <time>2016-10-02T09:49:08Z</time>
      </trkpt>
      <trkpt lat="45.99586" lon="4.88957">
        <ele>287</ele>
        <time>2016-10-02T09:49:09Z</time>
      </trkpt>
      <trkpt lat="45.99586" lon="4.88965">
        <ele>288</ele>
        <time>2016-10-02T09:49:10Z</time>
      </trkpt>
      <trkpt lat="45.99587" lon="4.88972">
        <ele>288</ele>
        <time>2016-10-02T09:49:11Z</time>
      </trkpt>
      <trkpt lat="45.99587" lon="4.88979">
        <ele>288</ele>
        <time>2016-10-02T09:49:12Z</time>
      </trkpt>
      <trkpt lat="45.99587" lon="4.88986">
        <ele>288</ele>
        <time>2016-10-02T09:49:13Z</time>
      </trkpt>
      <trkpt lat="45.99588" lon="4.88994">
        <ele>288</ele>
        <time>2016-10-02T09:49:14Z</time>
      </trkpt>
      <trkpt lat="45.99588" lon="4.89002">
        <ele>288</ele>
        <time>2016-10-02T09:49:15Z</time>
      </trkpt>
      <trkpt lat="45.99588" lon="4.89009">
        <ele>288</ele>
        <time>2016-10-02T09:49:16Z</time>
      </trkpt>
      <trkpt lat="45.99587" lon="4.89017">
        <ele>288</ele>
        <time>2016-10-02T09:49:17Z</time>
      </trkpt>
      <trkpt lat="45.99587" lon="4.89027">
        <ele>288</ele>
        <time>2016-10-02T09:49:18Z</time>
      </trkpt>
      <trkpt lat="45.99586" lon="4.89035">
        <ele>289</ele>
        <time>2016-10-02T09:49:19Z</time>
      </trkpt>
      <trkpt lat="45.99586" lon="4.89043">
        <ele>289</ele>
        <time>2016-10-02T09:49:20Z</time>
      </trkpt>
      <trkpt lat="45.99585" lon="4.89052">
        <ele>289</ele>
        <time>2016-10-02T09:49:21Z</time>
      </trkpt>
      <trkpt lat="45.99585" lon="4.89061">
        <ele>289</ele>
        <time>2016-10-02T09:49:22Z</time>
      </trkpt>
      <trkpt lat="45.99583" lon="4.8907">
        <ele>289</ele>
        <time>2016-10-02T09:49:23Z</time>
      </trkpt>
      <trkpt lat="45.99581" lon="4.89078">
        <ele>289</ele>
        <time>2016-10-02T09:49:24Z</time>
      </trkpt>
      <trkpt lat="45.9958" lon="4.89086">
        <ele>289</ele>
        <time>2016-10-02T09:49:25Z</time>
      </trkpt>
      <trkpt lat="45.99579" lon="4.89094">
        <ele>289</ele>
        <time>2016-10-02T09:49:26Z</time>
      </trkpt>
      <trkpt lat="45.99579" lon="4.89103">
        <ele>289</ele>
        <time>2016-10-02T09:49:27Z</time>
      </trkpt>
      <trkpt lat="45.99579" lon="4.89111">
        <ele>289</ele>
        <time>2016-10-02T09:49:28Z</time>
      </trkpt>
      <trkpt lat="45.99579" lon="4.89118">
        <ele>289</ele>
        <time>2016-10-02T09:49:29Z</time>
      </trkpt>
      <trkpt lat="45.99579" lon="4.89126">
        <ele>289</ele>
        <time>2016-10-02T09:49:30Z</time>
      </trkpt>
      <trkpt lat="45.99579" lon="4.89134">
        <ele>289</ele>
        <time>2016-10-02T09:49:31Z</time>
      </trkpt>
      <trkpt lat="45.99579" lon="4.89141">
        <ele>289</ele>
        <time>2016-10-02T09:49:32Z</time>
      </trkpt>
      <trkpt lat="45.99579" lon="4.89149">
        <ele>289</ele>
        <time>2016-10-02T09:49:33Z</time>
      </trkpt>
      <trkpt lat="45.99579" lon="4.89158">
        <ele>288</ele>
        <time>2016-10-02T09:49:34Z</time>
      </trkpt>
      <trkpt lat="45.9958" lon="4.89166">
        <ele>288</ele>
        <time>2016-10-02T09:49:35Z</time>
      </trkpt>
      <trkpt lat="45.9958" lon="4.89174">
        <ele>288</ele>
        <time>2016-10-02T09:49:36Z</time>
      </trkpt>
      <trkpt lat="45.99582" lon="4.89182">
        <ele>288</ele>
        <time>2016-10-02T09:49:37Z</time>
      </trkpt>
      <trkpt lat="45.99582" lon="4.89191">
        <ele>288</ele>
        <time>2016-10-02T09:49:38Z</time>
      </trkpt>
      <trkpt lat="45.99582" lon="4.89201">
        <ele>288</ele>
        <time>2016-10-02T09:49:39Z</time>
      </trkpt>
      <trkpt lat="45.99582" lon="4.89209">
        <ele>288</ele>
        <time>2016-10-02T09:49:40Z</time>
      </trkpt>
      <trkpt lat="45.99582" lon="4.89217">
        <ele>288</ele>
        <time>2016-10-02T09:49:41Z</time>
      </trkpt>
      <trkpt lat="45.99583" lon="4.89225">
        <ele>288</ele>
        <time>2016-10-02T09:49:42Z</time>
      </trkpt>
      <trkpt lat="45.99583" lon="4.89234">
        <ele>288</ele>
        <time>2016-10-02T09:49:43Z</time>
      </trkpt>
      <trkpt lat="45.99582" lon="4.89243">
        <ele>288</ele>
        <time>2016-10-02T09:49:44Z</time>
      </trkpt>
      <trkpt lat="45.99582" lon="4.89252">
        <ele>288</ele>
        <time>2016-10-02T09:49:45Z</time>
      </trkpt>
      <trkpt lat="45.99583" lon="4.89261">
        <ele>288</ele>
        <time>2016-10-02T09:49:46Z</time>
      </trkpt>
      <trkpt lat="45.99584" lon="4.8927">
        <ele>288</ele>
        <time>2016-10-02T09:49:47Z</time>
      </trkpt>
      <trkpt lat="45.99585" lon="4.89277">
        <ele>289</ele>
        <time>2016-10-02T09:49:48Z</time>
      </trkpt>
      <trkpt lat="45.99585" lon="4.89285">
        <ele>289</ele>
        <time>2016-10-02T09:49:49Z</time>
      </trkpt>
      <trkpt lat="45.99586" lon="4.89293">
        <ele>289</ele>
        <time>2016-10-02T09:49:50Z</time>
      </trkpt>
      <trkpt lat="45.99586" lon="4.893">
        <ele>289</ele>
        <time>2016-10-02T09:49:51Z</time>
      </trkpt>
      <trkpt lat="45.99586" lon="4.89308">
        <ele>289</ele>
        <time>2016-10-02T09:49:52Z</time>
      </trkpt>
      <trkpt lat="45.99587" lon="4.89315">
        <ele>289</ele>
        <time>2016-10-02T09:49:53Z</time>
      </trkpt>
      <trkpt lat="45.99587" lon="4.89323">
        <ele>289</ele>
        <time>2016-10-02T09:49:54Z</time>
      </trkpt>
      <trkpt lat="45.99588" lon="4.89331">
        <ele>289</ele>
        <time>2016-10-02T09:49:55Z</time>
      </trkpt>
      <trkpt lat="45.99589" lon="4.89339">
        <ele>289</ele>
        <time>2016-10-02T09:49:56Z</time>
      </trkpt>
      <trkpt lat="45.9959" lon="4.89347">
        <ele>289</ele>
        <time>2016-10-02T09:49:57Z</time>
      </trkpt>
      <trkpt lat="45.99591" lon="4.89355">
        <ele>289</ele>
        <time>2016-10-02T09:49:58Z</time>
      </trkpt>
      <trkpt lat="45.99591" lon="4.89363">
        <ele>289</ele>
        <time>2016-10-02T09:49:59Z</time>
      </trkpt>
      <trkpt lat="45.99592" lon="4.89371">
        <ele>289</ele>
        <time>2016-10-02T09:50:00Z</time>
      </trkpt>
      <trkpt lat="45.99593" lon="4.89378">
        <ele>290</ele>
        <time>2016-10-02T09:50:01Z</time>
      </trkpt>
      <trkpt lat="45.99594" lon="4.89385">
        <ele>290</ele>
        <time>2016-10-02T09:50:02Z</time>
      </trkpt>
      <trkpt lat="45.99595" lon="4.89393">
        <ele>290</ele>
        <time>2016-10-02T09:50:03Z</time>
      </trkpt>
      <trkpt lat="45.99595" lon="4.89401">
        <ele>290</ele>
        <time>2016-10-02T09:50:04Z</time>
      </trkpt>
      <trkpt lat="45.99596" lon="4.89409">
        <ele>290</ele>
        <time>2016-10-02T09:50:05Z</time>
      </trkpt>
      <trkpt lat="45.99596" lon="4.89417">
        <ele>290</ele>
        <time>2016-10-02T09:50:06Z</time>
      </trkpt>
      <trkpt lat="45.99596" lon="4.89425">
        <ele>290</ele>
        <time>2016-10-02T09:50:07Z</time>
      </trkpt>
      <trkpt lat="45.99597" lon="4.89433">
        <ele>290</ele>
        <time>2016-10-02T09:50:08Z</time>
      </trkpt>
      <trkpt lat="45.99598" lon="4.89441">
        <ele>290</ele>
        <time>2016-10-02T09:50:09Z</time>
      </trkpt>
      <trkpt lat="45.99598" lon="4.8945">
        <ele>290</ele>
        <time>2016-10-02T09:50:10Z</time>
      </trkpt>
      <trkpt lat="45.99598" lon="4.89458">
        <ele>290</ele>
        <time>2016-10-02T09:50:11Z</time>
      </trkpt>
      <trkpt lat="45.99599" lon="4.89467">
        <ele>290</ele>
        <time>2016-10-02T09:50:12Z</time>
      </trkpt>
      <trkpt lat="45.99599" lon="4.89475">
        <ele>290</ele>
        <time>2016-10-02T09:50:13Z</time>
      </trkpt>
      <trkpt lat="45.996" lon="4.89484">
        <ele>290</ele>
        <time>2016-10-02T09:50:14Z</time>
      </trkpt>
      <trkpt lat="45.99599" lon="4.89492">
        <ele>290</ele>
        <time>2016-10-02T09:50:15Z</time>
      </trkpt>
      <trkpt lat="45.996" lon="4.895">
        <ele>290</ele>
        <time>2016-10-02T09:50:16Z</time>
      </trkpt>
      <trkpt lat="45.99602" lon="4.89507">
        <ele>290</ele>
        <time>2016-10-02T09:50:17Z</time>
      </trkpt>
      <trkpt lat="45.99603" lon="4.89516">
        <ele>290</ele>
        <time>2016-10-02T09:50:18Z</time>
      </trkpt>
      <trkpt lat="45.99604" lon="4.89524">
        <ele>291</ele>
        <time>2016-10-02T09:50:19Z</time>
      </trkpt>
      <trkpt lat="45.99604" lon="4.89531">
        <ele>291</ele>
        <time>2016-10-02T09:50:20Z</time>
      </trkpt>
      <trkpt lat="45.99605" lon="4.89539">
        <ele>291</ele>
        <time>2016-10-02T09:50:21Z</time>
      </trkpt>
      <trkpt lat="45.99605" lon="4.89547">
        <ele>291</ele>
        <time>2016-10-02T09:50:22Z</time>
      </trkpt>
      <trkpt lat="45.99606" lon="4.89554">
        <ele>291</ele>
        <time>2016-10-02T09:50:23Z</time>
      </trkpt>
      <trkpt lat="45.99606" lon="4.89562">
        <ele>291</ele>
        <time>2016-10-02T09:50:24Z</time>
      </trkpt>
      <trkpt lat="45.99606" lon="4.89569">
        <ele>291</ele>
        <time>2016-10-02T09:50:25Z</time>
      </trkpt>
      <trkpt lat="45.99606" lon="4.89577">
        <ele>291</ele>
        <time>2016-10-02T09:50:26Z</time>
      </trkpt>
      <trkpt lat="45.99606" lon="4.89584">
        <ele>292</ele>
        <time>2016-10-02T09:50:27Z</time>
      </trkpt>
      <trkpt lat="45.99606" lon="4.89592">
        <ele>292</ele>
        <time>2016-10-02T09:50:28Z</time>
      </trkpt>
      <trkpt lat="45.99606" lon="4.89599">
        <ele>292</ele>
        <time>2016-10-02T09:50:29Z</time>
      </trkpt>
      <trkpt lat="45.99607" lon="4.89606">
        <ele>291</ele>
        <time>2016-10-02T09:50:30Z</time>
      </trkpt>
      <trkpt lat="45.99607" lon="4.89613">
        <ele>291</ele>
        <time>2016-10-02T09:50:31Z</time>
      </trkpt>
      <trkpt lat="45.99607" lon="4.89624">
        <ele>291</ele>
        <time>2016-10-02T09:50:33Z</time>
      </trkpt>
      <trkpt lat="45.99607" lon="4.89632">
        <ele>291</ele>
        <time>2016-10-02T09:50:34Z</time>
      </trkpt>
      <trkpt lat="45.99607" lon="4.8964">
        <ele>291</ele>
        <time>2016-10-02T09:50:35Z</time>
      </trkpt>
      <trkpt lat="45.99607" lon="4.89648">
        <ele>291</ele>
        <time>2016-10-02T09:50:36Z</time>
      </trkpt>
      <trkpt lat="45.99608" lon="4.89655">
        <ele>291</ele>
        <time>2016-10-02T09:50:37Z</time>
      </trkpt>
      <trkpt lat="45.99608" lon="4.89663">
        <ele>291</ele>
        <time>2016-10-02T09:50:38Z</time>
      </trkpt>
      <trkpt lat="45.99608" lon="4.8967">
        <ele>291</ele>
        <time>2016-10-02T09:50:39Z</time>
      </trkpt>
      <trkpt lat="45.99608" lon="4.89677">
        <ele>291</ele>
        <time>2016-10-02T09:50:40Z</time>
      </trkpt>
      <trkpt lat="45.99607" lon="4.89685">
        <ele>291</ele>
        <time>2016-10-02T09:50:41Z</time>
      </trkpt>
      <trkpt lat="45.99607" lon="4.89692">
        <ele>291</ele>
        <time>2016-10-02T09:50:42Z</time>
      </trkpt>
      <trkpt lat="45.99606" lon="4.89699">
        <ele>291</ele>
        <time>2016-10-02T09:50:43Z</time>
      </trkpt>
      <trkpt lat="45.99603" lon="4.89705">
        <ele>292</ele>
        <time>2016-10-02T09:50:44Z</time>
      </trkpt>
      <trkpt lat="45.99601" lon="4.89712">
        <ele>292</ele>
        <time>2016-10-02T09:50:45Z</time>
      </trkpt>
      <trkpt lat="45.99599" lon="4.89719">
        <ele>292</ele>
        <time>2016-10-02T09:50:46Z</time>
      </trkpt>
      <trkpt lat="45.99599" lon="4.89726">
        <ele>292</ele>
        <time>2016-10-02T09:50:47Z</time>
      </trkpt>
      <trkpt lat="45.99602" lon="4.89735">
        <ele>292</ele>
        <time>2016-10-02T09:50:48Z</time>
      </trkpt>
      <trkpt lat="45.99603" lon="4.89744">
        <ele>292</ele>
        <time>2016-10-02T09:50:49Z</time>
      </trkpt>
      <trkpt lat="45.99604" lon="4.89754">
        <ele>292</ele>
        <time>2016-10-02T09:50:50Z</time>
      </trkpt>
      <trkpt lat="45.99605" lon="4.89765">
        <ele>292</ele>
        <time>2016-10-02T09:50:51Z</time>
      </trkpt>
      <trkpt lat="45.99605" lon="4.89773">
        <ele>292</ele>
        <time>2016-10-02T09:50:52Z</time>
      </trkpt>
      <trkpt lat="45.99605" lon="4.89783">
        <ele>292</ele>
        <time>2016-10-02T09:50:53Z</time>
      </trkpt>
      <trkpt lat="45.99605" lon="4.89792">
        <ele>292</ele>
        <time>2016-10-02T09:50:54Z</time>
      </trkpt>
      <trkpt lat="45.99605" lon="4.89801">
        <ele>292</ele>
        <time>2016-10-02T09:50:55Z</time>
      </trkpt>
      <trkpt lat="45.99605" lon="4.89809">
        <ele>292</ele>
        <time>2016-10-02T09:50:56Z</time>
      </trkpt>
      <trkpt lat="45.99605" lon="4.89816">
        <ele>292</ele>
        <time>2016-10-02T09:50:57Z</time>
      </trkpt>
      <trkpt lat="45.99605" lon="4.89824">
        <ele>292</ele>
        <time>2016-10-02T09:50:58Z</time>
      </trkpt>
      <trkpt lat="45.99605" lon="4.89833">
        <ele>292</ele>
        <time>2016-10-02T09:50:59Z</time>
      </trkpt>
      <trkpt lat="45.99606" lon="4.89841">
        <ele>293</ele>
        <time>2016-10-02T09:51:00Z</time>
      </trkpt>
      <trkpt lat="45.99605" lon="4.89847">
        <ele>293</ele>
        <time>2016-10-02T09:51:01Z</time>
      </trkpt>
      <trkpt lat="45.99605" lon="4.89854">
        <ele>293</ele>
        <time>2016-10-02T09:51:02Z</time>
      </trkpt>
      <trkpt lat="45.99605" lon="4.89862">
        <ele>293</ele>
        <time>2016-10-02T09:51:03Z</time>
      </trkpt>
      <trkpt lat="45.99605" lon="4.8987">
        <ele>293</ele>
        <time>2016-10-02T09:51:04Z</time>
      </trkpt>
      <trkpt lat="45.99604" lon="4.89878">
        <ele>292</ele>
        <time>2016-10-02T09:51:05Z</time>
      </trkpt>
      <trkpt lat="45.99604" lon="4.89885">
        <ele>292</ele>
        <time>2016-10-02T09:51:06Z</time>
      </trkpt>
      <trkpt lat="45.99604" lon="4.89893">
        <ele>292</ele>
        <time>2016-10-02T09:51:07Z</time>
      </trkpt>
      <trkpt lat="45.99604" lon="4.899">
        <ele>292</ele>
        <time>2016-10-02T09:51:08Z</time>
      </trkpt>
      <trkpt lat="45.99604" lon="4.89907">
        <ele>292</ele>
        <time>2016-10-02T09:51:09Z</time>
      </trkpt>
      <trkpt lat="45.99604" lon="4.89915">
        <ele>292</ele>
        <time>2016-10-02T09:51:10Z</time>
      </trkpt>
      <trkpt lat="45.99604" lon="4.89922">
        <ele>293</ele>
        <time>2016-10-02T09:51:11Z</time>
      </trkpt>
      <trkpt lat="45.99605" lon="4.8993">
        <ele>293</ele>
        <time>2016-10-02T09:51:12Z</time>
      </trkpt>
      <trkpt lat="45.99605" lon="4.89938">
        <ele>293</ele>
        <time>2016-10-02T09:51:13Z</time>
      </trkpt>
      <trkpt lat="45.99605" lon="4.89947">
        <ele>294</ele>
        <time>2016-10-02T09:51:14Z</time>
      </trkpt>
      <trkpt lat="45.99604" lon="4.89955">
        <ele>294</ele>
        <time>2016-10-02T09:51:15Z</time>
      </trkpt>
      <trkpt lat="45.99604" lon="4.89965">
        <ele>294</ele>
        <time>2016-10-02T09:51:16Z</time>
      </trkpt>
      <trkpt lat="45.99605" lon="4.89973">
        <ele>294</ele>
        <time>2016-10-02T09:51:17Z</time>
      </trkpt>
      <trkpt lat="45.99606" lon="4.89982">
        <ele>294</ele>
        <time>2016-10-02T09:51:18Z</time>
      </trkpt>
      <trkpt lat="45.99609" lon="4.8999">
        <ele>294</ele>
        <time>2016-10-02T09:51:19Z</time>
      </trkpt>
      <trkpt lat="45.9961" lon="4.89997">
        <ele>295</ele>
        <time>2016-10-02T09:51:20Z</time>
      </trkpt>
      <trkpt lat="45.99611" lon="4.90005">
        <ele>296</ele>
        <time>2016-10-02T09:51:21Z</time>
      </trkpt>
      <trkpt lat="45.99612" lon="4.90012">
        <ele>296</ele>
        <time>2016-10-02T09:51:22Z</time>
      </trkpt>
      <trkpt lat="45.99614" lon="4.90019">
        <ele>296</ele>
        <time>2016-10-02T09:51:23Z</time>
      </trkpt>
      <trkpt lat="45.99615" lon="4.90027">
        <ele>296</ele>
        <time>2016-10-02T09:51:24Z</time>
      </trkpt>
      <trkpt lat="45.99617" lon="4.90034">
        <ele>296</ele>
        <time>2016-10-02T09:51:25Z</time>
      </trkpt>
      <trkpt lat="45.99619" lon="4.90042">
        <ele>296</ele>
        <time>2016-10-02T09:51:26Z</time>
      </trkpt>
      <trkpt lat="45.99621" lon="4.90049">
        <ele>297</ele>
        <time>2016-10-02T09:51:27Z</time>
      </trkpt>
      <trkpt lat="45.99624" lon="4.90056">
        <ele>297</ele>
        <time>2016-10-02T09:51:28Z</time>
      </trkpt>
      <trkpt lat="45.99626" lon="4.90062">
        <ele>297</ele>
        <time>2016-10-02T09:51:29Z</time>
      </trkpt>
      <trkpt lat="45.99629" lon="4.90069">
        <ele>297</ele>
        <time>2016-10-02T09:51:30Z</time>
      </trkpt>
      <trkpt lat="45.99631" lon="4.90075">
        <ele>297</ele>
        <time>2016-10-02T09:51:31Z</time>
      </trkpt>
      <trkpt lat="45.99634" lon="4.90081">
        <ele>297</ele>
        <time>2016-10-02T09:51:32Z</time>
      </trkpt>
      <trkpt lat="45.99635" lon="4.9009">
        <ele>299</ele>
        <time>2016-10-02T09:51:33Z</time>
      </trkpt>
      <trkpt lat="45.99637" lon="4.90095">
        <ele>299</ele>
        <time>2016-10-02T09:51:34Z</time>
      </trkpt>
      <trkpt lat="45.99641" lon="4.90106">
        <ele>299</ele>
        <time>2016-10-02T09:51:36Z</time>
      </trkpt>
      <trkpt lat="45.99642" lon="4.90113">
        <ele>299</ele>
        <time>2016-10-02T09:51:37Z</time>
      </trkpt>
      <trkpt lat="45.99644" lon="4.90119">
        <ele>299</ele>
        <time>2016-10-02T09:51:38Z</time>
      </trkpt>
      <trkpt lat="45.99645" lon="4.90125">
        <ele>299</ele>
        <time>2016-10-02T09:51:39Z</time>
      </trkpt>
      <trkpt lat="45.99646" lon="4.90132">
        <ele>299</ele>
        <time>2016-10-02T09:51:40Z</time>
      </trkpt>
      <trkpt lat="45.99647" lon="4.90138">
        <ele>299</ele>
        <time>2016-10-02T09:51:41Z</time>
      </trkpt>
      <trkpt lat="45.99651" lon="4.90148">
        <ele>300</ele>
        <time>2016-10-02T09:51:43Z</time>
      </trkpt>
      <trkpt lat="45.99652" lon="4.90153">
        <ele>300</ele>
        <time>2016-10-02T09:51:44Z</time>
      </trkpt>
      <trkpt lat="45.99653" lon="4.9016">
        <ele>300</ele>
        <time>2016-10-02T09:51:45Z</time>
      </trkpt>
      <trkpt lat="45.99654" lon="4.90166">
        <ele>300</ele>
        <time>2016-10-02T09:51:46Z</time>
      </trkpt>
      <trkpt lat="45.99657" lon="4.90176">
        <ele>301</ele>
        <time>2016-10-02T09:51:48Z</time>
      </trkpt>
      <trkpt lat="45.99659" lon="4.90181">
        <ele>301</ele>
        <time>2016-10-02T09:51:49Z</time>
      </trkpt>
      <trkpt lat="45.99664" lon="4.90191">
        <ele>301</ele>
        <time>2016-10-02T09:51:51Z</time>
      </trkpt>
      <trkpt lat="45.99665" lon="4.90196">
        <ele>301</ele>
        <time>2016-10-02T09:51:52Z</time>
      </trkpt>
      <trkpt lat="45.99668" lon="4.90207">
        <ele>303</ele>
        <time>2016-10-02T09:51:54Z</time>
      </trkpt>
      <trkpt lat="45.9967" lon="4.90212">
        <ele>303</ele>
        <time>2016-10-02T09:51:55Z</time>
      </trkpt>
      <trkpt lat="45.99674" lon="4.90223">
        <ele>304</ele>
        <time>2016-10-02T09:51:57Z</time>
      </trkpt>
      <trkpt lat="45.99675" lon="4.90228">
        <ele>304</ele>
        <time>2016-10-02T09:51:58Z</time>
      </trkpt>
      <trkpt lat="45.99677" lon="4.90239">
        <ele>304</ele>
        <time>2016-10-02T09:52:00Z</time>
      </trkpt>
      <trkpt lat="45.99676" lon="4.90251">
        <ele>304</ele>
        <time>2016-10-02T09:52:01Z</time>
      </trkpt>
      <trkpt lat="45.99676" lon="4.9026">
        <ele>304</ele>
        <time>2016-10-02T09:52:02Z</time>
      </trkpt>
      <trkpt lat="45.99675" lon="4.90266">
        <ele>304</ele>
        <time>2016-10-02T09:52:03Z</time>
      </trkpt>
      <trkpt lat="45.99676" lon="4.90274">
        <ele>304</ele>
        <time>2016-10-02T09:52:04Z</time>
      </trkpt>
      <trkpt lat="45.99676" lon="4.90281">
        <ele>304</ele>
        <time>2016-10-02T09:52:05Z</time>
      </trkpt>
      <trkpt lat="45.99674" lon="4.90293">
        <ele>304</ele>
        <time>2016-10-02T09:52:07Z</time>
      </trkpt>
      <trkpt lat="45.99674" lon="4.90297">
        <ele>304</ele>
        <time>2016-10-02T09:52:08Z</time>
      </trkpt>
      <trkpt lat="45.99672" lon="4.90308">
        <ele>304</ele>
        <time>2016-10-02T09:52:11Z</time>
      </trkpt>
      <trkpt lat="45.99673" lon="4.90312">
        <ele>304</ele>
        <time>2016-10-02T09:52:12Z</time>
      </trkpt>
      <trkpt lat="45.99673" lon="4.90315">
        <ele>304</ele>
        <time>2016-10-02T09:52:13Z</time>
      </trkpt>
      <trkpt lat="45.99672" lon="4.90315">
        <ele>304</ele>
        <time>2016-10-02T09:52:14Z</time>
      </trkpt>
      <trkpt lat="45.99672" lon="4.90317">
        <ele>303</ele>
        <time>2016-10-02T09:52:15Z</time>
      </trkpt>
      <trkpt lat="45.99671" lon="4.90324">
        <ele>303</ele>
        <time>2016-10-02T09:52:16Z</time>
      </trkpt>
      <trkpt lat="45.99676" lon="4.90334">
        <ele>302</ele>
        <time>2016-10-02T09:52:19Z</time>
      </trkpt>
      <trkpt lat="45.99678" lon="4.90336">
        <ele>302</ele>
        <time>2016-10-02T09:52:20Z</time>
      </trkpt>
      <trkpt lat="45.99683" lon="4.9034">
        <ele>302</ele>
        <time>2016-10-02T09:52:24Z</time>
      </trkpt>
      <trkpt lat="45.99686" lon="4.90346">
        <ele>303</ele>
        <time>2016-10-02T09:52:25Z</time>
      </trkpt>
      <trkpt lat="45.99687" lon="4.90353">
        <ele>302</ele>
        <time>2016-10-02T09:52:27Z</time>
      </trkpt>
      <trkpt lat="45.9969" lon="4.90359">
        <ele>303</ele>
        <time>2016-10-02T09:52:28Z</time>
      </trkpt>
      <trkpt lat="45.99687" lon="4.90367">
        <ele>302</ele>
        <time>2016-10-02T09:52:29Z</time>
      </trkpt>
      <trkpt lat="45.99678" lon="4.90369">
        <ele>302</ele>
        <time>2016-10-02T09:52:30Z</time>
      </trkpt>
      <trkpt lat="45.99678" lon="4.90377">
        <ele>302</ele>
        <time>2016-10-02T09:52:31Z</time>
      </trkpt>
      <trkpt lat="45.99677" lon="4.90386">
        <ele>302</ele>
        <time>2016-10-02T09:52:32Z</time>
      </trkpt>
      <trkpt lat="45.99675" lon="4.90395">
        <ele>302</ele>
        <time>2016-10-02T09:52:33Z</time>
      </trkpt>
      <trkpt lat="45.99668" lon="4.90402">
        <ele>302</ele>
        <time>2016-10-02T09:52:34Z</time>
      </trkpt>
      <trkpt lat="45.99665" lon="4.90411">
        <ele>301</ele>
        <time>2016-10-02T09:52:35Z</time>
      </trkpt>
      <trkpt lat="45.99663" lon="4.90418">
        <ele>301</ele>
        <time>2016-10-02T09:52:36Z</time>
      </trkpt>
      <trkpt lat="45.99658" lon="4.90429">
        <ele>300</ele>
        <time>2016-10-02T09:52:38Z</time>
      </trkpt>
      <trkpt lat="45.99652" lon="4.90431">
        <ele>300</ele>
        <time>2016-10-02T09:52:39Z</time>
      </trkpt>
      <trkpt lat="45.99648" lon="4.90432">
        <ele>300</ele>
        <time>2016-10-02T09:52:40Z</time>
      </trkpt>
      <trkpt lat="45.99641" lon="4.90428">
        <ele>300</ele>
        <time>2016-10-02T09:52:41Z</time>
      </trkpt>
      <trkpt lat="45.99637" lon="4.90437">
        <ele>300</ele>
        <time>2016-10-02T09:52:43Z</time>
      </trkpt>
      <trkpt lat="45.99634" lon="4.9044">
        <ele>300</ele>
        <time>2016-10-02T09:52:44Z</time>
      </trkpt>
      <trkpt lat="45.99628" lon="4.90441">
        <ele>300</ele>
        <time>2016-10-02T09:52:45Z</time>
      </trkpt>
      <trkpt lat="45.99624" lon="4.90443">
        <ele>300</ele>
        <time>2016-10-02T09:52:46Z</time>
      </trkpt>
      <trkpt lat="45.99618" lon="4.90442">
        <ele>300</ele>
        <time>2016-10-02T09:52:47Z</time>
      </trkpt>
      <trkpt lat="45.99613" lon="4.90442">
        <ele>300</ele>
        <time>2016-10-02T09:52:48Z</time>
      </trkpt>
      <trkpt lat="45.99608" lon="4.90442">
        <ele>300</ele>
        <time>2016-10-02T09:52:49Z</time>
      </trkpt>
      <trkpt lat="45.99603" lon="4.90441">
        <ele>300</ele>
        <time>2016-10-02T09:52:50Z</time>
      </trkpt>
      <trkpt lat="45.99597" lon="4.90442">
        <ele>300</ele>
        <time>2016-10-02T09:52:51Z</time>
      </trkpt>
      <trkpt lat="45.99591" lon="4.90444">
        <ele>300</ele>
        <time>2016-10-02T09:52:52Z</time>
      </trkpt>
      <trkpt lat="45.99586" lon="4.90445">
        <ele>300</ele>
        <time>2016-10-02T09:52:53Z</time>
      </trkpt>
      <trkpt lat="45.99582" lon="4.90449">
        <ele>299</ele>
        <time>2016-10-02T09:52:54Z</time>
      </trkpt>
      <trkpt lat="45.99576" lon="4.90451">
        <ele>299</ele>
        <time>2016-10-02T09:52:55Z</time>
      </trkpt>
      <trkpt lat="45.9957" lon="4.90453">
        <ele>299</ele>
        <time>2016-10-02T09:52:56Z</time>
      </trkpt>
      <trkpt lat="45.99565" lon="4.90458">
        <ele>299</ele>
        <time>2016-10-02T09:52:57Z</time>
      </trkpt>
      <trkpt lat="45.99559" lon="4.90461">
        <ele>299</ele>
        <time>2016-10-02T09:52:58Z</time>
      </trkpt>
      <trkpt lat="45.99553" lon="4.90464">
        <ele>299</ele>
        <time>2016-10-02T09:52:59Z</time>
      </trkpt>
      <trkpt lat="45.99548" lon="4.90468">
        <ele>299</ele>
        <time>2016-10-02T09:53:00Z</time>
      </trkpt>
      <trkpt lat="45.99544" lon="4.90473">
        <ele>299</ele>
        <time>2016-10-02T09:53:01Z</time>
      </trkpt>
      <trkpt lat="45.99539" lon="4.90479">
        <ele>299</ele>
        <time>2016-10-02T09:53:02Z</time>
      </trkpt>
      <trkpt lat="45.99535" lon="4.90484">
        <ele>299</ele>
        <time>2016-10-02T09:53:03Z</time>
      </trkpt>
      <trkpt lat="45.99531" lon="4.9049">
        <ele>299</ele>
        <time>2016-10-02T09:53:04Z</time>
      </trkpt>
      <trkpt lat="45.99528" lon="4.90495">
        <ele>299</ele>
        <time>2016-10-02T09:53:05Z</time>
      </trkpt>
      <trkpt lat="45.99524" lon="4.90501">
        <ele>299</ele>
        <time>2016-10-02T09:53:06Z</time>
      </trkpt>
      <trkpt lat="45.99521" lon="4.90507">
        <ele>299</ele>
        <time>2016-10-02T09:53:07Z</time>
      </trkpt>
      <trkpt lat="45.99518" lon="4.90513">
        <ele>299</ele>
        <time>2016-10-02T09:53:08Z</time>
      </trkpt>
      <trkpt lat="45.99514" lon="4.90519">
        <ele>299</ele>
        <time>2016-10-02T09:53:09Z</time>
      </trkpt>
      <trkpt lat="45.99511" lon="4.90525">
        <ele>299</ele>
        <time>2016-10-02T09:53:10Z</time>
      </trkpt>
      <trkpt lat="45.99507" lon="4.9053">
        <ele>299</ele>
        <time>2016-10-02T09:53:11Z</time>
      </trkpt>
      <trkpt lat="45.99502" lon="4.90534">
        <ele>299</ele>
        <time>2016-10-02T09:53:12Z</time>
      </trkpt>
      <trkpt lat="45.99499" lon="4.90542">
        <ele>299</ele>
        <time>2016-10-02T09:53:13Z</time>
      </trkpt>
      <trkpt lat="45.99495" lon="4.90547">
        <ele>299</ele>
        <time>2016-10-02T09:53:14Z</time>
      </trkpt>
      <trkpt lat="45.99491" lon="4.90552">
        <ele>299</ele>
        <time>2016-10-02T09:53:15Z</time>
      </trkpt>
      <trkpt lat="45.99486" lon="4.90555">
        <ele>299</ele>
        <time>2016-10-02T09:53:16Z</time>
      </trkpt>
      <trkpt lat="45.9948" lon="4.90556">
        <ele>299</ele>
        <time>2016-10-02T09:53:17Z</time>
      </trkpt>
      <trkpt lat="45.99475" lon="4.90559">
        <ele>299</ele>
        <time>2016-10-02T09:53:18Z</time>
      </trkpt>
      <trkpt lat="45.99472" lon="4.90565">
        <ele>299</ele>
        <time>2016-10-02T09:53:19Z</time>
      </trkpt>
      <trkpt lat="45.9947" lon="4.90569">
        <ele>299</ele>
        <time>2016-10-02T09:53:20Z</time>
      </trkpt>
      <trkpt lat="45.99464" lon="4.90578">
        <ele>299</ele>
        <time>2016-10-02T09:53:22Z</time>
      </trkpt>
      <trkpt lat="45.9946" lon="4.90583">
        <ele>299</ele>
        <time>2016-10-02T09:53:23Z</time>
      </trkpt>
      <trkpt lat="45.99456" lon="4.90589">
        <ele>298</ele>
        <time>2016-10-02T09:53:24Z</time>
      </trkpt>
      <trkpt lat="45.99452" lon="4.90594">
        <ele>298</ele>
        <time>2016-10-02T09:53:25Z</time>
      </trkpt>
      <trkpt lat="45.99447" lon="4.90599">
        <ele>298</ele>
        <time>2016-10-02T09:53:26Z</time>
      </trkpt>
      <trkpt lat="45.99443" lon="4.90603">
        <ele>298</ele>
        <time>2016-10-02T09:53:27Z</time>
      </trkpt>
      <trkpt lat="45.99437" lon="4.90611">
        <ele>298</ele>
        <time>2016-10-02T09:53:29Z</time>
      </trkpt>
      <trkpt lat="45.99433" lon="4.90616">
        <ele>298</ele>
        <time>2016-10-02T09:53:30Z</time>
      </trkpt>
      <trkpt lat="45.99429" lon="4.90621">
        <ele>298</ele>
        <time>2016-10-02T09:53:31Z</time>
      </trkpt>
      <trkpt lat="45.99425" lon="4.90627">
        <ele>298</ele>
        <time>2016-10-02T09:53:32Z</time>
      </trkpt>
      <trkpt lat="45.99422" lon="4.90633">
        <ele>298</ele>
        <time>2016-10-02T09:53:33Z</time>
      </trkpt>
      <trkpt lat="45.99419" lon="4.90638">
        <ele>298</ele>
        <time>2016-10-02T09:53:34Z</time>
      </trkpt>
      <trkpt lat="45.99416" lon="4.90644">
        <ele>298</ele>
        <time>2016-10-02T09:53:35Z</time>
      </trkpt>
      <trkpt lat="45.99412" lon="4.90648">
        <ele>298</ele>
        <time>2016-10-02T09:53:36Z</time>
      </trkpt>
      <trkpt lat="45.99407" lon="4.90653">
        <ele>298</ele>
        <time>2016-10-02T09:53:37Z</time>
      </trkpt>
      <trkpt lat="45.99403" lon="4.90659">
        <ele>298</ele>
        <time>2016-10-02T09:53:38Z</time>
      </trkpt>
      <trkpt lat="45.99398" lon="4.90664">
        <ele>298</ele>
        <time>2016-10-02T09:53:39Z</time>
      </trkpt>
      <trkpt lat="45.99393" lon="4.9067">
        <ele>298</ele>
        <time>2016-10-02T09:53:40Z</time>
      </trkpt>
      <trkpt lat="45.99389" lon="4.90677">
        <ele>298</ele>
        <time>2016-10-02T09:53:41Z</time>
      </trkpt>
      <trkpt lat="45.99384" lon="4.90683">
        <ele>298</ele>
        <time>2016-10-02T09:53:42Z</time>
      </trkpt>
      <trkpt lat="45.99379" lon="4.90688">
        <ele>298</ele>
        <time>2016-10-02T09:53:43Z</time>
      </trkpt>
      <trkpt lat="45.99375" lon="4.90693">
        <ele>299</ele>
        <time>2016-10-02T09:53:44Z</time>
      </trkpt>
      <trkpt lat="45.9937" lon="4.90699">
        <ele>299</ele>
        <time>2016-10-02T09:53:45Z</time>
      </trkpt>
      <trkpt lat="45.99366" lon="4.90704">
        <ele>299</ele>
        <time>2016-10-02T09:53:46Z</time>
      </trkpt>
      <trkpt lat="45.99361" lon="4.90709">
        <ele>299</ele>
        <time>2016-10-02T09:53:47Z</time>
      </trkpt>
      <trkpt lat="45.99356" lon="4.90715">
        <ele>299</ele>
        <time>2016-10-02T09:53:48Z</time>
      </trkpt>
      <trkpt lat="45.99352" lon="4.90722">
        <ele>299</ele>
        <time>2016-10-02T09:53:49Z</time>
      </trkpt>
      <trkpt lat="45.99347" lon="4.90727">
        <ele>299</ele>
        <time>2016-10-02T09:53:50Z</time>
      </trkpt>
      <trkpt lat="45.99343" lon="4.90733">
        <ele>299</ele>
        <time>2016-10-02T09:53:51Z</time>
      </trkpt>
      <trkpt lat="45.99339" lon="4.90739">
        <ele>299</ele>
        <time>2016-10-02T09:53:52Z</time>
      </trkpt>
      <trkpt lat="45.99334" lon="4.90745">
        <ele>300</ele>
        <time>2016-10-02T09:53:53Z</time>
      </trkpt>
      <trkpt lat="45.9933" lon="4.9075">
        <ele>300</ele>
        <time>2016-10-02T09:53:54Z</time>
      </trkpt>
      <trkpt lat="45.99325" lon="4.90755">
        <ele>300</ele>
        <time>2016-10-02T09:53:55Z</time>
      </trkpt>
      <trkpt lat="45.9932" lon="4.90761">
        <ele>300</ele>
        <time>2016-10-02T09:53:56Z</time>
      </trkpt>
      <trkpt lat="45.99314" lon="4.90767">
        <ele>300</ele>
        <time>2016-10-02T09:53:57Z</time>
      </trkpt>
      <trkpt lat="45.9931" lon="4.90773">
        <ele>300</ele>
        <time>2016-10-02T09:53:58Z</time>
      </trkpt>
      <trkpt lat="45.99305" lon="4.90778">
        <ele>300</ele>
        <time>2016-10-02T09:53:59Z</time>
      </trkpt>
      <trkpt lat="45.99301" lon="4.90784">
        <ele>300</ele>
        <time>2016-10-02T09:54:00Z</time>
      </trkpt>
      <trkpt lat="45.99297" lon="4.90789">
        <ele>300</ele>
        <time>2016-10-02T09:54:01Z</time>
      </trkpt>
      <trkpt lat="45.99293" lon="4.90795">
        <ele>300</ele>
        <time>2016-10-02T09:54:02Z</time>
      </trkpt>
      <trkpt lat="45.99287" lon="4.90797">
        <ele>300</ele>
        <time>2016-10-02T09:54:03Z</time>
      </trkpt>
      <trkpt lat="45.99284" lon="4.90805">
        <ele>300</ele>
        <time>2016-10-02T09:54:04Z</time>
      </trkpt>
      <trkpt lat="45.9928" lon="4.90811">
        <ele>300</ele>
        <time>2016-10-02T09:54:05Z</time>
      </trkpt>
      <trkpt lat="45.99276" lon="4.90817">
        <ele>300</ele>
        <time>2016-10-02T09:54:06Z</time>
      </trkpt>
      <trkpt lat="45.99272" lon="4.90824">
        <ele>300</ele>
        <time>2016-10-02T09:54:07Z</time>
      </trkpt>
      <trkpt lat="45.99268" lon="4.9083">
        <ele>300</ele>
        <time>2016-10-02T09:54:08Z</time>
      </trkpt>
      <trkpt lat="45.99263" lon="4.90836">
        <ele>300</ele>
        <time>2016-10-02T09:54:09Z</time>
      </trkpt>
      <trkpt lat="45.99259" lon="4.90843">
        <ele>300</ele>
        <time>2016-10-02T09:54:10Z</time>
      </trkpt>
      <trkpt lat="45.99255" lon="4.90849">
        <ele>300</ele>
        <time>2016-10-02T09:54:11Z</time>
      </trkpt>
      <trkpt lat="45.9925" lon="4.90856">
        <ele>300</ele>
        <time>2016-10-02T09:54:12Z</time>
      </trkpt>
      <trkpt lat="45.99246" lon="4.90862">
        <ele>300</ele>
        <time>2016-10-02T09:54:13Z</time>
      </trkpt>
      <trkpt lat="45.99242" lon="4.90868">
        <ele>300</ele>
        <time>2016-10-02T09:54:14Z</time>
      </trkpt>
      <trkpt lat="45.99237" lon="4.90873">
        <ele>300</ele>
        <time>2016-10-02T09:54:15Z</time>
      </trkpt>
      <trkpt lat="45.99232" lon="4.90877">
        <ele>299</ele>
        <time>2016-10-02T09:54:16Z</time>
      </trkpt>
      <trkpt lat="45.99227" lon="4.90882">
        <ele>299</ele>
        <time>2016-10-02T09:54:17Z</time>
      </trkpt>
      <trkpt lat="45.99223" lon="4.90888">
        <ele>299</ele>
        <time>2016-10-02T09:54:18Z</time>
      </trkpt>
      <trkpt lat="45.99219" lon="4.90893">
        <ele>299</ele>
        <time>2016-10-02T09:54:19Z</time>
      </trkpt>
      <trkpt lat="45.99215" lon="4.90899">
        <ele>299</ele>
        <time>2016-10-02T09:54:20Z</time>
      </trkpt>
      <trkpt lat="45.99211" lon="4.90904">
        <ele>299</ele>
        <time>2016-10-02T09:54:21Z</time>
      </trkpt>
      <trkpt lat="45.99205" lon="4.9091">
        <ele>300</ele>
        <time>2016-10-02T09:54:22Z</time>
      </trkpt>
      <trkpt lat="45.992" lon="4.90915">
        <ele>300</ele>
        <time>2016-10-02T09:54:23Z</time>
      </trkpt>
      <trkpt lat="45.99196" lon="4.9092">
        <ele>300</ele>
        <time>2016-10-02T09:54:24Z</time>
      </trkpt>
      <trkpt lat="45.99191" lon="4.90926">
        <ele>300</ele>
        <time>2016-10-02T09:54:25Z</time>
      </trkpt>
      <trkpt lat="45.99187" lon="4.90931">
        <ele>300</ele>
        <time>2016-10-02T09:54:26Z</time>
      </trkpt>
      <trkpt lat="45.99183" lon="4.90936">
        <ele>300</ele>
        <time>2016-10-02T09:54:27Z</time>
      </trkpt>
      <trkpt lat="45.99179" lon="4.90942">
        <ele>300</ele>
        <time>2016-10-02T09:54:28Z</time>
      </trkpt>
      <trkpt lat="45.99174" lon="4.90945">
        <ele>300</ele>
        <time>2016-10-02T09:54:29Z</time>
      </trkpt>
      <trkpt lat="45.9917" lon="4.9095">
        <ele>300</ele>
        <time>2016-10-02T09:54:30Z</time>
      </trkpt>
      <trkpt lat="45.99168" lon="4.90957">
        <ele>300</ele>
        <time>2016-10-02T09:54:31Z</time>
      </trkpt>
      <trkpt lat="45.99162" lon="4.90958">
        <ele>300</ele>
        <time>2016-10-02T09:54:32Z</time>
      </trkpt>
      <trkpt lat="45.99156" lon="4.90962">
        <ele>300</ele>
        <time>2016-10-02T09:54:33Z</time>
      </trkpt>
      <trkpt lat="45.99151" lon="4.90966">
        <ele>300</ele>
        <time>2016-10-02T09:54:34Z</time>
      </trkpt>
      <trkpt lat="45.99147" lon="4.90971">
        <ele>300</ele>
        <time>2016-10-02T09:54:35Z</time>
      </trkpt>
      <trkpt lat="45.99143" lon="4.90976">
        <ele>300</ele>
        <time>2016-10-02T09:54:36Z</time>
      </trkpt>
      <trkpt lat="45.99139" lon="4.90982">
        <ele>300</ele>
        <time>2016-10-02T09:54:37Z</time>
      </trkpt>
      <trkpt lat="45.99136" lon="4.90988">
        <ele>301</ele>
        <time>2016-10-02T09:54:38Z</time>
      </trkpt>
      <trkpt lat="45.99132" lon="4.90992">
        <ele>301</ele>
        <time>2016-10-02T09:54:39Z</time>
      </trkpt>
      <trkpt lat="45.99128" lon="4.90997">
        <ele>301</ele>
        <time>2016-10-02T09:54:40Z</time>
      </trkpt>
      <trkpt lat="45.99125" lon="4.91004">
        <ele>301</ele>
        <time>2016-10-02T09:54:41Z</time>
      </trkpt>
      <trkpt lat="45.99119" lon="4.91008">
        <ele>301</ele>
        <time>2016-10-02T09:54:42Z</time>
      </trkpt>
      <trkpt lat="45.99114" lon="4.91011">
        <ele>301</ele>
        <time>2016-10-02T09:54:43Z</time>
      </trkpt>
      <trkpt lat="45.99109" lon="4.91016">
        <ele>301</ele>
        <time>2016-10-02T09:54:44Z</time>
      </trkpt>
      <trkpt lat="45.99105" lon="4.91021">
        <ele>301</ele>
        <time>2016-10-02T09:54:45Z</time>
      </trkpt>
      <trkpt lat="45.99102" lon="4.91027">
        <ele>301</ele>
        <time>2016-10-02T09:54:46Z</time>
      </trkpt>
      <trkpt lat="45.99098" lon="4.91033">
        <ele>301</ele>
        <time>2016-10-02T09:54:47Z</time>
      </trkpt>
      <trkpt lat="45.99095" lon="4.9104">
        <ele>301</ele>
        <time>2016-10-02T09:54:48Z</time>
      </trkpt>
      <trkpt lat="45.9909" lon="4.91044">
        <ele>301</ele>
        <time>2016-10-02T09:54:49Z</time>
      </trkpt>
      <trkpt lat="45.99087" lon="4.91051">
        <ele>301</ele>
        <time>2016-10-02T09:54:50Z</time>
      </trkpt>
      <trkpt lat="45.99082" lon="4.91057">
        <ele>300</ele>
        <time>2016-10-02T09:54:51Z</time>
      </trkpt>
      <trkpt lat="45.99077" lon="4.91063">
        <ele>300</ele>
        <time>2016-10-02T09:54:52Z</time>
      </trkpt>
      <trkpt lat="45.99073" lon="4.91068">
        <ele>300</ele>
        <time>2016-10-02T09:54:53Z</time>
      </trkpt>
      <trkpt lat="45.99068" lon="4.91073">
        <ele>300</ele>
        <time>2016-10-02T09:54:54Z</time>
      </trkpt>
      <trkpt lat="45.99063" lon="4.91077">
        <ele>300</ele>
        <time>2016-10-02T09:54:55Z</time>
      </trkpt>
      <trkpt lat="45.99058" lon="4.91083">
        <ele>300</ele>
        <time>2016-10-02T09:54:56Z</time>
      </trkpt>
      <trkpt lat="45.99054" lon="4.91089">
        <ele>299</ele>
        <time>2016-10-02T09:54:57Z</time>
      </trkpt>
      <trkpt lat="45.9905" lon="4.91095">
        <ele>299</ele>
        <time>2016-10-02T09:54:58Z</time>
      </trkpt>
      <trkpt lat="45.99045" lon="4.91101">
        <ele>299</ele>
        <time>2016-10-02T09:54:59Z</time>
      </trkpt>
      <trkpt lat="45.9904" lon="4.91106">
        <ele>299</ele>
        <time>2016-10-02T09:55:00Z</time>
      </trkpt>
      <trkpt lat="45.99035" lon="4.91112">
        <ele>299</ele>
        <time>2016-10-02T09:55:01Z</time>
      </trkpt>
      <trkpt lat="45.9903" lon="4.91118">
        <ele>299</ele>
        <time>2016-10-02T09:55:02Z</time>
      </trkpt>
      <trkpt lat="45.99025" lon="4.91124">
        <ele>299</ele>
        <time>2016-10-02T09:55:03Z</time>
      </trkpt>
      <trkpt lat="45.99021" lon="4.9113">
        <ele>299</ele>
        <time>2016-10-02T09:55:04Z</time>
      </trkpt>
      <trkpt lat="45.99016" lon="4.91136">
        <ele>299</ele>
        <time>2016-10-02T09:55:05Z</time>
      </trkpt>
      <trkpt lat="45.99011" lon="4.91141">
        <ele>299</ele>
        <time>2016-10-02T09:55:06Z</time>
      </trkpt>
      <trkpt lat="45.99005" lon="4.91145">
        <ele>299</ele>
        <time>2016-10-02T09:55:07Z</time>
      </trkpt>
      <trkpt lat="45.99" lon="4.91149">
        <ele>299</ele>
        <time>2016-10-02T09:55:08Z</time>
      </trkpt>
      <trkpt lat="45.98997" lon="4.91155">
        <ele>299</ele>
        <time>2016-10-02T09:55:09Z</time>
      </trkpt>
      <trkpt lat="45.98993" lon="4.91161">
        <ele>299</ele>
        <time>2016-10-02T09:55:10Z</time>
      </trkpt>
      <trkpt lat="45.98989" lon="4.91167">
        <ele>299</ele>
        <time>2016-10-02T09:55:11Z</time>
      </trkpt>
      <trkpt lat="45.98985" lon="4.91173">
        <ele>299</ele>
        <time>2016-10-02T09:55:12Z</time>
      </trkpt>
      <trkpt lat="45.98981" lon="4.91179">
        <ele>299</ele>
        <time>2016-10-02T09:55:13Z</time>
      </trkpt>
      <trkpt lat="45.98978" lon="4.91186">
        <ele>299</ele>
        <time>2016-10-02T09:55:14Z</time>
      </trkpt>
      <trkpt lat="45.98974" lon="4.91191">
        <ele>299</ele>
        <time>2016-10-02T09:55:15Z</time>
      </trkpt>
      <trkpt lat="45.9897" lon="4.91197">
        <ele>299</ele>
        <time>2016-10-02T09:55:16Z</time>
      </trkpt>
      <trkpt lat="45.98966" lon="4.91204">
        <ele>299</ele>
        <time>2016-10-02T09:55:17Z</time>
      </trkpt>
      <trkpt lat="45.98962" lon="4.9121">
        <ele>299</ele>
        <time>2016-10-02T09:55:18Z</time>
      </trkpt>
      <trkpt lat="45.98958" lon="4.91215">
        <ele>299</ele>
        <time>2016-10-02T09:55:19Z</time>
      </trkpt>
      <trkpt lat="45.98954" lon="4.9122">
        <ele>299</ele>
        <time>2016-10-02T09:55:20Z</time>
      </trkpt>
      <trkpt lat="45.98949" lon="4.91224">
        <ele>299</ele>
        <time>2016-10-02T09:55:21Z</time>
      </trkpt>
      <trkpt lat="45.98944" lon="4.91229">
        <ele>299</ele>
        <time>2016-10-02T09:55:22Z</time>
      </trkpt>
      <trkpt lat="45.9894" lon="4.91235">
        <ele>299</ele>
        <time>2016-10-02T09:55:23Z</time>
      </trkpt>
      <trkpt lat="45.98936" lon="4.91241">
        <ele>299</ele>
        <time>2016-10-02T09:55:24Z</time>
      </trkpt>
      <trkpt lat="45.98932" lon="4.91246">
        <ele>299</ele>
        <time>2016-10-02T09:55:25Z</time>
      </trkpt>
      <trkpt lat="45.98927" lon="4.91253">
        <ele>299</ele>
        <time>2016-10-02T09:55:26Z</time>
      </trkpt>
      <trkpt lat="45.98923" lon="4.91259">
        <ele>299</ele>
        <time>2016-10-02T09:55:27Z</time>
      </trkpt>
      <trkpt lat="45.98919" lon="4.91265">
        <ele>299</ele>
        <time>2016-10-02T09:55:28Z</time>
      </trkpt>
      <trkpt lat="45.98915" lon="4.9127">
        <ele>299</ele>
        <time>2016-10-02T09:55:29Z</time>
      </trkpt>
      <trkpt lat="45.9891" lon="4.91275">
        <ele>299</ele>
        <time>2016-10-02T09:55:30Z</time>
      </trkpt>
      <trkpt lat="45.98906" lon="4.9128">
        <ele>299</ele>
        <time>2016-10-02T09:55:31Z</time>
      </trkpt>
      <trkpt lat="45.98902" lon="4.91285">
        <ele>299</ele>
        <time>2016-10-02T09:55:32Z</time>
      </trkpt>
      <trkpt lat="45.98898" lon="4.91289">
        <ele>299</ele>
        <time>2016-10-02T09:55:33Z</time>
      </trkpt>
      <trkpt lat="45.98894" lon="4.91294">
        <ele>299</ele>
        <time>2016-10-02T09:55:34Z</time>
      </trkpt>
      <trkpt lat="45.98889" lon="4.91299">
        <ele>299</ele>
        <time>2016-10-02T09:55:35Z</time>
      </trkpt>
      <trkpt lat="45.98885" lon="4.91305">
        <ele>299</ele>
        <time>2016-10-02T09:55:36Z</time>
      </trkpt>
      <trkpt lat="45.9888" lon="4.91311">
        <ele>299</ele>
        <time>2016-10-02T09:55:37Z</time>
      </trkpt>
      <trkpt lat="45.98875" lon="4.91317">
        <ele>299</ele>
        <time>2016-10-02T09:55:38Z</time>
      </trkpt>
      <trkpt lat="45.98871" lon="4.91323">
        <ele>298</ele>
        <time>2016-10-02T09:55:39Z</time>
      </trkpt>
      <trkpt lat="45.98867" lon="4.91329">
        <ele>298</ele>
        <time>2016-10-02T09:55:40Z</time>
      </trkpt>
      <trkpt lat="45.98862" lon="4.91335">
        <ele>298</ele>
        <time>2016-10-02T09:55:41Z</time>
      </trkpt>
      <trkpt lat="45.98857" lon="4.9134">
        <ele>298</ele>
        <time>2016-10-02T09:55:42Z</time>
      </trkpt>
      <trkpt lat="45.98853" lon="4.91346">
        <ele>298</ele>
        <time>2016-10-02T09:55:43Z</time>
      </trkpt>
      <trkpt lat="45.98848" lon="4.91351">
        <ele>298</ele>
        <time>2016-10-02T09:55:44Z</time>
      </trkpt>
      <trkpt lat="45.98843" lon="4.91357">
        <ele>298</ele>
        <time>2016-10-02T09:55:45Z</time>
      </trkpt>
      <trkpt lat="45.98838" lon="4.91363">
        <ele>298</ele>
        <time>2016-10-02T09:55:46Z</time>
      </trkpt>
      <trkpt lat="45.98833" lon="4.91368">
        <ele>298</ele>
        <time>2016-10-02T09:55:47Z</time>
      </trkpt>
      <trkpt lat="45.98828" lon="4.91373">
        <ele>298</ele>
        <time>2016-10-02T09:55:48Z</time>
      </trkpt>
      <trkpt lat="45.98824" lon="4.91379">
        <ele>298</ele>
        <time>2016-10-02T09:55:49Z</time>
      </trkpt>
      <trkpt lat="45.98819" lon="4.91385">
        <ele>299</ele>
        <time>2016-10-02T09:55:50Z</time>
      </trkpt>
      <trkpt lat="45.98815" lon="4.91392">
        <ele>299</ele>
        <time>2016-10-02T09:55:51Z</time>
      </trkpt>
      <trkpt lat="45.9881" lon="4.91398">
        <ele>299</ele>
        <time>2016-10-02T09:55:52Z</time>
      </trkpt>
      <trkpt lat="45.98806" lon="4.91404">
        <ele>299</ele>
        <time>2016-10-02T09:55:53Z</time>
      </trkpt>
      <trkpt lat="45.98801" lon="4.9141">
        <ele>299</ele>
        <time>2016-10-02T09:55:54Z</time>
      </trkpt>
      <trkpt lat="45.98796" lon="4.91416">
        <ele>299</ele>
        <time>2016-10-02T09:55:55Z</time>
      </trkpt>
      <trkpt lat="45.98791" lon="4.91422">
        <ele>298</ele>
        <time>2016-10-02T09:55:56Z</time>
      </trkpt>
      <trkpt lat="45.98786" lon="4.91428">
        <ele>298</ele>
        <time>2016-10-02T09:55:57Z</time>
      </trkpt>
      <trkpt lat="45.98781" lon="4.91433">
        <ele>298</ele>
        <time>2016-10-02T09:55:58Z</time>
      </trkpt>
      <trkpt lat="45.98777" lon="4.91439">
        <ele>298</ele>
        <time>2016-10-02T09:55:59Z</time>
      </trkpt>
      <trkpt lat="45.98772" lon="4.91445">
        <ele>298</ele>
        <time>2016-10-02T09:56:00Z</time>
      </trkpt>
      <trkpt lat="45.98768" lon="4.9145">
        <ele>298</ele>
        <time>2016-10-02T09:56:01Z</time>
      </trkpt>
      <trkpt lat="45.98764" lon="4.91455">
        <ele>298</ele>
        <time>2016-10-02T09:56:02Z</time>
      </trkpt>
      <trkpt lat="45.98759" lon="4.91459">
        <ele>298</ele>
        <time>2016-10-02T09:56:03Z</time>
      </trkpt>
      <trkpt lat="45.98754" lon="4.91464">
        <ele>298</ele>
        <time>2016-10-02T09:56:04Z</time>
      </trkpt>
      <trkpt lat="45.98749" lon="4.91468">
        <ele>299</ele>
        <time>2016-10-02T09:56:05Z</time>
      </trkpt>
      <trkpt lat="45.98745" lon="4.91473">
        <ele>299</ele>
        <time>2016-10-02T09:56:06Z</time>
      </trkpt>
      <trkpt lat="45.9874" lon="4.91477">
        <ele>299</ele>
        <time>2016-10-02T09:56:07Z</time>
      </trkpt>
      <trkpt lat="45.98736" lon="4.91482">
        <ele>299</ele>
        <time>2016-10-02T09:56:08Z</time>
      </trkpt>
      <trkpt lat="45.98732" lon="4.91487">
        <ele>299</ele>
        <time>2016-10-02T09:56:09Z</time>
      </trkpt>
      <trkpt lat="45.98728" lon="4.91492">
        <ele>299</ele>
        <time>2016-10-02T09:56:10Z</time>
      </trkpt>
      <trkpt lat="45.98723" lon="4.91497">
        <ele>299</ele>
        <time>2016-10-02T09:56:11Z</time>
      </trkpt>
      <trkpt lat="45.98719" lon="4.91501">
        <ele>299</ele>
        <time>2016-10-02T09:56:12Z</time>
      </trkpt>
      <trkpt lat="45.98715" lon="4.91507">
        <ele>299</ele>
        <time>2016-10-02T09:56:13Z</time>
      </trkpt>
      <trkpt lat="45.9871" lon="4.91513">
        <ele>299</ele>
        <time>2016-10-02T09:56:14Z</time>
      </trkpt>
      <trkpt lat="45.98706" lon="4.91519">
        <ele>299</ele>
        <time>2016-10-02T09:56:15Z</time>
      </trkpt>
      <trkpt lat="45.98701" lon="4.91524">
        <ele>299</ele>
        <time>2016-10-02T09:56:16Z</time>
      </trkpt>
      <trkpt lat="45.98697" lon="4.91529">
        <ele>299</ele>
        <time>2016-10-02T09:56:17Z</time>
      </trkpt>
      <trkpt lat="45.98693" lon="4.91535">
        <ele>299</ele>
        <time>2016-10-02T09:56:18Z</time>
      </trkpt>
      <trkpt lat="45.98689" lon="4.91541">
        <ele>299</ele>
        <time>2016-10-02T09:56:19Z</time>
      </trkpt>
      <trkpt lat="45.98685" lon="4.91548">
        <ele>299</ele>
        <time>2016-10-02T09:56:20Z</time>
      </trkpt>
      <trkpt lat="45.98682" lon="4.91554">
        <ele>299</ele>
        <time>2016-10-02T09:56:21Z</time>
      </trkpt>
      <trkpt lat="45.98677" lon="4.9156">
        <ele>299</ele>
        <time>2016-10-02T09:56:22Z</time>
      </trkpt>
      <trkpt lat="45.98673" lon="4.91566">
        <ele>299</ele>
        <time>2016-10-02T09:56:23Z</time>
      </trkpt>
      <trkpt lat="45.98668" lon="4.91572">
        <ele>299</ele>
        <time>2016-10-02T09:56:24Z</time>
      </trkpt>
      <trkpt lat="45.98664" lon="4.91577">
        <ele>299</ele>
        <time>2016-10-02T09:56:25Z</time>
      </trkpt>
      <trkpt lat="45.98659" lon="4.91582">
        <ele>299</ele>
        <time>2016-10-02T09:56:26Z</time>
      </trkpt>
      <trkpt lat="45.98655" lon="4.91588">
        <ele>299</ele>
        <time>2016-10-02T09:56:27Z</time>
      </trkpt>
      <trkpt lat="45.9865" lon="4.91595">
        <ele>299</ele>
        <time>2016-10-02T09:56:28Z</time>
      </trkpt>
      <trkpt lat="45.98645" lon="4.91602">
        <ele>298</ele>
        <time>2016-10-02T09:56:29Z</time>
      </trkpt>
      <trkpt lat="45.98641" lon="4.91608">
        <ele>298</ele>
        <time>2016-10-02T09:56:30Z</time>
      </trkpt>
      <trkpt lat="45.98636" lon="4.91614">
        <ele>298</ele>
        <time>2016-10-02T09:56:31Z</time>
      </trkpt>
      <trkpt lat="45.98631" lon="4.91619">
        <ele>298</ele>
        <time>2016-10-02T09:56:32Z</time>
      </trkpt>
      <trkpt lat="45.98627" lon="4.91625">
        <ele>298</ele>
        <time>2016-10-02T09:56:33Z</time>
      </trkpt>
      <trkpt lat="45.98622" lon="4.91631">
        <ele>298</ele>
        <time>2016-10-02T09:56:34Z</time>
      </trkpt>
      <trkpt lat="45.98617" lon="4.91637">
        <ele>298</ele>
        <time>2016-10-02T09:56:35Z</time>
      </trkpt>
      <trkpt lat="45.98612" lon="4.91644">
        <ele>298</ele>
        <time>2016-10-02T09:56:36Z</time>
      </trkpt>
      <trkpt lat="45.98607" lon="4.9165">
        <ele>298</ele>
        <time>2016-10-02T09:56:37Z</time>
      </trkpt>
      <trkpt lat="45.98602" lon="4.91657">
        <ele>298</ele>
        <time>2016-10-02T09:56:38Z</time>
      </trkpt>
      <trkpt lat="45.98597" lon="4.91663">
        <ele>298</ele>
        <time>2016-10-02T09:56:39Z</time>
      </trkpt>
      <trkpt lat="45.98592" lon="4.91668">
        <ele>298</ele>
        <time>2016-10-02T09:56:40Z</time>
      </trkpt>
      <trkpt lat="45.98588" lon="4.91673">
        <ele>298</ele>
        <time>2016-10-02T09:56:41Z</time>
      </trkpt>
      <trkpt lat="45.98584" lon="4.91678">
        <ele>298</ele>
        <time>2016-10-02T09:56:42Z</time>
      </trkpt>
      <trkpt lat="45.98579" lon="4.91683">
        <ele>298</ele>
        <time>2016-10-02T09:56:43Z</time>
      </trkpt>
      <trkpt lat="45.98575" lon="4.91689">
        <ele>298</ele>
        <time>2016-10-02T09:56:44Z</time>
      </trkpt>
      <trkpt lat="45.9857" lon="4.91694">
        <ele>298</ele>
        <time>2016-10-02T09:56:45Z</time>
      </trkpt>
      <trkpt lat="45.98565" lon="4.91699">
        <ele>298</ele>
        <time>2016-10-02T09:56:46Z</time>
      </trkpt>
      <trkpt lat="45.98559" lon="4.91705">
        <ele>298</ele>
        <time>2016-10-02T09:56:47Z</time>
      </trkpt>
      <trkpt lat="45.98554" lon="4.9171">
        <ele>298</ele>
        <time>2016-10-02T09:56:48Z</time>
      </trkpt>
      <trkpt lat="45.98549" lon="4.91715">
        <ele>298</ele>
        <time>2016-10-02T09:56:49Z</time>
      </trkpt>
      <trkpt lat="45.98544" lon="4.9172">
        <ele>298</ele>
        <time>2016-10-02T09:56:50Z</time>
      </trkpt>
      <trkpt lat="45.9854" lon="4.91727">
        <ele>297</ele>
        <time>2016-10-02T09:56:51Z</time>
      </trkpt>
      <trkpt lat="45.98534" lon="4.91733">
        <ele>297</ele>
        <time>2016-10-02T09:56:52Z</time>
      </trkpt>
      <trkpt lat="45.9853" lon="4.91739">
        <ele>297</ele>
        <time>2016-10-02T09:56:53Z</time>
      </trkpt>
      <trkpt lat="45.98525" lon="4.91745">
        <ele>297</ele>
        <time>2016-10-02T09:56:54Z</time>
      </trkpt>
      <trkpt lat="45.98521" lon="4.9175">
        <ele>297</ele>
        <time>2016-10-02T09:56:55Z</time>
      </trkpt>
      <trkpt lat="45.98517" lon="4.91756">
        <ele>297</ele>
        <time>2016-10-02T09:56:56Z</time>
      </trkpt>
      <trkpt lat="45.98512" lon="4.91762">
        <ele>297</ele>
        <time>2016-10-02T09:56:57Z</time>
      </trkpt>
      <trkpt lat="45.98508" lon="4.91768">
        <ele>297</ele>
        <time>2016-10-02T09:56:58Z</time>
      </trkpt>
      <trkpt lat="45.98503" lon="4.91773">
        <ele>297</ele>
        <time>2016-10-02T09:56:59Z</time>
      </trkpt>
      <trkpt lat="45.98499" lon="4.91779">
        <ele>297</ele>
        <time>2016-10-02T09:57:00Z</time>
      </trkpt>
      <trkpt lat="45.98494" lon="4.91785">
        <ele>297</ele>
        <time>2016-10-02T09:57:01Z</time>
      </trkpt>
      <trkpt lat="45.9849" lon="4.91791">
        <ele>297</ele>
        <time>2016-10-02T09:57:02Z</time>
      </trkpt>
      <trkpt lat="45.98486" lon="4.91796">
        <ele>297</ele>
        <time>2016-10-02T09:57:03Z</time>
      </trkpt>
      <trkpt lat="45.98482" lon="4.91801">
        <ele>297</ele>
        <time>2016-10-02T09:57:04Z</time>
      </trkpt>
      <trkpt lat="45.98478" lon="4.91806">
        <ele>297</ele>
        <time>2016-10-02T09:57:05Z</time>
      </trkpt>
      <trkpt lat="45.98474" lon="4.91812">
        <ele>297</ele>
        <time>2016-10-02T09:57:06Z</time>
      </trkpt>
      <trkpt lat="45.98469" lon="4.91818">
        <ele>297</ele>
        <time>2016-10-02T09:57:07Z</time>
      </trkpt>
      <trkpt lat="45.98465" lon="4.91824">
        <ele>297</ele>
        <time>2016-10-02T09:57:08Z</time>
      </trkpt>
      <trkpt lat="45.9846" lon="4.9183">
        <ele>297</ele>
        <time>2016-10-02T09:57:09Z</time>
      </trkpt>
      <trkpt lat="45.98455" lon="4.91835">
        <ele>297</ele>
        <time>2016-10-02T09:57:10Z</time>
      </trkpt>
      <trkpt lat="45.9845" lon="4.9184">
        <ele>297</ele>
        <time>2016-10-02T09:57:11Z</time>
      </trkpt>
      <trkpt lat="45.98445" lon="4.91845">
        <ele>297</ele>
        <time>2016-10-02T09:57:12Z</time>
      </trkpt>
      <trkpt lat="45.98441" lon="4.91851">
        <ele>297</ele>
        <time>2016-10-02T09:57:13Z</time>
      </trkpt>
      <trkpt lat="45.98436" lon="4.91856">
        <ele>297</ele>
        <time>2016-10-02T09:57:14Z</time>
      </trkpt>
      <trkpt lat="45.98431" lon="4.91862">
        <ele>297</ele>
        <time>2016-10-02T09:57:15Z</time>
      </trkpt>
      <trkpt lat="45.98427" lon="4.91868">
        <ele>297</ele>
        <time>2016-10-02T09:57:16Z</time>
      </trkpt>
      <trkpt lat="45.98421" lon="4.91874">
        <ele>297</ele>
        <time>2016-10-02T09:57:17Z</time>
      </trkpt>
      <trkpt lat="45.98417" lon="4.91879">
        <ele>297</ele>
        <time>2016-10-02T09:57:18Z</time>
      </trkpt>
      <trkpt lat="45.98411" lon="4.91884">
        <ele>297</ele>
        <time>2016-10-02T09:57:19Z</time>
      </trkpt>
      <trkpt lat="45.98406" lon="4.9189">
        <ele>297</ele>
        <time>2016-10-02T09:57:20Z</time>
      </trkpt>
      <trkpt lat="45.98401" lon="4.91897">
        <ele>297</ele>
        <time>2016-10-02T09:57:21Z</time>
      </trkpt>
      <trkpt lat="45.98396" lon="4.91903">
        <ele>297</ele>
        <time>2016-10-02T09:57:22Z</time>
      </trkpt>
      <trkpt lat="45.98391" lon="4.9191">
        <ele>297</ele>
        <time>2016-10-02T09:57:23Z</time>
      </trkpt>
      <trkpt lat="45.98386" lon="4.91916">
        <ele>298</ele>
        <time>2016-10-02T09:57:24Z</time>
      </trkpt>
      <trkpt lat="45.98381" lon="4.91922">
        <ele>297</ele>
        <time>2016-10-02T09:57:25Z</time>
      </trkpt>
      <trkpt lat="45.98377" lon="4.91928">
        <ele>297</ele>
        <time>2016-10-02T09:57:26Z</time>
      </trkpt>
      <trkpt lat="45.98372" lon="4.91934">
        <ele>298</ele>
        <time>2016-10-02T09:57:27Z</time>
      </trkpt>
      <trkpt lat="45.98368" lon="4.9194">
        <ele>298</ele>
        <time>2016-10-02T09:57:28Z</time>
      </trkpt>
      <trkpt lat="45.98364" lon="4.91945">
        <ele>298</ele>
        <time>2016-10-02T09:57:29Z</time>
      </trkpt>
      <trkpt lat="45.9836" lon="4.91951">
        <ele>298</ele>
        <time>2016-10-02T09:57:30Z</time>
      </trkpt>
      <trkpt lat="45.98355" lon="4.91956">
        <ele>298</ele>
        <time>2016-10-02T09:57:31Z</time>
      </trkpt>
      <trkpt lat="45.98351" lon="4.91961">
        <ele>297</ele>
        <time>2016-10-02T09:57:32Z</time>
      </trkpt>
      <trkpt lat="45.98347" lon="4.91966">
        <ele>297</ele>
        <time>2016-10-02T09:57:33Z</time>
      </trkpt>
      <trkpt lat="45.98343" lon="4.9197">
        <ele>297</ele>
        <time>2016-10-02T09:57:34Z</time>
      </trkpt>
      <trkpt lat="45.98339" lon="4.91974">
        <ele>297</ele>
        <time>2016-10-02T09:57:35Z</time>
      </trkpt>
      <trkpt lat="45.98335" lon="4.91979">
        <ele>297</ele>
        <time>2016-10-02T09:57:36Z</time>
      </trkpt>
      <trkpt lat="45.9833" lon="4.91985">
        <ele>298</ele>
        <time>2016-10-02T09:57:37Z</time>
      </trkpt>
      <trkpt lat="45.98326" lon="4.91989">
        <ele>298</ele>
        <time>2016-10-02T09:57:38Z</time>
      </trkpt>
      <trkpt lat="45.98321" lon="4.91995">
        <ele>298</ele>
        <time>2016-10-02T09:57:39Z</time>
      </trkpt>
      <trkpt lat="45.98317" lon="4.92">
        <ele>298</ele>
        <time>2016-10-02T09:57:40Z</time>
      </trkpt>
      <trkpt lat="45.98312" lon="4.92005">
        <ele>298</ele>
        <time>2016-10-02T09:57:41Z</time>
      </trkpt>
      <trkpt lat="45.98308" lon="4.92011">
        <ele>298</ele>
        <time>2016-10-02T09:57:42Z</time>
      </trkpt>
      <trkpt lat="45.98304" lon="4.92016">
        <ele>298</ele>
        <time>2016-10-02T09:57:43Z</time>
      </trkpt>
      <trkpt lat="45.983" lon="4.92021">
        <ele>298</ele>
        <time>2016-10-02T09:57:44Z</time>
      </trkpt>
      <trkpt lat="45.98295" lon="4.92026">
        <ele>298</ele>
        <time>2016-10-02T09:57:45Z</time>
      </trkpt>
      <trkpt lat="45.9829" lon="4.92031">
        <ele>298</ele>
        <time>2016-10-02T09:57:46Z</time>
      </trkpt>
      <trkpt lat="45.98286" lon="4.92036">
        <ele>298</ele>
        <time>2016-10-02T09:57:47Z</time>
      </trkpt>
      <trkpt lat="45.98281" lon="4.92042">
        <ele>298</ele>
        <time>2016-10-02T09:57:48Z</time>
      </trkpt>
      <trkpt lat="45.98277" lon="4.92047">
        <ele>298</ele>
        <time>2016-10-02T09:57:49Z</time>
      </trkpt>
      <trkpt lat="45.98272" lon="4.92051">
        <ele>298</ele>
        <time>2016-10-02T09:57:50Z</time>
      </trkpt>
      <trkpt lat="45.98268" lon="4.92057">
        <ele>298</ele>
        <time>2016-10-02T09:57:51Z</time>
      </trkpt>
      <trkpt lat="45.98263" lon="4.92063">
        <ele>298</ele>
        <time>2016-10-02T09:57:52Z</time>
      </trkpt>
      <trkpt lat="45.98259" lon="4.92068">
        <ele>299</ele>
        <time>2016-10-02T09:57:53Z</time>
      </trkpt>
      <trkpt lat="45.98254" lon="4.92073">
        <ele>299</ele>
        <time>2016-10-02T09:57:54Z</time>
      </trkpt>
      <trkpt lat="45.98249" lon="4.92078">
        <ele>299</ele>
        <time>2016-10-02T09:57:55Z</time>
      </trkpt>
      <trkpt lat="45.98245" lon="4.92083">
        <ele>299</ele>
        <time>2016-10-02T09:57:56Z</time>
      </trkpt>
      <trkpt lat="45.9824" lon="4.92087">
        <ele>299</ele>
        <time>2016-10-02T09:57:57Z</time>
      </trkpt>
      <trkpt lat="45.98235" lon="4.92093">
        <ele>299</ele>
        <time>2016-10-02T09:57:58Z</time>
      </trkpt>
      <trkpt lat="45.9823" lon="4.92098">
        <ele>299</ele>
        <time>2016-10-02T09:57:59Z</time>
      </trkpt>
      <trkpt lat="45.98226" lon="4.92103">
        <ele>299</ele>
        <time>2016-10-02T09:58:00Z</time>
      </trkpt>
      <trkpt lat="45.98222" lon="4.92109">
        <ele>299</ele>
        <time>2016-10-02T09:58:01Z</time>
      </trkpt>
      <trkpt lat="45.98217" lon="4.92114">
        <ele>299</ele>
        <time>2016-10-02T09:58:02Z</time>
      </trkpt>
      <trkpt lat="45.98212" lon="4.92118">
        <ele>299</ele>
        <time>2016-10-02T09:58:03Z</time>
      </trkpt>
      <trkpt lat="45.98208" lon="4.92123">
        <ele>299</ele>
        <time>2016-10-02T09:58:04Z</time>
      </trkpt>
      <trkpt lat="45.98202" lon="4.92128">
        <ele>299</ele>
        <time>2016-10-02T09:58:05Z</time>
      </trkpt>
      <trkpt lat="45.98197" lon="4.92133">
        <ele>299</ele>
        <time>2016-10-02T09:58:06Z</time>
      </trkpt>
      <trkpt lat="45.98193" lon="4.92139">
        <ele>299</ele>
        <time>2016-10-02T09:58:07Z</time>
      </trkpt>
      <trkpt lat="45.98188" lon="4.92143">
        <ele>299</ele>
        <time>2016-10-02T09:58:08Z</time>
      </trkpt>
      <trkpt lat="45.98183" lon="4.92148">
        <ele>299</ele>
        <time>2016-10-02T09:58:09Z</time>
      </trkpt>
      <trkpt lat="45.98179" lon="4.92154">
        <ele>299</ele>
        <time>2016-10-02T09:58:10Z</time>
      </trkpt>
      <trkpt lat="45.98174" lon="4.92159">
        <ele>299</ele>
        <time>2016-10-02T09:58:11Z</time>
      </trkpt>
      <trkpt lat="45.98169" lon="4.92165">
        <ele>299</ele>
        <time>2016-10-02T09:58:12Z</time>
      </trkpt>
      <trkpt lat="45.98164" lon="4.92172">
        <ele>299</ele>
        <time>2016-10-02T09:58:13Z</time>
      </trkpt>
      <trkpt lat="45.9816" lon="4.92178">
        <ele>299</ele>
        <time>2016-10-02T09:58:14Z</time>
      </trkpt>
      <trkpt lat="45.98155" lon="4.92185">
        <ele>299</ele>
        <time>2016-10-02T09:58:15Z</time>
      </trkpt>
      <trkpt lat="45.9815" lon="4.92191">
        <ele>299</ele>
        <time>2016-10-02T09:58:16Z</time>
      </trkpt>
      <trkpt lat="45.98145" lon="4.92197">
        <ele>299</ele>
        <time>2016-10-02T09:58:17Z</time>
      </trkpt>
      <trkpt lat="45.98141" lon="4.92203">
        <ele>299</ele>
        <time>2016-10-02T09:58:18Z</time>
      </trkpt>
      <trkpt lat="45.98136" lon="4.92208">
        <ele>299</ele>
        <time>2016-10-02T09:58:19Z</time>
      </trkpt>
      <trkpt lat="45.98131" lon="4.92214">
        <ele>299</ele>
        <time>2016-10-02T09:58:20Z</time>
      </trkpt>
      <trkpt lat="45.98127" lon="4.92219">
        <ele>299</ele>
        <time>2016-10-02T09:58:21Z</time>
      </trkpt>
      <trkpt lat="45.98124" lon="4.92225">
        <ele>299</ele>
        <time>2016-10-02T09:58:22Z</time>
      </trkpt>
      <trkpt lat="45.9812" lon="4.92231">
        <ele>299</ele>
        <time>2016-10-02T09:58:23Z</time>
      </trkpt>
      <trkpt lat="45.98115" lon="4.92236">
        <ele>299</ele>
        <time>2016-10-02T09:58:24Z</time>
      </trkpt>
      <trkpt lat="45.9811" lon="4.92241">
        <ele>299</ele>
        <time>2016-10-02T09:58:25Z</time>
      </trkpt>
      <trkpt lat="45.98105" lon="4.92246">
        <ele>299</ele>
        <time>2016-10-02T09:58:26Z</time>
      </trkpt>
      <trkpt lat="45.981" lon="4.92252">
        <ele>300</ele>
        <time>2016-10-02T09:58:27Z</time>
      </trkpt>
      <trkpt lat="45.98095" lon="4.92258">
        <ele>299</ele>
        <time>2016-10-02T09:58:28Z</time>
      </trkpt>
      <trkpt lat="45.98091" lon="4.92264">
        <ele>300</ele>
        <time>2016-10-02T09:58:29Z</time>
      </trkpt>
      <trkpt lat="45.98086" lon="4.9227">
        <ele>300</ele>
        <time>2016-10-02T09:58:30Z</time>
      </trkpt>
      <trkpt lat="45.98082" lon="4.92276">
        <ele>299</ele>
        <time>2016-10-02T09:58:31Z</time>
      </trkpt>
      <trkpt lat="45.98077" lon="4.92284">
        <ele>299</ele>
        <time>2016-10-02T09:58:32Z</time>
      </trkpt>
      <trkpt lat="45.98073" lon="4.9229">
        <ele>299</ele>
        <time>2016-10-02T09:58:33Z</time>
      </trkpt>
      <trkpt lat="45.98069" lon="4.92296">
        <ele>299</ele>
        <time>2016-10-02T09:58:34Z</time>
      </trkpt>
      <trkpt lat="45.98064" lon="4.92301">
        <ele>299</ele>
        <time>2016-10-02T09:58:35Z</time>
      </trkpt>
      <trkpt lat="45.98059" lon="4.92307">
        <ele>299</ele>
        <time>2016-10-02T09:58:36Z</time>
      </trkpt>
      <trkpt lat="45.98055" lon="4.92314">
        <ele>299</ele>
        <time>2016-10-02T09:58:37Z</time>
      </trkpt>
      <trkpt lat="45.98051" lon="4.9232">
        <ele>299</ele>
        <time>2016-10-02T09:58:38Z</time>
      </trkpt>
      <trkpt lat="45.98046" lon="4.92325">
        <ele>299</ele>
        <time>2016-10-02T09:58:39Z</time>
      </trkpt>
      <trkpt lat="45.98041" lon="4.9233">
        <ele>299</ele>
        <time>2016-10-02T09:58:40Z</time>
      </trkpt>
      <trkpt lat="45.98036" lon="4.92336">
        <ele>299</ele>
        <time>2016-10-02T09:58:41Z</time>
      </trkpt>
      <trkpt lat="45.98031" lon="4.92342">
        <ele>299</ele>
        <time>2016-10-02T09:58:42Z</time>
      </trkpt>
      <trkpt lat="45.98027" lon="4.92349">
        <ele>298</ele>
        <time>2016-10-02T09:58:43Z</time>
      </trkpt>
      <trkpt lat="45.98022" lon="4.92355">
        <ele>298</ele>
        <time>2016-10-02T09:58:44Z</time>
      </trkpt>
      <trkpt lat="45.98018" lon="4.92361">
        <ele>298</ele>
        <time>2016-10-02T09:58:45Z</time>
      </trkpt>
      <trkpt lat="45.98014" lon="4.92368">
        <ele>298</ele>
        <time>2016-10-02T09:58:46Z</time>
      </trkpt>
      <trkpt lat="45.98009" lon="4.92374">
        <ele>298</ele>
        <time>2016-10-02T09:58:47Z</time>
      </trkpt>
      <trkpt lat="45.98004" lon="4.92379">
        <ele>298</ele>
        <time>2016-10-02T09:58:48Z</time>
      </trkpt>
      <trkpt lat="45.97999" lon="4.92385">
        <ele>298</ele>
        <time>2016-10-02T09:58:49Z</time>
      </trkpt>
      <trkpt lat="45.97993" lon="4.92391">
        <ele>298</ele>
        <time>2016-10-02T09:58:50Z</time>
      </trkpt>
      <trkpt lat="45.97987" lon="4.92396">
        <ele>298</ele>
        <time>2016-10-02T09:58:51Z</time>
      </trkpt>
      <trkpt lat="45.97982" lon="4.92402">
        <ele>298</ele>
        <time>2016-10-02T09:58:52Z</time>
      </trkpt>
      <trkpt lat="45.97976" lon="4.92408">
        <ele>298</ele>
        <time>2016-10-02T09:58:53Z</time>
      </trkpt>
      <trkpt lat="45.97971" lon="4.92414">
        <ele>298</ele>
        <time>2016-10-02T09:58:54Z</time>
      </trkpt>
      <trkpt lat="45.97967" lon="4.9242">
        <ele>298</ele>
        <time>2016-10-02T09:58:55Z</time>
      </trkpt>
      <trkpt lat="45.97962" lon="4.92426">
        <ele>298</ele>
        <time>2016-10-02T09:58:56Z</time>
      </trkpt>
      <trkpt lat="45.97957" lon="4.92432">
        <ele>299</ele>
        <time>2016-10-02T09:58:57Z</time>
      </trkpt>
      <trkpt lat="45.97952" lon="4.92437">
        <ele>299</ele>
        <time>2016-10-02T09:58:58Z</time>
      </trkpt>
      <trkpt lat="45.97948" lon="4.92443">
        <ele>299</ele>
        <time>2016-10-02T09:58:59Z</time>
      </trkpt>
      <trkpt lat="45.97943" lon="4.92449">
        <ele>299</ele>
        <time>2016-10-02T09:59:00Z</time>
      </trkpt>
      <trkpt lat="45.97939" lon="4.92455">
        <ele>299</ele>
        <time>2016-10-02T09:59:01Z</time>
      </trkpt>
      <trkpt lat="45.97935" lon="4.9246">
        <ele>299</ele>
        <time>2016-10-02T09:59:02Z</time>
      </trkpt>
      <trkpt lat="45.97931" lon="4.92467">
        <ele>299</ele>
        <time>2016-10-02T09:59:03Z</time>
      </trkpt>
      <trkpt lat="45.97927" lon="4.92473">
        <ele>299</ele>
        <time>2016-10-02T09:59:04Z</time>
      </trkpt>
      <trkpt lat="45.97922" lon="4.92479">
        <ele>299</ele>
        <time>2016-10-02T09:59:05Z</time>
      </trkpt>
      <trkpt lat="45.97917" lon="4.92484">
        <ele>299</ele>
        <time>2016-10-02T09:59:06Z</time>
      </trkpt>
      <trkpt lat="45.97912" lon="4.9249">
        <ele>299</ele>
        <time>2016-10-02T09:59:07Z</time>
      </trkpt>
      <trkpt lat="45.97908" lon="4.92496">
        <ele>299</ele>
        <time>2016-10-02T09:59:08Z</time>
      </trkpt>
      <trkpt lat="45.97904" lon="4.92502">
        <ele>299</ele>
        <time>2016-10-02T09:59:09Z</time>
      </trkpt>
      <trkpt lat="45.97899" lon="4.92508">
        <ele>299</ele>
        <time>2016-10-02T09:59:10Z</time>
      </trkpt>
      <trkpt lat="45.97894" lon="4.92513">
        <ele>300</ele>
        <time>2016-10-02T09:59:11Z</time>
      </trkpt>
      <trkpt lat="45.9789" lon="4.92519">
        <ele>300</ele>
        <time>2016-10-02T09:59:12Z</time>
      </trkpt>
      <trkpt lat="45.97885" lon="4.92525">
        <ele>300</ele>
        <time>2016-10-02T09:59:13Z</time>
      </trkpt>
      <trkpt lat="45.97879" lon="4.92531">
        <ele>300</ele>
        <time>2016-10-02T09:59:14Z</time>
      </trkpt>
      <trkpt lat="45.97874" lon="4.92537">
        <ele>300</ele>
        <time>2016-10-02T09:59:15Z</time>
      </trkpt>
      <trkpt lat="45.97869" lon="4.92543">
        <ele>300</ele>
        <time>2016-10-02T09:59:16Z</time>
      </trkpt>
      <trkpt lat="45.97864" lon="4.9255">
        <ele>300</ele>
        <time>2016-10-02T09:59:17Z</time>
      </trkpt>
      <trkpt lat="45.97859" lon="4.92556">
        <ele>300</ele>
        <time>2016-10-02T09:59:18Z</time>
      </trkpt>
      <trkpt lat="45.97854" lon="4.92563">
        <ele>300</ele>
        <time>2016-10-02T09:59:19Z</time>
      </trkpt>
      <trkpt lat="45.97849" lon="4.92569">
        <ele>300</ele>
        <time>2016-10-02T09:59:20Z</time>
      </trkpt>
      <trkpt lat="45.97844" lon="4.92574">
        <ele>300</ele>
        <time>2016-10-02T09:59:21Z</time>
      </trkpt>
      <trkpt lat="45.97839" lon="4.92579">
        <ele>300</ele>
        <time>2016-10-02T09:59:22Z</time>
      </trkpt>
      <trkpt lat="45.97835" lon="4.92585">
        <ele>300</ele>
        <time>2016-10-02T09:59:23Z</time>
      </trkpt>
      <trkpt lat="45.97831" lon="4.92591">
        <ele>300</ele>
        <time>2016-10-02T09:59:24Z</time>
      </trkpt>
      <trkpt lat="45.97826" lon="4.92596">
        <ele>300</ele>
        <time>2016-10-02T09:59:25Z</time>
      </trkpt>
      <trkpt lat="45.97822" lon="4.92603">
        <ele>300</ele>
        <time>2016-10-02T09:59:26Z</time>
      </trkpt>
      <trkpt lat="45.97818" lon="4.92608">
        <ele>300</ele>
        <time>2016-10-02T09:59:27Z</time>
      </trkpt>
      <trkpt lat="45.97813" lon="4.92614">
        <ele>300</ele>
        <time>2016-10-02T09:59:28Z</time>
      </trkpt>
      <trkpt lat="45.97809" lon="4.9262">
        <ele>300</ele>
        <time>2016-10-02T09:59:29Z</time>
      </trkpt>
      <trkpt lat="45.97804" lon="4.92625">
        <ele>301</ele>
        <time>2016-10-02T09:59:30Z</time>
      </trkpt>
      <trkpt lat="45.978" lon="4.92631">
        <ele>301</ele>
        <time>2016-10-02T09:59:31Z</time>
      </trkpt>
      <trkpt lat="45.97796" lon="4.92636">
        <ele>301</ele>
        <time>2016-10-02T09:59:32Z</time>
      </trkpt>
      <trkpt lat="45.97792" lon="4.92642">
        <ele>300</ele>
        <time>2016-10-02T09:59:33Z</time>
      </trkpt>
      <trkpt lat="45.97787" lon="4.92647">
        <ele>300</ele>
        <time>2016-10-02T09:59:34Z</time>
      </trkpt>
      <trkpt lat="45.97783" lon="4.92653">
        <ele>300</ele>
        <time>2016-10-02T09:59:35Z</time>
      </trkpt>
      <trkpt lat="45.97779" lon="4.92657">
        <ele>300</ele>
        <time>2016-10-02T09:59:36Z</time>
      </trkpt>
      <trkpt lat="45.97775" lon="4.92662">
        <ele>300</ele>
        <time>2016-10-02T09:59:37Z</time>
      </trkpt>
      <trkpt lat="45.9777" lon="4.92668">
        <ele>300</ele>
        <time>2016-10-02T09:59:38Z</time>
      </trkpt>
      <trkpt lat="45.97766" lon="4.92674">
        <ele>300</ele>
        <time>2016-10-02T09:59:39Z</time>
      </trkpt>
      <trkpt lat="45.97761" lon="4.92679">
        <ele>300</ele>
        <time>2016-10-02T09:59:40Z</time>
      </trkpt>
      <trkpt lat="45.97756" lon="4.92684">
        <ele>300</ele>
        <time>2016-10-02T09:59:41Z</time>
      </trkpt>
      <trkpt lat="45.97751" lon="4.92689">
        <ele>300</ele>
        <time>2016-10-02T09:59:42Z</time>
      </trkpt>
      <trkpt lat="45.97746" lon="4.92695">
        <ele>301</ele>
        <time>2016-10-02T09:59:43Z</time>
      </trkpt>
      <trkpt lat="45.97742" lon="4.927">
        <ele>301</ele>
        <time>2016-10-02T09:59:44Z</time>
      </trkpt>
      <trkpt lat="45.97737" lon="4.92705">
        <ele>301</ele>
        <time>2016-10-02T09:59:45Z</time>
      </trkpt>
      <trkpt lat="45.97733" lon="4.9271">
        <ele>301</ele>
        <time>2016-10-02T09:59:46Z</time>
      </trkpt>
      <trkpt lat="45.97729" lon="4.92716">
        <ele>301</ele>
        <time>2016-10-02T09:59:47Z</time>
      </trkpt>
      <trkpt lat="45.97724" lon="4.92721">
        <ele>301</ele>
        <time>2016-10-02T09:59:48Z</time>
      </trkpt>
      <trkpt lat="45.9772" lon="4.92727">
        <ele>301</ele>
        <time>2016-10-02T09:59:49Z</time>
      </trkpt>
      <trkpt lat="45.97716" lon="4.92732">
        <ele>301</ele>
        <time>2016-10-02T09:59:50Z</time>
      </trkpt>
      <trkpt lat="45.97711" lon="4.92737">
        <ele>301</ele>
        <time>2016-10-02T09:59:51Z</time>
      </trkpt>
      <trkpt lat="45.97707" lon="4.92741">
        <ele>302</ele>
        <time>2016-10-02T09:59:52Z</time>
      </trkpt>
      <trkpt lat="45.97703" lon="4.92747">
        <ele>302</ele>
        <time>2016-10-02T09:59:53Z</time>
      </trkpt>
      <trkpt lat="45.97698" lon="4.92753">
        <ele>301</ele>
        <time>2016-10-02T09:59:54Z</time>
      </trkpt>
      <trkpt lat="45.97694" lon="4.92758">
        <ele>301</ele>
        <time>2016-10-02T09:59:55Z</time>
      </trkpt>
      <trkpt lat="45.9769" lon="4.92763">
        <ele>301</ele>
        <time>2016-10-02T09:59:56Z</time>
      </trkpt>
      <trkpt lat="45.97685" lon="4.92768">
        <ele>301</ele>
        <time>2016-10-02T09:59:57Z</time>
      </trkpt>
      <trkpt lat="45.97682" lon="4.92773">
        <ele>301</ele>
        <time>2016-10-02T09:59:58Z</time>
      </trkpt>
      <trkpt lat="45.97678" lon="4.92778">
        <ele>301</ele>
        <time>2016-10-02T09:59:59Z</time>
      </trkpt>
      <trkpt lat="45.97673" lon="4.92783">
        <ele>301</ele>
        <time>2016-10-02T10:00:00Z</time>
      </trkpt>
      <trkpt lat="45.97669" lon="4.92788">
        <ele>301</ele>
        <time>2016-10-02T10:00:01Z</time>
      </trkpt>
      <trkpt lat="45.97664" lon="4.92794">
        <ele>301</ele>
        <time>2016-10-02T10:00:02Z</time>
      </trkpt>
      <trkpt lat="45.97659" lon="4.92799">
        <ele>301</ele>
        <time>2016-10-02T10:00:03Z</time>
      </trkpt>
      <trkpt lat="45.97654" lon="4.92805">
        <ele>300</ele>
        <time>2016-10-02T10:00:04Z</time>
      </trkpt>
      <trkpt lat="45.9765" lon="4.92811">
        <ele>300</ele>
        <time>2016-10-02T10:00:05Z</time>
      </trkpt>
      <trkpt lat="45.97644" lon="4.92818">
        <ele>300</ele>
        <time>2016-10-02T10:00:06Z</time>
      </trkpt>
      <trkpt lat="45.97638" lon="4.92824">
        <ele>300</ele>
        <time>2016-10-02T10:00:07Z</time>
      </trkpt>
      <trkpt lat="45.97633" lon="4.9283">
        <ele>300</ele>
        <time>2016-10-02T10:00:08Z</time>
      </trkpt>
      <trkpt lat="45.97629" lon="4.92835">
        <ele>298</ele>
        <time>2016-10-02T10:00:09Z</time>
      </trkpt>
      <trkpt lat="45.97625" lon="4.92841">
        <ele>298</ele>
        <time>2016-10-02T10:00:10Z</time>
      </trkpt>
      <trkpt lat="45.97621" lon="4.92847">
        <ele>298</ele>
        <time>2016-10-02T10:00:11Z</time>
      </trkpt>
      <trkpt lat="45.97618" lon="4.92853">
        <ele>298</ele>
        <time>2016-10-02T10:00:12Z</time>
      </trkpt>
      <trkpt lat="45.97614" lon="4.92858">
        <ele>298</ele>
        <time>2016-10-02T10:00:13Z</time>
      </trkpt>
      <trkpt lat="45.9761" lon="4.92862">
        <ele>298</ele>
        <time>2016-10-02T10:00:14Z</time>
      </trkpt>
      <trkpt lat="45.97606" lon="4.92867">
        <ele>298</ele>
        <time>2016-10-02T10:00:15Z</time>
      </trkpt>
      <trkpt lat="45.97602" lon="4.92871">
        <ele>298</ele>
        <time>2016-10-02T10:00:16Z</time>
      </trkpt>
      <trkpt lat="45.97599" lon="4.92875">
        <ele>298</ele>
        <time>2016-10-02T10:00:17Z</time>
      </trkpt>
      <trkpt lat="45.97594" lon="4.92879">
        <ele>298</ele>
        <time>2016-10-02T10:00:18Z</time>
      </trkpt>
      <trkpt lat="45.9759" lon="4.92884">
        <ele>298</ele>
        <time>2016-10-02T10:00:19Z</time>
      </trkpt>
      <trkpt lat="45.97587" lon="4.92889">
        <ele>298</ele>
        <time>2016-10-02T10:00:20Z</time>
      </trkpt>
      <trkpt lat="45.97583" lon="4.92893">
        <ele>298</ele>
        <time>2016-10-02T10:00:21Z</time>
      </trkpt>
      <trkpt lat="45.97579" lon="4.92898">
        <ele>298</ele>
        <time>2016-10-02T10:00:22Z</time>
      </trkpt>
      <trkpt lat="45.97575" lon="4.92903">
        <ele>298</ele>
        <time>2016-10-02T10:00:23Z</time>
      </trkpt>
      <trkpt lat="45.97571" lon="4.92908">
        <ele>298</ele>
        <time>2016-10-02T10:00:24Z</time>
      </trkpt>
      <trkpt lat="45.97568" lon="4.92914">
        <ele>298</ele>
        <time>2016-10-02T10:00:25Z</time>
      </trkpt>
      <trkpt lat="45.97564" lon="4.92919">
        <ele>298</ele>
        <time>2016-10-02T10:00:26Z</time>
      </trkpt>
      <trkpt lat="45.9756" lon="4.92924">
        <ele>298</ele>
        <time>2016-10-02T10:00:27Z</time>
      </trkpt>
      <trkpt lat="45.97555" lon="4.92929">
        <ele>299</ele>
        <time>2016-10-02T10:00:28Z</time>
      </trkpt>
      <trkpt lat="45.97551" lon="4.92934">
        <ele>299</ele>
        <time>2016-10-02T10:00:29Z</time>
      </trkpt>
      <trkpt lat="45.97547" lon="4.92939">
        <ele>299</ele>
        <time>2016-10-02T10:00:30Z</time>
      </trkpt>
      <trkpt lat="45.97543" lon="4.92944">
        <ele>299</ele>
        <time>2016-10-02T10:00:31Z</time>
      </trkpt>
      <trkpt lat="45.97538" lon="4.92949">
        <ele>299</ele>
        <time>2016-10-02T10:00:32Z</time>
      </trkpt>
      <trkpt lat="45.97534" lon="4.92954">
        <ele>299</ele>
        <time>2016-10-02T10:00:33Z</time>
      </trkpt>
      <trkpt lat="45.97529" lon="4.92959">
        <ele>299</ele>
        <time>2016-10-02T10:00:34Z</time>
      </trkpt>
      <trkpt lat="45.97525" lon="4.92964">
        <ele>299</ele>
        <time>2016-10-02T10:00:35Z</time>
      </trkpt>
      <trkpt lat="45.9752" lon="4.92969">
        <ele>299</ele>
        <time>2016-10-02T10:00:36Z</time>
      </trkpt>
      <trkpt lat="45.97515" lon="4.92973">
        <ele>299</ele>
        <time>2016-10-02T10:00:37Z</time>
      </trkpt>
      <trkpt lat="45.97511" lon="4.92978">
        <ele>299</ele>
        <time>2016-10-02T10:00:38Z</time>
      </trkpt>
      <trkpt lat="45.97507" lon="4.92983">
        <ele>299</ele>
        <time>2016-10-02T10:00:39Z</time>
      </trkpt>
      <trkpt lat="45.97502" lon="4.92989">
        <ele>299</ele>
        <time>2016-10-02T10:00:40Z</time>
      </trkpt>
      <trkpt lat="45.97498" lon="4.92993">
        <ele>299</ele>
        <time>2016-10-02T10:00:41Z</time>
      </trkpt>
      <trkpt lat="45.97494" lon="4.92998">
        <ele>299</ele>
        <time>2016-10-02T10:00:42Z</time>
      </trkpt>
      <trkpt lat="45.97489" lon="4.93004">
        <ele>299</ele>
        <time>2016-10-02T10:00:43Z</time>
      </trkpt>
      <trkpt lat="45.97485" lon="4.93009">
        <ele>299</ele>
        <time>2016-10-02T10:00:44Z</time>
      </trkpt>
      <trkpt lat="45.9748" lon="4.93015">
        <ele>299</ele>
        <time>2016-10-02T10:00:45Z</time>
      </trkpt>
      <trkpt lat="45.97476" lon="4.93021">
        <ele>299</ele>
        <time>2016-10-02T10:00:46Z</time>
      </trkpt>
      <trkpt lat="45.97471" lon="4.93027">
        <ele>299</ele>
        <time>2016-10-02T10:00:47Z</time>
      </trkpt>
      <trkpt lat="45.97466" lon="4.93033">
        <ele>299</ele>
        <time>2016-10-02T10:00:48Z</time>
      </trkpt>
      <trkpt lat="45.97461" lon="4.93039">
        <ele>299</ele>
        <time>2016-10-02T10:00:49Z</time>
      </trkpt>
      <trkpt lat="45.97457" lon="4.93045">
        <ele>299</ele>
        <time>2016-10-02T10:00:50Z</time>
      </trkpt>
      <trkpt lat="45.97452" lon="4.93051">
        <ele>299</ele>
        <time>2016-10-02T10:00:51Z</time>
      </trkpt>
      <trkpt lat="45.97447" lon="4.93055">
        <ele>299</ele>
        <time>2016-10-02T10:00:52Z</time>
      </trkpt>
      <trkpt lat="45.97443" lon="4.9306">
        <ele>299</ele>
        <time>2016-10-02T10:00:53Z</time>
      </trkpt>
      <trkpt lat="45.97439" lon="4.93065">
        <ele>299</ele>
        <time>2016-10-02T10:00:54Z</time>
      </trkpt>
      <trkpt lat="45.97435" lon="4.9307">
        <ele>299</ele>
        <time>2016-10-02T10:00:55Z</time>
      </trkpt>
      <trkpt lat="45.97431" lon="4.93076">
        <ele>299</ele>
        <time>2016-10-02T10:00:56Z</time>
      </trkpt>
      <trkpt lat="45.97427" lon="4.93081">
        <ele>299</ele>
        <time>2016-10-02T10:00:57Z</time>
      </trkpt>
      <trkpt lat="45.97423" lon="4.93086">
        <ele>299</ele>
        <time>2016-10-02T10:00:58Z</time>
      </trkpt>
      <trkpt lat="45.97419" lon="4.93091">
        <ele>299</ele>
        <time>2016-10-02T10:00:59Z</time>
      </trkpt>
      <trkpt lat="45.97415" lon="4.93095">
        <ele>299</ele>
        <time>2016-10-02T10:01:00Z</time>
      </trkpt>
      <trkpt lat="45.97411" lon="4.931">
        <ele>299</ele>
        <time>2016-10-02T10:01:01Z</time>
      </trkpt>
      <trkpt lat="45.97407" lon="4.93106">
        <ele>300</ele>
        <time>2016-10-02T10:01:02Z</time>
      </trkpt>
      <trkpt lat="45.97403" lon="4.93111">
        <ele>300</ele>
        <time>2016-10-02T10:01:03Z</time>
      </trkpt>
      <trkpt lat="45.97398" lon="4.93117">
        <ele>300</ele>
        <time>2016-10-02T10:01:04Z</time>
      </trkpt>
      <trkpt lat="45.97394" lon="4.93122">
        <ele>300</ele>
        <time>2016-10-02T10:01:05Z</time>
      </trkpt>
      <trkpt lat="45.97389" lon="4.93128">
        <ele>300</ele>
        <time>2016-10-02T10:01:06Z</time>
      </trkpt>
      <trkpt lat="45.97385" lon="4.93135">
        <ele>300</ele>
        <time>2016-10-02T10:01:07Z</time>
      </trkpt>
      <trkpt lat="45.97381" lon="4.93141">
        <ele>300</ele>
        <time>2016-10-02T10:01:08Z</time>
      </trkpt>
      <trkpt lat="45.97376" lon="4.93146">
        <ele>300</ele>
        <time>2016-10-02T10:01:09Z</time>
      </trkpt>
      <trkpt lat="45.97372" lon="4.93152">
        <ele>300</ele>
        <time>2016-10-02T10:01:10Z</time>
      </trkpt>
      <trkpt lat="45.97367" lon="4.93157">
        <ele>300</ele>
        <time>2016-10-02T10:01:11Z</time>
      </trkpt>
      <trkpt lat="45.97362" lon="4.93162">
        <ele>300</ele>
        <time>2016-10-02T10:01:12Z</time>
      </trkpt>
      <trkpt lat="45.97358" lon="4.93166">
        <ele>300</ele>
        <time>2016-10-02T10:01:13Z</time>
      </trkpt>
      <trkpt lat="45.97354" lon="4.93171">
        <ele>301</ele>
        <time>2016-10-02T10:01:14Z</time>
      </trkpt>
      <trkpt lat="45.9735" lon="4.93176">
        <ele>301</ele>
        <time>2016-10-02T10:01:15Z</time>
      </trkpt>
      <trkpt lat="45.97346" lon="4.9318">
        <ele>301</ele>
        <time>2016-10-02T10:01:16Z</time>
      </trkpt>
      <trkpt lat="45.97342" lon="4.93186">
        <ele>301</ele>
        <time>2016-10-02T10:01:17Z</time>
      </trkpt>
      <trkpt lat="45.97338" lon="4.93191">
        <ele>301</ele>
        <time>2016-10-02T10:01:18Z</time>
      </trkpt>
      <trkpt lat="45.97334" lon="4.93197">
        <ele>301</ele>
        <time>2016-10-02T10:01:19Z</time>
      </trkpt>
      <trkpt lat="45.97329" lon="4.93201">
        <ele>301</ele>
        <time>2016-10-02T10:01:20Z</time>
      </trkpt>
      <trkpt lat="45.97325" lon="4.93206">
        <ele>301</ele>
        <time>2016-10-02T10:01:21Z</time>
      </trkpt>
      <trkpt lat="45.97321" lon="4.93211">
        <ele>302</ele>
        <time>2016-10-02T10:01:22Z</time>
      </trkpt>
      <trkpt lat="45.97318" lon="4.93218">
        <ele>302</ele>
        <time>2016-10-02T10:01:23Z</time>
      </trkpt>
      <trkpt lat="45.97314" lon="4.93224">
        <ele>302</ele>
        <time>2016-10-02T10:01:24Z</time>
      </trkpt>
      <trkpt lat="45.97311" lon="4.9323">
        <ele>302</ele>
        <time>2016-10-02T10:01:25Z</time>
      </trkpt>
      <trkpt lat="45.97306" lon="4.93236">
        <ele>302</ele>
        <time>2016-10-02T10:01:26Z</time>
      </trkpt>
      <trkpt lat="45.97302" lon="4.93241">
        <ele>302</ele>
        <time>2016-10-02T10:01:27Z</time>
      </trkpt>
      <trkpt lat="45.97298" lon="4.93245">
        <ele>302</ele>
        <time>2016-10-02T10:01:28Z</time>
      </trkpt>
      <trkpt lat="45.97293" lon="4.9325">
        <ele>301</ele>
        <time>2016-10-02T10:01:29Z</time>
      </trkpt>
      <trkpt lat="45.97289" lon="4.93254">
        <ele>302</ele>
        <time>2016-10-02T10:01:30Z</time>
      </trkpt>
      <trkpt lat="45.97284" lon="4.93259">
        <ele>302</ele>
        <time>2016-10-02T10:01:31Z</time>
      </trkpt>
      <trkpt lat="45.97279" lon="4.93263">
        <ele>302</ele>
        <time>2016-10-02T10:01:32Z</time>
      </trkpt>
      <trkpt lat="45.97275" lon="4.93267">
        <ele>302</ele>
        <time>2016-10-02T10:01:33Z</time>
      </trkpt>
      <trkpt lat="45.9727" lon="4.93272">
        <ele>302</ele>
        <time>2016-10-02T10:01:34Z</time>
      </trkpt>
      <trkpt lat="45.97265" lon="4.93276">
        <ele>302</ele>
        <time>2016-10-02T10:01:35Z</time>
      </trkpt>
      <trkpt lat="45.97261" lon="4.93281">
        <ele>302</ele>
        <time>2016-10-02T10:01:36Z</time>
      </trkpt>
      <trkpt lat="45.97257" lon="4.93287">
        <ele>302</ele>
        <time>2016-10-02T10:01:37Z</time>
      </trkpt>
      <trkpt lat="45.97251" lon="4.93291">
        <ele>302</ele>
        <time>2016-10-02T10:01:38Z</time>
      </trkpt>
      <trkpt lat="45.97247" lon="4.93296">
        <ele>300</ele>
        <time>2016-10-02T10:01:39Z</time>
      </trkpt>
      <trkpt lat="45.97243" lon="4.93302">
        <ele>300</ele>
        <time>2016-10-02T10:01:40Z</time>
      </trkpt>
      <trkpt lat="45.97239" lon="4.93308">
        <ele>300</ele>
        <time>2016-10-02T10:01:41Z</time>
      </trkpt>
      <trkpt lat="45.97235" lon="4.93314">
        <ele>300</ele>
        <time>2016-10-02T10:01:42Z</time>
      </trkpt>
      <trkpt lat="45.9723" lon="4.9332">
        <ele>300</ele>
        <time>2016-10-02T10:01:43Z</time>
      </trkpt>
      <trkpt lat="45.97226" lon="4.93326">
        <ele>300</ele>
        <time>2016-10-02T10:01:44Z</time>
      </trkpt>
      <trkpt lat="45.97222" lon="4.93331">
        <ele>300</ele>
        <time>2016-10-02T10:01:45Z</time>
      </trkpt>
      <trkpt lat="45.97217" lon="4.93337">
        <ele>301</ele>
        <time>2016-10-02T10:01:46Z</time>
      </trkpt>
      <trkpt lat="45.97213" lon="4.93343">
        <ele>301</ele>
        <time>2016-10-02T10:01:47Z</time>
      </trkpt>
      <trkpt lat="45.97208" lon="4.93349">
        <ele>301</ele>
        <time>2016-10-02T10:01:48Z</time>
      </trkpt>
      <trkpt lat="45.97204" lon="4.93355">
        <ele>301</ele>
        <time>2016-10-02T10:01:49Z</time>
      </trkpt>
      <trkpt lat="45.97199" lon="4.93361">
        <ele>301</ele>
        <time>2016-10-02T10:01:50Z</time>
      </trkpt>
      <trkpt lat="45.97195" lon="4.93366">
        <ele>301</ele>
        <time>2016-10-02T10:01:51Z</time>
      </trkpt>
      <trkpt lat="45.97191" lon="4.93371">
        <ele>301</ele>
        <time>2016-10-02T10:01:52Z</time>
      </trkpt>
      <trkpt lat="45.97187" lon="4.93376">
        <ele>301</ele>
        <time>2016-10-02T10:01:53Z</time>
      </trkpt>
      <trkpt lat="45.97183" lon="4.93381">
        <ele>301</ele>
        <time>2016-10-02T10:01:54Z</time>
      </trkpt>
      <trkpt lat="45.97179" lon="4.93386">
        <ele>301</ele>
        <time>2016-10-02T10:01:55Z</time>
      </trkpt>
      <trkpt lat="45.97176" lon="4.93391">
        <ele>301</ele>
        <time>2016-10-02T10:01:56Z</time>
      </trkpt>
      <trkpt lat="45.97172" lon="4.93395">
        <ele>301</ele>
        <time>2016-10-02T10:01:57Z</time>
      </trkpt>
      <trkpt lat="45.97168" lon="4.93399">
        <ele>302</ele>
        <time>2016-10-02T10:01:58Z</time>
      </trkpt>
      <trkpt lat="45.97163" lon="4.93403">
        <ele>301</ele>
        <time>2016-10-02T10:01:59Z</time>
      </trkpt>
      <trkpt lat="45.97159" lon="4.93408">
        <ele>301</ele>
        <time>2016-10-02T10:02:00Z</time>
      </trkpt>
      <trkpt lat="45.97152" lon="4.93415">
        <ele>301</ele>
        <time>2016-10-02T10:02:02Z</time>
      </trkpt>
      <trkpt lat="45.97148" lon="4.9342">
        <ele>302</ele>
        <time>2016-10-02T10:02:03Z</time>
      </trkpt>
      <trkpt lat="45.97144" lon="4.93424">
        <ele>301</ele>
        <time>2016-10-02T10:02:04Z</time>
      </trkpt>
      <trkpt lat="45.97139" lon="4.93429">
        <ele>301</ele>
        <time>2016-10-02T10:02:05Z</time>
      </trkpt>
      <trkpt lat="45.97135" lon="4.93433">
        <ele>301</ele>
        <time>2016-10-02T10:02:06Z</time>
      </trkpt>
      <trkpt lat="45.9713" lon="4.93439">
        <ele>301</ele>
        <time>2016-10-02T10:02:07Z</time>
      </trkpt>
      <trkpt lat="45.97125" lon="4.93443">
        <ele>301</ele>
        <time>2016-10-02T10:02:08Z</time>
      </trkpt>
      <trkpt lat="45.97121" lon="4.93449">
        <ele>301</ele>
        <time>2016-10-02T10:02:09Z</time>
      </trkpt>
      <trkpt lat="45.97116" lon="4.93455">
        <ele>301</ele>
        <time>2016-10-02T10:02:10Z</time>
      </trkpt>
      <trkpt lat="45.97111" lon="4.93462">
        <ele>301</ele>
        <time>2016-10-02T10:02:11Z</time>
      </trkpt>
      <trkpt lat="45.97107" lon="4.93469">
        <ele>301</ele>
        <time>2016-10-02T10:02:12Z</time>
      </trkpt>
      <trkpt lat="45.97102" lon="4.93476">
        <ele>301</ele>
        <time>2016-10-02T10:02:13Z</time>
      </trkpt>
      <trkpt lat="45.97097" lon="4.93482">
        <ele>301</ele>
        <time>2016-10-02T10:02:14Z</time>
      </trkpt>
      <trkpt lat="45.97093" lon="4.93487">
        <ele>301</ele>
        <time>2016-10-02T10:02:15Z</time>
      </trkpt>
      <trkpt lat="45.97089" lon="4.93493">
        <ele>300</ele>
        <time>2016-10-02T10:02:16Z</time>
      </trkpt>
      <trkpt lat="45.97085" lon="4.93498">
        <ele>300</ele>
        <time>2016-10-02T10:02:17Z</time>
      </trkpt>
      <trkpt lat="45.97081" lon="4.93503">
        <ele>300</ele>
        <time>2016-10-02T10:02:18Z</time>
      </trkpt>
      <trkpt lat="45.97077" lon="4.93508">
        <ele>300</ele>
        <time>2016-10-02T10:02:19Z</time>
      </trkpt>
      <trkpt lat="45.97073" lon="4.93513">
        <ele>299</ele>
        <time>2016-10-02T10:02:20Z</time>
      </trkpt>
      <trkpt lat="45.97069" lon="4.93519">
        <ele>299</ele>
        <time>2016-10-02T10:02:21Z</time>
      </trkpt>
      <trkpt lat="45.97064" lon="4.93524">
        <ele>299</ele>
        <time>2016-10-02T10:02:22Z</time>
      </trkpt>
      <trkpt lat="45.9706" lon="4.9353">
        <ele>299</ele>
        <time>2016-10-02T10:02:23Z</time>
      </trkpt>
      <trkpt lat="45.97056" lon="4.93536">
        <ele>299</ele>
        <time>2016-10-02T10:02:24Z</time>
      </trkpt>
      <trkpt lat="45.97051" lon="4.93542">
        <ele>299</ele>
        <time>2016-10-02T10:02:25Z</time>
      </trkpt>
      <trkpt lat="45.97047" lon="4.93548">
        <ele>299</ele>
        <time>2016-10-02T10:02:26Z</time>
      </trkpt>
      <trkpt lat="45.97043" lon="4.93554">
        <ele>299</ele>
        <time>2016-10-02T10:02:27Z</time>
      </trkpt>
      <trkpt lat="45.97039" lon="4.93559">
        <ele>299</ele>
        <time>2016-10-02T10:02:28Z</time>
      </trkpt>
      <trkpt lat="45.97034" lon="4.93565">
        <ele>299</ele>
        <time>2016-10-02T10:02:29Z</time>
      </trkpt>
      <trkpt lat="45.9703" lon="4.9357">
        <ele>299</ele>
        <time>2016-10-02T10:02:30Z</time>
      </trkpt>
      <trkpt lat="45.97025" lon="4.93576">
        <ele>299</ele>
        <time>2016-10-02T10:02:31Z</time>
      </trkpt>
      <trkpt lat="45.9702" lon="4.93581">
        <ele>299</ele>
        <time>2016-10-02T10:02:32Z</time>
      </trkpt>
      <trkpt lat="45.97016" lon="4.93587">
        <ele>299</ele>
        <time>2016-10-02T10:02:33Z</time>
      </trkpt>
      <trkpt lat="45.97011" lon="4.93593">
        <ele>299</ele>
        <time>2016-10-02T10:02:34Z</time>
      </trkpt>
      <trkpt lat="45.97005" lon="4.93598">
        <ele>299</ele>
        <time>2016-10-02T10:02:35Z</time>
      </trkpt>
      <trkpt lat="45.97" lon="4.93604">
        <ele>300</ele>
        <time>2016-10-02T10:02:36Z</time>
      </trkpt>
      <trkpt lat="45.96995" lon="4.93609">
        <ele>299</ele>
        <time>2016-10-02T10:02:37Z</time>
      </trkpt>
      <trkpt lat="45.9699" lon="4.93616">
        <ele>299</ele>
        <time>2016-10-02T10:02:38Z</time>
      </trkpt>
      <trkpt lat="45.96985" lon="4.93622">
        <ele>299</ele>
        <time>2016-10-02T10:02:39Z</time>
      </trkpt>
      <trkpt lat="45.9698" lon="4.93629">
        <ele>299</ele>
        <time>2016-10-02T10:02:40Z</time>
      </trkpt>
      <trkpt lat="45.96976" lon="4.93635">
        <ele>299</ele>
        <time>2016-10-02T10:02:41Z</time>
      </trkpt>
      <trkpt lat="45.96971" lon="4.93642">
        <ele>299</ele>
        <time>2016-10-02T10:02:42Z</time>
      </trkpt>
      <trkpt lat="45.96967" lon="4.93648">
        <ele>299</ele>
        <time>2016-10-02T10:02:43Z</time>
      </trkpt>
      <trkpt lat="45.96962" lon="4.93654">
        <ele>299</ele>
        <time>2016-10-02T10:02:44Z</time>
      </trkpt>
      <trkpt lat="45.96957" lon="4.9366">
        <ele>299</ele>
        <time>2016-10-02T10:02:45Z</time>
      </trkpt>
      <trkpt lat="45.96953" lon="4.93666">
        <ele>299</ele>
        <time>2016-10-02T10:02:46Z</time>
      </trkpt>
      <trkpt lat="45.96948" lon="4.9367">
        <ele>298</ele>
        <time>2016-10-02T10:02:47Z</time>
      </trkpt>
      <trkpt lat="45.96943" lon="4.93675">
        <ele>298</ele>
        <time>2016-10-02T10:02:48Z</time>
      </trkpt>
      <trkpt lat="45.96938" lon="4.93681">
        <ele>298</ele>
        <time>2016-10-02T10:02:49Z</time>
      </trkpt>
      <trkpt lat="45.96933" lon="4.93686">
        <ele>298</ele>
        <time>2016-10-02T10:02:50Z</time>
      </trkpt>
      <trkpt lat="45.96929" lon="4.93691">
        <ele>298</ele>
        <time>2016-10-02T10:02:51Z</time>
      </trkpt>
      <trkpt lat="45.96924" lon="4.93697">
        <ele>298</ele>
        <time>2016-10-02T10:02:52Z</time>
      </trkpt>
      <trkpt lat="45.9692" lon="4.93702">
        <ele>298</ele>
        <time>2016-10-02T10:02:53Z</time>
      </trkpt>
      <trkpt lat="45.96914" lon="4.93706">
        <ele>297</ele>
        <time>2016-10-02T10:02:54Z</time>
      </trkpt>
      <trkpt lat="45.96909" lon="4.93711">
        <ele>297</ele>
        <time>2016-10-02T10:02:55Z</time>
      </trkpt>
      <trkpt lat="45.96903" lon="4.93715">
        <ele>297</ele>
        <time>2016-10-02T10:02:56Z</time>
      </trkpt>
      <trkpt lat="45.96897" lon="4.93719">
        <ele>297</ele>
        <time>2016-10-02T10:02:57Z</time>
      </trkpt>
      <trkpt lat="45.96891" lon="4.93723">
        <ele>297</ele>
        <time>2016-10-02T10:02:58Z</time>
      </trkpt>
      <trkpt lat="45.96885" lon="4.93727">
        <ele>297</ele>
        <time>2016-10-02T10:02:59Z</time>
      </trkpt>
      <trkpt lat="45.96878" lon="4.9373">
        <ele>297</ele>
        <time>2016-10-02T10:03:00Z</time>
      </trkpt>
      <trkpt lat="45.96872" lon="4.93733">
        <ele>297</ele>
        <time>2016-10-02T10:03:01Z</time>
      </trkpt>
      <trkpt lat="45.96865" lon="4.93735">
        <ele>297</ele>
        <time>2016-10-02T10:03:02Z</time>
      </trkpt>
      <trkpt lat="45.96859" lon="4.93738">
        <ele>297</ele>
        <time>2016-10-02T10:03:03Z</time>
      </trkpt>
      <trkpt lat="45.96853" lon="4.9374">
        <ele>297</ele>
        <time>2016-10-02T10:03:04Z</time>
      </trkpt>
      <trkpt lat="45.96847" lon="4.93743">
        <ele>296</ele>
        <time>2016-10-02T10:03:05Z</time>
      </trkpt>
      <trkpt lat="45.96841" lon="4.93745">
        <ele>296</ele>
        <time>2016-10-02T10:03:06Z</time>
      </trkpt>
      <trkpt lat="45.96835" lon="4.93748">
        <ele>296</ele>
        <time>2016-10-02T10:03:07Z</time>
      </trkpt>
      <trkpt lat="45.96828" lon="4.9375">
        <ele>296</ele>
        <time>2016-10-02T10:03:08Z</time>
      </trkpt>
      <trkpt lat="45.96822" lon="4.93752">
        <ele>296</ele>
        <time>2016-10-02T10:03:09Z</time>
      </trkpt>
      <trkpt lat="45.96816" lon="4.93755">
        <ele>296</ele>
        <time>2016-10-02T10:03:10Z</time>
      </trkpt>
      <trkpt lat="45.9681" lon="4.93757">
        <ele>295</ele>
        <time>2016-10-02T10:03:11Z</time>
      </trkpt>
      <trkpt lat="45.96803" lon="4.93759">
        <ele>295</ele>
        <time>2016-10-02T10:03:12Z</time>
      </trkpt>
      <trkpt lat="45.96797" lon="4.93761">
        <ele>295</ele>
        <time>2016-10-02T10:03:13Z</time>
      </trkpt>
      <trkpt lat="45.96791" lon="4.93763">
        <ele>295</ele>
        <time>2016-10-02T10:03:14Z</time>
      </trkpt>
      <trkpt lat="45.96785" lon="4.93766">
        <ele>295</ele>
        <time>2016-10-02T10:03:15Z</time>
      </trkpt>
      <trkpt lat="45.96779" lon="4.93768">
        <ele>295</ele>
        <time>2016-10-02T10:03:16Z</time>
      </trkpt>
      <trkpt lat="45.96773" lon="4.93771">
        <ele>295</ele>
        <time>2016-10-02T10:03:17Z</time>
      </trkpt>
      <trkpt lat="45.96767" lon="4.93773">
        <ele>295</ele>
        <time>2016-10-02T10:03:18Z</time>
      </trkpt>
      <trkpt lat="45.96761" lon="4.93776">
        <ele>295</ele>
        <time>2016-10-02T10:03:19Z</time>
      </trkpt>
      <trkpt lat="45.96754" lon="4.93777">
        <ele>295</ele>
        <time>2016-10-02T10:03:20Z</time>
      </trkpt>
      <trkpt lat="45.96748" lon="4.93779">
        <ele>295</ele>
        <time>2016-10-02T10:03:21Z</time>
      </trkpt>
      <trkpt lat="45.96742" lon="4.93781">
        <ele>296</ele>
        <time>2016-10-02T10:03:22Z</time>
      </trkpt>
      <trkpt lat="45.96735" lon="4.93783">
        <ele>296</ele>
        <time>2016-10-02T10:03:23Z</time>
      </trkpt>
      <trkpt lat="45.96729" lon="4.93784">
        <ele>296</ele>
        <time>2016-10-02T10:03:24Z</time>
      </trkpt>
      <trkpt lat="45.96722" lon="4.93786">
        <ele>296</ele>
        <time>2016-10-02T10:03:25Z</time>
      </trkpt>
      <trkpt lat="45.96715" lon="4.93788">
        <ele>296</ele>
        <time>2016-10-02T10:03:26Z</time>
      </trkpt>
      <trkpt lat="45.96708" lon="4.93791">
        <ele>296</ele>
        <time>2016-10-02T10:03:27Z</time>
      </trkpt>
      <trkpt lat="45.96702" lon="4.93794">
        <ele>296</ele>
        <time>2016-10-02T10:03:28Z</time>
      </trkpt>
      <trkpt lat="45.96695" lon="4.93797">
        <ele>297</ele>
        <time>2016-10-02T10:03:29Z</time>
      </trkpt>
      <trkpt lat="45.96689" lon="4.93799">
        <ele>297</ele>
        <time>2016-10-02T10:03:30Z</time>
      </trkpt>
      <trkpt lat="45.96682" lon="4.93801">
        <ele>297</ele>
        <time>2016-10-02T10:03:31Z</time>
      </trkpt>
      <trkpt lat="45.96676" lon="4.93803">
        <ele>297</ele>
        <time>2016-10-02T10:03:32Z</time>
      </trkpt>
      <trkpt lat="45.9667" lon="4.93805">
        <ele>297</ele>
        <time>2016-10-02T10:03:33Z</time>
      </trkpt>
      <trkpt lat="45.96664" lon="4.93807">
        <ele>297</ele>
        <time>2016-10-02T10:03:34Z</time>
      </trkpt>
      <trkpt lat="45.96659" lon="4.93811">
        <ele>297</ele>
        <time>2016-10-02T10:03:35Z</time>
      </trkpt>
      <trkpt lat="45.96653" lon="4.93813">
        <ele>297</ele>
        <time>2016-10-02T10:03:36Z</time>
      </trkpt>
      <trkpt lat="45.96646" lon="4.93816">
        <ele>297</ele>
        <time>2016-10-02T10:03:37Z</time>
      </trkpt>
      <trkpt lat="45.9664" lon="4.93818">
        <ele>297</ele>
        <time>2016-10-02T10:03:38Z</time>
      </trkpt>
      <trkpt lat="45.96634" lon="4.93819">
        <ele>297</ele>
        <time>2016-10-02T10:03:39Z</time>
      </trkpt>
      <trkpt lat="45.96628" lon="4.93821">
        <ele>297</ele>
        <time>2016-10-02T10:03:40Z</time>
      </trkpt>
      <trkpt lat="45.96622" lon="4.93823">
        <ele>297</ele>
        <time>2016-10-02T10:03:41Z</time>
      </trkpt>
      <trkpt lat="45.96615" lon="4.93827">
        <ele>297</ele>
        <time>2016-10-02T10:03:42Z</time>
      </trkpt>
      <trkpt lat="45.96608" lon="4.93829">
        <ele>297</ele>
        <time>2016-10-02T10:03:43Z</time>
      </trkpt>
      <trkpt lat="45.96602" lon="4.93831">
        <ele>297</ele>
        <time>2016-10-02T10:03:44Z</time>
      </trkpt>
      <trkpt lat="45.96596" lon="4.93833">
        <ele>296</ele>
        <time>2016-10-02T10:03:45Z</time>
      </trkpt>
      <trkpt lat="45.96591" lon="4.93835">
        <ele>296</ele>
        <time>2016-10-02T10:03:46Z</time>
      </trkpt>
      <trkpt lat="45.96585" lon="4.93837">
        <ele>296</ele>
        <time>2016-10-02T10:03:47Z</time>
      </trkpt>
      <trkpt lat="45.96579" lon="4.93838">
        <ele>296</ele>
        <time>2016-10-02T10:03:48Z</time>
      </trkpt>
      <trkpt lat="45.96573" lon="4.9384">
        <ele>296</ele>
        <time>2016-10-02T10:03:49Z</time>
      </trkpt>
      <trkpt lat="45.96568" lon="4.93842">
        <ele>296</ele>
        <time>2016-10-02T10:03:50Z</time>
      </trkpt>
      <trkpt lat="45.96562" lon="4.93843">
        <ele>296</ele>
        <time>2016-10-02T10:03:51Z</time>
      </trkpt>
      <trkpt lat="45.96556" lon="4.93845">
        <ele>296</ele>
        <time>2016-10-02T10:03:52Z</time>
      </trkpt>
      <trkpt lat="45.96549" lon="4.93848">
        <ele>296</ele>
        <time>2016-10-02T10:03:53Z</time>
      </trkpt>
      <trkpt lat="45.96543" lon="4.9385">
        <ele>296</ele>
        <time>2016-10-02T10:03:54Z</time>
      </trkpt>
      <trkpt lat="45.96536" lon="4.93851">
        <ele>296</ele>
        <time>2016-10-02T10:03:55Z</time>
      </trkpt>
      <trkpt lat="45.9653" lon="4.93853">
        <ele>296</ele>
        <time>2016-10-02T10:03:56Z</time>
      </trkpt>
      <trkpt lat="45.96524" lon="4.93855">
        <ele>296</ele>
        <time>2016-10-02T10:03:57Z</time>
      </trkpt>
      <trkpt lat="45.96519" lon="4.93858">
        <ele>296</ele>
        <time>2016-10-02T10:03:58Z</time>
      </trkpt>
      <trkpt lat="45.96513" lon="4.9386">
        <ele>296</ele>
        <time>2016-10-02T10:03:59Z</time>
      </trkpt>
      <trkpt lat="45.96508" lon="4.93863">
        <ele>296</ele>
        <time>2016-10-02T10:04:00Z</time>
      </trkpt>
      <trkpt lat="45.96502" lon="4.93865">
        <ele>296</ele>
        <time>2016-10-02T10:04:01Z</time>
      </trkpt>
      <trkpt lat="45.96496" lon="4.93867">
        <ele>296</ele>
        <time>2016-10-02T10:04:02Z</time>
      </trkpt>
      <trkpt lat="45.9649" lon="4.9387">
        <ele>296</ele>
        <time>2016-10-02T10:04:03Z</time>
      </trkpt>
      <trkpt lat="45.96484" lon="4.93873">
        <ele>296</ele>
        <time>2016-10-02T10:04:04Z</time>
      </trkpt>
      <trkpt lat="45.96477" lon="4.93876">
        <ele>295</ele>
        <time>2016-10-02T10:04:05Z</time>
      </trkpt>
      <trkpt lat="45.9647" lon="4.93878">
        <ele>295</ele>
        <time>2016-10-02T10:04:06Z</time>
      </trkpt>
      <trkpt lat="45.96463" lon="4.9388">
        <ele>295</ele>
        <time>2016-10-02T10:04:07Z</time>
      </trkpt>
      <trkpt lat="45.96457" lon="4.93882">
        <ele>296</ele>
        <time>2016-10-02T10:04:08Z</time>
      </trkpt>
      <trkpt lat="45.9645" lon="4.93885">
        <ele>296</ele>
        <time>2016-10-02T10:04:09Z</time>
      </trkpt>
      <trkpt lat="45.96444" lon="4.93886">
        <ele>296</ele>
        <time>2016-10-02T10:04:10Z</time>
      </trkpt>
      <trkpt lat="45.96438" lon="4.93888">
        <ele>296</ele>
        <time>2016-10-02T10:04:11Z</time>
      </trkpt>
      <trkpt lat="45.96432" lon="4.9389">
        <ele>296</ele>
        <time>2016-10-02T10:04:12Z</time>
      </trkpt>
      <trkpt lat="45.96425" lon="4.93892">
        <ele>296</ele>
        <time>2016-10-02T10:04:13Z</time>
      </trkpt>
      <trkpt lat="45.96419" lon="4.93895">
        <ele>296</ele>
        <time>2016-10-02T10:04:14Z</time>
      </trkpt>
      <trkpt lat="45.96413" lon="4.93897">
        <ele>295</ele>
        <time>2016-10-02T10:04:15Z</time>
      </trkpt>
      <trkpt lat="45.96407" lon="4.93899">
        <ele>295</ele>
        <time>2016-10-02T10:04:16Z</time>
      </trkpt>
      <trkpt lat="45.96401" lon="4.93902">
        <ele>295</ele>
        <time>2016-10-02T10:04:17Z</time>
      </trkpt>
      <trkpt lat="45.96395" lon="4.93904">
        <ele>295</ele>
        <time>2016-10-02T10:04:18Z</time>
      </trkpt>
      <trkpt lat="45.96389" lon="4.93906">
        <ele>294</ele>
        <time>2016-10-02T10:04:19Z</time>
      </trkpt>
      <trkpt lat="45.96383" lon="4.93908">
        <ele>294</ele>
        <time>2016-10-02T10:04:20Z</time>
      </trkpt>
      <trkpt lat="45.96377" lon="4.9391">
        <ele>294</ele>
        <time>2016-10-02T10:04:21Z</time>
      </trkpt>
      <trkpt lat="45.96371" lon="4.93913">
        <ele>294</ele>
        <time>2016-10-02T10:04:22Z</time>
      </trkpt>
      <trkpt lat="45.96364" lon="4.93915">
        <ele>294</ele>
        <time>2016-10-02T10:04:23Z</time>
      </trkpt>
      <trkpt lat="45.96357" lon="4.93917">
        <ele>294</ele>
        <time>2016-10-02T10:04:24Z</time>
      </trkpt>
      <trkpt lat="45.9635" lon="4.93918">
        <ele>293</ele>
        <time>2016-10-02T10:04:25Z</time>
      </trkpt>
      <trkpt lat="45.96344" lon="4.9392">
        <ele>293</ele>
        <time>2016-10-02T10:04:26Z</time>
      </trkpt>
      <trkpt lat="45.96337" lon="4.93922">
        <ele>293</ele>
        <time>2016-10-02T10:04:27Z</time>
      </trkpt>
      <trkpt lat="45.9633" lon="4.93925">
        <ele>293</ele>
        <time>2016-10-02T10:04:28Z</time>
      </trkpt>
      <trkpt lat="45.96324" lon="4.93927">
        <ele>292</ele>
        <time>2016-10-02T10:04:29Z</time>
      </trkpt>
      <trkpt lat="45.96317" lon="4.93929">
        <ele>292</ele>
        <time>2016-10-02T10:04:30Z</time>
      </trkpt>
      <trkpt lat="45.96311" lon="4.93931">
        <ele>292</ele>
        <time>2016-10-02T10:04:31Z</time>
      </trkpt>
      <trkpt lat="45.96305" lon="4.93933">
        <ele>292</ele>
        <time>2016-10-02T10:04:32Z</time>
      </trkpt>
      <trkpt lat="45.96299" lon="4.93935">
        <ele>292</ele>
        <time>2016-10-02T10:04:33Z</time>
      </trkpt>
      <trkpt lat="45.96292" lon="4.93937">
        <ele>292</ele>
        <time>2016-10-02T10:04:34Z</time>
      </trkpt>
      <trkpt lat="45.96286" lon="4.93939">
        <ele>292</ele>
        <time>2016-10-02T10:04:35Z</time>
      </trkpt>
      <trkpt lat="45.9628" lon="4.93942">
        <ele>291</ele>
        <time>2016-10-02T10:04:36Z</time>
      </trkpt>
      <trkpt lat="45.96274" lon="4.93945">
        <ele>291</ele>
        <time>2016-10-02T10:04:37Z</time>
      </trkpt>
      <trkpt lat="45.96268" lon="4.93948">
        <ele>291</ele>
        <time>2016-10-02T10:04:38Z</time>
      </trkpt>
      <trkpt lat="45.96261" lon="4.93951">
        <ele>291</ele>
        <time>2016-10-02T10:04:39Z</time>
      </trkpt>
      <trkpt lat="45.96256" lon="4.93953">
        <ele>291</ele>
        <time>2016-10-02T10:04:40Z</time>
      </trkpt>
      <trkpt lat="45.9625" lon="4.93957">
        <ele>291</ele>
        <time>2016-10-02T10:04:41Z</time>
      </trkpt>
      <trkpt lat="45.96245" lon="4.93961">
        <ele>290</ele>
        <time>2016-10-02T10:04:42Z</time>
      </trkpt>
      <trkpt lat="45.9624" lon="4.93966">
        <ele>290</ele>
        <time>2016-10-02T10:04:43Z</time>
      </trkpt>
      <trkpt lat="45.96234" lon="4.93969">
        <ele>290</ele>
        <time>2016-10-02T10:04:44Z</time>
      </trkpt>
      <trkpt lat="45.96228" lon="4.93973">
        <ele>290</ele>
        <time>2016-10-02T10:04:45Z</time>
      </trkpt>
      <trkpt lat="45.96222" lon="4.93978">
        <ele>290</ele>
        <time>2016-10-02T10:04:46Z</time>
      </trkpt>
      <trkpt lat="45.96216" lon="4.93983">
        <ele>290</ele>
        <time>2016-10-02T10:04:47Z</time>
      </trkpt>
      <trkpt lat="45.96211" lon="4.93988">
        <ele>290</ele>
        <time>2016-10-02T10:04:48Z</time>
      </trkpt>
      <trkpt lat="45.96205" lon="4.93994">
        <ele>290</ele>
        <time>2016-10-02T10:04:49Z</time>
      </trkpt>
      <trkpt lat="45.96199" lon="4.93998">
        <ele>290</ele>
        <time>2016-10-02T10:04:50Z</time>
      </trkpt>
      <trkpt lat="45.96193" lon="4.94003">
        <ele>290</ele>
        <time>2016-10-02T10:04:51Z</time>
      </trkpt>
      <trkpt lat="45.96188" lon="4.94008">
        <ele>290</ele>
        <time>2016-10-02T10:04:52Z</time>
      </trkpt>
      <trkpt lat="45.96183" lon="4.94012">
        <ele>290</ele>
        <time>2016-10-02T10:04:53Z</time>
      </trkpt>
      <trkpt lat="45.96178" lon="4.94016">
        <ele>290</ele>
        <time>2016-10-02T10:04:54Z</time>
      </trkpt>
      <trkpt lat="45.96173" lon="4.94021">
        <ele>290</ele>
        <time>2016-10-02T10:04:55Z</time>
      </trkpt>
      <trkpt lat="45.96168" lon="4.94025">
        <ele>290</ele>
        <time>2016-10-02T10:04:56Z</time>
      </trkpt>
      <trkpt lat="45.96163" lon="4.94029">
        <ele>290</ele>
        <time>2016-10-02T10:04:57Z</time>
      </trkpt>
      <trkpt lat="45.96158" lon="4.94033">
        <ele>290</ele>
        <time>2016-10-02T10:04:58Z</time>
      </trkpt>
      <trkpt lat="45.96153" lon="4.94037">
        <ele>290</ele>
        <time>2016-10-02T10:04:59Z</time>
      </trkpt>
      <trkpt lat="45.96148" lon="4.94041">
        <ele>290</ele>
        <time>2016-10-02T10:05:00Z</time>
      </trkpt>
      <trkpt lat="45.96142" lon="4.94046">
        <ele>290</ele>
        <time>2016-10-02T10:05:01Z</time>
      </trkpt>
      <trkpt lat="45.96136" lon="4.9405">
        <ele>290</ele>
        <time>2016-10-02T10:05:02Z</time>
      </trkpt>
      <trkpt lat="45.9613" lon="4.94055">
        <ele>290</ele>
        <time>2016-10-02T10:05:03Z</time>
      </trkpt>
      <trkpt lat="45.96125" lon="4.9406">
        <ele>290</ele>
        <time>2016-10-02T10:05:04Z</time>
      </trkpt>
      <trkpt lat="45.96119" lon="4.94065">
        <ele>290</ele>
        <time>2016-10-02T10:05:05Z</time>
      </trkpt>
      <trkpt lat="45.96114" lon="4.94069">
        <ele>290</ele>
        <time>2016-10-02T10:05:06Z</time>
      </trkpt>
      <trkpt lat="45.96109" lon="4.94074">
        <ele>291</ele>
        <time>2016-10-02T10:05:07Z</time>
      </trkpt>
      <trkpt lat="45.96104" lon="4.94078">
        <ele>291</ele>
        <time>2016-10-02T10:05:08Z</time>
      </trkpt>
      <trkpt lat="45.96099" lon="4.94083">
        <ele>291</ele>
        <time>2016-10-02T10:05:09Z</time>
      </trkpt>
      <trkpt lat="45.96094" lon="4.94087">
        <ele>291</ele>
        <time>2016-10-02T10:05:10Z</time>
      </trkpt>
      <trkpt lat="45.96089" lon="4.9409">
        <ele>291</ele>
        <time>2016-10-02T10:05:11Z</time>
      </trkpt>
      <trkpt lat="45.96084" lon="4.94094">
        <ele>291</ele>
        <time>2016-10-02T10:05:12Z</time>
      </trkpt>
      <trkpt lat="45.96079" lon="4.94098">
        <ele>291</ele>
        <time>2016-10-02T10:05:13Z</time>
      </trkpt>
      <trkpt lat="45.96074" lon="4.94102">
        <ele>291</ele>
        <time>2016-10-02T10:05:14Z</time>
      </trkpt>
      <trkpt lat="45.96069" lon="4.94105">
        <ele>291</ele>
        <time>2016-10-02T10:05:15Z</time>
      </trkpt>
      <trkpt lat="45.96064" lon="4.94109">
        <ele>291</ele>
        <time>2016-10-02T10:05:16Z</time>
      </trkpt>
      <trkpt lat="45.9606" lon="4.94113">
        <ele>291</ele>
        <time>2016-10-02T10:05:17Z</time>
      </trkpt>
      <trkpt lat="45.96055" lon="4.94116">
        <ele>291</ele>
        <time>2016-10-02T10:05:18Z</time>
      </trkpt>
      <trkpt lat="45.96049" lon="4.94118">
        <ele>291</ele>
        <time>2016-10-02T10:05:19Z</time>
      </trkpt>
      <trkpt lat="45.96044" lon="4.94121">
        <ele>291</ele>
        <time>2016-10-02T10:05:20Z</time>
      </trkpt>
      <trkpt lat="45.96039" lon="4.94122">
        <ele>291</ele>
        <time>2016-10-02T10:05:21Z</time>
      </trkpt>
      <trkpt lat="45.96033" lon="4.94124">
        <ele>291</ele>
        <time>2016-10-02T10:05:22Z</time>
      </trkpt>
      <trkpt lat="45.96027" lon="4.94124">
        <ele>291</ele>
        <time>2016-10-02T10:05:23Z</time>
      </trkpt>
      <trkpt lat="45.96021" lon="4.94124">
        <ele>291</ele>
        <time>2016-10-02T10:05:24Z</time>
      </trkpt>
      <trkpt lat="45.96015" lon="4.94122">
        <ele>291</ele>
        <time>2016-10-02T10:05:25Z</time>
      </trkpt>
      <trkpt lat="45.96009" lon="4.94119">
        <ele>291</ele>
        <time>2016-10-02T10:05:26Z</time>
      </trkpt>
      <trkpt lat="45.96003" lon="4.94117">
        <ele>291</ele>
        <time>2016-10-02T10:05:27Z</time>
      </trkpt>
      <trkpt lat="45.95997" lon="4.94116">
        <ele>291</ele>
        <time>2016-10-02T10:05:28Z</time>
      </trkpt>
      <trkpt lat="45.95991" lon="4.94115">
        <ele>291</ele>
        <time>2016-10-02T10:05:29Z</time>
      </trkpt>
      <trkpt lat="45.95985" lon="4.94113">
        <ele>292</ele>
        <time>2016-10-02T10:05:30Z</time>
      </trkpt>
      <trkpt lat="45.95979" lon="4.94111">
        <ele>292</ele>
        <time>2016-10-02T10:05:31Z</time>
      </trkpt>
      <trkpt lat="45.95973" lon="4.9411">
        <ele>292</ele>
        <time>2016-10-02T10:05:32Z</time>
      </trkpt>
      <trkpt lat="45.95968" lon="4.94107">
        <ele>292</ele>
        <time>2016-10-02T10:05:33Z</time>
      </trkpt>
      <trkpt lat="45.95963" lon="4.94105">
        <ele>292</ele>
        <time>2016-10-02T10:05:34Z</time>
      </trkpt>
      <trkpt lat="45.95958" lon="4.94104">
        <ele>292</ele>
        <time>2016-10-02T10:05:35Z</time>
      </trkpt>
      <trkpt lat="45.95953" lon="4.94103">
        <ele>292</ele>
        <time>2016-10-02T10:05:36Z</time>
      </trkpt>
      <trkpt lat="45.95948" lon="4.94103">
        <ele>292</ele>
        <time>2016-10-02T10:05:37Z</time>
      </trkpt>
      <trkpt lat="45.95943" lon="4.94103">
        <ele>292</ele>
        <time>2016-10-02T10:05:38Z</time>
      </trkpt>
      <trkpt lat="45.95938" lon="4.94102">
        <ele>292</ele>
        <time>2016-10-02T10:05:39Z</time>
      </trkpt>
      <trkpt lat="45.95933" lon="4.941">
        <ele>292</ele>
        <time>2016-10-02T10:05:40Z</time>
      </trkpt>
      <trkpt lat="45.95927" lon="4.94098">
        <ele>292</ele>
        <time>2016-10-02T10:05:41Z</time>
      </trkpt>
      <trkpt lat="45.95921" lon="4.94097">
        <ele>292</ele>
        <time>2016-10-02T10:05:42Z</time>
      </trkpt>
      <trkpt lat="45.95916" lon="4.94095">
        <ele>293</ele>
        <time>2016-10-02T10:05:43Z</time>
      </trkpt>
      <trkpt lat="45.9591" lon="4.94094">
        <ele>293</ele>
        <time>2016-10-02T10:05:44Z</time>
      </trkpt>
      <trkpt lat="45.95904" lon="4.94093">
        <ele>293</ele>
        <time>2016-10-02T10:05:45Z</time>
      </trkpt>
      <trkpt lat="45.95898" lon="4.94092">
        <ele>293</ele>
        <time>2016-10-02T10:05:46Z</time>
      </trkpt>
      <trkpt lat="45.95893" lon="4.94091">
        <ele>293</ele>
        <time>2016-10-02T10:05:47Z</time>
      </trkpt>
      <trkpt lat="45.95888" lon="4.9409">
        <ele>293</ele>
        <time>2016-10-02T10:05:48Z</time>
      </trkpt>
      <trkpt lat="45.95884" lon="4.94088">
        <ele>293</ele>
        <time>2016-10-02T10:05:49Z</time>
      </trkpt>
      <trkpt lat="45.95879" lon="4.94087">
        <ele>293</ele>
        <time>2016-10-02T10:05:50Z</time>
      </trkpt>
      <trkpt lat="45.95873" lon="4.94086">
        <ele>293</ele>
        <time>2016-10-02T10:05:51Z</time>
      </trkpt>
      <trkpt lat="45.95868" lon="4.94085">
        <ele>293</ele>
        <time>2016-10-02T10:05:52Z</time>
      </trkpt>
      <trkpt lat="45.95862" lon="4.94084">
        <ele>293</ele>
        <time>2016-10-02T10:05:53Z</time>
      </trkpt>
      <trkpt lat="45.95857" lon="4.94083">
        <ele>293</ele>
        <time>2016-10-02T10:05:54Z</time>
      </trkpt>
      <trkpt lat="45.95852" lon="4.94082">
        <ele>293</ele>
        <time>2016-10-02T10:05:55Z</time>
      </trkpt>
      <trkpt lat="45.95847" lon="4.94081">
        <ele>293</ele>
        <time>2016-10-02T10:05:56Z</time>
      </trkpt>
      <trkpt lat="45.95842" lon="4.9408">
        <ele>294</ele>
        <time>2016-10-02T10:05:57Z</time>
      </trkpt>
      <trkpt lat="45.95833" lon="4.94078">
        <ele>294</ele>
        <time>2016-10-02T10:05:59Z</time>
      </trkpt>
      <trkpt lat="45.95829" lon="4.94077">
        <ele>294</ele>
        <time>2016-10-02T10:06:00Z</time>
      </trkpt>
      <trkpt lat="45.95821" lon="4.94074">
        <ele>294</ele>
        <time>2016-10-02T10:06:02Z</time>
      </trkpt>
      <trkpt lat="45.95818" lon="4.94073">
        <ele>294</ele>
        <time>2016-10-02T10:06:03Z</time>
      </trkpt>
      <trkpt lat="45.9581" lon="4.94072">
        <ele>294</ele>
        <time>2016-10-02T10:06:05Z</time>
      </trkpt>
      <trkpt lat="45.95805" lon="4.94072">
        <ele>294</ele>
        <time>2016-10-02T10:06:06Z</time>
      </trkpt>
      <trkpt lat="45.95797" lon="4.94069">
        <ele>294</ele>
        <time>2016-10-02T10:06:08Z</time>
      </trkpt>
      <trkpt lat="45.95793" lon="4.94066">
        <ele>294</ele>
        <time>2016-10-02T10:06:09Z</time>
      </trkpt>
      <trkpt lat="45.95788" lon="4.94064">
        <ele>294</ele>
        <time>2016-10-02T10:06:10Z</time>
      </trkpt>
      <trkpt lat="45.95783" lon="4.94063">
        <ele>294</ele>
        <time>2016-10-02T10:06:11Z</time>
      </trkpt>
      <trkpt lat="45.95778" lon="4.94063">
        <ele>294</ele>
        <time>2016-10-02T10:06:12Z</time>
      </trkpt>
      <trkpt lat="45.95773" lon="4.94062">
        <ele>294</ele>
        <time>2016-10-02T10:06:13Z</time>
      </trkpt>
      <trkpt lat="45.95769" lon="4.94061">
        <ele>294</ele>
        <time>2016-10-02T10:06:14Z</time>
      </trkpt>
      <trkpt lat="45.95764" lon="4.94061">
        <ele>294</ele>
        <time>2016-10-02T10:06:15Z</time>
      </trkpt>
      <trkpt lat="45.9576" lon="4.9406">
        <ele>294</ele>
        <time>2016-10-02T10:06:16Z</time>
      </trkpt>
      <trkpt lat="45.95755" lon="4.94058">
        <ele>294</ele>
        <time>2016-10-02T10:06:17Z</time>
      </trkpt>
      <trkpt lat="45.95747" lon="4.94056">
        <ele>295</ele>
        <time>2016-10-02T10:06:19Z</time>
      </trkpt>
      <trkpt lat="45.95743" lon="4.94056">
        <ele>295</ele>
        <time>2016-10-02T10:06:20Z</time>
      </trkpt>
      <trkpt lat="45.95739" lon="4.94055">
        <ele>295</ele>
        <time>2016-10-02T10:06:21Z</time>
      </trkpt>
      <trkpt lat="45.95734" lon="4.94055">
        <ele>295</ele>
        <time>2016-10-02T10:06:22Z</time>
      </trkpt>
      <trkpt lat="45.95729" lon="4.94052">
        <ele>295</ele>
        <time>2016-10-02T10:06:23Z</time>
      </trkpt>
      <trkpt lat="45.95725" lon="4.94051">
        <ele>295</ele>
        <time>2016-10-02T10:06:24Z</time>
      </trkpt>
      <trkpt lat="45.9572" lon="4.94049">
        <ele>295</ele>
        <time>2016-10-02T10:06:25Z</time>
      </trkpt>
      <trkpt lat="45.95715" lon="4.94048">
        <ele>295</ele>
        <time>2016-10-02T10:06:26Z</time>
      </trkpt>
      <trkpt lat="45.9571" lon="4.94047">
        <ele>295</ele>
        <time>2016-10-02T10:06:27Z</time>
      </trkpt>
      <trkpt lat="45.95705" lon="4.94045">
        <ele>295</ele>
        <time>2016-10-02T10:06:28Z</time>
      </trkpt>
      <trkpt lat="45.957" lon="4.94044">
        <ele>295</ele>
        <time>2016-10-02T10:06:29Z</time>
      </trkpt>
      <trkpt lat="45.95695" lon="4.94043">
        <ele>295</ele>
        <time>2016-10-02T10:06:30Z</time>
      </trkpt>
      <trkpt lat="45.95686" lon="4.94042">
        <ele>295</ele>
        <time>2016-10-02T10:06:32Z</time>
      </trkpt>
      <trkpt lat="45.95682" lon="4.94041">
        <ele>295</ele>
        <time>2016-10-02T10:06:33Z</time>
      </trkpt>
      <trkpt lat="45.95674" lon="4.94038">
        <ele>295</ele>
        <time>2016-10-02T10:06:35Z</time>
      </trkpt>
      <trkpt lat="45.9567" lon="4.94034">
        <ele>295</ele>
        <time>2016-10-02T10:06:36Z</time>
      </trkpt>
      <trkpt lat="45.95668" lon="4.94022">
        <ele>295</ele>
        <time>2016-10-02T10:06:38Z</time>
      </trkpt>
      <trkpt lat="45.95669" lon="4.94016">
        <ele>295</ele>
        <time>2016-10-02T10:06:39Z</time>
      </trkpt>
      <trkpt lat="45.95669" lon="4.94004">
        <ele>296</ele>
        <time>2016-10-02T10:06:41Z</time>
      </trkpt>
      <trkpt lat="45.95667" lon="4.93997">
        <ele>296</ele>
        <time>2016-10-02T10:06:42Z</time>
      </trkpt>
      <trkpt lat="45.95664" lon="4.93986">
        <ele>295</ele>
        <time>2016-10-02T10:06:44Z</time>
      </trkpt>
      <trkpt lat="45.95662" lon="4.93982">
        <ele>295</ele>
        <time>2016-10-02T10:06:45Z</time>
      </trkpt>
      <trkpt lat="45.95657" lon="4.93975">
        <ele>294</ele>
        <time>2016-10-02T10:06:47Z</time>
      </trkpt>
      <trkpt lat="45.95653" lon="4.93972">
        <ele>294</ele>
        <time>2016-10-02T10:06:48Z</time>
      </trkpt>
      <trkpt lat="45.95649" lon="4.93961">
        <ele>294</ele>
        <time>2016-10-02T10:06:50Z</time>
      </trkpt>
      <trkpt lat="45.95649" lon="4.93953">
        <ele>294</ele>
        <time>2016-10-02T10:06:51Z</time>
      </trkpt>
      <trkpt lat="45.95649" lon="4.93944">
        <ele>294</ele>
        <time>2016-10-02T10:06:52Z</time>
      </trkpt>
      <trkpt lat="45.95651" lon="4.93935">
        <ele>294</ele>
        <time>2016-10-02T10:06:53Z</time>
      </trkpt>
      <trkpt lat="45.95653" lon="4.93927">
        <ele>294</ele>
        <time>2016-10-02T10:06:54Z</time>
      </trkpt>
      <trkpt lat="45.95654" lon="4.93916">
        <ele>293</ele>
        <time>2016-10-02T10:06:55Z</time>
      </trkpt>
      <trkpt lat="45.95656" lon="4.93906">
        <ele>292</ele>
        <time>2016-10-02T10:06:56Z</time>
      </trkpt>
      <trkpt lat="45.95657" lon="4.93897">
        <ele>292</ele>
        <time>2016-10-02T10:06:57Z</time>
      </trkpt>
      <trkpt lat="45.95658" lon="4.93888">
        <ele>291</ele>
        <time>2016-10-02T10:06:58Z</time>
      </trkpt>
      <trkpt lat="45.95659" lon="4.93879">
        <ele>291</ele>
        <time>2016-10-02T10:06:59Z</time>
      </trkpt>
      <trkpt lat="45.95658" lon="4.93872">
        <ele>291</ele>
        <time>2016-10-02T10:07:00Z</time>
      </trkpt>
      <trkpt lat="45.95653" lon="4.93866">
        <ele>290</ele>
        <time>2016-10-02T10:07:01Z</time>
      </trkpt>
      <trkpt lat="45.95648" lon="4.93861">
        <ele>290</ele>
        <time>2016-10-02T10:07:02Z</time>
      </trkpt>
      <trkpt lat="45.95641" lon="4.93858">
        <ele>290</ele>
        <time>2016-10-02T10:07:03Z</time>
      </trkpt>
      <trkpt lat="45.95635" lon="4.93853">
        <ele>290</ele>
        <time>2016-10-02T10:07:04Z</time>
      </trkpt>
      <trkpt lat="45.95629" lon="4.9385">
        <ele>290</ele>
        <time>2016-10-02T10:07:05Z</time>
      </trkpt>
      <trkpt lat="45.95623" lon="4.93845">
        <ele>290</ele>
        <time>2016-10-02T10:07:06Z</time>
      </trkpt>
      <trkpt lat="45.95618" lon="4.93842">
        <ele>290</ele>
        <time>2016-10-02T10:07:07Z</time>
      </trkpt>
      <trkpt lat="45.95613" lon="4.93838">
        <ele>290</ele>
        <time>2016-10-02T10:07:08Z</time>
      </trkpt>
      <trkpt lat="45.95607" lon="4.93834">
        <ele>290</ele>
        <time>2016-10-02T10:07:09Z</time>
      </trkpt>
      <trkpt lat="45.95601" lon="4.9383">
        <ele>289</ele>
        <time>2016-10-02T10:07:10Z</time>
      </trkpt>
      <trkpt lat="45.95595" lon="4.93825">
        <ele>289</ele>
        <time>2016-10-02T10:07:11Z</time>
      </trkpt>
      <trkpt lat="45.95591" lon="4.93821">
        <ele>289</ele>
        <time>2016-10-02T10:07:12Z</time>
      </trkpt>
      <trkpt lat="45.95587" lon="4.93815">
        <ele>289</ele>
        <time>2016-10-02T10:07:13Z</time>
      </trkpt>
      <trkpt lat="45.95583" lon="4.93811">
        <ele>290</ele>
        <time>2016-10-02T10:07:14Z</time>
      </trkpt>
      <trkpt lat="45.95579" lon="4.93807">
        <ele>290</ele>
        <time>2016-10-02T10:07:15Z</time>
      </trkpt>
      <trkpt lat="45.95576" lon="4.93803">
        <ele>290</ele>
        <time>2016-10-02T10:07:16Z</time>
      </trkpt>
      <trkpt lat="45.95572" lon="4.93798">
        <ele>290</ele>
        <time>2016-10-02T10:07:17Z</time>
      </trkpt>
      <trkpt lat="45.95569" lon="4.93793">
        <ele>290</ele>
        <time>2016-10-02T10:07:18Z</time>
      </trkpt>
      <trkpt lat="45.95567" lon="4.93786">
        <ele>290</ele>
        <time>2016-10-02T10:07:19Z</time>
      </trkpt>
      <trkpt lat="45.95565" lon="4.93779">
        <ele>290</ele>
        <time>2016-10-02T10:07:20Z</time>
      </trkpt>
      <trkpt lat="45.95565" lon="4.93772">
        <ele>290</ele>
        <time>2016-10-02T10:07:21Z</time>
      </trkpt>
      <trkpt lat="45.95564" lon="4.93764">
        <ele>290</ele>
        <time>2016-10-02T10:07:22Z</time>
      </trkpt>
      <trkpt lat="45.95564" lon="4.93756">
        <ele>290</ele>
        <time>2016-10-02T10:07:23Z</time>
      </trkpt>
      <trkpt lat="45.95564" lon="4.93747">
        <ele>290</ele>
        <time>2016-10-02T10:07:24Z</time>
      </trkpt>
      <trkpt lat="45.95565" lon="4.93739">
        <ele>290</ele>
        <time>2016-10-02T10:07:25Z</time>
      </trkpt>
      <trkpt lat="45.95565" lon="4.93731">
        <ele>290</ele>
        <time>2016-10-02T10:07:26Z</time>
      </trkpt>
      <trkpt lat="45.95565" lon="4.93723">
        <ele>290</ele>
        <time>2016-10-02T10:07:27Z</time>
      </trkpt>
      <trkpt lat="45.95566" lon="4.93716">
        <ele>290</ele>
        <time>2016-10-02T10:07:28Z</time>
      </trkpt>
      <trkpt lat="45.95566" lon="4.93709">
        <ele>290</ele>
        <time>2016-10-02T10:07:29Z</time>
      </trkpt>
      <trkpt lat="45.95566" lon="4.93701">
        <ele>290</ele>
        <time>2016-10-02T10:07:30Z</time>
      </trkpt>
      <trkpt lat="45.95567" lon="4.93694">
        <ele>290</ele>
        <time>2016-10-02T10:07:31Z</time>
      </trkpt>
      <trkpt lat="45.95568" lon="4.93686">
        <ele>289</ele>
        <time>2016-10-02T10:07:32Z</time>
      </trkpt>
      <trkpt lat="45.95569" lon="4.93679">
        <ele>289</ele>
        <time>2016-10-02T10:07:33Z</time>
      </trkpt>
      <trkpt lat="45.9557" lon="4.93671">
        <ele>289</ele>
        <time>2016-10-02T10:07:34Z</time>
      </trkpt>
      <trkpt lat="45.9557" lon="4.93663">
        <ele>289</ele>
        <time>2016-10-02T10:07:35Z</time>
      </trkpt>
      <trkpt lat="45.9557" lon="4.93656">
        <ele>289</ele>
        <time>2016-10-02T10:07:36Z</time>
      </trkpt>
      <trkpt lat="45.95572" lon="4.93649">
        <ele>289</ele>
        <time>2016-10-02T10:07:37Z</time>
      </trkpt>
      <trkpt lat="45.95573" lon="4.93642">
        <ele>289</ele>
        <time>2016-10-02T10:07:38Z</time>
      </trkpt>
      <trkpt lat="45.95573" lon="4.93633">
        <ele>289</ele>
        <time>2016-10-02T10:07:39Z</time>
      </trkpt>
      <trkpt lat="45.95575" lon="4.93626">
        <ele>289</ele>
        <time>2016-10-02T10:07:40Z</time>
      </trkpt>
      <trkpt lat="45.95576" lon="4.93618">
        <ele>289</ele>
        <time>2016-10-02T10:07:41Z</time>
      </trkpt>
      <trkpt lat="45.95577" lon="4.9361">
        <ele>289</ele>
        <time>2016-10-02T10:07:42Z</time>
      </trkpt>
      <trkpt lat="45.95578" lon="4.93602">
        <ele>289</ele>
        <time>2016-10-02T10:07:43Z</time>
      </trkpt>
      <trkpt lat="45.95579" lon="4.93595">
        <ele>289</ele>
        <time>2016-10-02T10:07:44Z</time>
      </trkpt>
      <trkpt lat="45.9558" lon="4.93588">
        <ele>289</ele>
        <time>2016-10-02T10:07:45Z</time>
      </trkpt>
      <trkpt lat="45.95582" lon="4.9358">
        <ele>289</ele>
        <time>2016-10-02T10:07:46Z</time>
      </trkpt>
      <trkpt lat="45.95582" lon="4.93572">
        <ele>289</ele>
        <time>2016-10-02T10:07:47Z</time>
      </trkpt>
      <trkpt lat="45.95581" lon="4.93564">
        <ele>289</ele>
        <time>2016-10-02T10:07:48Z</time>
      </trkpt>
      <trkpt lat="45.95582" lon="4.93555">
        <ele>289</ele>
        <time>2016-10-02T10:07:49Z</time>
      </trkpt>
      <trkpt lat="45.95581" lon="4.93546">
        <ele>289</ele>
        <time>2016-10-02T10:07:50Z</time>
      </trkpt>
      <trkpt lat="45.95581" lon="4.93536">
        <ele>290</ele>
        <time>2016-10-02T10:07:51Z</time>
      </trkpt>
      <trkpt lat="45.95581" lon="4.93525">
        <ele>290</ele>
        <time>2016-10-02T10:07:52Z</time>
      </trkpt>
      <trkpt lat="45.95579" lon="4.93515">
        <ele>290</ele>
        <time>2016-10-02T10:07:53Z</time>
      </trkpt>
      <trkpt lat="45.95576" lon="4.93505">
        <ele>290</ele>
        <time>2016-10-02T10:07:54Z</time>
      </trkpt>
      <trkpt lat="45.95574" lon="4.93496">
        <ele>290</ele>
        <time>2016-10-02T10:07:55Z</time>
      </trkpt>
      <trkpt lat="45.95572" lon="4.93488">
        <ele>290</ele>
        <time>2016-10-02T10:07:56Z</time>
      </trkpt>
      <trkpt lat="45.95569" lon="4.93481">
        <ele>290</ele>
        <time>2016-10-02T10:07:57Z</time>
      </trkpt>
      <trkpt lat="45.95567" lon="4.93475">
        <ele>289</ele>
        <time>2016-10-02T10:07:58Z</time>
      </trkpt>
      <trkpt lat="45.95564" lon="4.93469">
        <ele>289</ele>
        <time>2016-10-02T10:07:59Z</time>
      </trkpt>
      <trkpt lat="45.95562" lon="4.93463">
        <ele>289</ele>
        <time>2016-10-02T10:08:00Z</time>
      </trkpt>
      <trkpt lat="45.95561" lon="4.93456">
        <ele>289</ele>
        <time>2016-10-02T10:08:01Z</time>
      </trkpt>
      <trkpt lat="45.95559" lon="4.9345">
        <ele>289</ele>
        <time>2016-10-02T10:08:02Z</time>
      </trkpt>
      <trkpt lat="45.95557" lon="4.93443">
        <ele>289</ele>
        <time>2016-10-02T10:08:03Z</time>
      </trkpt>
      <trkpt lat="45.95554" lon="4.93436">
        <ele>289</ele>
        <time>2016-10-02T10:08:04Z</time>
      </trkpt>
      <trkpt lat="45.95552" lon="4.9343">
        <ele>289</ele>
        <time>2016-10-02T10:08:05Z</time>
      </trkpt>
      <trkpt lat="45.95549" lon="4.93423">
        <ele>289</ele>
        <time>2016-10-02T10:08:06Z</time>
      </trkpt>
      <trkpt lat="45.95546" lon="4.93417">
        <ele>289</ele>
        <time>2016-10-02T10:08:07Z</time>
      </trkpt>
      <trkpt lat="45.95543" lon="4.93411">
        <ele>289</ele>
        <time>2016-10-02T10:08:08Z</time>
      </trkpt>
      <trkpt lat="45.95539" lon="4.93404">
        <ele>289</ele>
        <time>2016-10-02T10:08:09Z</time>
      </trkpt>
      <trkpt lat="45.95535" lon="4.93397">
        <ele>289</ele>
        <time>2016-10-02T10:08:10Z</time>
      </trkpt>
      <trkpt lat="45.95533" lon="4.9339">
        <ele>289</ele>
        <time>2016-10-02T10:08:11Z</time>
      </trkpt>
      <trkpt lat="45.95529" lon="4.93383">
        <ele>289</ele>
        <time>2016-10-02T10:08:12Z</time>
      </trkpt>
      <trkpt lat="45.95527" lon="4.93376">
        <ele>289</ele>
        <time>2016-10-02T10:08:13Z</time>
      </trkpt>
      <trkpt lat="45.95523" lon="4.93368">
        <ele>289</ele>
        <time>2016-10-02T10:08:14Z</time>
      </trkpt>
      <trkpt lat="45.9552" lon="4.93363">
        <ele>289</ele>
        <time>2016-10-02T10:08:15Z</time>
      </trkpt>
      <trkpt lat="45.95518" lon="4.93356">
        <ele>289</ele>
        <time>2016-10-02T10:08:16Z</time>
      </trkpt>
      <trkpt lat="45.95515" lon="4.93349">
        <ele>289</ele>
        <time>2016-10-02T10:08:17Z</time>
      </trkpt>
      <trkpt lat="45.95513" lon="4.93343">
        <ele>289</ele>
        <time>2016-10-02T10:08:18Z</time>
      </trkpt>
      <trkpt lat="45.95511" lon="4.93336">
        <ele>289</ele>
        <time>2016-10-02T10:08:19Z</time>
      </trkpt>
      <trkpt lat="45.95508" lon="4.93329">
        <ele>289</ele>
        <time>2016-10-02T10:08:20Z</time>
      </trkpt>
      <trkpt lat="45.95506" lon="4.93323">
        <ele>289</ele>
        <time>2016-10-02T10:08:21Z</time>
      </trkpt>
      <trkpt lat="45.95503" lon="4.93317">
        <ele>289</ele>
        <time>2016-10-02T10:08:22Z</time>
      </trkpt>
      <trkpt lat="45.95499" lon="4.93311">
        <ele>290</ele>
        <time>2016-10-02T10:08:23Z</time>
      </trkpt>
      <trkpt lat="45.95496" lon="4.93304">
        <ele>290</ele>
        <time>2016-10-02T10:08:24Z</time>
      </trkpt>
      <trkpt lat="45.95493" lon="4.93297">
        <ele>290</ele>
        <time>2016-10-02T10:08:25Z</time>
      </trkpt>
      <trkpt lat="45.9549" lon="4.93289">
        <ele>290</ele>
        <time>2016-10-02T10:08:26Z</time>
      </trkpt>
      <trkpt lat="45.95487" lon="4.93282">
        <ele>290</ele>
        <time>2016-10-02T10:08:27Z</time>
      </trkpt>
      <trkpt lat="45.95484" lon="4.93275">
        <ele>290</ele>
        <time>2016-10-02T10:08:28Z</time>
      </trkpt>
      <trkpt lat="45.95481" lon="4.93269">
        <ele>290</ele>
        <time>2016-10-02T10:08:29Z</time>
      </trkpt>
      <trkpt lat="45.95479" lon="4.93262">
        <ele>290</ele>
        <time>2016-10-02T10:08:30Z</time>
      </trkpt>
      <trkpt lat="45.95476" lon="4.93255">
        <ele>290</ele>
        <time>2016-10-02T10:08:31Z</time>
      </trkpt>
      <trkpt lat="45.95473" lon="4.93248">
        <ele>290</ele>
        <time>2016-10-02T10:08:32Z</time>
      </trkpt>
      <trkpt lat="45.9547" lon="4.93241">
        <ele>290</ele>
        <time>2016-10-02T10:08:33Z</time>
      </trkpt>
      <trkpt lat="45.95467" lon="4.93235">
        <ele>290</ele>
        <time>2016-10-02T10:08:34Z</time>
      </trkpt>
      <trkpt lat="45.95464" lon="4.9323">
        <ele>290</ele>
        <time>2016-10-02T10:08:35Z</time>
      </trkpt>
      <trkpt lat="45.95462" lon="4.93224">
        <ele>290</ele>
        <time>2016-10-02T10:08:36Z</time>
      </trkpt>
      <trkpt lat="45.9546" lon="4.93218">
        <ele>290</ele>
        <time>2016-10-02T10:08:37Z</time>
      </trkpt>
      <trkpt lat="45.95458" lon="4.93207">
        <ele>291</ele>
        <time>2016-10-02T10:08:39Z</time>
      </trkpt>
      <trkpt lat="45.95456" lon="4.93201">
        <ele>291</ele>
        <time>2016-10-02T10:08:40Z</time>
      </trkpt>
      <trkpt lat="45.95456" lon="4.93195">
        <ele>291</ele>
        <time>2016-10-02T10:08:41Z</time>
      </trkpt>
      <trkpt lat="45.95457" lon="4.93188">
        <ele>291</ele>
        <time>2016-10-02T10:08:42Z</time>
      </trkpt>
      <trkpt lat="45.95457" lon="4.9318">
        <ele>291</ele>
        <time>2016-10-02T10:08:43Z</time>
      </trkpt>
      <trkpt lat="45.95458" lon="4.93175">
        <ele>291</ele>
        <time>2016-10-02T10:08:44Z</time>
      </trkpt>
      <trkpt lat="45.95464" lon="4.93167">
        <ele>290</ele>
        <time>2016-10-02T10:08:46Z</time>
      </trkpt>
      <trkpt lat="45.95468" lon="4.93164">
        <ele>290</ele>
        <time>2016-10-02T10:08:47Z</time>
      </trkpt>
      <trkpt lat="45.95472" lon="4.93161">
        <ele>290</ele>
        <time>2016-10-02T10:08:48Z</time>
      </trkpt>
      <trkpt lat="45.95476" lon="4.93157">
        <ele>290</ele>
        <time>2016-10-02T10:08:49Z</time>
      </trkpt>
      <trkpt lat="45.95483" lon="4.9315">
        <ele>290</ele>
        <time>2016-10-02T10:08:51Z</time>
      </trkpt>
      <trkpt lat="45.95487" lon="4.93148">
        <ele>290</ele>
        <time>2016-10-02T10:08:52Z</time>
      </trkpt>
      <trkpt lat="45.95495" lon="4.93143">
        <ele>290</ele>
        <time>2016-10-02T10:08:54Z</time>
      </trkpt>
      <trkpt lat="45.955" lon="4.93138">
        <ele>290</ele>
        <time>2016-10-02T10:08:55Z</time>
      </trkpt>
      <trkpt lat="45.95507" lon="4.93134">
        <ele>289</ele>
        <time>2016-10-02T10:08:57Z</time>
      </trkpt>
      <trkpt lat="45.95511" lon="4.93131">
        <ele>289</ele>
        <time>2016-10-02T10:08:58Z</time>
      </trkpt>
      <trkpt lat="45.95518" lon="4.93124">
        <ele>289</ele>
        <time>2016-10-02T10:09:00Z</time>
      </trkpt>
      <trkpt lat="45.95522" lon="4.93119">
        <ele>289</ele>
        <time>2016-10-02T10:09:01Z</time>
      </trkpt>
      <trkpt lat="45.95526" lon="4.93114">
        <ele>289</ele>
        <time>2016-10-02T10:09:02Z</time>
      </trkpt>
      <trkpt lat="45.9553" lon="4.93108">
        <ele>289</ele>
        <time>2016-10-02T10:09:03Z</time>
      </trkpt>
      <trkpt lat="45.95533" lon="4.93102">
        <ele>289</ele>
        <time>2016-10-02T10:09:04Z</time>
      </trkpt>
      <trkpt lat="45.95536" lon="4.93095">
        <ele>289</ele>
        <time>2016-10-02T10:09:05Z</time>
      </trkpt>
      <trkpt lat="45.9554" lon="4.93087">
        <ele>290</ele>
        <time>2016-10-02T10:09:06Z</time>
      </trkpt>
      <trkpt lat="45.95543" lon="4.9308">
        <ele>290</ele>
        <time>2016-10-02T10:09:07Z</time>
      </trkpt>
      <trkpt lat="45.95545" lon="4.93073">
        <ele>290</ele>
        <time>2016-10-02T10:09:08Z</time>
      </trkpt>
      <trkpt lat="45.95547" lon="4.93065">
        <ele>290</ele>
        <time>2016-10-02T10:09:09Z</time>
      </trkpt>
      <trkpt lat="45.95548" lon="4.93055">
        <ele>290</ele>
        <time>2016-10-02T10:09:10Z</time>
      </trkpt>
      <trkpt lat="45.9555" lon="4.93045">
        <ele>291</ele>
        <time>2016-10-02T10:09:11Z</time>
      </trkpt>
      <trkpt lat="45.95551" lon="4.93037">
        <ele>291</ele>
        <time>2016-10-02T10:09:12Z</time>
      </trkpt>
      <trkpt lat="45.95552" lon="4.9303">
        <ele>291</ele>
        <time>2016-10-02T10:09:13Z</time>
      </trkpt>
      <trkpt lat="45.95555" lon="4.93023">
        <ele>291</ele>
        <time>2016-10-02T10:09:14Z</time>
      </trkpt>
      <trkpt lat="45.95555" lon="4.93016">
        <ele>291</ele>
        <time>2016-10-02T10:09:15Z</time>
      </trkpt>
      <trkpt lat="45.95558" lon="4.9301">
        <ele>291</ele>
        <time>2016-10-02T10:09:16Z</time>
      </trkpt>
      <trkpt lat="45.95559" lon="4.93003">
        <ele>291</ele>
        <time>2016-10-02T10:09:17Z</time>
      </trkpt>
      <trkpt lat="45.95561" lon="4.92995">
        <ele>292</ele>
        <time>2016-10-02T10:09:18Z</time>
      </trkpt>
      <trkpt lat="45.95562" lon="4.92988">
        <ele>292</ele>
        <time>2016-10-02T10:09:19Z</time>
      </trkpt>
      <trkpt lat="45.95562" lon="4.92981">
        <ele>292</ele>
        <time>2016-10-02T10:09:20Z</time>
      </trkpt>
      <trkpt lat="45.95563" lon="4.92973">
        <ele>292</ele>
        <time>2016-10-02T10:09:21Z</time>
      </trkpt>
      <trkpt lat="45.95565" lon="4.92966">
        <ele>292</ele>
        <time>2016-10-02T10:09:22Z</time>
      </trkpt>
      <trkpt lat="45.95566" lon="4.92959">
        <ele>292</ele>
        <time>2016-10-02T10:09:23Z</time>
      </trkpt>
      <trkpt lat="45.95567" lon="4.92952">
        <ele>292</ele>
        <time>2016-10-02T10:09:24Z</time>
      </trkpt>
      <trkpt lat="45.95568" lon="4.92944">
        <ele>292</ele>
        <time>2016-10-02T10:09:25Z</time>
      </trkpt>
      <trkpt lat="45.95568" lon="4.92938">
        <ele>293</ele>
        <time>2016-10-02T10:09:26Z</time>
      </trkpt>
      <trkpt lat="45.95569" lon="4.92931">
        <ele>293</ele>
        <time>2016-10-02T10:09:27Z</time>
      </trkpt>
      <trkpt lat="45.95571" lon="4.92924">
        <ele>293</ele>
        <time>2016-10-02T10:09:28Z</time>
      </trkpt>
      <trkpt lat="45.95571" lon="4.92917">
        <ele>293</ele>
        <time>2016-10-02T10:09:29Z</time>
      </trkpt>
      <trkpt lat="45.95572" lon="4.9291">
        <ele>294</ele>
        <time>2016-10-02T10:09:30Z</time>
      </trkpt>
      <trkpt lat="45.95573" lon="4.92904">
        <ele>294</ele>
        <time>2016-10-02T10:09:31Z</time>
      </trkpt>
      <trkpt lat="45.95574" lon="4.92897">
        <ele>294</ele>
        <time>2016-10-02T10:09:32Z</time>
      </trkpt>
      <trkpt lat="45.95574" lon="4.9289">
        <ele>294</ele>
        <time>2016-10-02T10:09:33Z</time>
      </trkpt>
      <trkpt lat="45.95576" lon="4.92878">
        <ele>294</ele>
        <time>2016-10-02T10:09:35Z</time>
      </trkpt>
      <trkpt lat="45.95577" lon="4.92871">
        <ele>294</ele>
        <time>2016-10-02T10:09:36Z</time>
      </trkpt>
      <trkpt lat="45.95578" lon="4.92864">
        <ele>294</ele>
        <time>2016-10-02T10:09:37Z</time>
      </trkpt>
      <trkpt lat="45.95579" lon="4.92857">
        <ele>294</ele>
        <time>2016-10-02T10:09:38Z</time>
      </trkpt>
      <trkpt lat="45.9558" lon="4.9285">
        <ele>294</ele>
        <time>2016-10-02T10:09:39Z</time>
      </trkpt>
      <trkpt lat="45.95582" lon="4.92843">
        <ele>294</ele>
        <time>2016-10-02T10:09:40Z</time>
      </trkpt>
      <trkpt lat="45.95583" lon="4.9283">
        <ele>295</ele>
        <time>2016-10-02T10:09:42Z</time>
      </trkpt>
      <trkpt lat="45.95584" lon="4.92824">
        <ele>295</ele>
        <time>2016-10-02T10:09:43Z</time>
      </trkpt>
      <trkpt lat="45.95585" lon="4.92817">
        <ele>295</ele>
        <time>2016-10-02T10:09:44Z</time>
      </trkpt>
      <trkpt lat="45.95586" lon="4.9281">
        <ele>295</ele>
        <time>2016-10-02T10:09:45Z</time>
      </trkpt>
      <trkpt lat="45.95587" lon="4.92804">
        <ele>295</ele>
        <time>2016-10-02T10:09:46Z</time>
      </trkpt>
      <trkpt lat="45.95588" lon="4.92797">
        <ele>295</ele>
        <time>2016-10-02T10:09:47Z</time>
      </trkpt>
      <trkpt lat="45.9559" lon="4.92789">
        <ele>295</ele>
        <time>2016-10-02T10:09:48Z</time>
      </trkpt>
      <trkpt lat="45.9559" lon="4.92781">
        <ele>295</ele>
        <time>2016-10-02T10:09:49Z</time>
      </trkpt>
      <trkpt lat="45.95592" lon="4.92773">
        <ele>295</ele>
        <time>2016-10-02T10:09:50Z</time>
      </trkpt>
      <trkpt lat="45.95593" lon="4.92764">
        <ele>295</ele>
        <time>2016-10-02T10:09:51Z</time>
      </trkpt>
      <trkpt lat="45.95595" lon="4.92756">
        <ele>295</ele>
        <time>2016-10-02T10:09:52Z</time>
      </trkpt>
      <trkpt lat="45.95596" lon="4.92748">
        <ele>295</ele>
        <time>2016-10-02T10:09:53Z</time>
      </trkpt>
      <trkpt lat="45.95597" lon="4.92739">
        <ele>295</ele>
        <time>2016-10-02T10:09:54Z</time>
      </trkpt>
      <trkpt lat="45.95598" lon="4.92731">
        <ele>295</ele>
        <time>2016-10-02T10:09:55Z</time>
      </trkpt>
      <trkpt lat="45.95599" lon="4.92723">
        <ele>295</ele>
        <time>2016-10-02T10:09:56Z</time>
      </trkpt>
      <trkpt lat="45.95601" lon="4.92716">
        <ele>295</ele>
        <time>2016-10-02T10:09:57Z</time>
      </trkpt>
      <trkpt lat="45.95602" lon="4.92708">
        <ele>295</ele>
        <time>2016-10-02T10:09:58Z</time>
      </trkpt>
      <trkpt lat="45.95603" lon="4.92699">
        <ele>295</ele>
        <time>2016-10-02T10:09:59Z</time>
      </trkpt>
      <trkpt lat="45.95604" lon="4.92691">
        <ele>295</ele>
        <time>2016-10-02T10:10:00Z</time>
      </trkpt>
      <trkpt lat="45.95606" lon="4.92683">
        <ele>295</ele>
        <time>2016-10-02T10:10:01Z</time>
      </trkpt>
      <trkpt lat="45.95608" lon="4.92676">
        <ele>295</ele>
        <time>2016-10-02T10:10:02Z</time>
      </trkpt>
      <trkpt lat="45.9561" lon="4.92669">
        <ele>295</ele>
        <time>2016-10-02T10:10:03Z</time>
      </trkpt>
      <trkpt lat="45.95612" lon="4.92662">
        <ele>294</ele>
        <time>2016-10-02T10:10:04Z</time>
      </trkpt>
      <trkpt lat="45.95614" lon="4.92655">
        <ele>294</ele>
        <time>2016-10-02T10:10:05Z</time>
      </trkpt>
      <trkpt lat="45.95615" lon="4.92647">
        <ele>294</ele>
        <time>2016-10-02T10:10:06Z</time>
      </trkpt>
      <trkpt lat="45.95617" lon="4.92639">
        <ele>294</ele>
        <time>2016-10-02T10:10:07Z</time>
      </trkpt>
      <trkpt lat="45.95618" lon="4.92632">
        <ele>294</ele>
        <time>2016-10-02T10:10:08Z</time>
      </trkpt>
      <trkpt lat="45.9562" lon="4.92624">
        <ele>294</ele>
        <time>2016-10-02T10:10:09Z</time>
      </trkpt>
      <trkpt lat="45.95621" lon="4.92617">
        <ele>294</ele>
        <time>2016-10-02T10:10:10Z</time>
      </trkpt>
      <trkpt lat="45.95622" lon="4.9261">
        <ele>294</ele>
        <time>2016-10-02T10:10:11Z</time>
      </trkpt>
      <trkpt lat="45.95623" lon="4.92602">
        <ele>294</ele>
        <time>2016-10-02T10:10:12Z</time>
      </trkpt>
      <trkpt lat="45.95625" lon="4.92594">
        <ele>294</ele>
        <time>2016-10-02T10:10:13Z</time>
      </trkpt>
      <trkpt lat="45.95627" lon="4.92587">
        <ele>294</ele>
        <time>2016-10-02T10:10:14Z</time>
      </trkpt>
      <trkpt lat="45.95628" lon="4.92579">
        <ele>294</ele>
        <time>2016-10-02T10:10:15Z</time>
      </trkpt>
      <trkpt lat="45.95626" lon="4.92571">
        <ele>294</ele>
        <time>2016-10-02T10:10:16Z</time>
      </trkpt>
      <trkpt lat="45.95628" lon="4.92563">
        <ele>294</ele>
        <time>2016-10-02T10:10:17Z</time>
      </trkpt>
      <trkpt lat="45.95629" lon="4.92555">
        <ele>294</ele>
        <time>2016-10-02T10:10:18Z</time>
      </trkpt>
      <trkpt lat="45.9563" lon="4.92547">
        <ele>294</ele>
        <time>2016-10-02T10:10:19Z</time>
      </trkpt>
      <trkpt lat="45.95632" lon="4.9254">
        <ele>294</ele>
        <time>2016-10-02T10:10:20Z</time>
      </trkpt>
      <trkpt lat="45.95633" lon="4.92533">
        <ele>294</ele>
        <time>2016-10-02T10:10:21Z</time>
      </trkpt>
      <trkpt lat="45.95634" lon="4.92525">
        <ele>294</ele>
        <time>2016-10-02T10:10:22Z</time>
      </trkpt>
      <trkpt lat="45.95635" lon="4.92518">
        <ele>294</ele>
        <time>2016-10-02T10:10:23Z</time>
      </trkpt>
      <trkpt lat="45.95636" lon="4.92511">
        <ele>294</ele>
        <time>2016-10-02T10:10:24Z</time>
      </trkpt>
      <trkpt lat="45.95638" lon="4.92504">
        <ele>294</ele>
        <time>2016-10-02T10:10:25Z</time>
      </trkpt>
      <trkpt lat="45.9564" lon="4.92496">
        <ele>293</ele>
        <time>2016-10-02T10:10:26Z</time>
      </trkpt>
      <trkpt lat="45.95643" lon="4.92489">
        <ele>293</ele>
        <time>2016-10-02T10:10:27Z</time>
      </trkpt>
      <trkpt lat="45.95644" lon="4.92481">
        <ele>293</ele>
        <time>2016-10-02T10:10:28Z</time>
      </trkpt>
      <trkpt lat="45.95645" lon="4.92473">
        <ele>293</ele>
        <time>2016-10-02T10:10:29Z</time>
      </trkpt>
      <trkpt lat="45.95645" lon="4.92465">
        <ele>293</ele>
        <time>2016-10-02T10:10:30Z</time>
      </trkpt>
      <trkpt lat="45.95647" lon="4.92458">
        <ele>293</ele>
        <time>2016-10-02T10:10:31Z</time>
      </trkpt>
      <trkpt lat="45.95648" lon="4.92451">
        <ele>293</ele>
        <time>2016-10-02T10:10:32Z</time>
      </trkpt>
      <trkpt lat="45.95649" lon="4.92444">
        <ele>293</ele>
        <time>2016-10-02T10:10:33Z</time>
      </trkpt>
      <trkpt lat="45.9565" lon="4.92437">
        <ele>293</ele>
        <time>2016-10-02T10:10:34Z</time>
      </trkpt>
      <trkpt lat="45.95652" lon="4.92431">
        <ele>293</ele>
        <time>2016-10-02T10:10:35Z</time>
      </trkpt>
      <trkpt lat="45.95653" lon="4.92424">
        <ele>293</ele>
        <time>2016-10-02T10:10:36Z</time>
      </trkpt>
      <trkpt lat="45.95653" lon="4.92416">
        <ele>293</ele>
        <time>2016-10-02T10:10:37Z</time>
      </trkpt>
      <trkpt lat="45.95654" lon="4.92409">
        <ele>293</ele>
        <time>2016-10-02T10:10:38Z</time>
      </trkpt>
      <trkpt lat="45.95654" lon="4.92402">
        <ele>293</ele>
        <time>2016-10-02T10:10:39Z</time>
      </trkpt>
      <trkpt lat="45.95656" lon="4.92396">
        <ele>293</ele>
        <time>2016-10-02T10:10:40Z</time>
      </trkpt>
      <trkpt lat="45.95656" lon="4.92389">
        <ele>293</ele>
        <time>2016-10-02T10:10:41Z</time>
      </trkpt>
      <trkpt lat="45.95658" lon="4.92381">
        <ele>293</ele>
        <time>2016-10-02T10:10:42Z</time>
      </trkpt>
      <trkpt lat="45.95659" lon="4.92375">
        <ele>293</ele>
        <time>2016-10-02T10:10:43Z</time>
      </trkpt>
      <trkpt lat="45.95659" lon="4.92368">
        <ele>293</ele>
        <time>2016-10-02T10:10:44Z</time>
      </trkpt>
      <trkpt lat="45.9566" lon="4.9236">
        <ele>293</ele>
        <time>2016-10-02T10:10:45Z</time>
      </trkpt>
      <trkpt lat="45.9566" lon="4.92353">
        <ele>293</ele>
        <time>2016-10-02T10:10:46Z</time>
      </trkpt>
      <trkpt lat="45.95659" lon="4.92345">
        <ele>293</ele>
        <time>2016-10-02T10:10:47Z</time>
      </trkpt>
      <trkpt lat="45.95659" lon="4.92338">
        <ele>293</ele>
        <time>2016-10-02T10:10:48Z</time>
      </trkpt>
      <trkpt lat="45.95658" lon="4.9233">
        <ele>293</ele>
        <time>2016-10-02T10:10:49Z</time>
      </trkpt>
      <trkpt lat="45.95658" lon="4.92323">
        <ele>293</ele>
        <time>2016-10-02T10:10:50Z</time>
      </trkpt>
      <trkpt lat="45.95658" lon="4.92316">
        <ele>293</ele>
        <time>2016-10-02T10:10:51Z</time>
      </trkpt>
      <trkpt lat="45.95659" lon="4.92309">
        <ele>293</ele>
        <time>2016-10-02T10:10:52Z</time>
      </trkpt>
      <trkpt lat="45.95659" lon="4.92301">
        <ele>293</ele>
        <time>2016-10-02T10:10:53Z</time>
      </trkpt>
      <trkpt lat="45.95659" lon="4.92294">
        <ele>293</ele>
        <time>2016-10-02T10:10:54Z</time>
      </trkpt>
      <trkpt lat="45.95659" lon="4.92287">
        <ele>293</ele>
        <time>2016-10-02T10:10:55Z</time>
      </trkpt>
      <trkpt lat="45.9566" lon="4.9228">
        <ele>293</ele>
        <time>2016-10-02T10:10:56Z</time>
      </trkpt>
      <trkpt lat="45.95659" lon="4.92273">
        <ele>294</ele>
        <time>2016-10-02T10:10:57Z</time>
      </trkpt>
      <trkpt lat="45.9566" lon="4.92266">
        <ele>294</ele>
        <time>2016-10-02T10:10:58Z</time>
      </trkpt>
      <trkpt lat="45.95661" lon="4.92259">
        <ele>294</ele>
        <time>2016-10-02T10:10:59Z</time>
      </trkpt>
      <trkpt lat="45.95661" lon="4.92252">
        <ele>294</ele>
        <time>2016-10-02T10:11:00Z</time>
      </trkpt>
      <trkpt lat="45.95661" lon="4.92244">
        <ele>294</ele>
        <time>2016-10-02T10:11:01Z</time>
      </trkpt>
      <trkpt lat="45.95661" lon="4.92236">
        <ele>294</ele>
        <time>2016-10-02T10:11:02Z</time>
      </trkpt>
      <trkpt lat="45.95662" lon="4.92228">
        <ele>294</ele>
        <time>2016-10-02T10:11:03Z</time>
      </trkpt>
      <trkpt lat="45.95662" lon="4.9222">
        <ele>294</ele>
        <time>2016-10-02T10:11:04Z</time>
      </trkpt>
      <trkpt lat="45.95663" lon="4.92212">
        <ele>294</ele>
        <time>2016-10-02T10:11:05Z</time>
      </trkpt>
      <trkpt lat="45.95663" lon="4.92204">
        <ele>294</ele>
        <time>2016-10-02T10:11:06Z</time>
      </trkpt>
      <trkpt lat="45.95663" lon="4.92196">
        <ele>295</ele>
        <time>2016-10-02T10:11:07Z</time>
      </trkpt>
      <trkpt lat="45.95664" lon="4.92189">
        <ele>295</ele>
        <time>2016-10-02T10:11:08Z</time>
      </trkpt>
      <trkpt lat="45.95665" lon="4.92181">
        <ele>296</ele>
        <time>2016-10-02T10:11:09Z</time>
      </trkpt>
      <trkpt lat="45.95665" lon="4.92174">
        <ele>296</ele>
        <time>2016-10-02T10:11:10Z</time>
      </trkpt>
      <trkpt lat="45.95665" lon="4.92167">
        <ele>297</ele>
        <time>2016-10-02T10:11:11Z</time>
      </trkpt>
      <trkpt lat="45.95665" lon="4.9216">
        <ele>296</ele>
        <time>2016-10-02T10:11:12Z</time>
      </trkpt>
      <trkpt lat="45.95665" lon="4.92154">
        <ele>296</ele>
        <time>2016-10-02T10:11:13Z</time>
      </trkpt>
      <trkpt lat="45.95664" lon="4.92143">
        <ele>296</ele>
        <time>2016-10-02T10:11:15Z</time>
      </trkpt>
      <trkpt lat="45.95663" lon="4.92137">
        <ele>296</ele>
        <time>2016-10-02T10:11:16Z</time>
      </trkpt>
      <trkpt lat="45.95665" lon="4.92128">
        <ele>296</ele>
        <time>2016-10-02T10:11:18Z</time>
      </trkpt>
      <trkpt lat="45.95666" lon="4.92122">
        <ele>296</ele>
        <time>2016-10-02T10:11:19Z</time>
      </trkpt>
      <trkpt lat="45.95666" lon="4.92116">
        <ele>296</ele>
        <time>2016-10-02T10:11:20Z</time>
      </trkpt>
      <trkpt lat="45.95666" lon="4.92108">
        <ele>297</ele>
        <time>2016-10-02T10:11:21Z</time>
      </trkpt>
      <trkpt lat="45.95668" lon="4.92102">
        <ele>300</ele>
        <time>2016-10-02T10:11:22Z</time>
      </trkpt>
      <trkpt lat="45.95669" lon="4.92095">
        <ele>299</ele>
        <time>2016-10-02T10:11:23Z</time>
      </trkpt>
      <trkpt lat="45.9567" lon="4.92085">
        <ele>299</ele>
        <time>2016-10-02T10:11:25Z</time>
      </trkpt>
      <trkpt lat="45.95671" lon="4.92079">
        <ele>299</ele>
        <time>2016-10-02T10:11:26Z</time>
      </trkpt>
      <trkpt lat="45.95672" lon="4.92067">
        <ele>300</ele>
        <time>2016-10-02T10:11:28Z</time>
      </trkpt>
      <trkpt lat="45.95672" lon="4.9206">
        <ele>300</ele>
        <time>2016-10-02T10:11:29Z</time>
      </trkpt>
      <trkpt lat="45.95672" lon="4.92054">
        <ele>300</ele>
        <time>2016-10-02T10:11:30Z</time>
      </trkpt>
      <trkpt lat="45.95674" lon="4.92046">
        <ele>300</ele>
        <time>2016-10-02T10:11:31Z</time>
      </trkpt>
      <trkpt lat="45.95677" lon="4.92039">
        <ele>300</ele>
        <time>2016-10-02T10:11:32Z</time>
      </trkpt>
      <trkpt lat="45.95679" lon="4.92033">
        <ele>300</ele>
        <time>2016-10-02T10:11:33Z</time>
      </trkpt>
      <trkpt lat="45.95682" lon="4.92027">
        <ele>300</ele>
        <time>2016-10-02T10:11:34Z</time>
      </trkpt>
      <trkpt lat="45.95685" lon="4.92021">
        <ele>300</ele>
        <time>2016-10-02T10:11:35Z</time>
      </trkpt>
      <trkpt lat="45.95688" lon="4.92016">
        <ele>300</ele>
        <time>2016-10-02T10:11:36Z</time>
      </trkpt>
      <trkpt lat="45.9569" lon="4.9201">
        <ele>300</ele>
        <time>2016-10-02T10:11:37Z</time>
      </trkpt>
      <trkpt lat="45.95692" lon="4.92002">
        <ele>300</ele>
        <time>2016-10-02T10:11:38Z</time>
      </trkpt>
      <trkpt lat="45.95696" lon="4.91997">
        <ele>299</ele>
        <time>2016-10-02T10:11:39Z</time>
      </trkpt>
      <trkpt lat="45.95698" lon="4.91991">
        <ele>299</ele>
        <time>2016-10-02T10:11:40Z</time>
      </trkpt>
      <trkpt lat="45.957" lon="4.91985">
        <ele>300</ele>
        <time>2016-10-02T10:11:41Z</time>
      </trkpt>
      <trkpt lat="45.95703" lon="4.91979">
        <ele>300</ele>
        <time>2016-10-02T10:11:42Z</time>
      </trkpt>
      <trkpt lat="45.95706" lon="4.91972">
        <ele>300</ele>
        <time>2016-10-02T10:11:43Z</time>
      </trkpt>
      <trkpt lat="45.95709" lon="4.91967">
        <ele>300</ele>
        <time>2016-10-02T10:11:44Z</time>
      </trkpt>
      <trkpt lat="45.95712" lon="4.9196">
        <ele>300</ele>
        <time>2016-10-02T10:11:45Z</time>
      </trkpt>
      <trkpt lat="45.95715" lon="4.91955">
        <ele>300</ele>
        <time>2016-10-02T10:11:46Z</time>
      </trkpt>
      <trkpt lat="45.95719" lon="4.91948">
        <ele>300</ele>
        <time>2016-10-02T10:11:47Z</time>
      </trkpt>
      <trkpt lat="45.95723" lon="4.91942">
        <ele>300</ele>
        <time>2016-10-02T10:11:48Z</time>
      </trkpt>
      <trkpt lat="45.95727" lon="4.91935">
        <ele>300</ele>
        <time>2016-10-02T10:11:49Z</time>
      </trkpt>
      <trkpt lat="45.9573" lon="4.9193">
        <ele>300</ele>
        <time>2016-10-02T10:11:50Z</time>
      </trkpt>
      <trkpt lat="45.95733" lon="4.91923">
        <ele>300</ele>
        <time>2016-10-02T10:11:51Z</time>
      </trkpt>
      <trkpt lat="45.95736" lon="4.91917">
        <ele>300</ele>
        <time>2016-10-02T10:11:52Z</time>
      </trkpt>
      <trkpt lat="45.9574" lon="4.91911">
        <ele>299</ele>
        <time>2016-10-02T10:11:53Z</time>
      </trkpt>
      <trkpt lat="45.95743" lon="4.91905">
        <ele>299</ele>
        <time>2016-10-02T10:11:54Z</time>
      </trkpt>
      <trkpt lat="45.95747" lon="4.91898">
        <ele>299</ele>
        <time>2016-10-02T10:11:55Z</time>
      </trkpt>
      <trkpt lat="45.95751" lon="4.9189">
        <ele>301</ele>
        <time>2016-10-02T10:11:56Z</time>
      </trkpt>
      <trkpt lat="45.95754" lon="4.91883">
        <ele>300</ele>
        <time>2016-10-02T10:11:57Z</time>
      </trkpt>
      <trkpt lat="45.95759" lon="4.91873">
        <ele>300</ele>
        <time>2016-10-02T10:11:58Z</time>
      </trkpt>
      <trkpt lat="45.95763" lon="4.91865">
        <ele>300</ele>
        <time>2016-10-02T10:11:59Z</time>
      </trkpt>
      <trkpt lat="45.95768" lon="4.91857">
        <ele>300</ele>
        <time>2016-10-02T10:12:00Z</time>
      </trkpt>
      <trkpt lat="45.95771" lon="4.91849">
        <ele>300</ele>
        <time>2016-10-02T10:12:01Z</time>
      </trkpt>
      <trkpt lat="45.95774" lon="4.91843">
        <ele>300</ele>
        <time>2016-10-02T10:12:02Z</time>
      </trkpt>
      <trkpt lat="45.95778" lon="4.91837">
        <ele>300</ele>
        <time>2016-10-02T10:12:03Z</time>
      </trkpt>
      <trkpt lat="45.9578" lon="4.91831">
        <ele>300</ele>
        <time>2016-10-02T10:12:04Z</time>
      </trkpt>
      <trkpt lat="45.95783" lon="4.91825">
        <ele>300</ele>
        <time>2016-10-02T10:12:05Z</time>
      </trkpt>
      <trkpt lat="45.95786" lon="4.9182">
        <ele>300</ele>
        <time>2016-10-02T10:12:06Z</time>
      </trkpt>
      <trkpt lat="45.95789" lon="4.91814">
        <ele>300</ele>
        <time>2016-10-02T10:12:07Z</time>
      </trkpt>
      <trkpt lat="45.95793" lon="4.9181">
        <ele>300</ele>
        <time>2016-10-02T10:12:08Z</time>
      </trkpt>
      <trkpt lat="45.95796" lon="4.91804">
        <ele>300</ele>
        <time>2016-10-02T10:12:09Z</time>
      </trkpt>
      <trkpt lat="45.95799" lon="4.91799">
        <ele>300</ele>
        <time>2016-10-02T10:12:10Z</time>
      </trkpt>
      <trkpt lat="45.95801" lon="4.91794">
        <ele>301</ele>
        <time>2016-10-02T10:12:11Z</time>
      </trkpt>
      <trkpt lat="45.95805" lon="4.91784">
        <ele>301</ele>
        <time>2016-10-02T10:12:13Z</time>
      </trkpt>
      <trkpt lat="45.95808" lon="4.91779">
        <ele>301</ele>
        <time>2016-10-02T10:12:14Z</time>
      </trkpt>
      <trkpt lat="45.95812" lon="4.91769">
        <ele>301</ele>
        <time>2016-10-02T10:12:16Z</time>
      </trkpt>
      <trkpt lat="45.95815" lon="4.91764">
        <ele>301</ele>
        <time>2016-10-02T10:12:17Z</time>
      </trkpt>
      <trkpt lat="45.9582" lon="4.91754">
        <ele>302</ele>
        <time>2016-10-02T10:12:19Z</time>
      </trkpt>
      <trkpt lat="45.95825" lon="4.91746">
        <ele>302</ele>
        <time>2016-10-02T10:12:20Z</time>
      </trkpt>
      <trkpt lat="45.95832" lon="4.91739">
        <ele>302</ele>
        <time>2016-10-02T10:12:22Z</time>
      </trkpt>
      <trkpt lat="45.95835" lon="4.91737">
        <ele>303</ele>
        <time>2016-10-02T10:12:23Z</time>
      </trkpt>
      <trkpt lat="45.9584" lon="4.9173">
        <ele>303</ele>
        <time>2016-10-02T10:12:25Z</time>
      </trkpt>
      <trkpt lat="45.95841" lon="4.91724">
        <ele>303</ele>
        <time>2016-10-02T10:12:26Z</time>
      </trkpt>
      <trkpt lat="45.95842" lon="4.91718">
        <ele>302</ele>
        <time>2016-10-02T10:12:27Z</time>
      </trkpt>
      <trkpt lat="45.95843" lon="4.91711">
        <ele>302</ele>
        <time>2016-10-02T10:12:28Z</time>
      </trkpt>
      <trkpt lat="45.95844" lon="4.91702">
        <ele>302</ele>
        <time>2016-10-02T10:12:29Z</time>
      </trkpt>
      <trkpt lat="45.95845" lon="4.91694">
        <ele>302</ele>
        <time>2016-10-02T10:12:30Z</time>
      </trkpt>
      <trkpt lat="45.95846" lon="4.91685">
        <ele>302</ele>
        <time>2016-10-02T10:12:31Z</time>
      </trkpt>
      <trkpt lat="45.95846" lon="4.91677">
        <ele>302</ele>
        <time>2016-10-02T10:12:32Z</time>
      </trkpt>
      <trkpt lat="45.95847" lon="4.91668">
        <ele>302</ele>
        <time>2016-10-02T10:12:33Z</time>
      </trkpt>
      <trkpt lat="45.95849" lon="4.9166">
        <ele>301</ele>
        <time>2016-10-02T10:12:34Z</time>
      </trkpt>
      <trkpt lat="45.9585" lon="4.91652">
        <ele>301</ele>
        <time>2016-10-02T10:12:35Z</time>
      </trkpt>
      <trkpt lat="45.9585" lon="4.91645">
        <ele>301</ele>
        <time>2016-10-02T10:12:36Z</time>
      </trkpt>
      <trkpt lat="45.95851" lon="4.91638">
        <ele>301</ele>
        <time>2016-10-02T10:12:37Z</time>
      </trkpt>
      <trkpt lat="45.95851" lon="4.9163">
        <ele>301</ele>
        <time>2016-10-02T10:12:38Z</time>
      </trkpt>
      <trkpt lat="45.95852" lon="4.91622">
        <ele>301</ele>
        <time>2016-10-02T10:12:39Z</time>
      </trkpt>
      <trkpt lat="45.95852" lon="4.91613">
        <ele>301</ele>
        <time>2016-10-02T10:12:40Z</time>
      </trkpt>
      <trkpt lat="45.95853" lon="4.91604">
        <ele>301</ele>
        <time>2016-10-02T10:12:41Z</time>
      </trkpt>
      <trkpt lat="45.95854" lon="4.91595">
        <ele>301</ele>
        <time>2016-10-02T10:12:42Z</time>
      </trkpt>
      <trkpt lat="45.95854" lon="4.91586">
        <ele>301</ele>
        <time>2016-10-02T10:12:43Z</time>
      </trkpt>
      <trkpt lat="45.95854" lon="4.91579">
        <ele>300</ele>
        <time>2016-10-02T10:12:44Z</time>
      </trkpt>
      <trkpt lat="45.95853" lon="4.91569">
        <ele>300</ele>
        <time>2016-10-02T10:12:45Z</time>
      </trkpt>
      <trkpt lat="45.95853" lon="4.91559">
        <ele>300</ele>
        <time>2016-10-02T10:12:46Z</time>
      </trkpt>
      <trkpt lat="45.95854" lon="4.91549">
        <ele>300</ele>
        <time>2016-10-02T10:12:47Z</time>
      </trkpt>
      <trkpt lat="45.95854" lon="4.91541">
        <ele>300</ele>
        <time>2016-10-02T10:12:48Z</time>
      </trkpt>
      <trkpt lat="45.95855" lon="4.91533">
        <ele>300</ele>
        <time>2016-10-02T10:12:49Z</time>
      </trkpt>
      <trkpt lat="45.95856" lon="4.91522">
        <ele>300</ele>
        <time>2016-10-02T10:12:50Z</time>
      </trkpt>
      <trkpt lat="45.95856" lon="4.91514">
        <ele>300</ele>
        <time>2016-10-02T10:12:51Z</time>
      </trkpt>
      <trkpt lat="45.95857" lon="4.91507">
        <ele>300</ele>
        <time>2016-10-02T10:12:52Z</time>
      </trkpt>
      <trkpt lat="45.95858" lon="4.91499">
        <ele>299</ele>
        <time>2016-10-02T10:12:53Z</time>
      </trkpt>
      <trkpt lat="45.95858" lon="4.91492">
        <ele>299</ele>
        <time>2016-10-02T10:12:54Z</time>
      </trkpt>
      <trkpt lat="45.95859" lon="4.91484">
        <ele>299</ele>
        <time>2016-10-02T10:12:55Z</time>
      </trkpt>
      <trkpt lat="45.95858" lon="4.91476">
        <ele>299</ele>
        <time>2016-10-02T10:12:56Z</time>
      </trkpt>
      <trkpt lat="45.95859" lon="4.91468">
        <ele>299</ele>
        <time>2016-10-02T10:12:57Z</time>
      </trkpt>
      <trkpt lat="45.95859" lon="4.91461">
        <ele>299</ele>
        <time>2016-10-02T10:12:58Z</time>
      </trkpt>
      <trkpt lat="45.9586" lon="4.91452">
        <ele>299</ele>
        <time>2016-10-02T10:12:59Z</time>
      </trkpt>
      <trkpt lat="45.95861" lon="4.91443">
        <ele>299</ele>
        <time>2016-10-02T10:13:00Z</time>
      </trkpt>
      <trkpt lat="45.95862" lon="4.91433">
        <ele>299</ele>
        <time>2016-10-02T10:13:01Z</time>
      </trkpt>
      <trkpt lat="45.95863" lon="4.91423">
        <ele>298</ele>
        <time>2016-10-02T10:13:02Z</time>
      </trkpt>
      <trkpt lat="45.95862" lon="4.91414">
        <ele>298</ele>
        <time>2016-10-02T10:13:03Z</time>
      </trkpt>
      <trkpt lat="45.95861" lon="4.91406">
        <ele>298</ele>
        <time>2016-10-02T10:13:04Z</time>
      </trkpt>
      <trkpt lat="45.9586" lon="4.91396">
        <ele>298</ele>
        <time>2016-10-02T10:13:05Z</time>
      </trkpt>
      <trkpt lat="45.9586" lon="4.91387">
        <ele>298</ele>
        <time>2016-10-02T10:13:06Z</time>
      </trkpt>
      <trkpt lat="45.9586" lon="4.91379">
        <ele>298</ele>
        <time>2016-10-02T10:13:07Z</time>
      </trkpt>
      <trkpt lat="45.9586" lon="4.9137">
        <ele>298</ele>
        <time>2016-10-02T10:13:08Z</time>
      </trkpt>
      <trkpt lat="45.9586" lon="4.91363">
        <ele>298</ele>
        <time>2016-10-02T10:13:09Z</time>
      </trkpt>
      <trkpt lat="45.9586" lon="4.91356">
        <ele>298</ele>
        <time>2016-10-02T10:13:10Z</time>
      </trkpt>
      <trkpt lat="45.9586" lon="4.91349">
        <ele>298</ele>
        <time>2016-10-02T10:13:11Z</time>
      </trkpt>
      <trkpt lat="45.95861" lon="4.91341">
        <ele>298</ele>
        <time>2016-10-02T10:13:12Z</time>
      </trkpt>
      <trkpt lat="45.95862" lon="4.91333">
        <ele>298</ele>
        <time>2016-10-02T10:13:13Z</time>
      </trkpt>
      <trkpt lat="45.95863" lon="4.91325">
        <ele>298</ele>
        <time>2016-10-02T10:13:14Z</time>
      </trkpt>
      <trkpt lat="45.95864" lon="4.91317">
        <ele>298</ele>
        <time>2016-10-02T10:13:15Z</time>
      </trkpt>
      <trkpt lat="45.95865" lon="4.91309">
        <ele>298</ele>
        <time>2016-10-02T10:13:16Z</time>
      </trkpt>
      <trkpt lat="45.95866" lon="4.91301">
        <ele>298</ele>
        <time>2016-10-02T10:13:17Z</time>
      </trkpt>
      <trkpt lat="45.95865" lon="4.91292">
        <ele>298</ele>
        <time>2016-10-02T10:13:18Z</time>
      </trkpt>
      <trkpt lat="45.95866" lon="4.91283">
        <ele>298</ele>
        <time>2016-10-02T10:13:19Z</time>
      </trkpt>
      <trkpt lat="45.95867" lon="4.91276">
        <ele>298</ele>
        <time>2016-10-02T10:13:20Z</time>
      </trkpt>
      <trkpt lat="45.95867" lon="4.91267">
        <ele>298</ele>
        <time>2016-10-02T10:13:21Z</time>
      </trkpt>
      <trkpt lat="45.95867" lon="4.9126">
        <ele>298</ele>
        <time>2016-10-02T10:13:22Z</time>
      </trkpt>
      <trkpt lat="45.95868" lon="4.91252">
        <ele>297</ele>
        <time>2016-10-02T10:13:23Z</time>
      </trkpt>
      <trkpt lat="45.95868" lon="4.91244">
        <ele>297</ele>
        <time>2016-10-02T10:13:24Z</time>
      </trkpt>
      <trkpt lat="45.95868" lon="4.91237">
        <ele>297</ele>
        <time>2016-10-02T10:13:25Z</time>
      </trkpt>
      <trkpt lat="45.95868" lon="4.91229">
        <ele>297</ele>
        <time>2016-10-02T10:13:26Z</time>
      </trkpt>
      <trkpt lat="45.95868" lon="4.91222">
        <ele>297</ele>
        <time>2016-10-02T10:13:27Z</time>
      </trkpt>
      <trkpt lat="45.95869" lon="4.91215">
        <ele>297</ele>
        <time>2016-10-02T10:13:28Z</time>
      </trkpt>
      <trkpt lat="45.95869" lon="4.91209">
        <ele>297</ele>
        <time>2016-10-02T10:13:29Z</time>
      </trkpt>
      <trkpt lat="45.9587" lon="4.91202">
        <ele>297</ele>
        <time>2016-10-02T10:13:30Z</time>
      </trkpt>
      <trkpt lat="45.9587" lon="4.91194">
        <ele>297</ele>
        <time>2016-10-02T10:13:31Z</time>
      </trkpt>
      <trkpt lat="45.95869" lon="4.91186">
        <ele>297</ele>
        <time>2016-10-02T10:13:32Z</time>
      </trkpt>
      <trkpt lat="45.9587" lon="4.91176">
        <ele>297</ele>
        <time>2016-10-02T10:13:33Z</time>
      </trkpt>
      <trkpt lat="45.9587" lon="4.91167">
        <ele>297</ele>
        <time>2016-10-02T10:13:34Z</time>
      </trkpt>
      <trkpt lat="45.9587" lon="4.91159">
        <ele>297</ele>
        <time>2016-10-02T10:13:35Z</time>
      </trkpt>
      <trkpt lat="45.9587" lon="4.9115">
        <ele>297</ele>
        <time>2016-10-02T10:13:36Z</time>
      </trkpt>
      <trkpt lat="45.95869" lon="4.91143">
        <ele>297</ele>
        <time>2016-10-02T10:13:37Z</time>
      </trkpt>
      <trkpt lat="45.95868" lon="4.91136">
        <ele>297</ele>
        <time>2016-10-02T10:13:38Z</time>
      </trkpt>
      <trkpt lat="45.95868" lon="4.9113">
        <ele>298</ele>
        <time>2016-10-02T10:13:39Z</time>
      </trkpt>
      <trkpt lat="45.95869" lon="4.91123">
        <ele>298</ele>
        <time>2016-10-02T10:13:40Z</time>
      </trkpt>
      <trkpt lat="45.95869" lon="4.9111">
        <ele>298</ele>
        <time>2016-10-02T10:13:42Z</time>
      </trkpt>
      <trkpt lat="45.95869" lon="4.91103">
        <ele>298</ele>
        <time>2016-10-02T10:13:43Z</time>
      </trkpt>
      <trkpt lat="45.95869" lon="4.91096">
        <ele>298</ele>
        <time>2016-10-02T10:13:44Z</time>
      </trkpt>
      <trkpt lat="45.95869" lon="4.91089">
        <ele>298</ele>
        <time>2016-10-02T10:13:45Z</time>
      </trkpt>
      <trkpt lat="45.95872" lon="4.91077">
        <ele>297</ele>
        <time>2016-10-02T10:13:47Z</time>
      </trkpt>
      <trkpt lat="45.95874" lon="4.91069">
        <ele>297</ele>
        <time>2016-10-02T10:13:48Z</time>
      </trkpt>
      <trkpt lat="45.95876" lon="4.9106">
        <ele>297</ele>
        <time>2016-10-02T10:13:49Z</time>
      </trkpt>
      <trkpt lat="45.95877" lon="4.9105">
        <ele>297</ele>
        <time>2016-10-02T10:13:50Z</time>
      </trkpt>
      <trkpt lat="45.95878" lon="4.9104">
        <ele>297</ele>
        <time>2016-10-02T10:13:51Z</time>
      </trkpt>
      <trkpt lat="45.95879" lon="4.91029">
        <ele>296</ele>
        <time>2016-10-02T10:13:52Z</time>
      </trkpt>
      <trkpt lat="45.9588" lon="4.91019">
        <ele>296</ele>
        <time>2016-10-02T10:13:53Z</time>
      </trkpt>
      <trkpt lat="45.9588" lon="4.91009">
        <ele>296</ele>
        <time>2016-10-02T10:13:54Z</time>
      </trkpt>
      <trkpt lat="45.95881" lon="4.90999">
        <ele>294</ele>
        <time>2016-10-02T10:13:55Z</time>
      </trkpt>
      <trkpt lat="45.95882" lon="4.90989">
        <ele>294</ele>
        <time>2016-10-02T10:13:56Z</time>
      </trkpt>
      <trkpt lat="45.95882" lon="4.90978">
        <ele>294</ele>
        <time>2016-10-02T10:13:57Z</time>
      </trkpt>
      <trkpt lat="45.95883" lon="4.90969">
        <ele>294</ele>
        <time>2016-10-02T10:13:58Z</time>
      </trkpt>
      <trkpt lat="45.95884" lon="4.90959">
        <ele>293</ele>
        <time>2016-10-02T10:13:59Z</time>
      </trkpt>
      <trkpt lat="45.95884" lon="4.90949">
        <ele>293</ele>
        <time>2016-10-02T10:14:00Z</time>
      </trkpt>
      <trkpt lat="45.95886" lon="4.9094">
        <ele>293</ele>
        <time>2016-10-02T10:14:01Z</time>
      </trkpt>
      <trkpt lat="45.95886" lon="4.9093">
        <ele>293</ele>
        <time>2016-10-02T10:14:02Z</time>
      </trkpt>
      <trkpt lat="45.95886" lon="4.90921">
        <ele>293</ele>
        <time>2016-10-02T10:14:03Z</time>
      </trkpt>
      <trkpt lat="45.95885" lon="4.90913">
        <ele>291</ele>
        <time>2016-10-02T10:14:04Z</time>
      </trkpt>
      <trkpt lat="45.95885" lon="4.90904">
        <ele>292</ele>
        <time>2016-10-02T10:14:05Z</time>
      </trkpt>
      <trkpt lat="45.95885" lon="4.90896">
        <ele>292</ele>
        <time>2016-10-02T10:14:06Z</time>
      </trkpt>
      <trkpt lat="45.95886" lon="4.90888">
        <ele>292</ele>
        <time>2016-10-02T10:14:07Z</time>
      </trkpt>
      <trkpt lat="45.95887" lon="4.9088">
        <ele>292</ele>
        <time>2016-10-02T10:14:08Z</time>
      </trkpt>
      <trkpt lat="45.95887" lon="4.90872">
        <ele>292</ele>
        <time>2016-10-02T10:14:09Z</time>
      </trkpt>
      <trkpt lat="45.95887" lon="4.90864">
        <ele>291</ele>
        <time>2016-10-02T10:14:10Z</time>
      </trkpt>
      <trkpt lat="45.95887" lon="4.90856">
        <ele>291</ele>
        <time>2016-10-02T10:14:11Z</time>
      </trkpt>
      <trkpt lat="45.95887" lon="4.90848">
        <ele>291</ele>
        <time>2016-10-02T10:14:12Z</time>
      </trkpt>
      <trkpt lat="45.95886" lon="4.9084">
        <ele>291</ele>
        <time>2016-10-02T10:14:13Z</time>
      </trkpt>
      <trkpt lat="45.95886" lon="4.90831">
        <ele>291</ele>
        <time>2016-10-02T10:14:14Z</time>
      </trkpt>
      <trkpt lat="45.95886" lon="4.90822">
        <ele>291</ele>
        <time>2016-10-02T10:14:15Z</time>
      </trkpt>
      <trkpt lat="45.95888" lon="4.90813">
        <ele>291</ele>
        <time>2016-10-02T10:14:16Z</time>
      </trkpt>
      <trkpt lat="45.95887" lon="4.90804">
        <ele>291</ele>
        <time>2016-10-02T10:14:17Z</time>
      </trkpt>
      <trkpt lat="45.95887" lon="4.90795">
        <ele>291</ele>
        <time>2016-10-02T10:14:18Z</time>
      </trkpt>
      <trkpt lat="45.95887" lon="4.90786">
        <ele>291</ele>
        <time>2016-10-02T10:14:19Z</time>
      </trkpt>
      <trkpt lat="45.95887" lon="4.90778">
        <ele>291</ele>
        <time>2016-10-02T10:14:20Z</time>
      </trkpt>
      <trkpt lat="45.95887" lon="4.9077">
        <ele>291</ele>
        <time>2016-10-02T10:14:21Z</time>
      </trkpt>
      <trkpt lat="45.95886" lon="4.90763">
        <ele>291</ele>
        <time>2016-10-02T10:14:22Z</time>
      </trkpt>
      <trkpt lat="45.95886" lon="4.90756">
        <ele>291</ele>
        <time>2016-10-02T10:14:23Z</time>
      </trkpt>
      <trkpt lat="45.95886" lon="4.90749">
        <ele>291</ele>
        <time>2016-10-02T10:14:24Z</time>
      </trkpt>
      <trkpt lat="45.95885" lon="4.90742">
        <ele>291</ele>
        <time>2016-10-02T10:14:25Z</time>
      </trkpt>
      <trkpt lat="45.95885" lon="4.90734">
        <ele>292</ele>
        <time>2016-10-02T10:14:26Z</time>
      </trkpt>
      <trkpt lat="45.95885" lon="4.90728">
        <ele>292</ele>
        <time>2016-10-02T10:14:27Z</time>
      </trkpt>
      <trkpt lat="45.95884" lon="4.9072">
        <ele>292</ele>
        <time>2016-10-02T10:14:28Z</time>
      </trkpt>
      <trkpt lat="45.95885" lon="4.90712">
        <ele>292</ele>
        <time>2016-10-02T10:14:29Z</time>
      </trkpt>
      <trkpt lat="45.95884" lon="4.90704">
        <ele>292</ele>
        <time>2016-10-02T10:14:30Z</time>
      </trkpt>
      <trkpt lat="45.95885" lon="4.90696">
        <ele>292</ele>
        <time>2016-10-02T10:14:31Z</time>
      </trkpt>
      <trkpt lat="45.95885" lon="4.90688">
        <ele>292</ele>
        <time>2016-10-02T10:14:32Z</time>
      </trkpt>
      <trkpt lat="45.95884" lon="4.9068">
        <ele>292</ele>
        <time>2016-10-02T10:14:33Z</time>
      </trkpt>
      <trkpt lat="45.95883" lon="4.90672">
        <ele>292</ele>
        <time>2016-10-02T10:14:34Z</time>
      </trkpt>
      <trkpt lat="45.95883" lon="4.90664">
        <ele>293</ele>
        <time>2016-10-02T10:14:35Z</time>
      </trkpt>
      <trkpt lat="45.95883" lon="4.90657">
        <ele>293</ele>
        <time>2016-10-02T10:14:36Z</time>
      </trkpt>
      <trkpt lat="45.95883" lon="4.9065">
        <ele>293</ele>
        <time>2016-10-02T10:14:37Z</time>
      </trkpt>
      <trkpt lat="45.95883" lon="4.90643">
        <ele>293</ele>
        <time>2016-10-02T10:14:38Z</time>
      </trkpt>
      <trkpt lat="45.95883" lon="4.90636">
        <ele>293</ele>
        <time>2016-10-02T10:14:39Z</time>
      </trkpt>
      <trkpt lat="45.95883" lon="4.90628">
        <ele>293</ele>
        <time>2016-10-02T10:14:40Z</time>
      </trkpt>
      <trkpt lat="45.95882" lon="4.90621">
        <ele>293</ele>
        <time>2016-10-02T10:14:41Z</time>
      </trkpt>
      <trkpt lat="45.95882" lon="4.90614">
        <ele>293</ele>
        <time>2016-10-02T10:14:42Z</time>
      </trkpt>
      <trkpt lat="45.95882" lon="4.90606">
        <ele>293</ele>
        <time>2016-10-02T10:14:43Z</time>
      </trkpt>
      <trkpt lat="45.95882" lon="4.90599">
        <ele>293</ele>
        <time>2016-10-02T10:14:44Z</time>
      </trkpt>
      <trkpt lat="45.95883" lon="4.90591">
        <ele>293</ele>
        <time>2016-10-02T10:14:45Z</time>
      </trkpt>
      <trkpt lat="45.95883" lon="4.90583">
        <ele>292</ele>
        <time>2016-10-02T10:14:46Z</time>
      </trkpt>
      <trkpt lat="45.95884" lon="4.90576">
        <ele>292</ele>
        <time>2016-10-02T10:14:47Z</time>
      </trkpt>
      <trkpt lat="45.95884" lon="4.90568">
        <ele>292</ele>
        <time>2016-10-02T10:14:48Z</time>
      </trkpt>
      <trkpt lat="45.95884" lon="4.9056">
        <ele>292</ele>
        <time>2016-10-02T10:14:49Z</time>
      </trkpt>
      <trkpt lat="45.95884" lon="4.90552">
        <ele>292</ele>
        <time>2016-10-02T10:14:50Z</time>
      </trkpt>
      <trkpt lat="45.95885" lon="4.90544">
        <ele>292</ele>
        <time>2016-10-02T10:14:51Z</time>
      </trkpt>
      <trkpt lat="45.95885" lon="4.90536">
        <ele>292</ele>
        <time>2016-10-02T10:14:52Z</time>
      </trkpt>
      <trkpt lat="45.95886" lon="4.90527">
        <ele>292</ele>
        <time>2016-10-02T10:14:53Z</time>
      </trkpt>
      <trkpt lat="45.95886" lon="4.90519">
        <ele>292</ele>
        <time>2016-10-02T10:14:54Z</time>
      </trkpt>
      <trkpt lat="45.95887" lon="4.9051">
        <ele>292</ele>
        <time>2016-10-02T10:14:55Z</time>
      </trkpt>
      <trkpt lat="45.95887" lon="4.90502">
        <ele>292</ele>
        <time>2016-10-02T10:14:56Z</time>
      </trkpt>
      <trkpt lat="45.95887" lon="4.90494">
        <ele>292</ele>
        <time>2016-10-02T10:14:57Z</time>
      </trkpt>
      <trkpt lat="45.95888" lon="4.90485">
        <ele>292</ele>
        <time>2016-10-02T10:14:58Z</time>
      </trkpt>
      <trkpt lat="45.95888" lon="4.90477">
        <ele>292</ele>
        <time>2016-10-02T10:14:59Z</time>
      </trkpt>
      <trkpt lat="45.95889" lon="4.90468">
        <ele>292</ele>
        <time>2016-10-02T10:15:00Z</time>
      </trkpt>
      <trkpt lat="45.95888" lon="4.9046">
        <ele>292</ele>
        <time>2016-10-02T10:15:01Z</time>
      </trkpt>
      <trkpt lat="45.95889" lon="4.90452">
        <ele>292</ele>
        <time>2016-10-02T10:15:02Z</time>
      </trkpt>
      <trkpt lat="45.95889" lon="4.90444">
        <ele>292</ele>
        <time>2016-10-02T10:15:03Z</time>
      </trkpt>
      <trkpt lat="45.95889" lon="4.90437">
        <ele>292</ele>
        <time>2016-10-02T10:15:04Z</time>
      </trkpt>
      <trkpt lat="45.95889" lon="4.9043">
        <ele>292</ele>
        <time>2016-10-02T10:15:05Z</time>
      </trkpt>
      <trkpt lat="45.95889" lon="4.90423">
        <ele>292</ele>
        <time>2016-10-02T10:15:06Z</time>
      </trkpt>
      <trkpt lat="45.95889" lon="4.90415">
        <ele>292</ele>
        <time>2016-10-02T10:15:07Z</time>
      </trkpt>
      <trkpt lat="45.9589" lon="4.90407">
        <ele>292</ele>
        <time>2016-10-02T10:15:08Z</time>
      </trkpt>
      <trkpt lat="45.95891" lon="4.90399">
        <ele>292</ele>
        <time>2016-10-02T10:15:09Z</time>
      </trkpt>
      <trkpt lat="45.95891" lon="4.90391">
        <ele>292</ele>
        <time>2016-10-02T10:15:10Z</time>
      </trkpt>
      <trkpt lat="45.95891" lon="4.90382">
        <ele>292</ele>
        <time>2016-10-02T10:15:11Z</time>
      </trkpt>
      <trkpt lat="45.95891" lon="4.90373">
        <ele>292</ele>
        <time>2016-10-02T10:15:12Z</time>
      </trkpt>
      <trkpt lat="45.95891" lon="4.90365">
        <ele>292</ele>
        <time>2016-10-02T10:15:13Z</time>
      </trkpt>
      <trkpt lat="45.95891" lon="4.90355">
        <ele>292</ele>
        <time>2016-10-02T10:15:14Z</time>
      </trkpt>
      <trkpt lat="45.95891" lon="4.90347">
        <ele>292</ele>
        <time>2016-10-02T10:15:15Z</time>
      </trkpt>
      <trkpt lat="45.95891" lon="4.90339">
        <ele>292</ele>
        <time>2016-10-02T10:15:16Z</time>
      </trkpt>
      <trkpt lat="45.95891" lon="4.90331">
        <ele>292</ele>
        <time>2016-10-02T10:15:17Z</time>
      </trkpt>
      <trkpt lat="45.9589" lon="4.90323">
        <ele>292</ele>
        <time>2016-10-02T10:15:18Z</time>
      </trkpt>
      <trkpt lat="45.95891" lon="4.90315">
        <ele>292</ele>
        <time>2016-10-02T10:15:19Z</time>
      </trkpt>
      <trkpt lat="45.95891" lon="4.90307">
        <ele>292</ele>
        <time>2016-10-02T10:15:20Z</time>
      </trkpt>
      <trkpt lat="45.95892" lon="4.90299">
        <ele>292</ele>
        <time>2016-10-02T10:15:21Z</time>
      </trkpt>
      <trkpt lat="45.95893" lon="4.90291">
        <ele>292</ele>
        <time>2016-10-02T10:15:22Z</time>
      </trkpt>
      <trkpt lat="45.95893" lon="4.90282">
        <ele>292</ele>
        <time>2016-10-02T10:15:23Z</time>
      </trkpt>
      <trkpt lat="45.95894" lon="4.90274">
        <ele>292</ele>
        <time>2016-10-02T10:15:24Z</time>
      </trkpt>
      <trkpt lat="45.95894" lon="4.90266">
        <ele>292</ele>
        <time>2016-10-02T10:15:25Z</time>
      </trkpt>
      <trkpt lat="45.95894" lon="4.90256">
        <ele>292</ele>
        <time>2016-10-02T10:15:26Z</time>
      </trkpt>
      <trkpt lat="45.95895" lon="4.90247">
        <ele>292</ele>
        <time>2016-10-02T10:15:27Z</time>
      </trkpt>
      <trkpt lat="45.95895" lon="4.90238">
        <ele>292</ele>
        <time>2016-10-02T10:15:28Z</time>
      </trkpt>
      <trkpt lat="45.95895" lon="4.9023">
        <ele>292</ele>
        <time>2016-10-02T10:15:29Z</time>
      </trkpt>
      <trkpt lat="45.95896" lon="4.90222">
        <ele>291</ele>
        <time>2016-10-02T10:15:30Z</time>
      </trkpt>
      <trkpt lat="45.95896" lon="4.90213">
        <ele>291</ele>
        <time>2016-10-02T10:15:31Z</time>
      </trkpt>
      <trkpt lat="45.95896" lon="4.90204">
        <ele>291</ele>
        <time>2016-10-02T10:15:32Z</time>
      </trkpt>
      <trkpt lat="45.95896" lon="4.90195">
        <ele>291</ele>
        <time>2016-10-02T10:15:33Z</time>
      </trkpt>
      <trkpt lat="45.95896" lon="4.90186">
        <ele>291</ele>
        <time>2016-10-02T10:15:34Z</time>
      </trkpt>
      <trkpt lat="45.95896" lon="4.90177">
        <ele>291</ele>
        <time>2016-10-02T10:15:35Z</time>
      </trkpt>
      <trkpt lat="45.95896" lon="4.90168">
        <ele>290</ele>
        <time>2016-10-02T10:15:36Z</time>
      </trkpt>
      <trkpt lat="45.95896" lon="4.9016">
        <ele>290</ele>
        <time>2016-10-02T10:15:37Z</time>
      </trkpt>
      <trkpt lat="45.95897" lon="4.90152">
        <ele>290</ele>
        <time>2016-10-02T10:15:38Z</time>
      </trkpt>
      <trkpt lat="45.95897" lon="4.90144">
        <ele>290</ele>
        <time>2016-10-02T10:15:39Z</time>
      </trkpt>
      <trkpt lat="45.95894" lon="4.90134">
        <ele>290</ele>
        <time>2016-10-02T10:15:40Z</time>
      </trkpt>
      <trkpt lat="45.95894" lon="4.90125">
        <ele>290</ele>
        <time>2016-10-02T10:15:41Z</time>
      </trkpt>
      <trkpt lat="45.95894" lon="4.90117">
        <ele>290</ele>
        <time>2016-10-02T10:15:42Z</time>
      </trkpt>
      <trkpt lat="45.95895" lon="4.90109">
        <ele>290</ele>
        <time>2016-10-02T10:15:43Z</time>
      </trkpt>
      <trkpt lat="45.95895" lon="4.90101">
        <ele>290</ele>
        <time>2016-10-02T10:15:44Z</time>
      </trkpt>
      <trkpt lat="45.95895" lon="4.90092">
        <ele>290</ele>
        <time>2016-10-02T10:15:45Z</time>
      </trkpt>
      <trkpt lat="45.95895" lon="4.90084">
        <ele>290</ele>
        <time>2016-10-02T10:15:46Z</time>
      </trkpt>
      <trkpt lat="45.95896" lon="4.90075">
        <ele>290</ele>
        <time>2016-10-02T10:15:47Z</time>
      </trkpt>
      <trkpt lat="45.95897" lon="4.90065">
        <ele>290</ele>
        <time>2016-10-02T10:15:48Z</time>
      </trkpt>
      <trkpt lat="45.95896" lon="4.90055">
        <ele>290</ele>
        <time>2016-10-02T10:15:49Z</time>
      </trkpt>
      <trkpt lat="45.95896" lon="4.90046">
        <ele>290</ele>
        <time>2016-10-02T10:15:50Z</time>
      </trkpt>
      <trkpt lat="45.95896" lon="4.90037">
        <ele>290</ele>
        <time>2016-10-02T10:15:51Z</time>
      </trkpt>
      <trkpt lat="45.95897" lon="4.90028">
        <ele>290</ele>
        <time>2016-10-02T10:15:52Z</time>
      </trkpt>
      <trkpt lat="45.95897" lon="4.90019">
        <ele>290</ele>
        <time>2016-10-02T10:15:53Z</time>
      </trkpt>
      <trkpt lat="45.95897" lon="4.90011">
        <ele>290</ele>
        <time>2016-10-02T10:15:54Z</time>
      </trkpt>
      <trkpt lat="45.95897" lon="4.90003">
        <ele>290</ele>
        <time>2016-10-02T10:15:55Z</time>
      </trkpt>
      <trkpt lat="45.95897" lon="4.89996">
        <ele>290</ele>
        <time>2016-10-02T10:15:56Z</time>
      </trkpt>
      <trkpt lat="45.95897" lon="4.89988">
        <ele>290</ele>
        <time>2016-10-02T10:15:57Z</time>
      </trkpt>
      <trkpt lat="45.95897" lon="4.8998">
        <ele>290</ele>
        <time>2016-10-02T10:15:58Z</time>
      </trkpt>
      <trkpt lat="45.95896" lon="4.89972">
        <ele>290</ele>
        <time>2016-10-02T10:15:59Z</time>
      </trkpt>
      <trkpt lat="45.95896" lon="4.89964">
        <ele>290</ele>
        <time>2016-10-02T10:16:00Z</time>
      </trkpt>
      <trkpt lat="45.95896" lon="4.89956">
        <ele>290</ele>
        <time>2016-10-02T10:16:01Z</time>
      </trkpt>
      <trkpt lat="45.95896" lon="4.89948">
        <ele>290</ele>
        <time>2016-10-02T10:16:02Z</time>
      </trkpt>
      <trkpt lat="45.95897" lon="4.8994">
        <ele>290</ele>
        <time>2016-10-02T10:16:03Z</time>
      </trkpt>
      <trkpt lat="45.95897" lon="4.89931">
        <ele>290</ele>
        <time>2016-10-02T10:16:04Z</time>
      </trkpt>
      <trkpt lat="45.95897" lon="4.89922">
        <ele>290</ele>
        <time>2016-10-02T10:16:05Z</time>
      </trkpt>
      <trkpt lat="45.95896" lon="4.89913">
        <ele>290</ele>
        <time>2016-10-02T10:16:06Z</time>
      </trkpt>
      <trkpt lat="45.95896" lon="4.89905">
        <ele>290</ele>
        <time>2016-10-02T10:16:07Z</time>
      </trkpt>
      <trkpt lat="45.95895" lon="4.89897">
        <ele>290</ele>
        <time>2016-10-02T10:16:08Z</time>
      </trkpt>
      <trkpt lat="45.95895" lon="4.89889">
        <ele>290</ele>
        <time>2016-10-02T10:16:09Z</time>
      </trkpt>
      <trkpt lat="45.95895" lon="4.89881">
        <ele>290</ele>
        <time>2016-10-02T10:16:10Z</time>
      </trkpt>
      <trkpt lat="45.95895" lon="4.89873">
        <ele>290</ele>
        <time>2016-10-02T10:16:11Z</time>
      </trkpt>
      <trkpt lat="45.95895" lon="4.89866">
        <ele>290</ele>
        <time>2016-10-02T10:16:12Z</time>
      </trkpt>
      <trkpt lat="45.95895" lon="4.89858">
        <ele>290</ele>
        <time>2016-10-02T10:16:13Z</time>
      </trkpt>
      <trkpt lat="45.95895" lon="4.89851">
        <ele>290</ele>
        <time>2016-10-02T10:16:14Z</time>
      </trkpt>
      <trkpt lat="45.95895" lon="4.89844">
        <ele>290</ele>
        <time>2016-10-02T10:16:15Z</time>
      </trkpt>
      <trkpt lat="45.95895" lon="4.89836">
        <ele>290</ele>
        <time>2016-10-02T10:16:16Z</time>
      </trkpt>
      <trkpt lat="45.95894" lon="4.89828">
        <ele>289</ele>
        <time>2016-10-02T10:16:17Z</time>
      </trkpt>
      <trkpt lat="45.95895" lon="4.89821">
        <ele>289</ele>
        <time>2016-10-02T10:16:18Z</time>
      </trkpt>
      <trkpt lat="45.95895" lon="4.89813">
        <ele>289</ele>
        <time>2016-10-02T10:16:19Z</time>
      </trkpt>
      <trkpt lat="45.95894" lon="4.89804">
        <ele>289</ele>
        <time>2016-10-02T10:16:20Z</time>
      </trkpt>
      <trkpt lat="45.95894" lon="4.89796">
        <ele>289</ele>
        <time>2016-10-02T10:16:21Z</time>
      </trkpt>
      <trkpt lat="45.95893" lon="4.89788">
        <ele>289</ele>
        <time>2016-10-02T10:16:22Z</time>
      </trkpt>
      <trkpt lat="45.95893" lon="4.8978">
        <ele>289</ele>
        <time>2016-10-02T10:16:23Z</time>
      </trkpt>
      <trkpt lat="45.95892" lon="4.89772">
        <ele>289</ele>
        <time>2016-10-02T10:16:24Z</time>
      </trkpt>
      <trkpt lat="45.95892" lon="4.89764">
        <ele>289</ele>
        <time>2016-10-02T10:16:25Z</time>
      </trkpt>
      <trkpt lat="45.95892" lon="4.89756">
        <ele>289</ele>
        <time>2016-10-02T10:16:26Z</time>
      </trkpt>
      <trkpt lat="45.95892" lon="4.89748">
        <ele>289</ele>
        <time>2016-10-02T10:16:27Z</time>
      </trkpt>
      <trkpt lat="45.95891" lon="4.8974">
        <ele>289</ele>
        <time>2016-10-02T10:16:28Z</time>
      </trkpt>
      <trkpt lat="45.95891" lon="4.89732">
        <ele>289</ele>
        <time>2016-10-02T10:16:29Z</time>
      </trkpt>
      <trkpt lat="45.95891" lon="4.89724">
        <ele>289</ele>
        <time>2016-10-02T10:16:30Z</time>
      </trkpt>
      <trkpt lat="45.95891" lon="4.89716">
        <ele>289</ele>
        <time>2016-10-02T10:16:31Z</time>
      </trkpt>
      <trkpt lat="45.95891" lon="4.89708">
        <ele>289</ele>
        <time>2016-10-02T10:16:32Z</time>
      </trkpt>
      <trkpt lat="45.95892" lon="4.897">
        <ele>289</ele>
        <time>2016-10-02T10:16:33Z</time>
      </trkpt>
      <trkpt lat="45.95892" lon="4.89691">
        <ele>289</ele>
        <time>2016-10-02T10:16:34Z</time>
      </trkpt>
      <trkpt lat="45.95891" lon="4.89683">
        <ele>289</ele>
        <time>2016-10-02T10:16:35Z</time>
      </trkpt>
      <trkpt lat="45.95891" lon="4.89674">
        <ele>289</ele>
        <time>2016-10-02T10:16:36Z</time>
      </trkpt>
      <trkpt lat="45.9589" lon="4.89666">
        <ele>289</ele>
        <time>2016-10-02T10:16:37Z</time>
      </trkpt>
      <trkpt lat="45.9589" lon="4.89657">
        <ele>289</ele>
        <time>2016-10-02T10:16:38Z</time>
      </trkpt>
      <trkpt lat="45.95889" lon="4.89648">
        <ele>289</ele>
        <time>2016-10-02T10:16:39Z</time>
      </trkpt>
      <trkpt lat="45.95889" lon="4.8964">
        <ele>289</ele>
        <time>2016-10-02T10:16:40Z</time>
      </trkpt>
      <trkpt lat="45.9589" lon="4.89632">
        <ele>289</ele>
        <time>2016-10-02T10:16:41Z</time>
      </trkpt>
      <trkpt lat="45.9589" lon="4.89624">
        <ele>289</ele>
        <time>2016-10-02T10:16:42Z</time>
      </trkpt>
      <trkpt lat="45.9589" lon="4.89616">
        <ele>289</ele>
        <time>2016-10-02T10:16:43Z</time>
      </trkpt>
      <trkpt lat="45.9589" lon="4.89607">
        <ele>289</ele>
        <time>2016-10-02T10:16:44Z</time>
      </trkpt>
      <trkpt lat="45.9589" lon="4.89599">
        <ele>289</ele>
        <time>2016-10-02T10:16:45Z</time>
      </trkpt>
      <trkpt lat="45.95891" lon="4.89591">
        <ele>289</ele>
        <time>2016-10-02T10:16:46Z</time>
      </trkpt>
      <trkpt lat="45.95891" lon="4.89582">
        <ele>289</ele>
        <time>2016-10-02T10:16:47Z</time>
      </trkpt>
      <trkpt lat="45.95891" lon="4.89574">
        <ele>289</ele>
        <time>2016-10-02T10:16:48Z</time>
      </trkpt>
      <trkpt lat="45.95892" lon="4.89566">
        <ele>288</ele>
        <time>2016-10-02T10:16:49Z</time>
      </trkpt>
      <trkpt lat="45.95891" lon="4.89558">
        <ele>288</ele>
        <time>2016-10-02T10:16:50Z</time>
      </trkpt>
      <trkpt lat="45.9589" lon="4.8955">
        <ele>288</ele>
        <time>2016-10-02T10:16:51Z</time>
      </trkpt>
      <trkpt lat="45.95891" lon="4.89542">
        <ele>288</ele>
        <time>2016-10-02T10:16:52Z</time>
      </trkpt>
      <trkpt lat="45.9589" lon="4.89534">
        <ele>288</ele>
        <time>2016-10-02T10:16:53Z</time>
      </trkpt>
      <trkpt lat="45.9589" lon="4.89526">
        <ele>288</ele>
        <time>2016-10-02T10:16:54Z</time>
      </trkpt>
      <trkpt lat="45.9589" lon="4.89517">
        <ele>288</ele>
        <time>2016-10-02T10:16:55Z</time>
      </trkpt>
      <trkpt lat="45.9589" lon="4.89509">
        <ele>288</ele>
        <time>2016-10-02T10:16:56Z</time>
      </trkpt>
      <trkpt lat="45.9589" lon="4.89501">
        <ele>288</ele>
        <time>2016-10-02T10:16:57Z</time>
      </trkpt>
      <trkpt lat="45.9589" lon="4.89492">
        <ele>289</ele>
        <time>2016-10-02T10:16:58Z</time>
      </trkpt>
      <trkpt lat="45.9589" lon="4.89483">
        <ele>289</ele>
        <time>2016-10-02T10:16:59Z</time>
      </trkpt>
      <trkpt lat="45.9589" lon="4.89475">
        <ele>289</ele>
        <time>2016-10-02T10:17:00Z</time>
      </trkpt>
      <trkpt lat="45.9589" lon="4.89467">
        <ele>289</ele>
        <time>2016-10-02T10:17:01Z</time>
      </trkpt>
      <trkpt lat="45.95889" lon="4.89458">
        <ele>289</ele>
        <time>2016-10-02T10:17:02Z</time>
      </trkpt>
      <trkpt lat="45.95889" lon="4.89451">
        <ele>289</ele>
        <time>2016-10-02T10:17:03Z</time>
      </trkpt>
      <trkpt lat="45.95889" lon="4.89443">
        <ele>289</ele>
        <time>2016-10-02T10:17:04Z</time>
      </trkpt>
      <trkpt lat="45.95888" lon="4.89436">
        <ele>289</ele>
        <time>2016-10-02T10:17:05Z</time>
      </trkpt>
      <trkpt lat="45.95888" lon="4.89428">
        <ele>289</ele>
        <time>2016-10-02T10:17:06Z</time>
      </trkpt>
      <trkpt lat="45.95888" lon="4.89421">
        <ele>289</ele>
        <time>2016-10-02T10:17:07Z</time>
      </trkpt>
      <trkpt lat="45.95888" lon="4.89414">
        <ele>289</ele>
        <time>2016-10-02T10:17:08Z</time>
      </trkpt>
      <trkpt lat="45.95888" lon="4.89407">
        <ele>289</ele>
        <time>2016-10-02T10:17:09Z</time>
      </trkpt>
      <trkpt lat="45.95888" lon="4.89399">
        <ele>289</ele>
        <time>2016-10-02T10:17:10Z</time>
      </trkpt>
      <trkpt lat="45.95888" lon="4.89391">
        <ele>289</ele>
        <time>2016-10-02T10:17:11Z</time>
      </trkpt>
      <trkpt lat="45.95888" lon="4.89382">
        <ele>289</ele>
        <time>2016-10-02T10:17:12Z</time>
      </trkpt>
      <trkpt lat="45.95888" lon="4.89373">
        <ele>289</ele>
        <time>2016-10-02T10:17:13Z</time>
      </trkpt>
      <trkpt lat="45.95888" lon="4.89364">
        <ele>289</ele>
        <time>2016-10-02T10:17:14Z</time>
      </trkpt>
      <trkpt lat="45.95888" lon="4.89355">
        <ele>289</ele>
        <time>2016-10-02T10:17:15Z</time>
      </trkpt>
      <trkpt lat="45.95887" lon="4.89345">
        <ele>289</ele>
        <time>2016-10-02T10:17:16Z</time>
      </trkpt>
      <trkpt lat="45.95887" lon="4.89336">
        <ele>289</ele>
        <time>2016-10-02T10:17:17Z</time>
      </trkpt>
      <trkpt lat="45.95887" lon="4.89328">
        <ele>289</ele>
        <time>2016-10-02T10:17:18Z</time>
      </trkpt>
      <trkpt lat="45.95887" lon="4.89319">
        <ele>289</ele>
        <time>2016-10-02T10:17:19Z</time>
      </trkpt>
      <trkpt lat="45.95887" lon="4.89311">
        <ele>289</ele>
        <time>2016-10-02T10:17:20Z</time>
      </trkpt>
      <trkpt lat="45.95886" lon="4.89304">
        <ele>289</ele>
        <time>2016-10-02T10:17:21Z</time>
      </trkpt>
      <trkpt lat="45.95886" lon="4.89297">
        <ele>289</ele>
        <time>2016-10-02T10:17:22Z</time>
      </trkpt>
      <trkpt lat="45.95886" lon="4.8929">
        <ele>289</ele>
        <time>2016-10-02T10:17:23Z</time>
      </trkpt>
      <trkpt lat="45.95886" lon="4.89283">
        <ele>289</ele>
        <time>2016-10-02T10:17:24Z</time>
      </trkpt>
      <trkpt lat="45.95886" lon="4.89275">
        <ele>289</ele>
        <time>2016-10-02T10:17:25Z</time>
      </trkpt>
      <trkpt lat="45.95886" lon="4.89268">
        <ele>289</ele>
        <time>2016-10-02T10:17:26Z</time>
      </trkpt>
      <trkpt lat="45.95887" lon="4.89259">
        <ele>289</ele>
        <time>2016-10-02T10:17:27Z</time>
      </trkpt>
      <trkpt lat="45.95886" lon="4.89251">
        <ele>289</ele>
        <time>2016-10-02T10:17:28Z</time>
      </trkpt>
      <trkpt lat="45.95886" lon="4.89242">
        <ele>288</ele>
        <time>2016-10-02T10:17:29Z</time>
      </trkpt>
      <trkpt lat="45.95886" lon="4.89234">
        <ele>288</ele>
        <time>2016-10-02T10:17:30Z</time>
      </trkpt>
      <trkpt lat="45.95887" lon="4.89226">
        <ele>288</ele>
        <time>2016-10-02T10:17:31Z</time>
      </trkpt>
      <trkpt lat="45.95886" lon="4.89218">
        <ele>288</ele>
        <time>2016-10-02T10:17:32Z</time>
      </trkpt>
      <trkpt lat="45.95887" lon="4.8921">
        <ele>288</ele>
        <time>2016-10-02T10:17:33Z</time>
      </trkpt>
      <trkpt lat="45.95888" lon="4.89202">
        <ele>288</ele>
        <time>2016-10-02T10:17:34Z</time>
      </trkpt>
      <trkpt lat="45.95889" lon="4.89194">
        <ele>288</ele>
        <time>2016-10-02T10:17:35Z</time>
      </trkpt>
      <trkpt lat="45.95889" lon="4.89186">
        <ele>288</ele>
        <time>2016-10-02T10:17:36Z</time>
      </trkpt>
      <trkpt lat="45.95888" lon="4.89179">
        <ele>288</ele>
        <time>2016-10-02T10:17:37Z</time>
      </trkpt>
      <trkpt lat="45.95887" lon="4.89172">
        <ele>288</ele>
        <time>2016-10-02T10:17:38Z</time>
      </trkpt>
      <trkpt lat="45.95886" lon="4.89164">
        <ele>288</ele>
        <time>2016-10-02T10:17:39Z</time>
      </trkpt>
      <trkpt lat="45.95885" lon="4.89157">
        <ele>288</ele>
        <time>2016-10-02T10:17:40Z</time>
      </trkpt>
      <trkpt lat="45.95885" lon="4.8915">
        <ele>288</ele>
        <time>2016-10-02T10:17:41Z</time>
      </trkpt>
      <trkpt lat="45.95885" lon="4.89142">
        <ele>288</ele>
        <time>2016-10-02T10:17:42Z</time>
      </trkpt>
      <trkpt lat="45.95887" lon="4.8913">
        <ele>288</ele>
        <time>2016-10-02T10:17:44Z</time>
      </trkpt>
      <trkpt lat="45.95889" lon="4.89125">
        <ele>288</ele>
        <time>2016-10-02T10:17:45Z</time>
      </trkpt>
      <trkpt lat="45.95895" lon="4.89116">
        <ele>288</ele>
        <time>2016-10-02T10:17:48Z</time>
      </trkpt>
      <trkpt lat="45.95897" lon="4.89115">
        <ele>288</ele>
        <time>2016-10-02T10:17:49Z</time>
      </trkpt>
      <trkpt lat="45.95902" lon="4.8911">
        <ele>288</ele>
        <time>2016-10-02T10:17:51Z</time>
      </trkpt>
      <trkpt lat="45.95904" lon="4.89106">
        <ele>288</ele>
        <time>2016-10-02T10:17:52Z</time>
      </trkpt>
      <trkpt lat="45.95907" lon="4.89096">
        <ele>289</ele>
        <time>2016-10-02T10:17:54Z</time>
      </trkpt>
      <trkpt lat="45.95907" lon="4.8909">
        <ele>289</ele>
        <time>2016-10-02T10:17:55Z</time>
      </trkpt>
      <trkpt lat="45.95907" lon="4.89083">
        <ele>289</ele>
        <time>2016-10-02T10:17:56Z</time>
      </trkpt>
      <trkpt lat="45.95907" lon="4.89076">
        <ele>289</ele>
        <time>2016-10-02T10:17:57Z</time>
      </trkpt>
      <trkpt lat="45.95906" lon="4.89069">
        <ele>289</ele>
        <time>2016-10-02T10:17:58Z</time>
      </trkpt>
      <trkpt lat="45.95905" lon="4.89062">
        <ele>289</ele>
        <time>2016-10-02T10:17:59Z</time>
      </trkpt>
      <trkpt lat="45.95905" lon="4.89056">
        <ele>289</ele>
        <time>2016-10-02T10:18:00Z</time>
      </trkpt>
      <trkpt lat="45.95904" lon="4.89048">
        <ele>289</ele>
        <time>2016-10-02T10:18:01Z</time>
      </trkpt>
      <trkpt lat="45.95904" lon="4.8904">
        <ele>289</ele>
        <time>2016-10-02T10:18:02Z</time>
      </trkpt>
      <trkpt lat="45.95903" lon="4.89033">
        <ele>289</ele>
        <time>2016-10-02T10:18:03Z</time>
      </trkpt>
      <trkpt lat="45.95902" lon="4.89026">
        <ele>289</ele>
        <time>2016-10-02T10:18:04Z</time>
      </trkpt>
      <trkpt lat="45.95901" lon="4.89019">
        <ele>289</ele>
        <time>2016-10-02T10:18:05Z</time>
      </trkpt>
      <trkpt lat="45.95899" lon="4.89012">
        <ele>289</ele>
        <time>2016-10-02T10:18:06Z</time>
      </trkpt>
      <trkpt lat="45.95897" lon="4.89004">
        <ele>289</ele>
        <time>2016-10-02T10:18:07Z</time>
      </trkpt>
      <trkpt lat="45.95895" lon="4.88997">
        <ele>290</ele>
        <time>2016-10-02T10:18:08Z</time>
      </trkpt>
      <trkpt lat="45.95894" lon="4.8899">
        <ele>289</ele>
        <time>2016-10-02T10:18:09Z</time>
      </trkpt>
      <trkpt lat="45.95893" lon="4.88982">
        <ele>289</ele>
        <time>2016-10-02T10:18:10Z</time>
      </trkpt>
      <trkpt lat="45.95893" lon="4.88975">
        <ele>289</ele>
        <time>2016-10-02T10:18:11Z</time>
      </trkpt>
      <trkpt lat="45.95892" lon="4.88967">
        <ele>289</ele>
        <time>2016-10-02T10:18:12Z</time>
      </trkpt>
      <trkpt lat="45.95891" lon="4.8896">
        <ele>289</ele>
        <time>2016-10-02T10:18:13Z</time>
      </trkpt>
      <trkpt lat="45.9589" lon="4.88953">
        <ele>289</ele>
        <time>2016-10-02T10:18:14Z</time>
      </trkpt>
      <trkpt lat="45.9589" lon="4.88945">
        <ele>289</ele>
        <time>2016-10-02T10:18:15Z</time>
      </trkpt>
      <trkpt lat="45.95889" lon="4.88938">
        <ele>289</ele>
        <time>2016-10-02T10:18:16Z</time>
      </trkpt>
      <trkpt lat="45.95889" lon="4.8893">
        <ele>289</ele>
        <time>2016-10-02T10:18:17Z</time>
      </trkpt>
      <trkpt lat="45.95889" lon="4.88923">
        <ele>289</ele>
        <time>2016-10-02T10:18:18Z</time>
      </trkpt>
      <trkpt lat="45.95889" lon="4.88914">
        <ele>289</ele>
        <time>2016-10-02T10:18:19Z</time>
      </trkpt>
      <trkpt lat="45.9589" lon="4.88906">
        <ele>289</ele>
        <time>2016-10-02T10:18:20Z</time>
      </trkpt>
      <trkpt lat="45.95891" lon="4.88898">
        <ele>289</ele>
        <time>2016-10-02T10:18:21Z</time>
      </trkpt>
      <trkpt lat="45.9589" lon="4.88889">
        <ele>289</ele>
        <time>2016-10-02T10:18:22Z</time>
      </trkpt>
      <trkpt lat="45.95891" lon="4.8888">
        <ele>289</ele>
        <time>2016-10-02T10:18:23Z</time>
      </trkpt>
      <trkpt lat="45.9589" lon="4.88872">
        <ele>289</ele>
        <time>2016-10-02T10:18:24Z</time>
      </trkpt>
      <trkpt lat="45.9589" lon="4.88863">
        <ele>289</ele>
        <time>2016-10-02T10:18:25Z</time>
      </trkpt>
      <trkpt lat="45.9589" lon="4.88855">
        <ele>289</ele>
        <time>2016-10-02T10:18:26Z</time>
      </trkpt>
      <trkpt lat="45.95889" lon="4.88848">
        <ele>289</ele>
        <time>2016-10-02T10:18:27Z</time>
      </trkpt>
      <trkpt lat="45.95889" lon="4.8884">
        <ele>289</ele>
        <time>2016-10-02T10:18:28Z</time>
      </trkpt>
      <trkpt lat="45.95889" lon="4.88833">
        <ele>288</ele>
        <time>2016-10-02T10:18:29Z</time>
      </trkpt>
      <trkpt lat="45.95889" lon="4.88825">
        <ele>288</ele>
        <time>2016-10-02T10:18:30Z</time>
      </trkpt>
      <trkpt lat="45.95888" lon="4.88818">
        <ele>288</ele>
        <time>2016-10-02T10:18:31Z</time>
      </trkpt>
      <trkpt lat="45.95888" lon="4.88811">
        <ele>288</ele>
        <time>2016-10-02T10:18:32Z</time>
      </trkpt>
      <trkpt lat="45.95888" lon="4.88803">
        <ele>288</ele>
        <time>2016-10-02T10:18:33Z</time>
      </trkpt>
      <trkpt lat="45.95887" lon="4.88796">
        <ele>288</ele>
        <time>2016-10-02T10:18:34Z</time>
      </trkpt>
      <trkpt lat="45.95887" lon="4.88788">
        <ele>288</ele>
        <time>2016-10-02T10:18:35Z</time>
      </trkpt>
      <trkpt lat="45.95887" lon="4.8878">
        <ele>288</ele>
        <time>2016-10-02T10:18:36Z</time>
      </trkpt>
      <trkpt lat="45.95886" lon="4.88772">
        <ele>288</ele>
        <time>2016-10-02T10:18:37Z</time>
      </trkpt>
      <trkpt lat="45.95886" lon="4.88764">
        <ele>288</ele>
        <time>2016-10-02T10:18:38Z</time>
      </trkpt>
      <trkpt lat="45.95885" lon="4.88756">
        <ele>288</ele>
        <time>2016-10-02T10:18:39Z</time>
      </trkpt>
      <trkpt lat="45.95885" lon="4.88749">
        <ele>288</ele>
        <time>2016-10-02T10:18:40Z</time>
      </trkpt>
      <trkpt lat="45.95884" lon="4.8874">
        <ele>288</ele>
        <time>2016-10-02T10:18:41Z</time>
      </trkpt>
      <trkpt lat="45.95884" lon="4.88732">
        <ele>288</ele>
        <time>2016-10-02T10:18:42Z</time>
      </trkpt>
      <trkpt lat="45.95883" lon="4.88723">
        <ele>288</ele>
        <time>2016-10-02T10:18:43Z</time>
      </trkpt>
      <trkpt lat="45.95883" lon="4.88715">
        <ele>288</ele>
        <time>2016-10-02T10:18:44Z</time>
      </trkpt>
      <trkpt lat="45.95882" lon="4.88706">
        <ele>288</ele>
        <time>2016-10-02T10:18:45Z</time>
      </trkpt>
      <trkpt lat="45.9588" lon="4.88698">
        <ele>288</ele>
        <time>2016-10-02T10:18:46Z</time>
      </trkpt>
      <trkpt lat="45.9588" lon="4.8869">
        <ele>288</ele>
        <time>2016-10-02T10:18:47Z</time>
      </trkpt>
      <trkpt lat="45.95879" lon="4.88682">
        <ele>288</ele>
        <time>2016-10-02T10:18:48Z</time>
      </trkpt>
      <trkpt lat="45.95879" lon="4.88674">
        <ele>288</ele>
        <time>2016-10-02T10:18:49Z</time>
      </trkpt>
      <trkpt lat="45.95879" lon="4.88666">
        <ele>288</ele>
        <time>2016-10-02T10:18:50Z</time>
      </trkpt>
      <trkpt lat="45.95878" lon="4.88657">
        <ele>288</ele>
        <time>2016-10-02T10:18:51Z</time>
      </trkpt>
      <trkpt lat="45.95877" lon="4.8865">
        <ele>288</ele>
        <time>2016-10-02T10:18:52Z</time>
      </trkpt>
      <trkpt lat="45.95876" lon="4.88642">
        <ele>288</ele>
        <time>2016-10-02T10:18:53Z</time>
      </trkpt>
      <trkpt lat="45.95876" lon="4.88634">
        <ele>288</ele>
        <time>2016-10-02T10:18:54Z</time>
      </trkpt>
      <trkpt lat="45.95876" lon="4.88626">
        <ele>288</ele>
        <time>2016-10-02T10:18:55Z</time>
      </trkpt>
      <trkpt lat="45.95875" lon="4.88618">
        <ele>288</ele>
        <time>2016-10-02T10:18:56Z</time>
      </trkpt>
      <trkpt lat="45.95875" lon="4.8861">
        <ele>288</ele>
        <time>2016-10-02T10:18:57Z</time>
      </trkpt>
      <trkpt lat="45.95874" lon="4.88602">
        <ele>288</ele>
        <time>2016-10-02T10:18:58Z</time>
      </trkpt>
      <trkpt lat="45.95874" lon="4.88594">
        <ele>288</ele>
        <time>2016-10-02T10:18:59Z</time>
      </trkpt>
      <trkpt lat="45.95873" lon="4.88585">
        <ele>288</ele>
        <time>2016-10-02T10:19:00Z</time>
      </trkpt>
      <trkpt lat="45.95873" lon="4.88577">
        <ele>288</ele>
        <time>2016-10-02T10:19:01Z</time>
      </trkpt>
      <trkpt lat="45.95873" lon="4.88569">
        <ele>288</ele>
        <time>2016-10-02T10:19:02Z</time>
      </trkpt>
      <trkpt lat="45.95872" lon="4.88561">
        <ele>288</ele>
        <time>2016-10-02T10:19:03Z</time>
      </trkpt>
      <trkpt lat="45.95871" lon="4.88553">
        <ele>288</ele>
        <time>2016-10-02T10:19:04Z</time>
      </trkpt>
      <trkpt lat="45.95871" lon="4.88545">
        <ele>288</ele>
        <time>2016-10-02T10:19:05Z</time>
      </trkpt>
      <trkpt lat="45.95871" lon="4.88538">
        <ele>288</ele>
        <time>2016-10-02T10:19:06Z</time>
      </trkpt>
      <trkpt lat="45.95871" lon="4.88531">
        <ele>288</ele>
        <time>2016-10-02T10:19:07Z</time>
      </trkpt>
      <trkpt lat="45.95871" lon="4.88524">
        <ele>288</ele>
        <time>2016-10-02T10:19:08Z</time>
      </trkpt>
      <trkpt lat="45.95871" lon="4.88516">
        <ele>288</ele>
        <time>2016-10-02T10:19:09Z</time>
      </trkpt>
      <trkpt lat="45.9587" lon="4.88509">
        <ele>288</ele>
        <time>2016-10-02T10:19:10Z</time>
      </trkpt>
      <trkpt lat="45.9587" lon="4.88501">
        <ele>288</ele>
        <time>2016-10-02T10:19:11Z</time>
      </trkpt>
      <trkpt lat="45.9587" lon="4.88493">
        <ele>288</ele>
        <time>2016-10-02T10:19:12Z</time>
      </trkpt>
      <trkpt lat="45.95869" lon="4.88484">
        <ele>288</ele>
        <time>2016-10-02T10:19:13Z</time>
      </trkpt>
      <trkpt lat="45.95869" lon="4.88475">
        <ele>288</ele>
        <time>2016-10-02T10:19:14Z</time>
      </trkpt>
      <trkpt lat="45.95868" lon="4.88466">
        <ele>287</ele>
        <time>2016-10-02T10:19:15Z</time>
      </trkpt>
      <trkpt lat="45.95868" lon="4.88457">
        <ele>287</ele>
        <time>2016-10-02T10:19:16Z</time>
      </trkpt>
      <trkpt lat="45.95868" lon="4.88448">
        <ele>287</ele>
        <time>2016-10-02T10:19:17Z</time>
      </trkpt>
      <trkpt lat="45.95867" lon="4.88438">
        <ele>287</ele>
        <time>2016-10-02T10:19:18Z</time>
      </trkpt>
      <trkpt lat="45.95867" lon="4.88429">
        <ele>287</ele>
        <time>2016-10-02T10:19:19Z</time>
      </trkpt>
      <trkpt lat="45.95867" lon="4.8842">
        <ele>287</ele>
        <time>2016-10-02T10:19:20Z</time>
      </trkpt>
      <trkpt lat="45.95867" lon="4.88411">
        <ele>287</ele>
        <time>2016-10-02T10:19:21Z</time>
      </trkpt>
      <trkpt lat="45.95865" lon="4.88402">
        <ele>287</ele>
        <time>2016-10-02T10:19:22Z</time>
      </trkpt>
      <trkpt lat="45.95864" lon="4.88394">
        <ele>287</ele>
        <time>2016-10-02T10:19:23Z</time>
      </trkpt>
      <trkpt lat="45.95864" lon="4.88385">
        <ele>287</ele>
        <time>2016-10-02T10:19:24Z</time>
      </trkpt>
      <trkpt lat="45.95863" lon="4.88378">
        <ele>287</ele>
        <time>2016-10-02T10:19:25Z</time>
      </trkpt>
      <trkpt lat="45.95863" lon="4.8837">
        <ele>287</ele>
        <time>2016-10-02T10:19:26Z</time>
      </trkpt>
      <trkpt lat="45.95862" lon="4.88362">
        <ele>287</ele>
        <time>2016-10-02T10:19:27Z</time>
      </trkpt>
      <trkpt lat="45.95862" lon="4.88355">
        <ele>287</ele>
        <time>2016-10-02T10:19:28Z</time>
      </trkpt>
      <trkpt lat="45.95862" lon="4.88347">
        <ele>287</ele>
        <time>2016-10-02T10:19:29Z</time>
      </trkpt>
      <trkpt lat="45.95862" lon="4.88339">
        <ele>287</ele>
        <time>2016-10-02T10:19:30Z</time>
      </trkpt>
      <trkpt lat="45.95861" lon="4.88331">
        <ele>288</ele>
        <time>2016-10-02T10:19:31Z</time>
      </trkpt>
      <trkpt lat="45.95862" lon="4.88323">
        <ele>288</ele>
        <time>2016-10-02T10:19:32Z</time>
      </trkpt>
      <trkpt lat="45.95861" lon="4.88315">
        <ele>288</ele>
        <time>2016-10-02T10:19:33Z</time>
      </trkpt>
      <trkpt lat="45.95861" lon="4.88306">
        <ele>288</ele>
        <time>2016-10-02T10:19:34Z</time>
      </trkpt>
      <trkpt lat="45.95861" lon="4.88298">
        <ele>288</ele>
        <time>2016-10-02T10:19:35Z</time>
      </trkpt>
      <trkpt lat="45.95861" lon="4.8829">
        <ele>288</ele>
        <time>2016-10-02T10:19:36Z</time>
      </trkpt>
      <trkpt lat="45.95861" lon="4.88282">
        <ele>288</ele>
        <time>2016-10-02T10:19:37Z</time>
      </trkpt>
      <trkpt lat="45.9586" lon="4.88274">
        <ele>288</ele>
        <time>2016-10-02T10:19:38Z</time>
      </trkpt>
      <trkpt lat="45.9586" lon="4.88267">
        <ele>288</ele>
        <time>2016-10-02T10:19:39Z</time>
      </trkpt>
      <trkpt lat="45.95859" lon="4.88259">
        <ele>288</ele>
        <time>2016-10-02T10:19:40Z</time>
      </trkpt>
      <trkpt lat="45.95859" lon="4.88251">
        <ele>287</ele>
        <time>2016-10-02T10:19:41Z</time>
      </trkpt>
      <trkpt lat="45.95858" lon="4.88243">
        <ele>288</ele>
        <time>2016-10-02T10:19:42Z</time>
      </trkpt>
      <trkpt lat="45.95858" lon="4.88235">
        <ele>288</ele>
        <time>2016-10-02T10:19:43Z</time>
      </trkpt>
      <trkpt lat="45.95858" lon="4.88227">
        <ele>288</ele>
        <time>2016-10-02T10:19:44Z</time>
      </trkpt>
      <trkpt lat="45.95858" lon="4.88218">
        <ele>288</ele>
        <time>2016-10-02T10:19:45Z</time>
      </trkpt>
      <trkpt lat="45.95857" lon="4.8821">
        <ele>288</ele>
        <time>2016-10-02T10:19:46Z</time>
      </trkpt>
      <trkpt lat="45.95857" lon="4.88201">
        <ele>288</ele>
        <time>2016-10-02T10:19:47Z</time>
      </trkpt>
      <trkpt lat="45.95856" lon="4.88193">
        <ele>288</ele>
        <time>2016-10-02T10:19:48Z</time>
      </trkpt>
      <trkpt lat="45.95855" lon="4.88186">
        <ele>288</ele>
        <time>2016-10-02T10:19:49Z</time>
      </trkpt>
      <trkpt lat="45.95854" lon="4.88178">
        <ele>288</ele>
        <time>2016-10-02T10:19:50Z</time>
      </trkpt>
      <trkpt lat="45.95855" lon="4.88171">
        <ele>288</ele>
        <time>2016-10-02T10:19:51Z</time>
      </trkpt>
      <trkpt lat="45.95855" lon="4.88164">
        <ele>288</ele>
        <time>2016-10-02T10:19:52Z</time>
      </trkpt>
      <trkpt lat="45.95854" lon="4.88157">
        <ele>288</ele>
        <time>2016-10-02T10:19:53Z</time>
      </trkpt>
      <trkpt lat="45.95853" lon="4.88151">
        <ele>288</ele>
        <time>2016-10-02T10:19:54Z</time>
      </trkpt>
      <trkpt lat="45.95853" lon="4.88144">
        <ele>288</ele>
        <time>2016-10-02T10:19:55Z</time>
      </trkpt>
      <trkpt lat="45.95853" lon="4.88137">
        <ele>289</ele>
        <time>2016-10-02T10:19:56Z</time>
      </trkpt>
      <trkpt lat="45.95853" lon="4.88129">
        <ele>289</ele>
        <time>2016-10-02T10:19:57Z</time>
      </trkpt>
      <trkpt lat="45.95853" lon="4.88122">
        <ele>289</ele>
        <time>2016-10-02T10:19:58Z</time>
      </trkpt>
      <trkpt lat="45.95853" lon="4.88114">
        <ele>289</ele>
        <time>2016-10-02T10:19:59Z</time>
      </trkpt>
      <trkpt lat="45.95852" lon="4.88106">
        <ele>289</ele>
        <time>2016-10-02T10:20:00Z</time>
      </trkpt>
      <trkpt lat="45.95851" lon="4.88097">
        <ele>288</ele>
        <time>2016-10-02T10:20:01Z</time>
      </trkpt>
      <trkpt lat="45.95851" lon="4.88089">
        <ele>288</ele>
        <time>2016-10-02T10:20:02Z</time>
      </trkpt>
      <trkpt lat="45.9585" lon="4.8808">
        <ele>289</ele>
        <time>2016-10-02T10:20:03Z</time>
      </trkpt>
      <trkpt lat="45.9585" lon="4.88072">
        <ele>289</ele>
        <time>2016-10-02T10:20:04Z</time>
      </trkpt>
      <trkpt lat="45.95849" lon="4.88063">
        <ele>289</ele>
        <time>2016-10-02T10:20:05Z</time>
      </trkpt>
      <trkpt lat="45.9585" lon="4.88055">
        <ele>289</ele>
        <time>2016-10-02T10:20:06Z</time>
      </trkpt>
      <trkpt lat="45.9585" lon="4.88047">
        <ele>289</ele>
        <time>2016-10-02T10:20:07Z</time>
      </trkpt>
      <trkpt lat="45.9585" lon="4.88039">
        <ele>289</ele>
        <time>2016-10-02T10:20:08Z</time>
      </trkpt>
      <trkpt lat="45.95849" lon="4.88032">
        <ele>289</ele>
        <time>2016-10-02T10:20:09Z</time>
      </trkpt>
      <trkpt lat="45.95849" lon="4.88024">
        <ele>289</ele>
        <time>2016-10-02T10:20:10Z</time>
      </trkpt>
      <trkpt lat="45.95849" lon="4.88016">
        <ele>289</ele>
        <time>2016-10-02T10:20:11Z</time>
      </trkpt>
      <trkpt lat="45.95848" lon="4.88009">
        <ele>289</ele>
        <time>2016-10-02T10:20:12Z</time>
      </trkpt>
      <trkpt lat="45.95848" lon="4.88001">
        <ele>288</ele>
        <time>2016-10-02T10:20:13Z</time>
      </trkpt>
      <trkpt lat="45.95848" lon="4.87993">
        <ele>289</ele>
        <time>2016-10-02T10:20:14Z</time>
      </trkpt>
      <trkpt lat="45.95848" lon="4.87986">
        <ele>289</ele>
        <time>2016-10-02T10:20:15Z</time>
      </trkpt>
      <trkpt lat="45.95848" lon="4.87978">
        <ele>289</ele>
        <time>2016-10-02T10:20:16Z</time>
      </trkpt>
      <trkpt lat="45.95847" lon="4.87971">
        <ele>289</ele>
        <time>2016-10-02T10:20:17Z</time>
      </trkpt>
      <trkpt lat="45.95847" lon="4.87963">
        <ele>289</ele>
        <time>2016-10-02T10:20:18Z</time>
      </trkpt>
      <trkpt lat="45.95845" lon="4.87956">
        <ele>289</ele>
        <time>2016-10-02T10:20:19Z</time>
      </trkpt>
      <trkpt lat="45.95844" lon="4.87948">
        <ele>289</ele>
        <time>2016-10-02T10:20:20Z</time>
      </trkpt>
      <trkpt lat="45.95845" lon="4.87939">
        <ele>289</ele>
        <time>2016-10-02T10:20:21Z</time>
      </trkpt>
      <trkpt lat="45.95845" lon="4.87931">
        <ele>289</ele>
        <time>2016-10-02T10:20:22Z</time>
      </trkpt>
      <trkpt lat="45.95843" lon="4.87924">
        <ele>289</ele>
        <time>2016-10-02T10:20:23Z</time>
      </trkpt>
      <trkpt lat="45.95843" lon="4.87917">
        <ele>289</ele>
        <time>2016-10-02T10:20:24Z</time>
      </trkpt>
      <trkpt lat="45.95842" lon="4.87909">
        <ele>289</ele>
        <time>2016-10-02T10:20:25Z</time>
      </trkpt>
      <trkpt lat="45.95841" lon="4.879">
        <ele>289</ele>
        <time>2016-10-02T10:20:26Z</time>
      </trkpt>
      <trkpt lat="45.95841" lon="4.87892">
        <ele>289</ele>
        <time>2016-10-02T10:20:27Z</time>
      </trkpt>
      <trkpt lat="45.95842" lon="4.87883">
        <ele>289</ele>
        <time>2016-10-02T10:20:28Z</time>
      </trkpt>
      <trkpt lat="45.95841" lon="4.87874">
        <ele>289</ele>
        <time>2016-10-02T10:20:29Z</time>
      </trkpt>
      <trkpt lat="45.95841" lon="4.87866">
        <ele>289</ele>
        <time>2016-10-02T10:20:30Z</time>
      </trkpt>
      <trkpt lat="45.9584" lon="4.87857">
        <ele>289</ele>
        <time>2016-10-02T10:20:31Z</time>
      </trkpt>
      <trkpt lat="45.95839" lon="4.87849">
        <ele>288</ele>
        <time>2016-10-02T10:20:32Z</time>
      </trkpt>
      <trkpt lat="45.95838" lon="4.8784">
        <ele>288</ele>
        <time>2016-10-02T10:20:33Z</time>
      </trkpt>
      <trkpt lat="45.95838" lon="4.87831">
        <ele>288</ele>
        <time>2016-10-02T10:20:34Z</time>
      </trkpt>
      <trkpt lat="45.95837" lon="4.87822">
        <ele>288</ele>
        <time>2016-10-02T10:20:35Z</time>
      </trkpt>
      <trkpt lat="45.95836" lon="4.87813">
        <ele>288</ele>
        <time>2016-10-02T10:20:36Z</time>
      </trkpt>
      <trkpt lat="45.95835" lon="4.87804">
        <ele>287</ele>
        <time>2016-10-02T10:20:37Z</time>
      </trkpt>
      <trkpt lat="45.95834" lon="4.87794">
        <ele>287</ele>
        <time>2016-10-02T10:20:38Z</time>
      </trkpt>
      <trkpt lat="45.95833" lon="4.87784">
        <ele>285</ele>
        <time>2016-10-02T10:20:39Z</time>
      </trkpt>
      <trkpt lat="45.95832" lon="4.87774">
        <ele>285</ele>
        <time>2016-10-02T10:20:40Z</time>
      </trkpt>
      <trkpt lat="45.9583" lon="4.87764">
        <ele>285</ele>
        <time>2016-10-02T10:20:41Z</time>
      </trkpt>
      <trkpt lat="45.95828" lon="4.87755">
        <ele>285</ele>
        <time>2016-10-02T10:20:42Z</time>
      </trkpt>
      <trkpt lat="45.95826" lon="4.87745">
        <ele>284</ele>
        <time>2016-10-02T10:20:43Z</time>
      </trkpt>
      <trkpt lat="45.95823" lon="4.87736">
        <ele>284</ele>
        <time>2016-10-02T10:20:44Z</time>
      </trkpt>
      <trkpt lat="45.95822" lon="4.87726">
        <ele>284</ele>
        <time>2016-10-02T10:20:45Z</time>
      </trkpt>
      <trkpt lat="45.9582" lon="4.87716">
        <ele>283</ele>
        <time>2016-10-02T10:20:46Z</time>
      </trkpt>
      <trkpt lat="45.95818" lon="4.87706">
        <ele>283</ele>
        <time>2016-10-02T10:20:47Z</time>
      </trkpt>
      <trkpt lat="45.95816" lon="4.87696">
        <ele>283</ele>
        <time>2016-10-02T10:20:48Z</time>
      </trkpt>
      <trkpt lat="45.95813" lon="4.87686">
        <ele>283</ele>
        <time>2016-10-02T10:20:49Z</time>
      </trkpt>
      <trkpt lat="45.9581" lon="4.87677">
        <ele>283</ele>
        <time>2016-10-02T10:20:50Z</time>
      </trkpt>
      <trkpt lat="45.95808" lon="4.87667">
        <ele>283</ele>
        <time>2016-10-02T10:20:51Z</time>
      </trkpt>
      <trkpt lat="45.95806" lon="4.87656">
        <ele>283</ele>
        <time>2016-10-02T10:20:52Z</time>
      </trkpt>
      <trkpt lat="45.95801" lon="4.87647">
        <ele>283</ele>
        <time>2016-10-02T10:20:53Z</time>
      </trkpt>
      <trkpt lat="45.95796" lon="4.87637">
        <ele>282</ele>
        <time>2016-10-02T10:20:54Z</time>
      </trkpt>
      <trkpt lat="45.95792" lon="4.87628">
        <ele>282</ele>
        <time>2016-10-02T10:20:55Z</time>
      </trkpt>
      <trkpt lat="45.95788" lon="4.87618">
        <ele>282</ele>
        <time>2016-10-02T10:20:56Z</time>
      </trkpt>
      <trkpt lat="45.95783" lon="4.87607">
        <ele>282</ele>
        <time>2016-10-02T10:20:57Z</time>
      </trkpt>
      <trkpt lat="45.95777" lon="4.87597">
        <ele>281</ele>
        <time>2016-10-02T10:20:58Z</time>
      </trkpt>
      <trkpt lat="45.95771" lon="4.87586">
        <ele>281</ele>
        <time>2016-10-02T10:20:59Z</time>
      </trkpt>
      <trkpt lat="45.95766" lon="4.87575">
        <ele>280</ele>
        <time>2016-10-02T10:21:00Z</time>
      </trkpt>
      <trkpt lat="45.9576" lon="4.87564">
        <ele>281</ele>
        <time>2016-10-02T10:21:01Z</time>
      </trkpt>
      <trkpt lat="45.95755" lon="4.87553">
        <ele>281</ele>
        <time>2016-10-02T10:21:02Z</time>
      </trkpt>
      <trkpt lat="45.95749" lon="4.87541">
        <ele>277</ele>
        <time>2016-10-02T10:21:03Z</time>
      </trkpt>
      <trkpt lat="45.95744" lon="4.8753">
        <ele>277</ele>
        <time>2016-10-02T10:21:04Z</time>
      </trkpt>
      <trkpt lat="45.95739" lon="4.87519">
        <ele>277</ele>
        <time>2016-10-02T10:21:05Z</time>
      </trkpt>
      <trkpt lat="45.95733" lon="4.87508">
        <ele>277</ele>
        <time>2016-10-02T10:21:06Z</time>
      </trkpt>
      <trkpt lat="45.95729" lon="4.87497">
        <ele>277</ele>
        <time>2016-10-02T10:21:07Z</time>
      </trkpt>
      <trkpt lat="45.95723" lon="4.87486">
        <ele>276</ele>
        <time>2016-10-02T10:21:08Z</time>
      </trkpt>
      <trkpt lat="45.95718" lon="4.87476">
        <ele>276</ele>
        <time>2016-10-02T10:21:09Z</time>
      </trkpt>
      <trkpt lat="45.95714" lon="4.87466">
        <ele>276</ele>
        <time>2016-10-02T10:21:10Z</time>
      </trkpt>
      <trkpt lat="45.95709" lon="4.87456">
        <ele>276</ele>
        <time>2016-10-02T10:21:11Z</time>
      </trkpt>
      <trkpt lat="45.95704" lon="4.87446">
        <ele>275</ele>
        <time>2016-10-02T10:21:12Z</time>
      </trkpt>
      <trkpt lat="45.957" lon="4.87435">
        <ele>275</ele>
        <time>2016-10-02T10:21:13Z</time>
      </trkpt>
      <trkpt lat="45.95695" lon="4.87426">
        <ele>275</ele>
        <time>2016-10-02T10:21:14Z</time>
      </trkpt>
      <trkpt lat="45.9569" lon="4.87416">
        <ele>275</ele>
        <time>2016-10-02T10:21:15Z</time>
      </trkpt>
      <trkpt lat="45.95685" lon="4.87407">
        <ele>274</ele>
        <time>2016-10-02T10:21:16Z</time>
      </trkpt>
      <trkpt lat="45.9568" lon="4.87398">
        <ele>274</ele>
        <time>2016-10-02T10:21:17Z</time>
      </trkpt>
      <trkpt lat="45.95676" lon="4.87389">
        <ele>274</ele>
        <time>2016-10-02T10:21:18Z</time>
      </trkpt>
      <trkpt lat="45.95671" lon="4.87379">
        <ele>274</ele>
        <time>2016-10-02T10:21:19Z</time>
      </trkpt>
      <trkpt lat="45.95667" lon="4.87371">
        <ele>274</ele>
        <time>2016-10-02T10:21:20Z</time>
      </trkpt>
      <trkpt lat="45.95661" lon="4.87362">
        <ele>272</ele>
        <time>2016-10-02T10:21:21Z</time>
      </trkpt>
      <trkpt lat="45.95657" lon="4.87354">
        <ele>272</ele>
        <time>2016-10-02T10:21:22Z</time>
      </trkpt>
      <trkpt lat="45.95652" lon="4.87345">
        <ele>272</ele>
        <time>2016-10-02T10:21:23Z</time>
      </trkpt>
      <trkpt lat="45.95647" lon="4.87336">
        <ele>272</ele>
        <time>2016-10-02T10:21:24Z</time>
      </trkpt>
      <trkpt lat="45.95642" lon="4.87328">
        <ele>272</ele>
        <time>2016-10-02T10:21:25Z</time>
      </trkpt>
      <trkpt lat="45.95638" lon="4.87319">
        <ele>272</ele>
        <time>2016-10-02T10:21:26Z</time>
      </trkpt>
      <trkpt lat="45.95634" lon="4.87311">
        <ele>272</ele>
        <time>2016-10-02T10:21:27Z</time>
      </trkpt>
      <trkpt lat="45.9563" lon="4.87302">
        <ele>272</ele>
        <time>2016-10-02T10:21:28Z</time>
      </trkpt>
      <trkpt lat="45.95626" lon="4.87294">
        <ele>272</ele>
        <time>2016-10-02T10:21:29Z</time>
      </trkpt>
      <trkpt lat="45.95621" lon="4.87286">
        <ele>272</ele>
        <time>2016-10-02T10:21:30Z</time>
      </trkpt>
      <trkpt lat="45.95617" lon="4.87277">
        <ele>272</ele>
        <time>2016-10-02T10:21:31Z</time>
      </trkpt>
      <trkpt lat="45.95612" lon="4.87269">
        <ele>272</ele>
        <time>2016-10-02T10:21:32Z</time>
      </trkpt>
      <trkpt lat="45.95608" lon="4.8726">
        <ele>272</ele>
        <time>2016-10-02T10:21:33Z</time>
      </trkpt>
      <trkpt lat="45.95604" lon="4.87252">
        <ele>271</ele>
        <time>2016-10-02T10:21:34Z</time>
      </trkpt>
      <trkpt lat="45.956" lon="4.87242">
        <ele>272</ele>
        <time>2016-10-02T10:21:35Z</time>
      </trkpt>
      <trkpt lat="45.95595" lon="4.87233">
        <ele>272</ele>
        <time>2016-10-02T10:21:36Z</time>
      </trkpt>
      <trkpt lat="45.95591" lon="4.87223">
        <ele>272</ele>
        <time>2016-10-02T10:21:37Z</time>
      </trkpt>
      <trkpt lat="45.95586" lon="4.87213">
        <ele>272</ele>
        <time>2016-10-02T10:21:38Z</time>
      </trkpt>
      <trkpt lat="45.95582" lon="4.87203">
        <ele>270</ele>
        <time>2016-10-02T10:21:39Z</time>
      </trkpt>
      <trkpt lat="45.95577" lon="4.87194">
        <ele>270</ele>
        <time>2016-10-02T10:21:40Z</time>
      </trkpt>
      <trkpt lat="45.95572" lon="4.87184">
        <ele>270</ele>
        <time>2016-10-02T10:21:41Z</time>
      </trkpt>
      <trkpt lat="45.95567" lon="4.87175">
        <ele>270</ele>
        <time>2016-10-02T10:21:42Z</time>
      </trkpt>
      <trkpt lat="45.95563" lon="4.87166">
        <ele>270</ele>
        <time>2016-10-02T10:21:43Z</time>
      </trkpt>
      <trkpt lat="45.95558" lon="4.87157">
        <ele>270</ele>
        <time>2016-10-02T10:21:44Z</time>
      </trkpt>
      <trkpt lat="45.95555" lon="4.87147">
        <ele>270</ele>
        <time>2016-10-02T10:21:45Z</time>
      </trkpt>
      <trkpt lat="45.95551" lon="4.87139">
        <ele>270</ele>
        <time>2016-10-02T10:21:46Z</time>
      </trkpt>
      <trkpt lat="45.95547" lon="4.8713">
        <ele>270</ele>
        <time>2016-10-02T10:21:47Z</time>
      </trkpt>
      <trkpt lat="45.95543" lon="4.87121">
        <ele>269</ele>
        <time>2016-10-02T10:21:48Z</time>
      </trkpt>
      <trkpt lat="45.9554" lon="4.87113">
        <ele>269</ele>
        <time>2016-10-02T10:21:49Z</time>
      </trkpt>
      <trkpt lat="45.95535" lon="4.87104">
        <ele>269</ele>
        <time>2016-10-02T10:21:50Z</time>
      </trkpt>
      <trkpt lat="45.95531" lon="4.87097">
        <ele>269</ele>
        <time>2016-10-02T10:21:51Z</time>
      </trkpt>
      <trkpt lat="45.95527" lon="4.87089">
        <ele>269</ele>
        <time>2016-10-02T10:21:52Z</time>
      </trkpt>
      <trkpt lat="45.95524" lon="4.8708">
        <ele>268</ele>
        <time>2016-10-02T10:21:53Z</time>
      </trkpt>
      <trkpt lat="45.9552" lon="4.87074">
        <ele>268</ele>
        <time>2016-10-02T10:21:54Z</time>
      </trkpt>
      <trkpt lat="45.95516" lon="4.87067">
        <ele>268</ele>
        <time>2016-10-02T10:21:55Z</time>
      </trkpt>
      <trkpt lat="45.95513" lon="4.8706">
        <ele>268</ele>
        <time>2016-10-02T10:21:56Z</time>
      </trkpt>
      <trkpt lat="45.9551" lon="4.87053">
        <ele>268</ele>
        <time>2016-10-02T10:21:57Z</time>
      </trkpt>
      <trkpt lat="45.95506" lon="4.87046">
        <ele>268</ele>
        <time>2016-10-02T10:21:58Z</time>
      </trkpt>
      <trkpt lat="45.95503" lon="4.87039">
        <ele>268</ele>
        <time>2016-10-02T10:21:59Z</time>
      </trkpt>
      <trkpt lat="45.95499" lon="4.87032">
        <ele>269</ele>
        <time>2016-10-02T10:22:00Z</time>
      </trkpt>
      <trkpt lat="45.95496" lon="4.87025">
        <ele>269</ele>
        <time>2016-10-02T10:22:01Z</time>
      </trkpt>
      <trkpt lat="45.95492" lon="4.87018">
        <ele>269</ele>
        <time>2016-10-02T10:22:02Z</time>
      </trkpt>
      <trkpt lat="45.95489" lon="4.87011">
        <ele>268</ele>
        <time>2016-10-02T10:22:03Z</time>
      </trkpt>
      <trkpt lat="45.95486" lon="4.87004">
        <ele>268</ele>
        <time>2016-10-02T10:22:04Z</time>
      </trkpt>
      <trkpt lat="45.95482" lon="4.86998">
        <ele>268</ele>
        <time>2016-10-02T10:22:05Z</time>
      </trkpt>
      <trkpt lat="45.9548" lon="4.86991">
        <ele>268</ele>
        <time>2016-10-02T10:22:06Z</time>
      </trkpt>
      <trkpt lat="45.95475" lon="4.86984">
        <ele>268</ele>
        <time>2016-10-02T10:22:07Z</time>
      </trkpt>
      <trkpt lat="45.95473" lon="4.86977">
        <ele>268</ele>
        <time>2016-10-02T10:22:08Z</time>
      </trkpt>
      <trkpt lat="45.95469" lon="4.8697">
        <ele>268</ele>
        <time>2016-10-02T10:22:09Z</time>
      </trkpt>
      <trkpt lat="45.95465" lon="4.86962">
        <ele>268</ele>
        <time>2016-10-02T10:22:10Z</time>
      </trkpt>
      <trkpt lat="45.95462" lon="4.86955">
        <ele>268</ele>
        <time>2016-10-02T10:22:11Z</time>
      </trkpt>
      <trkpt lat="45.95458" lon="4.86947">
        <ele>268</ele>
        <time>2016-10-02T10:22:12Z</time>
      </trkpt>
      <trkpt lat="45.95454" lon="4.86939">
        <ele>268</ele>
        <time>2016-10-02T10:22:13Z</time>
      </trkpt>
      <trkpt lat="45.9545" lon="4.86932">
        <ele>268</ele>
        <time>2016-10-02T10:22:14Z</time>
      </trkpt>
      <trkpt lat="45.95446" lon="4.86924">
        <ele>269</ele>
        <time>2016-10-02T10:22:15Z</time>
      </trkpt>
      <trkpt lat="45.95442" lon="4.86916">
        <ele>268</ele>
        <time>2016-10-02T10:22:16Z</time>
      </trkpt>
      <trkpt lat="45.95438" lon="4.86908">
        <ele>268</ele>
        <time>2016-10-02T10:22:17Z</time>
      </trkpt>
      <trkpt lat="45.95434" lon="4.86899">
        <ele>268</ele>
        <time>2016-10-02T10:22:18Z</time>
      </trkpt>
      <trkpt lat="45.9543" lon="4.86891">
        <ele>268</ele>
        <time>2016-10-02T10:22:19Z</time>
      </trkpt>
      <trkpt lat="45.95426" lon="4.86883">
        <ele>268</ele>
        <time>2016-10-02T10:22:20Z</time>
      </trkpt>
      <trkpt lat="45.95422" lon="4.86875">
        <ele>268</ele>
        <time>2016-10-02T10:22:21Z</time>
      </trkpt>
      <trkpt lat="45.95419" lon="4.86866">
        <ele>268</ele>
        <time>2016-10-02T10:22:22Z</time>
      </trkpt>
      <trkpt lat="45.95416" lon="4.86857">
        <ele>269</ele>
        <time>2016-10-02T10:22:23Z</time>
      </trkpt>
      <trkpt lat="45.95412" lon="4.86849">
        <ele>268</ele>
        <time>2016-10-02T10:22:24Z</time>
      </trkpt>
      <trkpt lat="45.95407" lon="4.86841">
        <ele>268</ele>
        <time>2016-10-02T10:22:25Z</time>
      </trkpt>
      <trkpt lat="45.95403" lon="4.86834">
        <ele>268</ele>
        <time>2016-10-02T10:22:26Z</time>
      </trkpt>
      <trkpt lat="45.95399" lon="4.86826">
        <ele>268</ele>
        <time>2016-10-02T10:22:27Z</time>
      </trkpt>
      <trkpt lat="45.95396" lon="4.86819">
        <ele>268</ele>
        <time>2016-10-02T10:22:28Z</time>
      </trkpt>
      <trkpt lat="45.95392" lon="4.86812">
        <ele>268</ele>
        <time>2016-10-02T10:22:29Z</time>
      </trkpt>
      <trkpt lat="45.95389" lon="4.86805">
        <ele>268</ele>
        <time>2016-10-02T10:22:30Z</time>
      </trkpt>
      <trkpt lat="45.95385" lon="4.86798">
        <ele>268</ele>
        <time>2016-10-02T10:22:31Z</time>
      </trkpt>
      <trkpt lat="45.95382" lon="4.86791">
        <ele>268</ele>
        <time>2016-10-02T10:22:32Z</time>
      </trkpt>
      <trkpt lat="45.95378" lon="4.86785">
        <ele>268</ele>
        <time>2016-10-02T10:22:33Z</time>
      </trkpt>
      <trkpt lat="45.95374" lon="4.86778">
        <ele>268</ele>
        <time>2016-10-02T10:22:34Z</time>
      </trkpt>
      <trkpt lat="45.95371" lon="4.8677">
        <ele>268</ele>
        <time>2016-10-02T10:22:35Z</time>
      </trkpt>
      <trkpt lat="45.95367" lon="4.86763">
        <ele>268</ele>
        <time>2016-10-02T10:22:36Z</time>
      </trkpt>
      <trkpt lat="45.95363" lon="4.86756">
        <ele>268</ele>
        <time>2016-10-02T10:22:37Z</time>
      </trkpt>
      <trkpt lat="45.9536" lon="4.86748">
        <ele>268</ele>
        <time>2016-10-02T10:22:38Z</time>
      </trkpt>
      <trkpt lat="45.95356" lon="4.8674">
        <ele>268</ele>
        <time>2016-10-02T10:22:39Z</time>
      </trkpt>
      <trkpt lat="45.95352" lon="4.86733">
        <ele>268</ele>
        <time>2016-10-02T10:22:40Z</time>
      </trkpt>
      <trkpt lat="45.95348" lon="4.86725">
        <ele>268</ele>
        <time>2016-10-02T10:22:41Z</time>
      </trkpt>
      <trkpt lat="45.95344" lon="4.86717">
        <ele>268</ele>
        <time>2016-10-02T10:22:42Z</time>
      </trkpt>
      <trkpt lat="45.9534" lon="4.86709">
        <ele>268</ele>
        <time>2016-10-02T10:22:43Z</time>
      </trkpt>
      <trkpt lat="45.95337" lon="4.86702">
        <ele>268</ele>
        <time>2016-10-02T10:22:44Z</time>
      </trkpt>
      <trkpt lat="45.95334" lon="4.86695">
        <ele>268</ele>
        <time>2016-10-02T10:22:45Z</time>
      </trkpt>
      <trkpt lat="45.9533" lon="4.86688">
        <ele>269</ele>
        <time>2016-10-02T10:22:46Z</time>
      </trkpt>
      <trkpt lat="45.95327" lon="4.86681">
        <ele>269</ele>
        <time>2016-10-02T10:22:47Z</time>
      </trkpt>
      <trkpt lat="45.95323" lon="4.86674">
        <ele>268</ele>
        <time>2016-10-02T10:22:48Z</time>
      </trkpt>
      <trkpt lat="45.95319" lon="4.86668">
        <ele>269</ele>
        <time>2016-10-02T10:22:49Z</time>
      </trkpt>
      <trkpt lat="45.95316" lon="4.86662">
        <ele>268</ele>
        <time>2016-10-02T10:22:50Z</time>
      </trkpt>
      <trkpt lat="45.95313" lon="4.86655">
        <ele>268</ele>
        <time>2016-10-02T10:22:51Z</time>
      </trkpt>
      <trkpt lat="45.95309" lon="4.86648">
        <ele>268</ele>
        <time>2016-10-02T10:22:52Z</time>
      </trkpt>
      <trkpt lat="45.95306" lon="4.8664">
        <ele>268</ele>
        <time>2016-10-02T10:22:53Z</time>
      </trkpt>
      <trkpt lat="45.95303" lon="4.86633">
        <ele>268</ele>
        <time>2016-10-02T10:22:54Z</time>
      </trkpt>
      <trkpt lat="45.95299" lon="4.86625">
        <ele>268</ele>
        <time>2016-10-02T10:22:55Z</time>
      </trkpt>
      <trkpt lat="45.95295" lon="4.86617">
        <ele>268</ele>
        <time>2016-10-02T10:22:56Z</time>
      </trkpt>
      <trkpt lat="45.9529" lon="4.86608">
        <ele>268</ele>
        <time>2016-10-02T10:22:57Z</time>
      </trkpt>
      <trkpt lat="45.95286" lon="4.866">
        <ele>268</ele>
        <time>2016-10-02T10:22:58Z</time>
      </trkpt>
      <trkpt lat="45.9528" lon="4.86592">
        <ele>268</ele>
        <time>2016-10-02T10:22:59Z</time>
      </trkpt>
      <trkpt lat="45.95275" lon="4.86584">
        <ele>268</ele>
        <time>2016-10-02T10:23:00Z</time>
      </trkpt>
      <trkpt lat="45.9527" lon="4.86576">
        <ele>267</ele>
        <time>2016-10-02T10:23:01Z</time>
      </trkpt>
      <trkpt lat="45.95265" lon="4.86568">
        <ele>267</ele>
        <time>2016-10-02T10:23:02Z</time>
      </trkpt>
      <trkpt lat="45.9526" lon="4.8656">
        <ele>267</ele>
        <time>2016-10-02T10:23:03Z</time>
      </trkpt>
      <trkpt lat="45.95254" lon="4.86553">
        <ele>267</ele>
        <time>2016-10-02T10:23:04Z</time>
      </trkpt>
      <trkpt lat="45.95249" lon="4.86546">
        <ele>268</ele>
        <time>2016-10-02T10:23:05Z</time>
      </trkpt>
      <trkpt lat="45.95244" lon="4.8654">
        <ele>268</ele>
        <time>2016-10-02T10:23:06Z</time>
      </trkpt>
      <trkpt lat="45.95239" lon="4.86531">
        <ele>268</ele>
        <time>2016-10-02T10:23:07Z</time>
      </trkpt>
      <trkpt lat="45.95234" lon="4.86523">
        <ele>268</ele>
        <time>2016-10-02T10:23:08Z</time>
      </trkpt>
      <trkpt lat="45.9523" lon="4.86516">
        <ele>268</ele>
        <time>2016-10-02T10:23:09Z</time>
      </trkpt>
      <trkpt lat="45.95225" lon="4.86511">
        <ele>268</ele>
        <time>2016-10-02T10:23:10Z</time>
      </trkpt>
      <trkpt lat="45.95219" lon="4.86506">
        <ele>268</ele>
        <time>2016-10-02T10:23:11Z</time>
      </trkpt>
      <trkpt lat="45.95214" lon="4.865">
        <ele>268</ele>
        <time>2016-10-02T10:23:12Z</time>
      </trkpt>
      <trkpt lat="45.9521" lon="4.86495">
        <ele>268</ele>
        <time>2016-10-02T10:23:13Z</time>
      </trkpt>
      <trkpt lat="45.95205" lon="4.86489">
        <ele>268</ele>
        <time>2016-10-02T10:23:14Z</time>
      </trkpt>
      <trkpt lat="45.95201" lon="4.86484">
        <ele>268</ele>
        <time>2016-10-02T10:23:15Z</time>
      </trkpt>
      <trkpt lat="45.95196" lon="4.86479">
        <ele>268</ele>
        <time>2016-10-02T10:23:16Z</time>
      </trkpt>
      <trkpt lat="45.95191" lon="4.86474">
        <ele>268</ele>
        <time>2016-10-02T10:23:17Z</time>
      </trkpt>
      <trkpt lat="45.95187" lon="4.86469">
        <ele>268</ele>
        <time>2016-10-02T10:23:18Z</time>
      </trkpt>
      <trkpt lat="45.95183" lon="4.86464">
        <ele>268</ele>
        <time>2016-10-02T10:23:19Z</time>
      </trkpt>
      <trkpt lat="45.95178" lon="4.86459">
        <ele>268</ele>
        <time>2016-10-02T10:23:20Z</time>
      </trkpt>
      <trkpt lat="45.95174" lon="4.86454">
        <ele>268</ele>
        <time>2016-10-02T10:23:21Z</time>
      </trkpt>
      <trkpt lat="45.9517" lon="4.8645">
        <ele>268</ele>
        <time>2016-10-02T10:23:22Z</time>
      </trkpt>
      <trkpt lat="45.95166" lon="4.86445">
        <ele>268</ele>
        <time>2016-10-02T10:23:23Z</time>
      </trkpt>
      <trkpt lat="45.95163" lon="4.8644">
        <ele>268</ele>
        <time>2016-10-02T10:23:24Z</time>
      </trkpt>
      <trkpt lat="45.95158" lon="4.86436">
        <ele>268</ele>
        <time>2016-10-02T10:23:25Z</time>
      </trkpt>
      <trkpt lat="45.95154" lon="4.86431">
        <ele>268</ele>
        <time>2016-10-02T10:23:26Z</time>
      </trkpt>
      <trkpt lat="45.9515" lon="4.86426">
        <ele>268</ele>
        <time>2016-10-02T10:23:27Z</time>
      </trkpt>
      <trkpt lat="45.95146" lon="4.86421">
        <ele>268</ele>
        <time>2016-10-02T10:23:28Z</time>
      </trkpt>
      <trkpt lat="45.95142" lon="4.86416">
        <ele>268</ele>
        <time>2016-10-02T10:23:29Z</time>
      </trkpt>
      <trkpt lat="45.95138" lon="4.86411">
        <ele>268</ele>
        <time>2016-10-02T10:23:30Z</time>
      </trkpt>
      <trkpt lat="45.95134" lon="4.86406">
        <ele>268</ele>
        <time>2016-10-02T10:23:31Z</time>
      </trkpt>
      <trkpt lat="45.9513" lon="4.864">
        <ele>268</ele>
        <time>2016-10-02T10:23:32Z</time>
      </trkpt>
      <trkpt lat="45.95126" lon="4.86395">
        <ele>268</ele>
        <time>2016-10-02T10:23:33Z</time>
      </trkpt>
      <trkpt lat="45.95122" lon="4.8639">
        <ele>269</ele>
        <time>2016-10-02T10:23:34Z</time>
      </trkpt>
      <trkpt lat="45.95117" lon="4.86385">
        <ele>269</ele>
        <time>2016-10-02T10:23:35Z</time>
      </trkpt>
      <trkpt lat="45.95113" lon="4.8638">
        <ele>269</ele>
        <time>2016-10-02T10:23:36Z</time>
      </trkpt>
      <trkpt lat="45.95109" lon="4.86375">
        <ele>269</ele>
        <time>2016-10-02T10:23:37Z</time>
      </trkpt>
      <trkpt lat="45.95104" lon="4.86369">
        <ele>269</ele>
        <time>2016-10-02T10:23:38Z</time>
      </trkpt>
      <trkpt lat="45.95101" lon="4.86363">
        <ele>269</ele>
        <time>2016-10-02T10:23:39Z</time>
      </trkpt>
      <trkpt lat="45.95097" lon="4.86358">
        <ele>269</ele>
        <time>2016-10-02T10:23:40Z</time>
      </trkpt>
      <trkpt lat="45.95093" lon="4.86354">
        <ele>269</ele>
        <time>2016-10-02T10:23:41Z</time>
      </trkpt>
      <trkpt lat="45.9509" lon="4.86349">
        <ele>269</ele>
        <time>2016-10-02T10:23:42Z</time>
      </trkpt>
      <trkpt lat="45.95086" lon="4.86344">
        <ele>269</ele>
        <time>2016-10-02T10:23:43Z</time>
      </trkpt>
      <trkpt lat="45.95082" lon="4.8634">
        <ele>270</ele>
        <time>2016-10-02T10:23:44Z</time>
      </trkpt>
      <trkpt lat="45.95077" lon="4.86335">
        <ele>270</ele>
        <time>2016-10-02T10:23:45Z</time>
      </trkpt>
      <trkpt lat="45.95073" lon="4.8633">
        <ele>270</ele>
        <time>2016-10-02T10:23:46Z</time>
      </trkpt>
      <trkpt lat="45.95069" lon="4.86325">
        <ele>270</ele>
        <time>2016-10-02T10:23:47Z</time>
      </trkpt>
      <trkpt lat="45.95065" lon="4.8632">
        <ele>270</ele>
        <time>2016-10-02T10:23:48Z</time>
      </trkpt>
      <trkpt lat="45.9506" lon="4.86315">
        <ele>270</ele>
        <time>2016-10-02T10:23:49Z</time>
      </trkpt>
      <trkpt lat="45.95056" lon="4.8631">
        <ele>271</ele>
        <time>2016-10-02T10:23:50Z</time>
      </trkpt>
      <trkpt lat="45.95053" lon="4.86306">
        <ele>271</ele>
        <time>2016-10-02T10:23:51Z</time>
      </trkpt>
      <trkpt lat="45.95049" lon="4.86301">
        <ele>271</ele>
        <time>2016-10-02T10:23:52Z</time>
      </trkpt>
      <trkpt lat="45.95046" lon="4.86295">
        <ele>271</ele>
        <time>2016-10-02T10:23:53Z</time>
      </trkpt>
      <trkpt lat="45.95044" lon="4.8629">
        <ele>271</ele>
        <time>2016-10-02T10:23:54Z</time>
      </trkpt>
      <trkpt lat="45.9504" lon="4.86284">
        <ele>271</ele>
        <time>2016-10-02T10:23:55Z</time>
      </trkpt>
      <trkpt lat="45.95036" lon="4.86279">
        <ele>271</ele>
        <time>2016-10-02T10:23:56Z</time>
      </trkpt>
      <trkpt lat="45.9503" lon="4.86275">
        <ele>271</ele>
        <time>2016-10-02T10:23:57Z</time>
      </trkpt>
      <trkpt lat="45.95026" lon="4.8627">
        <ele>271</ele>
        <time>2016-10-02T10:23:58Z</time>
      </trkpt>
      <trkpt lat="45.95022" lon="4.86265">
        <ele>271</ele>
        <time>2016-10-02T10:23:59Z</time>
      </trkpt>
      <trkpt lat="45.95018" lon="4.8626">
        <ele>271</ele>
        <time>2016-10-02T10:24:00Z</time>
      </trkpt>
      <trkpt lat="45.95013" lon="4.86256">
        <ele>272</ele>
        <time>2016-10-02T10:24:01Z</time>
      </trkpt>
      <trkpt lat="45.95009" lon="4.86252">
        <ele>272</ele>
        <time>2016-10-02T10:24:02Z</time>
      </trkpt>
      <trkpt lat="45.95005" lon="4.86248">
        <ele>272</ele>
        <time>2016-10-02T10:24:03Z</time>
      </trkpt>
      <trkpt lat="45.95001" lon="4.86243">
        <ele>272</ele>
        <time>2016-10-02T10:24:04Z</time>
      </trkpt>
      <trkpt lat="45.94998" lon="4.86238">
        <ele>272</ele>
        <time>2016-10-02T10:24:05Z</time>
      </trkpt>
      <trkpt lat="45.94994" lon="4.86234">
        <ele>272</ele>
        <time>2016-10-02T10:24:06Z</time>
      </trkpt>
      <trkpt lat="45.94991" lon="4.86229">
        <ele>272</ele>
        <time>2016-10-02T10:24:07Z</time>
      </trkpt>
      <trkpt lat="45.94987" lon="4.86224">
        <ele>272</ele>
        <time>2016-10-02T10:24:08Z</time>
      </trkpt>
      <trkpt lat="45.94984" lon="4.8622">
        <ele>272</ele>
        <time>2016-10-02T10:24:09Z</time>
      </trkpt>
      <trkpt lat="45.94981" lon="4.86215">
        <ele>272</ele>
        <time>2016-10-02T10:24:10Z</time>
      </trkpt>
      <trkpt lat="45.94977" lon="4.86211">
        <ele>272</ele>
        <time>2016-10-02T10:24:11Z</time>
      </trkpt>
      <trkpt lat="45.94973" lon="4.86207">
        <ele>272</ele>
        <time>2016-10-02T10:24:12Z</time>
      </trkpt>
      <trkpt lat="45.9497" lon="4.86203">
        <ele>272</ele>
        <time>2016-10-02T10:24:13Z</time>
      </trkpt>
      <trkpt lat="45.94966" lon="4.86199">
        <ele>272</ele>
        <time>2016-10-02T10:24:14Z</time>
      </trkpt>
      <trkpt lat="45.94963" lon="4.86195">
        <ele>272</ele>
        <time>2016-10-02T10:24:15Z</time>
      </trkpt>
      <trkpt lat="45.94959" lon="4.86191">
        <ele>272</ele>
        <time>2016-10-02T10:24:16Z</time>
      </trkpt>
      <trkpt lat="45.94951" lon="4.86185">
        <ele>273</ele>
        <time>2016-10-02T10:24:18Z</time>
      </trkpt>
      <trkpt lat="45.94948" lon="4.86181">
        <ele>273</ele>
        <time>2016-10-02T10:24:19Z</time>
      </trkpt>
      <trkpt lat="45.94942" lon="4.86173">
        <ele>273</ele>
        <time>2016-10-02T10:24:21Z</time>
      </trkpt>
      <trkpt lat="45.94939" lon="4.86168">
        <ele>273</ele>
        <time>2016-10-02T10:24:22Z</time>
      </trkpt>
      <trkpt lat="45.94936" lon="4.86164">
        <ele>273</ele>
        <time>2016-10-02T10:24:23Z</time>
      </trkpt>
      <trkpt lat="45.94932" lon="4.86159">
        <ele>273</ele>
        <time>2016-10-02T10:24:24Z</time>
      </trkpt>
      <trkpt lat="45.94929" lon="4.86153">
        <ele>273</ele>
        <time>2016-10-02T10:24:25Z</time>
      </trkpt>
      <trkpt lat="45.94924" lon="4.86148">
        <ele>273</ele>
        <time>2016-10-02T10:24:26Z</time>
      </trkpt>
      <trkpt lat="45.94921" lon="4.86142">
        <ele>273</ele>
        <time>2016-10-02T10:24:27Z</time>
      </trkpt>
      <trkpt lat="45.94917" lon="4.86137">
        <ele>273</ele>
        <time>2016-10-02T10:24:28Z</time>
      </trkpt>
      <trkpt lat="45.94913" lon="4.86131">
        <ele>274</ele>
        <time>2016-10-02T10:24:29Z</time>
      </trkpt>
      <trkpt lat="45.9491" lon="4.86126">
        <ele>274</ele>
        <time>2016-10-02T10:24:30Z</time>
      </trkpt>
      <trkpt lat="45.94907" lon="4.8612">
        <ele>274</ele>
        <time>2016-10-02T10:24:31Z</time>
      </trkpt>
      <trkpt lat="45.94905" lon="4.86115">
        <ele>274</ele>
        <time>2016-10-02T10:24:32Z</time>
      </trkpt>
      <trkpt lat="45.949" lon="4.86104">
        <ele>274</ele>
        <time>2016-10-02T10:24:34Z</time>
      </trkpt>
      <trkpt lat="45.94898" lon="4.86098">
        <ele>274</ele>
        <time>2016-10-02T10:24:35Z</time>
      </trkpt>
      <trkpt lat="45.94894" lon="4.86088">
        <ele>274</ele>
        <time>2016-10-02T10:24:37Z</time>
      </trkpt>
      <trkpt lat="45.94892" lon="4.86082">
        <ele>274</ele>
        <time>2016-10-02T10:24:38Z</time>
      </trkpt>
      <trkpt lat="45.94889" lon="4.8607">
        <ele>274</ele>
        <time>2016-10-02T10:24:40Z</time>
      </trkpt>
      <trkpt lat="45.94888" lon="4.86065">
        <ele>274</ele>
        <time>2016-10-02T10:24:41Z</time>
      </trkpt>
      <trkpt lat="45.94884" lon="4.86053">
        <ele>274</ele>
        <time>2016-10-02T10:24:43Z</time>
      </trkpt>
      <trkpt lat="45.94884" lon="4.86046">
        <ele>274</ele>
        <time>2016-10-02T10:24:44Z</time>
      </trkpt>
      <trkpt lat="45.94882" lon="4.8604">
        <ele>274</ele>
        <time>2016-10-02T10:24:45Z</time>
      </trkpt>
      <trkpt lat="45.94881" lon="4.86033">
        <ele>274</ele>
        <time>2016-10-02T10:24:46Z</time>
      </trkpt>
      <trkpt lat="45.9488" lon="4.86027">
        <ele>274</ele>
        <time>2016-10-02T10:24:47Z</time>
      </trkpt>
      <trkpt lat="45.94878" lon="4.8602">
        <ele>274</ele>
        <time>2016-10-02T10:24:48Z</time>
      </trkpt>
      <trkpt lat="45.94876" lon="4.86013">
        <ele>274</ele>
        <time>2016-10-02T10:24:49Z</time>
      </trkpt>
      <trkpt lat="45.94875" lon="4.86007">
        <ele>274</ele>
        <time>2016-10-02T10:24:50Z</time>
      </trkpt>
      <trkpt lat="45.94873" lon="4.86001">
        <ele>274</ele>
        <time>2016-10-02T10:24:51Z</time>
      </trkpt>
      <trkpt lat="45.94871" lon="4.85994">
        <ele>275</ele>
        <time>2016-10-02T10:24:52Z</time>
      </trkpt>
      <trkpt lat="45.94869" lon="4.85987">
        <ele>275</ele>
        <time>2016-10-02T10:24:53Z</time>
      </trkpt>
      <trkpt lat="45.94868" lon="4.8598">
        <ele>275</ele>
        <time>2016-10-02T10:24:54Z</time>
      </trkpt>
      <trkpt lat="45.94867" lon="4.85973">
        <ele>275</ele>
        <time>2016-10-02T10:24:55Z</time>
      </trkpt>
      <trkpt lat="45.94865" lon="4.85966">
        <ele>275</ele>
        <time>2016-10-02T10:24:56Z</time>
      </trkpt>
      <trkpt lat="45.94863" lon="4.85959">
        <ele>275</ele>
        <time>2016-10-02T10:24:57Z</time>
      </trkpt>
      <trkpt lat="45.94861" lon="4.85952">
        <ele>275</ele>
        <time>2016-10-02T10:24:58Z</time>
      </trkpt>
      <trkpt lat="45.94859" lon="4.85945">
        <ele>275</ele>
        <time>2016-10-02T10:24:59Z</time>
      </trkpt>
      <trkpt lat="45.94857" lon="4.85938">
        <ele>275</ele>
        <time>2016-10-02T10:25:00Z</time>
      </trkpt>
      <trkpt lat="45.94855" lon="4.85931">
        <ele>275</ele>
        <time>2016-10-02T10:25:01Z</time>
      </trkpt>
      <trkpt lat="45.94854" lon="4.85924">
        <ele>275</ele>
        <time>2016-10-02T10:25:02Z</time>
      </trkpt>
      <trkpt lat="45.94852" lon="4.85917">
        <ele>275</ele>
        <time>2016-10-02T10:25:03Z</time>
      </trkpt>
      <trkpt lat="45.9485" lon="4.8591">
        <ele>275</ele>
        <time>2016-10-02T10:25:04Z</time>
      </trkpt>
      <trkpt lat="45.94848" lon="4.85904">
        <ele>276</ele>
        <time>2016-10-02T10:25:05Z</time>
      </trkpt>
      <trkpt lat="45.94847" lon="4.85897">
        <ele>276</ele>
        <time>2016-10-02T10:25:06Z</time>
      </trkpt>
      <trkpt lat="45.94845" lon="4.85891">
        <ele>276</ele>
        <time>2016-10-02T10:25:07Z</time>
      </trkpt>
      <trkpt lat="45.94843" lon="4.85884">
        <ele>276</ele>
        <time>2016-10-02T10:25:08Z</time>
      </trkpt>
      <trkpt lat="45.94841" lon="4.85877">
        <ele>276</ele>
        <time>2016-10-02T10:25:09Z</time>
      </trkpt>
      <trkpt lat="45.9484" lon="4.8587">
        <ele>276</ele>
        <time>2016-10-02T10:25:10Z</time>
      </trkpt>
      <trkpt lat="45.94838" lon="4.85862">
        <ele>276</ele>
        <time>2016-10-02T10:25:11Z</time>
      </trkpt>
      <trkpt lat="45.94835" lon="4.85855">
        <ele>276</ele>
        <time>2016-10-02T10:25:12Z</time>
      </trkpt>
      <trkpt lat="45.94833" lon="4.85848">
        <ele>277</ele>
        <time>2016-10-02T10:25:13Z</time>
      </trkpt>
      <trkpt lat="45.94832" lon="4.8584">
        <ele>277</ele>
        <time>2016-10-02T10:25:14Z</time>
      </trkpt>
      <trkpt lat="45.94829" lon="4.85833">
        <ele>277</ele>
        <time>2016-10-02T10:25:15Z</time>
      </trkpt>
      <trkpt lat="45.94828" lon="4.85825">
        <ele>277</ele>
        <time>2016-10-02T10:25:16Z</time>
      </trkpt>
      <trkpt lat="45.94826" lon="4.85818">
        <ele>278</ele>
        <time>2016-10-02T10:25:17Z</time>
      </trkpt>
      <trkpt lat="45.94824" lon="4.85811">
        <ele>278</ele>
        <time>2016-10-02T10:25:18Z</time>
      </trkpt>
      <trkpt lat="45.94822" lon="4.85804">
        <ele>278</ele>
        <time>2016-10-02T10:25:19Z</time>
      </trkpt>
      <trkpt lat="45.9482" lon="4.85797">
        <ele>278</ele>
        <time>2016-10-02T10:25:20Z</time>
      </trkpt>
      <trkpt lat="45.94819" lon="4.85791">
        <ele>278</ele>
        <time>2016-10-02T10:25:21Z</time>
      </trkpt>
      <trkpt lat="45.94817" lon="4.85784">
        <ele>278</ele>
        <time>2016-10-02T10:25:22Z</time>
      </trkpt>
      <trkpt lat="45.94816" lon="4.85778">
        <ele>278</ele>
        <time>2016-10-02T10:25:23Z</time>
      </trkpt>
      <trkpt lat="45.94814" lon="4.85771">
        <ele>278</ele>
        <time>2016-10-02T10:25:24Z</time>
      </trkpt>
      <trkpt lat="45.94814" lon="4.85765">
        <ele>278</ele>
        <time>2016-10-02T10:25:25Z</time>
      </trkpt>
      <trkpt lat="45.94813" lon="4.85758">
        <ele>278</ele>
        <time>2016-10-02T10:25:26Z</time>
      </trkpt>
      <trkpt lat="45.9481" lon="4.85752">
        <ele>278</ele>
        <time>2016-10-02T10:25:27Z</time>
      </trkpt>
      <trkpt lat="45.94808" lon="4.85747">
        <ele>279</ele>
        <time>2016-10-02T10:25:28Z</time>
      </trkpt>
      <trkpt lat="45.94806" lon="4.8574">
        <ele>279</ele>
        <time>2016-10-02T10:25:29Z</time>
      </trkpt>
      <trkpt lat="45.94805" lon="4.85733">
        <ele>280</ele>
        <time>2016-10-02T10:25:30Z</time>
      </trkpt>
      <trkpt lat="45.94803" lon="4.85727">
        <ele>280</ele>
        <time>2016-10-02T10:25:31Z</time>
      </trkpt>
      <trkpt lat="45.94802" lon="4.85721">
        <ele>280</ele>
        <time>2016-10-02T10:25:32Z</time>
      </trkpt>
      <trkpt lat="45.948" lon="4.85714">
        <ele>280</ele>
        <time>2016-10-02T10:25:33Z</time>
      </trkpt>
      <trkpt lat="45.94798" lon="4.85708">
        <ele>280</ele>
        <time>2016-10-02T10:25:34Z</time>
      </trkpt>
      <trkpt lat="45.94796" lon="4.85701">
        <ele>280</ele>
        <time>2016-10-02T10:25:35Z</time>
      </trkpt>
      <trkpt lat="45.94794" lon="4.85694">
        <ele>280</ele>
        <time>2016-10-02T10:25:36Z</time>
      </trkpt>
      <trkpt lat="45.94791" lon="4.85687">
        <ele>280</ele>
        <time>2016-10-02T10:25:37Z</time>
      </trkpt>
      <trkpt lat="45.94789" lon="4.8568">
        <ele>280</ele>
        <time>2016-10-02T10:25:38Z</time>
      </trkpt>
      <trkpt lat="45.94787" lon="4.85674">
        <ele>280</ele>
        <time>2016-10-02T10:25:39Z</time>
      </trkpt>
      <trkpt lat="45.94786" lon="4.85666">
        <ele>281</ele>
        <time>2016-10-02T10:25:40Z</time>
      </trkpt>
      <trkpt lat="45.94785" lon="4.85659">
        <ele>281</ele>
        <time>2016-10-02T10:25:41Z</time>
      </trkpt>
      <trkpt lat="45.94782" lon="4.85652">
        <ele>281</ele>
        <time>2016-10-02T10:25:42Z</time>
      </trkpt>
      <trkpt lat="45.9478" lon="4.85644">
        <ele>281</ele>
        <time>2016-10-02T10:25:43Z</time>
      </trkpt>
      <trkpt lat="45.94778" lon="4.85637">
        <ele>281</ele>
        <time>2016-10-02T10:25:44Z</time>
      </trkpt>
      <trkpt lat="45.94776" lon="4.85629">
        <ele>280</ele>
        <time>2016-10-02T10:25:45Z</time>
      </trkpt>
      <trkpt lat="45.94774" lon="4.85621">
        <ele>280</ele>
        <time>2016-10-02T10:25:46Z</time>
      </trkpt>
      <trkpt lat="45.94772" lon="4.85613">
        <ele>280</ele>
        <time>2016-10-02T10:25:47Z</time>
      </trkpt>
      <trkpt lat="45.9477" lon="4.85605">
        <ele>280</ele>
        <time>2016-10-02T10:25:48Z</time>
      </trkpt>
      <trkpt lat="45.94768" lon="4.85597">
        <ele>280</ele>
        <time>2016-10-02T10:25:49Z</time>
      </trkpt>
      <trkpt lat="45.94766" lon="4.85588">
        <ele>280</ele>
        <time>2016-10-02T10:25:50Z</time>
      </trkpt>
      <trkpt lat="45.94765" lon="4.8558">
        <ele>279</ele>
        <time>2016-10-02T10:25:51Z</time>
      </trkpt>
      <trkpt lat="45.94763" lon="4.85571">
        <ele>279</ele>
        <time>2016-10-02T10:25:52Z</time>
      </trkpt>
      <trkpt lat="45.94761" lon="4.85561">
        <ele>278</ele>
        <time>2016-10-02T10:25:53Z</time>
      </trkpt>
      <trkpt lat="45.9476" lon="4.85551">
        <ele>278</ele>
        <time>2016-10-02T10:25:54Z</time>
      </trkpt>
      <trkpt lat="45.94759" lon="4.85542">
        <ele>278</ele>
        <time>2016-10-02T10:25:55Z</time>
      </trkpt>
      <trkpt lat="45.94758" lon="4.85531">
        <ele>278</ele>
        <time>2016-10-02T10:25:56Z</time>
      </trkpt>
      <trkpt lat="45.94757" lon="4.85519">
        <ele>277</ele>
        <time>2016-10-02T10:25:57Z</time>
      </trkpt>
      <trkpt lat="45.94755" lon="4.85508">
        <ele>277</ele>
        <time>2016-10-02T10:25:58Z</time>
      </trkpt>
      <trkpt lat="45.94754" lon="4.85497">
        <ele>276</ele>
        <time>2016-10-02T10:25:59Z</time>
      </trkpt>
      <trkpt lat="45.94753" lon="4.85485">
        <ele>276</ele>
        <time>2016-10-02T10:26:00Z</time>
      </trkpt>
      <trkpt lat="45.94751" lon="4.85474">
        <ele>275</ele>
        <time>2016-10-02T10:26:01Z</time>
      </trkpt>
      <trkpt lat="45.9475" lon="4.85462">
        <ele>274</ele>
        <time>2016-10-02T10:26:02Z</time>
      </trkpt>
      <trkpt lat="45.94748" lon="4.85451">
        <ele>274</ele>
        <time>2016-10-02T10:26:03Z</time>
      </trkpt>
      <trkpt lat="45.94747" lon="4.85439">
        <ele>274</ele>
        <time>2016-10-02T10:26:04Z</time>
      </trkpt>
      <trkpt lat="45.94746" lon="4.85426">
        <ele>273</ele>
        <time>2016-10-02T10:26:05Z</time>
      </trkpt>
      <trkpt lat="45.94744" lon="4.85415">
        <ele>273</ele>
        <time>2016-10-02T10:26:06Z</time>
      </trkpt>
      <trkpt lat="45.94743" lon="4.85403">
        <ele>272</ele>
        <time>2016-10-02T10:26:07Z</time>
      </trkpt>
      <trkpt lat="45.94741" lon="4.85391">
        <ele>272</ele>
        <time>2016-10-02T10:26:08Z</time>
      </trkpt>
      <trkpt lat="45.9474" lon="4.8538">
        <ele>271</ele>
        <time>2016-10-02T10:26:09Z</time>
      </trkpt>
      <trkpt lat="45.94738" lon="4.85369">
        <ele>271</ele>
        <time>2016-10-02T10:26:10Z</time>
      </trkpt>
      <trkpt lat="45.94738" lon="4.85357">
        <ele>271</ele>
        <time>2016-10-02T10:26:11Z</time>
      </trkpt>
      <trkpt lat="45.94737" lon="4.85346">
        <ele>271</ele>
        <time>2016-10-02T10:26:12Z</time>
      </trkpt>
      <trkpt lat="45.94736" lon="4.85336">
        <ele>271</ele>
        <time>2016-10-02T10:26:13Z</time>
      </trkpt>
      <trkpt lat="45.94734" lon="4.85325">
        <ele>270</ele>
        <time>2016-10-02T10:26:14Z</time>
      </trkpt>
      <trkpt lat="45.94733" lon="4.85315">
        <ele>270</ele>
        <time>2016-10-02T10:26:15Z</time>
      </trkpt>
      <trkpt lat="45.94732" lon="4.85305">
        <ele>270</ele>
        <time>2016-10-02T10:26:16Z</time>
      </trkpt>
      <trkpt lat="45.94731" lon="4.85295">
        <ele>270</ele>
        <time>2016-10-02T10:26:17Z</time>
      </trkpt>
      <trkpt lat="45.9473" lon="4.85286">
        <ele>269</ele>
        <time>2016-10-02T10:26:18Z</time>
      </trkpt>
      <trkpt lat="45.94729" lon="4.85276">
        <ele>269</ele>
        <time>2016-10-02T10:26:19Z</time>
      </trkpt>
      <trkpt lat="45.94727" lon="4.85266">
        <ele>269</ele>
        <time>2016-10-02T10:26:20Z</time>
      </trkpt>
      <trkpt lat="45.94726" lon="4.85256">
        <ele>269</ele>
        <time>2016-10-02T10:26:21Z</time>
      </trkpt>
      <trkpt lat="45.94725" lon="4.85247">
        <ele>269</ele>
        <time>2016-10-02T10:26:22Z</time>
      </trkpt>
      <trkpt lat="45.94725" lon="4.85238">
        <ele>269</ele>
        <time>2016-10-02T10:26:23Z</time>
      </trkpt>
      <trkpt lat="45.94724" lon="4.85228">
        <ele>269</ele>
        <time>2016-10-02T10:26:24Z</time>
      </trkpt>
      <trkpt lat="45.94724" lon="4.85219">
        <ele>269</ele>
        <time>2016-10-02T10:26:25Z</time>
      </trkpt>
      <trkpt lat="45.94724" lon="4.8521">
        <ele>269</ele>
        <time>2016-10-02T10:26:26Z</time>
      </trkpt>
      <trkpt lat="45.94723" lon="4.85201">
        <ele>269</ele>
        <time>2016-10-02T10:26:27Z</time>
      </trkpt>
      <trkpt lat="45.94722" lon="4.85192">
        <ele>269</ele>
        <time>2016-10-02T10:26:28Z</time>
      </trkpt>
      <trkpt lat="45.94721" lon="4.85184">
        <ele>269</ele>
        <time>2016-10-02T10:26:29Z</time>
      </trkpt>
      <trkpt lat="45.9472" lon="4.85175">
        <ele>269</ele>
        <time>2016-10-02T10:26:30Z</time>
      </trkpt>
      <trkpt lat="45.9472" lon="4.85166">
        <ele>269</ele>
        <time>2016-10-02T10:26:31Z</time>
      </trkpt>
      <trkpt lat="45.94718" lon="4.85158">
        <ele>269</ele>
        <time>2016-10-02T10:26:32Z</time>
      </trkpt>
      <trkpt lat="45.94717" lon="4.8515">
        <ele>269</ele>
        <time>2016-10-02T10:26:33Z</time>
      </trkpt>
      <trkpt lat="45.94716" lon="4.85142">
        <ele>269</ele>
        <time>2016-10-02T10:26:34Z</time>
      </trkpt>
      <trkpt lat="45.94715" lon="4.85134">
        <ele>269</ele>
        <time>2016-10-02T10:26:35Z</time>
      </trkpt>
      <trkpt lat="45.94714" lon="4.85126">
        <ele>269</ele>
        <time>2016-10-02T10:26:36Z</time>
      </trkpt>
      <trkpt lat="45.94713" lon="4.85117">
        <ele>269</ele>
        <time>2016-10-02T10:26:37Z</time>
      </trkpt>
      <trkpt lat="45.94712" lon="4.85107">
        <ele>269</ele>
        <time>2016-10-02T10:26:38Z</time>
      </trkpt>
      <trkpt lat="45.94711" lon="4.85098">
        <ele>269</ele>
        <time>2016-10-02T10:26:39Z</time>
      </trkpt>
      <trkpt lat="45.9471" lon="4.85089">
        <ele>269</ele>
        <time>2016-10-02T10:26:40Z</time>
      </trkpt>
      <trkpt lat="45.94709" lon="4.8508">
        <ele>269</ele>
        <time>2016-10-02T10:26:41Z</time>
      </trkpt>
      <trkpt lat="45.94709" lon="4.85072">
        <ele>269</ele>
        <time>2016-10-02T10:26:42Z</time>
      </trkpt>
      <trkpt lat="45.94708" lon="4.85063">
        <ele>269</ele>
        <time>2016-10-02T10:26:43Z</time>
      </trkpt>
      <trkpt lat="45.94707" lon="4.85055">
        <ele>269</ele>
        <time>2016-10-02T10:26:44Z</time>
      </trkpt>
      <trkpt lat="45.94706" lon="4.85046">
        <ele>269</ele>
        <time>2016-10-02T10:26:45Z</time>
      </trkpt>
      <trkpt lat="45.94705" lon="4.85038">
        <ele>269</ele>
        <time>2016-10-02T10:26:46Z</time>
      </trkpt>
      <trkpt lat="45.94704" lon="4.85029">
        <ele>269</ele>
        <time>2016-10-02T10:26:47Z</time>
      </trkpt>
      <trkpt lat="45.94703" lon="4.8502">
        <ele>269</ele>
        <time>2016-10-02T10:26:48Z</time>
      </trkpt>
      <trkpt lat="45.94702" lon="4.85012">
        <ele>269</ele>
        <time>2016-10-02T10:26:49Z</time>
      </trkpt>
      <trkpt lat="45.94701" lon="4.85004">
        <ele>269</ele>
        <time>2016-10-02T10:26:50Z</time>
      </trkpt>
      <trkpt lat="45.947" lon="4.84995">
        <ele>269</ele>
        <time>2016-10-02T10:26:51Z</time>
      </trkpt>
      <trkpt lat="45.94699" lon="4.84987">
        <ele>269</ele>
        <time>2016-10-02T10:26:52Z</time>
      </trkpt>
      <trkpt lat="45.94699" lon="4.84979">
        <ele>269</ele>
        <time>2016-10-02T10:26:53Z</time>
      </trkpt>
      <trkpt lat="45.94698" lon="4.84971">
        <ele>269</ele>
        <time>2016-10-02T10:26:54Z</time>
      </trkpt>
      <trkpt lat="45.94697" lon="4.84963">
        <ele>269</ele>
        <time>2016-10-02T10:26:55Z</time>
      </trkpt>
      <trkpt lat="45.94696" lon="4.84956">
        <ele>269</ele>
        <time>2016-10-02T10:26:56Z</time>
      </trkpt>
      <trkpt lat="45.94696" lon="4.84948">
        <ele>269</ele>
        <time>2016-10-02T10:26:57Z</time>
      </trkpt>
      <trkpt lat="45.94695" lon="4.8494">
        <ele>269</ele>
        <time>2016-10-02T10:26:58Z</time>
      </trkpt>
      <trkpt lat="45.94694" lon="4.84932">
        <ele>269</ele>
        <time>2016-10-02T10:26:59Z</time>
      </trkpt>
      <trkpt lat="45.94693" lon="4.84924">
        <ele>269</ele>
        <time>2016-10-02T10:27:00Z</time>
      </trkpt>
      <trkpt lat="45.94691" lon="4.84916">
        <ele>269</ele>
        <time>2016-10-02T10:27:01Z</time>
      </trkpt>
      <trkpt lat="45.9469" lon="4.84908">
        <ele>269</ele>
        <time>2016-10-02T10:27:02Z</time>
      </trkpt>
      <trkpt lat="45.94688" lon="4.849">
        <ele>268</ele>
        <time>2016-10-02T10:27:03Z</time>
      </trkpt>
      <trkpt lat="45.94687" lon="4.84892">
        <ele>268</ele>
        <time>2016-10-02T10:27:04Z</time>
      </trkpt>
      <trkpt lat="45.94686" lon="4.84884">
        <ele>268</ele>
        <time>2016-10-02T10:27:05Z</time>
      </trkpt>
      <trkpt lat="45.94685" lon="4.84876">
        <ele>268</ele>
        <time>2016-10-02T10:27:06Z</time>
      </trkpt>
      <trkpt lat="45.94685" lon="4.84868">
        <ele>268</ele>
        <time>2016-10-02T10:27:07Z</time>
      </trkpt>
      <trkpt lat="45.94684" lon="4.8486">
        <ele>268</ele>
        <time>2016-10-02T10:27:08Z</time>
      </trkpt>
      <trkpt lat="45.94683" lon="4.84851">
        <ele>268</ele>
        <time>2016-10-02T10:27:09Z</time>
      </trkpt>
      <trkpt lat="45.94682" lon="4.84843">
        <ele>268</ele>
        <time>2016-10-02T10:27:10Z</time>
      </trkpt>
      <trkpt lat="45.94681" lon="4.84836">
        <ele>268</ele>
        <time>2016-10-02T10:27:11Z</time>
      </trkpt>
      <trkpt lat="45.94681" lon="4.84828">
        <ele>268</ele>
        <time>2016-10-02T10:27:12Z</time>
      </trkpt>
      <trkpt lat="45.9468" lon="4.84821">
        <ele>268</ele>
        <time>2016-10-02T10:27:13Z</time>
      </trkpt>
      <trkpt lat="45.9468" lon="4.84814">
        <ele>268</ele>
        <time>2016-10-02T10:27:14Z</time>
      </trkpt>
      <trkpt lat="45.94679" lon="4.84807">
        <ele>268</ele>
        <time>2016-10-02T10:27:15Z</time>
      </trkpt>
      <trkpt lat="45.94679" lon="4.84798">
        <ele>268</ele>
        <time>2016-10-02T10:27:16Z</time>
      </trkpt>
      <trkpt lat="45.94678" lon="4.8479">
        <ele>269</ele>
        <time>2016-10-02T10:27:17Z</time>
      </trkpt>
      <trkpt lat="45.94678" lon="4.84782">
        <ele>269</ele>
        <time>2016-10-02T10:27:18Z</time>
      </trkpt>
      <trkpt lat="45.94677" lon="4.84773">
        <ele>269</ele>
        <time>2016-10-02T10:27:19Z</time>
      </trkpt>
      <trkpt lat="45.94676" lon="4.84764">
        <ele>269</ele>
        <time>2016-10-02T10:27:20Z</time>
      </trkpt>
      <trkpt lat="45.94676" lon="4.84755">
        <ele>269</ele>
        <time>2016-10-02T10:27:21Z</time>
      </trkpt>
      <trkpt lat="45.94676" lon="4.84746">
        <ele>269</ele>
        <time>2016-10-02T10:27:22Z</time>
      </trkpt>
      <trkpt lat="45.94676" lon="4.84738">
        <ele>269</ele>
        <time>2016-10-02T10:27:23Z</time>
      </trkpt>
      <trkpt lat="45.94676" lon="4.84729">
        <ele>269</ele>
        <time>2016-10-02T10:27:24Z</time>
      </trkpt>
      <trkpt lat="45.94675" lon="4.84721">
        <ele>269</ele>
        <time>2016-10-02T10:27:25Z</time>
      </trkpt>
      <trkpt lat="45.94675" lon="4.84714">
        <ele>269</ele>
        <time>2016-10-02T10:27:26Z</time>
      </trkpt>
      <trkpt lat="45.94675" lon="4.84706">
        <ele>268</ele>
        <time>2016-10-02T10:27:27Z</time>
      </trkpt>
      <trkpt lat="45.94675" lon="4.84699">
        <ele>268</ele>
        <time>2016-10-02T10:27:28Z</time>
      </trkpt>
      <trkpt lat="45.94674" lon="4.84691">
        <ele>269</ele>
        <time>2016-10-02T10:27:29Z</time>
      </trkpt>
      <trkpt lat="45.94674" lon="4.84683">
        <ele>269</ele>
        <time>2016-10-02T10:27:30Z</time>
      </trkpt>
      <trkpt lat="45.94673" lon="4.84675">
        <ele>269</ele>
        <time>2016-10-02T10:27:31Z</time>
      </trkpt>
      <trkpt lat="45.94673" lon="4.84668">
        <ele>269</ele>
        <time>2016-10-02T10:27:32Z</time>
      </trkpt>
      <trkpt lat="45.94673" lon="4.8466">
        <ele>268</ele>
        <time>2016-10-02T10:27:33Z</time>
      </trkpt>
      <trkpt lat="45.94673" lon="4.84652">
        <ele>268</ele>
        <time>2016-10-02T10:27:34Z</time>
      </trkpt>
      <trkpt lat="45.94673" lon="4.84644">
        <ele>268</ele>
        <time>2016-10-02T10:27:35Z</time>
      </trkpt>
      <trkpt lat="45.94673" lon="4.84636">
        <ele>268</ele>
        <time>2016-10-02T10:27:36Z</time>
      </trkpt>
      <trkpt lat="45.94673" lon="4.84629">
        <ele>268</ele>
        <time>2016-10-02T10:27:37Z</time>
      </trkpt>
      <trkpt lat="45.94673" lon="4.84621">
        <ele>268</ele>
        <time>2016-10-02T10:27:38Z</time>
      </trkpt>
      <trkpt lat="45.94672" lon="4.84614">
        <ele>268</ele>
        <time>2016-10-02T10:27:39Z</time>
      </trkpt>
      <trkpt lat="45.94672" lon="4.84607">
        <ele>268</ele>
        <time>2016-10-02T10:27:40Z</time>
      </trkpt>
      <trkpt lat="45.9467" lon="4.84599">
        <ele>268</ele>
        <time>2016-10-02T10:27:41Z</time>
      </trkpt>
      <trkpt lat="45.9467" lon="4.84591">
        <ele>268</ele>
        <time>2016-10-02T10:27:42Z</time>
      </trkpt>
      <trkpt lat="45.9467" lon="4.84584">
        <ele>268</ele>
        <time>2016-10-02T10:27:43Z</time>
      </trkpt>
      <trkpt lat="45.9467" lon="4.84577">
        <ele>268</ele>
        <time>2016-10-02T10:27:44Z</time>
      </trkpt>
      <trkpt lat="45.94669" lon="4.84569">
        <ele>268</ele>
        <time>2016-10-02T10:27:45Z</time>
      </trkpt>
      <trkpt lat="45.94669" lon="4.84562">
        <ele>268</ele>
        <time>2016-10-02T10:27:46Z</time>
      </trkpt>
      <trkpt lat="45.94669" lon="4.84554">
        <ele>268</ele>
        <time>2016-10-02T10:27:47Z</time>
      </trkpt>
      <trkpt lat="45.94668" lon="4.84546">
        <ele>268</ele>
        <time>2016-10-02T10:27:48Z</time>
      </trkpt>
      <trkpt lat="45.94667" lon="4.84539">
        <ele>268</ele>
        <time>2016-10-02T10:27:49Z</time>
      </trkpt>
      <trkpt lat="45.94666" lon="4.84531">
        <ele>268</ele>
        <time>2016-10-02T10:27:50Z</time>
      </trkpt>
      <trkpt lat="45.94665" lon="4.84523">
        <ele>268</ele>
        <time>2016-10-02T10:27:51Z</time>
      </trkpt>
      <trkpt lat="45.94664" lon="4.84516">
        <ele>268</ele>
        <time>2016-10-02T10:27:52Z</time>
      </trkpt>
      <trkpt lat="45.94663" lon="4.84508">
        <ele>268</ele>
        <time>2016-10-02T10:27:53Z</time>
      </trkpt>
      <trkpt lat="45.94663" lon="4.84501">
        <ele>268</ele>
        <time>2016-10-02T10:27:54Z</time>
      </trkpt>
      <trkpt lat="45.94662" lon="4.84493">
        <ele>268</ele>
        <time>2016-10-02T10:27:55Z</time>
      </trkpt>
      <trkpt lat="45.94661" lon="4.84485">
        <ele>268</ele>
        <time>2016-10-02T10:27:56Z</time>
      </trkpt>
      <trkpt lat="45.94661" lon="4.84478">
        <ele>268</ele>
        <time>2016-10-02T10:27:57Z</time>
      </trkpt>
      <trkpt lat="45.9466" lon="4.8447">
        <ele>268</ele>
        <time>2016-10-02T10:27:58Z</time>
      </trkpt>
      <trkpt lat="45.94659" lon="4.84462">
        <ele>268</ele>
        <time>2016-10-02T10:27:59Z</time>
      </trkpt>
      <trkpt lat="45.94657" lon="4.84454">
        <ele>268</ele>
        <time>2016-10-02T10:28:00Z</time>
      </trkpt>
      <trkpt lat="45.94656" lon="4.84446">
        <ele>268</ele>
        <time>2016-10-02T10:28:01Z</time>
      </trkpt>
      <trkpt lat="45.94656" lon="4.84438">
        <ele>268</ele>
        <time>2016-10-02T10:28:02Z</time>
      </trkpt>
      <trkpt lat="45.94655" lon="4.8443">
        <ele>268</ele>
        <time>2016-10-02T10:28:03Z</time>
      </trkpt>
      <trkpt lat="45.94654" lon="4.84422">
        <ele>268</ele>
        <time>2016-10-02T10:28:04Z</time>
      </trkpt>
      <trkpt lat="45.94654" lon="4.84414">
        <ele>268</ele>
        <time>2016-10-02T10:28:05Z</time>
      </trkpt>
      <trkpt lat="45.94653" lon="4.84406">
        <ele>268</ele>
        <time>2016-10-02T10:28:06Z</time>
      </trkpt>
      <trkpt lat="45.94652" lon="4.84398">
        <ele>268</ele>
        <time>2016-10-02T10:28:07Z</time>
      </trkpt>
      <trkpt lat="45.94651" lon="4.8439">
        <ele>268</ele>
        <time>2016-10-02T10:28:08Z</time>
      </trkpt>
      <trkpt lat="45.9465" lon="4.84382">
        <ele>268</ele>
        <time>2016-10-02T10:28:09Z</time>
      </trkpt>
      <trkpt lat="45.94649" lon="4.84373">
        <ele>268</ele>
        <time>2016-10-02T10:28:10Z</time>
      </trkpt>
      <trkpt lat="45.94649" lon="4.84366">
        <ele>268</ele>
        <time>2016-10-02T10:28:11Z</time>
      </trkpt>
      <trkpt lat="45.94648" lon="4.84358">
        <ele>268</ele>
        <time>2016-10-02T10:28:12Z</time>
      </trkpt>
      <trkpt lat="45.94648" lon="4.8435">
        <ele>268</ele>
        <time>2016-10-02T10:28:13Z</time>
      </trkpt>
      <trkpt lat="45.94647" lon="4.84342">
        <ele>268</ele>
        <time>2016-10-02T10:28:14Z</time>
      </trkpt>
      <trkpt lat="45.94646" lon="4.84334">
        <ele>268</ele>
        <time>2016-10-02T10:28:15Z</time>
      </trkpt>
      <trkpt lat="45.94644" lon="4.84326">
        <ele>268</ele>
        <time>2016-10-02T10:28:16Z</time>
      </trkpt>
      <trkpt lat="45.94644" lon="4.84318">
        <ele>268</ele>
        <time>2016-10-02T10:28:17Z</time>
      </trkpt>
      <trkpt lat="45.94643" lon="4.84309">
        <ele>269</ele>
        <time>2016-10-02T10:28:18Z</time>
      </trkpt>
      <trkpt lat="45.94642" lon="4.84301">
        <ele>269</ele>
        <time>2016-10-02T10:28:19Z</time>
      </trkpt>
      <trkpt lat="45.94641" lon="4.84293">
        <ele>269</ele>
        <time>2016-10-02T10:28:20Z</time>
      </trkpt>
      <trkpt lat="45.94639" lon="4.84285">
        <ele>269</ele>
        <time>2016-10-02T10:28:21Z</time>
      </trkpt>
      <trkpt lat="45.94638" lon="4.84276">
        <ele>269</ele>
        <time>2016-10-02T10:28:22Z</time>
      </trkpt>
      <trkpt lat="45.94636" lon="4.84268">
        <ele>269</ele>
        <time>2016-10-02T10:28:23Z</time>
      </trkpt>
      <trkpt lat="45.94635" lon="4.84259">
        <ele>269</ele>
        <time>2016-10-02T10:28:24Z</time>
      </trkpt>
      <trkpt lat="45.94634" lon="4.8425">
        <ele>269</ele>
        <time>2016-10-02T10:28:25Z</time>
      </trkpt>
      <trkpt lat="45.94633" lon="4.84242">
        <ele>269</ele>
        <time>2016-10-02T10:28:26Z</time>
      </trkpt>
      <trkpt lat="45.94632" lon="4.84233">
        <ele>269</ele>
        <time>2016-10-02T10:28:27Z</time>
      </trkpt>
      <trkpt lat="45.94631" lon="4.84224">
        <ele>269</ele>
        <time>2016-10-02T10:28:28Z</time>
      </trkpt>
      <trkpt lat="45.9463" lon="4.84216">
        <ele>269</ele>
        <time>2016-10-02T10:28:29Z</time>
      </trkpt>
      <trkpt lat="45.94628" lon="4.84207">
        <ele>269</ele>
        <time>2016-10-02T10:28:30Z</time>
      </trkpt>
      <trkpt lat="45.94627" lon="4.84198">
        <ele>269</ele>
        <time>2016-10-02T10:28:31Z</time>
      </trkpt>
      <trkpt lat="45.94626" lon="4.8419">
        <ele>269</ele>
        <time>2016-10-02T10:28:32Z</time>
      </trkpt>
      <trkpt lat="45.94625" lon="4.84181">
        <ele>269</ele>
        <time>2016-10-02T10:28:33Z</time>
      </trkpt>
      <trkpt lat="45.94623" lon="4.84173">
        <ele>269</ele>
        <time>2016-10-02T10:28:34Z</time>
      </trkpt>
      <trkpt lat="45.9462" lon="4.84164">
        <ele>269</ele>
        <time>2016-10-02T10:28:35Z</time>
      </trkpt>
      <trkpt lat="45.94618" lon="4.84155">
        <ele>269</ele>
        <time>2016-10-02T10:28:36Z</time>
      </trkpt>
      <trkpt lat="45.94616" lon="4.84146">
        <ele>269</ele>
        <time>2016-10-02T10:28:37Z</time>
      </trkpt>
      <trkpt lat="45.94616" lon="4.84137">
        <ele>269</ele>
        <time>2016-10-02T10:28:38Z</time>
      </trkpt>
      <trkpt lat="45.94614" lon="4.84128">
        <ele>269</ele>
        <time>2016-10-02T10:28:39Z</time>
      </trkpt>
      <trkpt lat="45.94612" lon="4.84119">
        <ele>269</ele>
        <time>2016-10-02T10:28:40Z</time>
      </trkpt>
      <trkpt lat="45.94612" lon="4.8411">
        <ele>269</ele>
        <time>2016-10-02T10:28:41Z</time>
      </trkpt>
      <trkpt lat="45.9461" lon="4.84102">
        <ele>269</ele>
        <time>2016-10-02T10:28:42Z</time>
      </trkpt>
      <trkpt lat="45.94608" lon="4.84094">
        <ele>269</ele>
        <time>2016-10-02T10:28:43Z</time>
      </trkpt>
      <trkpt lat="45.94607" lon="4.84086">
        <ele>269</ele>
        <time>2016-10-02T10:28:44Z</time>
      </trkpt>
      <trkpt lat="45.94606" lon="4.84078">
        <ele>269</ele>
        <time>2016-10-02T10:28:45Z</time>
      </trkpt>
      <trkpt lat="45.94606" lon="4.84069">
        <ele>269</ele>
        <time>2016-10-02T10:28:46Z</time>
      </trkpt>
      <trkpt lat="45.94604" lon="4.8406">
        <ele>269</ele>
        <time>2016-10-02T10:28:47Z</time>
      </trkpt>
      <trkpt lat="45.94602" lon="4.84052">
        <ele>269</ele>
        <time>2016-10-02T10:28:48Z</time>
      </trkpt>
      <trkpt lat="45.946" lon="4.84043">
        <ele>269</ele>
        <time>2016-10-02T10:28:49Z</time>
      </trkpt>
      <trkpt lat="45.94599" lon="4.84034">
        <ele>269</ele>
        <time>2016-10-02T10:28:50Z</time>
      </trkpt>
      <trkpt lat="45.94597" lon="4.84025">
        <ele>269</ele>
        <time>2016-10-02T10:28:51Z</time>
      </trkpt>
      <trkpt lat="45.94596" lon="4.84016">
        <ele>269</ele>
        <time>2016-10-02T10:28:52Z</time>
      </trkpt>
      <trkpt lat="45.94595" lon="4.84007">
        <ele>269</ele>
        <time>2016-10-02T10:28:53Z</time>
      </trkpt>
      <trkpt lat="45.94593" lon="4.83999">
        <ele>269</ele>
        <time>2016-10-02T10:28:54Z</time>
      </trkpt>
      <trkpt lat="45.94592" lon="4.8399">
        <ele>269</ele>
        <time>2016-10-02T10:28:55Z</time>
      </trkpt>
      <trkpt lat="45.94592" lon="4.83982">
        <ele>268</ele>
        <time>2016-10-02T10:28:56Z</time>
      </trkpt>
      <trkpt lat="45.94591" lon="4.83973">
        <ele>268</ele>
        <time>2016-10-02T10:28:57Z</time>
      </trkpt>
      <trkpt lat="45.94589" lon="4.83965">
        <ele>268</ele>
        <time>2016-10-02T10:28:58Z</time>
      </trkpt>
      <trkpt lat="45.94587" lon="4.83956">
        <ele>268</ele>
        <time>2016-10-02T10:28:59Z</time>
      </trkpt>
      <trkpt lat="45.94586" lon="4.83947">
        <ele>268</ele>
        <time>2016-10-02T10:29:00Z</time>
      </trkpt>
      <trkpt lat="45.94584" lon="4.83938">
        <ele>268</ele>
        <time>2016-10-02T10:29:01Z</time>
      </trkpt>
      <trkpt lat="45.94582" lon="4.83929">
        <ele>268</ele>
        <time>2016-10-02T10:29:02Z</time>
      </trkpt>
      <trkpt lat="45.94581" lon="4.83919">
        <ele>268</ele>
        <time>2016-10-02T10:29:03Z</time>
      </trkpt>
      <trkpt lat="45.9458" lon="4.8391">
        <ele>268</ele>
        <time>2016-10-02T10:29:04Z</time>
      </trkpt>
      <trkpt lat="45.94578" lon="4.839">
        <ele>268</ele>
        <time>2016-10-02T10:29:05Z</time>
      </trkpt>
      <trkpt lat="45.94577" lon="4.83889">
        <ele>267</ele>
        <time>2016-10-02T10:29:06Z</time>
      </trkpt>
      <trkpt lat="45.94576" lon="4.83878">
        <ele>267</ele>
        <time>2016-10-02T10:29:07Z</time>
      </trkpt>
      <trkpt lat="45.94574" lon="4.83867">
        <ele>267</ele>
        <time>2016-10-02T10:29:08Z</time>
      </trkpt>
      <trkpt lat="45.94571" lon="4.83856">
        <ele>266</ele>
        <time>2016-10-02T10:29:09Z</time>
      </trkpt>
      <trkpt lat="45.94569" lon="4.83846">
        <ele>266</ele>
        <time>2016-10-02T10:29:10Z</time>
      </trkpt>
      <trkpt lat="45.94567" lon="4.83835">
        <ele>266</ele>
        <time>2016-10-02T10:29:11Z</time>
      </trkpt>
      <trkpt lat="45.94566" lon="4.83823">
        <ele>264</ele>
        <time>2016-10-02T10:29:12Z</time>
      </trkpt>
      <trkpt lat="45.94564" lon="4.83813">
        <ele>264</ele>
        <time>2016-10-02T10:29:13Z</time>
      </trkpt>
      <trkpt lat="45.94562" lon="4.83803">
        <ele>264</ele>
        <time>2016-10-02T10:29:14Z</time>
      </trkpt>
      <trkpt lat="45.94561" lon="4.83793">
        <ele>264</ele>
        <time>2016-10-02T10:29:15Z</time>
      </trkpt>
      <trkpt lat="45.9456" lon="4.83783">
        <ele>264</ele>
        <time>2016-10-02T10:29:16Z</time>
      </trkpt>
      <trkpt lat="45.94559" lon="4.83773">
        <ele>264</ele>
        <time>2016-10-02T10:29:17Z</time>
      </trkpt>
      <trkpt lat="45.94558" lon="4.83764">
        <ele>263</ele>
        <time>2016-10-02T10:29:18Z</time>
      </trkpt>
      <trkpt lat="45.94556" lon="4.83754">
        <ele>263</ele>
        <time>2016-10-02T10:29:19Z</time>
      </trkpt>
      <trkpt lat="45.94554" lon="4.83744">
        <ele>262</ele>
        <time>2016-10-02T10:29:20Z</time>
      </trkpt>
      <trkpt lat="45.94553" lon="4.83735">
        <ele>262</ele>
        <time>2016-10-02T10:29:21Z</time>
      </trkpt>
      <trkpt lat="45.94551" lon="4.83725">
        <ele>262</ele>
        <time>2016-10-02T10:29:22Z</time>
      </trkpt>
      <trkpt lat="45.9455" lon="4.83716">
        <ele>262</ele>
        <time>2016-10-02T10:29:23Z</time>
      </trkpt>
      <trkpt lat="45.94549" lon="4.83707">
        <ele>262</ele>
        <time>2016-10-02T10:29:24Z</time>
      </trkpt>
      <trkpt lat="45.94548" lon="4.83698">
        <ele>262</ele>
        <time>2016-10-02T10:29:25Z</time>
      </trkpt>
      <trkpt lat="45.94546" lon="4.83689">
        <ele>262</ele>
        <time>2016-10-02T10:29:26Z</time>
      </trkpt>
      <trkpt lat="45.94545" lon="4.8368">
        <ele>262</ele>
        <time>2016-10-02T10:29:27Z</time>
      </trkpt>
      <trkpt lat="45.94544" lon="4.83671">
        <ele>262</ele>
        <time>2016-10-02T10:29:28Z</time>
      </trkpt>
      <trkpt lat="45.94542" lon="4.83662">
        <ele>261</ele>
        <time>2016-10-02T10:29:29Z</time>
      </trkpt>
      <trkpt lat="45.94541" lon="4.83653">
        <ele>261</ele>
        <time>2016-10-02T10:29:30Z</time>
      </trkpt>
      <trkpt lat="45.9454" lon="4.83645">
        <ele>261</ele>
        <time>2016-10-02T10:29:31Z</time>
      </trkpt>
      <trkpt lat="45.94538" lon="4.83636">
        <ele>261</ele>
        <time>2016-10-02T10:29:32Z</time>
      </trkpt>
      <trkpt lat="45.94537" lon="4.83627">
        <ele>261</ele>
        <time>2016-10-02T10:29:33Z</time>
      </trkpt>
      <trkpt lat="45.94535" lon="4.83617">
        <ele>261</ele>
        <time>2016-10-02T10:29:34Z</time>
      </trkpt>
      <trkpt lat="45.94533" lon="4.83608">
        <ele>261</ele>
        <time>2016-10-02T10:29:35Z</time>
      </trkpt>
      <trkpt lat="45.94531" lon="4.83598">
        <ele>261</ele>
        <time>2016-10-02T10:29:36Z</time>
      </trkpt>
      <trkpt lat="45.94528" lon="4.83589">
        <ele>261</ele>
        <time>2016-10-02T10:29:37Z</time>
      </trkpt>
      <trkpt lat="45.94524" lon="4.8358">
        <ele>261</ele>
        <time>2016-10-02T10:29:38Z</time>
      </trkpt>
      <trkpt lat="45.9452" lon="4.83571">
        <ele>261</ele>
        <time>2016-10-02T10:29:39Z</time>
      </trkpt>
      <trkpt lat="45.94517" lon="4.83562">
        <ele>261</ele>
        <time>2016-10-02T10:29:40Z</time>
      </trkpt>
      <trkpt lat="45.94514" lon="4.83554">
        <ele>261</ele>
        <time>2016-10-02T10:29:41Z</time>
      </trkpt>
      <trkpt lat="45.94511" lon="4.83547">
        <ele>261</ele>
        <time>2016-10-02T10:29:42Z</time>
      </trkpt>
      <trkpt lat="45.94507" lon="4.8354">
        <ele>262</ele>
        <time>2016-10-02T10:29:43Z</time>
      </trkpt>
      <trkpt lat="45.94503" lon="4.83533">
        <ele>262</ele>
        <time>2016-10-02T10:29:44Z</time>
      </trkpt>
      <trkpt lat="45.94499" lon="4.83527">
        <ele>262</ele>
        <time>2016-10-02T10:29:45Z</time>
      </trkpt>
      <trkpt lat="45.94494" lon="4.83521">
        <ele>262</ele>
        <time>2016-10-02T10:29:46Z</time>
      </trkpt>
      <trkpt lat="45.9449" lon="4.83515">
        <ele>262</ele>
        <time>2016-10-02T10:29:47Z</time>
      </trkpt>
      <trkpt lat="45.94486" lon="4.83508">
        <ele>262</ele>
        <time>2016-10-02T10:29:48Z</time>
      </trkpt>
      <trkpt lat="45.94481" lon="4.83502">
        <ele>262</ele>
        <time>2016-10-02T10:29:49Z</time>
      </trkpt>
      <trkpt lat="45.94477" lon="4.83495">
        <ele>263</ele>
        <time>2016-10-02T10:29:50Z</time>
      </trkpt>
      <trkpt lat="45.94474" lon="4.83488">
        <ele>263</ele>
        <time>2016-10-02T10:29:51Z</time>
      </trkpt>
      <trkpt lat="45.9447" lon="4.83481">
        <ele>263</ele>
        <time>2016-10-02T10:29:52Z</time>
      </trkpt>
      <trkpt lat="45.94466" lon="4.83474">
        <ele>263</ele>
        <time>2016-10-02T10:29:53Z</time>
      </trkpt>
      <trkpt lat="45.94462" lon="4.83467">
        <ele>263</ele>
        <time>2016-10-02T10:29:54Z</time>
      </trkpt>
      <trkpt lat="45.94457" lon="4.8346">
        <ele>263</ele>
        <time>2016-10-02T10:29:55Z</time>
      </trkpt>
      <trkpt lat="45.94453" lon="4.83453">
        <ele>263</ele>
        <time>2016-10-02T10:29:56Z</time>
      </trkpt>
      <trkpt lat="45.9445" lon="4.83446">
        <ele>263</ele>
        <time>2016-10-02T10:29:57Z</time>
      </trkpt>
      <trkpt lat="45.94447" lon="4.83439">
        <ele>263</ele>
        <time>2016-10-02T10:29:58Z</time>
      </trkpt>
      <trkpt lat="45.94443" lon="4.83433">
        <ele>263</ele>
        <time>2016-10-02T10:29:59Z</time>
      </trkpt>
      <trkpt lat="45.9444" lon="4.83427">
        <ele>264</ele>
        <time>2016-10-02T10:30:00Z</time>
      </trkpt>
      <trkpt lat="45.94437" lon="4.83421">
        <ele>264</ele>
        <time>2016-10-02T10:30:01Z</time>
      </trkpt>
      <trkpt lat="45.94434" lon="4.83415">
        <ele>264</ele>
        <time>2016-10-02T10:30:02Z</time>
      </trkpt>
      <trkpt lat="45.94431" lon="4.83409">
        <ele>264</ele>
        <time>2016-10-02T10:30:03Z</time>
      </trkpt>
      <trkpt lat="45.94427" lon="4.83403">
        <ele>264</ele>
        <time>2016-10-02T10:30:04Z</time>
      </trkpt>
      <trkpt lat="45.94424" lon="4.83397">
        <ele>264</ele>
        <time>2016-10-02T10:30:05Z</time>
      </trkpt>
      <trkpt lat="45.94422" lon="4.83391">
        <ele>264</ele>
        <time>2016-10-02T10:30:06Z</time>
      </trkpt>
      <trkpt lat="45.94419" lon="4.83384">
        <ele>264</ele>
        <time>2016-10-02T10:30:07Z</time>
      </trkpt>
      <trkpt lat="45.94415" lon="4.83377">
        <ele>264</ele>
        <time>2016-10-02T10:30:08Z</time>
      </trkpt>
      <trkpt lat="45.94412" lon="4.83371">
        <ele>264</ele>
        <time>2016-10-02T10:30:09Z</time>
      </trkpt>
      <trkpt lat="45.94409" lon="4.83364">
        <ele>264</ele>
        <time>2016-10-02T10:30:10Z</time>
      </trkpt>
      <trkpt lat="45.94406" lon="4.83358">
        <ele>264</ele>
        <time>2016-10-02T10:30:11Z</time>
      </trkpt>
      <trkpt lat="45.94404" lon="4.83351">
        <ele>263</ele>
        <time>2016-10-02T10:30:12Z</time>
      </trkpt>
      <trkpt lat="45.94401" lon="4.83344">
        <ele>263</ele>
        <time>2016-10-02T10:30:13Z</time>
      </trkpt>
      <trkpt lat="45.94398" lon="4.83337">
        <ele>263</ele>
        <time>2016-10-02T10:30:14Z</time>
      </trkpt>
      <trkpt lat="45.94395" lon="4.8333">
        <ele>264</ele>
        <time>2016-10-02T10:30:15Z</time>
      </trkpt>
      <trkpt lat="45.94393" lon="4.83323">
        <ele>264</ele>
        <time>2016-10-02T10:30:16Z</time>
      </trkpt>
      <trkpt lat="45.9439" lon="4.83316">
        <ele>264</ele>
        <time>2016-10-02T10:30:17Z</time>
      </trkpt>
      <trkpt lat="45.94388" lon="4.83309">
        <ele>264</ele>
        <time>2016-10-02T10:30:18Z</time>
      </trkpt>
      <trkpt lat="45.94386" lon="4.83301">
        <ele>264</ele>
        <time>2016-10-02T10:30:19Z</time>
      </trkpt>
      <trkpt lat="45.94383" lon="4.83294">
        <ele>264</ele>
        <time>2016-10-02T10:30:20Z</time>
      </trkpt>
      <trkpt lat="45.94381" lon="4.83287">
        <ele>264</ele>
        <time>2016-10-02T10:30:21Z</time>
      </trkpt>
      <trkpt lat="45.94378" lon="4.8328">
        <ele>264</ele>
        <time>2016-10-02T10:30:22Z</time>
      </trkpt>
      <trkpt lat="45.94376" lon="4.83272">
        <ele>264</ele>
        <time>2016-10-02T10:30:23Z</time>
      </trkpt>
      <trkpt lat="45.94374" lon="4.83265">
        <ele>264</ele>
        <time>2016-10-02T10:30:24Z</time>
      </trkpt>
      <trkpt lat="45.94371" lon="4.83258">
        <ele>265</ele>
        <time>2016-10-02T10:30:25Z</time>
      </trkpt>
      <trkpt lat="45.9437" lon="4.83251">
        <ele>265</ele>
        <time>2016-10-02T10:30:26Z</time>
      </trkpt>
      <trkpt lat="45.94368" lon="4.83244">
        <ele>265</ele>
        <time>2016-10-02T10:30:27Z</time>
      </trkpt>
      <trkpt lat="45.94366" lon="4.83237">
        <ele>266</ele>
        <time>2016-10-02T10:30:28Z</time>
      </trkpt>
      <trkpt lat="45.94363" lon="4.8323">
        <ele>266</ele>
        <time>2016-10-02T10:30:29Z</time>
      </trkpt>
      <trkpt lat="45.94361" lon="4.83223">
        <ele>266</ele>
        <time>2016-10-02T10:30:30Z</time>
      </trkpt>
      <trkpt lat="45.94358" lon="4.83216">
        <ele>266</ele>
        <time>2016-10-02T10:30:31Z</time>
      </trkpt>
      <trkpt lat="45.94356" lon="4.83209">
        <ele>266</ele>
        <time>2016-10-02T10:30:32Z</time>
      </trkpt>
      <trkpt lat="45.94354" lon="4.83202">
        <ele>266</ele>
        <time>2016-10-02T10:30:33Z</time>
      </trkpt>
      <trkpt lat="45.94351" lon="4.83195">
        <ele>266</ele>
        <time>2016-10-02T10:30:34Z</time>
      </trkpt>
      <trkpt lat="45.94349" lon="4.83188">
        <ele>266</ele>
        <time>2016-10-02T10:30:35Z</time>
      </trkpt>
      <trkpt lat="45.94346" lon="4.83181">
        <ele>266</ele>
        <time>2016-10-02T10:30:36Z</time>
      </trkpt>
      <trkpt lat="45.94344" lon="4.83174">
        <ele>266</ele>
        <time>2016-10-02T10:30:37Z</time>
      </trkpt>
      <trkpt lat="45.94341" lon="4.83167">
        <ele>266</ele>
        <time>2016-10-02T10:30:38Z</time>
      </trkpt>
      <trkpt lat="45.94338" lon="4.8316">
        <ele>266</ele>
        <time>2016-10-02T10:30:39Z</time>
      </trkpt>
      <trkpt lat="45.94336" lon="4.83153">
        <ele>266</ele>
        <time>2016-10-02T10:30:40Z</time>
      </trkpt>
      <trkpt lat="45.94333" lon="4.83146">
        <ele>266</ele>
        <time>2016-10-02T10:30:41Z</time>
      </trkpt>
      <trkpt lat="45.94331" lon="4.83139">
        <ele>266</ele>
        <time>2016-10-02T10:30:42Z</time>
      </trkpt>
      <trkpt lat="45.94329" lon="4.83132">
        <ele>266</ele>
        <time>2016-10-02T10:30:43Z</time>
      </trkpt>
      <trkpt lat="45.94326" lon="4.83125">
        <ele>266</ele>
        <time>2016-10-02T10:30:44Z</time>
      </trkpt>
      <trkpt lat="45.94324" lon="4.83118">
        <ele>266</ele>
        <time>2016-10-02T10:30:45Z</time>
      </trkpt>
      <trkpt lat="45.94321" lon="4.8311">
        <ele>266</ele>
        <time>2016-10-02T10:30:46Z</time>
      </trkpt>
      <trkpt lat="45.94318" lon="4.83103">
        <ele>266</ele>
        <time>2016-10-02T10:30:47Z</time>
      </trkpt>
      <trkpt lat="45.94316" lon="4.83095">
        <ele>266</ele>
        <time>2016-10-02T10:30:48Z</time>
      </trkpt>
      <trkpt lat="45.94314" lon="4.83087">
        <ele>266</ele>
        <time>2016-10-02T10:30:49Z</time>
      </trkpt>
      <trkpt lat="45.94312" lon="4.8308">
        <ele>266</ele>
        <time>2016-10-02T10:30:50Z</time>
      </trkpt>
      <trkpt lat="45.9431" lon="4.83072">
        <ele>266</ele>
        <time>2016-10-02T10:30:51Z</time>
      </trkpt>
      <trkpt lat="45.94308" lon="4.83065">
        <ele>266</ele>
        <time>2016-10-02T10:30:52Z</time>
      </trkpt>
      <trkpt lat="45.94306" lon="4.83058">
        <ele>266</ele>
        <time>2016-10-02T10:30:53Z</time>
      </trkpt>
      <trkpt lat="45.94305" lon="4.83051">
        <ele>266</ele>
        <time>2016-10-02T10:30:54Z</time>
      </trkpt>
      <trkpt lat="45.94303" lon="4.83044">
        <ele>266</ele>
        <time>2016-10-02T10:30:55Z</time>
      </trkpt>
      <trkpt lat="45.94302" lon="4.83037">
        <ele>266</ele>
        <time>2016-10-02T10:30:56Z</time>
      </trkpt>
      <trkpt lat="45.94301" lon="4.83029">
        <ele>266</ele>
        <time>2016-10-02T10:30:57Z</time>
      </trkpt>
      <trkpt lat="45.943" lon="4.83022">
        <ele>266</ele>
        <time>2016-10-02T10:30:58Z</time>
      </trkpt>
      <trkpt lat="45.94299" lon="4.83015">
        <ele>266</ele>
        <time>2016-10-02T10:30:59Z</time>
      </trkpt>
      <trkpt lat="45.94297" lon="4.83007">
        <ele>266</ele>
        <time>2016-10-02T10:31:00Z</time>
      </trkpt>
      <trkpt lat="45.94296" lon="4.83">
        <ele>265</ele>
        <time>2016-10-02T10:31:01Z</time>
      </trkpt>
      <trkpt lat="45.94294" lon="4.82993">
        <ele>265</ele>
        <time>2016-10-02T10:31:02Z</time>
      </trkpt>
      <trkpt lat="45.94292" lon="4.82985">
        <ele>265</ele>
        <time>2016-10-02T10:31:03Z</time>
      </trkpt>
      <trkpt lat="45.94289" lon="4.82978">
        <ele>265</ele>
        <time>2016-10-02T10:31:04Z</time>
      </trkpt>
      <trkpt lat="45.94287" lon="4.82971">
        <ele>265</ele>
        <time>2016-10-02T10:31:05Z</time>
      </trkpt>
      <trkpt lat="45.94285" lon="4.82963">
        <ele>265</ele>
        <time>2016-10-02T10:31:06Z</time>
      </trkpt>
      <trkpt lat="45.94284" lon="4.82955">
        <ele>265</ele>
        <time>2016-10-02T10:31:07Z</time>
      </trkpt>
      <trkpt lat="45.94284" lon="4.82947">
        <ele>265</ele>
        <time>2016-10-02T10:31:08Z</time>
      </trkpt>
      <trkpt lat="45.94285" lon="4.82939">
        <ele>265</ele>
        <time>2016-10-02T10:31:09Z</time>
      </trkpt>
      <trkpt lat="45.94287" lon="4.82931">
        <ele>265</ele>
        <time>2016-10-02T10:31:10Z</time>
      </trkpt>
      <trkpt lat="45.94289" lon="4.82924">
        <ele>265</ele>
        <time>2016-10-02T10:31:11Z</time>
      </trkpt>
      <trkpt lat="45.94289" lon="4.82916">
        <ele>265</ele>
        <time>2016-10-02T10:31:12Z</time>
      </trkpt>
      <trkpt lat="45.94291" lon="4.82909">
        <ele>265</ele>
        <time>2016-10-02T10:31:13Z</time>
      </trkpt>
      <trkpt lat="45.94291" lon="4.82902">
        <ele>265</ele>
        <time>2016-10-02T10:31:14Z</time>
      </trkpt>
      <trkpt lat="45.94291" lon="4.82894">
        <ele>265</ele>
        <time>2016-10-02T10:31:15Z</time>
      </trkpt>
      <trkpt lat="45.94291" lon="4.82886">
        <ele>265</ele>
        <time>2016-10-02T10:31:16Z</time>
      </trkpt>
      <trkpt lat="45.94292" lon="4.82878">
        <ele>265</ele>
        <time>2016-10-02T10:31:17Z</time>
      </trkpt>
      <trkpt lat="45.94292" lon="4.8287">
        <ele>265</ele>
        <time>2016-10-02T10:31:18Z</time>
      </trkpt>
      <trkpt lat="45.94292" lon="4.82861">
        <ele>265</ele>
        <time>2016-10-02T10:31:19Z</time>
      </trkpt>
      <trkpt lat="45.94293" lon="4.82852">
        <ele>265</ele>
        <time>2016-10-02T10:31:20Z</time>
      </trkpt>
      <trkpt lat="45.94293" lon="4.82844">
        <ele>265</ele>
        <time>2016-10-02T10:31:21Z</time>
      </trkpt>
      <trkpt lat="45.94293" lon="4.82836">
        <ele>265</ele>
        <time>2016-10-02T10:31:22Z</time>
      </trkpt>
      <trkpt lat="45.94294" lon="4.82828">
        <ele>265</ele>
        <time>2016-10-02T10:31:23Z</time>
      </trkpt>
      <trkpt lat="45.94294" lon="4.82821">
        <ele>265</ele>
        <time>2016-10-02T10:31:24Z</time>
      </trkpt>
      <trkpt lat="45.94294" lon="4.82813">
        <ele>265</ele>
        <time>2016-10-02T10:31:25Z</time>
      </trkpt>
      <trkpt lat="45.94294" lon="4.82806">
        <ele>265</ele>
        <time>2016-10-02T10:31:26Z</time>
      </trkpt>
      <trkpt lat="45.94294" lon="4.82798">
        <ele>265</ele>
        <time>2016-10-02T10:31:27Z</time>
      </trkpt>
      <trkpt lat="45.94294" lon="4.8279">
        <ele>265</ele>
        <time>2016-10-02T10:31:28Z</time>
      </trkpt>
      <trkpt lat="45.94294" lon="4.82782">
        <ele>265</ele>
        <time>2016-10-02T10:31:29Z</time>
      </trkpt>
      <trkpt lat="45.94293" lon="4.82773">
        <ele>265</ele>
        <time>2016-10-02T10:31:30Z</time>
      </trkpt>
      <trkpt lat="45.94293" lon="4.82764">
        <ele>265</ele>
        <time>2016-10-02T10:31:31Z</time>
      </trkpt>
      <trkpt lat="45.94293" lon="4.82755">
        <ele>265</ele>
        <time>2016-10-02T10:31:32Z</time>
      </trkpt>
      <trkpt lat="45.94293" lon="4.82747">
        <ele>265</ele>
        <time>2016-10-02T10:31:33Z</time>
      </trkpt>
      <trkpt lat="45.94293" lon="4.82738">
        <ele>265</ele>
        <time>2016-10-02T10:31:34Z</time>
      </trkpt>
      <trkpt lat="45.94294" lon="4.8273">
        <ele>265</ele>
        <time>2016-10-02T10:31:35Z</time>
      </trkpt>
      <trkpt lat="45.94294" lon="4.82722">
        <ele>265</ele>
        <time>2016-10-02T10:31:36Z</time>
      </trkpt>
      <trkpt lat="45.94294" lon="4.82714">
        <ele>265</ele>
        <time>2016-10-02T10:31:37Z</time>
      </trkpt>
      <trkpt lat="45.94294" lon="4.82706">
        <ele>265</ele>
        <time>2016-10-02T10:31:38Z</time>
      </trkpt>
      <trkpt lat="45.94294" lon="4.82698">
        <ele>265</ele>
        <time>2016-10-02T10:31:39Z</time>
      </trkpt>
      <trkpt lat="45.94294" lon="4.8269">
        <ele>265</ele>
        <time>2016-10-02T10:31:40Z</time>
      </trkpt>
      <trkpt lat="45.94295" lon="4.82682">
        <ele>265</ele>
        <time>2016-10-02T10:31:41Z</time>
      </trkpt>
      <trkpt lat="45.94295" lon="4.82674">
        <ele>265</ele>
        <time>2016-10-02T10:31:42Z</time>
      </trkpt>
      <trkpt lat="45.94295" lon="4.82666">
        <ele>265</ele>
        <time>2016-10-02T10:31:43Z</time>
      </trkpt>
      <trkpt lat="45.94296" lon="4.82658">
        <ele>265</ele>
        <time>2016-10-02T10:31:44Z</time>
      </trkpt>
      <trkpt lat="45.94296" lon="4.8265">
        <ele>265</ele>
        <time>2016-10-02T10:31:45Z</time>
      </trkpt>
      <trkpt lat="45.94296" lon="4.82642">
        <ele>265</ele>
        <time>2016-10-02T10:31:46Z</time>
      </trkpt>
      <trkpt lat="45.94296" lon="4.82635">
        <ele>265</ele>
        <time>2016-10-02T10:31:47Z</time>
      </trkpt>
      <trkpt lat="45.94296" lon="4.82627">
        <ele>265</ele>
        <time>2016-10-02T10:31:48Z</time>
      </trkpt>
      <trkpt lat="45.94296" lon="4.82619">
        <ele>265</ele>
        <time>2016-10-02T10:31:49Z</time>
      </trkpt>
      <trkpt lat="45.94297" lon="4.82611">
        <ele>265</ele>
        <time>2016-10-02T10:31:50Z</time>
      </trkpt>
      <trkpt lat="45.94297" lon="4.82603">
        <ele>265</ele>
        <time>2016-10-02T10:31:51Z</time>
      </trkpt>
      <trkpt lat="45.94297" lon="4.82595">
        <ele>265</ele>
        <time>2016-10-02T10:31:52Z</time>
      </trkpt>
      <trkpt lat="45.94297" lon="4.82587">
        <ele>265</ele>
        <time>2016-10-02T10:31:53Z</time>
      </trkpt>
      <trkpt lat="45.94297" lon="4.82578">
        <ele>264</ele>
        <time>2016-10-02T10:31:54Z</time>
      </trkpt>
      <trkpt lat="45.94297" lon="4.8257">
        <ele>264</ele>
        <time>2016-10-02T10:31:55Z</time>
      </trkpt>
      <trkpt lat="45.94297" lon="4.82562">
        <ele>264</ele>
        <time>2016-10-02T10:31:56Z</time>
      </trkpt>
      <trkpt lat="45.94297" lon="4.82553">
        <ele>264</ele>
        <time>2016-10-02T10:31:57Z</time>
      </trkpt>
      <trkpt lat="45.94298" lon="4.82544">
        <ele>264</ele>
        <time>2016-10-02T10:31:58Z</time>
      </trkpt>
      <trkpt lat="45.94299" lon="4.82536">
        <ele>264</ele>
        <time>2016-10-02T10:31:59Z</time>
      </trkpt>
      <trkpt lat="45.94299" lon="4.82528">
        <ele>264</ele>
        <time>2016-10-02T10:32:00Z</time>
      </trkpt>
      <trkpt lat="45.94299" lon="4.82519">
        <ele>264</ele>
        <time>2016-10-02T10:32:01Z</time>
      </trkpt>
      <trkpt lat="45.94299" lon="4.8251">
        <ele>264</ele>
        <time>2016-10-02T10:32:02Z</time>
      </trkpt>
      <trkpt lat="45.94298" lon="4.82501">
        <ele>264</ele>
        <time>2016-10-02T10:32:03Z</time>
      </trkpt>
      <trkpt lat="45.94298" lon="4.82492">
        <ele>264</ele>
        <time>2016-10-02T10:32:04Z</time>
      </trkpt>
      <trkpt lat="45.94297" lon="4.82483">
        <ele>264</ele>
        <time>2016-10-02T10:32:05Z</time>
      </trkpt>
      <trkpt lat="45.94297" lon="4.82474">
        <ele>264</ele>
        <time>2016-10-02T10:32:06Z</time>
      </trkpt>
      <trkpt lat="45.94297" lon="4.82465">
        <ele>264</ele>
        <time>2016-10-02T10:32:07Z</time>
      </trkpt>
      <trkpt lat="45.94296" lon="4.82456">
        <ele>264</ele>
        <time>2016-10-02T10:32:08Z</time>
      </trkpt>
      <trkpt lat="45.94296" lon="4.82447">
        <ele>264</ele>
        <time>2016-10-02T10:32:09Z</time>
      </trkpt>
      <trkpt lat="45.94296" lon="4.82438">
        <ele>264</ele>
        <time>2016-10-02T10:32:10Z</time>
      </trkpt>
      <trkpt lat="45.94295" lon="4.8243">
        <ele>264</ele>
        <time>2016-10-02T10:32:11Z</time>
      </trkpt>
      <trkpt lat="45.94295" lon="4.82421">
        <ele>264</ele>
        <time>2016-10-02T10:32:12Z</time>
      </trkpt>
      <trkpt lat="45.94295" lon="4.82411">
        <ele>264</ele>
        <time>2016-10-02T10:32:13Z</time>
      </trkpt>
      <trkpt lat="45.94296" lon="4.82402">
        <ele>264</ele>
        <time>2016-10-02T10:32:14Z</time>
      </trkpt>
      <trkpt lat="45.94296" lon="4.82392">
        <ele>264</ele>
        <time>2016-10-02T10:32:15Z</time>
      </trkpt>
      <trkpt lat="45.94296" lon="4.82383">
        <ele>264</ele>
        <time>2016-10-02T10:32:16Z</time>
      </trkpt>
      <trkpt lat="45.94295" lon="4.82374">
        <ele>264</ele>
        <time>2016-10-02T10:32:17Z</time>
      </trkpt>
      <trkpt lat="45.94294" lon="4.82365">
        <ele>264</ele>
        <time>2016-10-02T10:32:18Z</time>
      </trkpt>
      <trkpt lat="45.94293" lon="4.82355">
        <ele>264</ele>
        <time>2016-10-02T10:32:19Z</time>
      </trkpt>
      <trkpt lat="45.94293" lon="4.82346">
        <ele>264</ele>
        <time>2016-10-02T10:32:20Z</time>
      </trkpt>
      <trkpt lat="45.94292" lon="4.82337">
        <ele>264</ele>
        <time>2016-10-02T10:32:21Z</time>
      </trkpt>
      <trkpt lat="45.94292" lon="4.82327">
        <ele>265</ele>
        <time>2016-10-02T10:32:22Z</time>
      </trkpt>
      <trkpt lat="45.94291" lon="4.82318">
        <ele>265</ele>
        <time>2016-10-02T10:32:23Z</time>
      </trkpt>
      <trkpt lat="45.94291" lon="4.82309">
        <ele>265</ele>
        <time>2016-10-02T10:32:24Z</time>
      </trkpt>
      <trkpt lat="45.9429" lon="4.823">
        <ele>265</ele>
        <time>2016-10-02T10:32:25Z</time>
      </trkpt>
      <trkpt lat="45.9429" lon="4.82291">
        <ele>265</ele>
        <time>2016-10-02T10:32:26Z</time>
      </trkpt>
      <trkpt lat="45.94289" lon="4.82282">
        <ele>265</ele>
        <time>2016-10-02T10:32:27Z</time>
      </trkpt>
      <trkpt lat="45.94287" lon="4.82274">
        <ele>265</ele>
        <time>2016-10-02T10:32:28Z</time>
      </trkpt>
      <trkpt lat="45.94288" lon="4.82265">
        <ele>265</ele>
        <time>2016-10-02T10:32:29Z</time>
      </trkpt>
      <trkpt lat="45.94288" lon="4.82257">
        <ele>265</ele>
        <time>2016-10-02T10:32:30Z</time>
      </trkpt>
      <trkpt lat="45.94287" lon="4.82248">
        <ele>264</ele>
        <time>2016-10-02T10:32:31Z</time>
      </trkpt>
      <trkpt lat="45.94286" lon="4.82238">
        <ele>264</ele>
        <time>2016-10-02T10:32:32Z</time>
      </trkpt>
      <trkpt lat="45.94285" lon="4.82229">
        <ele>264</ele>
        <time>2016-10-02T10:32:33Z</time>
      </trkpt>
      <trkpt lat="45.94285" lon="4.82219">
        <ele>264</ele>
        <time>2016-10-02T10:32:34Z</time>
      </trkpt>
      <trkpt lat="45.94284" lon="4.82209">
        <ele>264</ele>
        <time>2016-10-02T10:32:35Z</time>
      </trkpt>
      <trkpt lat="45.94282" lon="4.822">
        <ele>264</ele>
        <time>2016-10-02T10:32:36Z</time>
      </trkpt>
      <trkpt lat="45.94281" lon="4.82191">
        <ele>264</ele>
        <time>2016-10-02T10:32:37Z</time>
      </trkpt>
      <trkpt lat="45.94279" lon="4.82181">
        <ele>264</ele>
        <time>2016-10-02T10:32:38Z</time>
      </trkpt>
      <trkpt lat="45.94278" lon="4.82172">
        <ele>264</ele>
        <time>2016-10-02T10:32:39Z</time>
      </trkpt>
      <trkpt lat="45.94277" lon="4.82163">
        <ele>263</ele>
        <time>2016-10-02T10:32:40Z</time>
      </trkpt>
      <trkpt lat="45.94278" lon="4.82154">
        <ele>263</ele>
        <time>2016-10-02T10:32:41Z</time>
      </trkpt>
      <trkpt lat="45.94277" lon="4.82146">
        <ele>263</ele>
        <time>2016-10-02T10:32:42Z</time>
      </trkpt>
      <trkpt lat="45.94279" lon="4.82138">
        <ele>263</ele>
        <time>2016-10-02T10:32:43Z</time>
      </trkpt>
      <trkpt lat="45.94279" lon="4.82128">
        <ele>263</ele>
        <time>2016-10-02T10:32:44Z</time>
      </trkpt>
      <trkpt lat="45.94277" lon="4.82119">
        <ele>263</ele>
        <time>2016-10-02T10:32:45Z</time>
      </trkpt>
      <trkpt lat="45.94274" lon="4.82111">
        <ele>263</ele>
        <time>2016-10-02T10:32:46Z</time>
      </trkpt>
      <trkpt lat="45.94272" lon="4.82103">
        <ele>263</ele>
        <time>2016-10-02T10:32:47Z</time>
      </trkpt>
      <trkpt lat="45.9427" lon="4.82095">
        <ele>262</ele>
        <time>2016-10-02T10:32:48Z</time>
      </trkpt>
      <trkpt lat="45.94268" lon="4.82087">
        <ele>262</ele>
        <time>2016-10-02T10:32:49Z</time>
      </trkpt>
      <trkpt lat="45.94266" lon="4.82079">
        <ele>262</ele>
        <time>2016-10-02T10:32:50Z</time>
      </trkpt>
      <trkpt lat="45.94263" lon="4.82071">
        <ele>262</ele>
        <time>2016-10-02T10:32:51Z</time>
      </trkpt>
      <trkpt lat="45.94261" lon="4.82063">
        <ele>262</ele>
        <time>2016-10-02T10:32:52Z</time>
      </trkpt>
      <trkpt lat="45.94259" lon="4.82055">
        <ele>262</ele>
        <time>2016-10-02T10:32:53Z</time>
      </trkpt>
      <trkpt lat="45.94257" lon="4.82047">
        <ele>262</ele>
        <time>2016-10-02T10:32:54Z</time>
      </trkpt>
      <trkpt lat="45.94255" lon="4.82039">
        <ele>262</ele>
        <time>2016-10-02T10:32:55Z</time>
      </trkpt>
      <trkpt lat="45.94254" lon="4.82031">
        <ele>262</ele>
        <time>2016-10-02T10:32:56Z</time>
      </trkpt>
      <trkpt lat="45.94251" lon="4.82023">
        <ele>262</ele>
        <time>2016-10-02T10:32:57Z</time>
      </trkpt>
      <trkpt lat="45.9425" lon="4.82014">
        <ele>263</ele>
        <time>2016-10-02T10:32:58Z</time>
      </trkpt>
      <trkpt lat="45.94248" lon="4.82006">
        <ele>262</ele>
        <time>2016-10-02T10:32:59Z</time>
      </trkpt>
      <trkpt lat="45.94246" lon="4.81997">
        <ele>262</ele>
        <time>2016-10-02T10:33:00Z</time>
      </trkpt>
      <trkpt lat="45.94245" lon="4.81989">
        <ele>263</ele>
        <time>2016-10-02T10:33:01Z</time>
      </trkpt>
      <trkpt lat="45.94243" lon="4.81981">
        <ele>263</ele>
        <time>2016-10-02T10:33:02Z</time>
      </trkpt>
      <trkpt lat="45.94241" lon="4.81973">
        <ele>263</ele>
        <time>2016-10-02T10:33:03Z</time>
      </trkpt>
      <trkpt lat="45.9424" lon="4.81965">
        <ele>263</ele>
        <time>2016-10-02T10:33:04Z</time>
      </trkpt>
      <trkpt lat="45.94238" lon="4.81957">
        <ele>264</ele>
        <time>2016-10-02T10:33:05Z</time>
      </trkpt>
      <trkpt lat="45.94236" lon="4.81948">
        <ele>264</ele>
        <time>2016-10-02T10:33:06Z</time>
      </trkpt>
      <trkpt lat="45.94235" lon="4.81939">
        <ele>263</ele>
        <time>2016-10-02T10:33:07Z</time>
      </trkpt>
      <trkpt lat="45.94232" lon="4.8193">
        <ele>263</ele>
        <time>2016-10-02T10:33:08Z</time>
      </trkpt>
      <trkpt lat="45.9423" lon="4.81921">
        <ele>263</ele>
        <time>2016-10-02T10:33:09Z</time>
      </trkpt>
      <trkpt lat="45.94228" lon="4.81913">
        <ele>264</ele>
        <time>2016-10-02T10:33:10Z</time>
      </trkpt>
      <trkpt lat="45.94226" lon="4.81906">
        <ele>264</ele>
        <time>2016-10-02T10:33:11Z</time>
      </trkpt>
      <trkpt lat="45.94226" lon="4.81898">
        <ele>264</ele>
        <time>2016-10-02T10:33:12Z</time>
      </trkpt>
      <trkpt lat="45.94224" lon="4.81891">
        <ele>265</ele>
        <time>2016-10-02T10:33:13Z</time>
      </trkpt>
      <trkpt lat="45.94224" lon="4.81885">
        <ele>265</ele>
        <time>2016-10-02T10:33:14Z</time>
      </trkpt>
      <trkpt lat="45.94224" lon="4.81878">
        <ele>265</ele>
        <time>2016-10-02T10:33:15Z</time>
      </trkpt>
      <trkpt lat="45.94222" lon="4.81871">
        <ele>265</ele>
        <time>2016-10-02T10:33:16Z</time>
      </trkpt>
      <trkpt lat="45.94221" lon="4.81862">
        <ele>265</ele>
        <time>2016-10-02T10:33:17Z</time>
      </trkpt>
      <trkpt lat="45.94219" lon="4.81854">
        <ele>265</ele>
        <time>2016-10-02T10:33:18Z</time>
      </trkpt>
      <trkpt lat="45.94218" lon="4.81846">
        <ele>265</ele>
        <time>2016-10-02T10:33:19Z</time>
      </trkpt>
      <trkpt lat="45.94216" lon="4.81838">
        <ele>265</ele>
        <time>2016-10-02T10:33:20Z</time>
      </trkpt>
      <trkpt lat="45.94215" lon="4.8183">
        <ele>265</ele>
        <time>2016-10-02T10:33:21Z</time>
      </trkpt>
      <trkpt lat="45.94213" lon="4.81821">
        <ele>265</ele>
        <time>2016-10-02T10:33:22Z</time>
      </trkpt>
      <trkpt lat="45.94212" lon="4.81813">
        <ele>265</ele>
        <time>2016-10-02T10:33:23Z</time>
      </trkpt>
      <trkpt lat="45.94212" lon="4.81805">
        <ele>265</ele>
        <time>2016-10-02T10:33:24Z</time>
      </trkpt>
      <trkpt lat="45.94212" lon="4.81798">
        <ele>265</ele>
        <time>2016-10-02T10:33:25Z</time>
      </trkpt>
      <trkpt lat="45.94214" lon="4.8179">
        <ele>265</ele>
        <time>2016-10-02T10:33:26Z</time>
      </trkpt>
      <trkpt lat="45.94215" lon="4.81783">
        <ele>265</ele>
        <time>2016-10-02T10:33:27Z</time>
      </trkpt>
      <trkpt lat="45.94217" lon="4.81776">
        <ele>265</ele>
        <time>2016-10-02T10:33:28Z</time>
      </trkpt>
      <trkpt lat="45.94218" lon="4.8177">
        <ele>265</ele>
        <time>2016-10-02T10:33:29Z</time>
      </trkpt>
      <trkpt lat="45.94222" lon="4.81764">
        <ele>265</ele>
        <time>2016-10-02T10:33:30Z</time>
      </trkpt>
      <trkpt lat="45.94225" lon="4.81757">
        <ele>264</ele>
        <time>2016-10-02T10:33:31Z</time>
      </trkpt>
      <trkpt lat="45.94228" lon="4.8175">
        <ele>265</ele>
        <time>2016-10-02T10:33:32Z</time>
      </trkpt>
      <trkpt lat="45.9423" lon="4.81743">
        <ele>265</ele>
        <time>2016-10-02T10:33:33Z</time>
      </trkpt>
      <trkpt lat="45.94231" lon="4.81735">
        <ele>265</ele>
        <time>2016-10-02T10:33:34Z</time>
      </trkpt>
      <trkpt lat="45.94231" lon="4.81728">
        <ele>265</ele>
        <time>2016-10-02T10:33:35Z</time>
      </trkpt>
      <trkpt lat="45.94228" lon="4.81722">
        <ele>265</ele>
        <time>2016-10-02T10:33:36Z</time>
      </trkpt>
      <trkpt lat="45.94224" lon="4.81716">
        <ele>266</ele>
        <time>2016-10-02T10:33:37Z</time>
      </trkpt>
      <trkpt lat="45.94219" lon="4.81712">
        <ele>266</ele>
        <time>2016-10-02T10:33:38Z</time>
      </trkpt>
      <trkpt lat="45.94214" lon="4.81709">
        <ele>266</ele>
        <time>2016-10-02T10:33:39Z</time>
      </trkpt>
      <trkpt lat="45.94209" lon="4.81707">
        <ele>266</ele>
        <time>2016-10-02T10:33:40Z</time>
      </trkpt>
      <trkpt lat="45.94204" lon="4.81703">
        <ele>266</ele>
        <time>2016-10-02T10:33:41Z</time>
      </trkpt>
      <trkpt lat="45.94199" lon="4.81699">
        <ele>267</ele>
        <time>2016-10-02T10:33:42Z</time>
      </trkpt>
      <trkpt lat="45.94194" lon="4.81694">
        <ele>267</ele>
        <time>2016-10-02T10:33:43Z</time>
      </trkpt>
      <trkpt lat="45.9419" lon="4.81687">
        <ele>267</ele>
        <time>2016-10-02T10:33:44Z</time>
      </trkpt>
      <trkpt lat="45.94186" lon="4.8168">
        <ele>267</ele>
        <time>2016-10-02T10:33:45Z</time>
      </trkpt>
      <trkpt lat="45.94184" lon="4.8167">
        <ele>268</ele>
        <time>2016-10-02T10:33:46Z</time>
      </trkpt>
      <trkpt lat="45.94181" lon="4.8166">
        <ele>268</ele>
        <time>2016-10-02T10:33:47Z</time>
      </trkpt>
      <trkpt lat="45.94178" lon="4.8165">
        <ele>268</ele>
        <time>2016-10-02T10:33:48Z</time>
      </trkpt>
      <trkpt lat="45.94177" lon="4.81639">
        <ele>268</ele>
        <time>2016-10-02T10:33:49Z</time>
      </trkpt>
      <trkpt lat="45.94175" lon="4.81628">
        <ele>267</ele>
        <time>2016-10-02T10:33:50Z</time>
      </trkpt>
      <trkpt lat="45.94173" lon="4.81617">
        <ele>267</ele>
        <time>2016-10-02T10:33:51Z</time>
      </trkpt>
      <trkpt lat="45.9417" lon="4.81606">
        <ele>267</ele>
        <time>2016-10-02T10:33:52Z</time>
      </trkpt>
      <trkpt lat="45.94168" lon="4.81594">
        <ele>267</ele>
        <time>2016-10-02T10:33:53Z</time>
      </trkpt>
      <trkpt lat="45.94166" lon="4.81582">
        <ele>267</ele>
        <time>2016-10-02T10:33:54Z</time>
      </trkpt>
      <trkpt lat="45.94164" lon="4.81569">
        <ele>266</ele>
        <time>2016-10-02T10:33:55Z</time>
      </trkpt>
      <trkpt lat="45.94163" lon="4.81557">
        <ele>265</ele>
        <time>2016-10-02T10:33:56Z</time>
      </trkpt>
      <trkpt lat="45.94163" lon="4.81544">
        <ele>264</ele>
        <time>2016-10-02T10:33:57Z</time>
      </trkpt>
      <trkpt lat="45.94163" lon="4.81531">
        <ele>264</ele>
        <time>2016-10-02T10:33:58Z</time>
      </trkpt>
      <trkpt lat="45.94163" lon="4.81517">
        <ele>263</ele>
        <time>2016-10-02T10:33:59Z</time>
      </trkpt>
      <trkpt lat="45.94164" lon="4.81505">
        <ele>263</ele>
        <time>2016-10-02T10:34:00Z</time>
      </trkpt>
      <trkpt lat="45.94164" lon="4.81491">
        <ele>261</ele>
        <time>2016-10-02T10:34:01Z</time>
      </trkpt>
      <trkpt lat="45.94166" lon="4.81475">
        <ele>259</ele>
        <time>2016-10-02T10:34:02Z</time>
      </trkpt>
      <trkpt lat="45.94169" lon="4.81459">
        <ele>262</ele>
        <time>2016-10-02T10:34:03Z</time>
      </trkpt>
      <trkpt lat="45.94171" lon="4.81443">
        <ele>260</ele>
        <time>2016-10-02T10:34:04Z</time>
      </trkpt>
      <trkpt lat="45.94172" lon="4.81428">
        <ele>259</ele>
        <time>2016-10-02T10:34:05Z</time>
      </trkpt>
      <trkpt lat="45.94172" lon="4.81412">
        <ele>257</ele>
        <time>2016-10-02T10:34:06Z</time>
      </trkpt>
      <trkpt lat="45.94173" lon="4.81396">
        <ele>258</ele>
        <time>2016-10-02T10:34:07Z</time>
      </trkpt>
      <trkpt lat="45.94174" lon="4.81379">
        <ele>258</ele>
        <time>2016-10-02T10:34:08Z</time>
      </trkpt>
      <trkpt lat="45.94175" lon="4.81364">
        <ele>257</ele>
        <time>2016-10-02T10:34:09Z</time>
      </trkpt>
      <trkpt lat="45.94176" lon="4.81347">
        <ele>256</ele>
        <time>2016-10-02T10:34:10Z</time>
      </trkpt>
      <trkpt lat="45.94178" lon="4.81332">
        <ele>254</ele>
        <time>2016-10-02T10:34:11Z</time>
      </trkpt>
      <trkpt lat="45.94178" lon="4.81315">
        <ele>255</ele>
        <time>2016-10-02T10:34:12Z</time>
      </trkpt>
      <trkpt lat="45.94178" lon="4.81299">
        <ele>256</ele>
        <time>2016-10-02T10:34:13Z</time>
      </trkpt>
      <trkpt lat="45.94176" lon="4.81282">
        <ele>255</ele>
        <time>2016-10-02T10:34:14Z</time>
      </trkpt>
      <trkpt lat="45.94176" lon="4.81263">
        <ele>254</ele>
        <time>2016-10-02T10:34:15Z</time>
      </trkpt>
      <trkpt lat="45.94175" lon="4.81246">
        <ele>252</ele>
        <time>2016-10-02T10:34:16Z</time>
      </trkpt>
      <trkpt lat="45.94173" lon="4.81229">
        <ele>253</ele>
        <time>2016-10-02T10:34:17Z</time>
      </trkpt>
      <trkpt lat="45.94168" lon="4.81212">
        <ele>253</ele>
        <time>2016-10-02T10:34:18Z</time>
      </trkpt>
      <trkpt lat="45.94163" lon="4.81196">
        <ele>245</ele>
        <time>2016-10-02T10:34:19Z</time>
      </trkpt>
      <trkpt lat="45.94158" lon="4.8118">
        <ele>246</ele>
        <time>2016-10-02T10:34:20Z</time>
      </trkpt>
      <trkpt lat="45.94153" lon="4.81164">
        <ele>246</ele>
        <time>2016-10-02T10:34:21Z</time>
      </trkpt>
      <trkpt lat="45.94147" lon="4.81149">
        <ele>245</ele>
        <time>2016-10-02T10:34:22Z</time>
      </trkpt>
      <trkpt lat="45.9414" lon="4.81135">
        <ele>244</ele>
        <time>2016-10-02T10:34:23Z</time>
      </trkpt>
      <trkpt lat="45.94133" lon="4.81122">
        <ele>244</ele>
        <time>2016-10-02T10:34:24Z</time>
      </trkpt>
      <trkpt lat="45.94126" lon="4.81109">
        <ele>244</ele>
        <time>2016-10-02T10:34:25Z</time>
      </trkpt>
      <trkpt lat="45.9412" lon="4.81095">
        <ele>243</ele>
        <time>2016-10-02T10:34:26Z</time>
      </trkpt>
      <trkpt lat="45.94113" lon="4.81081">
        <ele>244</ele>
        <time>2016-10-02T10:34:27Z</time>
      </trkpt>
      <trkpt lat="45.94105" lon="4.81067">
        <ele>243</ele>
        <time>2016-10-02T10:34:28Z</time>
      </trkpt>
      <trkpt lat="45.94099" lon="4.81053">
        <ele>244</ele>
        <time>2016-10-02T10:34:29Z</time>
      </trkpt>
      <trkpt lat="45.94094" lon="4.8104">
        <ele>244</ele>
        <time>2016-10-02T10:34:30Z</time>
      </trkpt>
      <trkpt lat="45.94089" lon="4.81026">
        <ele>244</ele>
        <time>2016-10-02T10:34:31Z</time>
      </trkpt>
      <trkpt lat="45.94082" lon="4.81016">
        <ele>236</ele>
        <time>2016-10-02T10:34:32Z</time>
      </trkpt>
      <trkpt lat="45.94078" lon="4.81">
        <ele>238</ele>
        <time>2016-10-02T10:34:33Z</time>
      </trkpt>
      <trkpt lat="45.94073" lon="4.80986">
        <ele>235</ele>
        <time>2016-10-02T10:34:34Z</time>
      </trkpt>
      <trkpt lat="45.94071" lon="4.80972">
        <ele>233</ele>
        <time>2016-10-02T10:34:35Z</time>
      </trkpt>
      <trkpt lat="45.94067" lon="4.80957">
        <ele>232</ele>
        <time>2016-10-02T10:34:36Z</time>
      </trkpt>
      <trkpt lat="45.94061" lon="4.80946">
        <ele>232</ele>
        <time>2016-10-02T10:34:37Z</time>
      </trkpt>
      <trkpt lat="45.94055" lon="4.80935">
        <ele>231</ele>
        <time>2016-10-02T10:34:38Z</time>
      </trkpt>
      <trkpt lat="45.9405" lon="4.80924">
        <ele>231</ele>
        <time>2016-10-02T10:34:39Z</time>
      </trkpt>
      <trkpt lat="45.94059" lon="4.80915">
        <ele>232</ele>
        <time>2016-10-02T10:34:40Z</time>
      </trkpt>
      <trkpt lat="45.94061" lon="4.80909">
        <ele>232</ele>
        <time>2016-10-02T10:34:41Z</time>
      </trkpt>
      <trkpt lat="45.94065" lon="4.80902">
        <ele>232</ele>
        <time>2016-10-02T10:34:42Z</time>
      </trkpt>
      <trkpt lat="45.94067" lon="4.80881">
        <ele>232</ele>
        <time>2016-10-02T10:34:43Z</time>
      </trkpt>
      <trkpt lat="45.94064" lon="4.80858">
        <ele>232</ele>
        <time>2016-10-02T10:34:44Z</time>
      </trkpt>
      <trkpt lat="45.94064" lon="4.80837">
        <ele>233</ele>
        <time>2016-10-02T10:34:45Z</time>
      </trkpt>
      <trkpt lat="45.94063" lon="4.80817">
        <ele>232</ele>
        <time>2016-10-02T10:34:46Z</time>
      </trkpt>
      <trkpt lat="45.9406" lon="4.80793">
        <ele>230</ele>
        <time>2016-10-02T10:34:47Z</time>
      </trkpt>
      <trkpt lat="45.94058" lon="4.80773">
        <ele>230</ele>
        <time>2016-10-02T10:34:48Z</time>
      </trkpt>
      <trkpt lat="45.94057" lon="4.80756">
        <ele>230</ele>
        <time>2016-10-02T10:34:49Z</time>
      </trkpt>
      <trkpt lat="45.94054" lon="4.80742">
        <ele>229</ele>
        <time>2016-10-02T10:34:50Z</time>
      </trkpt>
      <trkpt lat="45.94052" lon="4.80725">
        <ele>228</ele>
        <time>2016-10-02T10:34:51Z</time>
      </trkpt>
      <trkpt lat="45.94046" lon="4.80712">
        <ele>227</ele>
        <time>2016-10-02T10:34:52Z</time>
      </trkpt>
      <trkpt lat="45.94046" lon="4.80696">
        <ele>227</ele>
        <time>2016-10-02T10:34:53Z</time>
      </trkpt>
      <trkpt lat="45.94046" lon="4.80678">
        <ele>227</ele>
        <time>2016-10-02T10:34:54Z</time>
      </trkpt>
      <trkpt lat="45.94044" lon="4.8066">
        <ele>227</ele>
        <time>2016-10-02T10:34:55Z</time>
      </trkpt>
      <trkpt lat="45.94042" lon="4.80645">
        <ele>227</ele>
        <time>2016-10-02T10:34:56Z</time>
      </trkpt>
      <trkpt lat="45.94042" lon="4.8063">
        <ele>227</ele>
        <time>2016-10-02T10:34:57Z</time>
      </trkpt>
      <trkpt lat="45.94041" lon="4.80618">
        <ele>227</ele>
        <time>2016-10-02T10:34:58Z</time>
      </trkpt>
      <trkpt lat="45.94039" lon="4.80605">
        <ele>226</ele>
        <time>2016-10-02T10:34:59Z</time>
      </trkpt>
      <trkpt lat="45.94038" lon="4.80591">
        <ele>226</ele>
        <time>2016-10-02T10:35:00Z</time>
      </trkpt>
      <trkpt lat="45.94037" lon="4.80576">
        <ele>226</ele>
        <time>2016-10-02T10:35:01Z</time>
      </trkpt>
      <trkpt lat="45.94037" lon="4.80562">
        <ele>226</ele>
        <time>2016-10-02T10:35:02Z</time>
      </trkpt>
      <trkpt lat="45.94036" lon="4.80548">
        <ele>226</ele>
        <time>2016-10-02T10:35:03Z</time>
      </trkpt>
      <trkpt lat="45.94034" lon="4.80535">
        <ele>226</ele>
        <time>2016-10-02T10:35:04Z</time>
      </trkpt>
      <trkpt lat="45.94032" lon="4.8052">
        <ele>226</ele>
        <time>2016-10-02T10:35:05Z</time>
      </trkpt>
      <trkpt lat="45.94029" lon="4.80504">
        <ele>225</ele>
        <time>2016-10-02T10:35:06Z</time>
      </trkpt>
      <trkpt lat="45.94028" lon="4.8049">
        <ele>224</ele>
        <time>2016-10-02T10:35:07Z</time>
      </trkpt>
      <trkpt lat="45.94028" lon="4.80475">
        <ele>224</ele>
        <time>2016-10-02T10:35:08Z</time>
      </trkpt>
      <trkpt lat="45.94027" lon="4.8046">
        <ele>224</ele>
        <time>2016-10-02T10:35:09Z</time>
      </trkpt>
      <trkpt lat="45.94025" lon="4.80445">
        <ele>223</ele>
        <time>2016-10-02T10:35:10Z</time>
      </trkpt>
      <trkpt lat="45.94023" lon="4.8043">
        <ele>222</ele>
        <time>2016-10-02T10:35:11Z</time>
      </trkpt>
      <trkpt lat="45.94021" lon="4.80416">
        <ele>218</ele>
        <time>2016-10-02T10:35:12Z</time>
      </trkpt>
      <trkpt lat="45.94015" lon="4.80396">
        <ele>218</ele>
        <time>2016-10-02T10:35:13Z</time>
      </trkpt>
      <trkpt lat="45.94012" lon="4.80382">
        <ele>217</ele>
        <time>2016-10-02T10:35:14Z</time>
      </trkpt>
      <trkpt lat="45.9401" lon="4.80367">
        <ele>215</ele>
        <time>2016-10-02T10:35:15Z</time>
      </trkpt>
      <trkpt lat="45.94002" lon="4.80338">
        <ele>208</ele>
        <time>2016-10-02T10:35:16Z</time>
      </trkpt>
      <trkpt lat="45.94002" lon="4.80318">
        <ele>208</ele>
        <time>2016-10-02T10:35:17Z</time>
      </trkpt>
      <trkpt lat="45.93999" lon="4.80305">
        <ele>203</ele>
        <time>2016-10-02T10:35:18Z</time>
      </trkpt>
      <trkpt lat="45.93994" lon="4.80292">
        <ele>203</ele>
        <time>2016-10-02T10:35:19Z</time>
      </trkpt>
      <trkpt lat="45.93988" lon="4.80281">
        <ele>203</ele>
        <time>2016-10-02T10:35:20Z</time>
      </trkpt>
      <trkpt lat="45.93983" lon="4.80269">
        <ele>203</ele>
        <time>2016-10-02T10:35:21Z</time>
      </trkpt>
      <trkpt lat="45.9398" lon="4.80257">
        <ele>203</ele>
        <time>2016-10-02T10:35:22Z</time>
      </trkpt>
      <trkpt lat="45.93977" lon="4.80244">
        <ele>205</ele>
        <time>2016-10-02T10:35:23Z</time>
      </trkpt>
      <trkpt lat="45.93974" lon="4.80232">
        <ele>205</ele>
        <time>2016-10-02T10:35:24Z</time>
      </trkpt>
      <trkpt lat="45.93971" lon="4.80221">
        <ele>205</ele>
        <time>2016-10-02T10:35:25Z</time>
      </trkpt>
      <trkpt lat="45.93967" lon="4.80208">
        <ele>206</ele>
        <time>2016-10-02T10:35:26Z</time>
      </trkpt>
      <trkpt lat="45.93964" lon="4.80196">
        <ele>206</ele>
        <time>2016-10-02T10:35:27Z</time>
      </trkpt>
      <trkpt lat="45.93962" lon="4.80185">
        <ele>206</ele>
        <time>2016-10-02T10:35:28Z</time>
      </trkpt>
      <trkpt lat="45.9396" lon="4.80174">
        <ele>206</ele>
        <time>2016-10-02T10:35:29Z</time>
      </trkpt>
      <trkpt lat="45.93958" lon="4.80163">
        <ele>209</ele>
        <time>2016-10-02T10:35:30Z</time>
      </trkpt>
      <trkpt lat="45.93956" lon="4.80153">
        <ele>209</ele>
        <time>2016-10-02T10:35:31Z</time>
      </trkpt>
      <trkpt lat="45.93955" lon="4.80143">
        <ele>209</ele>
        <time>2016-10-02T10:35:32Z</time>
      </trkpt>
      <trkpt lat="45.93954" lon="4.80133">
        <ele>209</ele>
        <time>2016-10-02T10:35:33Z</time>
      </trkpt>
      <trkpt lat="45.93953" lon="4.80123">
        <ele>209</ele>
        <time>2016-10-02T10:35:34Z</time>
      </trkpt>
      <trkpt lat="45.93952" lon="4.80113">
        <ele>209</ele>
        <time>2016-10-02T10:35:35Z</time>
      </trkpt>
      <trkpt lat="45.93951" lon="4.80103">
        <ele>209</ele>
        <time>2016-10-02T10:35:36Z</time>
      </trkpt>
      <trkpt lat="45.9395" lon="4.80091">
        <ele>209</ele>
        <time>2016-10-02T10:35:37Z</time>
      </trkpt>
      <trkpt lat="45.93947" lon="4.8008">
        <ele>208</ele>
        <time>2016-10-02T10:35:38Z</time>
      </trkpt>
      <trkpt lat="45.93947" lon="4.8007">
        <ele>208</ele>
        <time>2016-10-02T10:35:39Z</time>
      </trkpt>
      <trkpt lat="45.93948" lon="4.80055">
        <ele>208</ele>
        <time>2016-10-02T10:35:40Z</time>
      </trkpt>
      <trkpt lat="45.93948" lon="4.80049">
        <ele>208</ele>
        <time>2016-10-02T10:35:41Z</time>
      </trkpt>
      <trkpt lat="45.93948" lon="4.8004">
        <ele>208</ele>
        <time>2016-10-02T10:35:42Z</time>
      </trkpt>
      <trkpt lat="45.93949" lon="4.80032">
        <ele>207</ele>
        <time>2016-10-02T10:35:43Z</time>
      </trkpt>
      <trkpt lat="45.93949" lon="4.80024">
        <ele>207</ele>
        <time>2016-10-02T10:35:44Z</time>
      </trkpt>
      <trkpt lat="45.93948" lon="4.80014">
        <ele>207</ele>
        <time>2016-10-02T10:35:45Z</time>
      </trkpt>
      <trkpt lat="45.9395" lon="4.80005">
        <ele>207</ele>
        <time>2016-10-02T10:35:46Z</time>
      </trkpt>
      <trkpt lat="45.93952" lon="4.79996">
        <ele>205</ele>
        <time>2016-10-02T10:35:47Z</time>
      </trkpt>
      <trkpt lat="45.93953" lon="4.79986">
        <ele>205</ele>
        <time>2016-10-02T10:35:48Z</time>
      </trkpt>
      <trkpt lat="45.93956" lon="4.79976">
        <ele>205</ele>
        <time>2016-10-02T10:35:49Z</time>
      </trkpt>
      <trkpt lat="45.93957" lon="4.79966">
        <ele>205</ele>
        <time>2016-10-02T10:35:50Z</time>
      </trkpt>
      <trkpt lat="45.93958" lon="4.79956">
        <ele>205</ele>
        <time>2016-10-02T10:35:51Z</time>
      </trkpt>
      <trkpt lat="45.9396" lon="4.79947">
        <ele>205</ele>
        <time>2016-10-02T10:35:52Z</time>
      </trkpt>
      <trkpt lat="45.93961" lon="4.79937">
        <ele>205</ele>
        <time>2016-10-02T10:35:53Z</time>
      </trkpt>
      <trkpt lat="45.9396" lon="4.79927">
        <ele>205</ele>
        <time>2016-10-02T10:35:54Z</time>
      </trkpt>
      <trkpt lat="45.93962" lon="4.79921">
        <ele>205</ele>
        <time>2016-10-02T10:35:55Z</time>
      </trkpt>
      <trkpt lat="45.93964" lon="4.79913">
        <ele>206</ele>
        <time>2016-10-02T10:35:56Z</time>
      </trkpt>
      <trkpt lat="45.93965" lon="4.79904">
        <ele>206</ele>
        <time>2016-10-02T10:35:57Z</time>
      </trkpt>
      <trkpt lat="45.93967" lon="4.79896">
        <ele>206</ele>
        <time>2016-10-02T10:35:58Z</time>
      </trkpt>
      <trkpt lat="45.93968" lon="4.79889">
        <ele>206</ele>
        <time>2016-10-02T10:35:59Z</time>
      </trkpt>
      <trkpt lat="45.93968" lon="4.79882">
        <ele>206</ele>
        <time>2016-10-02T10:36:00Z</time>
      </trkpt>
      <trkpt lat="45.93967" lon="4.79873">
        <ele>206</ele>
        <time>2016-10-02T10:36:01Z</time>
      </trkpt>
      <trkpt lat="45.93969" lon="4.79865">
        <ele>206</ele>
        <time>2016-10-02T10:36:02Z</time>
      </trkpt>
      <trkpt lat="45.93969" lon="4.79857">
        <ele>206</ele>
        <time>2016-10-02T10:36:03Z</time>
      </trkpt>
      <trkpt lat="45.93971" lon="4.79849">
        <ele>206</ele>
        <time>2016-10-02T10:36:04Z</time>
      </trkpt>
      <trkpt lat="45.93973" lon="4.79841">
        <ele>207</ele>
        <time>2016-10-02T10:36:05Z</time>
      </trkpt>
      <trkpt lat="45.93977" lon="4.79833">
        <ele>207</ele>
        <time>2016-10-02T10:36:06Z</time>
      </trkpt>
      <trkpt lat="45.93975" lon="4.7982">
        <ele>207</ele>
        <time>2016-10-02T10:36:07Z</time>
      </trkpt>
      <trkpt lat="45.93977" lon="4.7981">
        <ele>207</ele>
        <time>2016-10-02T10:36:08Z</time>
      </trkpt>
      <trkpt lat="45.93977" lon="4.79801">
        <ele>207</ele>
        <time>2016-10-02T10:36:09Z</time>
      </trkpt>
      <trkpt lat="45.9398" lon="4.7979">
        <ele>207</ele>
        <time>2016-10-02T10:36:10Z</time>
      </trkpt>
      <trkpt lat="45.93981" lon="4.79778">
        <ele>207</ele>
        <time>2016-10-02T10:36:11Z</time>
      </trkpt>
      <trkpt lat="45.93981" lon="4.79768">
        <ele>207</ele>
        <time>2016-10-02T10:36:12Z</time>
      </trkpt>
      <trkpt lat="45.93982" lon="4.7976">
        <ele>207</ele>
        <time>2016-10-02T10:36:13Z</time>
      </trkpt>
      <trkpt lat="45.93981" lon="4.7975">
        <ele>207</ele>
        <time>2016-10-02T10:36:14Z</time>
      </trkpt>
      <trkpt lat="45.93982" lon="4.79742">
        <ele>207</ele>
        <time>2016-10-02T10:36:15Z</time>
      </trkpt>
      <trkpt lat="45.93981" lon="4.79734">
        <ele>207</ele>
        <time>2016-10-02T10:36:16Z</time>
      </trkpt>
      <trkpt lat="45.93979" lon="4.79726">
        <ele>207</ele>
        <time>2016-10-02T10:36:17Z</time>
      </trkpt>
      <trkpt lat="45.93978" lon="4.79718">
        <ele>207</ele>
        <time>2016-10-02T10:36:18Z</time>
      </trkpt>
      <trkpt lat="45.93978" lon="4.7971">
        <ele>207</ele>
        <time>2016-10-02T10:36:19Z</time>
      </trkpt>
      <trkpt lat="45.93977" lon="4.797">
        <ele>207</ele>
        <time>2016-10-02T10:36:20Z</time>
      </trkpt>
      <trkpt lat="45.93976" lon="4.79691">
        <ele>207</ele>
        <time>2016-10-02T10:36:21Z</time>
      </trkpt>
      <trkpt lat="45.93974" lon="4.79682">
        <ele>208</ele>
        <time>2016-10-02T10:36:22Z</time>
      </trkpt>
      <trkpt lat="45.93976" lon="4.79673">
        <ele>208</ele>
        <time>2016-10-02T10:36:23Z</time>
      </trkpt>
      <trkpt lat="45.93975" lon="4.79663">
        <ele>208</ele>
        <time>2016-10-02T10:36:24Z</time>
      </trkpt>
      <trkpt lat="45.93975" lon="4.79654">
        <ele>208</ele>
        <time>2016-10-02T10:36:25Z</time>
      </trkpt>
      <trkpt lat="45.93974" lon="4.79644">
        <ele>208</ele>
        <time>2016-10-02T10:36:26Z</time>
      </trkpt>
      <trkpt lat="45.93972" lon="4.79635">
        <ele>208</ele>
        <time>2016-10-02T10:36:27Z</time>
      </trkpt>
      <trkpt lat="45.93969" lon="4.79626">
        <ele>207</ele>
        <time>2016-10-02T10:36:28Z</time>
      </trkpt>
      <trkpt lat="45.93967" lon="4.79617">
        <ele>207</ele>
        <time>2016-10-02T10:36:29Z</time>
      </trkpt>
      <trkpt lat="45.93964" lon="4.79608">
        <ele>207</ele>
        <time>2016-10-02T10:36:30Z</time>
      </trkpt>
      <trkpt lat="45.93962" lon="4.79599">
        <ele>207</ele>
        <time>2016-10-02T10:36:31Z</time>
      </trkpt>
      <trkpt lat="45.9396" lon="4.79589">
        <ele>207</ele>
        <time>2016-10-02T10:36:32Z</time>
      </trkpt>
      <trkpt lat="45.93961" lon="4.79579">
        <ele>206</ele>
        <time>2016-10-02T10:36:33Z</time>
      </trkpt>
      <trkpt lat="45.9396" lon="4.7957">
        <ele>206</ele>
        <time>2016-10-02T10:36:34Z</time>
      </trkpt>
      <trkpt lat="45.93958" lon="4.79565">
        <ele>205</ele>
        <time>2016-10-02T10:36:35Z</time>
      </trkpt>
      <trkpt lat="45.93957" lon="4.79557">
        <ele>205</ele>
        <time>2016-10-02T10:36:36Z</time>
      </trkpt>
      <trkpt lat="45.93957" lon="4.79547">
        <ele>205</ele>
        <time>2016-10-02T10:36:37Z</time>
      </trkpt>
      <trkpt lat="45.93957" lon="4.79537">
        <ele>205</ele>
        <time>2016-10-02T10:36:38Z</time>
      </trkpt>
      <trkpt lat="45.93956" lon="4.79526">
        <ele>205</ele>
        <time>2016-10-02T10:36:39Z</time>
      </trkpt>
      <trkpt lat="45.93955" lon="4.79516">
        <ele>204</ele>
        <time>2016-10-02T10:36:40Z</time>
      </trkpt>
      <trkpt lat="45.93954" lon="4.79506">
        <ele>204</ele>
        <time>2016-10-02T10:36:41Z</time>
      </trkpt>
      <trkpt lat="45.93953" lon="4.79495">
        <ele>203</ele>
        <time>2016-10-02T10:36:42Z</time>
      </trkpt>
      <trkpt lat="45.93952" lon="4.79484">
        <ele>203</ele>
        <time>2016-10-02T10:36:43Z</time>
      </trkpt>
      <trkpt lat="45.93953" lon="4.79472">
        <ele>203</ele>
        <time>2016-10-02T10:36:44Z</time>
      </trkpt>
      <trkpt lat="45.93954" lon="4.7946">
        <ele>203</ele>
        <time>2016-10-02T10:36:45Z</time>
      </trkpt>
      <trkpt lat="45.93954" lon="4.79449">
        <ele>203</ele>
        <time>2016-10-02T10:36:46Z</time>
      </trkpt>
      <trkpt lat="45.93954" lon="4.79438">
        <ele>202</ele>
        <time>2016-10-02T10:36:47Z</time>
      </trkpt>
      <trkpt lat="45.93954" lon="4.79428">
        <ele>202</ele>
        <time>2016-10-02T10:36:48Z</time>
      </trkpt>
      <trkpt lat="45.93955" lon="4.79418">
        <ele>202</ele>
        <time>2016-10-02T10:36:49Z</time>
      </trkpt>
      <trkpt lat="45.93955" lon="4.79407">
        <ele>201</ele>
        <time>2016-10-02T10:36:50Z</time>
      </trkpt>
      <trkpt lat="45.93956" lon="4.79398">
        <ele>201</ele>
        <time>2016-10-02T10:36:51Z</time>
      </trkpt>
      <trkpt lat="45.93956" lon="4.79388">
        <ele>201</ele>
        <time>2016-10-02T10:36:52Z</time>
      </trkpt>
      <trkpt lat="45.93956" lon="4.79378">
        <ele>201</ele>
        <time>2016-10-02T10:36:53Z</time>
      </trkpt>
      <trkpt lat="45.93957" lon="4.79368">
        <ele>201</ele>
        <time>2016-10-02T10:36:54Z</time>
      </trkpt>
      <trkpt lat="45.93956" lon="4.79357">
        <ele>201</ele>
        <time>2016-10-02T10:36:55Z</time>
      </trkpt>
      <trkpt lat="45.93956" lon="4.79347">
        <ele>201</ele>
        <time>2016-10-02T10:36:56Z</time>
      </trkpt>
      <trkpt lat="45.93955" lon="4.79336">
        <ele>200</ele>
        <time>2016-10-02T10:36:57Z</time>
      </trkpt>
      <trkpt lat="45.93955" lon="4.79325">
        <ele>199</ele>
        <time>2016-10-02T10:36:58Z</time>
      </trkpt>
      <trkpt lat="45.93956" lon="4.79314">
        <ele>199</ele>
        <time>2016-10-02T10:36:59Z</time>
      </trkpt>
      <trkpt lat="45.93956" lon="4.79304">
        <ele>199</ele>
        <time>2016-10-02T10:37:00Z</time>
      </trkpt>
      <trkpt lat="45.93956" lon="4.79293">
        <ele>199</ele>
        <time>2016-10-02T10:37:01Z</time>
      </trkpt>
      <trkpt lat="45.93956" lon="4.79282">
        <ele>198</ele>
        <time>2016-10-02T10:37:02Z</time>
      </trkpt>
      <trkpt lat="45.93956" lon="4.79271">
        <ele>198</ele>
        <time>2016-10-02T10:37:03Z</time>
      </trkpt>
      <trkpt lat="45.93956" lon="4.79261">
        <ele>198</ele>
        <time>2016-10-02T10:37:04Z</time>
      </trkpt>
      <trkpt lat="45.93957" lon="4.7925">
        <ele>197</ele>
        <time>2016-10-02T10:37:05Z</time>
      </trkpt>
      <trkpt lat="45.93956" lon="4.79239">
        <ele>197</ele>
        <time>2016-10-02T10:37:06Z</time>
      </trkpt>
      <trkpt lat="45.93956" lon="4.79227">
        <ele>197</ele>
        <time>2016-10-02T10:37:07Z</time>
      </trkpt>
      <trkpt lat="45.93956" lon="4.79217">
        <ele>197</ele>
        <time>2016-10-02T10:37:08Z</time>
      </trkpt>
      <trkpt lat="45.93956" lon="4.79207">
        <ele>197</ele>
        <time>2016-10-02T10:37:09Z</time>
      </trkpt>
      <trkpt lat="45.93956" lon="4.79197">
        <ele>197</ele>
        <time>2016-10-02T10:37:10Z</time>
      </trkpt>
      <trkpt lat="45.93956" lon="4.79188">
        <ele>197</ele>
        <time>2016-10-02T10:37:11Z</time>
      </trkpt>
      <trkpt lat="45.93957" lon="4.79177">
        <ele>197</ele>
        <time>2016-10-02T10:37:12Z</time>
      </trkpt>
      <trkpt lat="45.93956" lon="4.79165">
        <ele>197</ele>
        <time>2016-10-02T10:37:13Z</time>
      </trkpt>
      <trkpt lat="45.93955" lon="4.79154">
        <ele>197</ele>
        <time>2016-10-02T10:37:14Z</time>
      </trkpt>
      <trkpt lat="45.93954" lon="4.79143">
        <ele>197</ele>
        <time>2016-10-02T10:37:15Z</time>
      </trkpt>
      <trkpt lat="45.93953" lon="4.79132">
        <ele>197</ele>
        <time>2016-10-02T10:37:16Z</time>
      </trkpt>
      <trkpt lat="45.93952" lon="4.7912">
        <ele>197</ele>
        <time>2016-10-02T10:37:17Z</time>
      </trkpt>
      <trkpt lat="45.93951" lon="4.79109">
        <ele>197</ele>
        <time>2016-10-02T10:37:18Z</time>
      </trkpt>
      <trkpt lat="45.93951" lon="4.79097">
        <ele>197</ele>
        <time>2016-10-02T10:37:19Z</time>
      </trkpt>
      <trkpt lat="45.93951" lon="4.79085">
        <ele>196</ele>
        <time>2016-10-02T10:37:20Z</time>
      </trkpt>
      <trkpt lat="45.93952" lon="4.79073">
        <ele>196</ele>
        <time>2016-10-02T10:37:21Z</time>
      </trkpt>
      <trkpt lat="45.93952" lon="4.79062">
        <ele>196</ele>
        <time>2016-10-02T10:37:22Z</time>
      </trkpt>
      <trkpt lat="45.93952" lon="4.79051">
        <ele>196</ele>
        <time>2016-10-02T10:37:23Z</time>
      </trkpt>
      <trkpt lat="45.93951" lon="4.79039">
        <ele>196</ele>
        <time>2016-10-02T10:37:24Z</time>
      </trkpt>
      <trkpt lat="45.9395" lon="4.79028">
        <ele>196</ele>
        <time>2016-10-02T10:37:25Z</time>
      </trkpt>
      <trkpt lat="45.93949" lon="4.79016">
        <ele>195</ele>
        <time>2016-10-02T10:37:26Z</time>
      </trkpt>
      <trkpt lat="45.93948" lon="4.79004">
        <ele>195</ele>
        <time>2016-10-02T10:37:27Z</time>
      </trkpt>
      <trkpt lat="45.93949" lon="4.78992">
        <ele>194</ele>
        <time>2016-10-02T10:37:28Z</time>
      </trkpt>
      <trkpt lat="45.93953" lon="4.78981">
        <ele>194</ele>
        <time>2016-10-02T10:37:29Z</time>
      </trkpt>
      <trkpt lat="45.93953" lon="4.7897">
        <ele>194</ele>
        <time>2016-10-02T10:37:30Z</time>
      </trkpt>
      <trkpt lat="45.93954" lon="4.78958">
        <ele>194</ele>
        <time>2016-10-02T10:37:31Z</time>
      </trkpt>
      <trkpt lat="45.93951" lon="4.78941">
        <ele>194</ele>
        <time>2016-10-02T10:37:32Z</time>
      </trkpt>
      <trkpt lat="45.9395" lon="4.78928">
        <ele>194</ele>
        <time>2016-10-02T10:37:33Z</time>
      </trkpt>
      <trkpt lat="45.93949" lon="4.78917">
        <ele>194</ele>
        <time>2016-10-02T10:37:34Z</time>
      </trkpt>
      <trkpt lat="45.93949" lon="4.78907">
        <ele>194</ele>
        <time>2016-10-02T10:37:35Z</time>
      </trkpt>
      <trkpt lat="45.93949" lon="4.78897">
        <ele>194</ele>
        <time>2016-10-02T10:37:36Z</time>
      </trkpt>
      <trkpt lat="45.93949" lon="4.78887">
        <ele>194</ele>
        <time>2016-10-02T10:37:37Z</time>
      </trkpt>
      <trkpt lat="45.93948" lon="4.78877">
        <ele>194</ele>
        <time>2016-10-02T10:37:38Z</time>
      </trkpt>
      <trkpt lat="45.93948" lon="4.78866">
        <ele>194</ele>
        <time>2016-10-02T10:37:39Z</time>
      </trkpt>
      <trkpt lat="45.93948" lon="4.78856">
        <ele>194</ele>
        <time>2016-10-02T10:37:40Z</time>
      </trkpt>
      <trkpt lat="45.93949" lon="4.78846">
        <ele>194</ele>
        <time>2016-10-02T10:37:41Z</time>
      </trkpt>
      <trkpt lat="45.93951" lon="4.78836">
        <ele>194</ele>
        <time>2016-10-02T10:37:42Z</time>
      </trkpt>
      <trkpt lat="45.9395" lon="4.78826">
        <ele>194</ele>
        <time>2016-10-02T10:37:43Z</time>
      </trkpt>
      <trkpt lat="45.93951" lon="4.78815">
        <ele>195</ele>
        <time>2016-10-02T10:37:44Z</time>
      </trkpt>
      <trkpt lat="45.93946" lon="4.78806">
        <ele>194</ele>
        <time>2016-10-02T10:37:45Z</time>
      </trkpt>
      <trkpt lat="45.93946" lon="4.78797">
        <ele>194</ele>
        <time>2016-10-02T10:37:46Z</time>
      </trkpt>
      <trkpt lat="45.93945" lon="4.78787">
        <ele>194</ele>
        <time>2016-10-02T10:37:47Z</time>
      </trkpt>
      <trkpt lat="45.93944" lon="4.7878">
        <ele>194</ele>
        <time>2016-10-02T10:37:48Z</time>
      </trkpt>
      <trkpt lat="45.93942" lon="4.7877">
        <ele>194</ele>
        <time>2016-10-02T10:37:49Z</time>
      </trkpt>
      <trkpt lat="45.93939" lon="4.78763">
        <ele>193</ele>
        <time>2016-10-02T10:37:50Z</time>
      </trkpt>
      <trkpt lat="45.93935" lon="4.78754">
        <ele>193</ele>
        <time>2016-10-02T10:37:51Z</time>
      </trkpt>
      <trkpt lat="45.93935" lon="4.78745">
        <ele>193</ele>
        <time>2016-10-02T10:37:52Z</time>
      </trkpt>
      <trkpt lat="45.93932" lon="4.78737">
        <ele>193</ele>
        <time>2016-10-02T10:37:53Z</time>
      </trkpt>
      <trkpt lat="45.93936" lon="4.78729">
        <ele>194</ele>
        <time>2016-10-02T10:37:54Z</time>
      </trkpt>
      <trkpt lat="45.93937" lon="4.7872">
        <ele>194</ele>
        <time>2016-10-02T10:37:55Z</time>
      </trkpt>
      <trkpt lat="45.9394" lon="4.78709">
        <ele>194</ele>
        <time>2016-10-02T10:37:57Z</time>
      </trkpt>
      <trkpt lat="45.93941" lon="4.78701">
        <ele>194</ele>
        <time>2016-10-02T10:37:58Z</time>
      </trkpt>
      <trkpt lat="45.93942" lon="4.78694">
        <ele>194</ele>
        <time>2016-10-02T10:37:59Z</time>
      </trkpt>
      <trkpt lat="45.9394" lon="4.78686">
        <ele>194</ele>
        <time>2016-10-02T10:38:00Z</time>
      </trkpt>
      <trkpt lat="45.9394" lon="4.78677">
        <ele>194</ele>
        <time>2016-10-02T10:38:01Z</time>
      </trkpt>
      <trkpt lat="45.93942" lon="4.78668">
        <ele>194</ele>
        <time>2016-10-02T10:38:02Z</time>
      </trkpt>
      <trkpt lat="45.93943" lon="4.78658">
        <ele>195</ele>
        <time>2016-10-02T10:38:03Z</time>
      </trkpt>
      <trkpt lat="45.93944" lon="4.7865">
        <ele>195</ele>
        <time>2016-10-02T10:38:04Z</time>
      </trkpt>
      <trkpt lat="45.93945" lon="4.78638">
        <ele>196</ele>
        <time>2016-10-02T10:38:06Z</time>
      </trkpt>
      <trkpt lat="45.93945" lon="4.78633">
        <ele>196</ele>
        <time>2016-10-02T10:38:07Z</time>
      </trkpt>
      <trkpt lat="45.93945" lon="4.78626">
        <ele>196</ele>
        <time>2016-10-02T10:38:08Z</time>
      </trkpt>
      <trkpt lat="45.93943" lon="4.78617">
        <ele>196</ele>
        <time>2016-10-02T10:38:09Z</time>
      </trkpt>
      <trkpt lat="45.93942" lon="4.78609">
        <ele>196</ele>
        <time>2016-10-02T10:38:10Z</time>
      </trkpt>
      <trkpt lat="45.93942" lon="4.78602">
        <ele>196</ele>
        <time>2016-10-02T10:38:11Z</time>
      </trkpt>
      <trkpt lat="45.93943" lon="4.78594">
        <ele>196</ele>
        <time>2016-10-02T10:38:12Z</time>
      </trkpt>
      <trkpt lat="45.93944" lon="4.78587">
        <ele>196</ele>
        <time>2016-10-02T10:38:13Z</time>
      </trkpt>
      <trkpt lat="45.93945" lon="4.78579">
        <ele>197</ele>
        <time>2016-10-02T10:38:14Z</time>
      </trkpt>
      <trkpt lat="45.93943" lon="4.78573">
        <ele>197</ele>
        <time>2016-10-02T10:38:15Z</time>
      </trkpt>
      <trkpt lat="45.93943" lon="4.78562">
        <ele>197</ele>
        <time>2016-10-02T10:38:18Z</time>
      </trkpt>
      <trkpt lat="45.93944" lon="4.78559">
        <ele>197</ele>
        <time>2016-10-02T10:38:19Z</time>
      </trkpt>
      <trkpt lat="45.93947" lon="4.78549">
        <ele>198</ele>
        <time>2016-10-02T10:38:22Z</time>
      </trkpt>
      <trkpt lat="45.93948" lon="4.78546">
        <ele>198</ele>
        <time>2016-10-02T10:38:23Z</time>
      </trkpt>
      <trkpt lat="45.93946" lon="4.78537">
        <ele>198</ele>
        <time>2016-10-02T10:38:25Z</time>
      </trkpt>
      <trkpt lat="45.93946" lon="4.78531">
        <ele>198</ele>
        <time>2016-10-02T10:38:26Z</time>
      </trkpt>
      <trkpt lat="45.93948" lon="4.78519">
        <ele>198</ele>
        <time>2016-10-02T10:38:28Z</time>
      </trkpt>
      <trkpt lat="45.93949" lon="4.78512">
        <ele>198</ele>
        <time>2016-10-02T10:38:29Z</time>
      </trkpt>
      <trkpt lat="45.9395" lon="4.785">
        <ele>198</ele>
        <time>2016-10-02T10:38:31Z</time>
      </trkpt>
      <trkpt lat="45.9395" lon="4.78494">
        <ele>198</ele>
        <time>2016-10-02T10:38:32Z</time>
      </trkpt>
      <trkpt lat="45.93951" lon="4.78488">
        <ele>198</ele>
        <time>2016-10-02T10:38:33Z</time>
      </trkpt>
      <trkpt lat="45.93952" lon="4.78481">
        <ele>198</ele>
        <time>2016-10-02T10:38:34Z</time>
      </trkpt>
      <trkpt lat="45.93954" lon="4.78477">
        <ele>198</ele>
        <time>2016-10-02T10:38:35Z</time>
      </trkpt>
      <trkpt lat="45.93958" lon="4.7847">
        <ele>198</ele>
        <time>2016-10-02T10:38:36Z</time>
      </trkpt>
      <trkpt lat="45.9396" lon="4.78463">
        <ele>198</ele>
        <time>2016-10-02T10:38:37Z</time>
      </trkpt>
      <trkpt lat="45.93961" lon="4.78456">
        <ele>198</ele>
        <time>2016-10-02T10:38:38Z</time>
      </trkpt>
      <trkpt lat="45.93962" lon="4.78448">
        <ele>198</ele>
        <time>2016-10-02T10:38:39Z</time>
      </trkpt>
      <trkpt lat="45.93964" lon="4.7844">
        <ele>198</ele>
        <time>2016-10-02T10:38:40Z</time>
      </trkpt>
      <trkpt lat="45.93964" lon="4.78432">
        <ele>198</ele>
        <time>2016-10-02T10:38:41Z</time>
      </trkpt>
      <trkpt lat="45.93965" lon="4.78423">
        <ele>198</ele>
        <time>2016-10-02T10:38:42Z</time>
      </trkpt>
      <trkpt lat="45.93966" lon="4.78416">
        <ele>198</ele>
        <time>2016-10-02T10:38:43Z</time>
      </trkpt>
      <trkpt lat="45.93966" lon="4.78408">
        <ele>198</ele>
        <time>2016-10-02T10:38:44Z</time>
      </trkpt>
      <trkpt lat="45.93967" lon="4.78401">
        <ele>198</ele>
        <time>2016-10-02T10:38:45Z</time>
      </trkpt>
      <trkpt lat="45.93967" lon="4.78392">
        <ele>197</ele>
        <time>2016-10-02T10:38:46Z</time>
      </trkpt>
      <trkpt lat="45.93966" lon="4.78385">
        <ele>197</ele>
        <time>2016-10-02T10:38:47Z</time>
      </trkpt>
      <trkpt lat="45.93966" lon="4.78378">
        <ele>197</ele>
        <time>2016-10-02T10:38:48Z</time>
      </trkpt>
      <trkpt lat="45.93965" lon="4.78366">
        <ele>197</ele>
        <time>2016-10-02T10:38:50Z</time>
      </trkpt>
      <trkpt lat="45.93965" lon="4.7836">
        <ele>197</ele>
        <time>2016-10-02T10:38:51Z</time>
      </trkpt>
      <trkpt lat="45.93966" lon="4.78351">
        <ele>197</ele>
        <time>2016-10-02T10:38:52Z</time>
      </trkpt>
      <trkpt lat="45.93967" lon="4.78343">
        <ele>197</ele>
        <time>2016-10-02T10:38:53Z</time>
      </trkpt>
      <trkpt lat="45.93968" lon="4.78336">
        <ele>197</ele>
        <time>2016-10-02T10:38:54Z</time>
      </trkpt>
      <trkpt lat="45.93969" lon="4.7833">
        <ele>196</ele>
        <time>2016-10-02T10:38:55Z</time>
      </trkpt>
      <trkpt lat="45.93971" lon="4.78317">
        <ele>196</ele>
        <time>2016-10-02T10:38:57Z</time>
      </trkpt>
      <trkpt lat="45.93972" lon="4.78311">
        <ele>196</ele>
        <time>2016-10-02T10:38:58Z</time>
      </trkpt>
      <trkpt lat="45.93973" lon="4.78304">
        <ele>196</ele>
        <time>2016-10-02T10:38:59Z</time>
      </trkpt>
      <trkpt lat="45.93975" lon="4.78295">
        <ele>196</ele>
        <time>2016-10-02T10:39:00Z</time>
      </trkpt>
      <trkpt lat="45.93977" lon="4.78286">
        <ele>196</ele>
        <time>2016-10-02T10:39:01Z</time>
      </trkpt>
      <trkpt lat="45.93977" lon="4.7828">
        <ele>196</ele>
        <time>2016-10-02T10:39:02Z</time>
      </trkpt>
      <trkpt lat="45.93978" lon="4.78273">
        <ele>196</ele>
        <time>2016-10-02T10:39:03Z</time>
      </trkpt>
      <trkpt lat="45.93978" lon="4.78267">
        <ele>196</ele>
        <time>2016-10-02T10:39:04Z</time>
      </trkpt>
      <trkpt lat="45.9398" lon="4.78254">
        <ele>197</ele>
        <time>2016-10-02T10:39:06Z</time>
      </trkpt>
      <trkpt lat="45.9398" lon="4.78247">
        <ele>197</ele>
        <time>2016-10-02T10:39:07Z</time>
      </trkpt>
      <trkpt lat="45.9398" lon="4.7824">
        <ele>197</ele>
        <time>2016-10-02T10:39:08Z</time>
      </trkpt>
      <trkpt lat="45.93981" lon="4.78233">
        <ele>197</ele>
        <time>2016-10-02T10:39:09Z</time>
      </trkpt>
      <trkpt lat="45.93982" lon="4.78225">
        <ele>197</ele>
        <time>2016-10-02T10:39:10Z</time>
      </trkpt>
      <trkpt lat="45.93982" lon="4.78218">
        <ele>197</ele>
        <time>2016-10-02T10:39:11Z</time>
      </trkpt>
      <trkpt lat="45.93983" lon="4.7821">
        <ele>197</ele>
        <time>2016-10-02T10:39:12Z</time>
      </trkpt>
      <trkpt lat="45.93983" lon="4.78203">
        <ele>197</ele>
        <time>2016-10-02T10:39:13Z</time>
      </trkpt>
      <trkpt lat="45.93985" lon="4.78196">
        <ele>197</ele>
        <time>2016-10-02T10:39:14Z</time>
      </trkpt>
      <trkpt lat="45.93986" lon="4.7819">
        <ele>198</ele>
        <time>2016-10-02T10:39:15Z</time>
      </trkpt>
      <trkpt lat="45.93988" lon="4.78178">
        <ele>198</ele>
        <time>2016-10-02T10:39:17Z</time>
      </trkpt>
      <trkpt lat="45.93989" lon="4.78171">
        <ele>199</ele>
        <time>2016-10-02T10:39:18Z</time>
      </trkpt>
      <trkpt lat="45.93992" lon="4.78161">
        <ele>199</ele>
        <time>2016-10-02T10:39:20Z</time>
      </trkpt>
      <trkpt lat="45.93993" lon="4.78158">
        <ele>199</ele>
        <time>2016-10-02T10:39:21Z</time>
      </trkpt>
      <trkpt lat="45.93994" lon="4.78148">
        <ele>198</ele>
        <time>2016-10-02T10:39:23Z</time>
      </trkpt>
      <trkpt lat="45.93995" lon="4.78143">
        <ele>198</ele>
        <time>2016-10-02T10:39:24Z</time>
      </trkpt>
      <trkpt lat="45.93999" lon="4.78133">
        <ele>198</ele>
        <time>2016-10-02T10:39:26Z</time>
      </trkpt>
      <trkpt lat="45.94" lon="4.78127">
        <ele>197</ele>
        <time>2016-10-02T10:39:27Z</time>
      </trkpt>
      <trkpt lat="45.94002" lon="4.78117">
        <ele>203</ele>
        <time>2016-10-02T10:39:29Z</time>
      </trkpt>
      <trkpt lat="45.94003" lon="4.7811">
        <ele>202</ele>
        <time>2016-10-02T10:39:30Z</time>
      </trkpt>
      <trkpt lat="45.94003" lon="4.78098">
        <ele>201</ele>
        <time>2016-10-02T10:39:32Z</time>
      </trkpt>
      <trkpt lat="45.94004" lon="4.78092">
        <ele>201</ele>
        <time>2016-10-02T10:39:33Z</time>
      </trkpt>
      <trkpt lat="45.94005" lon="4.78081">
        <ele>200</ele>
        <time>2016-10-02T10:39:35Z</time>
      </trkpt>
      <trkpt lat="45.94005" lon="4.78074">
        <ele>200</ele>
        <time>2016-10-02T10:39:36Z</time>
      </trkpt>
      <trkpt lat="45.94007" lon="4.78062">
        <ele>201</ele>
        <time>2016-10-02T10:39:38Z</time>
      </trkpt>
      <trkpt lat="45.9401" lon="4.78057">
        <ele>201</ele>
        <time>2016-10-02T10:39:39Z</time>
      </trkpt>
      <trkpt lat="45.94013" lon="4.78051">
        <ele>201</ele>
        <time>2016-10-02T10:39:40Z</time>
      </trkpt>
      <trkpt lat="45.94016" lon="4.78046">
        <ele>202</ele>
        <time>2016-10-02T10:39:41Z</time>
      </trkpt>
      <trkpt lat="45.94018" lon="4.78035">
        <ele>201</ele>
        <time>2016-10-02T10:39:43Z</time>
      </trkpt>
      <trkpt lat="45.94018" lon="4.7803">
        <ele>201</ele>
        <time>2016-10-02T10:39:44Z</time>
      </trkpt>
      <trkpt lat="45.94022" lon="4.78018">
        <ele>201</ele>
        <time>2016-10-02T10:39:46Z</time>
      </trkpt>
      <trkpt lat="45.94023" lon="4.78012">
        <ele>201</ele>
        <time>2016-10-02T10:39:47Z</time>
      </trkpt>
      <trkpt lat="45.94025" lon="4.78005">
        <ele>201</ele>
        <time>2016-10-02T10:39:48Z</time>
      </trkpt>
      <trkpt lat="45.94026" lon="4.77998">
        <ele>200</ele>
        <time>2016-10-02T10:39:49Z</time>
      </trkpt>
      <trkpt lat="45.94027" lon="4.77991">
        <ele>200</ele>
        <time>2016-10-02T10:39:50Z</time>
      </trkpt>
      <trkpt lat="45.94028" lon="4.77984">
        <ele>200</ele>
        <time>2016-10-02T10:39:51Z</time>
      </trkpt>
      <trkpt lat="45.94029" lon="4.77977">
        <ele>201</ele>
        <time>2016-10-02T10:39:52Z</time>
      </trkpt>
      <trkpt lat="45.94031" lon="4.7797">
        <ele>201</ele>
        <time>2016-10-02T10:39:53Z</time>
      </trkpt>
      <trkpt lat="45.94032" lon="4.77963">
        <ele>201</ele>
        <time>2016-10-02T10:39:54Z</time>
      </trkpt>
      <trkpt lat="45.94034" lon="4.77956">
        <ele>201</ele>
        <time>2016-10-02T10:39:55Z</time>
      </trkpt>
      <trkpt lat="45.94036" lon="4.7795">
        <ele>201</ele>
        <time>2016-10-02T10:39:56Z</time>
      </trkpt>
      <trkpt lat="45.94037" lon="4.77944">
        <ele>201</ele>
        <time>2016-10-02T10:39:57Z</time>
      </trkpt>
      <trkpt lat="45.94037" lon="4.77937">
        <ele>201</ele>
        <time>2016-10-02T10:39:58Z</time>
      </trkpt>
      <trkpt lat="45.94036" lon="4.7793">
        <ele>201</ele>
        <time>2016-10-02T10:39:59Z</time>
      </trkpt>
      <trkpt lat="45.94032" lon="4.77926">
        <ele>200</ele>
        <time>2016-10-02T10:40:00Z</time>
      </trkpt>
      <trkpt lat="45.94028" lon="4.77924">
        <ele>199</ele>
        <time>2016-10-02T10:40:01Z</time>
      </trkpt>
      <trkpt lat="45.94023" lon="4.77921">
        <ele>199</ele>
        <time>2016-10-02T10:40:02Z</time>
      </trkpt>
      <trkpt lat="45.94017" lon="4.77922">
        <ele>198</ele>
        <time>2016-10-02T10:40:03Z</time>
      </trkpt>
      <trkpt lat="45.9401" lon="4.77923">
        <ele>197</ele>
        <time>2016-10-02T10:40:04Z</time>
      </trkpt>
      <trkpt lat="45.94002" lon="4.77926">
        <ele>196</ele>
        <time>2016-10-02T10:40:05Z</time>
      </trkpt>
      <trkpt lat="45.93994" lon="4.77929">
        <ele>192</ele>
        <time>2016-10-02T10:40:06Z</time>
      </trkpt>
      <trkpt lat="45.93984" lon="4.77935">
        <ele>192</ele>
        <time>2016-10-02T10:40:07Z</time>
      </trkpt>
      <trkpt lat="45.93975" lon="4.77942">
        <ele>191</ele>
        <time>2016-10-02T10:40:08Z</time>
      </trkpt>
      <trkpt lat="45.93965" lon="4.7795">
        <ele>190</ele>
        <time>2016-10-02T10:40:09Z</time>
      </trkpt>
      <trkpt lat="45.93956" lon="4.77958">
        <ele>190</ele>
        <time>2016-10-02T10:40:10Z</time>
      </trkpt>
      <trkpt lat="45.93946" lon="4.77964">
        <ele>189</ele>
        <time>2016-10-02T10:40:11Z</time>
      </trkpt>
      <trkpt lat="45.93939" lon="4.7797">
        <ele>189</ele>
        <time>2016-10-02T10:40:12Z</time>
      </trkpt>
      <trkpt lat="45.9393" lon="4.77977">
        <ele>188</ele>
        <time>2016-10-02T10:40:13Z</time>
      </trkpt>
      <trkpt lat="45.9392" lon="4.77984">
        <ele>188</ele>
        <time>2016-10-02T10:40:14Z</time>
      </trkpt>
      <trkpt lat="45.93913" lon="4.77987">
        <ele>183</ele>
        <time>2016-10-02T10:40:15Z</time>
      </trkpt>
      <trkpt lat="45.93905" lon="4.77991">
        <ele>183</ele>
        <time>2016-10-02T10:40:16Z</time>
      </trkpt>
      <trkpt lat="45.93898" lon="4.77994">
        <ele>182</ele>
        <time>2016-10-02T10:40:17Z</time>
      </trkpt>
      <trkpt lat="45.93893" lon="4.78">
        <ele>182</ele>
        <time>2016-10-02T10:40:18Z</time>
      </trkpt>
      <trkpt lat="45.93888" lon="4.78005">
        <ele>184</ele>
        <time>2016-10-02T10:40:19Z</time>
      </trkpt>
      <trkpt lat="45.93883" lon="4.78008">
        <ele>184</ele>
        <time>2016-10-02T10:40:20Z</time>
      </trkpt>
      <trkpt lat="45.93879" lon="4.78011">
        <ele>184</ele>
        <time>2016-10-02T10:40:21Z</time>
      </trkpt>
      <trkpt lat="45.93875" lon="4.78013">
        <ele>183</ele>
        <time>2016-10-02T10:40:22Z</time>
      </trkpt>
      <trkpt lat="45.9387" lon="4.7801">
        <ele>183</ele>
        <time>2016-10-02T10:40:23Z</time>
      </trkpt>
      <trkpt lat="45.93866" lon="4.78005">
        <ele>183</ele>
        <time>2016-10-02T10:40:24Z</time>
      </trkpt>
      <trkpt lat="45.9386" lon="4.77998">
        <ele>179</ele>
        <time>2016-10-02T10:40:25Z</time>
      </trkpt>
      <trkpt lat="45.93855" lon="4.7799">
        <ele>179</ele>
        <time>2016-10-02T10:40:26Z</time>
      </trkpt>
      <trkpt lat="45.93851" lon="4.77986">
        <ele>179</ele>
        <time>2016-10-02T10:40:27Z</time>
      </trkpt>
      <trkpt lat="45.93846" lon="4.77981">
        <ele>178</ele>
        <time>2016-10-02T10:40:28Z</time>
      </trkpt>
      <trkpt lat="45.93842" lon="4.77976">
        <ele>178</ele>
        <time>2016-10-02T10:40:29Z</time>
      </trkpt>
      <trkpt lat="45.93838" lon="4.7797">
        <ele>178</ele>
        <time>2016-10-02T10:40:30Z</time>
      </trkpt>
      <trkpt lat="45.93835" lon="4.77964">
        <ele>177</ele>
        <time>2016-10-02T10:40:31Z</time>
      </trkpt>
      <trkpt lat="45.93832" lon="4.77958">
        <ele>170</ele>
        <time>2016-10-02T10:40:32Z</time>
      </trkpt>
      <trkpt lat="45.93829" lon="4.7795">
        <ele>170</ele>
        <time>2016-10-02T10:40:33Z</time>
      </trkpt>
      <trkpt lat="45.93825" lon="4.77943">
        <ele>169</ele>
        <time>2016-10-02T10:40:34Z</time>
      </trkpt>
      <trkpt lat="45.93821" lon="4.77937">
        <ele>168</ele>
        <time>2016-10-02T10:40:35Z</time>
      </trkpt>
      <trkpt lat="45.93817" lon="4.77932">
        <ele>168</ele>
        <time>2016-10-02T10:40:36Z</time>
      </trkpt>
      <trkpt lat="45.93813" lon="4.77926">
        <ele>168</ele>
        <time>2016-10-02T10:40:37Z</time>
      </trkpt>
      <trkpt lat="45.9381" lon="4.77921">
        <ele>168</ele>
        <time>2016-10-02T10:40:38Z</time>
      </trkpt>
      <trkpt lat="45.93805" lon="4.77916">
        <ele>166</ele>
        <time>2016-10-02T10:40:39Z</time>
      </trkpt>
      <trkpt lat="45.93801" lon="4.7791">
        <ele>166</ele>
        <time>2016-10-02T10:40:40Z</time>
      </trkpt>
      <trkpt lat="45.93797" lon="4.77904">
        <ele>166</ele>
        <time>2016-10-02T10:40:41Z</time>
      </trkpt>
      <trkpt lat="45.93793" lon="4.77899">
        <ele>166</ele>
        <time>2016-10-02T10:40:42Z</time>
      </trkpt>
      <trkpt lat="45.93787" lon="4.7789">
        <ele>166</ele>
        <time>2016-10-02T10:40:44Z</time>
      </trkpt>
      <trkpt lat="45.93783" lon="4.77885">
        <ele>166</ele>
        <time>2016-10-02T10:40:45Z</time>
      </trkpt>
      <trkpt lat="45.93777" lon="4.77878">
        <ele>166</ele>
        <time>2016-10-02T10:40:47Z</time>
      </trkpt>
      <trkpt lat="45.93772" lon="4.77874">
        <ele>166</ele>
        <time>2016-10-02T10:40:48Z</time>
      </trkpt>
      <trkpt lat="45.93768" lon="4.7787">
        <ele>166</ele>
        <time>2016-10-02T10:40:49Z</time>
      </trkpt>
      <trkpt lat="45.93764" lon="4.77865">
        <ele>166</ele>
        <time>2016-10-02T10:40:50Z</time>
      </trkpt>
      <trkpt lat="45.9376" lon="4.77861">
        <ele>166</ele>
        <time>2016-10-02T10:40:51Z</time>
      </trkpt>
      <trkpt lat="45.93756" lon="4.77856">
        <ele>166</ele>
        <time>2016-10-02T10:40:52Z</time>
      </trkpt>
      <trkpt lat="45.93751" lon="4.7785">
        <ele>166</ele>
        <time>2016-10-02T10:40:53Z</time>
      </trkpt>
      <trkpt lat="45.93746" lon="4.77846">
        <ele>166</ele>
        <time>2016-10-02T10:40:54Z</time>
      </trkpt>
      <trkpt lat="45.93742" lon="4.7784">
        <ele>166</ele>
        <time>2016-10-02T10:40:55Z</time>
      </trkpt>
      <trkpt lat="45.93738" lon="4.77831">
        <ele>167</ele>
        <time>2016-10-02T10:40:56Z</time>
      </trkpt>
      <trkpt lat="45.93734" lon="4.77823">
        <ele>168</ele>
        <time>2016-10-02T10:40:57Z</time>
      </trkpt>
      <trkpt lat="45.93731" lon="4.77816">
        <ele>168</ele>
        <time>2016-10-02T10:40:58Z</time>
      </trkpt>
      <trkpt lat="45.93726" lon="4.7781">
        <ele>169</ele>
        <time>2016-10-02T10:40:59Z</time>
      </trkpt>
      <trkpt lat="45.93722" lon="4.77804">
        <ele>169</ele>
        <time>2016-10-02T10:41:00Z</time>
      </trkpt>
      <trkpt lat="45.93716" lon="4.77798">
        <ele>169</ele>
        <time>2016-10-02T10:41:01Z</time>
      </trkpt>
      <trkpt lat="45.93711" lon="4.77793">
        <ele>169</ele>
        <time>2016-10-02T10:41:02Z</time>
      </trkpt>
      <trkpt lat="45.93706" lon="4.77787">
        <ele>169</ele>
        <time>2016-10-02T10:41:03Z</time>
      </trkpt>
      <trkpt lat="45.937" lon="4.77782">
        <ele>170</ele>
        <time>2016-10-02T10:41:04Z</time>
      </trkpt>
      <trkpt lat="45.93694" lon="4.77777">
        <ele>170</ele>
        <time>2016-10-02T10:41:05Z</time>
      </trkpt>
      <trkpt lat="45.93689" lon="4.7777">
        <ele>170</ele>
        <time>2016-10-02T10:41:06Z</time>
      </trkpt>
      <trkpt lat="45.93683" lon="4.77764">
        <ele>170</ele>
        <time>2016-10-02T10:41:07Z</time>
      </trkpt>
      <trkpt lat="45.93678" lon="4.77756">
        <ele>170</ele>
        <time>2016-10-02T10:41:08Z</time>
      </trkpt>
      <trkpt lat="45.93672" lon="4.77749">
        <ele>171</ele>
        <time>2016-10-02T10:41:09Z</time>
      </trkpt>
      <trkpt lat="45.93665" lon="4.77742">
        <ele>171</ele>
        <time>2016-10-02T10:41:10Z</time>
      </trkpt>
      <trkpt lat="45.93659" lon="4.77734">
        <ele>170</ele>
        <time>2016-10-02T10:41:11Z</time>
      </trkpt>
      <trkpt lat="45.93654" lon="4.77725">
        <ele>170</ele>
        <time>2016-10-02T10:41:12Z</time>
      </trkpt>
      <trkpt lat="45.93649" lon="4.77716">
        <ele>170</ele>
        <time>2016-10-02T10:41:13Z</time>
      </trkpt>
      <trkpt lat="45.93644" lon="4.77707">
        <ele>170</ele>
        <time>2016-10-02T10:41:14Z</time>
      </trkpt>
      <trkpt lat="45.93639" lon="4.77697">
        <ele>169</ele>
        <time>2016-10-02T10:41:15Z</time>
      </trkpt>
      <trkpt lat="45.93633" lon="4.77686">
        <ele>169</ele>
        <time>2016-10-02T10:41:16Z</time>
      </trkpt>
      <trkpt lat="45.93628" lon="4.77676">
        <ele>169</ele>
        <time>2016-10-02T10:41:17Z</time>
      </trkpt>
      <trkpt lat="45.93623" lon="4.77665">
        <ele>169</ele>
        <time>2016-10-02T10:41:18Z</time>
      </trkpt>
      <trkpt lat="45.93619" lon="4.77655">
        <ele>169</ele>
        <time>2016-10-02T10:41:19Z</time>
      </trkpt>
      <trkpt lat="45.93615" lon="4.77644">
        <ele>169</ele>
        <time>2016-10-02T10:41:20Z</time>
      </trkpt>
      <trkpt lat="45.9361" lon="4.77634">
        <ele>169</ele>
        <time>2016-10-02T10:41:21Z</time>
      </trkpt>
      <trkpt lat="45.93606" lon="4.77624">
        <ele>170</ele>
        <time>2016-10-02T10:41:22Z</time>
      </trkpt>
      <trkpt lat="45.93602" lon="4.77614">
        <ele>170</ele>
        <time>2016-10-02T10:41:23Z</time>
      </trkpt>
      <trkpt lat="45.93598" lon="4.77604">
        <ele>170</ele>
        <time>2016-10-02T10:41:24Z</time>
      </trkpt>
      <trkpt lat="45.93594" lon="4.77594">
        <ele>170</ele>
        <time>2016-10-02T10:41:25Z</time>
      </trkpt>
      <trkpt lat="45.93591" lon="4.77585">
        <ele>170</ele>
        <time>2016-10-02T10:41:26Z</time>
      </trkpt>
      <trkpt lat="45.93588" lon="4.77576">
        <ele>170</ele>
        <time>2016-10-02T10:41:27Z</time>
      </trkpt>
      <trkpt lat="45.93586" lon="4.77567">
        <ele>170</ele>
        <time>2016-10-02T10:41:28Z</time>
      </trkpt>
      <trkpt lat="45.93583" lon="4.77559">
        <ele>169</ele>
        <time>2016-10-02T10:41:29Z</time>
      </trkpt>
      <trkpt lat="45.9358" lon="4.77551">
        <ele>169</ele>
        <time>2016-10-02T10:41:30Z</time>
      </trkpt>
      <trkpt lat="45.93578" lon="4.77542">
        <ele>169</ele>
        <time>2016-10-02T10:41:31Z</time>
      </trkpt>
      <trkpt lat="45.93576" lon="4.77534">
        <ele>169</ele>
        <time>2016-10-02T10:41:32Z</time>
      </trkpt>
      <trkpt lat="45.93575" lon="4.77526">
        <ele>169</ele>
        <time>2016-10-02T10:41:33Z</time>
      </trkpt>
      <trkpt lat="45.93573" lon="4.77518">
        <ele>169</ele>
        <time>2016-10-02T10:41:34Z</time>
      </trkpt>
      <trkpt lat="45.9357" lon="4.77509">
        <ele>169</ele>
        <time>2016-10-02T10:41:35Z</time>
      </trkpt>
      <trkpt lat="45.93568" lon="4.77501">
        <ele>169</ele>
        <time>2016-10-02T10:41:36Z</time>
      </trkpt>
      <trkpt lat="45.93566" lon="4.77493">
        <ele>169</ele>
        <time>2016-10-02T10:41:37Z</time>
      </trkpt>
      <trkpt lat="45.93564" lon="4.77484">
        <ele>169</ele>
        <time>2016-10-02T10:41:38Z</time>
      </trkpt>
      <trkpt lat="45.93563" lon="4.77476">
        <ele>169</ele>
        <time>2016-10-02T10:41:39Z</time>
      </trkpt>
      <trkpt lat="45.93561" lon="4.77467">
        <ele>169</ele>
        <time>2016-10-02T10:41:40Z</time>
      </trkpt>
      <trkpt lat="45.93559" lon="4.77459">
        <ele>169</ele>
        <time>2016-10-02T10:41:41Z</time>
      </trkpt>
      <trkpt lat="45.93557" lon="4.77451">
        <ele>169</ele>
        <time>2016-10-02T10:41:42Z</time>
      </trkpt>
      <trkpt lat="45.93555" lon="4.77442">
        <ele>169</ele>
        <time>2016-10-02T10:41:43Z</time>
      </trkpt>
      <trkpt lat="45.93553" lon="4.77434">
        <ele>169</ele>
        <time>2016-10-02T10:41:44Z</time>
      </trkpt>
      <trkpt lat="45.93552" lon="4.77426">
        <ele>170</ele>
        <time>2016-10-02T10:41:45Z</time>
      </trkpt>
      <trkpt lat="45.9355" lon="4.77417">
        <ele>170</ele>
        <time>2016-10-02T10:41:46Z</time>
      </trkpt>
      <trkpt lat="45.93548" lon="4.77408">
        <ele>170</ele>
        <time>2016-10-02T10:41:47Z</time>
      </trkpt>
      <trkpt lat="45.93546" lon="4.77399">
        <ele>170</ele>
        <time>2016-10-02T10:41:48Z</time>
      </trkpt>
      <trkpt lat="45.93544" lon="4.77391">
        <ele>170</ele>
        <time>2016-10-02T10:41:49Z</time>
      </trkpt>
      <trkpt lat="45.93543" lon="4.77383">
        <ele>170</ele>
        <time>2016-10-02T10:41:50Z</time>
      </trkpt>
      <trkpt lat="45.93541" lon="4.77375">
        <ele>170</ele>
        <time>2016-10-02T10:41:51Z</time>
      </trkpt>
      <trkpt lat="45.93539" lon="4.77367">
        <ele>170</ele>
        <time>2016-10-02T10:41:52Z</time>
      </trkpt>
      <trkpt lat="45.93538" lon="4.7736">
        <ele>170</ele>
        <time>2016-10-02T10:41:53Z</time>
      </trkpt>
      <trkpt lat="45.93537" lon="4.77352">
        <ele>170</ele>
        <time>2016-10-02T10:41:54Z</time>
      </trkpt>
      <trkpt lat="45.93535" lon="4.77345">
        <ele>170</ele>
        <time>2016-10-02T10:41:55Z</time>
      </trkpt>
      <trkpt lat="45.93533" lon="4.77337">
        <ele>170</ele>
        <time>2016-10-02T10:41:56Z</time>
      </trkpt>
      <trkpt lat="45.93531" lon="4.7733">
        <ele>170</ele>
        <time>2016-10-02T10:41:57Z</time>
      </trkpt>
      <trkpt lat="45.93529" lon="4.77322">
        <ele>170</ele>
        <time>2016-10-02T10:41:58Z</time>
      </trkpt>
      <trkpt lat="45.93528" lon="4.77315">
        <ele>170</ele>
        <time>2016-10-02T10:41:59Z</time>
      </trkpt>
      <trkpt lat="45.93526" lon="4.77307">
        <ele>170</ele>
        <time>2016-10-02T10:42:00Z</time>
      </trkpt>
      <trkpt lat="45.93525" lon="4.77299">
        <ele>170</ele>
        <time>2016-10-02T10:42:01Z</time>
      </trkpt>
      <trkpt lat="45.93523" lon="4.77291">
        <ele>170</ele>
        <time>2016-10-02T10:42:02Z</time>
      </trkpt>
      <trkpt lat="45.93522" lon="4.77283">
        <ele>170</ele>
        <time>2016-10-02T10:42:03Z</time>
      </trkpt>
      <trkpt lat="45.93521" lon="4.77275">
        <ele>170</ele>
        <time>2016-10-02T10:42:04Z</time>
      </trkpt>
      <trkpt lat="45.93519" lon="4.77267">
        <ele>170</ele>
        <time>2016-10-02T10:42:05Z</time>
      </trkpt>
      <trkpt lat="45.93518" lon="4.77259">
        <ele>170</ele>
        <time>2016-10-02T10:42:06Z</time>
      </trkpt>
      <trkpt lat="45.93516" lon="4.77252">
        <ele>170</ele>
        <time>2016-10-02T10:42:07Z</time>
      </trkpt>
      <trkpt lat="45.93513" lon="4.77244">
        <ele>169</ele>
        <time>2016-10-02T10:42:08Z</time>
      </trkpt>
      <trkpt lat="45.93514" lon="4.77237">
        <ele>169</ele>
        <time>2016-10-02T10:42:09Z</time>
      </trkpt>
      <trkpt lat="45.93512" lon="4.7723">
        <ele>169</ele>
        <time>2016-10-02T10:42:10Z</time>
      </trkpt>
      <trkpt lat="45.93511" lon="4.77223">
        <ele>169</ele>
        <time>2016-10-02T10:42:11Z</time>
      </trkpt>
      <trkpt lat="45.93509" lon="4.77216">
        <ele>169</ele>
        <time>2016-10-02T10:42:12Z</time>
      </trkpt>
      <trkpt lat="45.93508" lon="4.77209">
        <ele>169</ele>
        <time>2016-10-02T10:42:13Z</time>
      </trkpt>
      <trkpt lat="45.93506" lon="4.77202">
        <ele>169</ele>
        <time>2016-10-02T10:42:14Z</time>
      </trkpt>
      <trkpt lat="45.93505" lon="4.77194">
        <ele>169</ele>
        <time>2016-10-02T10:42:15Z</time>
      </trkpt>
      <trkpt lat="45.93503" lon="4.77187">
        <ele>169</ele>
        <time>2016-10-02T10:42:16Z</time>
      </trkpt>
      <trkpt lat="45.93501" lon="4.7718">
        <ele>169</ele>
        <time>2016-10-02T10:42:17Z</time>
      </trkpt>
      <trkpt lat="45.93499" lon="4.77173">
        <ele>169</ele>
        <time>2016-10-02T10:42:18Z</time>
      </trkpt>
      <trkpt lat="45.93498" lon="4.77165">
        <ele>169</ele>
        <time>2016-10-02T10:42:19Z</time>
      </trkpt>
      <trkpt lat="45.93496" lon="4.77158">
        <ele>169</ele>
        <time>2016-10-02T10:42:20Z</time>
      </trkpt>
      <trkpt lat="45.93495" lon="4.77151">
        <ele>169</ele>
        <time>2016-10-02T10:42:21Z</time>
      </trkpt>
      <trkpt lat="45.93493" lon="4.77143">
        <ele>169</ele>
        <time>2016-10-02T10:42:22Z</time>
      </trkpt>
      <trkpt lat="45.93492" lon="4.77135">
        <ele>169</ele>
        <time>2016-10-02T10:42:23Z</time>
      </trkpt>
      <trkpt lat="45.93491" lon="4.77127">
        <ele>169</ele>
        <time>2016-10-02T10:42:24Z</time>
      </trkpt>
      <trkpt lat="45.93491" lon="4.77119">
        <ele>169</ele>
        <time>2016-10-02T10:42:25Z</time>
      </trkpt>
      <trkpt lat="45.93488" lon="4.7711">
        <ele>169</ele>
        <time>2016-10-02T10:42:26Z</time>
      </trkpt>
      <trkpt lat="45.93487" lon="4.77102">
        <ele>169</ele>
        <time>2016-10-02T10:42:27Z</time>
      </trkpt>
      <trkpt lat="45.93485" lon="4.77094">
        <ele>169</ele>
        <time>2016-10-02T10:42:28Z</time>
      </trkpt>
      <trkpt lat="45.93483" lon="4.77086">
        <ele>169</ele>
        <time>2016-10-02T10:42:29Z</time>
      </trkpt>
      <trkpt lat="45.93481" lon="4.77078">
        <ele>170</ele>
        <time>2016-10-02T10:42:30Z</time>
      </trkpt>
      <trkpt lat="45.93479" lon="4.7707">
        <ele>170</ele>
        <time>2016-10-02T10:42:31Z</time>
      </trkpt>
      <trkpt lat="45.93477" lon="4.77063">
        <ele>170</ele>
        <time>2016-10-02T10:42:32Z</time>
      </trkpt>
      <trkpt lat="45.93477" lon="4.77055">
        <ele>170</ele>
        <time>2016-10-02T10:42:33Z</time>
      </trkpt>
      <trkpt lat="45.93476" lon="4.77047">
        <ele>170</ele>
        <time>2016-10-02T10:42:34Z</time>
      </trkpt>
      <trkpt lat="45.93475" lon="4.77039">
        <ele>170</ele>
        <time>2016-10-02T10:42:35Z</time>
      </trkpt>
      <trkpt lat="45.93473" lon="4.77032">
        <ele>170</ele>
        <time>2016-10-02T10:42:36Z</time>
      </trkpt>
      <trkpt lat="45.93472" lon="4.77024">
        <ele>170</ele>
        <time>2016-10-02T10:42:37Z</time>
      </trkpt>
      <trkpt lat="45.93469" lon="4.77016">
        <ele>170</ele>
        <time>2016-10-02T10:42:38Z</time>
      </trkpt>
      <trkpt lat="45.93469" lon="4.77008">
        <ele>170</ele>
        <time>2016-10-02T10:42:39Z</time>
      </trkpt>
      <trkpt lat="45.93468" lon="4.77">
        <ele>170</ele>
        <time>2016-10-02T10:42:40Z</time>
      </trkpt>
      <trkpt lat="45.93467" lon="4.76992">
        <ele>170</ele>
        <time>2016-10-02T10:42:41Z</time>
      </trkpt>
      <trkpt lat="45.93465" lon="4.76984">
        <ele>170</ele>
        <time>2016-10-02T10:42:42Z</time>
      </trkpt>
      <trkpt lat="45.93463" lon="4.76977">
        <ele>170</ele>
        <time>2016-10-02T10:42:43Z</time>
      </trkpt>
      <trkpt lat="45.93462" lon="4.76969">
        <ele>170</ele>
        <time>2016-10-02T10:42:44Z</time>
      </trkpt>
      <trkpt lat="45.93461" lon="4.76961">
        <ele>170</ele>
        <time>2016-10-02T10:42:45Z</time>
      </trkpt>
      <trkpt lat="45.93459" lon="4.76954">
        <ele>170</ele>
        <time>2016-10-02T10:42:46Z</time>
      </trkpt>
      <trkpt lat="45.93458" lon="4.76945">
        <ele>170</ele>
        <time>2016-10-02T10:42:47Z</time>
      </trkpt>
      <trkpt lat="45.93456" lon="4.76936">
        <ele>170</ele>
        <time>2016-10-02T10:42:48Z</time>
      </trkpt>
      <trkpt lat="45.93455" lon="4.76928">
        <ele>170</ele>
        <time>2016-10-02T10:42:49Z</time>
      </trkpt>
      <trkpt lat="45.93453" lon="4.76919">
        <ele>170</ele>
        <time>2016-10-02T10:42:50Z</time>
      </trkpt>
      <trkpt lat="45.93452" lon="4.76911">
        <ele>170</ele>
        <time>2016-10-02T10:42:51Z</time>
      </trkpt>
      <trkpt lat="45.9345" lon="4.76902">
        <ele>170</ele>
        <time>2016-10-02T10:42:52Z</time>
      </trkpt>
      <trkpt lat="45.93448" lon="4.76895">
        <ele>170</ele>
        <time>2016-10-02T10:42:53Z</time>
      </trkpt>
      <trkpt lat="45.93445" lon="4.76887">
        <ele>170</ele>
        <time>2016-10-02T10:42:54Z</time>
      </trkpt>
      <trkpt lat="45.93444" lon="4.76879">
        <ele>170</ele>
        <time>2016-10-02T10:42:55Z</time>
      </trkpt>
      <trkpt lat="45.93441" lon="4.76872">
        <ele>171</ele>
        <time>2016-10-02T10:42:56Z</time>
      </trkpt>
      <trkpt lat="45.93438" lon="4.76865">
        <ele>171</ele>
        <time>2016-10-02T10:42:57Z</time>
      </trkpt>
      <trkpt lat="45.93435" lon="4.76859">
        <ele>171</ele>
        <time>2016-10-02T10:42:58Z</time>
      </trkpt>
      <trkpt lat="45.93431" lon="4.76852">
        <ele>171</ele>
        <time>2016-10-02T10:42:59Z</time>
      </trkpt>
      <trkpt lat="45.93428" lon="4.76845">
        <ele>171</ele>
        <time>2016-10-02T10:43:00Z</time>
      </trkpt>
      <trkpt lat="45.93424" lon="4.76839">
        <ele>171</ele>
        <time>2016-10-02T10:43:01Z</time>
      </trkpt>
      <trkpt lat="45.9342" lon="4.76832">
        <ele>172</ele>
        <time>2016-10-02T10:43:02Z</time>
      </trkpt>
      <trkpt lat="45.93417" lon="4.76824">
        <ele>172</ele>
        <time>2016-10-02T10:43:03Z</time>
      </trkpt>
      <trkpt lat="45.93412" lon="4.76817">
        <ele>172</ele>
        <time>2016-10-02T10:43:04Z</time>
      </trkpt>
      <trkpt lat="45.93408" lon="4.76811">
        <ele>172</ele>
        <time>2016-10-02T10:43:05Z</time>
      </trkpt>
      <trkpt lat="45.93404" lon="4.76805">
        <ele>172</ele>
        <time>2016-10-02T10:43:06Z</time>
      </trkpt>
      <trkpt lat="45.93399" lon="4.76799">
        <ele>172</ele>
        <time>2016-10-02T10:43:07Z</time>
      </trkpt>
      <trkpt lat="45.93394" lon="4.76794">
        <ele>172</ele>
        <time>2016-10-02T10:43:08Z</time>
      </trkpt>
      <trkpt lat="45.93389" lon="4.76789">
        <ele>172</ele>
        <time>2016-10-02T10:43:09Z</time>
      </trkpt>
      <trkpt lat="45.93385" lon="4.76783">
        <ele>172</ele>
        <time>2016-10-02T10:43:10Z</time>
      </trkpt>
      <trkpt lat="45.9338" lon="4.76778">
        <ele>172</ele>
        <time>2016-10-02T10:43:11Z</time>
      </trkpt>
      <trkpt lat="45.93375" lon="4.76773">
        <ele>172</ele>
        <time>2016-10-02T10:43:12Z</time>
      </trkpt>
      <trkpt lat="45.9337" lon="4.7677">
        <ele>172</ele>
        <time>2016-10-02T10:43:13Z</time>
      </trkpt>
      <trkpt lat="45.93365" lon="4.76766">
        <ele>172</ele>
        <time>2016-10-02T10:43:14Z</time>
      </trkpt>
      <trkpt lat="45.93361" lon="4.7676">
        <ele>172</ele>
        <time>2016-10-02T10:43:15Z</time>
      </trkpt>
      <trkpt lat="45.93357" lon="4.76755">
        <ele>172</ele>
        <time>2016-10-02T10:43:16Z</time>
      </trkpt>
      <trkpt lat="45.93353" lon="4.76749">
        <ele>172</ele>
        <time>2016-10-02T10:43:17Z</time>
      </trkpt>
      <trkpt lat="45.93347" lon="4.76744">
        <ele>172</ele>
        <time>2016-10-02T10:43:18Z</time>
      </trkpt>
      <trkpt lat="45.93341" lon="4.76738">
        <ele>172</ele>
        <time>2016-10-02T10:43:19Z</time>
      </trkpt>
      <trkpt lat="45.93335" lon="4.76734">
        <ele>172</ele>
        <time>2016-10-02T10:43:20Z</time>
      </trkpt>
      <trkpt lat="45.9333" lon="4.7673">
        <ele>172</ele>
        <time>2016-10-02T10:43:21Z</time>
      </trkpt>
      <trkpt lat="45.93325" lon="4.76725">
        <ele>172</ele>
        <time>2016-10-02T10:43:22Z</time>
      </trkpt>
      <trkpt lat="45.9332" lon="4.7672">
        <ele>172</ele>
        <time>2016-10-02T10:43:23Z</time>
      </trkpt>
      <trkpt lat="45.93315" lon="4.76715">
        <ele>172</ele>
        <time>2016-10-02T10:43:24Z</time>
      </trkpt>
      <trkpt lat="45.93309" lon="4.7671">
        <ele>172</ele>
        <time>2016-10-02T10:43:25Z</time>
      </trkpt>
      <trkpt lat="45.93304" lon="4.76706">
        <ele>172</ele>
        <time>2016-10-02T10:43:26Z</time>
      </trkpt>
      <trkpt lat="45.93299" lon="4.767">
        <ele>172</ele>
        <time>2016-10-02T10:43:27Z</time>
      </trkpt>
      <trkpt lat="45.93295" lon="4.76696">
        <ele>172</ele>
        <time>2016-10-02T10:43:28Z</time>
      </trkpt>
      <trkpt lat="45.9329" lon="4.76692">
        <ele>172</ele>
        <time>2016-10-02T10:43:29Z</time>
      </trkpt>
      <trkpt lat="45.93285" lon="4.76688">
        <ele>172</ele>
        <time>2016-10-02T10:43:30Z</time>
      </trkpt>
      <trkpt lat="45.9328" lon="4.76683">
        <ele>172</ele>
        <time>2016-10-02T10:43:31Z</time>
      </trkpt>
      <trkpt lat="45.93273" lon="4.76678">
        <ele>172</ele>
        <time>2016-10-02T10:43:32Z</time>
      </trkpt>
      <trkpt lat="45.93268" lon="4.76674">
        <ele>172</ele>
        <time>2016-10-02T10:43:33Z</time>
      </trkpt>
      <trkpt lat="45.93264" lon="4.76669">
        <ele>172</ele>
        <time>2016-10-02T10:43:34Z</time>
      </trkpt>
      <trkpt lat="45.9326" lon="4.76665">
        <ele>171</ele>
        <time>2016-10-02T10:43:35Z</time>
      </trkpt>
      <trkpt lat="45.93256" lon="4.7666">
        <ele>171</ele>
        <time>2016-10-02T10:43:36Z</time>
      </trkpt>
      <trkpt lat="45.93251" lon="4.76655">
        <ele>171</ele>
        <time>2016-10-02T10:43:37Z</time>
      </trkpt>
      <trkpt lat="45.93247" lon="4.7665">
        <ele>171</ele>
        <time>2016-10-02T10:43:38Z</time>
      </trkpt>
      <trkpt lat="45.93243" lon="4.76645">
        <ele>171</ele>
        <time>2016-10-02T10:43:39Z</time>
      </trkpt>
      <trkpt lat="45.93238" lon="4.7664">
        <ele>171</ele>
        <time>2016-10-02T10:43:40Z</time>
      </trkpt>
      <trkpt lat="45.93233" lon="4.76635">
        <ele>171</ele>
        <time>2016-10-02T10:43:41Z</time>
      </trkpt>
      <trkpt lat="45.93228" lon="4.7663">
        <ele>170</ele>
        <time>2016-10-02T10:43:42Z</time>
      </trkpt>
      <trkpt lat="45.93224" lon="4.76625">
        <ele>170</ele>
        <time>2016-10-02T10:43:43Z</time>
      </trkpt>
      <trkpt lat="45.93219" lon="4.7662">
        <ele>170</ele>
        <time>2016-10-02T10:43:44Z</time>
      </trkpt>
      <trkpt lat="45.93214" lon="4.76616">
        <ele>170</ele>
        <time>2016-10-02T10:43:45Z</time>
      </trkpt>
      <trkpt lat="45.93209" lon="4.76612">
        <ele>170</ele>
        <time>2016-10-02T10:43:46Z</time>
      </trkpt>
      <trkpt lat="45.93205" lon="4.76607">
        <ele>170</ele>
        <time>2016-10-02T10:43:47Z</time>
      </trkpt>
      <trkpt lat="45.932" lon="4.76602">
        <ele>170</ele>
        <time>2016-10-02T10:43:48Z</time>
      </trkpt>
      <trkpt lat="45.93195" lon="4.76597">
        <ele>170</ele>
        <time>2016-10-02T10:43:49Z</time>
      </trkpt>
      <trkpt lat="45.9319" lon="4.76591">
        <ele>170</ele>
        <time>2016-10-02T10:43:50Z</time>
      </trkpt>
      <trkpt lat="45.93185" lon="4.76586">
        <ele>171</ele>
        <time>2016-10-02T10:43:51Z</time>
      </trkpt>
      <trkpt lat="45.93181" lon="4.76581">
        <ele>170</ele>
        <time>2016-10-02T10:43:52Z</time>
      </trkpt>
      <trkpt lat="45.93176" lon="4.76576">
        <ele>170</ele>
        <time>2016-10-02T10:43:53Z</time>
      </trkpt>
      <trkpt lat="45.93171" lon="4.76571">
        <ele>170</ele>
        <time>2016-10-02T10:43:54Z</time>
      </trkpt>
      <trkpt lat="45.93167" lon="4.76566">
        <ele>170</ele>
        <time>2016-10-02T10:43:55Z</time>
      </trkpt>
      <trkpt lat="45.93161" lon="4.76561">
        <ele>170</ele>
        <time>2016-10-02T10:43:56Z</time>
      </trkpt>
      <trkpt lat="45.93156" lon="4.76555">
        <ele>170</ele>
        <time>2016-10-02T10:43:57Z</time>
      </trkpt>
      <trkpt lat="45.93152" lon="4.76548">
        <ele>170</ele>
        <time>2016-10-02T10:43:58Z</time>
      </trkpt>
      <trkpt lat="45.93147" lon="4.76542">
        <ele>170</ele>
        <time>2016-10-02T10:43:59Z</time>
      </trkpt>
      <trkpt lat="45.93141" lon="4.76536">
        <ele>170</ele>
        <time>2016-10-02T10:44:00Z</time>
      </trkpt>
      <trkpt lat="45.93135" lon="4.76531">
        <ele>170</ele>
        <time>2016-10-02T10:44:01Z</time>
      </trkpt>
      <trkpt lat="45.9313" lon="4.76526">
        <ele>170</ele>
        <time>2016-10-02T10:44:02Z</time>
      </trkpt>
      <trkpt lat="45.93123" lon="4.76522">
        <ele>170</ele>
        <time>2016-10-02T10:44:03Z</time>
      </trkpt>
      <trkpt lat="45.93117" lon="4.76516">
        <ele>170</ele>
        <time>2016-10-02T10:44:04Z</time>
      </trkpt>
      <trkpt lat="45.93113" lon="4.7651">
        <ele>170</ele>
        <time>2016-10-02T10:44:05Z</time>
      </trkpt>
      <trkpt lat="45.93108" lon="4.76503">
        <ele>170</ele>
        <time>2016-10-02T10:44:06Z</time>
      </trkpt>
      <trkpt lat="45.93104" lon="4.76498">
        <ele>169</ele>
        <time>2016-10-02T10:44:07Z</time>
      </trkpt>
      <trkpt lat="45.93099" lon="4.76494">
        <ele>170</ele>
        <time>2016-10-02T10:44:08Z</time>
      </trkpt>
      <trkpt lat="45.93094" lon="4.76489">
        <ele>170</ele>
        <time>2016-10-02T10:44:09Z</time>
      </trkpt>
      <trkpt lat="45.93089" lon="4.76484">
        <ele>170</ele>
        <time>2016-10-02T10:44:10Z</time>
      </trkpt>
      <trkpt lat="45.93084" lon="4.7648">
        <ele>169</ele>
        <time>2016-10-02T10:44:11Z</time>
      </trkpt>
      <trkpt lat="45.93079" lon="4.76475">
        <ele>169</ele>
        <time>2016-10-02T10:44:12Z</time>
      </trkpt>
      <trkpt lat="45.93074" lon="4.7647">
        <ele>169</ele>
        <time>2016-10-02T10:44:13Z</time>
      </trkpt>
      <trkpt lat="45.93069" lon="4.76465">
        <ele>169</ele>
        <time>2016-10-02T10:44:14Z</time>
      </trkpt>
      <trkpt lat="45.93063" lon="4.7646">
        <ele>169</ele>
        <time>2016-10-02T10:44:15Z</time>
      </trkpt>
      <trkpt lat="45.93058" lon="4.76456">
        <ele>169</ele>
        <time>2016-10-02T10:44:16Z</time>
      </trkpt>
      <trkpt lat="45.93053" lon="4.76451">
        <ele>169</ele>
        <time>2016-10-02T10:44:17Z</time>
      </trkpt>
      <trkpt lat="45.93048" lon="4.76447">
        <ele>169</ele>
        <time>2016-10-02T10:44:18Z</time>
      </trkpt>
      <trkpt lat="45.93044" lon="4.76443">
        <ele>169</ele>
        <time>2016-10-02T10:44:19Z</time>
      </trkpt>
      <trkpt lat="45.93039" lon="4.76439">
        <ele>169</ele>
        <time>2016-10-02T10:44:20Z</time>
      </trkpt>
      <trkpt lat="45.93035" lon="4.76435">
        <ele>169</ele>
        <time>2016-10-02T10:44:21Z</time>
      </trkpt>
      <trkpt lat="45.9303" lon="4.76431">
        <ele>169</ele>
        <time>2016-10-02T10:44:22Z</time>
      </trkpt>
      <trkpt lat="45.93026" lon="4.76427">
        <ele>169</ele>
        <time>2016-10-02T10:44:23Z</time>
      </trkpt>
      <trkpt lat="45.93022" lon="4.76423">
        <ele>169</ele>
        <time>2016-10-02T10:44:24Z</time>
      </trkpt>
      <trkpt lat="45.93018" lon="4.76419">
        <ele>169</ele>
        <time>2016-10-02T10:44:25Z</time>
      </trkpt>
      <trkpt lat="45.93013" lon="4.76416">
        <ele>169</ele>
        <time>2016-10-02T10:44:26Z</time>
      </trkpt>
      <trkpt lat="45.93009" lon="4.76412">
        <ele>169</ele>
        <time>2016-10-02T10:44:27Z</time>
      </trkpt>
      <trkpt lat="45.93006" lon="4.76408">
        <ele>169</ele>
        <time>2016-10-02T10:44:28Z</time>
      </trkpt>
      <trkpt lat="45.93" lon="4.76401">
        <ele>169</ele>
        <time>2016-10-02T10:44:30Z</time>
      </trkpt>
      <trkpt lat="45.92996" lon="4.76397">
        <ele>169</ele>
        <time>2016-10-02T10:44:31Z</time>
      </trkpt>
      <trkpt lat="45.92992" lon="4.76393">
        <ele>169</ele>
        <time>2016-10-02T10:44:32Z</time>
      </trkpt>
      <trkpt lat="45.92987" lon="4.76388">
        <ele>169</ele>
        <time>2016-10-02T10:44:33Z</time>
      </trkpt>
      <trkpt lat="45.92982" lon="4.76384">
        <ele>169</ele>
        <time>2016-10-02T10:44:34Z</time>
      </trkpt>
      <trkpt lat="45.92977" lon="4.7638">
        <ele>169</ele>
        <time>2016-10-02T10:44:35Z</time>
      </trkpt>
      <trkpt lat="45.92972" lon="4.76376">
        <ele>169</ele>
        <time>2016-10-02T10:44:36Z</time>
      </trkpt>
      <trkpt lat="45.92968" lon="4.76371">
        <ele>169</ele>
        <time>2016-10-02T10:44:37Z</time>
      </trkpt>
      <trkpt lat="45.92962" lon="4.76366">
        <ele>169</ele>
        <time>2016-10-02T10:44:38Z</time>
      </trkpt>
      <trkpt lat="45.92956" lon="4.76361">
        <ele>169</ele>
        <time>2016-10-02T10:44:39Z</time>
      </trkpt>
      <trkpt lat="45.9295" lon="4.76356">
        <ele>169</ele>
        <time>2016-10-02T10:44:40Z</time>
      </trkpt>
      <trkpt lat="45.92945" lon="4.76352">
        <ele>169</ele>
        <time>2016-10-02T10:44:41Z</time>
      </trkpt>
      <trkpt lat="45.92938" lon="4.76348">
        <ele>169</ele>
        <time>2016-10-02T10:44:42Z</time>
      </trkpt>
      <trkpt lat="45.92933" lon="4.76343">
        <ele>169</ele>
        <time>2016-10-02T10:44:43Z</time>
      </trkpt>
      <trkpt lat="45.92928" lon="4.76339">
        <ele>169</ele>
        <time>2016-10-02T10:44:44Z</time>
      </trkpt>
      <trkpt lat="45.92923" lon="4.76335">
        <ele>169</ele>
        <time>2016-10-02T10:44:45Z</time>
      </trkpt>
      <trkpt lat="45.92919" lon="4.76331">
        <ele>169</ele>
        <time>2016-10-02T10:44:46Z</time>
      </trkpt>
      <trkpt lat="45.92913" lon="4.76326">
        <ele>169</ele>
        <time>2016-10-02T10:44:47Z</time>
      </trkpt>
      <trkpt lat="45.92907" lon="4.76322">
        <ele>169</ele>
        <time>2016-10-02T10:44:48Z</time>
      </trkpt>
      <trkpt lat="45.92903" lon="4.76317">
        <ele>169</ele>
        <time>2016-10-02T10:44:49Z</time>
      </trkpt>
      <trkpt lat="45.92898" lon="4.76312">
        <ele>169</ele>
        <time>2016-10-02T10:44:50Z</time>
      </trkpt>
      <trkpt lat="45.92894" lon="4.76308">
        <ele>169</ele>
        <time>2016-10-02T10:44:51Z</time>
      </trkpt>
      <trkpt lat="45.9289" lon="4.76304">
        <ele>169</ele>
        <time>2016-10-02T10:44:52Z</time>
      </trkpt>
      <trkpt lat="45.92885" lon="4.76299">
        <ele>169</ele>
        <time>2016-10-02T10:44:53Z</time>
      </trkpt>
      <trkpt lat="45.92882" lon="4.76294">
        <ele>169</ele>
        <time>2016-10-02T10:44:54Z</time>
      </trkpt>
      <trkpt lat="45.92878" lon="4.76289">
        <ele>169</ele>
        <time>2016-10-02T10:44:55Z</time>
      </trkpt>
      <trkpt lat="45.92874" lon="4.76284">
        <ele>169</ele>
        <time>2016-10-02T10:44:56Z</time>
      </trkpt>
      <trkpt lat="45.92869" lon="4.76279">
        <ele>169</ele>
        <time>2016-10-02T10:44:57Z</time>
      </trkpt>
      <trkpt lat="45.92866" lon="4.76274">
        <ele>169</ele>
        <time>2016-10-02T10:44:58Z</time>
      </trkpt>
      <trkpt lat="45.92861" lon="4.76268">
        <ele>169</ele>
        <time>2016-10-02T10:44:59Z</time>
      </trkpt>
      <trkpt lat="45.92857" lon="4.76264">
        <ele>169</ele>
        <time>2016-10-02T10:45:00Z</time>
      </trkpt>
      <trkpt lat="45.92852" lon="4.76259">
        <ele>169</ele>
        <time>2016-10-02T10:45:01Z</time>
      </trkpt>
      <trkpt lat="45.92848" lon="4.76255">
        <ele>169</ele>
        <time>2016-10-02T10:45:02Z</time>
      </trkpt>
      <trkpt lat="45.92844" lon="4.76251">
        <ele>169</ele>
        <time>2016-10-02T10:45:03Z</time>
      </trkpt>
      <trkpt lat="45.92839" lon="4.76246">
        <ele>169</ele>
        <time>2016-10-02T10:45:04Z</time>
      </trkpt>
      <trkpt lat="45.92835" lon="4.76239">
        <ele>169</ele>
        <time>2016-10-02T10:45:05Z</time>
      </trkpt>
      <trkpt lat="45.92832" lon="4.76234">
        <ele>168</ele>
        <time>2016-10-02T10:45:06Z</time>
      </trkpt>
      <trkpt lat="45.92827" lon="4.7623">
        <ele>168</ele>
        <time>2016-10-02T10:45:07Z</time>
      </trkpt>
      <trkpt lat="45.92822" lon="4.76226">
        <ele>168</ele>
        <time>2016-10-02T10:45:08Z</time>
      </trkpt>
      <trkpt lat="45.92817" lon="4.76222">
        <ele>168</ele>
        <time>2016-10-02T10:45:09Z</time>
      </trkpt>
      <trkpt lat="45.92812" lon="4.76217">
        <ele>168</ele>
        <time>2016-10-02T10:45:10Z</time>
      </trkpt>
      <trkpt lat="45.92808" lon="4.76212">
        <ele>168</ele>
        <time>2016-10-02T10:45:11Z</time>
      </trkpt>
      <trkpt lat="45.92803" lon="4.76207">
        <ele>168</ele>
        <time>2016-10-02T10:45:12Z</time>
      </trkpt>
      <trkpt lat="45.92798" lon="4.76202">
        <ele>168</ele>
        <time>2016-10-02T10:45:13Z</time>
      </trkpt>
      <trkpt lat="45.92794" lon="4.76196">
        <ele>168</ele>
        <time>2016-10-02T10:45:14Z</time>
      </trkpt>
      <trkpt lat="45.9279" lon="4.76191">
        <ele>168</ele>
        <time>2016-10-02T10:45:15Z</time>
      </trkpt>
      <trkpt lat="45.92785" lon="4.76187">
        <ele>168</ele>
        <time>2016-10-02T10:45:16Z</time>
      </trkpt>
      <trkpt lat="45.92781" lon="4.76183">
        <ele>168</ele>
        <time>2016-10-02T10:45:17Z</time>
      </trkpt>
      <trkpt lat="45.92777" lon="4.76179">
        <ele>167</ele>
        <time>2016-10-02T10:45:18Z</time>
      </trkpt>
      <trkpt lat="45.92772" lon="4.76174">
        <ele>167</ele>
        <time>2016-10-02T10:45:19Z</time>
      </trkpt>
      <trkpt lat="45.92767" lon="4.7617">
        <ele>167</ele>
        <time>2016-10-02T10:45:20Z</time>
      </trkpt>
      <trkpt lat="45.92763" lon="4.76166">
        <ele>167</ele>
        <time>2016-10-02T10:45:21Z</time>
      </trkpt>
      <trkpt lat="45.92758" lon="4.76162">
        <ele>167</ele>
        <time>2016-10-02T10:45:22Z</time>
      </trkpt>
      <trkpt lat="45.92753" lon="4.76157">
        <ele>167</ele>
        <time>2016-10-02T10:45:23Z</time>
      </trkpt>
      <trkpt lat="45.92748" lon="4.76152">
        <ele>168</ele>
        <time>2016-10-02T10:45:24Z</time>
      </trkpt>
      <trkpt lat="45.92743" lon="4.76149">
        <ele>168</ele>
        <time>2016-10-02T10:45:25Z</time>
      </trkpt>
      <trkpt lat="45.92738" lon="4.76145">
        <ele>168</ele>
        <time>2016-10-02T10:45:26Z</time>
      </trkpt>
      <trkpt lat="45.92733" lon="4.76142">
        <ele>168</ele>
        <time>2016-10-02T10:45:27Z</time>
      </trkpt>
      <trkpt lat="45.92728" lon="4.76137">
        <ele>168</ele>
        <time>2016-10-02T10:45:28Z</time>
      </trkpt>
      <trkpt lat="45.92724" lon="4.76133">
        <ele>168</ele>
        <time>2016-10-02T10:45:29Z</time>
      </trkpt>
      <trkpt lat="45.92719" lon="4.76128">
        <ele>168</ele>
        <time>2016-10-02T10:45:30Z</time>
      </trkpt>
      <trkpt lat="45.92714" lon="4.76125">
        <ele>168</ele>
        <time>2016-10-02T10:45:31Z</time>
      </trkpt>
      <trkpt lat="45.92709" lon="4.76122">
        <ele>168</ele>
        <time>2016-10-02T10:45:32Z</time>
      </trkpt>
      <trkpt lat="45.92704" lon="4.76118">
        <ele>169</ele>
        <time>2016-10-02T10:45:33Z</time>
      </trkpt>
      <trkpt lat="45.92699" lon="4.76114">
        <ele>169</ele>
        <time>2016-10-02T10:45:34Z</time>
      </trkpt>
      <trkpt lat="45.92695" lon="4.76112">
        <ele>169</ele>
        <time>2016-10-02T10:45:35Z</time>
      </trkpt>
      <trkpt lat="45.92689" lon="4.76108">
        <ele>169</ele>
        <time>2016-10-02T10:45:36Z</time>
      </trkpt>
      <trkpt lat="45.92684" lon="4.76103">
        <ele>169</ele>
        <time>2016-10-02T10:45:37Z</time>
      </trkpt>
      <trkpt lat="45.9268" lon="4.76101">
        <ele>169</ele>
        <time>2016-10-02T10:45:38Z</time>
      </trkpt>
      <trkpt lat="45.92675" lon="4.76097">
        <ele>169</ele>
        <time>2016-10-02T10:45:39Z</time>
      </trkpt>
      <trkpt lat="45.9267" lon="4.76093">
        <ele>170</ele>
        <time>2016-10-02T10:45:40Z</time>
      </trkpt>
      <trkpt lat="45.92665" lon="4.7609">
        <ele>170</ele>
        <time>2016-10-02T10:45:41Z</time>
      </trkpt>
      <trkpt lat="45.9266" lon="4.76086">
        <ele>170</ele>
        <time>2016-10-02T10:45:42Z</time>
      </trkpt>
      <trkpt lat="45.92656" lon="4.76083">
        <ele>170</ele>
        <time>2016-10-02T10:45:43Z</time>
      </trkpt>
      <trkpt lat="45.92651" lon="4.76079">
        <ele>170</ele>
        <time>2016-10-02T10:45:44Z</time>
      </trkpt>
      <trkpt lat="45.92646" lon="4.76075">
        <ele>170</ele>
        <time>2016-10-02T10:45:45Z</time>
      </trkpt>
      <trkpt lat="45.92641" lon="4.76072">
        <ele>170</ele>
        <time>2016-10-02T10:45:46Z</time>
      </trkpt>
      <trkpt lat="45.92636" lon="4.76069">
        <ele>170</ele>
        <time>2016-10-02T10:45:47Z</time>
      </trkpt>
      <trkpt lat="45.92631" lon="4.76065">
        <ele>170</ele>
        <time>2016-10-02T10:45:48Z</time>
      </trkpt>
      <trkpt lat="45.92626" lon="4.76062">
        <ele>170</ele>
        <time>2016-10-02T10:45:49Z</time>
      </trkpt>
      <trkpt lat="45.92622" lon="4.76059">
        <ele>171</ele>
        <time>2016-10-02T10:45:50Z</time>
      </trkpt>
      <trkpt lat="45.92617" lon="4.76055">
        <ele>171</ele>
        <time>2016-10-02T10:45:51Z</time>
      </trkpt>
      <trkpt lat="45.92613" lon="4.76052">
        <ele>171</ele>
        <time>2016-10-02T10:45:52Z</time>
      </trkpt>
      <trkpt lat="45.92609" lon="4.76048">
        <ele>171</ele>
        <time>2016-10-02T10:45:53Z</time>
      </trkpt>
      <trkpt lat="45.92605" lon="4.76044">
        <ele>171</ele>
        <time>2016-10-02T10:45:54Z</time>
      </trkpt>
      <trkpt lat="45.926" lon="4.7604">
        <ele>171</ele>
        <time>2016-10-02T10:45:55Z</time>
      </trkpt>
      <trkpt lat="45.92595" lon="4.76037">
        <ele>171</ele>
        <time>2016-10-02T10:45:56Z</time>
      </trkpt>
      <trkpt lat="45.9259" lon="4.76033">
        <ele>171</ele>
        <time>2016-10-02T10:45:57Z</time>
      </trkpt>
      <trkpt lat="45.92585" lon="4.76031">
        <ele>171</ele>
        <time>2016-10-02T10:45:58Z</time>
      </trkpt>
      <trkpt lat="45.9258" lon="4.76027">
        <ele>172</ele>
        <time>2016-10-02T10:45:59Z</time>
      </trkpt>
      <trkpt lat="45.92575" lon="4.76023">
        <ele>172</ele>
        <time>2016-10-02T10:46:00Z</time>
      </trkpt>
      <trkpt lat="45.9257" lon="4.7602">
        <ele>172</ele>
        <time>2016-10-02T10:46:01Z</time>
      </trkpt>
      <trkpt lat="45.92564" lon="4.76017">
        <ele>172</ele>
        <time>2016-10-02T10:46:02Z</time>
      </trkpt>
      <trkpt lat="45.92559" lon="4.76013">
        <ele>172</ele>
        <time>2016-10-02T10:46:03Z</time>
      </trkpt>
      <trkpt lat="45.92554" lon="4.7601">
        <ele>172</ele>
        <time>2016-10-02T10:46:04Z</time>
      </trkpt>
      <trkpt lat="45.92549" lon="4.76007">
        <ele>172</ele>
        <time>2016-10-02T10:46:05Z</time>
      </trkpt>
      <trkpt lat="45.92545" lon="4.76004">
        <ele>172</ele>
        <time>2016-10-02T10:46:06Z</time>
      </trkpt>
      <trkpt lat="45.92541" lon="4.76">
        <ele>172</ele>
        <time>2016-10-02T10:46:07Z</time>
      </trkpt>
      <trkpt lat="45.92536" lon="4.75998">
        <ele>172</ele>
        <time>2016-10-02T10:46:08Z</time>
      </trkpt>
      <trkpt lat="45.92532" lon="4.75994">
        <ele>172</ele>
        <time>2016-10-02T10:46:09Z</time>
      </trkpt>
      <trkpt lat="45.92527" lon="4.75991">
        <ele>172</ele>
        <time>2016-10-02T10:46:10Z</time>
      </trkpt>
      <trkpt lat="45.92523" lon="4.75988">
        <ele>172</ele>
        <time>2016-10-02T10:46:11Z</time>
      </trkpt>
      <trkpt lat="45.92518" lon="4.75985">
        <ele>172</ele>
        <time>2016-10-02T10:46:12Z</time>
      </trkpt>
      <trkpt lat="45.92513" lon="4.75981">
        <ele>172</ele>
        <time>2016-10-02T10:46:13Z</time>
      </trkpt>
      <trkpt lat="45.92509" lon="4.75977">
        <ele>172</ele>
        <time>2016-10-02T10:46:14Z</time>
      </trkpt>
      <trkpt lat="45.92505" lon="4.75973">
        <ele>172</ele>
        <time>2016-10-02T10:46:15Z</time>
      </trkpt>
      <trkpt lat="45.925" lon="4.7597">
        <ele>172</ele>
        <time>2016-10-02T10:46:16Z</time>
      </trkpt>
      <trkpt lat="45.92495" lon="4.75967">
        <ele>172</ele>
        <time>2016-10-02T10:46:17Z</time>
      </trkpt>
      <trkpt lat="45.92489" lon="4.75963">
        <ele>172</ele>
        <time>2016-10-02T10:46:18Z</time>
      </trkpt>
      <trkpt lat="45.92484" lon="4.7596">
        <ele>172</ele>
        <time>2016-10-02T10:46:19Z</time>
      </trkpt>
      <trkpt lat="45.92479" lon="4.75956">
        <ele>172</ele>
        <time>2016-10-02T10:46:20Z</time>
      </trkpt>
      <trkpt lat="45.92473" lon="4.75953">
        <ele>172</ele>
        <time>2016-10-02T10:46:21Z</time>
      </trkpt>
      <trkpt lat="45.92468" lon="4.7595">
        <ele>172</ele>
        <time>2016-10-02T10:46:22Z</time>
      </trkpt>
      <trkpt lat="45.92462" lon="4.75946">
        <ele>172</ele>
        <time>2016-10-02T10:46:23Z</time>
      </trkpt>
      <trkpt lat="45.92457" lon="4.75943">
        <ele>172</ele>
        <time>2016-10-02T10:46:24Z</time>
      </trkpt>
      <trkpt lat="45.92451" lon="4.7594">
        <ele>172</ele>
        <time>2016-10-02T10:46:25Z</time>
      </trkpt>
      <trkpt lat="45.92445" lon="4.75936">
        <ele>172</ele>
        <time>2016-10-02T10:46:26Z</time>
      </trkpt>
      <trkpt lat="45.92439" lon="4.75932">
        <ele>172</ele>
        <time>2016-10-02T10:46:27Z</time>
      </trkpt>
      <trkpt lat="45.92433" lon="4.75928">
        <ele>172</ele>
        <time>2016-10-02T10:46:28Z</time>
      </trkpt>
      <trkpt lat="45.92427" lon="4.75924">
        <ele>172</ele>
        <time>2016-10-02T10:46:29Z</time>
      </trkpt>
      <trkpt lat="45.92421" lon="4.75919">
        <ele>172</ele>
        <time>2016-10-02T10:46:30Z</time>
      </trkpt>
      <trkpt lat="45.92414" lon="4.75914">
        <ele>172</ele>
        <time>2016-10-02T10:46:31Z</time>
      </trkpt>
      <trkpt lat="45.92407" lon="4.7591">
        <ele>172</ele>
        <time>2016-10-02T10:46:32Z</time>
      </trkpt>
      <trkpt lat="45.92401" lon="4.75905">
        <ele>173</ele>
        <time>2016-10-02T10:46:33Z</time>
      </trkpt>
      <trkpt lat="45.92394" lon="4.759">
        <ele>173</ele>
        <time>2016-10-02T10:46:34Z</time>
      </trkpt>
      <trkpt lat="45.92388" lon="4.75896">
        <ele>173</ele>
        <time>2016-10-02T10:46:35Z</time>
      </trkpt>
      <trkpt lat="45.92381" lon="4.75891">
        <ele>173</ele>
        <time>2016-10-02T10:46:36Z</time>
      </trkpt>
      <trkpt lat="45.92374" lon="4.75887">
        <ele>173</ele>
        <time>2016-10-02T10:46:37Z</time>
      </trkpt>
      <trkpt lat="45.92368" lon="4.75882">
        <ele>173</ele>
        <time>2016-10-02T10:46:38Z</time>
      </trkpt>
      <trkpt lat="45.92363" lon="4.75879">
        <ele>173</ele>
        <time>2016-10-02T10:46:39Z</time>
      </trkpt>
      <trkpt lat="45.92357" lon="4.75876">
        <ele>173</ele>
        <time>2016-10-02T10:46:40Z</time>
      </trkpt>
      <trkpt lat="45.92351" lon="4.75872">
        <ele>173</ele>
        <time>2016-10-02T10:46:41Z</time>
      </trkpt>
      <trkpt lat="45.92345" lon="4.75869">
        <ele>173</ele>
        <time>2016-10-02T10:46:42Z</time>
      </trkpt>
      <trkpt lat="45.92339" lon="4.75866">
        <ele>173</ele>
        <time>2016-10-02T10:46:43Z</time>
      </trkpt>
      <trkpt lat="45.92334" lon="4.75864">
        <ele>173</ele>
        <time>2016-10-02T10:46:44Z</time>
      </trkpt>
      <trkpt lat="45.9233" lon="4.75859">
        <ele>173</ele>
        <time>2016-10-02T10:46:45Z</time>
      </trkpt>
      <trkpt lat="45.92325" lon="4.75855">
        <ele>174</ele>
        <time>2016-10-02T10:46:46Z</time>
      </trkpt>
      <trkpt lat="45.92319" lon="4.75852">
        <ele>174</ele>
        <time>2016-10-02T10:46:47Z</time>
      </trkpt>
      <trkpt lat="45.92314" lon="4.75848">
        <ele>174</ele>
        <time>2016-10-02T10:46:48Z</time>
      </trkpt>
      <trkpt lat="45.92309" lon="4.75844">
        <ele>173</ele>
        <time>2016-10-02T10:46:49Z</time>
      </trkpt>
      <trkpt lat="45.92303" lon="4.7584">
        <ele>173</ele>
        <time>2016-10-02T10:46:50Z</time>
      </trkpt>
      <trkpt lat="45.92298" lon="4.75837">
        <ele>173</ele>
        <time>2016-10-02T10:46:51Z</time>
      </trkpt>
      <trkpt lat="45.92292" lon="4.75834">
        <ele>173</ele>
        <time>2016-10-02T10:46:52Z</time>
      </trkpt>
      <trkpt lat="45.92287" lon="4.7583">
        <ele>174</ele>
        <time>2016-10-02T10:46:53Z</time>
      </trkpt>
      <trkpt lat="45.92281" lon="4.75826">
        <ele>174</ele>
        <time>2016-10-02T10:46:54Z</time>
      </trkpt>
      <trkpt lat="45.92275" lon="4.75821">
        <ele>174</ele>
        <time>2016-10-02T10:46:55Z</time>
      </trkpt>
      <trkpt lat="45.9227" lon="4.75816">
        <ele>174</ele>
        <time>2016-10-02T10:46:56Z</time>
      </trkpt>
      <trkpt lat="45.92266" lon="4.7581">
        <ele>174</ele>
        <time>2016-10-02T10:46:57Z</time>
      </trkpt>
      <trkpt lat="45.92262" lon="4.75804">
        <ele>174</ele>
        <time>2016-10-02T10:46:58Z</time>
      </trkpt>
      <trkpt lat="45.9226" lon="4.75796">
        <ele>174</ele>
        <time>2016-10-02T10:46:59Z</time>
      </trkpt>
      <trkpt lat="45.92259" lon="4.75788">
        <ele>174</ele>
        <time>2016-10-02T10:47:00Z</time>
      </trkpt>
      <trkpt lat="45.92257" lon="4.75781">
        <ele>174</ele>
        <time>2016-10-02T10:47:01Z</time>
      </trkpt>
      <trkpt lat="45.92256" lon="4.75774">
        <ele>174</ele>
        <time>2016-10-02T10:47:02Z</time>
      </trkpt>
      <trkpt lat="45.92254" lon="4.75766">
        <ele>174</ele>
        <time>2016-10-02T10:47:03Z</time>
      </trkpt>
      <trkpt lat="45.92253" lon="4.75758">
        <ele>174</ele>
        <time>2016-10-02T10:47:04Z</time>
      </trkpt>
      <trkpt lat="45.92251" lon="4.75749">
        <ele>174</ele>
        <time>2016-10-02T10:47:05Z</time>
      </trkpt>
      <trkpt lat="45.9225" lon="4.7574">
        <ele>174</ele>
        <time>2016-10-02T10:47:06Z</time>
      </trkpt>
      <trkpt lat="45.92248" lon="4.75732">
        <ele>174</ele>
        <time>2016-10-02T10:47:07Z</time>
      </trkpt>
      <trkpt lat="45.92246" lon="4.75724">
        <ele>174</ele>
        <time>2016-10-02T10:47:08Z</time>
      </trkpt>
      <trkpt lat="45.92245" lon="4.75718">
        <ele>174</ele>
        <time>2016-10-02T10:47:09Z</time>
      </trkpt>
      <trkpt lat="45.92243" lon="4.75711">
        <ele>174</ele>
        <time>2016-10-02T10:47:10Z</time>
      </trkpt>
      <trkpt lat="45.92238" lon="4.75704">
        <ele>174</ele>
        <time>2016-10-02T10:47:11Z</time>
      </trkpt>
      <trkpt lat="45.92233" lon="4.75698">
        <ele>174</ele>
        <time>2016-10-02T10:47:12Z</time>
      </trkpt>
      <trkpt lat="45.92228" lon="4.75693">
        <ele>174</ele>
        <time>2016-10-02T10:47:13Z</time>
      </trkpt>
      <trkpt lat="45.92223" lon="4.75689">
        <ele>174</ele>
        <time>2016-10-02T10:47:14Z</time>
      </trkpt>
      <trkpt lat="45.92218" lon="4.75683">
        <ele>174</ele>
        <time>2016-10-02T10:47:15Z</time>
      </trkpt>
      <trkpt lat="45.92213" lon="4.75678">
        <ele>174</ele>
        <time>2016-10-02T10:47:16Z</time>
      </trkpt>
      <trkpt lat="45.92207" lon="4.75674">
        <ele>174</ele>
        <time>2016-10-02T10:47:17Z</time>
      </trkpt>
      <trkpt lat="45.92202" lon="4.75669">
        <ele>174</ele>
        <time>2016-10-02T10:47:18Z</time>
      </trkpt>
      <trkpt lat="45.92197" lon="4.75664">
        <ele>174</ele>
        <time>2016-10-02T10:47:19Z</time>
      </trkpt>
      <trkpt lat="45.92192" lon="4.7566">
        <ele>174</ele>
        <time>2016-10-02T10:47:20Z</time>
      </trkpt>
      <trkpt lat="45.92187" lon="4.75655">
        <ele>174</ele>
        <time>2016-10-02T10:47:21Z</time>
      </trkpt>
      <trkpt lat="45.92183" lon="4.7565">
        <ele>174</ele>
        <time>2016-10-02T10:47:22Z</time>
      </trkpt>
      <trkpt lat="45.92178" lon="4.75646">
        <ele>174</ele>
        <time>2016-10-02T10:47:23Z</time>
      </trkpt>
      <trkpt lat="45.92173" lon="4.75641">
        <ele>174</ele>
        <time>2016-10-02T10:47:24Z</time>
      </trkpt>
      <trkpt lat="45.92168" lon="4.75636">
        <ele>174</ele>
        <time>2016-10-02T10:47:25Z</time>
      </trkpt>
      <trkpt lat="45.92162" lon="4.75631">
        <ele>174</ele>
        <time>2016-10-02T10:47:26Z</time>
      </trkpt>
      <trkpt lat="45.92156" lon="4.75625">
        <ele>174</ele>
        <time>2016-10-02T10:47:27Z</time>
      </trkpt>
      <trkpt lat="45.92151" lon="4.7562">
        <ele>174</ele>
        <time>2016-10-02T10:47:28Z</time>
      </trkpt>
      <trkpt lat="45.92146" lon="4.75615">
        <ele>174</ele>
        <time>2016-10-02T10:47:29Z</time>
      </trkpt>
      <trkpt lat="45.92141" lon="4.7561">
        <ele>174</ele>
        <time>2016-10-02T10:47:30Z</time>
      </trkpt>
      <trkpt lat="45.92136" lon="4.75603">
        <ele>174</ele>
        <time>2016-10-02T10:47:31Z</time>
      </trkpt>
      <trkpt lat="45.92131" lon="4.75599">
        <ele>174</ele>
        <time>2016-10-02T10:47:32Z</time>
      </trkpt>
      <trkpt lat="45.92127" lon="4.75594">
        <ele>174</ele>
        <time>2016-10-02T10:47:33Z</time>
      </trkpt>
      <trkpt lat="45.92123" lon="4.75589">
        <ele>174</ele>
        <time>2016-10-02T10:47:34Z</time>
      </trkpt>
      <trkpt lat="45.92119" lon="4.75585">
        <ele>174</ele>
        <time>2016-10-02T10:47:35Z</time>
      </trkpt>
      <trkpt lat="45.92114" lon="4.75576">
        <ele>174</ele>
        <time>2016-10-02T10:47:37Z</time>
      </trkpt>
      <trkpt lat="45.92113" lon="4.75572">
        <ele>174</ele>
        <time>2016-10-02T10:47:38Z</time>
      </trkpt>
      <trkpt lat="45.92118" lon="4.75562">
        <ele>174</ele>
        <time>2016-10-02T10:47:42Z</time>
      </trkpt>
      <trkpt lat="45.9212" lon="4.75559">
        <ele>174</ele>
        <time>2016-10-02T10:47:43Z</time>
      </trkpt>
      <trkpt lat="45.92125" lon="4.7555">
        <ele>174</ele>
        <time>2016-10-02T10:47:46Z</time>
      </trkpt>
      <trkpt lat="45.92127" lon="4.75547">
        <ele>174</ele>
        <time>2016-10-02T10:47:47Z</time>
      </trkpt>
      <trkpt lat="45.92132" lon="4.75538">
        <ele>174</ele>
        <time>2016-10-02T10:47:49Z</time>
      </trkpt>
      <trkpt lat="45.92135" lon="4.75533">
        <ele>174</ele>
        <time>2016-10-02T10:47:50Z</time>
      </trkpt>
      <trkpt lat="45.92137" lon="4.75528">
        <ele>174</ele>
        <time>2016-10-02T10:47:51Z</time>
      </trkpt>
      <trkpt lat="45.9214" lon="4.75522">
        <ele>174</ele>
        <time>2016-10-02T10:47:52Z</time>
      </trkpt>
      <trkpt lat="45.92143" lon="4.75515">
        <ele>174</ele>
        <time>2016-10-02T10:47:53Z</time>
      </trkpt>
      <trkpt lat="45.92145" lon="4.75509">
        <ele>175</ele>
        <time>2016-10-02T10:47:54Z</time>
      </trkpt>
      <trkpt lat="45.92149" lon="4.75501">
        <ele>175</ele>
        <time>2016-10-02T10:47:55Z</time>
      </trkpt>
      <trkpt lat="45.92152" lon="4.75494">
        <ele>175</ele>
        <time>2016-10-02T10:47:56Z</time>
      </trkpt>
      <trkpt lat="45.92155" lon="4.75487">
        <ele>176</ele>
        <time>2016-10-02T10:47:57Z</time>
      </trkpt>
      <trkpt lat="45.92158" lon="4.7548">
        <ele>176</ele>
        <time>2016-10-02T10:47:58Z</time>
      </trkpt>
      <trkpt lat="45.92161" lon="4.75473">
        <ele>176</ele>
        <time>2016-10-02T10:47:59Z</time>
      </trkpt>
      <trkpt lat="45.92163" lon="4.75467">
        <ele>176</ele>
        <time>2016-10-02T10:48:00Z</time>
      </trkpt>
      <trkpt lat="45.92166" lon="4.75461">
        <ele>176</ele>
        <time>2016-10-02T10:48:01Z</time>
      </trkpt>
      <trkpt lat="45.92169" lon="4.75455">
        <ele>176</ele>
        <time>2016-10-02T10:48:02Z</time>
      </trkpt>
      <trkpt lat="45.92172" lon="4.75449">
        <ele>176</ele>
        <time>2016-10-02T10:48:03Z</time>
      </trkpt>
      <trkpt lat="45.92175" lon="4.75443">
        <ele>176</ele>
        <time>2016-10-02T10:48:04Z</time>
      </trkpt>
      <trkpt lat="45.92177" lon="4.75436">
        <ele>177</ele>
        <time>2016-10-02T10:48:05Z</time>
      </trkpt>
      <trkpt lat="45.9218" lon="4.75429">
        <ele>177</ele>
        <time>2016-10-02T10:48:06Z</time>
      </trkpt>
      <trkpt lat="45.92183" lon="4.75421">
        <ele>177</ele>
        <time>2016-10-02T10:48:07Z</time>
      </trkpt>
      <trkpt lat="45.92187" lon="4.75413">
        <ele>177</ele>
        <time>2016-10-02T10:48:08Z</time>
      </trkpt>
      <trkpt lat="45.92189" lon="4.75406">
        <ele>177</ele>
        <time>2016-10-02T10:48:09Z</time>
      </trkpt>
      <trkpt lat="45.92191" lon="4.75399">
        <ele>177</ele>
        <time>2016-10-02T10:48:10Z</time>
      </trkpt>
      <trkpt lat="45.92194" lon="4.75392">
        <ele>177</ele>
        <time>2016-10-02T10:48:11Z</time>
      </trkpt>
      <trkpt lat="45.92196" lon="4.75385">
        <ele>177</ele>
        <time>2016-10-02T10:48:12Z</time>
      </trkpt>
      <trkpt lat="45.92198" lon="4.75378">
        <ele>177</ele>
        <time>2016-10-02T10:48:13Z</time>
      </trkpt>
      <trkpt lat="45.922" lon="4.75371">
        <ele>177</ele>
        <time>2016-10-02T10:48:14Z</time>
      </trkpt>
      <trkpt lat="45.92201" lon="4.75365">
        <ele>177</ele>
        <time>2016-10-02T10:48:15Z</time>
      </trkpt>
      <trkpt lat="45.92204" lon="4.75358">
        <ele>177</ele>
        <time>2016-10-02T10:48:16Z</time>
      </trkpt>
      <trkpt lat="45.92206" lon="4.75351">
        <ele>177</ele>
        <time>2016-10-02T10:48:17Z</time>
      </trkpt>
      <trkpt lat="45.92208" lon="4.75343">
        <ele>177</ele>
        <time>2016-10-02T10:48:18Z</time>
      </trkpt>
      <trkpt lat="45.9221" lon="4.75335">
        <ele>177</ele>
        <time>2016-10-02T10:48:19Z</time>
      </trkpt>
      <trkpt lat="45.92211" lon="4.75327">
        <ele>176</ele>
        <time>2016-10-02T10:48:20Z</time>
      </trkpt>
      <trkpt lat="45.92213" lon="4.7532">
        <ele>176</ele>
        <time>2016-10-02T10:48:21Z</time>
      </trkpt>
      <trkpt lat="45.92215" lon="4.75312">
        <ele>176</ele>
        <time>2016-10-02T10:48:22Z</time>
      </trkpt>
      <trkpt lat="45.92215" lon="4.75303">
        <ele>176</ele>
        <time>2016-10-02T10:48:23Z</time>
      </trkpt>
      <trkpt lat="45.92216" lon="4.75295">
        <ele>176</ele>
        <time>2016-10-02T10:48:24Z</time>
      </trkpt>
      <trkpt lat="45.92216" lon="4.75287">
        <ele>176</ele>
        <time>2016-10-02T10:48:25Z</time>
      </trkpt>
      <trkpt lat="45.92216" lon="4.75278">
        <ele>176</ele>
        <time>2016-10-02T10:48:26Z</time>
      </trkpt>
      <trkpt lat="45.92216" lon="4.75269">
        <ele>176</ele>
        <time>2016-10-02T10:48:27Z</time>
      </trkpt>
      <trkpt lat="45.92216" lon="4.75261">
        <ele>176</ele>
        <time>2016-10-02T10:48:28Z</time>
      </trkpt>
      <trkpt lat="45.92216" lon="4.75252">
        <ele>175</ele>
        <time>2016-10-02T10:48:29Z</time>
      </trkpt>
      <trkpt lat="45.92217" lon="4.75243">
        <ele>175</ele>
        <time>2016-10-02T10:48:30Z</time>
      </trkpt>
      <trkpt lat="45.92218" lon="4.75235">
        <ele>175</ele>
        <time>2016-10-02T10:48:31Z</time>
      </trkpt>
      <trkpt lat="45.92218" lon="4.75226">
        <ele>175</ele>
        <time>2016-10-02T10:48:32Z</time>
      </trkpt>
      <trkpt lat="45.92219" lon="4.75217">
        <ele>175</ele>
        <time>2016-10-02T10:48:33Z</time>
      </trkpt>
      <trkpt lat="45.9222" lon="4.75209">
        <ele>175</ele>
        <time>2016-10-02T10:48:34Z</time>
      </trkpt>
      <trkpt lat="45.92223" lon="4.752">
        <ele>175</ele>
        <time>2016-10-02T10:48:35Z</time>
      </trkpt>
      <trkpt lat="45.92226" lon="4.75191">
        <ele>175</ele>
        <time>2016-10-02T10:48:36Z</time>
      </trkpt>
      <trkpt lat="45.92229" lon="4.75183">
        <ele>175</ele>
        <time>2016-10-02T10:48:37Z</time>
      </trkpt>
      <trkpt lat="45.92231" lon="4.75175">
        <ele>175</ele>
        <time>2016-10-02T10:48:38Z</time>
      </trkpt>
      <trkpt lat="45.92234" lon="4.75167">
        <ele>175</ele>
        <time>2016-10-02T10:48:39Z</time>
      </trkpt>
      <trkpt lat="45.92238" lon="4.7516">
        <ele>174</ele>
        <time>2016-10-02T10:48:40Z</time>
      </trkpt>
      <trkpt lat="45.92241" lon="4.75152">
        <ele>174</ele>
        <time>2016-10-02T10:48:41Z</time>
      </trkpt>
      <trkpt lat="45.92245" lon="4.75146">
        <ele>174</ele>
        <time>2016-10-02T10:48:42Z</time>
      </trkpt>
      <trkpt lat="45.9225" lon="4.7514">
        <ele>174</ele>
        <time>2016-10-02T10:48:43Z</time>
      </trkpt>
      <trkpt lat="45.92255" lon="4.75134">
        <ele>174</ele>
        <time>2016-10-02T10:48:44Z</time>
      </trkpt>
      <trkpt lat="45.92259" lon="4.75128">
        <ele>174</ele>
        <time>2016-10-02T10:48:45Z</time>
      </trkpt>
      <trkpt lat="45.92264" lon="4.75123">
        <ele>174</ele>
        <time>2016-10-02T10:48:46Z</time>
      </trkpt>
      <trkpt lat="45.92269" lon="4.75119">
        <ele>174</ele>
        <time>2016-10-02T10:48:47Z</time>
      </trkpt>
      <trkpt lat="45.92273" lon="4.75113">
        <ele>174</ele>
        <time>2016-10-02T10:48:48Z</time>
      </trkpt>
      <trkpt lat="45.92277" lon="4.75108">
        <ele>174</ele>
        <time>2016-10-02T10:48:49Z</time>
      </trkpt>
      <trkpt lat="45.92281" lon="4.75103">
        <ele>173</ele>
        <time>2016-10-02T10:48:50Z</time>
      </trkpt>
      <trkpt lat="45.92285" lon="4.75098">
        <ele>173</ele>
        <time>2016-10-02T10:48:51Z</time>
      </trkpt>
      <trkpt lat="45.92289" lon="4.75093">
        <ele>173</ele>
        <time>2016-10-02T10:48:52Z</time>
      </trkpt>
      <trkpt lat="45.92294" lon="4.75089">
        <ele>173</ele>
        <time>2016-10-02T10:48:53Z</time>
      </trkpt>
      <trkpt lat="45.92298" lon="4.75084">
        <ele>173</ele>
        <time>2016-10-02T10:48:54Z</time>
      </trkpt>
      <trkpt lat="45.92303" lon="4.75078">
        <ele>172</ele>
        <time>2016-10-02T10:48:55Z</time>
      </trkpt>
      <trkpt lat="45.92308" lon="4.75071">
        <ele>172</ele>
        <time>2016-10-02T10:48:56Z</time>
      </trkpt>
      <trkpt lat="45.92312" lon="4.75065">
        <ele>172</ele>
        <time>2016-10-02T10:48:57Z</time>
      </trkpt>
      <trkpt lat="45.92317" lon="4.75059">
        <ele>172</ele>
        <time>2016-10-02T10:48:58Z</time>
      </trkpt>
      <trkpt lat="45.9232" lon="4.75052">
        <ele>172</ele>
        <time>2016-10-02T10:48:59Z</time>
      </trkpt>
      <trkpt lat="45.92324" lon="4.75045">
        <ele>172</ele>
        <time>2016-10-02T10:49:00Z</time>
      </trkpt>
      <trkpt lat="45.92328" lon="4.75038">
        <ele>171</ele>
        <time>2016-10-02T10:49:01Z</time>
      </trkpt>
      <trkpt lat="45.92332" lon="4.75031">
        <ele>171</ele>
        <time>2016-10-02T10:49:02Z</time>
      </trkpt>
      <trkpt lat="45.92334" lon="4.75024">
        <ele>170</ele>
        <time>2016-10-02T10:49:03Z</time>
      </trkpt>
      <trkpt lat="45.92337" lon="4.75017">
        <ele>170</ele>
        <time>2016-10-02T10:49:04Z</time>
      </trkpt>
      <trkpt lat="45.92341" lon="4.75011">
        <ele>170</ele>
        <time>2016-10-02T10:49:05Z</time>
      </trkpt>
      <trkpt lat="45.92343" lon="4.75004">
        <ele>170</ele>
        <time>2016-10-02T10:49:06Z</time>
      </trkpt>
      <trkpt lat="45.92346" lon="4.74997">
        <ele>170</ele>
        <time>2016-10-02T10:49:07Z</time>
      </trkpt>
      <trkpt lat="45.9235" lon="4.74989">
        <ele>170</ele>
        <time>2016-10-02T10:49:08Z</time>
      </trkpt>
      <trkpt lat="45.92353" lon="4.74981">
        <ele>170</ele>
        <time>2016-10-02T10:49:09Z</time>
      </trkpt>
      <trkpt lat="45.92356" lon="4.74973">
        <ele>170</ele>
        <time>2016-10-02T10:49:10Z</time>
      </trkpt>
      <trkpt lat="45.92359" lon="4.74965">
        <ele>170</ele>
        <time>2016-10-02T10:49:11Z</time>
      </trkpt>
      <trkpt lat="45.92362" lon="4.74957">
        <ele>170</ele>
        <time>2016-10-02T10:49:12Z</time>
      </trkpt>
      <trkpt lat="45.92365" lon="4.74949">
        <ele>170</ele>
        <time>2016-10-02T10:49:13Z</time>
      </trkpt>
      <trkpt lat="45.92368" lon="4.74941">
        <ele>170</ele>
        <time>2016-10-02T10:49:14Z</time>
      </trkpt>
      <trkpt lat="45.9237" lon="4.74933">
        <ele>170</ele>
        <time>2016-10-02T10:49:15Z</time>
      </trkpt>
      <trkpt lat="45.92373" lon="4.74926">
        <ele>170</ele>
        <time>2016-10-02T10:49:16Z</time>
      </trkpt>
      <trkpt lat="45.92376" lon="4.7492">
        <ele>170</ele>
        <time>2016-10-02T10:49:17Z</time>
      </trkpt>
      <trkpt lat="45.92378" lon="4.74912">
        <ele>171</ele>
        <time>2016-10-02T10:49:18Z</time>
      </trkpt>
      <trkpt lat="45.92381" lon="4.74904">
        <ele>171</ele>
        <time>2016-10-02T10:49:19Z</time>
      </trkpt>
      <trkpt lat="45.92383" lon="4.74897">
        <ele>171</ele>
        <time>2016-10-02T10:49:20Z</time>
      </trkpt>
      <trkpt lat="45.92386" lon="4.7489">
        <ele>171</ele>
        <time>2016-10-02T10:49:21Z</time>
      </trkpt>
      <trkpt lat="45.92389" lon="4.74882">
        <ele>171</ele>
        <time>2016-10-02T10:49:22Z</time>
      </trkpt>
      <trkpt lat="45.92392" lon="4.74875">
        <ele>171</ele>
        <time>2016-10-02T10:49:23Z</time>
      </trkpt>
      <trkpt lat="45.92395" lon="4.74867">
        <ele>171</ele>
        <time>2016-10-02T10:49:24Z</time>
      </trkpt>
      <trkpt lat="45.92398" lon="4.74859">
        <ele>171</ele>
        <time>2016-10-02T10:49:25Z</time>
      </trkpt>
      <trkpt lat="45.924" lon="4.74851">
        <ele>171</ele>
        <time>2016-10-02T10:49:26Z</time>
      </trkpt>
      <trkpt lat="45.92402" lon="4.74842">
        <ele>171</ele>
        <time>2016-10-02T10:49:27Z</time>
      </trkpt>
      <trkpt lat="45.92405" lon="4.74834">
        <ele>171</ele>
        <time>2016-10-02T10:49:28Z</time>
      </trkpt>
      <trkpt lat="45.92407" lon="4.74825">
        <ele>171</ele>
        <time>2016-10-02T10:49:29Z</time>
      </trkpt>
      <trkpt lat="45.92409" lon="4.74816">
        <ele>171</ele>
        <time>2016-10-02T10:49:30Z</time>
      </trkpt>
      <trkpt lat="45.92411" lon="4.74807">
        <ele>171</ele>
        <time>2016-10-02T10:49:31Z</time>
      </trkpt>
      <trkpt lat="45.92413" lon="4.74798">
        <ele>171</ele>
        <time>2016-10-02T10:49:32Z</time>
      </trkpt>
      <trkpt lat="45.92416" lon="4.74789">
        <ele>171</ele>
        <time>2016-10-02T10:49:33Z</time>
      </trkpt>
      <trkpt lat="45.92418" lon="4.74781">
        <ele>171</ele>
        <time>2016-10-02T10:49:34Z</time>
      </trkpt>
      <trkpt lat="45.92421" lon="4.74772">
        <ele>171</ele>
        <time>2016-10-02T10:49:35Z</time>
      </trkpt>
      <trkpt lat="45.92423" lon="4.74764">
        <ele>171</ele>
        <time>2016-10-02T10:49:36Z</time>
      </trkpt>
      <trkpt lat="45.92425" lon="4.74757">
        <ele>171</ele>
        <time>2016-10-02T10:49:37Z</time>
      </trkpt>
      <trkpt lat="45.92427" lon="4.7475">
        <ele>172</ele>
        <time>2016-10-02T10:49:38Z</time>
      </trkpt>
      <trkpt lat="45.92429" lon="4.74743">
        <ele>171</ele>
        <time>2016-10-02T10:49:39Z</time>
      </trkpt>
      <trkpt lat="45.92431" lon="4.74736">
        <ele>171</ele>
        <time>2016-10-02T10:49:40Z</time>
      </trkpt>
      <trkpt lat="45.92433" lon="4.74729">
        <ele>171</ele>
        <time>2016-10-02T10:49:41Z</time>
      </trkpt>
      <trkpt lat="45.92435" lon="4.74722">
        <ele>171</ele>
        <time>2016-10-02T10:49:42Z</time>
      </trkpt>
      <trkpt lat="45.92438" lon="4.74716">
        <ele>171</ele>
        <time>2016-10-02T10:49:43Z</time>
      </trkpt>
      <trkpt lat="45.92441" lon="4.74708">
        <ele>171</ele>
        <time>2016-10-02T10:49:44Z</time>
      </trkpt>
      <trkpt lat="45.92444" lon="4.74701">
        <ele>171</ele>
        <time>2016-10-02T10:49:45Z</time>
      </trkpt>
      <trkpt lat="45.92447" lon="4.74694">
        <ele>171</ele>
        <time>2016-10-02T10:49:46Z</time>
      </trkpt>
      <trkpt lat="45.9245" lon="4.74686">
        <ele>171</ele>
        <time>2016-10-02T10:49:47Z</time>
      </trkpt>
      <trkpt lat="45.92453" lon="4.7468">
        <ele>171</ele>
        <time>2016-10-02T10:49:48Z</time>
      </trkpt>
      <trkpt lat="45.92455" lon="4.74674">
        <ele>171</ele>
        <time>2016-10-02T10:49:49Z</time>
      </trkpt>
      <trkpt lat="45.92459" lon="4.74667">
        <ele>171</ele>
        <time>2016-10-02T10:49:50Z</time>
      </trkpt>
      <trkpt lat="45.92462" lon="4.7466">
        <ele>171</ele>
        <time>2016-10-02T10:49:51Z</time>
      </trkpt>
      <trkpt lat="45.92466" lon="4.74653">
        <ele>171</ele>
        <time>2016-10-02T10:49:52Z</time>
      </trkpt>
      <trkpt lat="45.92471" lon="4.74646">
        <ele>171</ele>
        <time>2016-10-02T10:49:53Z</time>
      </trkpt>
      <trkpt lat="45.92476" lon="4.7464">
        <ele>171</ele>
        <time>2016-10-02T10:49:54Z</time>
      </trkpt>
      <trkpt lat="45.9248" lon="4.74633">
        <ele>171</ele>
        <time>2016-10-02T10:49:55Z</time>
      </trkpt>
      <trkpt lat="45.92485" lon="4.74626">
        <ele>171</ele>
        <time>2016-10-02T10:49:56Z</time>
      </trkpt>
      <trkpt lat="45.92491" lon="4.74619">
        <ele>171</ele>
        <time>2016-10-02T10:49:57Z</time>
      </trkpt>
      <trkpt lat="45.92495" lon="4.74613">
        <ele>171</ele>
        <time>2016-10-02T10:49:58Z</time>
      </trkpt>
      <trkpt lat="45.925" lon="4.74607">
        <ele>171</ele>
        <time>2016-10-02T10:49:59Z</time>
      </trkpt>
      <trkpt lat="45.92505" lon="4.74601">
        <ele>171</ele>
        <time>2016-10-02T10:50:00Z</time>
      </trkpt>
      <trkpt lat="45.9251" lon="4.74596">
        <ele>171</ele>
        <time>2016-10-02T10:50:01Z</time>
      </trkpt>
      <trkpt lat="45.92513" lon="4.74592">
        <ele>171</ele>
        <time>2016-10-02T10:50:02Z</time>
      </trkpt>
      <trkpt lat="45.9252" lon="4.74585">
        <ele>171</ele>
        <time>2016-10-02T10:50:04Z</time>
      </trkpt>
      <trkpt lat="45.92524" lon="4.74579">
        <ele>171</ele>
        <time>2016-10-02T10:50:05Z</time>
      </trkpt>
      <trkpt lat="45.92528" lon="4.74574">
        <ele>171</ele>
        <time>2016-10-02T10:50:06Z</time>
      </trkpt>
      <trkpt lat="45.92532" lon="4.74569">
        <ele>171</ele>
        <time>2016-10-02T10:50:07Z</time>
      </trkpt>
      <trkpt lat="45.92536" lon="4.74563">
        <ele>171</ele>
        <time>2016-10-02T10:50:08Z</time>
      </trkpt>
      <trkpt lat="45.92541" lon="4.74558">
        <ele>171</ele>
        <time>2016-10-02T10:50:09Z</time>
      </trkpt>
      <trkpt lat="45.92545" lon="4.74551">
        <ele>170</ele>
        <time>2016-10-02T10:50:10Z</time>
      </trkpt>
      <trkpt lat="45.92548" lon="4.74544">
        <ele>170</ele>
        <time>2016-10-02T10:50:11Z</time>
      </trkpt>
      <trkpt lat="45.92552" lon="4.74538">
        <ele>170</ele>
        <time>2016-10-02T10:50:12Z</time>
      </trkpt>
      <trkpt lat="45.92555" lon="4.74531">
        <ele>170</ele>
        <time>2016-10-02T10:50:13Z</time>
      </trkpt>
      <trkpt lat="45.92558" lon="4.74525">
        <ele>170</ele>
        <time>2016-10-02T10:50:14Z</time>
      </trkpt>
      <trkpt lat="45.92562" lon="4.74518">
        <ele>170</ele>
        <time>2016-10-02T10:50:15Z</time>
      </trkpt>
      <trkpt lat="45.92565" lon="4.74511">
        <ele>170</ele>
        <time>2016-10-02T10:50:16Z</time>
      </trkpt>
      <trkpt lat="45.92568" lon="4.74504">
        <ele>170</ele>
        <time>2016-10-02T10:50:17Z</time>
      </trkpt>
      <trkpt lat="45.92572" lon="4.74498">
        <ele>170</ele>
        <time>2016-10-02T10:50:18Z</time>
      </trkpt>
      <trkpt lat="45.92576" lon="4.74491">
        <ele>170</ele>
        <time>2016-10-02T10:50:19Z</time>
      </trkpt>
      <trkpt lat="45.92579" lon="4.74485">
        <ele>170</ele>
        <time>2016-10-02T10:50:20Z</time>
      </trkpt>
      <trkpt lat="45.92582" lon="4.74479">
        <ele>170</ele>
        <time>2016-10-02T10:50:21Z</time>
      </trkpt>
      <trkpt lat="45.92585" lon="4.74473">
        <ele>170</ele>
        <time>2016-10-02T10:50:22Z</time>
      </trkpt>
      <trkpt lat="45.92589" lon="4.74466">
        <ele>170</ele>
        <time>2016-10-02T10:50:23Z</time>
      </trkpt>
      <trkpt lat="45.92593" lon="4.7446">
        <ele>170</ele>
        <time>2016-10-02T10:50:24Z</time>
      </trkpt>
      <trkpt lat="45.92596" lon="4.74453">
        <ele>170</ele>
        <time>2016-10-02T10:50:25Z</time>
      </trkpt>
      <trkpt lat="45.926" lon="4.74446">
        <ele>170</ele>
        <time>2016-10-02T10:50:26Z</time>
      </trkpt>
      <trkpt lat="45.92604" lon="4.74439">
        <ele>170</ele>
        <time>2016-10-02T10:50:27Z</time>
      </trkpt>
      <trkpt lat="45.92608" lon="4.74431">
        <ele>170</ele>
        <time>2016-10-02T10:50:28Z</time>
      </trkpt>
      <trkpt lat="45.92611" lon="4.74424">
        <ele>170</ele>
        <time>2016-10-02T10:50:29Z</time>
      </trkpt>
      <trkpt lat="45.92615" lon="4.74418">
        <ele>170</ele>
        <time>2016-10-02T10:50:30Z</time>
      </trkpt>
      <trkpt lat="45.92619" lon="4.74411">
        <ele>170</ele>
        <time>2016-10-02T10:50:31Z</time>
      </trkpt>
      <trkpt lat="45.92622" lon="4.74405">
        <ele>170</ele>
        <time>2016-10-02T10:50:32Z</time>
      </trkpt>
      <trkpt lat="45.92625" lon="4.744">
        <ele>170</ele>
        <time>2016-10-02T10:50:33Z</time>
      </trkpt>
      <trkpt lat="45.92628" lon="4.74394">
        <ele>170</ele>
        <time>2016-10-02T10:50:34Z</time>
      </trkpt>
      <trkpt lat="45.92631" lon="4.74388">
        <ele>170</ele>
        <time>2016-10-02T10:50:35Z</time>
      </trkpt>
      <trkpt lat="45.92633" lon="4.74383">
        <ele>170</ele>
        <time>2016-10-02T10:50:36Z</time>
      </trkpt>
      <trkpt lat="45.92636" lon="4.74377">
        <ele>170</ele>
        <time>2016-10-02T10:50:37Z</time>
      </trkpt>
      <trkpt lat="45.92639" lon="4.74372">
        <ele>171</ele>
        <time>2016-10-02T10:50:38Z</time>
      </trkpt>
      <trkpt lat="45.92643" lon="4.74367">
        <ele>171</ele>
        <time>2016-10-02T10:50:39Z</time>
      </trkpt>
      <trkpt lat="45.92645" lon="4.74362">
        <ele>171</ele>
        <time>2016-10-02T10:50:40Z</time>
      </trkpt>
      <trkpt lat="45.92648" lon="4.74357">
        <ele>171</ele>
        <time>2016-10-02T10:50:41Z</time>
      </trkpt>
      <trkpt lat="45.92651" lon="4.74352">
        <ele>171</ele>
        <time>2016-10-02T10:50:42Z</time>
      </trkpt>
      <trkpt lat="45.92655" lon="4.74346">
        <ele>171</ele>
        <time>2016-10-02T10:50:43Z</time>
      </trkpt>
      <trkpt lat="45.92658" lon="4.74341">
        <ele>171</ele>
        <time>2016-10-02T10:50:44Z</time>
      </trkpt>
      <trkpt lat="45.92661" lon="4.74336">
        <ele>171</ele>
        <time>2016-10-02T10:50:45Z</time>
      </trkpt>
      <trkpt lat="45.92664" lon="4.7433">
        <ele>171</ele>
        <time>2016-10-02T10:50:46Z</time>
      </trkpt>
      <trkpt lat="45.92667" lon="4.74324">
        <ele>171</ele>
        <time>2016-10-02T10:50:47Z</time>
      </trkpt>
      <trkpt lat="45.92671" lon="4.74318">
        <ele>171</ele>
        <time>2016-10-02T10:50:48Z</time>
      </trkpt>
      <trkpt lat="45.92675" lon="4.74313">
        <ele>171</ele>
        <time>2016-10-02T10:50:49Z</time>
      </trkpt>
      <trkpt lat="45.92679" lon="4.74307">
        <ele>171</ele>
        <time>2016-10-02T10:50:50Z</time>
      </trkpt>
      <trkpt lat="45.92682" lon="4.74301">
        <ele>171</ele>
        <time>2016-10-02T10:50:51Z</time>
      </trkpt>
      <trkpt lat="45.92686" lon="4.74295">
        <ele>171</ele>
        <time>2016-10-02T10:50:52Z</time>
      </trkpt>
      <trkpt lat="45.92689" lon="4.74289">
        <ele>171</ele>
        <time>2016-10-02T10:50:53Z</time>
      </trkpt>
      <trkpt lat="45.92693" lon="4.74283">
        <ele>171</ele>
        <time>2016-10-02T10:50:54Z</time>
      </trkpt>
      <trkpt lat="45.92696" lon="4.74277">
        <ele>171</ele>
        <time>2016-10-02T10:50:55Z</time>
      </trkpt>
      <trkpt lat="45.92699" lon="4.74271">
        <ele>171</ele>
        <time>2016-10-02T10:50:56Z</time>
      </trkpt>
      <trkpt lat="45.92703" lon="4.74265">
        <ele>171</ele>
        <time>2016-10-02T10:50:57Z</time>
      </trkpt>
      <trkpt lat="45.92707" lon="4.74259">
        <ele>171</ele>
        <time>2016-10-02T10:50:58Z</time>
      </trkpt>
      <trkpt lat="45.92711" lon="4.74253">
        <ele>171</ele>
        <time>2016-10-02T10:50:59Z</time>
      </trkpt>
      <trkpt lat="45.92714" lon="4.74247">
        <ele>171</ele>
        <time>2016-10-02T10:51:00Z</time>
      </trkpt>
      <trkpt lat="45.92718" lon="4.74241">
        <ele>171</ele>
        <time>2016-10-02T10:51:01Z</time>
      </trkpt>
      <trkpt lat="45.92723" lon="4.74235">
        <ele>171</ele>
        <time>2016-10-02T10:51:02Z</time>
      </trkpt>
      <trkpt lat="45.92727" lon="4.74229">
        <ele>171</ele>
        <time>2016-10-02T10:51:03Z</time>
      </trkpt>
      <trkpt lat="45.92732" lon="4.74222">
        <ele>171</ele>
        <time>2016-10-02T10:51:04Z</time>
      </trkpt>
      <trkpt lat="45.92736" lon="4.74216">
        <ele>171</ele>
        <time>2016-10-02T10:51:05Z</time>
      </trkpt>
      <trkpt lat="45.9274" lon="4.74209">
        <ele>171</ele>
        <time>2016-10-02T10:51:06Z</time>
      </trkpt>
      <trkpt lat="45.92745" lon="4.74204">
        <ele>171</ele>
        <time>2016-10-02T10:51:07Z</time>
      </trkpt>
      <trkpt lat="45.92748" lon="4.74198">
        <ele>171</ele>
        <time>2016-10-02T10:51:08Z</time>
      </trkpt>
      <trkpt lat="45.92752" lon="4.74193">
        <ele>172</ele>
        <time>2016-10-02T10:51:09Z</time>
      </trkpt>
      <trkpt lat="45.92757" lon="4.74188">
        <ele>172</ele>
        <time>2016-10-02T10:51:10Z</time>
      </trkpt>
      <trkpt lat="45.92761" lon="4.74182">
        <ele>172</ele>
        <time>2016-10-02T10:51:11Z</time>
      </trkpt>
      <trkpt lat="45.92766" lon="4.74177">
        <ele>172</ele>
        <time>2016-10-02T10:51:12Z</time>
      </trkpt>
      <trkpt lat="45.92771" lon="4.74171">
        <ele>172</ele>
        <time>2016-10-02T10:51:13Z</time>
      </trkpt>
      <trkpt lat="45.92776" lon="4.74166">
        <ele>172</ele>
        <time>2016-10-02T10:51:14Z</time>
      </trkpt>
      <trkpt lat="45.92781" lon="4.74161">
        <ele>172</ele>
        <time>2016-10-02T10:51:15Z</time>
      </trkpt>
      <trkpt lat="45.92786" lon="4.74156">
        <ele>172</ele>
        <time>2016-10-02T10:51:16Z</time>
      </trkpt>
      <trkpt lat="45.9279" lon="4.7415">
        <ele>172</ele>
        <time>2016-10-02T10:51:17Z</time>
      </trkpt>
      <trkpt lat="45.92797" lon="4.74143">
        <ele>172</ele>
        <time>2016-10-02T10:51:19Z</time>
      </trkpt>
      <trkpt lat="45.92802" lon="4.74139">
        <ele>172</ele>
        <time>2016-10-02T10:51:20Z</time>
      </trkpt>
      <trkpt lat="45.92806" lon="4.74134">
        <ele>172</ele>
        <time>2016-10-02T10:51:21Z</time>
      </trkpt>
      <trkpt lat="45.9281" lon="4.74129">
        <ele>172</ele>
        <time>2016-10-02T10:51:22Z</time>
      </trkpt>
      <trkpt lat="45.92814" lon="4.74124">
        <ele>172</ele>
        <time>2016-10-02T10:51:23Z</time>
      </trkpt>
      <trkpt lat="45.92819" lon="4.74119">
        <ele>172</ele>
        <time>2016-10-02T10:51:24Z</time>
      </trkpt>
      <trkpt lat="45.92823" lon="4.74114">
        <ele>171</ele>
        <time>2016-10-02T10:51:25Z</time>
      </trkpt>
      <trkpt lat="45.92828" lon="4.74109">
        <ele>171</ele>
        <time>2016-10-02T10:51:26Z</time>
      </trkpt>
      <trkpt lat="45.92832" lon="4.74104">
        <ele>171</ele>
        <time>2016-10-02T10:51:27Z</time>
      </trkpt>
      <trkpt lat="45.92836" lon="4.74099">
        <ele>171</ele>
        <time>2016-10-02T10:51:28Z</time>
      </trkpt>
      <trkpt lat="45.92841" lon="4.74094">
        <ele>171</ele>
        <time>2016-10-02T10:51:29Z</time>
      </trkpt>
      <trkpt lat="45.92846" lon="4.74088">
        <ele>171</ele>
        <time>2016-10-02T10:51:30Z</time>
      </trkpt>
      <trkpt lat="45.9285" lon="4.74082">
        <ele>172</ele>
        <time>2016-10-02T10:51:31Z</time>
      </trkpt>
      <trkpt lat="45.92854" lon="4.74076">
        <ele>172</ele>
        <time>2016-10-02T10:51:32Z</time>
      </trkpt>
      <trkpt lat="45.92858" lon="4.7407">
        <ele>172</ele>
        <time>2016-10-02T10:51:33Z</time>
      </trkpt>
      <trkpt lat="45.92863" lon="4.74065">
        <ele>172</ele>
        <time>2016-10-02T10:51:34Z</time>
      </trkpt>
      <trkpt lat="45.92867" lon="4.7406">
        <ele>172</ele>
        <time>2016-10-02T10:51:35Z</time>
      </trkpt>
      <trkpt lat="45.92871" lon="4.74055">
        <ele>172</ele>
        <time>2016-10-02T10:51:36Z</time>
      </trkpt>
      <trkpt lat="45.92876" lon="4.74052">
        <ele>172</ele>
        <time>2016-10-02T10:51:37Z</time>
      </trkpt>
      <trkpt lat="45.92882" lon="4.74049">
        <ele>172</ele>
        <time>2016-10-02T10:51:38Z</time>
      </trkpt>
      <trkpt lat="45.92887" lon="4.74049">
        <ele>172</ele>
        <time>2016-10-02T10:51:39Z</time>
      </trkpt>
      <trkpt lat="45.92891" lon="4.74048">
        <ele>172</ele>
        <time>2016-10-02T10:51:40Z</time>
      </trkpt>
      <trkpt lat="45.92895" lon="4.74049">
        <ele>172</ele>
        <time>2016-10-02T10:51:41Z</time>
      </trkpt>
      <trkpt lat="45.929" lon="4.74048">
        <ele>172</ele>
        <time>2016-10-02T10:51:42Z</time>
      </trkpt>
      <trkpt lat="45.92905" lon="4.74047">
        <ele>172</ele>
        <time>2016-10-02T10:51:43Z</time>
      </trkpt>
      <trkpt lat="45.92908" lon="4.7404">
        <ele>172</ele>
        <time>2016-10-02T10:51:44Z</time>
      </trkpt>
      <trkpt lat="45.92911" lon="4.74033">
        <ele>172</ele>
        <time>2016-10-02T10:51:45Z</time>
      </trkpt>
      <trkpt lat="45.92913" lon="4.74025">
        <ele>172</ele>
        <time>2016-10-02T10:51:46Z</time>
      </trkpt>
      <trkpt lat="45.92914" lon="4.74017">
        <ele>172</ele>
        <time>2016-10-02T10:51:47Z</time>
      </trkpt>
      <trkpt lat="45.92914" lon="4.74007">
        <ele>172</ele>
        <time>2016-10-02T10:51:48Z</time>
      </trkpt>
      <trkpt lat="45.92913" lon="4.74">
        <ele>172</ele>
        <time>2016-10-02T10:51:49Z</time>
      </trkpt>
      <trkpt lat="45.9291" lon="4.73993">
        <ele>172</ele>
        <time>2016-10-02T10:51:50Z</time>
      </trkpt>
      <trkpt lat="45.92905" lon="4.73988">
        <ele>172</ele>
        <time>2016-10-02T10:51:51Z</time>
      </trkpt>
      <trkpt lat="45.92901" lon="4.73984">
        <ele>172</ele>
        <time>2016-10-02T10:51:52Z</time>
      </trkpt>
      <trkpt lat="45.92896" lon="4.73981">
        <ele>172</ele>
        <time>2016-10-02T10:51:53Z</time>
      </trkpt>
      <trkpt lat="45.92893" lon="4.73976">
        <ele>172</ele>
        <time>2016-10-02T10:51:54Z</time>
      </trkpt>
      <trkpt lat="45.92889" lon="4.73969">
        <ele>172</ele>
        <time>2016-10-02T10:51:55Z</time>
      </trkpt>
      <trkpt lat="45.92886" lon="4.73962">
        <ele>172</ele>
        <time>2016-10-02T10:51:56Z</time>
      </trkpt>
      <trkpt lat="45.92884" lon="4.73952">
        <ele>172</ele>
        <time>2016-10-02T10:51:57Z</time>
      </trkpt>
      <trkpt lat="45.92884" lon="4.73943">
        <ele>172</ele>
        <time>2016-10-02T10:51:58Z</time>
      </trkpt>
      <trkpt lat="45.92883" lon="4.73933">
        <ele>172</ele>
        <time>2016-10-02T10:51:59Z</time>
      </trkpt>
      <trkpt lat="45.92883" lon="4.73923">
        <ele>172</ele>
        <time>2016-10-02T10:52:00Z</time>
      </trkpt>
      <trkpt lat="45.92882" lon="4.73913">
        <ele>173</ele>
        <time>2016-10-02T10:52:01Z</time>
      </trkpt>
      <trkpt lat="45.92881" lon="4.73904">
        <ele>173</ele>
        <time>2016-10-02T10:52:02Z</time>
      </trkpt>
      <trkpt lat="45.9288" lon="4.73895">
        <ele>173</ele>
        <time>2016-10-02T10:52:03Z</time>
      </trkpt>
      <trkpt lat="45.92879" lon="4.73886">
        <ele>173</ele>
        <time>2016-10-02T10:52:04Z</time>
      </trkpt>
      <trkpt lat="45.92878" lon="4.73877">
        <ele>173</ele>
        <time>2016-10-02T10:52:05Z</time>
      </trkpt>
      <trkpt lat="45.92877" lon="4.73868">
        <ele>173</ele>
        <time>2016-10-02T10:52:06Z</time>
      </trkpt>
      <trkpt lat="45.92876" lon="4.7386">
        <ele>173</ele>
        <time>2016-10-02T10:52:07Z</time>
      </trkpt>
      <trkpt lat="45.92874" lon="4.73852">
        <ele>173</ele>
        <time>2016-10-02T10:52:08Z</time>
      </trkpt>
      <trkpt lat="45.92875" lon="4.73841">
        <ele>173</ele>
        <time>2016-10-02T10:52:09Z</time>
      </trkpt>
      <trkpt lat="45.92874" lon="4.73833">
        <ele>173</ele>
        <time>2016-10-02T10:52:10Z</time>
      </trkpt>
      <trkpt lat="45.92872" lon="4.73826">
        <ele>173</ele>
        <time>2016-10-02T10:52:11Z</time>
      </trkpt>
      <trkpt lat="45.92871" lon="4.73819">
        <ele>173</ele>
        <time>2016-10-02T10:52:12Z</time>
      </trkpt>
      <trkpt lat="45.92869" lon="4.73812">
        <ele>173</ele>
        <time>2016-10-02T10:52:13Z</time>
      </trkpt>
      <trkpt lat="45.92867" lon="4.73806">
        <ele>173</ele>
        <time>2016-10-02T10:52:14Z</time>
      </trkpt>
      <trkpt lat="45.92863" lon="4.738">
        <ele>173</ele>
        <time>2016-10-02T10:52:15Z</time>
      </trkpt>
      <trkpt lat="45.9286" lon="4.73795">
        <ele>173</ele>
        <time>2016-10-02T10:52:16Z</time>
      </trkpt>
      <trkpt lat="45.92857" lon="4.7379">
        <ele>173</ele>
        <time>2016-10-02T10:52:17Z</time>
      </trkpt>
      <trkpt lat="45.92853" lon="4.73786">
        <ele>173</ele>
        <time>2016-10-02T10:52:18Z</time>
      </trkpt>
      <trkpt lat="45.92847" lon="4.73782">
        <ele>173</ele>
        <time>2016-10-02T10:52:19Z</time>
      </trkpt>
      <trkpt lat="45.92842" lon="4.73779">
        <ele>172</ele>
        <time>2016-10-02T10:52:20Z</time>
      </trkpt>
      <trkpt lat="45.92837" lon="4.73776">
        <ele>172</ele>
        <time>2016-10-02T10:52:21Z</time>
      </trkpt>
      <trkpt lat="45.92831" lon="4.73772">
        <ele>173</ele>
        <time>2016-10-02T10:52:22Z</time>
      </trkpt>
      <trkpt lat="45.92822" lon="4.73773">
        <ele>173</ele>
        <time>2016-10-02T10:52:24Z</time>
      </trkpt>
      <trkpt lat="45.92816" lon="4.73774">
        <ele>173</ele>
        <time>2016-10-02T10:52:25Z</time>
      </trkpt>
      <trkpt lat="45.92811" lon="4.73774">
        <ele>173</ele>
        <time>2016-10-02T10:52:26Z</time>
      </trkpt>
      <trkpt lat="45.92806" lon="4.73772">
        <ele>173</ele>
        <time>2016-10-02T10:52:27Z</time>
      </trkpt>
      <trkpt lat="45.92798" lon="4.7377">
        <ele>173</ele>
        <time>2016-10-02T10:52:28Z</time>
      </trkpt>
      <trkpt lat="45.92794" lon="4.7377">
        <ele>173</ele>
        <time>2016-10-02T10:52:29Z</time>
      </trkpt>
      <trkpt lat="45.92787" lon="4.73765">
        <ele>173</ele>
        <time>2016-10-02T10:52:31Z</time>
      </trkpt>
      <trkpt lat="45.92783" lon="4.73763">
        <ele>173</ele>
        <time>2016-10-02T10:52:32Z</time>
      </trkpt>
      <trkpt lat="45.92779" lon="4.73768">
        <ele>173</ele>
        <time>2016-10-02T10:52:35Z</time>
      </trkpt>
      <trkpt lat="45.92777" lon="4.73772">
        <ele>173</ele>
        <time>2016-10-02T10:52:36Z</time>
      </trkpt>
      <trkpt lat="45.92772" lon="4.73783">
        <ele>173</ele>
        <time>2016-10-02T10:52:38Z</time>
      </trkpt>
      <trkpt lat="45.9277" lon="4.73789">
        <ele>173</ele>
        <time>2016-10-02T10:52:39Z</time>
      </trkpt>
      <trkpt lat="45.92767" lon="4.73801">
        <ele>173</ele>
        <time>2016-10-02T10:52:41Z</time>
      </trkpt>
      <trkpt lat="45.92765" lon="4.73806">
        <ele>173</ele>
        <time>2016-10-02T10:52:42Z</time>
      </trkpt>
      <trkpt lat="45.92761" lon="4.73818">
        <ele>172</ele>
        <time>2016-10-02T10:52:44Z</time>
      </trkpt>
      <trkpt lat="45.92759" lon="4.73823">
        <ele>172</ele>
        <time>2016-10-02T10:52:45Z</time>
      </trkpt>
      <trkpt lat="45.92756" lon="4.73835">
        <ele>172</ele>
        <time>2016-10-02T10:52:47Z</time>
      </trkpt>
      <trkpt lat="45.92754" lon="4.73843">
        <ele>172</ele>
        <time>2016-10-02T10:52:48Z</time>
      </trkpt>
      <trkpt lat="45.92752" lon="4.73851">
        <ele>172</ele>
        <time>2016-10-02T10:52:49Z</time>
      </trkpt>
      <trkpt lat="45.92751" lon="4.73857">
        <ele>172</ele>
        <time>2016-10-02T10:52:50Z</time>
      </trkpt>
      <trkpt lat="45.92748" lon="4.73869">
        <ele>172</ele>
        <time>2016-10-02T10:52:52Z</time>
      </trkpt>
      <trkpt lat="45.92747" lon="4.73875">
        <ele>172</ele>
        <time>2016-10-02T10:52:53Z</time>
      </trkpt>
      <trkpt lat="45.92746" lon="4.73884">
        <ele>172</ele>
        <time>2016-10-02T10:52:54Z</time>
      </trkpt>
      <trkpt lat="45.92745" lon="4.73892">
        <ele>172</ele>
        <time>2016-10-02T10:52:55Z</time>
      </trkpt>
      <trkpt lat="45.92743" lon="4.739">
        <ele>172</ele>
        <time>2016-10-02T10:52:56Z</time>
      </trkpt>
      <trkpt lat="45.92742" lon="4.73907">
        <ele>172</ele>
        <time>2016-10-02T10:52:57Z</time>
      </trkpt>
      <trkpt lat="45.92739" lon="4.73914">
        <ele>172</ele>
        <time>2016-10-02T10:52:58Z</time>
      </trkpt>
      <trkpt lat="45.92734" lon="4.73918">
        <ele>172</ele>
        <time>2016-10-02T10:52:59Z</time>
      </trkpt>
      <trkpt lat="45.92729" lon="4.73921">
        <ele>172</ele>
        <time>2016-10-02T10:53:00Z</time>
      </trkpt>
      <trkpt lat="45.92725" lon="4.73922">
        <ele>172</ele>
        <time>2016-10-02T10:53:01Z</time>
      </trkpt>
      <trkpt lat="45.92718" lon="4.7392">
        <ele>172</ele>
        <time>2016-10-02T10:53:02Z</time>
      </trkpt>
      <trkpt lat="45.92712" lon="4.73921">
        <ele>172</ele>
        <time>2016-10-02T10:53:03Z</time>
      </trkpt>
      <trkpt lat="45.92707" lon="4.73921">
        <ele>172</ele>
        <time>2016-10-02T10:53:04Z</time>
      </trkpt>
      <trkpt lat="45.92701" lon="4.73922">
        <ele>172</ele>
        <time>2016-10-02T10:53:05Z</time>
      </trkpt>
      <trkpt lat="45.92696" lon="4.73924">
        <ele>172</ele>
        <time>2016-10-02T10:53:06Z</time>
      </trkpt>
      <trkpt lat="45.9269" lon="4.73926">
        <ele>172</ele>
        <time>2016-10-02T10:53:07Z</time>
      </trkpt>
      <trkpt lat="45.92685" lon="4.73929">
        <ele>172</ele>
        <time>2016-10-02T10:53:08Z</time>
      </trkpt>
      <trkpt lat="45.92679" lon="4.7393">
        <ele>172</ele>
        <time>2016-10-02T10:53:09Z</time>
      </trkpt>
      <trkpt lat="45.92673" lon="4.73933">
        <ele>172</ele>
        <time>2016-10-02T10:53:10Z</time>
      </trkpt>
      <trkpt lat="45.92667" lon="4.73935">
        <ele>172</ele>
        <time>2016-10-02T10:53:11Z</time>
      </trkpt>
      <trkpt lat="45.92662" lon="4.73937">
        <ele>171</ele>
        <time>2016-10-02T10:53:12Z</time>
      </trkpt>
      <trkpt lat="45.92657" lon="4.73939">
        <ele>171</ele>
        <time>2016-10-02T10:53:13Z</time>
      </trkpt>
      <trkpt lat="45.92652" lon="4.73941">
        <ele>172</ele>
        <time>2016-10-02T10:53:14Z</time>
      </trkpt>
      <trkpt lat="45.92646" lon="4.73942">
        <ele>172</ele>
        <time>2016-10-02T10:53:15Z</time>
      </trkpt>
      <trkpt lat="45.92641" lon="4.73944">
        <ele>172</ele>
        <time>2016-10-02T10:53:16Z</time>
      </trkpt>
      <trkpt lat="45.92635" lon="4.73947">
        <ele>172</ele>
        <time>2016-10-02T10:53:17Z</time>
      </trkpt>
      <trkpt lat="45.92629" lon="4.7395">
        <ele>172</ele>
        <time>2016-10-02T10:53:18Z</time>
      </trkpt>
      <trkpt lat="45.92623" lon="4.73953">
        <ele>172</ele>
        <time>2016-10-02T10:53:19Z</time>
      </trkpt>
      <trkpt lat="45.92618" lon="4.73955">
        <ele>172</ele>
        <time>2016-10-02T10:53:20Z</time>
      </trkpt>
      <trkpt lat="45.92612" lon="4.73958">
        <ele>172</ele>
        <time>2016-10-02T10:53:21Z</time>
      </trkpt>
      <trkpt lat="45.92607" lon="4.73962">
        <ele>172</ele>
        <time>2016-10-02T10:53:22Z</time>
      </trkpt>
      <trkpt lat="45.92602" lon="4.73964">
        <ele>172</ele>
        <time>2016-10-02T10:53:23Z</time>
      </trkpt>
      <trkpt lat="45.92596" lon="4.73968">
        <ele>172</ele>
        <time>2016-10-02T10:53:24Z</time>
      </trkpt>
      <trkpt lat="45.92588" lon="4.73973">
        <ele>172</ele>
        <time>2016-10-02T10:53:25Z</time>
      </trkpt>
      <trkpt lat="45.92583" lon="4.73977">
        <ele>172</ele>
        <time>2016-10-02T10:53:26Z</time>
      </trkpt>
      <trkpt lat="45.92578" lon="4.7398">
        <ele>172</ele>
        <time>2016-10-02T10:53:27Z</time>
      </trkpt>
      <trkpt lat="45.92573" lon="4.73988">
        <ele>172</ele>
        <time>2016-10-02T10:53:28Z</time>
      </trkpt>
      <trkpt lat="45.92569" lon="4.73989">
        <ele>172</ele>
        <time>2016-10-02T10:53:29Z</time>
      </trkpt>
      <trkpt lat="45.92562" lon="4.73994">
        <ele>172</ele>
        <time>2016-10-02T10:53:31Z</time>
      </trkpt>
      <trkpt lat="45.92558" lon="4.73997">
        <ele>172</ele>
        <time>2016-10-02T10:53:32Z</time>
      </trkpt>
      <trkpt lat="45.9255" lon="4.73998">
        <ele>172</ele>
        <time>2016-10-02T10:53:34Z</time>
      </trkpt>
      <trkpt lat="45.92546" lon="4.73998">
        <ele>172</ele>
        <time>2016-10-02T10:53:35Z</time>
      </trkpt>
      <trkpt lat="45.92539" lon="4.73995">
        <ele>172</ele>
        <time>2016-10-02T10:53:37Z</time>
      </trkpt>
      <trkpt lat="45.92536" lon="4.73992">
        <ele>172</ele>
        <time>2016-10-02T10:53:38Z</time>
      </trkpt>
      <trkpt lat="45.92529" lon="4.73986">
        <ele>172</ele>
        <time>2016-10-02T10:53:45Z</time>
      </trkpt>
      <trkpt lat="45.92527" lon="4.73984">
        <ele>172</ele>
        <time>2016-10-02T10:53:46Z</time>
      </trkpt>
      <trkpt lat="45.92522" lon="4.73981">
        <ele>172</ele>
        <time>2016-10-02T10:53:48Z</time>
      </trkpt>
      <trkpt lat="45.92516" lon="4.73977">
        <ele>172</ele>
        <time>2016-10-02T10:53:49Z</time>
      </trkpt>
      <trkpt lat="45.9251" lon="4.73974">
        <ele>172</ele>
        <time>2016-10-02T10:53:50Z</time>
      </trkpt>
      <trkpt lat="45.92506" lon="4.73973">
        <ele>172</ele>
        <time>2016-10-02T10:53:51Z</time>
      </trkpt>
      <trkpt lat="45.92499" lon="4.7397">
        <ele>172</ele>
        <time>2016-10-02T10:53:54Z</time>
      </trkpt>
      <trkpt lat="45.92494" lon="4.73968">
        <ele>172</ele>
        <time>2016-10-02T10:53:55Z</time>
      </trkpt>
      <trkpt lat="45.92486" lon="4.73967">
        <ele>172</ele>
        <time>2016-10-02T10:53:56Z</time>
      </trkpt>
      <trkpt lat="45.92483" lon="4.73963">
        <ele>172</ele>
        <time>2016-10-02T10:53:57Z</time>
      </trkpt>
      <trkpt lat="45.92475" lon="4.73961">
        <ele>172</ele>
        <time>2016-10-02T10:53:59Z</time>
      </trkpt>
      <trkpt lat="45.92469" lon="4.7396">
        <ele>172</ele>
        <time>2016-10-02T10:54:00Z</time>
      </trkpt>
      <trkpt lat="45.92462" lon="4.73958">
        <ele>172</ele>
        <time>2016-10-02T10:54:02Z</time>
      </trkpt>
      <trkpt lat="45.9246" lon="4.73955">
        <ele>172</ele>
        <time>2016-10-02T10:54:03Z</time>
      </trkpt>
      <trkpt lat="45.92455" lon="4.73947">
        <ele>172</ele>
        <time>2016-10-02T10:54:05Z</time>
      </trkpt>
      <trkpt lat="45.92454" lon="4.73942">
        <ele>172</ele>
        <time>2016-10-02T10:54:06Z</time>
      </trkpt>
      <trkpt lat="45.92456" lon="4.73935">
        <ele>172</ele>
        <time>2016-10-02T10:54:08Z</time>
      </trkpt>
      <trkpt lat="45.92456" lon="4.7393">
        <ele>172</ele>
        <time>2016-10-02T10:54:09Z</time>
      </trkpt>
      <trkpt lat="45.92458" lon="4.73917">
        <ele>172</ele>
        <time>2016-10-02T10:54:11Z</time>
      </trkpt>
      <trkpt lat="45.92459" lon="4.73911">
        <ele>172</ele>
        <time>2016-10-02T10:54:12Z</time>
      </trkpt>
      <trkpt lat="45.9246" lon="4.73899">
        <ele>171</ele>
        <time>2016-10-02T10:54:14Z</time>
      </trkpt>
      <trkpt lat="45.9246" lon="4.73893">
        <ele>171</ele>
        <time>2016-10-02T10:54:15Z</time>
      </trkpt>
      <trkpt lat="45.92459" lon="4.73883">
        <ele>171</ele>
        <time>2016-10-02T10:54:18Z</time>
      </trkpt>
      <trkpt lat="45.92457" lon="4.73876">
        <ele>171</ele>
        <time>2016-10-02T10:54:19Z</time>
      </trkpt>
      <trkpt lat="45.92455" lon="4.73866">
        <ele>171</ele>
        <time>2016-10-02T10:54:21Z</time>
      </trkpt>
      <trkpt lat="45.92455" lon="4.73856">
        <ele>171</ele>
        <time>2016-10-02T10:54:22Z</time>
      </trkpt>
      <trkpt lat="45.92455" lon="4.73847">
        <ele>171</ele>
        <time>2016-10-02T10:54:23Z</time>
      </trkpt>
      <trkpt lat="45.92455" lon="4.73838">
        <ele>171</ele>
        <time>2016-10-02T10:54:24Z</time>
      </trkpt>
      <trkpt lat="45.92456" lon="4.7383">
        <ele>172</ele>
        <time>2016-10-02T10:54:25Z</time>
      </trkpt>
      <trkpt lat="45.92457" lon="4.73822">
        <ele>172</ele>
        <time>2016-10-02T10:54:26Z</time>
      </trkpt>
      <trkpt lat="45.92458" lon="4.73815">
        <ele>172</ele>
        <time>2016-10-02T10:54:27Z</time>
      </trkpt>
      <trkpt lat="45.9246" lon="4.73808">
        <ele>172</ele>
        <time>2016-10-02T10:54:28Z</time>
      </trkpt>
      <trkpt lat="45.92461" lon="4.73801">
        <ele>172</ele>
        <time>2016-10-02T10:54:29Z</time>
      </trkpt>
      <trkpt lat="45.92463" lon="4.73792">
        <ele>172</ele>
        <time>2016-10-02T10:54:30Z</time>
      </trkpt>
      <trkpt lat="45.92464" lon="4.73785">
        <ele>172</ele>
        <time>2016-10-02T10:54:31Z</time>
      </trkpt>
      <trkpt lat="45.92466" lon="4.73778">
        <ele>173</ele>
        <time>2016-10-02T10:54:32Z</time>
      </trkpt>
      <trkpt lat="45.92465" lon="4.73765">
        <ele>173</ele>
        <time>2016-10-02T10:54:34Z</time>
      </trkpt>
      <trkpt lat="45.92465" lon="4.73759">
        <ele>173</ele>
        <time>2016-10-02T10:54:35Z</time>
      </trkpt>
      <trkpt lat="45.92466" lon="4.73747">
        <ele>174</ele>
        <time>2016-10-02T10:54:37Z</time>
      </trkpt>
      <trkpt lat="45.92467" lon="4.7374">
        <ele>174</ele>
        <time>2016-10-02T10:54:38Z</time>
      </trkpt>
      <trkpt lat="45.92468" lon="4.73729">
        <ele>174</ele>
        <time>2016-10-02T10:54:40Z</time>
      </trkpt>
      <trkpt lat="45.92468" lon="4.73724">
        <ele>174</ele>
        <time>2016-10-02T10:54:41Z</time>
      </trkpt>
      <trkpt lat="45.92467" lon="4.73715">
        <ele>174</ele>
        <time>2016-10-02T10:54:43Z</time>
      </trkpt>
      <trkpt lat="45.92467" lon="4.73713">
        <ele>174</ele>
        <time>2016-10-02T10:54:44Z</time>
      </trkpt>
      <trkpt lat="45.92467" lon="4.73713">
        <ele>174</ele>
        <time>2016-10-02T10:54:47Z</time>
      </trkpt>
      <trkpt lat="45.92465" lon="4.73715">
        <ele>174</ele>
        <time>2016-10-02T10:54:48Z</time>
      </trkpt>
      <trkpt lat="45.92464" lon="4.7371">
        <ele>174</ele>
        <time>2016-10-02T10:55:00Z</time>
      </trkpt>
      <trkpt lat="45.92464" lon="4.7371">
        <ele>174</ele>
        <time>2016-10-02T10:55:01Z</time>
      </trkpt>
      <trkpt lat="45.92465" lon="4.73707">
        <ele>174</ele>
        <time>2016-10-02T10:55:17.425Z</time>
      </trkpt>
    </trkseg>
  </trk>
</gpx>